<?xml version="1.0" encoding="UTF-8" standalone="no" ?>
<gpx xmlns="http://www.topografix.com/GPX/1/1" xmlns:xsi="http://www.w3.org/2001/XMLSchema-instance" xsi:schemaLocation="http://www.topografix.com/GPX/1/1 http://www.topografix.com/GPX/1/1/gpx.xsd" version="1.1" creator="VisuGPX - https://www.visugpx.com">
  <metadata>
    <name>2017-04-29 Bike ride-Dombes O-Medium</name>
    <desc><![CDATA[2017-04-29 Bike ride-Dombes O-Medium]]></desc>
  </metadata>
  <wpt lat="45.92456" lon="4.73713">
    <ele>174</ele>
    <name><![CDATA[2017-04-29 10:08 (Start)]]></name>
  </wpt>
  <wpt lat="45.9246" lon="4.73708">
    <ele>174</ele>
    <name><![CDATA[2017-04-29 10:08 (End)]]></name>
    <desc><![CDATA[Created by Google My Tracks on Android  Name: 2017-04-29 10:08 Activity type: biking Description: - Total distance: 56.97 km (35.4 mi) Total time: 3:15:04 Moving time: 3:01:01 Average speed: 17.52 km/h (10.9 mi/h) Average moving speed: 18.88 km/h (11.7 mi/h) Max speed: 48.03 km/h (29.8 mi/h) Average pace: 3:25 min/km (5:31 min/mi) Average moving pace: 3:11 min/km (5:07 min/mi) Fastest pace: 1:15 min/km (2:01 min/mi) Max elevation: 315 m (1035 ft) Min elevation: 169 m (556 ft) Elevation gain: 802 m (2632 ft) Max grade: 14 % Min grade: -12 % Recorded: 29/04/2017 10:08]]></desc>
  </wpt>
  <trk>
    <name><![CDATA[2017-04-29 10:08]]></name>
    <trkseg>
      <trkpt lat="45.92456" lon="4.73713">
        <ele>174</ele>
        <time>2017-04-29T08:08:35.849Z</time>
      </trkpt>
      <trkpt lat="45.92455" lon="4.73714">
        <ele>174</ele>
        <time>2017-04-29T08:08:57Z</time>
      </trkpt>
      <trkpt lat="45.92453" lon="4.73714">
        <ele>174</ele>
        <time>2017-04-29T08:09:20Z</time>
      </trkpt>
      <trkpt lat="45.92461" lon="4.73709">
        <ele>174</ele>
        <time>2017-04-29T08:09:21Z</time>
      </trkpt>
      <trkpt lat="45.92465" lon="4.737">
        <ele>174</ele>
        <time>2017-04-29T08:09:25Z</time>
      </trkpt>
      <trkpt lat="45.92466" lon="4.73697">
        <ele>174</ele>
        <time>2017-04-29T08:09:26Z</time>
      </trkpt>
      <trkpt lat="45.92468" lon="4.73687">
        <ele>174</ele>
        <time>2017-04-29T08:09:29Z</time>
      </trkpt>
      <trkpt lat="45.92469" lon="4.73682">
        <ele>174</ele>
        <time>2017-04-29T08:09:30Z</time>
      </trkpt>
      <trkpt lat="45.92471" lon="4.73672">
        <ele>174</ele>
        <time>2017-04-29T08:09:32Z</time>
      </trkpt>
      <trkpt lat="45.92472" lon="4.73667">
        <ele>174</ele>
        <time>2017-04-29T08:09:33Z</time>
      </trkpt>
      <trkpt lat="45.92474" lon="4.73657">
        <ele>174</ele>
        <time>2017-04-29T08:09:35Z</time>
      </trkpt>
      <trkpt lat="45.92475" lon="4.73651">
        <ele>174</ele>
        <time>2017-04-29T08:09:36Z</time>
      </trkpt>
      <trkpt lat="45.92478" lon="4.73642">
        <ele>174</ele>
        <time>2017-04-29T08:09:38Z</time>
      </trkpt>
      <trkpt lat="45.92481" lon="4.73639">
        <ele>174</ele>
        <time>2017-04-29T08:09:39Z</time>
      </trkpt>
      <trkpt lat="45.92487" lon="4.73638">
        <ele>174</ele>
        <time>2017-04-29T08:09:41Z</time>
      </trkpt>
      <trkpt lat="45.92491" lon="4.73638">
        <ele>174</ele>
        <time>2017-04-29T08:09:42Z</time>
      </trkpt>
      <trkpt lat="45.92498" lon="4.73637">
        <ele>174</ele>
        <time>2017-04-29T08:09:44Z</time>
      </trkpt>
      <trkpt lat="45.92502" lon="4.73637">
        <ele>174</ele>
        <time>2017-04-29T08:09:45Z</time>
      </trkpt>
      <trkpt lat="45.92511" lon="4.73636">
        <ele>173</ele>
        <time>2017-04-29T08:09:47Z</time>
      </trkpt>
      <trkpt lat="45.92515" lon="4.73636">
        <ele>173</ele>
        <time>2017-04-29T08:09:48Z</time>
      </trkpt>
      <trkpt lat="45.9252" lon="4.73636">
        <ele>173</ele>
        <time>2017-04-29T08:09:49Z</time>
      </trkpt>
      <trkpt lat="45.92525" lon="4.73636">
        <ele>173</ele>
        <time>2017-04-29T08:09:50Z</time>
      </trkpt>
      <trkpt lat="45.92529" lon="4.73636">
        <ele>173</ele>
        <time>2017-04-29T08:09:51Z</time>
      </trkpt>
      <trkpt lat="45.92534" lon="4.73635">
        <ele>173</ele>
        <time>2017-04-29T08:09:52Z</time>
      </trkpt>
      <trkpt lat="45.92539" lon="4.73634">
        <ele>173</ele>
        <time>2017-04-29T08:09:53Z</time>
      </trkpt>
      <trkpt lat="45.92544" lon="4.73633">
        <ele>173</ele>
        <time>2017-04-29T08:09:54Z</time>
      </trkpt>
      <trkpt lat="45.92548" lon="4.73633">
        <ele>173</ele>
        <time>2017-04-29T08:09:55Z</time>
      </trkpt>
      <trkpt lat="45.92553" lon="4.73632">
        <ele>173</ele>
        <time>2017-04-29T08:09:56Z</time>
      </trkpt>
      <trkpt lat="45.92561" lon="4.73631">
        <ele>173</ele>
        <time>2017-04-29T08:09:58Z</time>
      </trkpt>
      <trkpt lat="45.92565" lon="4.73629">
        <ele>173</ele>
        <time>2017-04-29T08:09:59Z</time>
      </trkpt>
      <trkpt lat="45.92574" lon="4.73627">
        <ele>173</ele>
        <time>2017-04-29T08:10:01Z</time>
      </trkpt>
      <trkpt lat="45.92577" lon="4.73626">
        <ele>173</ele>
        <time>2017-04-29T08:10:02Z</time>
      </trkpt>
      <trkpt lat="45.92586" lon="4.73625">
        <ele>172</ele>
        <time>2017-04-29T08:10:04Z</time>
      </trkpt>
      <trkpt lat="45.9259" lon="4.73626">
        <ele>172</ele>
        <time>2017-04-29T08:10:05Z</time>
      </trkpt>
      <trkpt lat="45.92599" lon="4.73626">
        <ele>173</ele>
        <time>2017-04-29T08:10:07Z</time>
      </trkpt>
      <trkpt lat="45.92604" lon="4.73626">
        <ele>173</ele>
        <time>2017-04-29T08:10:08Z</time>
      </trkpt>
      <trkpt lat="45.92607" lon="4.73629">
        <ele>173</ele>
        <time>2017-04-29T08:10:09Z</time>
      </trkpt>
      <trkpt lat="45.92612" lon="4.73632">
        <ele>173</ele>
        <time>2017-04-29T08:10:10Z</time>
      </trkpt>
      <trkpt lat="45.92615" lon="4.73637">
        <ele>173</ele>
        <time>2017-04-29T08:10:11Z</time>
      </trkpt>
      <trkpt lat="45.92618" lon="4.73642">
        <ele>173</ele>
        <time>2017-04-29T08:10:12Z</time>
      </trkpt>
      <trkpt lat="45.92621" lon="4.73648">
        <ele>173</ele>
        <time>2017-04-29T08:10:13Z</time>
      </trkpt>
      <trkpt lat="45.92624" lon="4.73655">
        <ele>173</ele>
        <time>2017-04-29T08:10:14Z</time>
      </trkpt>
      <trkpt lat="45.92627" lon="4.73661">
        <ele>173</ele>
        <time>2017-04-29T08:10:15Z</time>
      </trkpt>
      <trkpt lat="45.9263" lon="4.73668">
        <ele>173</ele>
        <time>2017-04-29T08:10:16Z</time>
      </trkpt>
      <trkpt lat="45.92633" lon="4.73673">
        <ele>173</ele>
        <time>2017-04-29T08:10:17Z</time>
      </trkpt>
      <trkpt lat="45.92637" lon="4.73679">
        <ele>173</ele>
        <time>2017-04-29T08:10:18Z</time>
      </trkpt>
      <trkpt lat="45.9264" lon="4.73685">
        <ele>173</ele>
        <time>2017-04-29T08:10:19Z</time>
      </trkpt>
      <trkpt lat="45.92644" lon="4.7369">
        <ele>173</ele>
        <time>2017-04-29T08:10:20Z</time>
      </trkpt>
      <trkpt lat="45.92648" lon="4.73694">
        <ele>173</ele>
        <time>2017-04-29T08:10:21Z</time>
      </trkpt>
      <trkpt lat="45.92653" lon="4.73697">
        <ele>173</ele>
        <time>2017-04-29T08:10:22Z</time>
      </trkpt>
      <trkpt lat="45.92658" lon="4.737">
        <ele>173</ele>
        <time>2017-04-29T08:10:23Z</time>
      </trkpt>
      <trkpt lat="45.92662" lon="4.73703">
        <ele>173</ele>
        <time>2017-04-29T08:10:24Z</time>
      </trkpt>
      <trkpt lat="45.92667" lon="4.73705">
        <ele>174</ele>
        <time>2017-04-29T08:10:25Z</time>
      </trkpt>
      <trkpt lat="45.92672" lon="4.73707">
        <ele>174</ele>
        <time>2017-04-29T08:10:26Z</time>
      </trkpt>
      <trkpt lat="45.92677" lon="4.73709">
        <ele>173</ele>
        <time>2017-04-29T08:10:27Z</time>
      </trkpt>
      <trkpt lat="45.92683" lon="4.73711">
        <ele>173</ele>
        <time>2017-04-29T08:10:28Z</time>
      </trkpt>
      <trkpt lat="45.92688" lon="4.73714">
        <ele>173</ele>
        <time>2017-04-29T08:10:29Z</time>
      </trkpt>
      <trkpt lat="45.92693" lon="4.73716">
        <ele>173</ele>
        <time>2017-04-29T08:10:30Z</time>
      </trkpt>
      <trkpt lat="45.92699" lon="4.73717">
        <ele>173</ele>
        <time>2017-04-29T08:10:31Z</time>
      </trkpt>
      <trkpt lat="45.92704" lon="4.73717">
        <ele>173</ele>
        <time>2017-04-29T08:10:32Z</time>
      </trkpt>
      <trkpt lat="45.9271" lon="4.73717">
        <ele>173</ele>
        <time>2017-04-29T08:10:33Z</time>
      </trkpt>
      <trkpt lat="45.92715" lon="4.73718">
        <ele>173</ele>
        <time>2017-04-29T08:10:34Z</time>
      </trkpt>
      <trkpt lat="45.92721" lon="4.73719">
        <ele>173</ele>
        <time>2017-04-29T08:10:35Z</time>
      </trkpt>
      <trkpt lat="45.92726" lon="4.7372">
        <ele>173</ele>
        <time>2017-04-29T08:10:36Z</time>
      </trkpt>
      <trkpt lat="45.92731" lon="4.73722">
        <ele>173</ele>
        <time>2017-04-29T08:10:37Z</time>
      </trkpt>
      <trkpt lat="45.92736" lon="4.73722">
        <ele>173</ele>
        <time>2017-04-29T08:10:38Z</time>
      </trkpt>
      <trkpt lat="45.92741" lon="4.73723">
        <ele>173</ele>
        <time>2017-04-29T08:10:39Z</time>
      </trkpt>
      <trkpt lat="45.92746" lon="4.73723">
        <ele>173</ele>
        <time>2017-04-29T08:10:40Z</time>
      </trkpt>
      <trkpt lat="45.92751" lon="4.73724">
        <ele>172</ele>
        <time>2017-04-29T08:10:41Z</time>
      </trkpt>
      <trkpt lat="45.92755" lon="4.73725">
        <ele>172</ele>
        <time>2017-04-29T08:10:42Z</time>
      </trkpt>
      <trkpt lat="45.92763" lon="4.73729">
        <ele>172</ele>
        <time>2017-04-29T08:10:44Z</time>
      </trkpt>
      <trkpt lat="45.92767" lon="4.73731">
        <ele>172</ele>
        <time>2017-04-29T08:10:45Z</time>
      </trkpt>
      <trkpt lat="45.92773" lon="4.73738">
        <ele>172</ele>
        <time>2017-04-29T08:10:47Z</time>
      </trkpt>
      <trkpt lat="45.92775" lon="4.73742">
        <ele>172</ele>
        <time>2017-04-29T08:10:48Z</time>
      </trkpt>
      <trkpt lat="45.9278" lon="4.73751">
        <ele>173</ele>
        <time>2017-04-29T08:10:50Z</time>
      </trkpt>
      <trkpt lat="45.92784" lon="4.73754">
        <ele>173</ele>
        <time>2017-04-29T08:10:51Z</time>
      </trkpt>
      <trkpt lat="45.92789" lon="4.73756">
        <ele>173</ele>
        <time>2017-04-29T08:10:52Z</time>
      </trkpt>
      <trkpt lat="45.92793" lon="4.73759">
        <ele>173</ele>
        <time>2017-04-29T08:10:53Z</time>
      </trkpt>
      <trkpt lat="45.92797" lon="4.73763">
        <ele>173</ele>
        <time>2017-04-29T08:10:54Z</time>
      </trkpt>
      <trkpt lat="45.92802" lon="4.73766">
        <ele>173</ele>
        <time>2017-04-29T08:10:55Z</time>
      </trkpt>
      <trkpt lat="45.92806" lon="4.73769">
        <ele>173</ele>
        <time>2017-04-29T08:10:56Z</time>
      </trkpt>
      <trkpt lat="45.92811" lon="4.73773">
        <ele>173</ele>
        <time>2017-04-29T08:10:57Z</time>
      </trkpt>
      <trkpt lat="45.92815" lon="4.73777">
        <ele>173</ele>
        <time>2017-04-29T08:10:58Z</time>
      </trkpt>
      <trkpt lat="45.92821" lon="4.73781">
        <ele>173</ele>
        <time>2017-04-29T08:10:59Z</time>
      </trkpt>
      <trkpt lat="45.92825" lon="4.73784">
        <ele>173</ele>
        <time>2017-04-29T08:11:00Z</time>
      </trkpt>
      <trkpt lat="45.9283" lon="4.73788">
        <ele>173</ele>
        <time>2017-04-29T08:11:01Z</time>
      </trkpt>
      <trkpt lat="45.92836" lon="4.73791">
        <ele>173</ele>
        <time>2017-04-29T08:11:02Z</time>
      </trkpt>
      <trkpt lat="45.9284" lon="4.73796">
        <ele>173</ele>
        <time>2017-04-29T08:11:03Z</time>
      </trkpt>
      <trkpt lat="45.92844" lon="4.73801">
        <ele>173</ele>
        <time>2017-04-29T08:11:04Z</time>
      </trkpt>
      <trkpt lat="45.92847" lon="4.73807">
        <ele>173</ele>
        <time>2017-04-29T08:11:05Z</time>
      </trkpt>
      <trkpt lat="45.9285" lon="4.73815">
        <ele>173</ele>
        <time>2017-04-29T08:11:06Z</time>
      </trkpt>
      <trkpt lat="45.92852" lon="4.73823">
        <ele>173</ele>
        <time>2017-04-29T08:11:07Z</time>
      </trkpt>
      <trkpt lat="45.92854" lon="4.7383">
        <ele>173</ele>
        <time>2017-04-29T08:11:08Z</time>
      </trkpt>
      <trkpt lat="45.92856" lon="4.73837">
        <ele>173</ele>
        <time>2017-04-29T08:11:09Z</time>
      </trkpt>
      <trkpt lat="45.92858" lon="4.73845">
        <ele>173</ele>
        <time>2017-04-29T08:11:10Z</time>
      </trkpt>
      <trkpt lat="45.9286" lon="4.73852">
        <ele>173</ele>
        <time>2017-04-29T08:11:11Z</time>
      </trkpt>
      <trkpt lat="45.92863" lon="4.73859">
        <ele>173</ele>
        <time>2017-04-29T08:11:12Z</time>
      </trkpt>
      <trkpt lat="45.92865" lon="4.73867">
        <ele>173</ele>
        <time>2017-04-29T08:11:13Z</time>
      </trkpt>
      <trkpt lat="45.92868" lon="4.73874">
        <ele>173</ele>
        <time>2017-04-29T08:11:14Z</time>
      </trkpt>
      <trkpt lat="45.92869" lon="4.73882">
        <ele>173</ele>
        <time>2017-04-29T08:11:15Z</time>
      </trkpt>
      <trkpt lat="45.92871" lon="4.73889">
        <ele>173</ele>
        <time>2017-04-29T08:11:16Z</time>
      </trkpt>
      <trkpt lat="45.92874" lon="4.73897">
        <ele>173</ele>
        <time>2017-04-29T08:11:17Z</time>
      </trkpt>
      <trkpt lat="45.92873" lon="4.73905">
        <ele>173</ele>
        <time>2017-04-29T08:11:18Z</time>
      </trkpt>
      <trkpt lat="45.92874" lon="4.73913">
        <ele>173</ele>
        <time>2017-04-29T08:11:19Z</time>
      </trkpt>
      <trkpt lat="45.92874" lon="4.73921">
        <ele>173</ele>
        <time>2017-04-29T08:11:20Z</time>
      </trkpt>
      <trkpt lat="45.92875" lon="4.73929">
        <ele>172</ele>
        <time>2017-04-29T08:11:21Z</time>
      </trkpt>
      <trkpt lat="45.92875" lon="4.73936">
        <ele>172</ele>
        <time>2017-04-29T08:11:22Z</time>
      </trkpt>
      <trkpt lat="45.92876" lon="4.73944">
        <ele>172</ele>
        <time>2017-04-29T08:11:23Z</time>
      </trkpt>
      <trkpt lat="45.92876" lon="4.73952">
        <ele>172</ele>
        <time>2017-04-29T08:11:24Z</time>
      </trkpt>
      <trkpt lat="45.92876" lon="4.73959">
        <ele>172</ele>
        <time>2017-04-29T08:11:25Z</time>
      </trkpt>
      <trkpt lat="45.92877" lon="4.73967">
        <ele>172</ele>
        <time>2017-04-29T08:11:26Z</time>
      </trkpt>
      <trkpt lat="45.92877" lon="4.73974">
        <ele>172</ele>
        <time>2017-04-29T08:11:27Z</time>
      </trkpt>
      <trkpt lat="45.92876" lon="4.73981">
        <ele>172</ele>
        <time>2017-04-29T08:11:28Z</time>
      </trkpt>
      <trkpt lat="45.92875" lon="4.73987">
        <ele>172</ele>
        <time>2017-04-29T08:11:29Z</time>
      </trkpt>
      <trkpt lat="45.92875" lon="4.73994">
        <ele>172</ele>
        <time>2017-04-29T08:11:30Z</time>
      </trkpt>
      <trkpt lat="45.92874" lon="4.74001">
        <ele>172</ele>
        <time>2017-04-29T08:11:31Z</time>
      </trkpt>
      <trkpt lat="45.92872" lon="4.74007">
        <ele>172</ele>
        <time>2017-04-29T08:11:32Z</time>
      </trkpt>
      <trkpt lat="45.9287" lon="4.74014">
        <ele>172</ele>
        <time>2017-04-29T08:11:33Z</time>
      </trkpt>
      <trkpt lat="45.92869" lon="4.74021">
        <ele>172</ele>
        <time>2017-04-29T08:11:34Z</time>
      </trkpt>
      <trkpt lat="45.92867" lon="4.74028">
        <ele>172</ele>
        <time>2017-04-29T08:11:35Z</time>
      </trkpt>
      <trkpt lat="45.92866" lon="4.74035">
        <ele>172</ele>
        <time>2017-04-29T08:11:36Z</time>
      </trkpt>
      <trkpt lat="45.92864" lon="4.74042">
        <ele>172</ele>
        <time>2017-04-29T08:11:37Z</time>
      </trkpt>
      <trkpt lat="45.9286" lon="4.74049">
        <ele>172</ele>
        <time>2017-04-29T08:11:38Z</time>
      </trkpt>
      <trkpt lat="45.92857" lon="4.74054">
        <ele>172</ele>
        <time>2017-04-29T08:11:39Z</time>
      </trkpt>
      <trkpt lat="45.92853" lon="4.74059">
        <ele>172</ele>
        <time>2017-04-29T08:11:40Z</time>
      </trkpt>
      <trkpt lat="45.92848" lon="4.74064">
        <ele>172</ele>
        <time>2017-04-29T08:11:41Z</time>
      </trkpt>
      <trkpt lat="45.92844" lon="4.74069">
        <ele>172</ele>
        <time>2017-04-29T08:11:42Z</time>
      </trkpt>
      <trkpt lat="45.9284" lon="4.74074">
        <ele>172</ele>
        <time>2017-04-29T08:11:43Z</time>
      </trkpt>
      <trkpt lat="45.92836" lon="4.74079">
        <ele>171</ele>
        <time>2017-04-29T08:11:44Z</time>
      </trkpt>
      <trkpt lat="45.92831" lon="4.74084">
        <ele>171</ele>
        <time>2017-04-29T08:11:45Z</time>
      </trkpt>
      <trkpt lat="45.92827" lon="4.74089">
        <ele>171</ele>
        <time>2017-04-29T08:11:46Z</time>
      </trkpt>
      <trkpt lat="45.92823" lon="4.74095">
        <ele>171</ele>
        <time>2017-04-29T08:11:47Z</time>
      </trkpt>
      <trkpt lat="45.92818" lon="4.741">
        <ele>171</ele>
        <time>2017-04-29T08:11:48Z</time>
      </trkpt>
      <trkpt lat="45.92813" lon="4.74105">
        <ele>172</ele>
        <time>2017-04-29T08:11:49Z</time>
      </trkpt>
      <trkpt lat="45.92809" lon="4.7411">
        <ele>172</ele>
        <time>2017-04-29T08:11:50Z</time>
      </trkpt>
      <trkpt lat="45.92804" lon="4.74116">
        <ele>172</ele>
        <time>2017-04-29T08:11:51Z</time>
      </trkpt>
      <trkpt lat="45.92799" lon="4.7412">
        <ele>172</ele>
        <time>2017-04-29T08:11:52Z</time>
      </trkpt>
      <trkpt lat="45.92794" lon="4.74126">
        <ele>172</ele>
        <time>2017-04-29T08:11:53Z</time>
      </trkpt>
      <trkpt lat="45.92789" lon="4.74131">
        <ele>172</ele>
        <time>2017-04-29T08:11:54Z</time>
      </trkpt>
      <trkpt lat="45.92786" lon="4.74135">
        <ele>172</ele>
        <time>2017-04-29T08:11:55Z</time>
      </trkpt>
      <trkpt lat="45.92782" lon="4.7414">
        <ele>172</ele>
        <time>2017-04-29T08:11:56Z</time>
      </trkpt>
      <trkpt lat="45.92779" lon="4.74146">
        <ele>172</ele>
        <time>2017-04-29T08:11:57Z</time>
      </trkpt>
      <trkpt lat="45.92776" lon="4.74151">
        <ele>172</ele>
        <time>2017-04-29T08:11:58Z</time>
      </trkpt>
      <trkpt lat="45.92771" lon="4.74156">
        <ele>172</ele>
        <time>2017-04-29T08:11:59Z</time>
      </trkpt>
      <trkpt lat="45.92766" lon="4.7416">
        <ele>172</ele>
        <time>2017-04-29T08:12:00Z</time>
      </trkpt>
      <trkpt lat="45.92761" lon="4.74163">
        <ele>172</ele>
        <time>2017-04-29T08:12:01Z</time>
      </trkpt>
      <trkpt lat="45.92756" lon="4.74168">
        <ele>172</ele>
        <time>2017-04-29T08:12:02Z</time>
      </trkpt>
      <trkpt lat="45.92752" lon="4.74172">
        <ele>172</ele>
        <time>2017-04-29T08:12:03Z</time>
      </trkpt>
      <trkpt lat="45.92748" lon="4.74176">
        <ele>172</ele>
        <time>2017-04-29T08:12:04Z</time>
      </trkpt>
      <trkpt lat="45.92744" lon="4.74181">
        <ele>172</ele>
        <time>2017-04-29T08:12:05Z</time>
      </trkpt>
      <trkpt lat="45.92739" lon="4.74186">
        <ele>172</ele>
        <time>2017-04-29T08:12:06Z</time>
      </trkpt>
      <trkpt lat="45.92735" lon="4.74191">
        <ele>171</ele>
        <time>2017-04-29T08:12:07Z</time>
      </trkpt>
      <trkpt lat="45.92731" lon="4.74197">
        <ele>171</ele>
        <time>2017-04-29T08:12:08Z</time>
      </trkpt>
      <trkpt lat="45.92727" lon="4.74203">
        <ele>171</ele>
        <time>2017-04-29T08:12:09Z</time>
      </trkpt>
      <trkpt lat="45.92723" lon="4.74208">
        <ele>171</ele>
        <time>2017-04-29T08:12:10Z</time>
      </trkpt>
      <trkpt lat="45.92719" lon="4.74214">
        <ele>171</ele>
        <time>2017-04-29T08:12:11Z</time>
      </trkpt>
      <trkpt lat="45.92715" lon="4.74219">
        <ele>171</ele>
        <time>2017-04-29T08:12:12Z</time>
      </trkpt>
      <trkpt lat="45.92711" lon="4.74225">
        <ele>171</ele>
        <time>2017-04-29T08:12:13Z</time>
      </trkpt>
      <trkpt lat="45.92707" lon="4.74231">
        <ele>171</ele>
        <time>2017-04-29T08:12:14Z</time>
      </trkpt>
      <trkpt lat="45.92703" lon="4.74238">
        <ele>171</ele>
        <time>2017-04-29T08:12:15Z</time>
      </trkpt>
      <trkpt lat="45.92699" lon="4.74245">
        <ele>171</ele>
        <time>2017-04-29T08:12:16Z</time>
      </trkpt>
      <trkpt lat="45.92695" lon="4.74251">
        <ele>171</ele>
        <time>2017-04-29T08:12:17Z</time>
      </trkpt>
      <trkpt lat="45.92691" lon="4.74258">
        <ele>171</ele>
        <time>2017-04-29T08:12:18Z</time>
      </trkpt>
      <trkpt lat="45.92688" lon="4.74264">
        <ele>171</ele>
        <time>2017-04-29T08:12:19Z</time>
      </trkpt>
      <trkpt lat="45.92684" lon="4.74271">
        <ele>171</ele>
        <time>2017-04-29T08:12:20Z</time>
      </trkpt>
      <trkpt lat="45.9268" lon="4.74277">
        <ele>171</ele>
        <time>2017-04-29T08:12:21Z</time>
      </trkpt>
      <trkpt lat="45.92677" lon="4.74284">
        <ele>171</ele>
        <time>2017-04-29T08:12:22Z</time>
      </trkpt>
      <trkpt lat="45.92673" lon="4.74291">
        <ele>171</ele>
        <time>2017-04-29T08:12:23Z</time>
      </trkpt>
      <trkpt lat="45.92669" lon="4.74297">
        <ele>171</ele>
        <time>2017-04-29T08:12:24Z</time>
      </trkpt>
      <trkpt lat="45.92666" lon="4.74304">
        <ele>171</ele>
        <time>2017-04-29T08:12:25Z</time>
      </trkpt>
      <trkpt lat="45.92663" lon="4.74311">
        <ele>171</ele>
        <time>2017-04-29T08:12:26Z</time>
      </trkpt>
      <trkpt lat="45.9266" lon="4.74317">
        <ele>171</ele>
        <time>2017-04-29T08:12:27Z</time>
      </trkpt>
      <trkpt lat="45.92656" lon="4.74324">
        <ele>171</ele>
        <time>2017-04-29T08:12:28Z</time>
      </trkpt>
      <trkpt lat="45.92652" lon="4.74331">
        <ele>171</ele>
        <time>2017-04-29T08:12:29Z</time>
      </trkpt>
      <trkpt lat="45.92649" lon="4.74338">
        <ele>171</ele>
        <time>2017-04-29T08:12:30Z</time>
      </trkpt>
      <trkpt lat="45.92645" lon="4.74344">
        <ele>171</ele>
        <time>2017-04-29T08:12:31Z</time>
      </trkpt>
      <trkpt lat="45.92642" lon="4.7435">
        <ele>171</ele>
        <time>2017-04-29T08:12:32Z</time>
      </trkpt>
      <trkpt lat="45.92639" lon="4.74357">
        <ele>171</ele>
        <time>2017-04-29T08:12:33Z</time>
      </trkpt>
      <trkpt lat="45.92635" lon="4.74363">
        <ele>171</ele>
        <time>2017-04-29T08:12:34Z</time>
      </trkpt>
      <trkpt lat="45.92632" lon="4.7437">
        <ele>171</ele>
        <time>2017-04-29T08:12:35Z</time>
      </trkpt>
      <trkpt lat="45.92628" lon="4.74378">
        <ele>170</ele>
        <time>2017-04-29T08:12:36Z</time>
      </trkpt>
      <trkpt lat="45.92624" lon="4.74385">
        <ele>170</ele>
        <time>2017-04-29T08:12:37Z</time>
      </trkpt>
      <trkpt lat="45.9262" lon="4.74392">
        <ele>170</ele>
        <time>2017-04-29T08:12:38Z</time>
      </trkpt>
      <trkpt lat="45.92616" lon="4.74399">
        <ele>170</ele>
        <time>2017-04-29T08:12:39Z</time>
      </trkpt>
      <trkpt lat="45.92612" lon="4.74406">
        <ele>170</ele>
        <time>2017-04-29T08:12:40Z</time>
      </trkpt>
      <trkpt lat="45.92608" lon="4.74413">
        <ele>170</ele>
        <time>2017-04-29T08:12:41Z</time>
      </trkpt>
      <trkpt lat="45.92604" lon="4.7442">
        <ele>170</ele>
        <time>2017-04-29T08:12:42Z</time>
      </trkpt>
      <trkpt lat="45.926" lon="4.74428">
        <ele>170</ele>
        <time>2017-04-29T08:12:43Z</time>
      </trkpt>
      <trkpt lat="45.92596" lon="4.74435">
        <ele>170</ele>
        <time>2017-04-29T08:12:44Z</time>
      </trkpt>
      <trkpt lat="45.92592" lon="4.74442">
        <ele>170</ele>
        <time>2017-04-29T08:12:45Z</time>
      </trkpt>
      <trkpt lat="45.92588" lon="4.7445">
        <ele>170</ele>
        <time>2017-04-29T08:12:46Z</time>
      </trkpt>
      <trkpt lat="45.92584" lon="4.74457">
        <ele>170</ele>
        <time>2017-04-29T08:12:47Z</time>
      </trkpt>
      <trkpt lat="45.92579" lon="4.74464">
        <ele>170</ele>
        <time>2017-04-29T08:12:48Z</time>
      </trkpt>
      <trkpt lat="45.92575" lon="4.74472">
        <ele>170</ele>
        <time>2017-04-29T08:12:49Z</time>
      </trkpt>
      <trkpt lat="45.92571" lon="4.74479">
        <ele>170</ele>
        <time>2017-04-29T08:12:50Z</time>
      </trkpt>
      <trkpt lat="45.92567" lon="4.74486">
        <ele>170</ele>
        <time>2017-04-29T08:12:51Z</time>
      </trkpt>
      <trkpt lat="45.92563" lon="4.74494">
        <ele>170</ele>
        <time>2017-04-29T08:12:52Z</time>
      </trkpt>
      <trkpt lat="45.92559" lon="4.74501">
        <ele>170</ele>
        <time>2017-04-29T08:12:53Z</time>
      </trkpt>
      <trkpt lat="45.92555" lon="4.74509">
        <ele>170</ele>
        <time>2017-04-29T08:12:54Z</time>
      </trkpt>
      <trkpt lat="45.92551" lon="4.74516">
        <ele>170</ele>
        <time>2017-04-29T08:12:55Z</time>
      </trkpt>
      <trkpt lat="45.92547" lon="4.74524">
        <ele>170</ele>
        <time>2017-04-29T08:12:56Z</time>
      </trkpt>
      <trkpt lat="45.92542" lon="4.74532">
        <ele>170</ele>
        <time>2017-04-29T08:12:57Z</time>
      </trkpt>
      <trkpt lat="45.92538" lon="4.74539">
        <ele>171</ele>
        <time>2017-04-29T08:12:58Z</time>
      </trkpt>
      <trkpt lat="45.92533" lon="4.74547">
        <ele>171</ele>
        <time>2017-04-29T08:12:59Z</time>
      </trkpt>
      <trkpt lat="45.92528" lon="4.74554">
        <ele>171</ele>
        <time>2017-04-29T08:13:00Z</time>
      </trkpt>
      <trkpt lat="45.92523" lon="4.7456">
        <ele>171</ele>
        <time>2017-04-29T08:13:01Z</time>
      </trkpt>
      <trkpt lat="45.92518" lon="4.74567">
        <ele>171</ele>
        <time>2017-04-29T08:13:02Z</time>
      </trkpt>
      <trkpt lat="45.92513" lon="4.74572">
        <ele>171</ele>
        <time>2017-04-29T08:13:03Z</time>
      </trkpt>
      <trkpt lat="45.92509" lon="4.74578">
        <ele>171</ele>
        <time>2017-04-29T08:13:04Z</time>
      </trkpt>
      <trkpt lat="45.92504" lon="4.74583">
        <ele>171</ele>
        <time>2017-04-29T08:13:05Z</time>
      </trkpt>
      <trkpt lat="45.92499" lon="4.74589">
        <ele>171</ele>
        <time>2017-04-29T08:13:06Z</time>
      </trkpt>
      <trkpt lat="45.92494" lon="4.74595">
        <ele>171</ele>
        <time>2017-04-29T08:13:07Z</time>
      </trkpt>
      <trkpt lat="45.92489" lon="4.746">
        <ele>171</ele>
        <time>2017-04-29T08:13:08Z</time>
      </trkpt>
      <trkpt lat="45.92485" lon="4.74606">
        <ele>171</ele>
        <time>2017-04-29T08:13:09Z</time>
      </trkpt>
      <trkpt lat="45.9248" lon="4.74612">
        <ele>171</ele>
        <time>2017-04-29T08:13:10Z</time>
      </trkpt>
      <trkpt lat="45.92476" lon="4.74618">
        <ele>171</ele>
        <time>2017-04-29T08:13:11Z</time>
      </trkpt>
      <trkpt lat="45.92472" lon="4.74624">
        <ele>171</ele>
        <time>2017-04-29T08:13:12Z</time>
      </trkpt>
      <trkpt lat="45.92468" lon="4.7463">
        <ele>171</ele>
        <time>2017-04-29T08:13:13Z</time>
      </trkpt>
      <trkpt lat="45.92464" lon="4.74636">
        <ele>171</ele>
        <time>2017-04-29T08:13:14Z</time>
      </trkpt>
      <trkpt lat="45.9246" lon="4.74643">
        <ele>171</ele>
        <time>2017-04-29T08:13:15Z</time>
      </trkpt>
      <trkpt lat="45.92456" lon="4.74649">
        <ele>171</ele>
        <time>2017-04-29T08:13:16Z</time>
      </trkpt>
      <trkpt lat="45.92452" lon="4.74656">
        <ele>171</ele>
        <time>2017-04-29T08:13:17Z</time>
      </trkpt>
      <trkpt lat="45.92449" lon="4.74663">
        <ele>171</ele>
        <time>2017-04-29T08:13:18Z</time>
      </trkpt>
      <trkpt lat="45.92446" lon="4.74671">
        <ele>171</ele>
        <time>2017-04-29T08:13:19Z</time>
      </trkpt>
      <trkpt lat="45.92442" lon="4.74679">
        <ele>171</ele>
        <time>2017-04-29T08:13:20Z</time>
      </trkpt>
      <trkpt lat="45.92438" lon="4.74687">
        <ele>171</ele>
        <time>2017-04-29T08:13:21Z</time>
      </trkpt>
      <trkpt lat="45.92435" lon="4.74695">
        <ele>171</ele>
        <time>2017-04-29T08:13:22Z</time>
      </trkpt>
      <trkpt lat="45.92432" lon="4.74703">
        <ele>171</ele>
        <time>2017-04-29T08:13:23Z</time>
      </trkpt>
      <trkpt lat="45.92428" lon="4.74711">
        <ele>171</ele>
        <time>2017-04-29T08:13:24Z</time>
      </trkpt>
      <trkpt lat="45.92425" lon="4.7472">
        <ele>171</ele>
        <time>2017-04-29T08:13:25Z</time>
      </trkpt>
      <trkpt lat="45.92422" lon="4.74728">
        <ele>171</ele>
        <time>2017-04-29T08:13:26Z</time>
      </trkpt>
      <trkpt lat="45.9242" lon="4.74736">
        <ele>171</ele>
        <time>2017-04-29T08:13:27Z</time>
      </trkpt>
      <trkpt lat="45.92417" lon="4.74745">
        <ele>172</ele>
        <time>2017-04-29T08:13:28Z</time>
      </trkpt>
      <trkpt lat="45.92415" lon="4.74754">
        <ele>172</ele>
        <time>2017-04-29T08:13:29Z</time>
      </trkpt>
      <trkpt lat="45.92413" lon="4.74762">
        <ele>172</ele>
        <time>2017-04-29T08:13:30Z</time>
      </trkpt>
      <trkpt lat="45.9241" lon="4.74771">
        <ele>172</ele>
        <time>2017-04-29T08:13:31Z</time>
      </trkpt>
      <trkpt lat="45.92408" lon="4.7478">
        <ele>171</ele>
        <time>2017-04-29T08:13:32Z</time>
      </trkpt>
      <trkpt lat="45.92406" lon="4.74789">
        <ele>171</ele>
        <time>2017-04-29T08:13:33Z</time>
      </trkpt>
      <trkpt lat="45.92404" lon="4.74799">
        <ele>171</ele>
        <time>2017-04-29T08:13:34Z</time>
      </trkpt>
      <trkpt lat="45.92402" lon="4.74808">
        <ele>171</ele>
        <time>2017-04-29T08:13:35Z</time>
      </trkpt>
      <trkpt lat="45.924" lon="4.74817">
        <ele>171</ele>
        <time>2017-04-29T08:13:36Z</time>
      </trkpt>
      <trkpt lat="45.92398" lon="4.74826">
        <ele>171</ele>
        <time>2017-04-29T08:13:37Z</time>
      </trkpt>
      <trkpt lat="45.92396" lon="4.74835">
        <ele>171</ele>
        <time>2017-04-29T08:13:38Z</time>
      </trkpt>
      <trkpt lat="45.92394" lon="4.74844">
        <ele>171</ele>
        <time>2017-04-29T08:13:39Z</time>
      </trkpt>
      <trkpt lat="45.92391" lon="4.74852">
        <ele>171</ele>
        <time>2017-04-29T08:13:40Z</time>
      </trkpt>
      <trkpt lat="45.92388" lon="4.74861">
        <ele>171</ele>
        <time>2017-04-29T08:13:41Z</time>
      </trkpt>
      <trkpt lat="45.92386" lon="4.74869">
        <ele>171</ele>
        <time>2017-04-29T08:13:42Z</time>
      </trkpt>
      <trkpt lat="45.92382" lon="4.74877">
        <ele>171</ele>
        <time>2017-04-29T08:13:43Z</time>
      </trkpt>
      <trkpt lat="45.92379" lon="4.74885">
        <ele>171</ele>
        <time>2017-04-29T08:13:44Z</time>
      </trkpt>
      <trkpt lat="45.92376" lon="4.74893">
        <ele>171</ele>
        <time>2017-04-29T08:13:45Z</time>
      </trkpt>
      <trkpt lat="45.92373" lon="4.74901">
        <ele>171</ele>
        <time>2017-04-29T08:13:46Z</time>
      </trkpt>
      <trkpt lat="45.9237" lon="4.74909">
        <ele>171</ele>
        <time>2017-04-29T08:13:47Z</time>
      </trkpt>
      <trkpt lat="45.92366" lon="4.74917">
        <ele>170</ele>
        <time>2017-04-29T08:13:48Z</time>
      </trkpt>
      <trkpt lat="45.92363" lon="4.74925">
        <ele>170</ele>
        <time>2017-04-29T08:13:49Z</time>
      </trkpt>
      <trkpt lat="45.9236" lon="4.74933">
        <ele>170</ele>
        <time>2017-04-29T08:13:50Z</time>
      </trkpt>
      <trkpt lat="45.92357" lon="4.74941">
        <ele>170</ele>
        <time>2017-04-29T08:13:51Z</time>
      </trkpt>
      <trkpt lat="45.92354" lon="4.74948">
        <ele>170</ele>
        <time>2017-04-29T08:13:52Z</time>
      </trkpt>
      <trkpt lat="45.92351" lon="4.74956">
        <ele>170</ele>
        <time>2017-04-29T08:13:53Z</time>
      </trkpt>
      <trkpt lat="45.92348" lon="4.74964">
        <ele>170</ele>
        <time>2017-04-29T08:13:54Z</time>
      </trkpt>
      <trkpt lat="45.92346" lon="4.74972">
        <ele>170</ele>
        <time>2017-04-29T08:13:55Z</time>
      </trkpt>
      <trkpt lat="45.92343" lon="4.7498">
        <ele>170</ele>
        <time>2017-04-29T08:13:56Z</time>
      </trkpt>
      <trkpt lat="45.92339" lon="4.74989">
        <ele>170</ele>
        <time>2017-04-29T08:13:57Z</time>
      </trkpt>
      <trkpt lat="45.92336" lon="4.74997">
        <ele>170</ele>
        <time>2017-04-29T08:13:58Z</time>
      </trkpt>
      <trkpt lat="45.92333" lon="4.75005">
        <ele>170</ele>
        <time>2017-04-29T08:13:59Z</time>
      </trkpt>
      <trkpt lat="45.92329" lon="4.75013">
        <ele>171</ele>
        <time>2017-04-29T08:14:00Z</time>
      </trkpt>
      <trkpt lat="45.92326" lon="4.7502">
        <ele>171</ele>
        <time>2017-04-29T08:14:01Z</time>
      </trkpt>
      <trkpt lat="45.92322" lon="4.75028">
        <ele>171</ele>
        <time>2017-04-29T08:14:02Z</time>
      </trkpt>
      <trkpt lat="45.92318" lon="4.75035">
        <ele>171</ele>
        <time>2017-04-29T08:14:03Z</time>
      </trkpt>
      <trkpt lat="45.92314" lon="4.75042">
        <ele>172</ele>
        <time>2017-04-29T08:14:04Z</time>
      </trkpt>
      <trkpt lat="45.9231" lon="4.75048">
        <ele>172</ele>
        <time>2017-04-29T08:14:05Z</time>
      </trkpt>
      <trkpt lat="45.92306" lon="4.75054">
        <ele>172</ele>
        <time>2017-04-29T08:14:06Z</time>
      </trkpt>
      <trkpt lat="45.92301" lon="4.7506">
        <ele>172</ele>
        <time>2017-04-29T08:14:07Z</time>
      </trkpt>
      <trkpt lat="45.92296" lon="4.75066">
        <ele>172</ele>
        <time>2017-04-29T08:14:08Z</time>
      </trkpt>
      <trkpt lat="45.92292" lon="4.75072">
        <ele>172</ele>
        <time>2017-04-29T08:14:09Z</time>
      </trkpt>
      <trkpt lat="45.92286" lon="4.75077">
        <ele>172</ele>
        <time>2017-04-29T08:14:10Z</time>
      </trkpt>
      <trkpt lat="45.92281" lon="4.75082">
        <ele>172</ele>
        <time>2017-04-29T08:14:11Z</time>
      </trkpt>
      <trkpt lat="45.92276" lon="4.75087">
        <ele>173</ele>
        <time>2017-04-29T08:14:12Z</time>
      </trkpt>
      <trkpt lat="45.92271" lon="4.75092">
        <ele>173</ele>
        <time>2017-04-29T08:14:13Z</time>
      </trkpt>
      <trkpt lat="45.92266" lon="4.75098">
        <ele>173</ele>
        <time>2017-04-29T08:14:14Z</time>
      </trkpt>
      <trkpt lat="45.92261" lon="4.75103">
        <ele>173</ele>
        <time>2017-04-29T08:14:15Z</time>
      </trkpt>
      <trkpt lat="45.92257" lon="4.75109">
        <ele>174</ele>
        <time>2017-04-29T08:14:16Z</time>
      </trkpt>
      <trkpt lat="45.92252" lon="4.75114">
        <ele>174</ele>
        <time>2017-04-29T08:14:17Z</time>
      </trkpt>
      <trkpt lat="45.92248" lon="4.75119">
        <ele>174</ele>
        <time>2017-04-29T08:14:18Z</time>
      </trkpt>
      <trkpt lat="45.92243" lon="4.75124">
        <ele>174</ele>
        <time>2017-04-29T08:14:19Z</time>
      </trkpt>
      <trkpt lat="45.92239" lon="4.7513">
        <ele>174</ele>
        <time>2017-04-29T08:14:20Z</time>
      </trkpt>
      <trkpt lat="45.92235" lon="4.75135">
        <ele>174</ele>
        <time>2017-04-29T08:14:21Z</time>
      </trkpt>
      <trkpt lat="45.92232" lon="4.75141">
        <ele>174</ele>
        <time>2017-04-29T08:14:22Z</time>
      </trkpt>
      <trkpt lat="45.92228" lon="4.75148">
        <ele>174</ele>
        <time>2017-04-29T08:14:23Z</time>
      </trkpt>
      <trkpt lat="45.92225" lon="4.75154">
        <ele>174</ele>
        <time>2017-04-29T08:14:24Z</time>
      </trkpt>
      <trkpt lat="45.92222" lon="4.75161">
        <ele>174</ele>
        <time>2017-04-29T08:14:25Z</time>
      </trkpt>
      <trkpt lat="45.92219" lon="4.75167">
        <ele>175</ele>
        <time>2017-04-29T08:14:26Z</time>
      </trkpt>
      <trkpt lat="45.92217" lon="4.75174">
        <ele>175</ele>
        <time>2017-04-29T08:14:27Z</time>
      </trkpt>
      <trkpt lat="45.92215" lon="4.75181">
        <ele>175</ele>
        <time>2017-04-29T08:14:28Z</time>
      </trkpt>
      <trkpt lat="45.92213" lon="4.75189">
        <ele>175</ele>
        <time>2017-04-29T08:14:29Z</time>
      </trkpt>
      <trkpt lat="45.92211" lon="4.75197">
        <ele>175</ele>
        <time>2017-04-29T08:14:30Z</time>
      </trkpt>
      <trkpt lat="45.9221" lon="4.75205">
        <ele>175</ele>
        <time>2017-04-29T08:14:31Z</time>
      </trkpt>
      <trkpt lat="45.92209" lon="4.75212">
        <ele>175</ele>
        <time>2017-04-29T08:14:32Z</time>
      </trkpt>
      <trkpt lat="45.92208" lon="4.7522">
        <ele>175</ele>
        <time>2017-04-29T08:14:33Z</time>
      </trkpt>
      <trkpt lat="45.92207" lon="4.75228">
        <ele>175</ele>
        <time>2017-04-29T08:14:34Z</time>
      </trkpt>
      <trkpt lat="45.92207" lon="4.75236">
        <ele>175</ele>
        <time>2017-04-29T08:14:35Z</time>
      </trkpt>
      <trkpt lat="45.92207" lon="4.75245">
        <ele>175</ele>
        <time>2017-04-29T08:14:36Z</time>
      </trkpt>
      <trkpt lat="45.92207" lon="4.75252">
        <ele>175</ele>
        <time>2017-04-29T08:14:37Z</time>
      </trkpt>
      <trkpt lat="45.92208" lon="4.7526">
        <ele>176</ele>
        <time>2017-04-29T08:14:38Z</time>
      </trkpt>
      <trkpt lat="45.92208" lon="4.75268">
        <ele>176</ele>
        <time>2017-04-29T08:14:39Z</time>
      </trkpt>
      <trkpt lat="45.92208" lon="4.75275">
        <ele>176</ele>
        <time>2017-04-29T08:14:40Z</time>
      </trkpt>
      <trkpt lat="45.92207" lon="4.75283">
        <ele>176</ele>
        <time>2017-04-29T08:14:41Z</time>
      </trkpt>
      <trkpt lat="45.92207" lon="4.7529">
        <ele>176</ele>
        <time>2017-04-29T08:14:42Z</time>
      </trkpt>
      <trkpt lat="45.92207" lon="4.75298">
        <ele>176</ele>
        <time>2017-04-29T08:14:43Z</time>
      </trkpt>
      <trkpt lat="45.92207" lon="4.75305">
        <ele>176</ele>
        <time>2017-04-29T08:14:44Z</time>
      </trkpt>
      <trkpt lat="45.92206" lon="4.75312">
        <ele>176</ele>
        <time>2017-04-29T08:14:45Z</time>
      </trkpt>
      <trkpt lat="45.92206" lon="4.7532">
        <ele>176</ele>
        <time>2017-04-29T08:14:46Z</time>
      </trkpt>
      <trkpt lat="45.92205" lon="4.75327">
        <ele>176</ele>
        <time>2017-04-29T08:14:47Z</time>
      </trkpt>
      <trkpt lat="45.92204" lon="4.75335">
        <ele>177</ele>
        <time>2017-04-29T08:14:48Z</time>
      </trkpt>
      <trkpt lat="45.92202" lon="4.75342">
        <ele>177</ele>
        <time>2017-04-29T08:14:49Z</time>
      </trkpt>
      <trkpt lat="45.922" lon="4.75349">
        <ele>177</ele>
        <time>2017-04-29T08:14:50Z</time>
      </trkpt>
      <trkpt lat="45.92198" lon="4.75356">
        <ele>177</ele>
        <time>2017-04-29T08:14:51Z</time>
      </trkpt>
      <trkpt lat="45.92196" lon="4.75363">
        <ele>177</ele>
        <time>2017-04-29T08:14:52Z</time>
      </trkpt>
      <trkpt lat="45.92194" lon="4.7537">
        <ele>177</ele>
        <time>2017-04-29T08:14:53Z</time>
      </trkpt>
      <trkpt lat="45.92192" lon="4.75377">
        <ele>177</ele>
        <time>2017-04-29T08:14:54Z</time>
      </trkpt>
      <trkpt lat="45.92189" lon="4.75384">
        <ele>177</ele>
        <time>2017-04-29T08:14:55Z</time>
      </trkpt>
      <trkpt lat="45.92186" lon="4.75391">
        <ele>177</ele>
        <time>2017-04-29T08:14:56Z</time>
      </trkpt>
      <trkpt lat="45.92183" lon="4.75398">
        <ele>177</ele>
        <time>2017-04-29T08:14:57Z</time>
      </trkpt>
      <trkpt lat="45.92181" lon="4.75405">
        <ele>177</ele>
        <time>2017-04-29T08:14:58Z</time>
      </trkpt>
      <trkpt lat="45.92178" lon="4.75412">
        <ele>177</ele>
        <time>2017-04-29T08:14:59Z</time>
      </trkpt>
      <trkpt lat="45.92175" lon="4.75419">
        <ele>177</ele>
        <time>2017-04-29T08:15:00Z</time>
      </trkpt>
      <trkpt lat="45.92173" lon="4.75426">
        <ele>177</ele>
        <time>2017-04-29T08:15:01Z</time>
      </trkpt>
      <trkpt lat="45.9217" lon="4.75434">
        <ele>177</ele>
        <time>2017-04-29T08:15:02Z</time>
      </trkpt>
      <trkpt lat="45.92167" lon="4.75441">
        <ele>177</ele>
        <time>2017-04-29T08:15:03Z</time>
      </trkpt>
      <trkpt lat="45.92165" lon="4.75448">
        <ele>176</ele>
        <time>2017-04-29T08:15:04Z</time>
      </trkpt>
      <trkpt lat="45.92162" lon="4.75456">
        <ele>176</ele>
        <time>2017-04-29T08:15:05Z</time>
      </trkpt>
      <trkpt lat="45.92158" lon="4.75463">
        <ele>176</ele>
        <time>2017-04-29T08:15:06Z</time>
      </trkpt>
      <trkpt lat="45.92155" lon="4.75471">
        <ele>176</ele>
        <time>2017-04-29T08:15:07Z</time>
      </trkpt>
      <trkpt lat="45.92152" lon="4.75477">
        <ele>176</ele>
        <time>2017-04-29T08:15:08Z</time>
      </trkpt>
      <trkpt lat="45.92149" lon="4.75484">
        <ele>176</ele>
        <time>2017-04-29T08:15:09Z</time>
      </trkpt>
      <trkpt lat="45.92145" lon="4.7549">
        <ele>176</ele>
        <time>2017-04-29T08:15:10Z</time>
      </trkpt>
      <trkpt lat="45.92142" lon="4.75497">
        <ele>175</ele>
        <time>2017-04-29T08:15:11Z</time>
      </trkpt>
      <trkpt lat="45.92138" lon="4.75503">
        <ele>174</ele>
        <time>2017-04-29T08:15:12Z</time>
      </trkpt>
      <trkpt lat="45.92134" lon="4.7551">
        <ele>174</ele>
        <time>2017-04-29T08:15:13Z</time>
      </trkpt>
      <trkpt lat="45.92131" lon="4.75516">
        <ele>174</ele>
        <time>2017-04-29T08:15:14Z</time>
      </trkpt>
      <trkpt lat="45.92127" lon="4.75522">
        <ele>174</ele>
        <time>2017-04-29T08:15:15Z</time>
      </trkpt>
      <trkpt lat="45.92123" lon="4.75529">
        <ele>174</ele>
        <time>2017-04-29T08:15:16Z</time>
      </trkpt>
      <trkpt lat="45.9212" lon="4.75535">
        <ele>174</ele>
        <time>2017-04-29T08:15:17Z</time>
      </trkpt>
      <trkpt lat="45.92116" lon="4.75542">
        <ele>174</ele>
        <time>2017-04-29T08:15:18Z</time>
      </trkpt>
      <trkpt lat="45.92113" lon="4.75549">
        <ele>174</ele>
        <time>2017-04-29T08:15:19Z</time>
      </trkpt>
      <trkpt lat="45.92109" lon="4.75555">
        <ele>174</ele>
        <time>2017-04-29T08:15:20Z</time>
      </trkpt>
      <trkpt lat="45.92105" lon="4.75562">
        <ele>174</ele>
        <time>2017-04-29T08:15:21Z</time>
      </trkpt>
      <trkpt lat="45.92101" lon="4.75568">
        <ele>174</ele>
        <time>2017-04-29T08:15:22Z</time>
      </trkpt>
      <trkpt lat="45.92098" lon="4.75575">
        <ele>174</ele>
        <time>2017-04-29T08:15:23Z</time>
      </trkpt>
      <trkpt lat="45.92095" lon="4.75581">
        <ele>174</ele>
        <time>2017-04-29T08:15:24Z</time>
      </trkpt>
      <trkpt lat="45.92091" lon="4.75588">
        <ele>174</ele>
        <time>2017-04-29T08:15:25Z</time>
      </trkpt>
      <trkpt lat="45.92088" lon="4.75595">
        <ele>174</ele>
        <time>2017-04-29T08:15:26Z</time>
      </trkpt>
      <trkpt lat="45.92085" lon="4.75602">
        <ele>174</ele>
        <time>2017-04-29T08:15:27Z</time>
      </trkpt>
      <trkpt lat="45.92081" lon="4.75608">
        <ele>175</ele>
        <time>2017-04-29T08:15:28Z</time>
      </trkpt>
      <trkpt lat="45.92078" lon="4.75615">
        <ele>175</ele>
        <time>2017-04-29T08:15:29Z</time>
      </trkpt>
      <trkpt lat="45.92074" lon="4.75622">
        <ele>175</ele>
        <time>2017-04-29T08:15:30Z</time>
      </trkpt>
      <trkpt lat="45.92071" lon="4.75628">
        <ele>175</ele>
        <time>2017-04-29T08:15:31Z</time>
      </trkpt>
      <trkpt lat="45.92068" lon="4.75635">
        <ele>175</ele>
        <time>2017-04-29T08:15:32Z</time>
      </trkpt>
      <trkpt lat="45.92064" lon="4.75642">
        <ele>175</ele>
        <time>2017-04-29T08:15:33Z</time>
      </trkpt>
      <trkpt lat="45.9206" lon="4.75648">
        <ele>175</ele>
        <time>2017-04-29T08:15:34Z</time>
      </trkpt>
      <trkpt lat="45.92057" lon="4.75655">
        <ele>175</ele>
        <time>2017-04-29T08:15:35Z</time>
      </trkpt>
      <trkpt lat="45.92053" lon="4.75661">
        <ele>175</ele>
        <time>2017-04-29T08:15:36Z</time>
      </trkpt>
      <trkpt lat="45.9205" lon="4.75667">
        <ele>175</ele>
        <time>2017-04-29T08:15:37Z</time>
      </trkpt>
      <trkpt lat="45.92046" lon="4.75673">
        <ele>175</ele>
        <time>2017-04-29T08:15:38Z</time>
      </trkpt>
      <trkpt lat="45.92042" lon="4.75679">
        <ele>175</ele>
        <time>2017-04-29T08:15:39Z</time>
      </trkpt>
      <trkpt lat="45.92038" lon="4.75686">
        <ele>175</ele>
        <time>2017-04-29T08:15:40Z</time>
      </trkpt>
      <trkpt lat="45.92035" lon="4.75692">
        <ele>175</ele>
        <time>2017-04-29T08:15:41Z</time>
      </trkpt>
      <trkpt lat="45.92031" lon="4.75699">
        <ele>175</ele>
        <time>2017-04-29T08:15:42Z</time>
      </trkpt>
      <trkpt lat="45.92027" lon="4.75705">
        <ele>175</ele>
        <time>2017-04-29T08:15:43Z</time>
      </trkpt>
      <trkpt lat="45.92023" lon="4.75711">
        <ele>175</ele>
        <time>2017-04-29T08:15:44Z</time>
      </trkpt>
      <trkpt lat="45.92019" lon="4.75718">
        <ele>175</ele>
        <time>2017-04-29T08:15:45Z</time>
      </trkpt>
      <trkpt lat="45.92016" lon="4.75724">
        <ele>175</ele>
        <time>2017-04-29T08:15:46Z</time>
      </trkpt>
      <trkpt lat="45.92012" lon="4.7573">
        <ele>175</ele>
        <time>2017-04-29T08:15:47Z</time>
      </trkpt>
      <trkpt lat="45.92009" lon="4.75737">
        <ele>174</ele>
        <time>2017-04-29T08:15:48Z</time>
      </trkpt>
      <trkpt lat="45.92005" lon="4.75743">
        <ele>174</ele>
        <time>2017-04-29T08:15:49Z</time>
      </trkpt>
      <trkpt lat="45.92002" lon="4.75749">
        <ele>174</ele>
        <time>2017-04-29T08:15:50Z</time>
      </trkpt>
      <trkpt lat="45.91998" lon="4.75756">
        <ele>174</ele>
        <time>2017-04-29T08:15:51Z</time>
      </trkpt>
      <trkpt lat="45.91995" lon="4.75762">
        <ele>174</ele>
        <time>2017-04-29T08:15:52Z</time>
      </trkpt>
      <trkpt lat="45.91991" lon="4.75768">
        <ele>174</ele>
        <time>2017-04-29T08:15:53Z</time>
      </trkpt>
      <trkpt lat="45.91988" lon="4.75774">
        <ele>174</ele>
        <time>2017-04-29T08:15:54Z</time>
      </trkpt>
      <trkpt lat="45.91985" lon="4.75781">
        <ele>174</ele>
        <time>2017-04-29T08:15:55Z</time>
      </trkpt>
      <trkpt lat="45.91981" lon="4.75787">
        <ele>173</ele>
        <time>2017-04-29T08:15:56Z</time>
      </trkpt>
      <trkpt lat="45.91978" lon="4.75794">
        <ele>173</ele>
        <time>2017-04-29T08:15:57Z</time>
      </trkpt>
      <trkpt lat="45.91975" lon="4.75801">
        <ele>173</ele>
        <time>2017-04-29T08:15:58Z</time>
      </trkpt>
      <trkpt lat="45.91971" lon="4.75807">
        <ele>173</ele>
        <time>2017-04-29T08:15:59Z</time>
      </trkpt>
      <trkpt lat="45.91968" lon="4.75813">
        <ele>173</ele>
        <time>2017-04-29T08:16:00Z</time>
      </trkpt>
      <trkpt lat="45.91964" lon="4.7582">
        <ele>173</ele>
        <time>2017-04-29T08:16:01Z</time>
      </trkpt>
      <trkpt lat="45.91961" lon="4.75826">
        <ele>173</ele>
        <time>2017-04-29T08:16:02Z</time>
      </trkpt>
      <trkpt lat="45.91957" lon="4.75833">
        <ele>173</ele>
        <time>2017-04-29T08:16:03Z</time>
      </trkpt>
      <trkpt lat="45.91953" lon="4.75839">
        <ele>172</ele>
        <time>2017-04-29T08:16:04Z</time>
      </trkpt>
      <trkpt lat="45.91949" lon="4.75846">
        <ele>172</ele>
        <time>2017-04-29T08:16:05Z</time>
      </trkpt>
      <trkpt lat="45.91946" lon="4.75853">
        <ele>172</ele>
        <time>2017-04-29T08:16:06Z</time>
      </trkpt>
      <trkpt lat="45.91942" lon="4.7586">
        <ele>172</ele>
        <time>2017-04-29T08:16:07Z</time>
      </trkpt>
      <trkpt lat="45.91938" lon="4.75866">
        <ele>172</ele>
        <time>2017-04-29T08:16:08Z</time>
      </trkpt>
      <trkpt lat="45.91935" lon="4.75873">
        <ele>172</ele>
        <time>2017-04-29T08:16:09Z</time>
      </trkpt>
      <trkpt lat="45.91931" lon="4.7588">
        <ele>172</ele>
        <time>2017-04-29T08:16:10Z</time>
      </trkpt>
      <trkpt lat="45.91928" lon="4.75886">
        <ele>172</ele>
        <time>2017-04-29T08:16:11Z</time>
      </trkpt>
      <trkpt lat="45.91926" lon="4.75894">
        <ele>172</ele>
        <time>2017-04-29T08:16:12Z</time>
      </trkpt>
      <trkpt lat="45.91923" lon="4.75902">
        <ele>172</ele>
        <time>2017-04-29T08:16:13Z</time>
      </trkpt>
      <trkpt lat="45.9192" lon="4.75909">
        <ele>172</ele>
        <time>2017-04-29T08:16:14Z</time>
      </trkpt>
      <trkpt lat="45.91918" lon="4.75917">
        <ele>172</ele>
        <time>2017-04-29T08:16:15Z</time>
      </trkpt>
      <trkpt lat="45.91916" lon="4.75925">
        <ele>172</ele>
        <time>2017-04-29T08:16:16Z</time>
      </trkpt>
      <trkpt lat="45.91914" lon="4.75932">
        <ele>173</ele>
        <time>2017-04-29T08:16:17Z</time>
      </trkpt>
      <trkpt lat="45.91912" lon="4.7594">
        <ele>173</ele>
        <time>2017-04-29T08:16:18Z</time>
      </trkpt>
      <trkpt lat="45.9191" lon="4.75948">
        <ele>173</ele>
        <time>2017-04-29T08:16:19Z</time>
      </trkpt>
      <trkpt lat="45.91908" lon="4.75956">
        <ele>173</ele>
        <time>2017-04-29T08:16:20Z</time>
      </trkpt>
      <trkpt lat="45.91906" lon="4.75964">
        <ele>173</ele>
        <time>2017-04-29T08:16:21Z</time>
      </trkpt>
      <trkpt lat="45.91904" lon="4.75971">
        <ele>173</ele>
        <time>2017-04-29T08:16:22Z</time>
      </trkpt>
      <trkpt lat="45.91902" lon="4.75979">
        <ele>173</ele>
        <time>2017-04-29T08:16:23Z</time>
      </trkpt>
      <trkpt lat="45.919" lon="4.75986">
        <ele>173</ele>
        <time>2017-04-29T08:16:24Z</time>
      </trkpt>
      <trkpt lat="45.91899" lon="4.75994">
        <ele>173</ele>
        <time>2017-04-29T08:16:25Z</time>
      </trkpt>
      <trkpt lat="45.91897" lon="4.76001">
        <ele>173</ele>
        <time>2017-04-29T08:16:26Z</time>
      </trkpt>
      <trkpt lat="45.91895" lon="4.76008">
        <ele>173</ele>
        <time>2017-04-29T08:16:27Z</time>
      </trkpt>
      <trkpt lat="45.91893" lon="4.76016">
        <ele>173</ele>
        <time>2017-04-29T08:16:28Z</time>
      </trkpt>
      <trkpt lat="45.91891" lon="4.76023">
        <ele>173</ele>
        <time>2017-04-29T08:16:29Z</time>
      </trkpt>
      <trkpt lat="45.91889" lon="4.76031">
        <ele>173</ele>
        <time>2017-04-29T08:16:30Z</time>
      </trkpt>
      <trkpt lat="45.91887" lon="4.76039">
        <ele>173</ele>
        <time>2017-04-29T08:16:31Z</time>
      </trkpt>
      <trkpt lat="45.91885" lon="4.76047">
        <ele>173</ele>
        <time>2017-04-29T08:16:32Z</time>
      </trkpt>
      <trkpt lat="45.91883" lon="4.76055">
        <ele>173</ele>
        <time>2017-04-29T08:16:33Z</time>
      </trkpt>
      <trkpt lat="45.91881" lon="4.76063">
        <ele>173</ele>
        <time>2017-04-29T08:16:34Z</time>
      </trkpt>
      <trkpt lat="45.91879" lon="4.7607">
        <ele>173</ele>
        <time>2017-04-29T08:16:35Z</time>
      </trkpt>
      <trkpt lat="45.91877" lon="4.76078">
        <ele>173</ele>
        <time>2017-04-29T08:16:36Z</time>
      </trkpt>
      <trkpt lat="45.91875" lon="4.76085">
        <ele>173</ele>
        <time>2017-04-29T08:16:37Z</time>
      </trkpt>
      <trkpt lat="45.91873" lon="4.76093">
        <ele>173</ele>
        <time>2017-04-29T08:16:38Z</time>
      </trkpt>
      <trkpt lat="45.91871" lon="4.761">
        <ele>173</ele>
        <time>2017-04-29T08:16:39Z</time>
      </trkpt>
      <trkpt lat="45.9187" lon="4.76108">
        <ele>173</ele>
        <time>2017-04-29T08:16:40Z</time>
      </trkpt>
      <trkpt lat="45.91868" lon="4.76115">
        <ele>173</ele>
        <time>2017-04-29T08:16:41Z</time>
      </trkpt>
      <trkpt lat="45.91866" lon="4.76123">
        <ele>173</ele>
        <time>2017-04-29T08:16:42Z</time>
      </trkpt>
      <trkpt lat="45.91864" lon="4.76131">
        <ele>173</ele>
        <time>2017-04-29T08:16:43Z</time>
      </trkpt>
      <trkpt lat="45.91863" lon="4.76139">
        <ele>173</ele>
        <time>2017-04-29T08:16:44Z</time>
      </trkpt>
      <trkpt lat="45.91861" lon="4.76146">
        <ele>173</ele>
        <time>2017-04-29T08:16:45Z</time>
      </trkpt>
      <trkpt lat="45.91859" lon="4.76154">
        <ele>173</ele>
        <time>2017-04-29T08:16:46Z</time>
      </trkpt>
      <trkpt lat="45.91856" lon="4.76162">
        <ele>173</ele>
        <time>2017-04-29T08:16:47Z</time>
      </trkpt>
      <trkpt lat="45.91854" lon="4.7617">
        <ele>172</ele>
        <time>2017-04-29T08:16:48Z</time>
      </trkpt>
      <trkpt lat="45.91852" lon="4.76178">
        <ele>172</ele>
        <time>2017-04-29T08:16:49Z</time>
      </trkpt>
      <trkpt lat="45.9185" lon="4.76186">
        <ele>172</ele>
        <time>2017-04-29T08:16:50Z</time>
      </trkpt>
      <trkpt lat="45.91848" lon="4.76194">
        <ele>172</ele>
        <time>2017-04-29T08:16:51Z</time>
      </trkpt>
      <trkpt lat="45.91846" lon="4.76202">
        <ele>172</ele>
        <time>2017-04-29T08:16:52Z</time>
      </trkpt>
      <trkpt lat="45.91844" lon="4.76211">
        <ele>172</ele>
        <time>2017-04-29T08:16:53Z</time>
      </trkpt>
      <trkpt lat="45.91841" lon="4.76219">
        <ele>172</ele>
        <time>2017-04-29T08:16:54Z</time>
      </trkpt>
      <trkpt lat="45.91839" lon="4.76227">
        <ele>172</ele>
        <time>2017-04-29T08:16:55Z</time>
      </trkpt>
      <trkpt lat="45.91837" lon="4.76235">
        <ele>173</ele>
        <time>2017-04-29T08:16:56Z</time>
      </trkpt>
      <trkpt lat="45.91835" lon="4.76244">
        <ele>173</ele>
        <time>2017-04-29T08:16:57Z</time>
      </trkpt>
      <trkpt lat="45.91833" lon="4.76252">
        <ele>173</ele>
        <time>2017-04-29T08:16:58Z</time>
      </trkpt>
      <trkpt lat="45.91831" lon="4.7626">
        <ele>174</ele>
        <time>2017-04-29T08:16:59Z</time>
      </trkpt>
      <trkpt lat="45.91829" lon="4.76268">
        <ele>174</ele>
        <time>2017-04-29T08:17:00Z</time>
      </trkpt>
      <trkpt lat="45.91827" lon="4.76276">
        <ele>174</ele>
        <time>2017-04-29T08:17:01Z</time>
      </trkpt>
      <trkpt lat="45.91825" lon="4.76284">
        <ele>174</ele>
        <time>2017-04-29T08:17:02Z</time>
      </trkpt>
      <trkpt lat="45.91823" lon="4.76291">
        <ele>174</ele>
        <time>2017-04-29T08:17:03Z</time>
      </trkpt>
      <trkpt lat="45.91821" lon="4.76299">
        <ele>174</ele>
        <time>2017-04-29T08:17:04Z</time>
      </trkpt>
      <trkpt lat="45.91819" lon="4.76306">
        <ele>174</ele>
        <time>2017-04-29T08:17:05Z</time>
      </trkpt>
      <trkpt lat="45.91817" lon="4.76314">
        <ele>174</ele>
        <time>2017-04-29T08:17:06Z</time>
      </trkpt>
      <trkpt lat="45.91816" lon="4.76321">
        <ele>174</ele>
        <time>2017-04-29T08:17:07Z</time>
      </trkpt>
      <trkpt lat="45.91814" lon="4.76328">
        <ele>174</ele>
        <time>2017-04-29T08:17:08Z</time>
      </trkpt>
      <trkpt lat="45.91813" lon="4.76335">
        <ele>174</ele>
        <time>2017-04-29T08:17:09Z</time>
      </trkpt>
      <trkpt lat="45.91812" lon="4.76343">
        <ele>174</ele>
        <time>2017-04-29T08:17:10Z</time>
      </trkpt>
      <trkpt lat="45.91811" lon="4.76351">
        <ele>174</ele>
        <time>2017-04-29T08:17:11Z</time>
      </trkpt>
      <trkpt lat="45.91811" lon="4.76359">
        <ele>174</ele>
        <time>2017-04-29T08:17:12Z</time>
      </trkpt>
      <trkpt lat="45.9181" lon="4.76367">
        <ele>174</ele>
        <time>2017-04-29T08:17:13Z</time>
      </trkpt>
      <trkpt lat="45.9181" lon="4.76375">
        <ele>174</ele>
        <time>2017-04-29T08:17:14Z</time>
      </trkpt>
      <trkpt lat="45.91809" lon="4.76384">
        <ele>174</ele>
        <time>2017-04-29T08:17:15Z</time>
      </trkpt>
      <trkpt lat="45.91809" lon="4.76392">
        <ele>174</ele>
        <time>2017-04-29T08:17:16Z</time>
      </trkpt>
      <trkpt lat="45.91808" lon="4.764">
        <ele>173</ele>
        <time>2017-04-29T08:17:17Z</time>
      </trkpt>
      <trkpt lat="45.91808" lon="4.76408">
        <ele>173</ele>
        <time>2017-04-29T08:17:18Z</time>
      </trkpt>
      <trkpt lat="45.91807" lon="4.76416">
        <ele>173</ele>
        <time>2017-04-29T08:17:19Z</time>
      </trkpt>
      <trkpt lat="45.91806" lon="4.76424">
        <ele>173</ele>
        <time>2017-04-29T08:17:20Z</time>
      </trkpt>
      <trkpt lat="45.91806" lon="4.76432">
        <ele>173</ele>
        <time>2017-04-29T08:17:21Z</time>
      </trkpt>
      <trkpt lat="45.91806" lon="4.7644">
        <ele>173</ele>
        <time>2017-04-29T08:17:22Z</time>
      </trkpt>
      <trkpt lat="45.91806" lon="4.76448">
        <ele>173</ele>
        <time>2017-04-29T08:17:23Z</time>
      </trkpt>
      <trkpt lat="45.91805" lon="4.76456">
        <ele>173</ele>
        <time>2017-04-29T08:17:24Z</time>
      </trkpt>
      <trkpt lat="45.91805" lon="4.76464">
        <ele>173</ele>
        <time>2017-04-29T08:17:25Z</time>
      </trkpt>
      <trkpt lat="45.91804" lon="4.76473">
        <ele>173</ele>
        <time>2017-04-29T08:17:26Z</time>
      </trkpt>
      <trkpt lat="45.91804" lon="4.76481">
        <ele>173</ele>
        <time>2017-04-29T08:17:27Z</time>
      </trkpt>
      <trkpt lat="45.91803" lon="4.76488">
        <ele>173</ele>
        <time>2017-04-29T08:17:28Z</time>
      </trkpt>
      <trkpt lat="45.91803" lon="4.76497">
        <ele>173</ele>
        <time>2017-04-29T08:17:29Z</time>
      </trkpt>
      <trkpt lat="45.91802" lon="4.76505">
        <ele>173</ele>
        <time>2017-04-29T08:17:30Z</time>
      </trkpt>
      <trkpt lat="45.91801" lon="4.76513">
        <ele>173</ele>
        <time>2017-04-29T08:17:31Z</time>
      </trkpt>
      <trkpt lat="45.918" lon="4.76521">
        <ele>173</ele>
        <time>2017-04-29T08:17:32Z</time>
      </trkpt>
      <trkpt lat="45.918" lon="4.76529">
        <ele>173</ele>
        <time>2017-04-29T08:17:33Z</time>
      </trkpt>
      <trkpt lat="45.91799" lon="4.76537">
        <ele>173</ele>
        <time>2017-04-29T08:17:34Z</time>
      </trkpt>
      <trkpt lat="45.91798" lon="4.76546">
        <ele>173</ele>
        <time>2017-04-29T08:17:35Z</time>
      </trkpt>
      <trkpt lat="45.91798" lon="4.76554">
        <ele>173</ele>
        <time>2017-04-29T08:17:36Z</time>
      </trkpt>
      <trkpt lat="45.91797" lon="4.76562">
        <ele>173</ele>
        <time>2017-04-29T08:17:37Z</time>
      </trkpt>
      <trkpt lat="45.91796" lon="4.7657">
        <ele>173</ele>
        <time>2017-04-29T08:17:38Z</time>
      </trkpt>
      <trkpt lat="45.91795" lon="4.76578">
        <ele>173</ele>
        <time>2017-04-29T08:17:39Z</time>
      </trkpt>
      <trkpt lat="45.91794" lon="4.76586">
        <ele>173</ele>
        <time>2017-04-29T08:17:40Z</time>
      </trkpt>
      <trkpt lat="45.91793" lon="4.76593">
        <ele>173</ele>
        <time>2017-04-29T08:17:41Z</time>
      </trkpt>
      <trkpt lat="45.91792" lon="4.76601">
        <ele>173</ele>
        <time>2017-04-29T08:17:42Z</time>
      </trkpt>
      <trkpt lat="45.91791" lon="4.76609">
        <ele>173</ele>
        <time>2017-04-29T08:17:43Z</time>
      </trkpt>
      <trkpt lat="45.91791" lon="4.76617">
        <ele>173</ele>
        <time>2017-04-29T08:17:44Z</time>
      </trkpt>
      <trkpt lat="45.9179" lon="4.76625">
        <ele>173</ele>
        <time>2017-04-29T08:17:45Z</time>
      </trkpt>
      <trkpt lat="45.91789" lon="4.76634">
        <ele>173</ele>
        <time>2017-04-29T08:17:46Z</time>
      </trkpt>
      <trkpt lat="45.91787" lon="4.76642">
        <ele>173</ele>
        <time>2017-04-29T08:17:47Z</time>
      </trkpt>
      <trkpt lat="45.91787" lon="4.76651">
        <ele>173</ele>
        <time>2017-04-29T08:17:48Z</time>
      </trkpt>
      <trkpt lat="45.91786" lon="4.7666">
        <ele>173</ele>
        <time>2017-04-29T08:17:49Z</time>
      </trkpt>
      <trkpt lat="45.91785" lon="4.76669">
        <ele>172</ele>
        <time>2017-04-29T08:17:50Z</time>
      </trkpt>
      <trkpt lat="45.91784" lon="4.76678">
        <ele>172</ele>
        <time>2017-04-29T08:17:51Z</time>
      </trkpt>
      <trkpt lat="45.91783" lon="4.76687">
        <ele>172</ele>
        <time>2017-04-29T08:17:52Z</time>
      </trkpt>
      <trkpt lat="45.91782" lon="4.76695">
        <ele>172</ele>
        <time>2017-04-29T08:17:53Z</time>
      </trkpt>
      <trkpt lat="45.9178" lon="4.76704">
        <ele>172</ele>
        <time>2017-04-29T08:17:54Z</time>
      </trkpt>
      <trkpt lat="45.91779" lon="4.76712">
        <ele>172</ele>
        <time>2017-04-29T08:17:55Z</time>
      </trkpt>
      <trkpt lat="45.91778" lon="4.76721">
        <ele>172</ele>
        <time>2017-04-29T08:17:56Z</time>
      </trkpt>
      <trkpt lat="45.91777" lon="4.7673">
        <ele>172</ele>
        <time>2017-04-29T08:17:57Z</time>
      </trkpt>
      <trkpt lat="45.91777" lon="4.76739">
        <ele>172</ele>
        <time>2017-04-29T08:17:58Z</time>
      </trkpt>
      <trkpt lat="45.91776" lon="4.76748">
        <ele>172</ele>
        <time>2017-04-29T08:17:59Z</time>
      </trkpt>
      <trkpt lat="45.91776" lon="4.76757">
        <ele>171</ele>
        <time>2017-04-29T08:18:00Z</time>
      </trkpt>
      <trkpt lat="45.91775" lon="4.76766">
        <ele>171</ele>
        <time>2017-04-29T08:18:01Z</time>
      </trkpt>
      <trkpt lat="45.91775" lon="4.76775">
        <ele>171</ele>
        <time>2017-04-29T08:18:02Z</time>
      </trkpt>
      <trkpt lat="45.91775" lon="4.76785">
        <ele>171</ele>
        <time>2017-04-29T08:18:03Z</time>
      </trkpt>
      <trkpt lat="45.91775" lon="4.76795">
        <ele>171</ele>
        <time>2017-04-29T08:18:04Z</time>
      </trkpt>
      <trkpt lat="45.91774" lon="4.76805">
        <ele>171</ele>
        <time>2017-04-29T08:18:05Z</time>
      </trkpt>
      <trkpt lat="45.91774" lon="4.76815">
        <ele>171</ele>
        <time>2017-04-29T08:18:06Z</time>
      </trkpt>
      <trkpt lat="45.91774" lon="4.76825">
        <ele>171</ele>
        <time>2017-04-29T08:18:07Z</time>
      </trkpt>
      <trkpt lat="45.91774" lon="4.76835">
        <ele>171</ele>
        <time>2017-04-29T08:18:08Z</time>
      </trkpt>
      <trkpt lat="45.91774" lon="4.76845">
        <ele>171</ele>
        <time>2017-04-29T08:18:09Z</time>
      </trkpt>
      <trkpt lat="45.91773" lon="4.76856">
        <ele>170</ele>
        <time>2017-04-29T08:18:10Z</time>
      </trkpt>
      <trkpt lat="45.91773" lon="4.76866">
        <ele>170</ele>
        <time>2017-04-29T08:18:11Z</time>
      </trkpt>
      <trkpt lat="45.91773" lon="4.76876">
        <ele>170</ele>
        <time>2017-04-29T08:18:12Z</time>
      </trkpt>
      <trkpt lat="45.91773" lon="4.76886">
        <ele>170</ele>
        <time>2017-04-29T08:18:13Z</time>
      </trkpt>
      <trkpt lat="45.91772" lon="4.76896">
        <ele>170</ele>
        <time>2017-04-29T08:18:14Z</time>
      </trkpt>
      <trkpt lat="45.91771" lon="4.76906">
        <ele>170</ele>
        <time>2017-04-29T08:18:15Z</time>
      </trkpt>
      <trkpt lat="45.91771" lon="4.76916">
        <ele>171</ele>
        <time>2017-04-29T08:18:16Z</time>
      </trkpt>
      <trkpt lat="45.9177" lon="4.76925">
        <ele>170</ele>
        <time>2017-04-29T08:18:17Z</time>
      </trkpt>
      <trkpt lat="45.9177" lon="4.76934">
        <ele>170</ele>
        <time>2017-04-29T08:18:18Z</time>
      </trkpt>
      <trkpt lat="45.91769" lon="4.76943">
        <ele>169</ele>
        <time>2017-04-29T08:18:19Z</time>
      </trkpt>
      <trkpt lat="45.91768" lon="4.76951">
        <ele>169</ele>
        <time>2017-04-29T08:18:20Z</time>
      </trkpt>
      <trkpt lat="45.91768" lon="4.76959">
        <ele>169</ele>
        <time>2017-04-29T08:18:21Z</time>
      </trkpt>
      <trkpt lat="45.91767" lon="4.76968">
        <ele>169</ele>
        <time>2017-04-29T08:18:22Z</time>
      </trkpt>
      <trkpt lat="45.91766" lon="4.76976">
        <ele>169</ele>
        <time>2017-04-29T08:18:23Z</time>
      </trkpt>
      <trkpt lat="45.91765" lon="4.76984">
        <ele>169</ele>
        <time>2017-04-29T08:18:24Z</time>
      </trkpt>
      <trkpt lat="45.91763" lon="4.76992">
        <ele>169</ele>
        <time>2017-04-29T08:18:25Z</time>
      </trkpt>
      <trkpt lat="45.91762" lon="4.77">
        <ele>169</ele>
        <time>2017-04-29T08:18:26Z</time>
      </trkpt>
      <trkpt lat="45.91761" lon="4.77008">
        <ele>169</ele>
        <time>2017-04-29T08:18:27Z</time>
      </trkpt>
      <trkpt lat="45.9176" lon="4.77016">
        <ele>169</ele>
        <time>2017-04-29T08:18:28Z</time>
      </trkpt>
      <trkpt lat="45.91759" lon="4.77023">
        <ele>169</ele>
        <time>2017-04-29T08:18:29Z</time>
      </trkpt>
      <trkpt lat="45.91758" lon="4.77031">
        <ele>169</ele>
        <time>2017-04-29T08:18:30Z</time>
      </trkpt>
      <trkpt lat="45.91757" lon="4.77039">
        <ele>169</ele>
        <time>2017-04-29T08:18:31Z</time>
      </trkpt>
      <trkpt lat="45.91756" lon="4.77047">
        <ele>169</ele>
        <time>2017-04-29T08:18:32Z</time>
      </trkpt>
      <trkpt lat="45.91754" lon="4.77055">
        <ele>169</ele>
        <time>2017-04-29T08:18:33Z</time>
      </trkpt>
      <trkpt lat="45.91753" lon="4.77063">
        <ele>169</ele>
        <time>2017-04-29T08:18:34Z</time>
      </trkpt>
      <trkpt lat="45.91752" lon="4.77071">
        <ele>169</ele>
        <time>2017-04-29T08:18:35Z</time>
      </trkpt>
      <trkpt lat="45.9175" lon="4.77079">
        <ele>169</ele>
        <time>2017-04-29T08:18:36Z</time>
      </trkpt>
      <trkpt lat="45.91749" lon="4.77087">
        <ele>169</ele>
        <time>2017-04-29T08:18:37Z</time>
      </trkpt>
      <trkpt lat="45.91748" lon="4.77095">
        <ele>169</ele>
        <time>2017-04-29T08:18:38Z</time>
      </trkpt>
      <trkpt lat="45.91747" lon="4.77102">
        <ele>170</ele>
        <time>2017-04-29T08:18:39Z</time>
      </trkpt>
      <trkpt lat="45.91745" lon="4.7711">
        <ele>170</ele>
        <time>2017-04-29T08:18:40Z</time>
      </trkpt>
      <trkpt lat="45.91744" lon="4.77118">
        <ele>170</ele>
        <time>2017-04-29T08:18:41Z</time>
      </trkpt>
      <trkpt lat="45.91743" lon="4.77127">
        <ele>170</ele>
        <time>2017-04-29T08:18:42Z</time>
      </trkpt>
      <trkpt lat="45.91742" lon="4.77134">
        <ele>170</ele>
        <time>2017-04-29T08:18:43Z</time>
      </trkpt>
      <trkpt lat="45.91741" lon="4.77142">
        <ele>170</ele>
        <time>2017-04-29T08:18:44Z</time>
      </trkpt>
      <trkpt lat="45.91739" lon="4.77151">
        <ele>170</ele>
        <time>2017-04-29T08:18:45Z</time>
      </trkpt>
      <trkpt lat="45.91738" lon="4.7716">
        <ele>170</ele>
        <time>2017-04-29T08:18:46Z</time>
      </trkpt>
      <trkpt lat="45.91737" lon="4.77168">
        <ele>170</ele>
        <time>2017-04-29T08:18:47Z</time>
      </trkpt>
      <trkpt lat="45.91736" lon="4.77176">
        <ele>170</ele>
        <time>2017-04-29T08:18:48Z</time>
      </trkpt>
      <trkpt lat="45.91734" lon="4.77185">
        <ele>170</ele>
        <time>2017-04-29T08:18:49Z</time>
      </trkpt>
      <trkpt lat="45.91733" lon="4.77194">
        <ele>170</ele>
        <time>2017-04-29T08:18:50Z</time>
      </trkpt>
      <trkpt lat="45.91732" lon="4.77202">
        <ele>170</ele>
        <time>2017-04-29T08:18:51Z</time>
      </trkpt>
      <trkpt lat="45.91731" lon="4.77211">
        <ele>170</ele>
        <time>2017-04-29T08:18:52Z</time>
      </trkpt>
      <trkpt lat="45.91729" lon="4.77219">
        <ele>170</ele>
        <time>2017-04-29T08:18:53Z</time>
      </trkpt>
      <trkpt lat="45.91728" lon="4.77227">
        <ele>170</ele>
        <time>2017-04-29T08:18:54Z</time>
      </trkpt>
      <trkpt lat="45.91726" lon="4.77236">
        <ele>170</ele>
        <time>2017-04-29T08:18:55Z</time>
      </trkpt>
      <trkpt lat="45.91725" lon="4.77244">
        <ele>170</ele>
        <time>2017-04-29T08:18:56Z</time>
      </trkpt>
      <trkpt lat="45.91724" lon="4.77253">
        <ele>170</ele>
        <time>2017-04-29T08:18:57Z</time>
      </trkpt>
      <trkpt lat="45.91723" lon="4.77261">
        <ele>170</ele>
        <time>2017-04-29T08:18:58Z</time>
      </trkpt>
      <trkpt lat="45.91721" lon="4.77269">
        <ele>170</ele>
        <time>2017-04-29T08:18:59Z</time>
      </trkpt>
      <trkpt lat="45.9172" lon="4.77277">
        <ele>170</ele>
        <time>2017-04-29T08:19:00Z</time>
      </trkpt>
      <trkpt lat="45.91719" lon="4.77285">
        <ele>170</ele>
        <time>2017-04-29T08:19:01Z</time>
      </trkpt>
      <trkpt lat="45.91718" lon="4.77293">
        <ele>170</ele>
        <time>2017-04-29T08:19:02Z</time>
      </trkpt>
      <trkpt lat="45.91716" lon="4.77302">
        <ele>170</ele>
        <time>2017-04-29T08:19:03Z</time>
      </trkpt>
      <trkpt lat="45.91715" lon="4.7731">
        <ele>170</ele>
        <time>2017-04-29T08:19:04Z</time>
      </trkpt>
      <trkpt lat="45.91714" lon="4.77319">
        <ele>170</ele>
        <time>2017-04-29T08:19:05Z</time>
      </trkpt>
      <trkpt lat="45.91712" lon="4.77327">
        <ele>170</ele>
        <time>2017-04-29T08:19:06Z</time>
      </trkpt>
      <trkpt lat="45.91711" lon="4.77336">
        <ele>171</ele>
        <time>2017-04-29T08:19:07Z</time>
      </trkpt>
      <trkpt lat="45.91709" lon="4.77344">
        <ele>171</ele>
        <time>2017-04-29T08:19:08Z</time>
      </trkpt>
      <trkpt lat="45.91708" lon="4.77353">
        <ele>171</ele>
        <time>2017-04-29T08:19:09Z</time>
      </trkpt>
      <trkpt lat="45.91707" lon="4.77361">
        <ele>171</ele>
        <time>2017-04-29T08:19:10Z</time>
      </trkpt>
      <trkpt lat="45.91705" lon="4.77369">
        <ele>171</ele>
        <time>2017-04-29T08:19:11Z</time>
      </trkpt>
      <trkpt lat="45.91704" lon="4.77377">
        <ele>171</ele>
        <time>2017-04-29T08:19:12Z</time>
      </trkpt>
      <trkpt lat="45.91702" lon="4.77385">
        <ele>171</ele>
        <time>2017-04-29T08:19:13Z</time>
      </trkpt>
      <trkpt lat="45.917" lon="4.77393">
        <ele>171</ele>
        <time>2017-04-29T08:19:14Z</time>
      </trkpt>
      <trkpt lat="45.91699" lon="4.77401">
        <ele>171</ele>
        <time>2017-04-29T08:19:15Z</time>
      </trkpt>
      <trkpt lat="45.91697" lon="4.77408">
        <ele>171</ele>
        <time>2017-04-29T08:19:16Z</time>
      </trkpt>
      <trkpt lat="45.91696" lon="4.77416">
        <ele>171</ele>
        <time>2017-04-29T08:19:17Z</time>
      </trkpt>
      <trkpt lat="45.91695" lon="4.77424">
        <ele>171</ele>
        <time>2017-04-29T08:19:18Z</time>
      </trkpt>
      <trkpt lat="45.91695" lon="4.77432">
        <ele>171</ele>
        <time>2017-04-29T08:19:19Z</time>
      </trkpt>
      <trkpt lat="45.91694" lon="4.77439">
        <ele>171</ele>
        <time>2017-04-29T08:19:20Z</time>
      </trkpt>
      <trkpt lat="45.91694" lon="4.77446">
        <ele>171</ele>
        <time>2017-04-29T08:19:21Z</time>
      </trkpt>
      <trkpt lat="45.91693" lon="4.77453">
        <ele>171</ele>
        <time>2017-04-29T08:19:22Z</time>
      </trkpt>
      <trkpt lat="45.91692" lon="4.7746">
        <ele>171</ele>
        <time>2017-04-29T08:19:23Z</time>
      </trkpt>
      <trkpt lat="45.9169" lon="4.77467">
        <ele>171</ele>
        <time>2017-04-29T08:19:24Z</time>
      </trkpt>
      <trkpt lat="45.91687" lon="4.77474">
        <ele>170</ele>
        <time>2017-04-29T08:19:25Z</time>
      </trkpt>
      <trkpt lat="45.91686" lon="4.77481">
        <ele>170</ele>
        <time>2017-04-29T08:19:26Z</time>
      </trkpt>
      <trkpt lat="45.91685" lon="4.77489">
        <ele>170</ele>
        <time>2017-04-29T08:19:27Z</time>
      </trkpt>
      <trkpt lat="45.91686" lon="4.77497">
        <ele>170</ele>
        <time>2017-04-29T08:19:28Z</time>
      </trkpt>
      <trkpt lat="45.91687" lon="4.77505">
        <ele>170</ele>
        <time>2017-04-29T08:19:29Z</time>
      </trkpt>
      <trkpt lat="45.91687" lon="4.77513">
        <ele>170</ele>
        <time>2017-04-29T08:19:30Z</time>
      </trkpt>
      <trkpt lat="45.91686" lon="4.77522">
        <ele>170</ele>
        <time>2017-04-29T08:19:31Z</time>
      </trkpt>
      <trkpt lat="45.91684" lon="4.7753">
        <ele>169</ele>
        <time>2017-04-29T08:19:32Z</time>
      </trkpt>
      <trkpt lat="45.91683" lon="4.77538">
        <ele>169</ele>
        <time>2017-04-29T08:19:33Z</time>
      </trkpt>
      <trkpt lat="45.91681" lon="4.77546">
        <ele>169</ele>
        <time>2017-04-29T08:19:34Z</time>
      </trkpt>
      <trkpt lat="45.9168" lon="4.77554">
        <ele>169</ele>
        <time>2017-04-29T08:19:35Z</time>
      </trkpt>
      <trkpt lat="45.91679" lon="4.77563">
        <ele>169</ele>
        <time>2017-04-29T08:19:36Z</time>
      </trkpt>
      <trkpt lat="45.91677" lon="4.77571">
        <ele>169</ele>
        <time>2017-04-29T08:19:37Z</time>
      </trkpt>
      <trkpt lat="45.91676" lon="4.77579">
        <ele>169</ele>
        <time>2017-04-29T08:19:38Z</time>
      </trkpt>
      <trkpt lat="45.91674" lon="4.77587">
        <ele>169</ele>
        <time>2017-04-29T08:19:39Z</time>
      </trkpt>
      <trkpt lat="45.91673" lon="4.77595">
        <ele>169</ele>
        <time>2017-04-29T08:19:40Z</time>
      </trkpt>
      <trkpt lat="45.91671" lon="4.77604">
        <ele>169</ele>
        <time>2017-04-29T08:19:41Z</time>
      </trkpt>
      <trkpt lat="45.91669" lon="4.77612">
        <ele>169</ele>
        <time>2017-04-29T08:19:42Z</time>
      </trkpt>
      <trkpt lat="45.91668" lon="4.77621">
        <ele>169</ele>
        <time>2017-04-29T08:19:43Z</time>
      </trkpt>
      <trkpt lat="45.91666" lon="4.77629">
        <ele>170</ele>
        <time>2017-04-29T08:19:44Z</time>
      </trkpt>
      <trkpt lat="45.91665" lon="4.77638">
        <ele>170</ele>
        <time>2017-04-29T08:19:45Z</time>
      </trkpt>
      <trkpt lat="45.91663" lon="4.77645">
        <ele>170</ele>
        <time>2017-04-29T08:19:46Z</time>
      </trkpt>
      <trkpt lat="45.91661" lon="4.77653">
        <ele>170</ele>
        <time>2017-04-29T08:19:47Z</time>
      </trkpt>
      <trkpt lat="45.91659" lon="4.77661">
        <ele>170</ele>
        <time>2017-04-29T08:19:48Z</time>
      </trkpt>
      <trkpt lat="45.91657" lon="4.77669">
        <ele>170</ele>
        <time>2017-04-29T08:19:49Z</time>
      </trkpt>
      <trkpt lat="45.91656" lon="4.77678">
        <ele>170</ele>
        <time>2017-04-29T08:19:50Z</time>
      </trkpt>
      <trkpt lat="45.91654" lon="4.77686">
        <ele>170</ele>
        <time>2017-04-29T08:19:51Z</time>
      </trkpt>
      <trkpt lat="45.91652" lon="4.77695">
        <ele>170</ele>
        <time>2017-04-29T08:19:52Z</time>
      </trkpt>
      <trkpt lat="45.91651" lon="4.77704">
        <ele>170</ele>
        <time>2017-04-29T08:19:53Z</time>
      </trkpt>
      <trkpt lat="45.91649" lon="4.77712">
        <ele>170</ele>
        <time>2017-04-29T08:19:54Z</time>
      </trkpt>
      <trkpt lat="45.91647" lon="4.77721">
        <ele>170</ele>
        <time>2017-04-29T08:19:55Z</time>
      </trkpt>
      <trkpt lat="45.91645" lon="4.77729">
        <ele>170</ele>
        <time>2017-04-29T08:19:56Z</time>
      </trkpt>
      <trkpt lat="45.91642" lon="4.77738">
        <ele>170</ele>
        <time>2017-04-29T08:19:57Z</time>
      </trkpt>
      <trkpt lat="45.9164" lon="4.77746">
        <ele>170</ele>
        <time>2017-04-29T08:19:58Z</time>
      </trkpt>
      <trkpt lat="45.91638" lon="4.77754">
        <ele>171</ele>
        <time>2017-04-29T08:19:59Z</time>
      </trkpt>
      <trkpt lat="45.91635" lon="4.77762">
        <ele>171</ele>
        <time>2017-04-29T08:20:00Z</time>
      </trkpt>
      <trkpt lat="45.91633" lon="4.77771">
        <ele>171</ele>
        <time>2017-04-29T08:20:01Z</time>
      </trkpt>
      <trkpt lat="45.91631" lon="4.77779">
        <ele>171</ele>
        <time>2017-04-29T08:20:02Z</time>
      </trkpt>
      <trkpt lat="45.91628" lon="4.77786">
        <ele>172</ele>
        <time>2017-04-29T08:20:03Z</time>
      </trkpt>
      <trkpt lat="45.91626" lon="4.77794">
        <ele>172</ele>
        <time>2017-04-29T08:20:04Z</time>
      </trkpt>
      <trkpt lat="45.91623" lon="4.77802">
        <ele>172</ele>
        <time>2017-04-29T08:20:05Z</time>
      </trkpt>
      <trkpt lat="45.9162" lon="4.77809">
        <ele>172</ele>
        <time>2017-04-29T08:20:06Z</time>
      </trkpt>
      <trkpt lat="45.91618" lon="4.77816">
        <ele>172</ele>
        <time>2017-04-29T08:20:07Z</time>
      </trkpt>
      <trkpt lat="45.91615" lon="4.77823">
        <ele>173</ele>
        <time>2017-04-29T08:20:08Z</time>
      </trkpt>
      <trkpt lat="45.91612" lon="4.77831">
        <ele>173</ele>
        <time>2017-04-29T08:20:09Z</time>
      </trkpt>
      <trkpt lat="45.91609" lon="4.77838">
        <ele>173</ele>
        <time>2017-04-29T08:20:10Z</time>
      </trkpt>
      <trkpt lat="45.91606" lon="4.77846">
        <ele>173</ele>
        <time>2017-04-29T08:20:11Z</time>
      </trkpt>
      <trkpt lat="45.91603" lon="4.77853">
        <ele>173</ele>
        <time>2017-04-29T08:20:12Z</time>
      </trkpt>
      <trkpt lat="45.91599" lon="4.7786">
        <ele>173</ele>
        <time>2017-04-29T08:20:13Z</time>
      </trkpt>
      <trkpt lat="45.91596" lon="4.77867">
        <ele>173</ele>
        <time>2017-04-29T08:20:14Z</time>
      </trkpt>
      <trkpt lat="45.91593" lon="4.77875">
        <ele>173</ele>
        <time>2017-04-29T08:20:15Z</time>
      </trkpt>
      <trkpt lat="45.9159" lon="4.77882">
        <ele>173</ele>
        <time>2017-04-29T08:20:16Z</time>
      </trkpt>
      <trkpt lat="45.91586" lon="4.77888">
        <ele>173</ele>
        <time>2017-04-29T08:20:17Z</time>
      </trkpt>
      <trkpt lat="45.91582" lon="4.77895">
        <ele>176</ele>
        <time>2017-04-29T08:20:18Z</time>
      </trkpt>
      <trkpt lat="45.91578" lon="4.77902">
        <ele>175</ele>
        <time>2017-04-29T08:20:19Z</time>
      </trkpt>
      <trkpt lat="45.91575" lon="4.77909">
        <ele>175</ele>
        <time>2017-04-29T08:20:20Z</time>
      </trkpt>
      <trkpt lat="45.91571" lon="4.77917">
        <ele>175</ele>
        <time>2017-04-29T08:20:21Z</time>
      </trkpt>
      <trkpt lat="45.91569" lon="4.77924">
        <ele>174</ele>
        <time>2017-04-29T08:20:22Z</time>
      </trkpt>
      <trkpt lat="45.91565" lon="4.77931">
        <ele>175</ele>
        <time>2017-04-29T08:20:23Z</time>
      </trkpt>
      <trkpt lat="45.91562" lon="4.77938">
        <ele>175</ele>
        <time>2017-04-29T08:20:24Z</time>
      </trkpt>
      <trkpt lat="45.91559" lon="4.77945">
        <ele>175</ele>
        <time>2017-04-29T08:20:25Z</time>
      </trkpt>
      <trkpt lat="45.91555" lon="4.77952">
        <ele>175</ele>
        <time>2017-04-29T08:20:26Z</time>
      </trkpt>
      <trkpt lat="45.91552" lon="4.77959">
        <ele>175</ele>
        <time>2017-04-29T08:20:27Z</time>
      </trkpt>
      <trkpt lat="45.91549" lon="4.77966">
        <ele>175</ele>
        <time>2017-04-29T08:20:28Z</time>
      </trkpt>
      <trkpt lat="45.91545" lon="4.77973">
        <ele>175</ele>
        <time>2017-04-29T08:20:29Z</time>
      </trkpt>
      <trkpt lat="45.91542" lon="4.7798">
        <ele>175</ele>
        <time>2017-04-29T08:20:30Z</time>
      </trkpt>
      <trkpt lat="45.91539" lon="4.77987">
        <ele>176</ele>
        <time>2017-04-29T08:20:31Z</time>
      </trkpt>
      <trkpt lat="45.91535" lon="4.77994">
        <ele>176</ele>
        <time>2017-04-29T08:20:32Z</time>
      </trkpt>
      <trkpt lat="45.91532" lon="4.78001">
        <ele>175</ele>
        <time>2017-04-29T08:20:33Z</time>
      </trkpt>
      <trkpt lat="45.91529" lon="4.78008">
        <ele>175</ele>
        <time>2017-04-29T08:20:34Z</time>
      </trkpt>
      <trkpt lat="45.91526" lon="4.78015">
        <ele>175</ele>
        <time>2017-04-29T08:20:35Z</time>
      </trkpt>
      <trkpt lat="45.91522" lon="4.78022">
        <ele>175</ele>
        <time>2017-04-29T08:20:36Z</time>
      </trkpt>
      <trkpt lat="45.91519" lon="4.7803">
        <ele>175</ele>
        <time>2017-04-29T08:20:37Z</time>
      </trkpt>
      <trkpt lat="45.91516" lon="4.78037">
        <ele>175</ele>
        <time>2017-04-29T08:20:38Z</time>
      </trkpt>
      <trkpt lat="45.91513" lon="4.78043">
        <ele>175</ele>
        <time>2017-04-29T08:20:39Z</time>
      </trkpt>
      <trkpt lat="45.9151" lon="4.7805">
        <ele>175</ele>
        <time>2017-04-29T08:20:40Z</time>
      </trkpt>
      <trkpt lat="45.91507" lon="4.78057">
        <ele>175</ele>
        <time>2017-04-29T08:20:41Z</time>
      </trkpt>
      <trkpt lat="45.91505" lon="4.78064">
        <ele>176</ele>
        <time>2017-04-29T08:20:42Z</time>
      </trkpt>
      <trkpt lat="45.91502" lon="4.78071">
        <ele>176</ele>
        <time>2017-04-29T08:20:43Z</time>
      </trkpt>
      <trkpt lat="45.91499" lon="4.78078">
        <ele>177</ele>
        <time>2017-04-29T08:20:44Z</time>
      </trkpt>
      <trkpt lat="45.91496" lon="4.78085">
        <ele>177</ele>
        <time>2017-04-29T08:20:45Z</time>
      </trkpt>
      <trkpt lat="45.91493" lon="4.78092">
        <ele>177</ele>
        <time>2017-04-29T08:20:46Z</time>
      </trkpt>
      <trkpt lat="45.91489" lon="4.78099">
        <ele>177</ele>
        <time>2017-04-29T08:20:47Z</time>
      </trkpt>
      <trkpt lat="45.91486" lon="4.78106">
        <ele>177</ele>
        <time>2017-04-29T08:20:48Z</time>
      </trkpt>
      <trkpt lat="45.91483" lon="4.78114">
        <ele>177</ele>
        <time>2017-04-29T08:20:49Z</time>
      </trkpt>
      <trkpt lat="45.9148" lon="4.78121">
        <ele>177</ele>
        <time>2017-04-29T08:20:50Z</time>
      </trkpt>
      <trkpt lat="45.91478" lon="4.78128">
        <ele>177</ele>
        <time>2017-04-29T08:20:51Z</time>
      </trkpt>
      <trkpt lat="45.91475" lon="4.78135">
        <ele>177</ele>
        <time>2017-04-29T08:20:52Z</time>
      </trkpt>
      <trkpt lat="45.91472" lon="4.78142">
        <ele>177</ele>
        <time>2017-04-29T08:20:53Z</time>
      </trkpt>
      <trkpt lat="45.91469" lon="4.78149">
        <ele>177</ele>
        <time>2017-04-29T08:20:54Z</time>
      </trkpt>
      <trkpt lat="45.91466" lon="4.78156">
        <ele>177</ele>
        <time>2017-04-29T08:20:55Z</time>
      </trkpt>
      <trkpt lat="45.91463" lon="4.78163">
        <ele>177</ele>
        <time>2017-04-29T08:20:56Z</time>
      </trkpt>
      <trkpt lat="45.91459" lon="4.7817">
        <ele>177</ele>
        <time>2017-04-29T08:20:57Z</time>
      </trkpt>
      <trkpt lat="45.91456" lon="4.78176">
        <ele>177</ele>
        <time>2017-04-29T08:20:58Z</time>
      </trkpt>
      <trkpt lat="45.91453" lon="4.78183">
        <ele>177</ele>
        <time>2017-04-29T08:20:59Z</time>
      </trkpt>
      <trkpt lat="45.9145" lon="4.7819">
        <ele>177</ele>
        <time>2017-04-29T08:21:00Z</time>
      </trkpt>
      <trkpt lat="45.91446" lon="4.78197">
        <ele>177</ele>
        <time>2017-04-29T08:21:01Z</time>
      </trkpt>
      <trkpt lat="45.91443" lon="4.78203">
        <ele>177</ele>
        <time>2017-04-29T08:21:02Z</time>
      </trkpt>
      <trkpt lat="45.91441" lon="4.78209">
        <ele>177</ele>
        <time>2017-04-29T08:21:03Z</time>
      </trkpt>
      <trkpt lat="45.91437" lon="4.78215">
        <ele>177</ele>
        <time>2017-04-29T08:21:04Z</time>
      </trkpt>
      <trkpt lat="45.91434" lon="4.78221">
        <ele>177</ele>
        <time>2017-04-29T08:21:05Z</time>
      </trkpt>
      <trkpt lat="45.91431" lon="4.78227">
        <ele>177</ele>
        <time>2017-04-29T08:21:06Z</time>
      </trkpt>
      <trkpt lat="45.91429" lon="4.78233">
        <ele>177</ele>
        <time>2017-04-29T08:21:07Z</time>
      </trkpt>
      <trkpt lat="45.91426" lon="4.7824">
        <ele>177</ele>
        <time>2017-04-29T08:21:08Z</time>
      </trkpt>
      <trkpt lat="45.91423" lon="4.78246">
        <ele>177</ele>
        <time>2017-04-29T08:21:09Z</time>
      </trkpt>
      <trkpt lat="45.9142" lon="4.78252">
        <ele>177</ele>
        <time>2017-04-29T08:21:10Z</time>
      </trkpt>
      <trkpt lat="45.91418" lon="4.78258">
        <ele>177</ele>
        <time>2017-04-29T08:21:11Z</time>
      </trkpt>
      <trkpt lat="45.91414" lon="4.78264">
        <ele>177</ele>
        <time>2017-04-29T08:21:12Z</time>
      </trkpt>
      <trkpt lat="45.91411" lon="4.78271">
        <ele>177</ele>
        <time>2017-04-29T08:21:13Z</time>
      </trkpt>
      <trkpt lat="45.91408" lon="4.78277">
        <ele>177</ele>
        <time>2017-04-29T08:21:14Z</time>
      </trkpt>
      <trkpt lat="45.91405" lon="4.78284">
        <ele>177</ele>
        <time>2017-04-29T08:21:15Z</time>
      </trkpt>
      <trkpt lat="45.91401" lon="4.7829">
        <ele>177</ele>
        <time>2017-04-29T08:21:16Z</time>
      </trkpt>
      <trkpt lat="45.91398" lon="4.78296">
        <ele>177</ele>
        <time>2017-04-29T08:21:17Z</time>
      </trkpt>
      <trkpt lat="45.91395" lon="4.78303">
        <ele>177</ele>
        <time>2017-04-29T08:21:18Z</time>
      </trkpt>
      <trkpt lat="45.91391" lon="4.78309">
        <ele>177</ele>
        <time>2017-04-29T08:21:19Z</time>
      </trkpt>
      <trkpt lat="45.91387" lon="4.78316">
        <ele>177</ele>
        <time>2017-04-29T08:21:20Z</time>
      </trkpt>
      <trkpt lat="45.91384" lon="4.78323">
        <ele>177</ele>
        <time>2017-04-29T08:21:21Z</time>
      </trkpt>
      <trkpt lat="45.91381" lon="4.7833">
        <ele>177</ele>
        <time>2017-04-29T08:21:22Z</time>
      </trkpt>
      <trkpt lat="45.91378" lon="4.78336">
        <ele>177</ele>
        <time>2017-04-29T08:21:23Z</time>
      </trkpt>
      <trkpt lat="45.91375" lon="4.78342">
        <ele>177</ele>
        <time>2017-04-29T08:21:24Z</time>
      </trkpt>
      <trkpt lat="45.91371" lon="4.78349">
        <ele>177</ele>
        <time>2017-04-29T08:21:25Z</time>
      </trkpt>
      <trkpt lat="45.91368" lon="4.78355">
        <ele>177</ele>
        <time>2017-04-29T08:21:26Z</time>
      </trkpt>
      <trkpt lat="45.91365" lon="4.78361">
        <ele>177</ele>
        <time>2017-04-29T08:21:27Z</time>
      </trkpt>
      <trkpt lat="45.91362" lon="4.78367">
        <ele>177</ele>
        <time>2017-04-29T08:21:28Z</time>
      </trkpt>
      <trkpt lat="45.91359" lon="4.78374">
        <ele>177</ele>
        <time>2017-04-29T08:21:29Z</time>
      </trkpt>
      <trkpt lat="45.91356" lon="4.78381">
        <ele>177</ele>
        <time>2017-04-29T08:21:30Z</time>
      </trkpt>
      <trkpt lat="45.91353" lon="4.78387">
        <ele>176</ele>
        <time>2017-04-29T08:21:31Z</time>
      </trkpt>
      <trkpt lat="45.9135" lon="4.78394">
        <ele>176</ele>
        <time>2017-04-29T08:21:32Z</time>
      </trkpt>
      <trkpt lat="45.91347" lon="4.78401">
        <ele>176</ele>
        <time>2017-04-29T08:21:33Z</time>
      </trkpt>
      <trkpt lat="45.91344" lon="4.78408">
        <ele>176</ele>
        <time>2017-04-29T08:21:34Z</time>
      </trkpt>
      <trkpt lat="45.9134" lon="4.78414">
        <ele>176</ele>
        <time>2017-04-29T08:21:35Z</time>
      </trkpt>
      <trkpt lat="45.91338" lon="4.78421">
        <ele>176</ele>
        <time>2017-04-29T08:21:36Z</time>
      </trkpt>
      <trkpt lat="45.91335" lon="4.78427">
        <ele>176</ele>
        <time>2017-04-29T08:21:37Z</time>
      </trkpt>
      <trkpt lat="45.91332" lon="4.78434">
        <ele>176</ele>
        <time>2017-04-29T08:21:38Z</time>
      </trkpt>
      <trkpt lat="45.91329" lon="4.7844">
        <ele>176</ele>
        <time>2017-04-29T08:21:39Z</time>
      </trkpt>
      <trkpt lat="45.91326" lon="4.78445">
        <ele>176</ele>
        <time>2017-04-29T08:21:40Z</time>
      </trkpt>
      <trkpt lat="45.91323" lon="4.78451">
        <ele>176</ele>
        <time>2017-04-29T08:21:41Z</time>
      </trkpt>
      <trkpt lat="45.91321" lon="4.78457">
        <ele>176</ele>
        <time>2017-04-29T08:21:42Z</time>
      </trkpt>
      <trkpt lat="45.91318" lon="4.78462">
        <ele>176</ele>
        <time>2017-04-29T08:21:43Z</time>
      </trkpt>
      <trkpt lat="45.91315" lon="4.78468">
        <ele>176</ele>
        <time>2017-04-29T08:21:44Z</time>
      </trkpt>
      <trkpt lat="45.91313" lon="4.78474">
        <ele>176</ele>
        <time>2017-04-29T08:21:45Z</time>
      </trkpt>
      <trkpt lat="45.91311" lon="4.78479">
        <ele>176</ele>
        <time>2017-04-29T08:21:46Z</time>
      </trkpt>
      <trkpt lat="45.91308" lon="4.78485">
        <ele>176</ele>
        <time>2017-04-29T08:21:47Z</time>
      </trkpt>
      <trkpt lat="45.91305" lon="4.78491">
        <ele>176</ele>
        <time>2017-04-29T08:21:48Z</time>
      </trkpt>
      <trkpt lat="45.91302" lon="4.78497">
        <ele>176</ele>
        <time>2017-04-29T08:21:49Z</time>
      </trkpt>
      <trkpt lat="45.91299" lon="4.78503">
        <ele>175</ele>
        <time>2017-04-29T08:21:50Z</time>
      </trkpt>
      <trkpt lat="45.91296" lon="4.78509">
        <ele>175</ele>
        <time>2017-04-29T08:21:51Z</time>
      </trkpt>
      <trkpt lat="45.91294" lon="4.78515">
        <ele>175</ele>
        <time>2017-04-29T08:21:52Z</time>
      </trkpt>
      <trkpt lat="45.91291" lon="4.78522">
        <ele>176</ele>
        <time>2017-04-29T08:21:53Z</time>
      </trkpt>
      <trkpt lat="45.91288" lon="4.78528">
        <ele>176</ele>
        <time>2017-04-29T08:21:54Z</time>
      </trkpt>
      <trkpt lat="45.91285" lon="4.78534">
        <ele>176</ele>
        <time>2017-04-29T08:21:55Z</time>
      </trkpt>
      <trkpt lat="45.91282" lon="4.78539">
        <ele>176</ele>
        <time>2017-04-29T08:21:56Z</time>
      </trkpt>
      <trkpt lat="45.91279" lon="4.78546">
        <ele>176</ele>
        <time>2017-04-29T08:21:57Z</time>
      </trkpt>
      <trkpt lat="45.91276" lon="4.78552">
        <ele>176</ele>
        <time>2017-04-29T08:21:58Z</time>
      </trkpt>
      <trkpt lat="45.91273" lon="4.78559">
        <ele>176</ele>
        <time>2017-04-29T08:21:59Z</time>
      </trkpt>
      <trkpt lat="45.9127" lon="4.78565">
        <ele>176</ele>
        <time>2017-04-29T08:22:00Z</time>
      </trkpt>
      <trkpt lat="45.91267" lon="4.78572">
        <ele>176</ele>
        <time>2017-04-29T08:22:01Z</time>
      </trkpt>
      <trkpt lat="45.91264" lon="4.78579">
        <ele>176</ele>
        <time>2017-04-29T08:22:02Z</time>
      </trkpt>
      <trkpt lat="45.91261" lon="4.78585">
        <ele>176</ele>
        <time>2017-04-29T08:22:03Z</time>
      </trkpt>
      <trkpt lat="45.91257" lon="4.78592">
        <ele>176</ele>
        <time>2017-04-29T08:22:04Z</time>
      </trkpt>
      <trkpt lat="45.91254" lon="4.78598">
        <ele>176</ele>
        <time>2017-04-29T08:22:05Z</time>
      </trkpt>
      <trkpt lat="45.91251" lon="4.78605">
        <ele>176</ele>
        <time>2017-04-29T08:22:06Z</time>
      </trkpt>
      <trkpt lat="45.91248" lon="4.78611">
        <ele>177</ele>
        <time>2017-04-29T08:22:07Z</time>
      </trkpt>
      <trkpt lat="45.91245" lon="4.78618">
        <ele>177</ele>
        <time>2017-04-29T08:22:08Z</time>
      </trkpt>
      <trkpt lat="45.91242" lon="4.78624">
        <ele>177</ele>
        <time>2017-04-29T08:22:09Z</time>
      </trkpt>
      <trkpt lat="45.91239" lon="4.78631">
        <ele>177</ele>
        <time>2017-04-29T08:22:10Z</time>
      </trkpt>
      <trkpt lat="45.91236" lon="4.78638">
        <ele>177</ele>
        <time>2017-04-29T08:22:11Z</time>
      </trkpt>
      <trkpt lat="45.91233" lon="4.78644">
        <ele>177</ele>
        <time>2017-04-29T08:22:12Z</time>
      </trkpt>
      <trkpt lat="45.9123" lon="4.7865">
        <ele>177</ele>
        <time>2017-04-29T08:22:13Z</time>
      </trkpt>
      <trkpt lat="45.91227" lon="4.78657">
        <ele>177</ele>
        <time>2017-04-29T08:22:14Z</time>
      </trkpt>
      <trkpt lat="45.91224" lon="4.78664">
        <ele>177</ele>
        <time>2017-04-29T08:22:15Z</time>
      </trkpt>
      <trkpt lat="45.91221" lon="4.78671">
        <ele>177</ele>
        <time>2017-04-29T08:22:16Z</time>
      </trkpt>
      <trkpt lat="45.91218" lon="4.78678">
        <ele>177</ele>
        <time>2017-04-29T08:22:17Z</time>
      </trkpt>
      <trkpt lat="45.91215" lon="4.78685">
        <ele>177</ele>
        <time>2017-04-29T08:22:18Z</time>
      </trkpt>
      <trkpt lat="45.91212" lon="4.78692">
        <ele>177</ele>
        <time>2017-04-29T08:22:19Z</time>
      </trkpt>
      <trkpt lat="45.91209" lon="4.78699">
        <ele>177</ele>
        <time>2017-04-29T08:22:20Z</time>
      </trkpt>
      <trkpt lat="45.91206" lon="4.78706">
        <ele>177</ele>
        <time>2017-04-29T08:22:21Z</time>
      </trkpt>
      <trkpt lat="45.91202" lon="4.78713">
        <ele>177</ele>
        <time>2017-04-29T08:22:22Z</time>
      </trkpt>
      <trkpt lat="45.91199" lon="4.7872">
        <ele>177</ele>
        <time>2017-04-29T08:22:23Z</time>
      </trkpt>
      <trkpt lat="45.91195" lon="4.78727">
        <ele>177</ele>
        <time>2017-04-29T08:22:24Z</time>
      </trkpt>
      <trkpt lat="45.91192" lon="4.78734">
        <ele>177</ele>
        <time>2017-04-29T08:22:25Z</time>
      </trkpt>
      <trkpt lat="45.91188" lon="4.78741">
        <ele>177</ele>
        <time>2017-04-29T08:22:26Z</time>
      </trkpt>
      <trkpt lat="45.91184" lon="4.78748">
        <ele>177</ele>
        <time>2017-04-29T08:22:27Z</time>
      </trkpt>
      <trkpt lat="45.91181" lon="4.78756">
        <ele>177</ele>
        <time>2017-04-29T08:22:28Z</time>
      </trkpt>
      <trkpt lat="45.91177" lon="4.78763">
        <ele>177</ele>
        <time>2017-04-29T08:22:29Z</time>
      </trkpt>
      <trkpt lat="45.91174" lon="4.7877">
        <ele>177</ele>
        <time>2017-04-29T08:22:30Z</time>
      </trkpt>
      <trkpt lat="45.9117" lon="4.78777">
        <ele>177</ele>
        <time>2017-04-29T08:22:31Z</time>
      </trkpt>
      <trkpt lat="45.91167" lon="4.78784">
        <ele>177</ele>
        <time>2017-04-29T08:22:32Z</time>
      </trkpt>
      <trkpt lat="45.91163" lon="4.78791">
        <ele>177</ele>
        <time>2017-04-29T08:22:33Z</time>
      </trkpt>
      <trkpt lat="45.9116" lon="4.78798">
        <ele>177</ele>
        <time>2017-04-29T08:22:34Z</time>
      </trkpt>
      <trkpt lat="45.91156" lon="4.78805">
        <ele>176</ele>
        <time>2017-04-29T08:22:35Z</time>
      </trkpt>
      <trkpt lat="45.91152" lon="4.78811">
        <ele>176</ele>
        <time>2017-04-29T08:22:36Z</time>
      </trkpt>
      <trkpt lat="45.91149" lon="4.78817">
        <ele>176</ele>
        <time>2017-04-29T08:22:37Z</time>
      </trkpt>
      <trkpt lat="45.91145" lon="4.78823">
        <ele>176</ele>
        <time>2017-04-29T08:22:38Z</time>
      </trkpt>
      <trkpt lat="45.91142" lon="4.7883">
        <ele>176</ele>
        <time>2017-04-29T08:22:39Z</time>
      </trkpt>
      <trkpt lat="45.91139" lon="4.78836">
        <ele>176</ele>
        <time>2017-04-29T08:22:40Z</time>
      </trkpt>
      <trkpt lat="45.91135" lon="4.78843">
        <ele>176</ele>
        <time>2017-04-29T08:22:41Z</time>
      </trkpt>
      <trkpt lat="45.91132" lon="4.7885">
        <ele>176</ele>
        <time>2017-04-29T08:22:42Z</time>
      </trkpt>
      <trkpt lat="45.91128" lon="4.78857">
        <ele>176</ele>
        <time>2017-04-29T08:22:43Z</time>
      </trkpt>
      <trkpt lat="45.91124" lon="4.78864">
        <ele>176</ele>
        <time>2017-04-29T08:22:44Z</time>
      </trkpt>
      <trkpt lat="45.9112" lon="4.78871">
        <ele>176</ele>
        <time>2017-04-29T08:22:45Z</time>
      </trkpt>
      <trkpt lat="45.91116" lon="4.78877">
        <ele>176</ele>
        <time>2017-04-29T08:22:46Z</time>
      </trkpt>
      <trkpt lat="45.91111" lon="4.78884">
        <ele>176</ele>
        <time>2017-04-29T08:22:47Z</time>
      </trkpt>
      <trkpt lat="45.91107" lon="4.78892">
        <ele>176</ele>
        <time>2017-04-29T08:22:48Z</time>
      </trkpt>
      <trkpt lat="45.91103" lon="4.78899">
        <ele>176</ele>
        <time>2017-04-29T08:22:49Z</time>
      </trkpt>
      <trkpt lat="45.911" lon="4.78906">
        <ele>177</ele>
        <time>2017-04-29T08:22:50Z</time>
      </trkpt>
      <trkpt lat="45.91096" lon="4.78913">
        <ele>177</ele>
        <time>2017-04-29T08:22:51Z</time>
      </trkpt>
      <trkpt lat="45.91093" lon="4.78919">
        <ele>177</ele>
        <time>2017-04-29T08:22:52Z</time>
      </trkpt>
      <trkpt lat="45.9109" lon="4.78925">
        <ele>177</ele>
        <time>2017-04-29T08:22:53Z</time>
      </trkpt>
      <trkpt lat="45.91086" lon="4.78931">
        <ele>177</ele>
        <time>2017-04-29T08:22:54Z</time>
      </trkpt>
      <trkpt lat="45.91082" lon="4.78938">
        <ele>177</ele>
        <time>2017-04-29T08:22:55Z</time>
      </trkpt>
      <trkpt lat="45.91078" lon="4.78944">
        <ele>177</ele>
        <time>2017-04-29T08:22:56Z</time>
      </trkpt>
      <trkpt lat="45.91075" lon="4.7895">
        <ele>177</ele>
        <time>2017-04-29T08:22:57Z</time>
      </trkpt>
      <trkpt lat="45.91071" lon="4.78957">
        <ele>177</ele>
        <time>2017-04-29T08:22:58Z</time>
      </trkpt>
      <trkpt lat="45.91068" lon="4.78963">
        <ele>177</ele>
        <time>2017-04-29T08:22:59Z</time>
      </trkpt>
      <trkpt lat="45.91065" lon="4.78969">
        <ele>177</ele>
        <time>2017-04-29T08:23:00Z</time>
      </trkpt>
      <trkpt lat="45.91062" lon="4.78975">
        <ele>177</ele>
        <time>2017-04-29T08:23:01Z</time>
      </trkpt>
      <trkpt lat="45.91059" lon="4.78982">
        <ele>177</ele>
        <time>2017-04-29T08:23:02Z</time>
      </trkpt>
      <trkpt lat="45.91056" lon="4.78988">
        <ele>177</ele>
        <time>2017-04-29T08:23:03Z</time>
      </trkpt>
      <trkpt lat="45.91053" lon="4.78994">
        <ele>177</ele>
        <time>2017-04-29T08:23:04Z</time>
      </trkpt>
      <trkpt lat="45.91049" lon="4.79">
        <ele>177</ele>
        <time>2017-04-29T08:23:05Z</time>
      </trkpt>
      <trkpt lat="45.91046" lon="4.79006">
        <ele>177</ele>
        <time>2017-04-29T08:23:06Z</time>
      </trkpt>
      <trkpt lat="45.91043" lon="4.79012">
        <ele>176</ele>
        <time>2017-04-29T08:23:07Z</time>
      </trkpt>
      <trkpt lat="45.91039" lon="4.79018">
        <ele>176</ele>
        <time>2017-04-29T08:23:08Z</time>
      </trkpt>
      <trkpt lat="45.91036" lon="4.79024">
        <ele>176</ele>
        <time>2017-04-29T08:23:09Z</time>
      </trkpt>
      <trkpt lat="45.91033" lon="4.7903">
        <ele>176</ele>
        <time>2017-04-29T08:23:10Z</time>
      </trkpt>
      <trkpt lat="45.91029" lon="4.79036">
        <ele>176</ele>
        <time>2017-04-29T08:23:11Z</time>
      </trkpt>
      <trkpt lat="45.91026" lon="4.79043">
        <ele>176</ele>
        <time>2017-04-29T08:23:12Z</time>
      </trkpt>
      <trkpt lat="45.91022" lon="4.79049">
        <ele>176</ele>
        <time>2017-04-29T08:23:13Z</time>
      </trkpt>
      <trkpt lat="45.91018" lon="4.79056">
        <ele>176</ele>
        <time>2017-04-29T08:23:14Z</time>
      </trkpt>
      <trkpt lat="45.91014" lon="4.79063">
        <ele>176</ele>
        <time>2017-04-29T08:23:15Z</time>
      </trkpt>
      <trkpt lat="45.9101" lon="4.79069">
        <ele>177</ele>
        <time>2017-04-29T08:23:16Z</time>
      </trkpt>
      <trkpt lat="45.91007" lon="4.79076">
        <ele>177</ele>
        <time>2017-04-29T08:23:17Z</time>
      </trkpt>
      <trkpt lat="45.91003" lon="4.79082">
        <ele>177</ele>
        <time>2017-04-29T08:23:18Z</time>
      </trkpt>
      <trkpt lat="45.91" lon="4.79088">
        <ele>177</ele>
        <time>2017-04-29T08:23:19Z</time>
      </trkpt>
      <trkpt lat="45.90997" lon="4.79094">
        <ele>177</ele>
        <time>2017-04-29T08:23:20Z</time>
      </trkpt>
      <trkpt lat="45.90994" lon="4.791">
        <ele>177</ele>
        <time>2017-04-29T08:23:21Z</time>
      </trkpt>
      <trkpt lat="45.90991" lon="4.79106">
        <ele>177</ele>
        <time>2017-04-29T08:23:22Z</time>
      </trkpt>
      <trkpt lat="45.90987" lon="4.79112">
        <ele>177</ele>
        <time>2017-04-29T08:23:23Z</time>
      </trkpt>
      <trkpt lat="45.90983" lon="4.79117">
        <ele>177</ele>
        <time>2017-04-29T08:23:24Z</time>
      </trkpt>
      <trkpt lat="45.9098" lon="4.79123">
        <ele>177</ele>
        <time>2017-04-29T08:23:25Z</time>
      </trkpt>
      <trkpt lat="45.90977" lon="4.79128">
        <ele>177</ele>
        <time>2017-04-29T08:23:26Z</time>
      </trkpt>
      <trkpt lat="45.90973" lon="4.79134">
        <ele>177</ele>
        <time>2017-04-29T08:23:27Z</time>
      </trkpt>
      <trkpt lat="45.9097" lon="4.7914">
        <ele>177</ele>
        <time>2017-04-29T08:23:28Z</time>
      </trkpt>
      <trkpt lat="45.90967" lon="4.79146">
        <ele>177</ele>
        <time>2017-04-29T08:23:29Z</time>
      </trkpt>
      <trkpt lat="45.90964" lon="4.79152">
        <ele>177</ele>
        <time>2017-04-29T08:23:30Z</time>
      </trkpt>
      <trkpt lat="45.9096" lon="4.79158">
        <ele>177</ele>
        <time>2017-04-29T08:23:31Z</time>
      </trkpt>
      <trkpt lat="45.90957" lon="4.79164">
        <ele>177</ele>
        <time>2017-04-29T08:23:32Z</time>
      </trkpt>
      <trkpt lat="45.90954" lon="4.79171">
        <ele>177</ele>
        <time>2017-04-29T08:23:33Z</time>
      </trkpt>
      <trkpt lat="45.9095" lon="4.79177">
        <ele>177</ele>
        <time>2017-04-29T08:23:34Z</time>
      </trkpt>
      <trkpt lat="45.90947" lon="4.79183">
        <ele>176</ele>
        <time>2017-04-29T08:23:35Z</time>
      </trkpt>
      <trkpt lat="45.90944" lon="4.7919">
        <ele>176</ele>
        <time>2017-04-29T08:23:36Z</time>
      </trkpt>
      <trkpt lat="45.9094" lon="4.79196">
        <ele>176</ele>
        <time>2017-04-29T08:23:37Z</time>
      </trkpt>
      <trkpt lat="45.90937" lon="4.79203">
        <ele>176</ele>
        <time>2017-04-29T08:23:38Z</time>
      </trkpt>
      <trkpt lat="45.90933" lon="4.79209">
        <ele>176</ele>
        <time>2017-04-29T08:23:39Z</time>
      </trkpt>
      <trkpt lat="45.9093" lon="4.79216">
        <ele>176</ele>
        <time>2017-04-29T08:23:40Z</time>
      </trkpt>
      <trkpt lat="45.90926" lon="4.79222">
        <ele>176</ele>
        <time>2017-04-29T08:23:41Z</time>
      </trkpt>
      <trkpt lat="45.90923" lon="4.79229">
        <ele>176</ele>
        <time>2017-04-29T08:23:42Z</time>
      </trkpt>
      <trkpt lat="45.90919" lon="4.79235">
        <ele>176</ele>
        <time>2017-04-29T08:23:43Z</time>
      </trkpt>
      <trkpt lat="45.90915" lon="4.79241">
        <ele>176</ele>
        <time>2017-04-29T08:23:44Z</time>
      </trkpt>
      <trkpt lat="45.90912" lon="4.79247">
        <ele>176</ele>
        <time>2017-04-29T08:23:45Z</time>
      </trkpt>
      <trkpt lat="45.90909" lon="4.79253">
        <ele>176</ele>
        <time>2017-04-29T08:23:46Z</time>
      </trkpt>
      <trkpt lat="45.90906" lon="4.79259">
        <ele>176</ele>
        <time>2017-04-29T08:23:47Z</time>
      </trkpt>
      <trkpt lat="45.90902" lon="4.79265">
        <ele>176</ele>
        <time>2017-04-29T08:23:48Z</time>
      </trkpt>
      <trkpt lat="45.90899" lon="4.79271">
        <ele>176</ele>
        <time>2017-04-29T08:23:49Z</time>
      </trkpt>
      <trkpt lat="45.90896" lon="4.79277">
        <ele>176</ele>
        <time>2017-04-29T08:23:50Z</time>
      </trkpt>
      <trkpt lat="45.90892" lon="4.79283">
        <ele>176</ele>
        <time>2017-04-29T08:23:51Z</time>
      </trkpt>
      <trkpt lat="45.90889" lon="4.79288">
        <ele>176</ele>
        <time>2017-04-29T08:23:52Z</time>
      </trkpt>
      <trkpt lat="45.90886" lon="4.79294">
        <ele>176</ele>
        <time>2017-04-29T08:23:53Z</time>
      </trkpt>
      <trkpt lat="45.90882" lon="4.793">
        <ele>176</ele>
        <time>2017-04-29T08:23:54Z</time>
      </trkpt>
      <trkpt lat="45.90879" lon="4.79306">
        <ele>176</ele>
        <time>2017-04-29T08:23:55Z</time>
      </trkpt>
      <trkpt lat="45.90875" lon="4.79312">
        <ele>176</ele>
        <time>2017-04-29T08:23:56Z</time>
      </trkpt>
      <trkpt lat="45.90871" lon="4.79317">
        <ele>176</ele>
        <time>2017-04-29T08:23:57Z</time>
      </trkpt>
      <trkpt lat="45.90868" lon="4.79323">
        <ele>176</ele>
        <time>2017-04-29T08:23:58Z</time>
      </trkpt>
      <trkpt lat="45.90863" lon="4.79328">
        <ele>176</ele>
        <time>2017-04-29T08:23:59Z</time>
      </trkpt>
      <trkpt lat="45.90859" lon="4.79334">
        <ele>175</ele>
        <time>2017-04-29T08:24:00Z</time>
      </trkpt>
      <trkpt lat="45.90855" lon="4.7934">
        <ele>175</ele>
        <time>2017-04-29T08:24:01Z</time>
      </trkpt>
      <trkpt lat="45.90851" lon="4.79345">
        <ele>175</ele>
        <time>2017-04-29T08:24:02Z</time>
      </trkpt>
      <trkpt lat="45.90847" lon="4.79351">
        <ele>175</ele>
        <time>2017-04-29T08:24:03Z</time>
      </trkpt>
      <trkpt lat="45.90843" lon="4.79357">
        <ele>175</ele>
        <time>2017-04-29T08:24:04Z</time>
      </trkpt>
      <trkpt lat="45.90838" lon="4.79362">
        <ele>175</ele>
        <time>2017-04-29T08:24:05Z</time>
      </trkpt>
      <trkpt lat="45.90834" lon="4.79368">
        <ele>175</ele>
        <time>2017-04-29T08:24:06Z</time>
      </trkpt>
      <trkpt lat="45.90829" lon="4.79373">
        <ele>175</ele>
        <time>2017-04-29T08:24:07Z</time>
      </trkpt>
      <trkpt lat="45.90824" lon="4.79378">
        <ele>175</ele>
        <time>2017-04-29T08:24:08Z</time>
      </trkpt>
      <trkpt lat="45.90819" lon="4.79383">
        <ele>175</ele>
        <time>2017-04-29T08:24:09Z</time>
      </trkpt>
      <trkpt lat="45.90815" lon="4.79388">
        <ele>175</ele>
        <time>2017-04-29T08:24:10Z</time>
      </trkpt>
      <trkpt lat="45.9081" lon="4.79393">
        <ele>175</ele>
        <time>2017-04-29T08:24:11Z</time>
      </trkpt>
      <trkpt lat="45.90806" lon="4.79397">
        <ele>175</ele>
        <time>2017-04-29T08:24:12Z</time>
      </trkpt>
      <trkpt lat="45.90801" lon="4.79402">
        <ele>175</ele>
        <time>2017-04-29T08:24:13Z</time>
      </trkpt>
      <trkpt lat="45.90797" lon="4.79406">
        <ele>175</ele>
        <time>2017-04-29T08:24:14Z</time>
      </trkpt>
      <trkpt lat="45.90792" lon="4.7941">
        <ele>175</ele>
        <time>2017-04-29T08:24:15Z</time>
      </trkpt>
      <trkpt lat="45.90787" lon="4.79414">
        <ele>175</ele>
        <time>2017-04-29T08:24:16Z</time>
      </trkpt>
      <trkpt lat="45.90781" lon="4.79418">
        <ele>174</ele>
        <time>2017-04-29T08:24:17Z</time>
      </trkpt>
      <trkpt lat="45.90776" lon="4.79423">
        <ele>174</ele>
        <time>2017-04-29T08:24:18Z</time>
      </trkpt>
      <trkpt lat="45.9077" lon="4.79427">
        <ele>174</ele>
        <time>2017-04-29T08:24:19Z</time>
      </trkpt>
      <trkpt lat="45.90763" lon="4.79431">
        <ele>174</ele>
        <time>2017-04-29T08:24:20Z</time>
      </trkpt>
      <trkpt lat="45.90757" lon="4.79435">
        <ele>174</ele>
        <time>2017-04-29T08:24:21Z</time>
      </trkpt>
      <trkpt lat="45.90751" lon="4.79439">
        <ele>174</ele>
        <time>2017-04-29T08:24:22Z</time>
      </trkpt>
      <trkpt lat="45.90745" lon="4.79442">
        <ele>175</ele>
        <time>2017-04-29T08:24:23Z</time>
      </trkpt>
      <trkpt lat="45.9074" lon="4.79446">
        <ele>174</ele>
        <time>2017-04-29T08:24:24Z</time>
      </trkpt>
      <trkpt lat="45.90733" lon="4.79448">
        <ele>174</ele>
        <time>2017-04-29T08:24:25Z</time>
      </trkpt>
      <trkpt lat="45.90727" lon="4.79451">
        <ele>174</ele>
        <time>2017-04-29T08:24:26Z</time>
      </trkpt>
      <trkpt lat="45.90721" lon="4.79455">
        <ele>174</ele>
        <time>2017-04-29T08:24:27Z</time>
      </trkpt>
      <trkpt lat="45.90715" lon="4.79458">
        <ele>174</ele>
        <time>2017-04-29T08:24:28Z</time>
      </trkpt>
      <trkpt lat="45.90709" lon="4.79461">
        <ele>174</ele>
        <time>2017-04-29T08:24:29Z</time>
      </trkpt>
      <trkpt lat="45.90703" lon="4.79464">
        <ele>174</ele>
        <time>2017-04-29T08:24:30Z</time>
      </trkpt>
      <trkpt lat="45.90698" lon="4.79467">
        <ele>174</ele>
        <time>2017-04-29T08:24:31Z</time>
      </trkpt>
      <trkpt lat="45.90693" lon="4.7947">
        <ele>174</ele>
        <time>2017-04-29T08:24:32Z</time>
      </trkpt>
      <trkpt lat="45.90687" lon="4.79474">
        <ele>174</ele>
        <time>2017-04-29T08:24:33Z</time>
      </trkpt>
      <trkpt lat="45.90682" lon="4.79477">
        <ele>174</ele>
        <time>2017-04-29T08:24:34Z</time>
      </trkpt>
      <trkpt lat="45.90678" lon="4.7948">
        <ele>174</ele>
        <time>2017-04-29T08:24:35Z</time>
      </trkpt>
      <trkpt lat="45.90673" lon="4.79482">
        <ele>174</ele>
        <time>2017-04-29T08:24:36Z</time>
      </trkpt>
      <trkpt lat="45.90668" lon="4.79485">
        <ele>174</ele>
        <time>2017-04-29T08:24:37Z</time>
      </trkpt>
      <trkpt lat="45.90663" lon="4.79488">
        <ele>175</ele>
        <time>2017-04-29T08:24:38Z</time>
      </trkpt>
      <trkpt lat="45.90658" lon="4.79491">
        <ele>175</ele>
        <time>2017-04-29T08:24:39Z</time>
      </trkpt>
      <trkpt lat="45.90653" lon="4.79494">
        <ele>175</ele>
        <time>2017-04-29T08:24:40Z</time>
      </trkpt>
      <trkpt lat="45.90648" lon="4.79498">
        <ele>176</ele>
        <time>2017-04-29T08:24:41Z</time>
      </trkpt>
      <trkpt lat="45.90643" lon="4.79501">
        <ele>174</ele>
        <time>2017-04-29T08:24:42Z</time>
      </trkpt>
      <trkpt lat="45.90639" lon="4.79503">
        <ele>174</ele>
        <time>2017-04-29T08:24:43Z</time>
      </trkpt>
      <trkpt lat="45.90634" lon="4.79506">
        <ele>174</ele>
        <time>2017-04-29T08:24:44Z</time>
      </trkpt>
      <trkpt lat="45.90629" lon="4.79509">
        <ele>174</ele>
        <time>2017-04-29T08:24:45Z</time>
      </trkpt>
      <trkpt lat="45.90624" lon="4.79512">
        <ele>174</ele>
        <time>2017-04-29T08:24:46Z</time>
      </trkpt>
      <trkpt lat="45.90619" lon="4.79515">
        <ele>174</ele>
        <time>2017-04-29T08:24:47Z</time>
      </trkpt>
      <trkpt lat="45.90614" lon="4.79519">
        <ele>174</ele>
        <time>2017-04-29T08:24:48Z</time>
      </trkpt>
      <trkpt lat="45.90608" lon="4.79523">
        <ele>175</ele>
        <time>2017-04-29T08:24:49Z</time>
      </trkpt>
      <trkpt lat="45.90603" lon="4.79526">
        <ele>175</ele>
        <time>2017-04-29T08:24:50Z</time>
      </trkpt>
      <trkpt lat="45.90597" lon="4.7953">
        <ele>175</ele>
        <time>2017-04-29T08:24:51Z</time>
      </trkpt>
      <trkpt lat="45.90592" lon="4.79533">
        <ele>174</ele>
        <time>2017-04-29T08:24:52Z</time>
      </trkpt>
      <trkpt lat="45.90587" lon="4.79537">
        <ele>174</ele>
        <time>2017-04-29T08:24:53Z</time>
      </trkpt>
      <trkpt lat="45.90582" lon="4.7954">
        <ele>177</ele>
        <time>2017-04-29T08:24:54Z</time>
      </trkpt>
      <trkpt lat="45.90576" lon="4.79544">
        <ele>176</ele>
        <time>2017-04-29T08:24:55Z</time>
      </trkpt>
      <trkpt lat="45.90571" lon="4.79548">
        <ele>176</ele>
        <time>2017-04-29T08:24:56Z</time>
      </trkpt>
      <trkpt lat="45.90566" lon="4.79551">
        <ele>176</ele>
        <time>2017-04-29T08:24:57Z</time>
      </trkpt>
      <trkpt lat="45.90561" lon="4.79555">
        <ele>176</ele>
        <time>2017-04-29T08:24:58Z</time>
      </trkpt>
      <trkpt lat="45.90556" lon="4.79559">
        <ele>176</ele>
        <time>2017-04-29T08:24:59Z</time>
      </trkpt>
      <trkpt lat="45.9055" lon="4.79563">
        <ele>176</ele>
        <time>2017-04-29T08:25:00Z</time>
      </trkpt>
      <trkpt lat="45.90545" lon="4.79567">
        <ele>176</ele>
        <time>2017-04-29T08:25:01Z</time>
      </trkpt>
      <trkpt lat="45.9054" lon="4.79571">
        <ele>176</ele>
        <time>2017-04-29T08:25:02Z</time>
      </trkpt>
      <trkpt lat="45.90534" lon="4.79575">
        <ele>176</ele>
        <time>2017-04-29T08:25:03Z</time>
      </trkpt>
      <trkpt lat="45.90529" lon="4.79579">
        <ele>177</ele>
        <time>2017-04-29T08:25:04Z</time>
      </trkpt>
      <trkpt lat="45.90524" lon="4.79583">
        <ele>177</ele>
        <time>2017-04-29T08:25:05Z</time>
      </trkpt>
      <trkpt lat="45.90519" lon="4.79587">
        <ele>175</ele>
        <time>2017-04-29T08:25:06Z</time>
      </trkpt>
      <trkpt lat="45.90514" lon="4.79591">
        <ele>175</ele>
        <time>2017-04-29T08:25:07Z</time>
      </trkpt>
      <trkpt lat="45.9051" lon="4.79596">
        <ele>175</ele>
        <time>2017-04-29T08:25:08Z</time>
      </trkpt>
      <trkpt lat="45.90505" lon="4.796">
        <ele>175</ele>
        <time>2017-04-29T08:25:09Z</time>
      </trkpt>
      <trkpt lat="45.905" lon="4.79604">
        <ele>175</ele>
        <time>2017-04-29T08:25:10Z</time>
      </trkpt>
      <trkpt lat="45.90496" lon="4.79608">
        <ele>176</ele>
        <time>2017-04-29T08:25:11Z</time>
      </trkpt>
      <trkpt lat="45.90492" lon="4.79612">
        <ele>176</ele>
        <time>2017-04-29T08:25:12Z</time>
      </trkpt>
      <trkpt lat="45.90487" lon="4.79616">
        <ele>176</ele>
        <time>2017-04-29T08:25:13Z</time>
      </trkpt>
      <trkpt lat="45.90483" lon="4.7962">
        <ele>176</ele>
        <time>2017-04-29T08:25:14Z</time>
      </trkpt>
      <trkpt lat="45.90479" lon="4.79624">
        <ele>176</ele>
        <time>2017-04-29T08:25:15Z</time>
      </trkpt>
      <trkpt lat="45.90474" lon="4.79629">
        <ele>176</ele>
        <time>2017-04-29T08:25:16Z</time>
      </trkpt>
      <trkpt lat="45.9047" lon="4.79633">
        <ele>176</ele>
        <time>2017-04-29T08:25:17Z</time>
      </trkpt>
      <trkpt lat="45.90466" lon="4.79638">
        <ele>176</ele>
        <time>2017-04-29T08:25:18Z</time>
      </trkpt>
      <trkpt lat="45.90462" lon="4.79643">
        <ele>176</ele>
        <time>2017-04-29T08:25:19Z</time>
      </trkpt>
      <trkpt lat="45.90458" lon="4.79648">
        <ele>176</ele>
        <time>2017-04-29T08:25:20Z</time>
      </trkpt>
      <trkpt lat="45.90453" lon="4.79653">
        <ele>176</ele>
        <time>2017-04-29T08:25:21Z</time>
      </trkpt>
      <trkpt lat="45.90448" lon="4.79658">
        <ele>176</ele>
        <time>2017-04-29T08:25:22Z</time>
      </trkpt>
      <trkpt lat="45.90444" lon="4.79663">
        <ele>176</ele>
        <time>2017-04-29T08:25:23Z</time>
      </trkpt>
      <trkpt lat="45.9044" lon="4.79668">
        <ele>174</ele>
        <time>2017-04-29T08:25:24Z</time>
      </trkpt>
      <trkpt lat="45.90436" lon="4.79673">
        <ele>174</ele>
        <time>2017-04-29T08:25:25Z</time>
      </trkpt>
      <trkpt lat="45.90432" lon="4.79679">
        <ele>174</ele>
        <time>2017-04-29T08:25:26Z</time>
      </trkpt>
      <trkpt lat="45.90427" lon="4.79684">
        <ele>174</ele>
        <time>2017-04-29T08:25:27Z</time>
      </trkpt>
      <trkpt lat="45.90423" lon="4.79689">
        <ele>174</ele>
        <time>2017-04-29T08:25:28Z</time>
      </trkpt>
      <trkpt lat="45.90419" lon="4.79695">
        <ele>173</ele>
        <time>2017-04-29T08:25:29Z</time>
      </trkpt>
      <trkpt lat="45.90414" lon="4.797">
        <ele>176</ele>
        <time>2017-04-29T08:25:30Z</time>
      </trkpt>
      <trkpt lat="45.9041" lon="4.79706">
        <ele>176</ele>
        <time>2017-04-29T08:25:31Z</time>
      </trkpt>
      <trkpt lat="45.90406" lon="4.79711">
        <ele>176</ele>
        <time>2017-04-29T08:25:32Z</time>
      </trkpt>
      <trkpt lat="45.90402" lon="4.79716">
        <ele>176</ele>
        <time>2017-04-29T08:25:33Z</time>
      </trkpt>
      <trkpt lat="45.90398" lon="4.79722">
        <ele>176</ele>
        <time>2017-04-29T08:25:34Z</time>
      </trkpt>
      <trkpt lat="45.90394" lon="4.79727">
        <ele>176</ele>
        <time>2017-04-29T08:25:35Z</time>
      </trkpt>
      <trkpt lat="45.90389" lon="4.79732">
        <ele>176</ele>
        <time>2017-04-29T08:25:36Z</time>
      </trkpt>
      <trkpt lat="45.90385" lon="4.79737">
        <ele>176</ele>
        <time>2017-04-29T08:25:37Z</time>
      </trkpt>
      <trkpt lat="45.90381" lon="4.79743">
        <ele>176</ele>
        <time>2017-04-29T08:25:38Z</time>
      </trkpt>
      <trkpt lat="45.90377" lon="4.79748">
        <ele>176</ele>
        <time>2017-04-29T08:25:39Z</time>
      </trkpt>
      <trkpt lat="45.90373" lon="4.79754">
        <ele>173</ele>
        <time>2017-04-29T08:25:40Z</time>
      </trkpt>
      <trkpt lat="45.90368" lon="4.79759">
        <ele>174</ele>
        <time>2017-04-29T08:25:41Z</time>
      </trkpt>
      <trkpt lat="45.90364" lon="4.79765">
        <ele>174</ele>
        <time>2017-04-29T08:25:42Z</time>
      </trkpt>
      <trkpt lat="45.90359" lon="4.7977">
        <ele>174</ele>
        <time>2017-04-29T08:25:43Z</time>
      </trkpt>
      <trkpt lat="45.90355" lon="4.79776">
        <ele>174</ele>
        <time>2017-04-29T08:25:44Z</time>
      </trkpt>
      <trkpt lat="45.9035" lon="4.79782">
        <ele>173</ele>
        <time>2017-04-29T08:25:45Z</time>
      </trkpt>
      <trkpt lat="45.90346" lon="4.79788">
        <ele>173</ele>
        <time>2017-04-29T08:25:46Z</time>
      </trkpt>
      <trkpt lat="45.90341" lon="4.79793">
        <ele>173</ele>
        <time>2017-04-29T08:25:47Z</time>
      </trkpt>
      <trkpt lat="45.90337" lon="4.79799">
        <ele>172</ele>
        <time>2017-04-29T08:25:48Z</time>
      </trkpt>
      <trkpt lat="45.90333" lon="4.79805">
        <ele>175</ele>
        <time>2017-04-29T08:25:49Z</time>
      </trkpt>
      <trkpt lat="45.90328" lon="4.7981">
        <ele>175</ele>
        <time>2017-04-29T08:25:50Z</time>
      </trkpt>
      <trkpt lat="45.90324" lon="4.79815">
        <ele>174</ele>
        <time>2017-04-29T08:25:51Z</time>
      </trkpt>
      <trkpt lat="45.9032" lon="4.79821">
        <ele>174</ele>
        <time>2017-04-29T08:25:52Z</time>
      </trkpt>
      <trkpt lat="45.90315" lon="4.79827">
        <ele>174</ele>
        <time>2017-04-29T08:25:53Z</time>
      </trkpt>
      <trkpt lat="45.9031" lon="4.79833">
        <ele>175</ele>
        <time>2017-04-29T08:25:54Z</time>
      </trkpt>
      <trkpt lat="45.90306" lon="4.79838">
        <ele>172</ele>
        <time>2017-04-29T08:25:55Z</time>
      </trkpt>
      <trkpt lat="45.90301" lon="4.79844">
        <ele>172</ele>
        <time>2017-04-29T08:25:56Z</time>
      </trkpt>
      <trkpt lat="45.90296" lon="4.7985">
        <ele>173</ele>
        <time>2017-04-29T08:25:57Z</time>
      </trkpt>
      <trkpt lat="45.90291" lon="4.79856">
        <ele>173</ele>
        <time>2017-04-29T08:25:58Z</time>
      </trkpt>
      <trkpt lat="45.90286" lon="4.79862">
        <ele>173</ele>
        <time>2017-04-29T08:25:59Z</time>
      </trkpt>
      <trkpt lat="45.90281" lon="4.79868">
        <ele>173</ele>
        <time>2017-04-29T08:26:00Z</time>
      </trkpt>
      <trkpt lat="45.90276" lon="4.79873">
        <ele>173</ele>
        <time>2017-04-29T08:26:01Z</time>
      </trkpt>
      <trkpt lat="45.90272" lon="4.79878">
        <ele>173</ele>
        <time>2017-04-29T08:26:02Z</time>
      </trkpt>
      <trkpt lat="45.90267" lon="4.79882">
        <ele>173</ele>
        <time>2017-04-29T08:26:03Z</time>
      </trkpt>
      <trkpt lat="45.90262" lon="4.79886">
        <ele>173</ele>
        <time>2017-04-29T08:26:04Z</time>
      </trkpt>
      <trkpt lat="45.90257" lon="4.79891">
        <ele>173</ele>
        <time>2017-04-29T08:26:05Z</time>
      </trkpt>
      <trkpt lat="45.90252" lon="4.79895">
        <ele>173</ele>
        <time>2017-04-29T08:26:06Z</time>
      </trkpt>
      <trkpt lat="45.90247" lon="4.799">
        <ele>175</ele>
        <time>2017-04-29T08:26:07Z</time>
      </trkpt>
      <trkpt lat="45.90242" lon="4.79903">
        <ele>175</ele>
        <time>2017-04-29T08:26:08Z</time>
      </trkpt>
      <trkpt lat="45.90237" lon="4.79907">
        <ele>175</ele>
        <time>2017-04-29T08:26:09Z</time>
      </trkpt>
      <trkpt lat="45.90232" lon="4.7991">
        <ele>175</ele>
        <time>2017-04-29T08:26:10Z</time>
      </trkpt>
      <trkpt lat="45.90227" lon="4.79913">
        <ele>176</ele>
        <time>2017-04-29T08:26:11Z</time>
      </trkpt>
      <trkpt lat="45.90222" lon="4.79916">
        <ele>176</ele>
        <time>2017-04-29T08:26:12Z</time>
      </trkpt>
      <trkpt lat="45.90217" lon="4.79919">
        <ele>173</ele>
        <time>2017-04-29T08:26:13Z</time>
      </trkpt>
      <trkpt lat="45.90212" lon="4.79922">
        <ele>173</ele>
        <time>2017-04-29T08:26:14Z</time>
      </trkpt>
      <trkpt lat="45.90207" lon="4.79924">
        <ele>173</ele>
        <time>2017-04-29T08:26:15Z</time>
      </trkpt>
      <trkpt lat="45.90201" lon="4.79927">
        <ele>173</ele>
        <time>2017-04-29T08:26:16Z</time>
      </trkpt>
      <trkpt lat="45.90196" lon="4.7993">
        <ele>173</ele>
        <time>2017-04-29T08:26:17Z</time>
      </trkpt>
      <trkpt lat="45.9019" lon="4.79933">
        <ele>174</ele>
        <time>2017-04-29T08:26:18Z</time>
      </trkpt>
      <trkpt lat="45.90185" lon="4.79935">
        <ele>174</ele>
        <time>2017-04-29T08:26:19Z</time>
      </trkpt>
      <trkpt lat="45.90179" lon="4.79938">
        <ele>174</ele>
        <time>2017-04-29T08:26:20Z</time>
      </trkpt>
      <trkpt lat="45.90173" lon="4.79941">
        <ele>174</ele>
        <time>2017-04-29T08:26:21Z</time>
      </trkpt>
      <trkpt lat="45.90167" lon="4.79943">
        <ele>174</ele>
        <time>2017-04-29T08:26:22Z</time>
      </trkpt>
      <trkpt lat="45.90161" lon="4.79945">
        <ele>176</ele>
        <time>2017-04-29T08:26:23Z</time>
      </trkpt>
      <trkpt lat="45.90156" lon="4.79947">
        <ele>175</ele>
        <time>2017-04-29T08:26:24Z</time>
      </trkpt>
      <trkpt lat="45.90151" lon="4.7995">
        <ele>175</ele>
        <time>2017-04-29T08:26:25Z</time>
      </trkpt>
      <trkpt lat="45.90145" lon="4.79952">
        <ele>175</ele>
        <time>2017-04-29T08:26:26Z</time>
      </trkpt>
      <trkpt lat="45.9014" lon="4.79954">
        <ele>175</ele>
        <time>2017-04-29T08:26:27Z</time>
      </trkpt>
      <trkpt lat="45.90134" lon="4.79957">
        <ele>175</ele>
        <time>2017-04-29T08:26:28Z</time>
      </trkpt>
      <trkpt lat="45.90128" lon="4.79959">
        <ele>175</ele>
        <time>2017-04-29T08:26:29Z</time>
      </trkpt>
      <trkpt lat="45.90123" lon="4.79961">
        <ele>175</ele>
        <time>2017-04-29T08:26:30Z</time>
      </trkpt>
      <trkpt lat="45.90117" lon="4.79963">
        <ele>175</ele>
        <time>2017-04-29T08:26:31Z</time>
      </trkpt>
      <trkpt lat="45.90111" lon="4.79965">
        <ele>175</ele>
        <time>2017-04-29T08:26:32Z</time>
      </trkpt>
      <trkpt lat="45.90105" lon="4.79967">
        <ele>175</ele>
        <time>2017-04-29T08:26:33Z</time>
      </trkpt>
      <trkpt lat="45.90098" lon="4.79969">
        <ele>175</ele>
        <time>2017-04-29T08:26:34Z</time>
      </trkpt>
      <trkpt lat="45.90092" lon="4.79972">
        <ele>174</ele>
        <time>2017-04-29T08:26:35Z</time>
      </trkpt>
      <trkpt lat="45.90086" lon="4.79975">
        <ele>174</ele>
        <time>2017-04-29T08:26:36Z</time>
      </trkpt>
      <trkpt lat="45.90079" lon="4.79977">
        <ele>175</ele>
        <time>2017-04-29T08:26:37Z</time>
      </trkpt>
      <trkpt lat="45.90073" lon="4.7998">
        <ele>175</ele>
        <time>2017-04-29T08:26:38Z</time>
      </trkpt>
      <trkpt lat="45.90066" lon="4.79983">
        <ele>175</ele>
        <time>2017-04-29T08:26:39Z</time>
      </trkpt>
      <trkpt lat="45.9006" lon="4.79986">
        <ele>175</ele>
        <time>2017-04-29T08:26:40Z</time>
      </trkpt>
      <trkpt lat="45.90054" lon="4.79988">
        <ele>175</ele>
        <time>2017-04-29T08:26:41Z</time>
      </trkpt>
      <trkpt lat="45.90048" lon="4.79991">
        <ele>175</ele>
        <time>2017-04-29T08:26:42Z</time>
      </trkpt>
      <trkpt lat="45.90042" lon="4.79993">
        <ele>175</ele>
        <time>2017-04-29T08:26:43Z</time>
      </trkpt>
      <trkpt lat="45.90037" lon="4.79996">
        <ele>175</ele>
        <time>2017-04-29T08:26:44Z</time>
      </trkpt>
      <trkpt lat="45.90031" lon="4.79998">
        <ele>175</ele>
        <time>2017-04-29T08:26:45Z</time>
      </trkpt>
      <trkpt lat="45.90026" lon="4.8">
        <ele>170</ele>
        <time>2017-04-29T08:26:46Z</time>
      </trkpt>
      <trkpt lat="45.9002" lon="4.80003">
        <ele>171</ele>
        <time>2017-04-29T08:26:47Z</time>
      </trkpt>
      <trkpt lat="45.90015" lon="4.80006">
        <ele>171</ele>
        <time>2017-04-29T08:26:48Z</time>
      </trkpt>
      <trkpt lat="45.90009" lon="4.80009">
        <ele>171</ele>
        <time>2017-04-29T08:26:49Z</time>
      </trkpt>
      <trkpt lat="45.90003" lon="4.80011">
        <ele>171</ele>
        <time>2017-04-29T08:26:50Z</time>
      </trkpt>
      <trkpt lat="45.89997" lon="4.80014">
        <ele>171</ele>
        <time>2017-04-29T08:26:51Z</time>
      </trkpt>
      <trkpt lat="45.89991" lon="4.80017">
        <ele>171</ele>
        <time>2017-04-29T08:26:52Z</time>
      </trkpt>
      <trkpt lat="45.89986" lon="4.80019">
        <ele>171</ele>
        <time>2017-04-29T08:26:53Z</time>
      </trkpt>
      <trkpt lat="45.8998" lon="4.80022">
        <ele>171</ele>
        <time>2017-04-29T08:26:54Z</time>
      </trkpt>
      <trkpt lat="45.89975" lon="4.80025">
        <ele>171</ele>
        <time>2017-04-29T08:26:55Z</time>
      </trkpt>
      <trkpt lat="45.8997" lon="4.80027">
        <ele>171</ele>
        <time>2017-04-29T08:26:56Z</time>
      </trkpt>
      <trkpt lat="45.89965" lon="4.80029">
        <ele>170</ele>
        <time>2017-04-29T08:26:57Z</time>
      </trkpt>
      <trkpt lat="45.8996" lon="4.80032">
        <ele>170</ele>
        <time>2017-04-29T08:26:58Z</time>
      </trkpt>
      <trkpt lat="45.89955" lon="4.80034">
        <ele>170</ele>
        <time>2017-04-29T08:26:59Z</time>
      </trkpt>
      <trkpt lat="45.8995" lon="4.80036">
        <ele>170</ele>
        <time>2017-04-29T08:27:00Z</time>
      </trkpt>
      <trkpt lat="45.89944" lon="4.80038">
        <ele>170</ele>
        <time>2017-04-29T08:27:01Z</time>
      </trkpt>
      <trkpt lat="45.89939" lon="4.8004">
        <ele>170</ele>
        <time>2017-04-29T08:27:02Z</time>
      </trkpt>
      <trkpt lat="45.89933" lon="4.80042">
        <ele>170</ele>
        <time>2017-04-29T08:27:03Z</time>
      </trkpt>
      <trkpt lat="45.89927" lon="4.80044">
        <ele>170</ele>
        <time>2017-04-29T08:27:04Z</time>
      </trkpt>
      <trkpt lat="45.8992" lon="4.80047">
        <ele>170</ele>
        <time>2017-04-29T08:27:05Z</time>
      </trkpt>
      <trkpt lat="45.89914" lon="4.80049">
        <ele>171</ele>
        <time>2017-04-29T08:27:06Z</time>
      </trkpt>
      <trkpt lat="45.89908" lon="4.80052">
        <ele>171</ele>
        <time>2017-04-29T08:27:07Z</time>
      </trkpt>
      <trkpt lat="45.89901" lon="4.80055">
        <ele>170</ele>
        <time>2017-04-29T08:27:08Z</time>
      </trkpt>
      <trkpt lat="45.89895" lon="4.80058">
        <ele>170</ele>
        <time>2017-04-29T08:27:09Z</time>
      </trkpt>
      <trkpt lat="45.89889" lon="4.8006">
        <ele>170</ele>
        <time>2017-04-29T08:27:10Z</time>
      </trkpt>
      <trkpt lat="45.89883" lon="4.80063">
        <ele>170</ele>
        <time>2017-04-29T08:27:11Z</time>
      </trkpt>
      <trkpt lat="45.89876" lon="4.80065">
        <ele>170</ele>
        <time>2017-04-29T08:27:12Z</time>
      </trkpt>
      <trkpt lat="45.8987" lon="4.80068">
        <ele>170</ele>
        <time>2017-04-29T08:27:13Z</time>
      </trkpt>
      <trkpt lat="45.89863" lon="4.8007">
        <ele>170</ele>
        <time>2017-04-29T08:27:14Z</time>
      </trkpt>
      <trkpt lat="45.89857" lon="4.80072">
        <ele>170</ele>
        <time>2017-04-29T08:27:15Z</time>
      </trkpt>
      <trkpt lat="45.89851" lon="4.80075">
        <ele>170</ele>
        <time>2017-04-29T08:27:16Z</time>
      </trkpt>
      <trkpt lat="45.89844" lon="4.80078">
        <ele>170</ele>
        <time>2017-04-29T08:27:17Z</time>
      </trkpt>
      <trkpt lat="45.89838" lon="4.8008">
        <ele>170</ele>
        <time>2017-04-29T08:27:18Z</time>
      </trkpt>
      <trkpt lat="45.89832" lon="4.80083">
        <ele>170</ele>
        <time>2017-04-29T08:27:19Z</time>
      </trkpt>
      <trkpt lat="45.89826" lon="4.80085">
        <ele>170</ele>
        <time>2017-04-29T08:27:20Z</time>
      </trkpt>
      <trkpt lat="45.89821" lon="4.80087">
        <ele>170</ele>
        <time>2017-04-29T08:27:21Z</time>
      </trkpt>
      <trkpt lat="45.89815" lon="4.8009">
        <ele>169</ele>
        <time>2017-04-29T08:27:22Z</time>
      </trkpt>
      <trkpt lat="45.8981" lon="4.80092">
        <ele>169</ele>
        <time>2017-04-29T08:27:23Z</time>
      </trkpt>
      <trkpt lat="45.89804" lon="4.80095">
        <ele>169</ele>
        <time>2017-04-29T08:27:24Z</time>
      </trkpt>
      <trkpt lat="45.89799" lon="4.80097">
        <ele>169</ele>
        <time>2017-04-29T08:27:25Z</time>
      </trkpt>
      <trkpt lat="45.89793" lon="4.801">
        <ele>169</ele>
        <time>2017-04-29T08:27:26Z</time>
      </trkpt>
      <trkpt lat="45.89787" lon="4.80103">
        <ele>169</ele>
        <time>2017-04-29T08:27:27Z</time>
      </trkpt>
      <trkpt lat="45.89781" lon="4.80105">
        <ele>169</ele>
        <time>2017-04-29T08:27:28Z</time>
      </trkpt>
      <trkpt lat="45.89775" lon="4.80107">
        <ele>169</ele>
        <time>2017-04-29T08:27:29Z</time>
      </trkpt>
      <trkpt lat="45.8977" lon="4.8011">
        <ele>169</ele>
        <time>2017-04-29T08:27:30Z</time>
      </trkpt>
      <trkpt lat="45.89764" lon="4.80113">
        <ele>169</ele>
        <time>2017-04-29T08:27:31Z</time>
      </trkpt>
      <trkpt lat="45.89758" lon="4.80116">
        <ele>169</ele>
        <time>2017-04-29T08:27:32Z</time>
      </trkpt>
      <trkpt lat="45.89751" lon="4.80119">
        <ele>169</ele>
        <time>2017-04-29T08:27:33Z</time>
      </trkpt>
      <trkpt lat="45.89745" lon="4.80121">
        <ele>170</ele>
        <time>2017-04-29T08:27:34Z</time>
      </trkpt>
      <trkpt lat="45.89738" lon="4.80124">
        <ele>171</ele>
        <time>2017-04-29T08:27:35Z</time>
      </trkpt>
      <trkpt lat="45.89732" lon="4.80127">
        <ele>171</ele>
        <time>2017-04-29T08:27:36Z</time>
      </trkpt>
      <trkpt lat="45.89726" lon="4.80129">
        <ele>171</ele>
        <time>2017-04-29T08:27:37Z</time>
      </trkpt>
      <trkpt lat="45.8972" lon="4.80132">
        <ele>171</ele>
        <time>2017-04-29T08:27:38Z</time>
      </trkpt>
      <trkpt lat="45.89715" lon="4.80135">
        <ele>171</ele>
        <time>2017-04-29T08:27:39Z</time>
      </trkpt>
      <trkpt lat="45.89711" lon="4.80137">
        <ele>171</ele>
        <time>2017-04-29T08:27:40Z</time>
      </trkpt>
      <trkpt lat="45.89707" lon="4.80139">
        <ele>171</ele>
        <time>2017-04-29T08:27:41Z</time>
      </trkpt>
      <trkpt lat="45.89698" lon="4.80144">
        <ele>171</ele>
        <time>2017-04-29T08:27:43Z</time>
      </trkpt>
      <trkpt lat="45.89695" lon="4.80145">
        <ele>171</ele>
        <time>2017-04-29T08:27:44Z</time>
      </trkpt>
      <trkpt lat="45.89688" lon="4.80151">
        <ele>172</ele>
        <time>2017-04-29T08:27:47Z</time>
      </trkpt>
      <trkpt lat="45.89685" lon="4.80153">
        <ele>172</ele>
        <time>2017-04-29T08:27:48Z</time>
      </trkpt>
      <trkpt lat="45.89679" lon="4.80157">
        <ele>172</ele>
        <time>2017-04-29T08:27:50Z</time>
      </trkpt>
      <trkpt lat="45.89673" lon="4.80159">
        <ele>172</ele>
        <time>2017-04-29T08:27:51Z</time>
      </trkpt>
      <trkpt lat="45.89666" lon="4.80161">
        <ele>173</ele>
        <time>2017-04-29T08:27:52Z</time>
      </trkpt>
      <trkpt lat="45.89659" lon="4.80164">
        <ele>173</ele>
        <time>2017-04-29T08:27:53Z</time>
      </trkpt>
      <trkpt lat="45.89653" lon="4.80166">
        <ele>173</ele>
        <time>2017-04-29T08:27:54Z</time>
      </trkpt>
      <trkpt lat="45.89648" lon="4.80168">
        <ele>172</ele>
        <time>2017-04-29T08:27:55Z</time>
      </trkpt>
      <trkpt lat="45.89642" lon="4.8017">
        <ele>172</ele>
        <time>2017-04-29T08:27:56Z</time>
      </trkpt>
      <trkpt lat="45.89636" lon="4.80173">
        <ele>172</ele>
        <time>2017-04-29T08:27:57Z</time>
      </trkpt>
      <trkpt lat="45.8963" lon="4.80175">
        <ele>172</ele>
        <time>2017-04-29T08:27:58Z</time>
      </trkpt>
      <trkpt lat="45.89623" lon="4.80178">
        <ele>172</ele>
        <time>2017-04-29T08:27:59Z</time>
      </trkpt>
      <trkpt lat="45.89617" lon="4.8018">
        <ele>172</ele>
        <time>2017-04-29T08:28:00Z</time>
      </trkpt>
      <trkpt lat="45.89611" lon="4.80182">
        <ele>172</ele>
        <time>2017-04-29T08:28:01Z</time>
      </trkpt>
      <trkpt lat="45.89603" lon="4.80185">
        <ele>172</ele>
        <time>2017-04-29T08:28:02Z</time>
      </trkpt>
      <trkpt lat="45.89593" lon="4.8019">
        <ele>172</ele>
        <time>2017-04-29T08:28:03Z</time>
      </trkpt>
      <trkpt lat="45.89583" lon="4.80195">
        <ele>173</ele>
        <time>2017-04-29T08:28:04Z</time>
      </trkpt>
      <trkpt lat="45.89575" lon="4.80199">
        <ele>173</ele>
        <time>2017-04-29T08:28:05Z</time>
      </trkpt>
      <trkpt lat="45.89568" lon="4.80202">
        <ele>173</ele>
        <time>2017-04-29T08:28:06Z</time>
      </trkpt>
      <trkpt lat="45.89561" lon="4.80205">
        <ele>173</ele>
        <time>2017-04-29T08:28:07Z</time>
      </trkpt>
      <trkpt lat="45.89554" lon="4.80208">
        <ele>173</ele>
        <time>2017-04-29T08:28:08Z</time>
      </trkpt>
      <trkpt lat="45.89548" lon="4.80211">
        <ele>173</ele>
        <time>2017-04-29T08:28:09Z</time>
      </trkpt>
      <trkpt lat="45.89541" lon="4.80212">
        <ele>173</ele>
        <time>2017-04-29T08:28:10Z</time>
      </trkpt>
      <trkpt lat="45.89535" lon="4.80213">
        <ele>173</ele>
        <time>2017-04-29T08:28:11Z</time>
      </trkpt>
      <trkpt lat="45.8953" lon="4.80215">
        <ele>173</ele>
        <time>2017-04-29T08:28:12Z</time>
      </trkpt>
      <trkpt lat="45.89523" lon="4.80218">
        <ele>173</ele>
        <time>2017-04-29T08:28:13Z</time>
      </trkpt>
      <trkpt lat="45.89517" lon="4.80221">
        <ele>173</ele>
        <time>2017-04-29T08:28:14Z</time>
      </trkpt>
      <trkpt lat="45.89511" lon="4.80223">
        <ele>173</ele>
        <time>2017-04-29T08:28:15Z</time>
      </trkpt>
      <trkpt lat="45.89505" lon="4.80225">
        <ele>173</ele>
        <time>2017-04-29T08:28:16Z</time>
      </trkpt>
      <trkpt lat="45.89499" lon="4.80227">
        <ele>175</ele>
        <time>2017-04-29T08:28:17Z</time>
      </trkpt>
      <trkpt lat="45.89494" lon="4.80229">
        <ele>175</ele>
        <time>2017-04-29T08:28:18Z</time>
      </trkpt>
      <trkpt lat="45.89489" lon="4.80231">
        <ele>175</ele>
        <time>2017-04-29T08:28:19Z</time>
      </trkpt>
      <trkpt lat="45.89484" lon="4.80233">
        <ele>175</ele>
        <time>2017-04-29T08:28:20Z</time>
      </trkpt>
      <trkpt lat="45.89479" lon="4.80235">
        <ele>176</ele>
        <time>2017-04-29T08:28:21Z</time>
      </trkpt>
      <trkpt lat="45.89474" lon="4.80237">
        <ele>176</ele>
        <time>2017-04-29T08:28:22Z</time>
      </trkpt>
      <trkpt lat="45.8947" lon="4.8024">
        <ele>176</ele>
        <time>2017-04-29T08:28:23Z</time>
      </trkpt>
      <trkpt lat="45.89465" lon="4.80242">
        <ele>176</ele>
        <time>2017-04-29T08:28:24Z</time>
      </trkpt>
      <trkpt lat="45.8946" lon="4.80245">
        <ele>177</ele>
        <time>2017-04-29T08:28:25Z</time>
      </trkpt>
      <trkpt lat="45.89455" lon="4.80247">
        <ele>177</ele>
        <time>2017-04-29T08:28:26Z</time>
      </trkpt>
      <trkpt lat="45.89446" lon="4.80251">
        <ele>175</ele>
        <time>2017-04-29T08:28:28Z</time>
      </trkpt>
      <trkpt lat="45.89442" lon="4.80253">
        <ele>175</ele>
        <time>2017-04-29T08:28:29Z</time>
      </trkpt>
      <trkpt lat="45.89434" lon="4.80259">
        <ele>176</ele>
        <time>2017-04-29T08:28:31Z</time>
      </trkpt>
      <trkpt lat="45.8943" lon="4.80262">
        <ele>176</ele>
        <time>2017-04-29T08:28:32Z</time>
      </trkpt>
      <trkpt lat="45.89424" lon="4.80266">
        <ele>176</ele>
        <time>2017-04-29T08:28:33Z</time>
      </trkpt>
      <trkpt lat="45.89419" lon="4.80269">
        <ele>176</ele>
        <time>2017-04-29T08:28:34Z</time>
      </trkpt>
      <trkpt lat="45.89413" lon="4.80272">
        <ele>177</ele>
        <time>2017-04-29T08:28:35Z</time>
      </trkpt>
      <trkpt lat="45.89408" lon="4.80275">
        <ele>177</ele>
        <time>2017-04-29T08:28:36Z</time>
      </trkpt>
      <trkpt lat="45.89403" lon="4.80279">
        <ele>177</ele>
        <time>2017-04-29T08:28:37Z</time>
      </trkpt>
      <trkpt lat="45.89398" lon="4.80282">
        <ele>177</ele>
        <time>2017-04-29T08:28:38Z</time>
      </trkpt>
      <trkpt lat="45.89391" lon="4.80286">
        <ele>177</ele>
        <time>2017-04-29T08:28:39Z</time>
      </trkpt>
      <trkpt lat="45.89385" lon="4.8029">
        <ele>176</ele>
        <time>2017-04-29T08:28:40Z</time>
      </trkpt>
      <trkpt lat="45.8938" lon="4.80294">
        <ele>176</ele>
        <time>2017-04-29T08:28:41Z</time>
      </trkpt>
      <trkpt lat="45.89374" lon="4.80298">
        <ele>176</ele>
        <time>2017-04-29T08:28:42Z</time>
      </trkpt>
      <trkpt lat="45.89368" lon="4.80303">
        <ele>176</ele>
        <time>2017-04-29T08:28:43Z</time>
      </trkpt>
      <trkpt lat="45.89363" lon="4.80307">
        <ele>176</ele>
        <time>2017-04-29T08:28:44Z</time>
      </trkpt>
      <trkpt lat="45.89357" lon="4.80312">
        <ele>176</ele>
        <time>2017-04-29T08:28:45Z</time>
      </trkpt>
      <trkpt lat="45.89352" lon="4.80316">
        <ele>176</ele>
        <time>2017-04-29T08:28:46Z</time>
      </trkpt>
      <trkpt lat="45.89347" lon="4.80321">
        <ele>176</ele>
        <time>2017-04-29T08:28:47Z</time>
      </trkpt>
      <trkpt lat="45.89342" lon="4.80326">
        <ele>176</ele>
        <time>2017-04-29T08:28:48Z</time>
      </trkpt>
      <trkpt lat="45.89337" lon="4.80331">
        <ele>175</ele>
        <time>2017-04-29T08:28:49Z</time>
      </trkpt>
      <trkpt lat="45.89332" lon="4.80335">
        <ele>175</ele>
        <time>2017-04-29T08:28:50Z</time>
      </trkpt>
      <trkpt lat="45.89328" lon="4.8034">
        <ele>175</ele>
        <time>2017-04-29T08:28:51Z</time>
      </trkpt>
      <trkpt lat="45.89323" lon="4.80344">
        <ele>175</ele>
        <time>2017-04-29T08:28:52Z</time>
      </trkpt>
      <trkpt lat="45.89318" lon="4.80349">
        <ele>175</ele>
        <time>2017-04-29T08:28:53Z</time>
      </trkpt>
      <trkpt lat="45.89312" lon="4.80353">
        <ele>175</ele>
        <time>2017-04-29T08:28:54Z</time>
      </trkpt>
      <trkpt lat="45.89307" lon="4.80358">
        <ele>174</ele>
        <time>2017-04-29T08:28:55Z</time>
      </trkpt>
      <trkpt lat="45.89303" lon="4.80362">
        <ele>174</ele>
        <time>2017-04-29T08:28:56Z</time>
      </trkpt>
      <trkpt lat="45.89298" lon="4.80367">
        <ele>174</ele>
        <time>2017-04-29T08:28:57Z</time>
      </trkpt>
      <trkpt lat="45.89293" lon="4.80371">
        <ele>174</ele>
        <time>2017-04-29T08:28:58Z</time>
      </trkpt>
      <trkpt lat="45.89289" lon="4.80375">
        <ele>174</ele>
        <time>2017-04-29T08:28:59Z</time>
      </trkpt>
      <trkpt lat="45.89284" lon="4.80379">
        <ele>174</ele>
        <time>2017-04-29T08:29:00Z</time>
      </trkpt>
      <trkpt lat="45.8928" lon="4.80383">
        <ele>174</ele>
        <time>2017-04-29T08:29:01Z</time>
      </trkpt>
      <trkpt lat="45.89275" lon="4.80388">
        <ele>174</ele>
        <time>2017-04-29T08:29:02Z</time>
      </trkpt>
      <trkpt lat="45.8927" lon="4.80393">
        <ele>174</ele>
        <time>2017-04-29T08:29:03Z</time>
      </trkpt>
      <trkpt lat="45.89264" lon="4.80398">
        <ele>174</ele>
        <time>2017-04-29T08:29:04Z</time>
      </trkpt>
      <trkpt lat="45.89259" lon="4.80404">
        <ele>174</ele>
        <time>2017-04-29T08:29:05Z</time>
      </trkpt>
      <trkpt lat="45.89253" lon="4.80409">
        <ele>173</ele>
        <time>2017-04-29T08:29:06Z</time>
      </trkpt>
      <trkpt lat="45.89248" lon="4.80414">
        <ele>174</ele>
        <time>2017-04-29T08:29:07Z</time>
      </trkpt>
      <trkpt lat="45.89243" lon="4.80419">
        <ele>173</ele>
        <time>2017-04-29T08:29:08Z</time>
      </trkpt>
      <trkpt lat="45.89238" lon="4.80424">
        <ele>173</ele>
        <time>2017-04-29T08:29:09Z</time>
      </trkpt>
      <trkpt lat="45.89233" lon="4.80428">
        <ele>173</ele>
        <time>2017-04-29T08:29:10Z</time>
      </trkpt>
      <trkpt lat="45.89228" lon="4.80433">
        <ele>173</ele>
        <time>2017-04-29T08:29:11Z</time>
      </trkpt>
      <trkpt lat="45.89223" lon="4.80436">
        <ele>174</ele>
        <time>2017-04-29T08:29:12Z</time>
      </trkpt>
      <trkpt lat="45.89217" lon="4.8044">
        <ele>174</ele>
        <time>2017-04-29T08:29:13Z</time>
      </trkpt>
      <trkpt lat="45.89212" lon="4.80444">
        <ele>174</ele>
        <time>2017-04-29T08:29:14Z</time>
      </trkpt>
      <trkpt lat="45.89207" lon="4.80448">
        <ele>174</ele>
        <time>2017-04-29T08:29:15Z</time>
      </trkpt>
      <trkpt lat="45.89202" lon="4.80453">
        <ele>174</ele>
        <time>2017-04-29T08:29:16Z</time>
      </trkpt>
      <trkpt lat="45.89196" lon="4.80457">
        <ele>174</ele>
        <time>2017-04-29T08:29:17Z</time>
      </trkpt>
      <trkpt lat="45.89192" lon="4.80461">
        <ele>174</ele>
        <time>2017-04-29T08:29:18Z</time>
      </trkpt>
      <trkpt lat="45.89187" lon="4.80465">
        <ele>174</ele>
        <time>2017-04-29T08:29:19Z</time>
      </trkpt>
      <trkpt lat="45.89182" lon="4.80469">
        <ele>174</ele>
        <time>2017-04-29T08:29:20Z</time>
      </trkpt>
      <trkpt lat="45.89178" lon="4.80473">
        <ele>174</ele>
        <time>2017-04-29T08:29:21Z</time>
      </trkpt>
      <trkpt lat="45.89173" lon="4.80477">
        <ele>174</ele>
        <time>2017-04-29T08:29:22Z</time>
      </trkpt>
      <trkpt lat="45.89168" lon="4.8048">
        <ele>174</ele>
        <time>2017-04-29T08:29:23Z</time>
      </trkpt>
      <trkpt lat="45.89163" lon="4.80483">
        <ele>175</ele>
        <time>2017-04-29T08:29:24Z</time>
      </trkpt>
      <trkpt lat="45.89158" lon="4.80486">
        <ele>175</ele>
        <time>2017-04-29T08:29:25Z</time>
      </trkpt>
      <trkpt lat="45.89153" lon="4.8049">
        <ele>175</ele>
        <time>2017-04-29T08:29:26Z</time>
      </trkpt>
      <trkpt lat="45.89148" lon="4.80493">
        <ele>175</ele>
        <time>2017-04-29T08:29:27Z</time>
      </trkpt>
      <trkpt lat="45.89143" lon="4.80496">
        <ele>176</ele>
        <time>2017-04-29T08:29:28Z</time>
      </trkpt>
      <trkpt lat="45.89138" lon="4.80499">
        <ele>176</ele>
        <time>2017-04-29T08:29:29Z</time>
      </trkpt>
      <trkpt lat="45.89133" lon="4.80502">
        <ele>173</ele>
        <time>2017-04-29T08:29:30Z</time>
      </trkpt>
      <trkpt lat="45.89128" lon="4.80505">
        <ele>173</ele>
        <time>2017-04-29T08:29:31Z</time>
      </trkpt>
      <trkpt lat="45.89123" lon="4.80507">
        <ele>173</ele>
        <time>2017-04-29T08:29:32Z</time>
      </trkpt>
      <trkpt lat="45.89118" lon="4.80509">
        <ele>173</ele>
        <time>2017-04-29T08:29:33Z</time>
      </trkpt>
      <trkpt lat="45.89114" lon="4.80511">
        <ele>173</ele>
        <time>2017-04-29T08:29:34Z</time>
      </trkpt>
      <trkpt lat="45.89106" lon="4.80514">
        <ele>173</ele>
        <time>2017-04-29T08:29:36Z</time>
      </trkpt>
      <trkpt lat="45.89102" lon="4.80515">
        <ele>174</ele>
        <time>2017-04-29T08:29:37Z</time>
      </trkpt>
      <trkpt lat="45.89097" lon="4.80518">
        <ele>174</ele>
        <time>2017-04-29T08:29:38Z</time>
      </trkpt>
      <trkpt lat="45.89092" lon="4.8052">
        <ele>174</ele>
        <time>2017-04-29T08:29:39Z</time>
      </trkpt>
      <trkpt lat="45.89087" lon="4.80522">
        <ele>174</ele>
        <time>2017-04-29T08:29:40Z</time>
      </trkpt>
      <trkpt lat="45.89082" lon="4.80523">
        <ele>174</ele>
        <time>2017-04-29T08:29:41Z</time>
      </trkpt>
      <trkpt lat="45.89076" lon="4.80525">
        <ele>174</ele>
        <time>2017-04-29T08:29:42Z</time>
      </trkpt>
      <trkpt lat="45.89071" lon="4.80526">
        <ele>174</ele>
        <time>2017-04-29T08:29:43Z</time>
      </trkpt>
      <trkpt lat="45.89066" lon="4.80528">
        <ele>174</ele>
        <time>2017-04-29T08:29:44Z</time>
      </trkpt>
      <trkpt lat="45.8906" lon="4.80531">
        <ele>173</ele>
        <time>2017-04-29T08:29:45Z</time>
      </trkpt>
      <trkpt lat="45.89054" lon="4.80533">
        <ele>173</ele>
        <time>2017-04-29T08:29:46Z</time>
      </trkpt>
      <trkpt lat="45.89049" lon="4.80536">
        <ele>173</ele>
        <time>2017-04-29T08:29:47Z</time>
      </trkpt>
      <trkpt lat="45.89044" lon="4.80539">
        <ele>173</ele>
        <time>2017-04-29T08:29:48Z</time>
      </trkpt>
      <trkpt lat="45.89039" lon="4.80541">
        <ele>173</ele>
        <time>2017-04-29T08:29:49Z</time>
      </trkpt>
      <trkpt lat="45.89033" lon="4.80544">
        <ele>173</ele>
        <time>2017-04-29T08:29:50Z</time>
      </trkpt>
      <trkpt lat="45.89028" lon="4.80546">
        <ele>173</ele>
        <time>2017-04-29T08:29:51Z</time>
      </trkpt>
      <trkpt lat="45.89024" lon="4.80548">
        <ele>173</ele>
        <time>2017-04-29T08:29:52Z</time>
      </trkpt>
      <trkpt lat="45.89019" lon="4.8055">
        <ele>173</ele>
        <time>2017-04-29T08:29:53Z</time>
      </trkpt>
      <trkpt lat="45.89014" lon="4.80552">
        <ele>173</ele>
        <time>2017-04-29T08:29:54Z</time>
      </trkpt>
      <trkpt lat="45.89009" lon="4.80554">
        <ele>172</ele>
        <time>2017-04-29T08:29:55Z</time>
      </trkpt>
      <trkpt lat="45.89004" lon="4.80555">
        <ele>172</ele>
        <time>2017-04-29T08:29:56Z</time>
      </trkpt>
      <trkpt lat="45.88999" lon="4.80557">
        <ele>172</ele>
        <time>2017-04-29T08:29:57Z</time>
      </trkpt>
      <trkpt lat="45.88994" lon="4.80559">
        <ele>172</ele>
        <time>2017-04-29T08:29:58Z</time>
      </trkpt>
      <trkpt lat="45.88989" lon="4.8056">
        <ele>172</ele>
        <time>2017-04-29T08:29:59Z</time>
      </trkpt>
      <trkpt lat="45.88983" lon="4.80561">
        <ele>172</ele>
        <time>2017-04-29T08:30:00Z</time>
      </trkpt>
      <trkpt lat="45.88977" lon="4.80562">
        <ele>172</ele>
        <time>2017-04-29T08:30:01Z</time>
      </trkpt>
      <trkpt lat="45.8897" lon="4.80562">
        <ele>173</ele>
        <time>2017-04-29T08:30:02Z</time>
      </trkpt>
      <trkpt lat="45.88964" lon="4.80562">
        <ele>173</ele>
        <time>2017-04-29T08:30:03Z</time>
      </trkpt>
      <trkpt lat="45.88958" lon="4.80562">
        <ele>173</ele>
        <time>2017-04-29T08:30:04Z</time>
      </trkpt>
      <trkpt lat="45.88952" lon="4.80563">
        <ele>173</ele>
        <time>2017-04-29T08:30:05Z</time>
      </trkpt>
      <trkpt lat="45.88945" lon="4.80567">
        <ele>172</ele>
        <time>2017-04-29T08:30:06Z</time>
      </trkpt>
      <trkpt lat="45.88937" lon="4.80572">
        <ele>172</ele>
        <time>2017-04-29T08:30:07Z</time>
      </trkpt>
      <trkpt lat="45.88932" lon="4.80576">
        <ele>172</ele>
        <time>2017-04-29T08:30:08Z</time>
      </trkpt>
      <trkpt lat="45.88927" lon="4.80581">
        <ele>172</ele>
        <time>2017-04-29T08:30:09Z</time>
      </trkpt>
      <trkpt lat="45.88921" lon="4.80586">
        <ele>171</ele>
        <time>2017-04-29T08:30:10Z</time>
      </trkpt>
      <trkpt lat="45.88915" lon="4.8059">
        <ele>171</ele>
        <time>2017-04-29T08:30:11Z</time>
      </trkpt>
      <trkpt lat="45.8891" lon="4.80593">
        <ele>171</ele>
        <time>2017-04-29T08:30:12Z</time>
      </trkpt>
      <trkpt lat="45.88905" lon="4.80597">
        <ele>172</ele>
        <time>2017-04-29T08:30:13Z</time>
      </trkpt>
      <trkpt lat="45.88899" lon="4.80601">
        <ele>172</ele>
        <time>2017-04-29T08:30:14Z</time>
      </trkpt>
      <trkpt lat="45.88894" lon="4.80604">
        <ele>172</ele>
        <time>2017-04-29T08:30:15Z</time>
      </trkpt>
      <trkpt lat="45.8889" lon="4.80607">
        <ele>172</ele>
        <time>2017-04-29T08:30:16Z</time>
      </trkpt>
      <trkpt lat="45.88885" lon="4.80611">
        <ele>172</ele>
        <time>2017-04-29T08:30:17Z</time>
      </trkpt>
      <trkpt lat="45.8888" lon="4.80614">
        <ele>172</ele>
        <time>2017-04-29T08:30:18Z</time>
      </trkpt>
      <trkpt lat="45.88875" lon="4.80618">
        <ele>172</ele>
        <time>2017-04-29T08:30:19Z</time>
      </trkpt>
      <trkpt lat="45.8887" lon="4.80622">
        <ele>172</ele>
        <time>2017-04-29T08:30:20Z</time>
      </trkpt>
      <trkpt lat="45.88865" lon="4.80627">
        <ele>173</ele>
        <time>2017-04-29T08:30:21Z</time>
      </trkpt>
      <trkpt lat="45.8886" lon="4.8063">
        <ele>173</ele>
        <time>2017-04-29T08:30:22Z</time>
      </trkpt>
      <trkpt lat="45.88855" lon="4.80634">
        <ele>173</ele>
        <time>2017-04-29T08:30:23Z</time>
      </trkpt>
      <trkpt lat="45.8885" lon="4.80638">
        <ele>173</ele>
        <time>2017-04-29T08:30:24Z</time>
      </trkpt>
      <trkpt lat="45.88845" lon="4.80642">
        <ele>173</ele>
        <time>2017-04-29T08:30:25Z</time>
      </trkpt>
      <trkpt lat="45.8884" lon="4.80647">
        <ele>173</ele>
        <time>2017-04-29T08:30:26Z</time>
      </trkpt>
      <trkpt lat="45.88835" lon="4.80652">
        <ele>173</ele>
        <time>2017-04-29T08:30:27Z</time>
      </trkpt>
      <trkpt lat="45.8883" lon="4.80657">
        <ele>174</ele>
        <time>2017-04-29T08:30:28Z</time>
      </trkpt>
      <trkpt lat="45.88824" lon="4.80662">
        <ele>174</ele>
        <time>2017-04-29T08:30:29Z</time>
      </trkpt>
      <trkpt lat="45.88819" lon="4.80667">
        <ele>173</ele>
        <time>2017-04-29T08:30:30Z</time>
      </trkpt>
      <trkpt lat="45.88814" lon="4.80673">
        <ele>172</ele>
        <time>2017-04-29T08:30:31Z</time>
      </trkpt>
      <trkpt lat="45.88809" lon="4.80678">
        <ele>172</ele>
        <time>2017-04-29T08:30:32Z</time>
      </trkpt>
      <trkpt lat="45.88803" lon="4.80684">
        <ele>172</ele>
        <time>2017-04-29T08:30:33Z</time>
      </trkpt>
      <trkpt lat="45.88798" lon="4.8069">
        <ele>172</ele>
        <time>2017-04-29T08:30:34Z</time>
      </trkpt>
      <trkpt lat="45.88793" lon="4.80696">
        <ele>172</ele>
        <time>2017-04-29T08:30:35Z</time>
      </trkpt>
      <trkpt lat="45.88788" lon="4.80701">
        <ele>172</ele>
        <time>2017-04-29T08:30:36Z</time>
      </trkpt>
      <trkpt lat="45.88784" lon="4.80707">
        <ele>172</ele>
        <time>2017-04-29T08:30:37Z</time>
      </trkpt>
      <trkpt lat="45.88779" lon="4.80713">
        <ele>172</ele>
        <time>2017-04-29T08:30:38Z</time>
      </trkpt>
      <trkpt lat="45.88774" lon="4.80719">
        <ele>171</ele>
        <time>2017-04-29T08:30:39Z</time>
      </trkpt>
      <trkpt lat="45.88769" lon="4.80724">
        <ele>171</ele>
        <time>2017-04-29T08:30:40Z</time>
      </trkpt>
      <trkpt lat="45.88764" lon="4.80729">
        <ele>171</ele>
        <time>2017-04-29T08:30:41Z</time>
      </trkpt>
      <trkpt lat="45.88759" lon="4.80734">
        <ele>170</ele>
        <time>2017-04-29T08:30:42Z</time>
      </trkpt>
      <trkpt lat="45.88754" lon="4.8074">
        <ele>170</ele>
        <time>2017-04-29T08:30:43Z</time>
      </trkpt>
      <trkpt lat="45.8875" lon="4.80744">
        <ele>170</ele>
        <time>2017-04-29T08:30:44Z</time>
      </trkpt>
      <trkpt lat="45.88745" lon="4.80749">
        <ele>170</ele>
        <time>2017-04-29T08:30:45Z</time>
      </trkpt>
      <trkpt lat="45.88741" lon="4.80754">
        <ele>170</ele>
        <time>2017-04-29T08:30:46Z</time>
      </trkpt>
      <trkpt lat="45.88737" lon="4.80759">
        <ele>170</ele>
        <time>2017-04-29T08:30:47Z</time>
      </trkpt>
      <trkpt lat="45.88732" lon="4.80763">
        <ele>170</ele>
        <time>2017-04-29T08:30:48Z</time>
      </trkpt>
      <trkpt lat="45.88728" lon="4.80767">
        <ele>170</ele>
        <time>2017-04-29T08:30:49Z</time>
      </trkpt>
      <trkpt lat="45.88723" lon="4.80771">
        <ele>170</ele>
        <time>2017-04-29T08:30:50Z</time>
      </trkpt>
      <trkpt lat="45.88718" lon="4.80776">
        <ele>170</ele>
        <time>2017-04-29T08:30:51Z</time>
      </trkpt>
      <trkpt lat="45.88714" lon="4.80781">
        <ele>170</ele>
        <time>2017-04-29T08:30:52Z</time>
      </trkpt>
      <trkpt lat="45.88709" lon="4.80786">
        <ele>171</ele>
        <time>2017-04-29T08:30:53Z</time>
      </trkpt>
      <trkpt lat="45.88704" lon="4.80791">
        <ele>171</ele>
        <time>2017-04-29T08:30:54Z</time>
      </trkpt>
      <trkpt lat="45.88698" lon="4.80797">
        <ele>171</ele>
        <time>2017-04-29T08:30:55Z</time>
      </trkpt>
      <trkpt lat="45.88693" lon="4.80802">
        <ele>171</ele>
        <time>2017-04-29T08:30:56Z</time>
      </trkpt>
      <trkpt lat="45.88688" lon="4.80808">
        <ele>171</ele>
        <time>2017-04-29T08:30:57Z</time>
      </trkpt>
      <trkpt lat="45.88683" lon="4.80813">
        <ele>171</ele>
        <time>2017-04-29T08:30:58Z</time>
      </trkpt>
      <trkpt lat="45.88678" lon="4.80819">
        <ele>171</ele>
        <time>2017-04-29T08:30:59Z</time>
      </trkpt>
      <trkpt lat="45.88674" lon="4.80824">
        <ele>171</ele>
        <time>2017-04-29T08:31:00Z</time>
      </trkpt>
      <trkpt lat="45.88669" lon="4.80829">
        <ele>171</ele>
        <time>2017-04-29T08:31:01Z</time>
      </trkpt>
      <trkpt lat="45.88665" lon="4.80835">
        <ele>171</ele>
        <time>2017-04-29T08:31:02Z</time>
      </trkpt>
      <trkpt lat="45.8866" lon="4.8084">
        <ele>171</ele>
        <time>2017-04-29T08:31:03Z</time>
      </trkpt>
      <trkpt lat="45.88656" lon="4.80845">
        <ele>171</ele>
        <time>2017-04-29T08:31:04Z</time>
      </trkpt>
      <trkpt lat="45.88651" lon="4.8085">
        <ele>171</ele>
        <time>2017-04-29T08:31:05Z</time>
      </trkpt>
      <trkpt lat="45.88646" lon="4.80855">
        <ele>171</ele>
        <time>2017-04-29T08:31:06Z</time>
      </trkpt>
      <trkpt lat="45.88642" lon="4.8086">
        <ele>171</ele>
        <time>2017-04-29T08:31:07Z</time>
      </trkpt>
      <trkpt lat="45.88637" lon="4.80864">
        <ele>171</ele>
        <time>2017-04-29T08:31:08Z</time>
      </trkpt>
      <trkpt lat="45.88632" lon="4.80869">
        <ele>171</ele>
        <time>2017-04-29T08:31:09Z</time>
      </trkpt>
      <trkpt lat="45.88628" lon="4.80874">
        <ele>171</ele>
        <time>2017-04-29T08:31:10Z</time>
      </trkpt>
      <trkpt lat="45.88624" lon="4.80879">
        <ele>171</ele>
        <time>2017-04-29T08:31:11Z</time>
      </trkpt>
      <trkpt lat="45.8862" lon="4.80884">
        <ele>171</ele>
        <time>2017-04-29T08:31:12Z</time>
      </trkpt>
      <trkpt lat="45.88616" lon="4.80889">
        <ele>171</ele>
        <time>2017-04-29T08:31:13Z</time>
      </trkpt>
      <trkpt lat="45.88612" lon="4.80894">
        <ele>171</ele>
        <time>2017-04-29T08:31:14Z</time>
      </trkpt>
      <trkpt lat="45.88608" lon="4.80899">
        <ele>170</ele>
        <time>2017-04-29T08:31:15Z</time>
      </trkpt>
      <trkpt lat="45.88603" lon="4.80904">
        <ele>170</ele>
        <time>2017-04-29T08:31:16Z</time>
      </trkpt>
      <trkpt lat="45.88599" lon="4.80908">
        <ele>170</ele>
        <time>2017-04-29T08:31:17Z</time>
      </trkpt>
      <trkpt lat="45.88595" lon="4.80913">
        <ele>169</ele>
        <time>2017-04-29T08:31:18Z</time>
      </trkpt>
      <trkpt lat="45.8859" lon="4.80919">
        <ele>168</ele>
        <time>2017-04-29T08:31:19Z</time>
      </trkpt>
      <trkpt lat="45.88586" lon="4.80924">
        <ele>168</ele>
        <time>2017-04-29T08:31:20Z</time>
      </trkpt>
      <trkpt lat="45.88581" lon="4.80929">
        <ele>168</ele>
        <time>2017-04-29T08:31:21Z</time>
      </trkpt>
      <trkpt lat="45.88577" lon="4.80934">
        <ele>169</ele>
        <time>2017-04-29T08:31:22Z</time>
      </trkpt>
      <trkpt lat="45.88572" lon="4.80939">
        <ele>169</ele>
        <time>2017-04-29T08:31:23Z</time>
      </trkpt>
      <trkpt lat="45.88567" lon="4.80944">
        <ele>169</ele>
        <time>2017-04-29T08:31:24Z</time>
      </trkpt>
      <trkpt lat="45.88563" lon="4.8095">
        <ele>169</ele>
        <time>2017-04-29T08:31:25Z</time>
      </trkpt>
      <trkpt lat="45.88558" lon="4.80955">
        <ele>169</ele>
        <time>2017-04-29T08:31:26Z</time>
      </trkpt>
      <trkpt lat="45.88554" lon="4.80961">
        <ele>169</ele>
        <time>2017-04-29T08:31:27Z</time>
      </trkpt>
      <trkpt lat="45.88549" lon="4.80966">
        <ele>169</ele>
        <time>2017-04-29T08:31:28Z</time>
      </trkpt>
      <trkpt lat="45.88544" lon="4.80971">
        <ele>169</ele>
        <time>2017-04-29T08:31:29Z</time>
      </trkpt>
      <trkpt lat="45.8854" lon="4.80976">
        <ele>169</ele>
        <time>2017-04-29T08:31:30Z</time>
      </trkpt>
      <trkpt lat="45.88535" lon="4.80982">
        <ele>169</ele>
        <time>2017-04-29T08:31:31Z</time>
      </trkpt>
      <trkpt lat="45.88531" lon="4.80987">
        <ele>169</ele>
        <time>2017-04-29T08:31:32Z</time>
      </trkpt>
      <trkpt lat="45.88526" lon="4.80992">
        <ele>169</ele>
        <time>2017-04-29T08:31:33Z</time>
      </trkpt>
      <trkpt lat="45.88522" lon="4.80997">
        <ele>169</ele>
        <time>2017-04-29T08:31:34Z</time>
      </trkpt>
      <trkpt lat="45.88518" lon="4.81003">
        <ele>169</ele>
        <time>2017-04-29T08:31:35Z</time>
      </trkpt>
      <trkpt lat="45.88514" lon="4.81009">
        <ele>169</ele>
        <time>2017-04-29T08:31:36Z</time>
      </trkpt>
      <trkpt lat="45.8851" lon="4.81015">
        <ele>169</ele>
        <time>2017-04-29T08:31:37Z</time>
      </trkpt>
      <trkpt lat="45.88506" lon="4.8102">
        <ele>169</ele>
        <time>2017-04-29T08:31:38Z</time>
      </trkpt>
      <trkpt lat="45.88501" lon="4.81026">
        <ele>169</ele>
        <time>2017-04-29T08:31:39Z</time>
      </trkpt>
      <trkpt lat="45.88497" lon="4.81032">
        <ele>168</ele>
        <time>2017-04-29T08:31:40Z</time>
      </trkpt>
      <trkpt lat="45.88492" lon="4.81037">
        <ele>168</ele>
        <time>2017-04-29T08:31:41Z</time>
      </trkpt>
      <trkpt lat="45.88488" lon="4.81043">
        <ele>168</ele>
        <time>2017-04-29T08:31:42Z</time>
      </trkpt>
      <trkpt lat="45.88484" lon="4.81049">
        <ele>168</ele>
        <time>2017-04-29T08:31:43Z</time>
      </trkpt>
      <trkpt lat="45.8848" lon="4.81055">
        <ele>168</ele>
        <time>2017-04-29T08:31:44Z</time>
      </trkpt>
      <trkpt lat="45.88475" lon="4.81061">
        <ele>168</ele>
        <time>2017-04-29T08:31:45Z</time>
      </trkpt>
      <trkpt lat="45.88471" lon="4.81067">
        <ele>168</ele>
        <time>2017-04-29T08:31:46Z</time>
      </trkpt>
      <trkpt lat="45.88467" lon="4.81073">
        <ele>168</ele>
        <time>2017-04-29T08:31:47Z</time>
      </trkpt>
      <trkpt lat="45.88463" lon="4.81079">
        <ele>168</ele>
        <time>2017-04-29T08:31:48Z</time>
      </trkpt>
      <trkpt lat="45.88459" lon="4.81085">
        <ele>168</ele>
        <time>2017-04-29T08:31:49Z</time>
      </trkpt>
      <trkpt lat="45.88455" lon="4.81091">
        <ele>168</ele>
        <time>2017-04-29T08:31:50Z</time>
      </trkpt>
      <trkpt lat="45.88451" lon="4.81097">
        <ele>168</ele>
        <time>2017-04-29T08:31:51Z</time>
      </trkpt>
      <trkpt lat="45.88446" lon="4.81103">
        <ele>168</ele>
        <time>2017-04-29T08:31:52Z</time>
      </trkpt>
      <trkpt lat="45.88442" lon="4.81109">
        <ele>168</ele>
        <time>2017-04-29T08:31:53Z</time>
      </trkpt>
      <trkpt lat="45.88438" lon="4.81115">
        <ele>168</ele>
        <time>2017-04-29T08:31:54Z</time>
      </trkpt>
      <trkpt lat="45.88434" lon="4.81121">
        <ele>168</ele>
        <time>2017-04-29T08:31:55Z</time>
      </trkpt>
      <trkpt lat="45.8843" lon="4.81127">
        <ele>168</ele>
        <time>2017-04-29T08:31:56Z</time>
      </trkpt>
      <trkpt lat="45.88426" lon="4.81134">
        <ele>168</ele>
        <time>2017-04-29T08:31:57Z</time>
      </trkpt>
      <trkpt lat="45.88422" lon="4.8114">
        <ele>169</ele>
        <time>2017-04-29T08:31:58Z</time>
      </trkpt>
      <trkpt lat="45.88418" lon="4.81146">
        <ele>169</ele>
        <time>2017-04-29T08:31:59Z</time>
      </trkpt>
      <trkpt lat="45.88415" lon="4.81152">
        <ele>171</ele>
        <time>2017-04-29T08:32:00Z</time>
      </trkpt>
      <trkpt lat="45.88411" lon="4.81158">
        <ele>170</ele>
        <time>2017-04-29T08:32:01Z</time>
      </trkpt>
      <trkpt lat="45.88408" lon="4.81165">
        <ele>170</ele>
        <time>2017-04-29T08:32:02Z</time>
      </trkpt>
      <trkpt lat="45.88404" lon="4.81171">
        <ele>170</ele>
        <time>2017-04-29T08:32:03Z</time>
      </trkpt>
      <trkpt lat="45.884" lon="4.81177">
        <ele>170</ele>
        <time>2017-04-29T08:32:04Z</time>
      </trkpt>
      <trkpt lat="45.88396" lon="4.81183">
        <ele>170</ele>
        <time>2017-04-29T08:32:05Z</time>
      </trkpt>
      <trkpt lat="45.88393" lon="4.8119">
        <ele>170</ele>
        <time>2017-04-29T08:32:06Z</time>
      </trkpt>
      <trkpt lat="45.88389" lon="4.81197">
        <ele>170</ele>
        <time>2017-04-29T08:32:07Z</time>
      </trkpt>
      <trkpt lat="45.88385" lon="4.81203">
        <ele>170</ele>
        <time>2017-04-29T08:32:08Z</time>
      </trkpt>
      <trkpt lat="45.88381" lon="4.8121">
        <ele>170</ele>
        <time>2017-04-29T08:32:09Z</time>
      </trkpt>
      <trkpt lat="45.88376" lon="4.81217">
        <ele>170</ele>
        <time>2017-04-29T08:32:10Z</time>
      </trkpt>
      <trkpt lat="45.88372" lon="4.81223">
        <ele>170</ele>
        <time>2017-04-29T08:32:11Z</time>
      </trkpt>
      <trkpt lat="45.88369" lon="4.8123">
        <ele>170</ele>
        <time>2017-04-29T08:32:12Z</time>
      </trkpt>
      <trkpt lat="45.88365" lon="4.81237">
        <ele>170</ele>
        <time>2017-04-29T08:32:13Z</time>
      </trkpt>
      <trkpt lat="45.88361" lon="4.81244">
        <ele>170</ele>
        <time>2017-04-29T08:32:14Z</time>
      </trkpt>
      <trkpt lat="45.88357" lon="4.81251">
        <ele>170</ele>
        <time>2017-04-29T08:32:15Z</time>
      </trkpt>
      <trkpt lat="45.88353" lon="4.81258">
        <ele>170</ele>
        <time>2017-04-29T08:32:16Z</time>
      </trkpt>
      <trkpt lat="45.88349" lon="4.81265">
        <ele>170</ele>
        <time>2017-04-29T08:32:17Z</time>
      </trkpt>
      <trkpt lat="45.88345" lon="4.81272">
        <ele>170</ele>
        <time>2017-04-29T08:32:18Z</time>
      </trkpt>
      <trkpt lat="45.88341" lon="4.8128">
        <ele>170</ele>
        <time>2017-04-29T08:32:19Z</time>
      </trkpt>
      <trkpt lat="45.88338" lon="4.81287">
        <ele>170</ele>
        <time>2017-04-29T08:32:20Z</time>
      </trkpt>
      <trkpt lat="45.88334" lon="4.81294">
        <ele>170</ele>
        <time>2017-04-29T08:32:21Z</time>
      </trkpt>
      <trkpt lat="45.88331" lon="4.81301">
        <ele>172</ele>
        <time>2017-04-29T08:32:22Z</time>
      </trkpt>
      <trkpt lat="45.88328" lon="4.81308">
        <ele>172</ele>
        <time>2017-04-29T08:32:23Z</time>
      </trkpt>
      <trkpt lat="45.88324" lon="4.81315">
        <ele>172</ele>
        <time>2017-04-29T08:32:24Z</time>
      </trkpt>
      <trkpt lat="45.88321" lon="4.81322">
        <ele>172</ele>
        <time>2017-04-29T08:32:25Z</time>
      </trkpt>
      <trkpt lat="45.88318" lon="4.81328">
        <ele>172</ele>
        <time>2017-04-29T08:32:26Z</time>
      </trkpt>
      <trkpt lat="45.88315" lon="4.81334">
        <ele>171</ele>
        <time>2017-04-29T08:32:27Z</time>
      </trkpt>
      <trkpt lat="45.88311" lon="4.81341">
        <ele>170</ele>
        <time>2017-04-29T08:32:28Z</time>
      </trkpt>
      <trkpt lat="45.88308" lon="4.81348">
        <ele>170</ele>
        <time>2017-04-29T08:32:29Z</time>
      </trkpt>
      <trkpt lat="45.88305" lon="4.81355">
        <ele>169</ele>
        <time>2017-04-29T08:32:30Z</time>
      </trkpt>
      <trkpt lat="45.88302" lon="4.81362">
        <ele>169</ele>
        <time>2017-04-29T08:32:31Z</time>
      </trkpt>
      <trkpt lat="45.88298" lon="4.81369">
        <ele>169</ele>
        <time>2017-04-29T08:32:32Z</time>
      </trkpt>
      <trkpt lat="45.88295" lon="4.81377">
        <ele>168</ele>
        <time>2017-04-29T08:32:33Z</time>
      </trkpt>
      <trkpt lat="45.88291" lon="4.81385">
        <ele>168</ele>
        <time>2017-04-29T08:32:34Z</time>
      </trkpt>
      <trkpt lat="45.88287" lon="4.81392">
        <ele>168</ele>
        <time>2017-04-29T08:32:35Z</time>
      </trkpt>
      <trkpt lat="45.88284" lon="4.81401">
        <ele>167</ele>
        <time>2017-04-29T08:32:36Z</time>
      </trkpt>
      <trkpt lat="45.8828" lon="4.81409">
        <ele>167</ele>
        <time>2017-04-29T08:32:37Z</time>
      </trkpt>
      <trkpt lat="45.88277" lon="4.81418">
        <ele>166</ele>
        <time>2017-04-29T08:32:38Z</time>
      </trkpt>
      <trkpt lat="45.88273" lon="4.81426">
        <ele>166</ele>
        <time>2017-04-29T08:32:39Z</time>
      </trkpt>
      <trkpt lat="45.88269" lon="4.81434">
        <ele>166</ele>
        <time>2017-04-29T08:32:40Z</time>
      </trkpt>
      <trkpt lat="45.88265" lon="4.81443">
        <ele>166</ele>
        <time>2017-04-29T08:32:41Z</time>
      </trkpt>
      <trkpt lat="45.88262" lon="4.81451">
        <ele>166</ele>
        <time>2017-04-29T08:32:42Z</time>
      </trkpt>
      <trkpt lat="45.88258" lon="4.81459">
        <ele>166</ele>
        <time>2017-04-29T08:32:43Z</time>
      </trkpt>
      <trkpt lat="45.88255" lon="4.81467">
        <ele>166</ele>
        <time>2017-04-29T08:32:44Z</time>
      </trkpt>
      <trkpt lat="45.88251" lon="4.81475">
        <ele>167</ele>
        <time>2017-04-29T08:32:45Z</time>
      </trkpt>
      <trkpt lat="45.88248" lon="4.81483">
        <ele>169</ele>
        <time>2017-04-29T08:32:46Z</time>
      </trkpt>
      <trkpt lat="45.88244" lon="4.81491">
        <ele>169</ele>
        <time>2017-04-29T08:32:47Z</time>
      </trkpt>
      <trkpt lat="45.88241" lon="4.81499">
        <ele>169</ele>
        <time>2017-04-29T08:32:48Z</time>
      </trkpt>
      <trkpt lat="45.88237" lon="4.81507">
        <ele>169</ele>
        <time>2017-04-29T08:32:49Z</time>
      </trkpt>
      <trkpt lat="45.88234" lon="4.81515">
        <ele>170</ele>
        <time>2017-04-29T08:32:50Z</time>
      </trkpt>
      <trkpt lat="45.88231" lon="4.81523">
        <ele>170</ele>
        <time>2017-04-29T08:32:51Z</time>
      </trkpt>
      <trkpt lat="45.88227" lon="4.8153">
        <ele>170</ele>
        <time>2017-04-29T08:32:52Z</time>
      </trkpt>
      <trkpt lat="45.88223" lon="4.81537">
        <ele>170</ele>
        <time>2017-04-29T08:32:53Z</time>
      </trkpt>
      <trkpt lat="45.88221" lon="4.81545">
        <ele>170</ele>
        <time>2017-04-29T08:32:54Z</time>
      </trkpt>
      <trkpt lat="45.88218" lon="4.81553">
        <ele>170</ele>
        <time>2017-04-29T08:32:55Z</time>
      </trkpt>
      <trkpt lat="45.88214" lon="4.8156">
        <ele>170</ele>
        <time>2017-04-29T08:32:56Z</time>
      </trkpt>
      <trkpt lat="45.88211" lon="4.81567">
        <ele>171</ele>
        <time>2017-04-29T08:32:57Z</time>
      </trkpt>
      <trkpt lat="45.88208" lon="4.81574">
        <ele>171</ele>
        <time>2017-04-29T08:32:58Z</time>
      </trkpt>
      <trkpt lat="45.88206" lon="4.8158">
        <ele>171</ele>
        <time>2017-04-29T08:32:59Z</time>
      </trkpt>
      <trkpt lat="45.88204" lon="4.81587">
        <ele>170</ele>
        <time>2017-04-29T08:33:00Z</time>
      </trkpt>
      <trkpt lat="45.88201" lon="4.81594">
        <ele>171</ele>
        <time>2017-04-29T08:33:01Z</time>
      </trkpt>
      <trkpt lat="45.88199" lon="4.81601">
        <ele>171</ele>
        <time>2017-04-29T08:33:02Z</time>
      </trkpt>
      <trkpt lat="45.88196" lon="4.81609">
        <ele>171</ele>
        <time>2017-04-29T08:33:03Z</time>
      </trkpt>
      <trkpt lat="45.88193" lon="4.81616">
        <ele>171</ele>
        <time>2017-04-29T08:33:04Z</time>
      </trkpt>
      <trkpt lat="45.8819" lon="4.81624">
        <ele>171</ele>
        <time>2017-04-29T08:33:05Z</time>
      </trkpt>
      <trkpt lat="45.88187" lon="4.81632">
        <ele>171</ele>
        <time>2017-04-29T08:33:06Z</time>
      </trkpt>
      <trkpt lat="45.88184" lon="4.81639">
        <ele>171</ele>
        <time>2017-04-29T08:33:07Z</time>
      </trkpt>
      <trkpt lat="45.88181" lon="4.81646">
        <ele>171</ele>
        <time>2017-04-29T08:33:08Z</time>
      </trkpt>
      <trkpt lat="45.88178" lon="4.81653">
        <ele>171</ele>
        <time>2017-04-29T08:33:09Z</time>
      </trkpt>
      <trkpt lat="45.88176" lon="4.8166">
        <ele>172</ele>
        <time>2017-04-29T08:33:10Z</time>
      </trkpt>
      <trkpt lat="45.88173" lon="4.81667">
        <ele>172</ele>
        <time>2017-04-29T08:33:11Z</time>
      </trkpt>
      <trkpt lat="45.88171" lon="4.81675">
        <ele>171</ele>
        <time>2017-04-29T08:33:12Z</time>
      </trkpt>
      <trkpt lat="45.88169" lon="4.81683">
        <ele>170</ele>
        <time>2017-04-29T08:33:13Z</time>
      </trkpt>
      <trkpt lat="45.88166" lon="4.81689">
        <ele>171</ele>
        <time>2017-04-29T08:33:14Z</time>
      </trkpt>
      <trkpt lat="45.88164" lon="4.81696">
        <ele>171</ele>
        <time>2017-04-29T08:33:15Z</time>
      </trkpt>
      <trkpt lat="45.88162" lon="4.81703">
        <ele>171</ele>
        <time>2017-04-29T08:33:16Z</time>
      </trkpt>
      <trkpt lat="45.8816" lon="4.81709">
        <ele>170</ele>
        <time>2017-04-29T08:33:17Z</time>
      </trkpt>
      <trkpt lat="45.88157" lon="4.81717">
        <ele>170</ele>
        <time>2017-04-29T08:33:18Z</time>
      </trkpt>
      <trkpt lat="45.88154" lon="4.81724">
        <ele>169</ele>
        <time>2017-04-29T08:33:19Z</time>
      </trkpt>
      <trkpt lat="45.88152" lon="4.81731">
        <ele>169</ele>
        <time>2017-04-29T08:33:20Z</time>
      </trkpt>
      <trkpt lat="45.88149" lon="4.81738">
        <ele>169</ele>
        <time>2017-04-29T08:33:21Z</time>
      </trkpt>
      <trkpt lat="45.88146" lon="4.81745">
        <ele>168</ele>
        <time>2017-04-29T08:33:22Z</time>
      </trkpt>
      <trkpt lat="45.88143" lon="4.81753">
        <ele>166</ele>
        <time>2017-04-29T08:33:23Z</time>
      </trkpt>
      <trkpt lat="45.8814" lon="4.81761">
        <ele>167</ele>
        <time>2017-04-29T08:33:24Z</time>
      </trkpt>
      <trkpt lat="45.88137" lon="4.81769">
        <ele>167</ele>
        <time>2017-04-29T08:33:25Z</time>
      </trkpt>
      <trkpt lat="45.88134" lon="4.81777">
        <ele>167</ele>
        <time>2017-04-29T08:33:26Z</time>
      </trkpt>
      <trkpt lat="45.88131" lon="4.81784">
        <ele>167</ele>
        <time>2017-04-29T08:33:27Z</time>
      </trkpt>
      <trkpt lat="45.88128" lon="4.81792">
        <ele>167</ele>
        <time>2017-04-29T08:33:28Z</time>
      </trkpt>
      <trkpt lat="45.88125" lon="4.818">
        <ele>167</ele>
        <time>2017-04-29T08:33:29Z</time>
      </trkpt>
      <trkpt lat="45.88122" lon="4.81808">
        <ele>167</ele>
        <time>2017-04-29T08:33:30Z</time>
      </trkpt>
      <trkpt lat="45.88119" lon="4.81816">
        <ele>167</ele>
        <time>2017-04-29T08:33:31Z</time>
      </trkpt>
      <trkpt lat="45.88116" lon="4.81824">
        <ele>167</ele>
        <time>2017-04-29T08:33:32Z</time>
      </trkpt>
      <trkpt lat="45.8811" lon="4.81831">
        <ele>167</ele>
        <time>2017-04-29T08:33:33Z</time>
      </trkpt>
      <trkpt lat="45.88106" lon="4.8184">
        <ele>166</ele>
        <time>2017-04-29T08:33:34Z</time>
      </trkpt>
      <trkpt lat="45.88103" lon="4.81848">
        <ele>166</ele>
        <time>2017-04-29T08:33:35Z</time>
      </trkpt>
      <trkpt lat="45.881" lon="4.81856">
        <ele>166</ele>
        <time>2017-04-29T08:33:36Z</time>
      </trkpt>
      <trkpt lat="45.88097" lon="4.81864">
        <ele>166</ele>
        <time>2017-04-29T08:33:37Z</time>
      </trkpt>
      <trkpt lat="45.88094" lon="4.81872">
        <ele>166</ele>
        <time>2017-04-29T08:33:38Z</time>
      </trkpt>
      <trkpt lat="45.88092" lon="4.8188">
        <ele>166</ele>
        <time>2017-04-29T08:33:39Z</time>
      </trkpt>
      <trkpt lat="45.88089" lon="4.81887">
        <ele>165</ele>
        <time>2017-04-29T08:33:40Z</time>
      </trkpt>
      <trkpt lat="45.88086" lon="4.81895">
        <ele>165</ele>
        <time>2017-04-29T08:33:41Z</time>
      </trkpt>
      <trkpt lat="45.88083" lon="4.81902">
        <ele>167</ele>
        <time>2017-04-29T08:33:42Z</time>
      </trkpt>
      <trkpt lat="45.8808" lon="4.81911">
        <ele>166</ele>
        <time>2017-04-29T08:33:43Z</time>
      </trkpt>
      <trkpt lat="45.88075" lon="4.81918">
        <ele>166</ele>
        <time>2017-04-29T08:33:44Z</time>
      </trkpt>
      <trkpt lat="45.88071" lon="4.81926">
        <ele>167</ele>
        <time>2017-04-29T08:33:45Z</time>
      </trkpt>
      <trkpt lat="45.88067" lon="4.81934">
        <ele>167</ele>
        <time>2017-04-29T08:33:46Z</time>
      </trkpt>
      <trkpt lat="45.88064" lon="4.81942">
        <ele>168</ele>
        <time>2017-04-29T08:33:47Z</time>
      </trkpt>
      <trkpt lat="45.88061" lon="4.8195">
        <ele>168</ele>
        <time>2017-04-29T08:33:48Z</time>
      </trkpt>
      <trkpt lat="45.88058" lon="4.81958">
        <ele>168</ele>
        <time>2017-04-29T08:33:49Z</time>
      </trkpt>
      <trkpt lat="45.88054" lon="4.81967">
        <ele>168</ele>
        <time>2017-04-29T08:33:50Z</time>
      </trkpt>
      <trkpt lat="45.88051" lon="4.81975">
        <ele>168</ele>
        <time>2017-04-29T08:33:51Z</time>
      </trkpt>
      <trkpt lat="45.88048" lon="4.81983">
        <ele>168</ele>
        <time>2017-04-29T08:33:52Z</time>
      </trkpt>
      <trkpt lat="45.88044" lon="4.81991">
        <ele>169</ele>
        <time>2017-04-29T08:33:53Z</time>
      </trkpt>
      <trkpt lat="45.88042" lon="4.81999">
        <ele>169</ele>
        <time>2017-04-29T08:33:54Z</time>
      </trkpt>
      <trkpt lat="45.88039" lon="4.82007">
        <ele>169</ele>
        <time>2017-04-29T08:33:55Z</time>
      </trkpt>
      <trkpt lat="45.88036" lon="4.82015">
        <ele>169</ele>
        <time>2017-04-29T08:33:56Z</time>
      </trkpt>
      <trkpt lat="45.88033" lon="4.82022">
        <ele>169</ele>
        <time>2017-04-29T08:33:57Z</time>
      </trkpt>
      <trkpt lat="45.8803" lon="4.82029">
        <ele>169</ele>
        <time>2017-04-29T08:33:58Z</time>
      </trkpt>
      <trkpt lat="45.88027" lon="4.82036">
        <ele>169</ele>
        <time>2017-04-29T08:33:59Z</time>
      </trkpt>
      <trkpt lat="45.88023" lon="4.82042">
        <ele>169</ele>
        <time>2017-04-29T08:34:00Z</time>
      </trkpt>
      <trkpt lat="45.8802" lon="4.82048">
        <ele>169</ele>
        <time>2017-04-29T08:34:01Z</time>
      </trkpt>
      <trkpt lat="45.88016" lon="4.82054">
        <ele>169</ele>
        <time>2017-04-29T08:34:02Z</time>
      </trkpt>
      <trkpt lat="45.88012" lon="4.82058">
        <ele>169</ele>
        <time>2017-04-29T08:34:03Z</time>
      </trkpt>
      <trkpt lat="45.88007" lon="4.82063">
        <ele>169</ele>
        <time>2017-04-29T08:34:04Z</time>
      </trkpt>
      <trkpt lat="45.88002" lon="4.82066">
        <ele>169</ele>
        <time>2017-04-29T08:34:05Z</time>
      </trkpt>
      <trkpt lat="45.87997" lon="4.82069">
        <ele>172</ele>
        <time>2017-04-29T08:34:06Z</time>
      </trkpt>
      <trkpt lat="45.87992" lon="4.82072">
        <ele>172</ele>
        <time>2017-04-29T08:34:07Z</time>
      </trkpt>
      <trkpt lat="45.87988" lon="4.82076">
        <ele>172</ele>
        <time>2017-04-29T08:34:08Z</time>
      </trkpt>
      <trkpt lat="45.87984" lon="4.82082">
        <ele>172</ele>
        <time>2017-04-29T08:34:09Z</time>
      </trkpt>
      <trkpt lat="45.8798" lon="4.8209">
        <ele>171</ele>
        <time>2017-04-29T08:34:10Z</time>
      </trkpt>
      <trkpt lat="45.87977" lon="4.82099">
        <ele>171</ele>
        <time>2017-04-29T08:34:11Z</time>
      </trkpt>
      <trkpt lat="45.87974" lon="4.82107">
        <ele>171</ele>
        <time>2017-04-29T08:34:12Z</time>
      </trkpt>
      <trkpt lat="45.87971" lon="4.82116">
        <ele>171</ele>
        <time>2017-04-29T08:34:13Z</time>
      </trkpt>
      <trkpt lat="45.8797" lon="4.82125">
        <ele>171</ele>
        <time>2017-04-29T08:34:14Z</time>
      </trkpt>
      <trkpt lat="45.87968" lon="4.82133">
        <ele>171</ele>
        <time>2017-04-29T08:34:15Z</time>
      </trkpt>
      <trkpt lat="45.87966" lon="4.82142">
        <ele>171</ele>
        <time>2017-04-29T08:34:16Z</time>
      </trkpt>
      <trkpt lat="45.87965" lon="4.82151">
        <ele>171</ele>
        <time>2017-04-29T08:34:17Z</time>
      </trkpt>
      <trkpt lat="45.87963" lon="4.82159">
        <ele>171</ele>
        <time>2017-04-29T08:34:18Z</time>
      </trkpt>
      <trkpt lat="45.87962" lon="4.82166">
        <ele>171</ele>
        <time>2017-04-29T08:34:19Z</time>
      </trkpt>
      <trkpt lat="45.87962" lon="4.82174">
        <ele>170</ele>
        <time>2017-04-29T08:34:20Z</time>
      </trkpt>
      <trkpt lat="45.87961" lon="4.82182">
        <ele>170</ele>
        <time>2017-04-29T08:34:21Z</time>
      </trkpt>
      <trkpt lat="45.8796" lon="4.8219">
        <ele>170</ele>
        <time>2017-04-29T08:34:22Z</time>
      </trkpt>
      <trkpt lat="45.87959" lon="4.82198">
        <ele>170</ele>
        <time>2017-04-29T08:34:23Z</time>
      </trkpt>
      <trkpt lat="45.87958" lon="4.82206">
        <ele>170</ele>
        <time>2017-04-29T08:34:24Z</time>
      </trkpt>
      <trkpt lat="45.87957" lon="4.82214">
        <ele>170</ele>
        <time>2017-04-29T08:34:25Z</time>
      </trkpt>
      <trkpt lat="45.87957" lon="4.82223">
        <ele>170</ele>
        <time>2017-04-29T08:34:26Z</time>
      </trkpt>
      <trkpt lat="45.87956" lon="4.82231">
        <ele>170</ele>
        <time>2017-04-29T08:34:27Z</time>
      </trkpt>
      <trkpt lat="45.87955" lon="4.82239">
        <ele>170</ele>
        <time>2017-04-29T08:34:28Z</time>
      </trkpt>
      <trkpt lat="45.87954" lon="4.82246">
        <ele>170</ele>
        <time>2017-04-29T08:34:29Z</time>
      </trkpt>
      <trkpt lat="45.87953" lon="4.82254">
        <ele>169</ele>
        <time>2017-04-29T08:34:30Z</time>
      </trkpt>
      <trkpt lat="45.87952" lon="4.82262">
        <ele>169</ele>
        <time>2017-04-29T08:34:31Z</time>
      </trkpt>
      <trkpt lat="45.87951" lon="4.82269">
        <ele>169</ele>
        <time>2017-04-29T08:34:32Z</time>
      </trkpt>
      <trkpt lat="45.8795" lon="4.82276">
        <ele>168</ele>
        <time>2017-04-29T08:34:33Z</time>
      </trkpt>
      <trkpt lat="45.87949" lon="4.82284">
        <ele>168</ele>
        <time>2017-04-29T08:34:34Z</time>
      </trkpt>
      <trkpt lat="45.87948" lon="4.82292">
        <ele>168</ele>
        <time>2017-04-29T08:34:35Z</time>
      </trkpt>
      <trkpt lat="45.87947" lon="4.82301">
        <ele>168</ele>
        <time>2017-04-29T08:34:36Z</time>
      </trkpt>
      <trkpt lat="45.87946" lon="4.82309">
        <ele>168</ele>
        <time>2017-04-29T08:34:37Z</time>
      </trkpt>
      <trkpt lat="45.87945" lon="4.82318">
        <ele>168</ele>
        <time>2017-04-29T08:34:38Z</time>
      </trkpt>
      <trkpt lat="45.87943" lon="4.82328">
        <ele>168</ele>
        <time>2017-04-29T08:34:39Z</time>
      </trkpt>
      <trkpt lat="45.87942" lon="4.82337">
        <ele>168</ele>
        <time>2017-04-29T08:34:40Z</time>
      </trkpt>
      <trkpt lat="45.87941" lon="4.82347">
        <ele>168</ele>
        <time>2017-04-29T08:34:41Z</time>
      </trkpt>
      <trkpt lat="45.8794" lon="4.82356">
        <ele>168</ele>
        <time>2017-04-29T08:34:42Z</time>
      </trkpt>
      <trkpt lat="45.87939" lon="4.82365">
        <ele>167</ele>
        <time>2017-04-29T08:34:43Z</time>
      </trkpt>
      <trkpt lat="45.87938" lon="4.82374">
        <ele>167</ele>
        <time>2017-04-29T08:34:44Z</time>
      </trkpt>
      <trkpt lat="45.87938" lon="4.82383">
        <ele>167</ele>
        <time>2017-04-29T08:34:45Z</time>
      </trkpt>
      <trkpt lat="45.87937" lon="4.82392">
        <ele>167</ele>
        <time>2017-04-29T08:34:46Z</time>
      </trkpt>
      <trkpt lat="45.87936" lon="4.824">
        <ele>167</ele>
        <time>2017-04-29T08:34:47Z</time>
      </trkpt>
      <trkpt lat="45.87935" lon="4.82409">
        <ele>167</ele>
        <time>2017-04-29T08:34:48Z</time>
      </trkpt>
      <trkpt lat="45.87933" lon="4.82416">
        <ele>167</ele>
        <time>2017-04-29T08:34:49Z</time>
      </trkpt>
      <trkpt lat="45.87932" lon="4.82424">
        <ele>167</ele>
        <time>2017-04-29T08:34:50Z</time>
      </trkpt>
      <trkpt lat="45.87931" lon="4.82432">
        <ele>167</ele>
        <time>2017-04-29T08:34:51Z</time>
      </trkpt>
      <trkpt lat="45.8793" lon="4.8244">
        <ele>167</ele>
        <time>2017-04-29T08:34:52Z</time>
      </trkpt>
      <trkpt lat="45.87928" lon="4.82448">
        <ele>167</ele>
        <time>2017-04-29T08:34:53Z</time>
      </trkpt>
      <trkpt lat="45.87927" lon="4.82456">
        <ele>167</ele>
        <time>2017-04-29T08:34:54Z</time>
      </trkpt>
      <trkpt lat="45.87925" lon="4.82465">
        <ele>167</ele>
        <time>2017-04-29T08:34:55Z</time>
      </trkpt>
      <trkpt lat="45.87924" lon="4.82473">
        <ele>167</ele>
        <time>2017-04-29T08:34:56Z</time>
      </trkpt>
      <trkpt lat="45.87922" lon="4.82481">
        <ele>167</ele>
        <time>2017-04-29T08:34:57Z</time>
      </trkpt>
      <trkpt lat="45.8792" lon="4.8249">
        <ele>167</ele>
        <time>2017-04-29T08:34:58Z</time>
      </trkpt>
      <trkpt lat="45.87919" lon="4.82499">
        <ele>168</ele>
        <time>2017-04-29T08:34:59Z</time>
      </trkpt>
      <trkpt lat="45.87917" lon="4.82507">
        <ele>167</ele>
        <time>2017-04-29T08:35:00Z</time>
      </trkpt>
      <trkpt lat="45.87915" lon="4.82516">
        <ele>168</ele>
        <time>2017-04-29T08:35:01Z</time>
      </trkpt>
      <trkpt lat="45.87913" lon="4.82524">
        <ele>168</ele>
        <time>2017-04-29T08:35:02Z</time>
      </trkpt>
      <trkpt lat="45.87911" lon="4.82532">
        <ele>168</ele>
        <time>2017-04-29T08:35:03Z</time>
      </trkpt>
      <trkpt lat="45.87909" lon="4.8254">
        <ele>168</ele>
        <time>2017-04-29T08:35:04Z</time>
      </trkpt>
      <trkpt lat="45.87907" lon="4.82548">
        <ele>168</ele>
        <time>2017-04-29T08:35:05Z</time>
      </trkpt>
      <trkpt lat="45.87906" lon="4.82556">
        <ele>168</ele>
        <time>2017-04-29T08:35:06Z</time>
      </trkpt>
      <trkpt lat="45.87904" lon="4.82563">
        <ele>167</ele>
        <time>2017-04-29T08:35:07Z</time>
      </trkpt>
      <trkpt lat="45.87902" lon="4.82571">
        <ele>167</ele>
        <time>2017-04-29T08:35:08Z</time>
      </trkpt>
      <trkpt lat="45.879" lon="4.82579">
        <ele>167</ele>
        <time>2017-04-29T08:35:09Z</time>
      </trkpt>
      <trkpt lat="45.87898" lon="4.82588">
        <ele>167</ele>
        <time>2017-04-29T08:35:10Z</time>
      </trkpt>
      <trkpt lat="45.87896" lon="4.82596">
        <ele>167</ele>
        <time>2017-04-29T08:35:11Z</time>
      </trkpt>
      <trkpt lat="45.87893" lon="4.82605">
        <ele>167</ele>
        <time>2017-04-29T08:35:12Z</time>
      </trkpt>
      <trkpt lat="45.87891" lon="4.82615">
        <ele>167</ele>
        <time>2017-04-29T08:35:13Z</time>
      </trkpt>
      <trkpt lat="45.87889" lon="4.82624">
        <ele>168</ele>
        <time>2017-04-29T08:35:14Z</time>
      </trkpt>
      <trkpt lat="45.87887" lon="4.82634">
        <ele>168</ele>
        <time>2017-04-29T08:35:15Z</time>
      </trkpt>
      <trkpt lat="45.87885" lon="4.82643">
        <ele>168</ele>
        <time>2017-04-29T08:35:16Z</time>
      </trkpt>
      <trkpt lat="45.87883" lon="4.82652">
        <ele>168</ele>
        <time>2017-04-29T08:35:17Z</time>
      </trkpt>
      <trkpt lat="45.87882" lon="4.82662">
        <ele>168</ele>
        <time>2017-04-29T08:35:18Z</time>
      </trkpt>
      <trkpt lat="45.8788" lon="4.82671">
        <ele>168</ele>
        <time>2017-04-29T08:35:19Z</time>
      </trkpt>
      <trkpt lat="45.87879" lon="4.8268">
        <ele>169</ele>
        <time>2017-04-29T08:35:20Z</time>
      </trkpt>
      <trkpt lat="45.87878" lon="4.82688">
        <ele>169</ele>
        <time>2017-04-29T08:35:21Z</time>
      </trkpt>
      <trkpt lat="45.87877" lon="4.82696">
        <ele>169</ele>
        <time>2017-04-29T08:35:22Z</time>
      </trkpt>
      <trkpt lat="45.87877" lon="4.82705">
        <ele>169</ele>
        <time>2017-04-29T08:35:23Z</time>
      </trkpt>
      <trkpt lat="45.87876" lon="4.82713">
        <ele>169</ele>
        <time>2017-04-29T08:35:24Z</time>
      </trkpt>
      <trkpt lat="45.87876" lon="4.82722">
        <ele>169</ele>
        <time>2017-04-29T08:35:25Z</time>
      </trkpt>
      <trkpt lat="45.87876" lon="4.8273">
        <ele>169</ele>
        <time>2017-04-29T08:35:26Z</time>
      </trkpt>
      <trkpt lat="45.87876" lon="4.82738">
        <ele>169</ele>
        <time>2017-04-29T08:35:27Z</time>
      </trkpt>
      <trkpt lat="45.87876" lon="4.82747">
        <ele>169</ele>
        <time>2017-04-29T08:35:28Z</time>
      </trkpt>
      <trkpt lat="45.87877" lon="4.82755">
        <ele>169</ele>
        <time>2017-04-29T08:35:29Z</time>
      </trkpt>
      <trkpt lat="45.87877" lon="4.82763">
        <ele>169</ele>
        <time>2017-04-29T08:35:30Z</time>
      </trkpt>
      <trkpt lat="45.87878" lon="4.82771">
        <ele>169</ele>
        <time>2017-04-29T08:35:31Z</time>
      </trkpt>
      <trkpt lat="45.87879" lon="4.82779">
        <ele>169</ele>
        <time>2017-04-29T08:35:32Z</time>
      </trkpt>
      <trkpt lat="45.8788" lon="4.82787">
        <ele>169</ele>
        <time>2017-04-29T08:35:33Z</time>
      </trkpt>
      <trkpt lat="45.8788" lon="4.82794">
        <ele>169</ele>
        <time>2017-04-29T08:35:34Z</time>
      </trkpt>
      <trkpt lat="45.87881" lon="4.82802">
        <ele>169</ele>
        <time>2017-04-29T08:35:35Z</time>
      </trkpt>
      <trkpt lat="45.87882" lon="4.8281">
        <ele>169</ele>
        <time>2017-04-29T08:35:36Z</time>
      </trkpt>
      <trkpt lat="45.87882" lon="4.82817">
        <ele>169</ele>
        <time>2017-04-29T08:35:37Z</time>
      </trkpt>
      <trkpt lat="45.87883" lon="4.82825">
        <ele>169</ele>
        <time>2017-04-29T08:35:38Z</time>
      </trkpt>
      <trkpt lat="45.87884" lon="4.82833">
        <ele>169</ele>
        <time>2017-04-29T08:35:39Z</time>
      </trkpt>
      <trkpt lat="45.87884" lon="4.82841">
        <ele>169</ele>
        <time>2017-04-29T08:35:40Z</time>
      </trkpt>
      <trkpt lat="45.87885" lon="4.82849">
        <ele>169</ele>
        <time>2017-04-29T08:35:41Z</time>
      </trkpt>
      <trkpt lat="45.87886" lon="4.82857">
        <ele>169</ele>
        <time>2017-04-29T08:35:42Z</time>
      </trkpt>
      <trkpt lat="45.87886" lon="4.82865">
        <ele>169</ele>
        <time>2017-04-29T08:35:43Z</time>
      </trkpt>
      <trkpt lat="45.87886" lon="4.82873">
        <ele>169</ele>
        <time>2017-04-29T08:35:44Z</time>
      </trkpt>
      <trkpt lat="45.87887" lon="4.82881">
        <ele>169</ele>
        <time>2017-04-29T08:35:45Z</time>
      </trkpt>
      <trkpt lat="45.87887" lon="4.82889">
        <ele>169</ele>
        <time>2017-04-29T08:35:46Z</time>
      </trkpt>
      <trkpt lat="45.87888" lon="4.82897">
        <ele>168</ele>
        <time>2017-04-29T08:35:47Z</time>
      </trkpt>
      <trkpt lat="45.87888" lon="4.82905">
        <ele>168</ele>
        <time>2017-04-29T08:35:48Z</time>
      </trkpt>
      <trkpt lat="45.87888" lon="4.82914">
        <ele>168</ele>
        <time>2017-04-29T08:35:49Z</time>
      </trkpt>
      <trkpt lat="45.87888" lon="4.82923">
        <ele>168</ele>
        <time>2017-04-29T08:35:50Z</time>
      </trkpt>
      <trkpt lat="45.87888" lon="4.82931">
        <ele>168</ele>
        <time>2017-04-29T08:35:51Z</time>
      </trkpt>
      <trkpt lat="45.87888" lon="4.8294">
        <ele>168</ele>
        <time>2017-04-29T08:35:52Z</time>
      </trkpt>
      <trkpt lat="45.87888" lon="4.8295">
        <ele>168</ele>
        <time>2017-04-29T08:35:53Z</time>
      </trkpt>
      <trkpt lat="45.87888" lon="4.82959">
        <ele>168</ele>
        <time>2017-04-29T08:35:54Z</time>
      </trkpt>
      <trkpt lat="45.87887" lon="4.82969">
        <ele>168</ele>
        <time>2017-04-29T08:35:55Z</time>
      </trkpt>
      <trkpt lat="45.87886" lon="4.82979">
        <ele>168</ele>
        <time>2017-04-29T08:35:56Z</time>
      </trkpt>
      <trkpt lat="45.87885" lon="4.82988">
        <ele>168</ele>
        <time>2017-04-29T08:35:57Z</time>
      </trkpt>
      <trkpt lat="45.87884" lon="4.82997">
        <ele>168</ele>
        <time>2017-04-29T08:35:58Z</time>
      </trkpt>
      <trkpt lat="45.87883" lon="4.83007">
        <ele>168</ele>
        <time>2017-04-29T08:35:59Z</time>
      </trkpt>
      <trkpt lat="45.87882" lon="4.83015">
        <ele>168</ele>
        <time>2017-04-29T08:36:00Z</time>
      </trkpt>
      <trkpt lat="45.87881" lon="4.83024">
        <ele>169</ele>
        <time>2017-04-29T08:36:01Z</time>
      </trkpt>
      <trkpt lat="45.87879" lon="4.83033">
        <ele>169</ele>
        <time>2017-04-29T08:36:02Z</time>
      </trkpt>
      <trkpt lat="45.87878" lon="4.83041">
        <ele>169</ele>
        <time>2017-04-29T08:36:03Z</time>
      </trkpt>
      <trkpt lat="45.87877" lon="4.8305">
        <ele>169</ele>
        <time>2017-04-29T08:36:04Z</time>
      </trkpt>
      <trkpt lat="45.87876" lon="4.83058">
        <ele>169</ele>
        <time>2017-04-29T08:36:05Z</time>
      </trkpt>
      <trkpt lat="45.87875" lon="4.83067">
        <ele>169</ele>
        <time>2017-04-29T08:36:06Z</time>
      </trkpt>
      <trkpt lat="45.87874" lon="4.83076">
        <ele>169</ele>
        <time>2017-04-29T08:36:07Z</time>
      </trkpt>
      <trkpt lat="45.87873" lon="4.83085">
        <ele>170</ele>
        <time>2017-04-29T08:36:08Z</time>
      </trkpt>
      <trkpt lat="45.87872" lon="4.83093">
        <ele>170</ele>
        <time>2017-04-29T08:36:09Z</time>
      </trkpt>
      <trkpt lat="45.87872" lon="4.83102">
        <ele>170</ele>
        <time>2017-04-29T08:36:10Z</time>
      </trkpt>
      <trkpt lat="45.87871" lon="4.83111">
        <ele>170</ele>
        <time>2017-04-29T08:36:11Z</time>
      </trkpt>
      <trkpt lat="45.87869" lon="4.83119">
        <ele>170</ele>
        <time>2017-04-29T08:36:12Z</time>
      </trkpt>
      <trkpt lat="45.87868" lon="4.83127">
        <ele>170</ele>
        <time>2017-04-29T08:36:13Z</time>
      </trkpt>
      <trkpt lat="45.87867" lon="4.83135">
        <ele>170</ele>
        <time>2017-04-29T08:36:14Z</time>
      </trkpt>
      <trkpt lat="45.87866" lon="4.83143">
        <ele>170</ele>
        <time>2017-04-29T08:36:15Z</time>
      </trkpt>
      <trkpt lat="45.87865" lon="4.83151">
        <ele>170</ele>
        <time>2017-04-29T08:36:16Z</time>
      </trkpt>
      <trkpt lat="45.87864" lon="4.83159">
        <ele>170</ele>
        <time>2017-04-29T08:36:17Z</time>
      </trkpt>
      <trkpt lat="45.87862" lon="4.83166">
        <ele>171</ele>
        <time>2017-04-29T08:36:18Z</time>
      </trkpt>
      <trkpt lat="45.8786" lon="4.83173">
        <ele>170</ele>
        <time>2017-04-29T08:36:19Z</time>
      </trkpt>
      <trkpt lat="45.87859" lon="4.8318">
        <ele>170</ele>
        <time>2017-04-29T08:36:20Z</time>
      </trkpt>
      <trkpt lat="45.87858" lon="4.83188">
        <ele>170</ele>
        <time>2017-04-29T08:36:21Z</time>
      </trkpt>
      <trkpt lat="45.87856" lon="4.83196">
        <ele>170</ele>
        <time>2017-04-29T08:36:22Z</time>
      </trkpt>
      <trkpt lat="45.87854" lon="4.83204">
        <ele>170</ele>
        <time>2017-04-29T08:36:23Z</time>
      </trkpt>
      <trkpt lat="45.87852" lon="4.83212">
        <ele>170</ele>
        <time>2017-04-29T08:36:24Z</time>
      </trkpt>
      <trkpt lat="45.8785" lon="4.8322">
        <ele>170</ele>
        <time>2017-04-29T08:36:25Z</time>
      </trkpt>
      <trkpt lat="45.87848" lon="4.83229">
        <ele>170</ele>
        <time>2017-04-29T08:36:26Z</time>
      </trkpt>
      <trkpt lat="45.87846" lon="4.83238">
        <ele>170</ele>
        <time>2017-04-29T08:36:27Z</time>
      </trkpt>
      <trkpt lat="45.87843" lon="4.83247">
        <ele>170</ele>
        <time>2017-04-29T08:36:28Z</time>
      </trkpt>
      <trkpt lat="45.87841" lon="4.83256">
        <ele>169</ele>
        <time>2017-04-29T08:36:29Z</time>
      </trkpt>
      <trkpt lat="45.87839" lon="4.83265">
        <ele>169</ele>
        <time>2017-04-29T08:36:30Z</time>
      </trkpt>
      <trkpt lat="45.87838" lon="4.83273">
        <ele>168</ele>
        <time>2017-04-29T08:36:31Z</time>
      </trkpt>
      <trkpt lat="45.87835" lon="4.83282">
        <ele>168</ele>
        <time>2017-04-29T08:36:32Z</time>
      </trkpt>
      <trkpt lat="45.87833" lon="4.8329">
        <ele>169</ele>
        <time>2017-04-29T08:36:33Z</time>
      </trkpt>
      <trkpt lat="45.87831" lon="4.83298">
        <ele>169</ele>
        <time>2017-04-29T08:36:34Z</time>
      </trkpt>
      <trkpt lat="45.87829" lon="4.83306">
        <ele>168</ele>
        <time>2017-04-29T08:36:35Z</time>
      </trkpt>
      <trkpt lat="45.87827" lon="4.83313">
        <ele>168</ele>
        <time>2017-04-29T08:36:36Z</time>
      </trkpt>
      <trkpt lat="45.87825" lon="4.8332">
        <ele>167</ele>
        <time>2017-04-29T08:36:37Z</time>
      </trkpt>
      <trkpt lat="45.87823" lon="4.83327">
        <ele>167</ele>
        <time>2017-04-29T08:36:38Z</time>
      </trkpt>
      <trkpt lat="45.87821" lon="4.83333">
        <ele>167</ele>
        <time>2017-04-29T08:36:39Z</time>
      </trkpt>
      <trkpt lat="45.87818" lon="4.8334">
        <ele>167</ele>
        <time>2017-04-29T08:36:40Z</time>
      </trkpt>
      <trkpt lat="45.87815" lon="4.83347">
        <ele>167</ele>
        <time>2017-04-29T08:36:41Z</time>
      </trkpt>
      <trkpt lat="45.87812" lon="4.83354">
        <ele>167</ele>
        <time>2017-04-29T08:36:42Z</time>
      </trkpt>
      <trkpt lat="45.87809" lon="4.83361">
        <ele>168</ele>
        <time>2017-04-29T08:36:43Z</time>
      </trkpt>
      <trkpt lat="45.87805" lon="4.83368">
        <ele>168</ele>
        <time>2017-04-29T08:36:44Z</time>
      </trkpt>
      <trkpt lat="45.87802" lon="4.83375">
        <ele>168</ele>
        <time>2017-04-29T08:36:45Z</time>
      </trkpt>
      <trkpt lat="45.87799" lon="4.83382">
        <ele>168</ele>
        <time>2017-04-29T08:36:46Z</time>
      </trkpt>
      <trkpt lat="45.87796" lon="4.8339">
        <ele>168</ele>
        <time>2017-04-29T08:36:47Z</time>
      </trkpt>
      <trkpt lat="45.87793" lon="4.83397">
        <ele>168</ele>
        <time>2017-04-29T08:36:48Z</time>
      </trkpt>
      <trkpt lat="45.8779" lon="4.83406">
        <ele>168</ele>
        <time>2017-04-29T08:36:49Z</time>
      </trkpt>
      <trkpt lat="45.87786" lon="4.83414">
        <ele>169</ele>
        <time>2017-04-29T08:36:50Z</time>
      </trkpt>
      <trkpt lat="45.87783" lon="4.83421">
        <ele>169</ele>
        <time>2017-04-29T08:36:51Z</time>
      </trkpt>
      <trkpt lat="45.87779" lon="4.83428">
        <ele>169</ele>
        <time>2017-04-29T08:36:52Z</time>
      </trkpt>
      <trkpt lat="45.87775" lon="4.83435">
        <ele>170</ele>
        <time>2017-04-29T08:36:53Z</time>
      </trkpt>
      <trkpt lat="45.87771" lon="4.83442">
        <ele>170</ele>
        <time>2017-04-29T08:36:54Z</time>
      </trkpt>
      <trkpt lat="45.87767" lon="4.83448">
        <ele>170</ele>
        <time>2017-04-29T08:36:55Z</time>
      </trkpt>
      <trkpt lat="45.87763" lon="4.83454">
        <ele>170</ele>
        <time>2017-04-29T08:36:56Z</time>
      </trkpt>
      <trkpt lat="45.87759" lon="4.8346">
        <ele>170</ele>
        <time>2017-04-29T08:36:57Z</time>
      </trkpt>
      <trkpt lat="45.87755" lon="4.83465">
        <ele>170</ele>
        <time>2017-04-29T08:36:58Z</time>
      </trkpt>
      <trkpt lat="45.87751" lon="4.83471">
        <ele>170</ele>
        <time>2017-04-29T08:36:59Z</time>
      </trkpt>
      <trkpt lat="45.87747" lon="4.83476">
        <ele>172</ele>
        <time>2017-04-29T08:37:00Z</time>
      </trkpt>
      <trkpt lat="45.87743" lon="4.8348">
        <ele>172</ele>
        <time>2017-04-29T08:37:01Z</time>
      </trkpt>
      <trkpt lat="45.87739" lon="4.83485">
        <ele>172</ele>
        <time>2017-04-29T08:37:02Z</time>
      </trkpt>
      <trkpt lat="45.87735" lon="4.8349">
        <ele>172</ele>
        <time>2017-04-29T08:37:03Z</time>
      </trkpt>
      <trkpt lat="45.87731" lon="4.83495">
        <ele>172</ele>
        <time>2017-04-29T08:37:04Z</time>
      </trkpt>
      <trkpt lat="45.87728" lon="4.835">
        <ele>171</ele>
        <time>2017-04-29T08:37:05Z</time>
      </trkpt>
      <trkpt lat="45.87724" lon="4.83505">
        <ele>170</ele>
        <time>2017-04-29T08:37:06Z</time>
      </trkpt>
      <trkpt lat="45.87721" lon="4.83509">
        <ele>170</ele>
        <time>2017-04-29T08:37:07Z</time>
      </trkpt>
      <trkpt lat="45.87717" lon="4.83514">
        <ele>170</ele>
        <time>2017-04-29T08:37:08Z</time>
      </trkpt>
      <trkpt lat="45.87713" lon="4.83518">
        <ele>170</ele>
        <time>2017-04-29T08:37:09Z</time>
      </trkpt>
      <trkpt lat="45.8771" lon="4.83522">
        <ele>169</ele>
        <time>2017-04-29T08:37:10Z</time>
      </trkpt>
      <trkpt lat="45.87706" lon="4.83526">
        <ele>169</ele>
        <time>2017-04-29T08:37:11Z</time>
      </trkpt>
      <trkpt lat="45.877" lon="4.8353">
        <ele>169</ele>
        <time>2017-04-29T08:37:13Z</time>
      </trkpt>
      <trkpt lat="45.87698" lon="4.83533">
        <ele>169</ele>
        <time>2017-04-29T08:37:14Z</time>
      </trkpt>
      <trkpt lat="45.8769" lon="4.83533">
        <ele>169</ele>
        <time>2017-04-29T08:37:17Z</time>
      </trkpt>
      <trkpt lat="45.87687" lon="4.83533">
        <ele>169</ele>
        <time>2017-04-29T08:37:18Z</time>
      </trkpt>
      <trkpt lat="45.8768" lon="4.83531">
        <ele>169</ele>
        <time>2017-04-29T08:37:20Z</time>
      </trkpt>
      <trkpt lat="45.87677" lon="4.83532">
        <ele>169</ele>
        <time>2017-04-29T08:37:21Z</time>
      </trkpt>
      <trkpt lat="45.87675" lon="4.83542">
        <ele>168</ele>
        <time>2017-04-29T08:37:23Z</time>
      </trkpt>
      <trkpt lat="45.87675" lon="4.83549">
        <ele>168</ele>
        <time>2017-04-29T08:37:24Z</time>
      </trkpt>
      <trkpt lat="45.87676" lon="4.83555">
        <ele>168</ele>
        <time>2017-04-29T08:37:25Z</time>
      </trkpt>
      <trkpt lat="45.87678" lon="4.83562">
        <ele>167</ele>
        <time>2017-04-29T08:37:26Z</time>
      </trkpt>
      <trkpt lat="45.87678" lon="4.83569">
        <ele>167</ele>
        <time>2017-04-29T08:37:27Z</time>
      </trkpt>
      <trkpt lat="45.87679" lon="4.83575">
        <ele>166</ele>
        <time>2017-04-29T08:37:28Z</time>
      </trkpt>
      <trkpt lat="45.87679" lon="4.83582">
        <ele>166</ele>
        <time>2017-04-29T08:37:29Z</time>
      </trkpt>
      <trkpt lat="45.8768" lon="4.83589">
        <ele>165</ele>
        <time>2017-04-29T08:37:30Z</time>
      </trkpt>
      <trkpt lat="45.8768" lon="4.83597">
        <ele>165</ele>
        <time>2017-04-29T08:37:31Z</time>
      </trkpt>
      <trkpt lat="45.87681" lon="4.83604">
        <ele>165</ele>
        <time>2017-04-29T08:37:32Z</time>
      </trkpt>
      <trkpt lat="45.87681" lon="4.83611">
        <ele>165</ele>
        <time>2017-04-29T08:37:33Z</time>
      </trkpt>
      <trkpt lat="45.87681" lon="4.83617">
        <ele>165</ele>
        <time>2017-04-29T08:37:34Z</time>
      </trkpt>
      <trkpt lat="45.87682" lon="4.83629">
        <ele>165</ele>
        <time>2017-04-29T08:37:36Z</time>
      </trkpt>
      <trkpt lat="45.87683" lon="4.83635">
        <ele>165</ele>
        <time>2017-04-29T08:37:37Z</time>
      </trkpt>
      <trkpt lat="45.87684" lon="4.83642">
        <ele>165</ele>
        <time>2017-04-29T08:37:38Z</time>
      </trkpt>
      <trkpt lat="45.87684" lon="4.83649">
        <ele>165</ele>
        <time>2017-04-29T08:37:39Z</time>
      </trkpt>
      <trkpt lat="45.87684" lon="4.83656">
        <ele>165</ele>
        <time>2017-04-29T08:37:40Z</time>
      </trkpt>
      <trkpt lat="45.87685" lon="4.83663">
        <ele>165</ele>
        <time>2017-04-29T08:37:41Z</time>
      </trkpt>
      <trkpt lat="45.87686" lon="4.83669">
        <ele>165</ele>
        <time>2017-04-29T08:37:42Z</time>
      </trkpt>
      <trkpt lat="45.87686" lon="4.83676">
        <ele>165</ele>
        <time>2017-04-29T08:37:43Z</time>
      </trkpt>
      <trkpt lat="45.87687" lon="4.83683">
        <ele>165</ele>
        <time>2017-04-29T08:37:44Z</time>
      </trkpt>
      <trkpt lat="45.87687" lon="4.83691">
        <ele>165</ele>
        <time>2017-04-29T08:37:45Z</time>
      </trkpt>
      <trkpt lat="45.87688" lon="4.83697">
        <ele>165</ele>
        <time>2017-04-29T08:37:46Z</time>
      </trkpt>
      <trkpt lat="45.87688" lon="4.83704">
        <ele>165</ele>
        <time>2017-04-29T08:37:47Z</time>
      </trkpt>
      <trkpt lat="45.87689" lon="4.83711">
        <ele>165</ele>
        <time>2017-04-29T08:37:48Z</time>
      </trkpt>
      <trkpt lat="45.8769" lon="4.83717">
        <ele>165</ele>
        <time>2017-04-29T08:37:49Z</time>
      </trkpt>
      <trkpt lat="45.8769" lon="4.83725">
        <ele>165</ele>
        <time>2017-04-29T08:37:50Z</time>
      </trkpt>
      <trkpt lat="45.87691" lon="4.83733">
        <ele>165</ele>
        <time>2017-04-29T08:37:51Z</time>
      </trkpt>
      <trkpt lat="45.87692" lon="4.83741">
        <ele>165</ele>
        <time>2017-04-29T08:37:52Z</time>
      </trkpt>
      <trkpt lat="45.87692" lon="4.83749">
        <ele>165</ele>
        <time>2017-04-29T08:37:53Z</time>
      </trkpt>
      <trkpt lat="45.87693" lon="4.83757">
        <ele>167</ele>
        <time>2017-04-29T08:37:54Z</time>
      </trkpt>
      <trkpt lat="45.87694" lon="4.83765">
        <ele>167</ele>
        <time>2017-04-29T08:37:55Z</time>
      </trkpt>
      <trkpt lat="45.87695" lon="4.83773">
        <ele>168</ele>
        <time>2017-04-29T08:37:56Z</time>
      </trkpt>
      <trkpt lat="45.87696" lon="4.83782">
        <ele>168</ele>
        <time>2017-04-29T08:37:57Z</time>
      </trkpt>
      <trkpt lat="45.87697" lon="4.8379">
        <ele>168</ele>
        <time>2017-04-29T08:37:58Z</time>
      </trkpt>
      <trkpt lat="45.87698" lon="4.83797">
        <ele>169</ele>
        <time>2017-04-29T08:37:59Z</time>
      </trkpt>
      <trkpt lat="45.87698" lon="4.83809">
        <ele>169</ele>
        <time>2017-04-29T08:38:01Z</time>
      </trkpt>
      <trkpt lat="45.87698" lon="4.83814">
        <ele>169</ele>
        <time>2017-04-29T08:38:02Z</time>
      </trkpt>
      <trkpt lat="45.87696" lon="4.83825">
        <ele>170</ele>
        <time>2017-04-29T08:38:05Z</time>
      </trkpt>
      <trkpt lat="45.87696" lon="4.83828">
        <ele>170</ele>
        <time>2017-04-29T08:38:06Z</time>
      </trkpt>
      <trkpt lat="45.87696" lon="4.83839">
        <ele>172</ele>
        <time>2017-04-29T08:38:09Z</time>
      </trkpt>
      <trkpt lat="45.87696" lon="4.83844">
        <ele>172</ele>
        <time>2017-04-29T08:38:10Z</time>
      </trkpt>
      <trkpt lat="45.877" lon="4.83854">
        <ele>172</ele>
        <time>2017-04-29T08:38:12Z</time>
      </trkpt>
      <trkpt lat="45.87703" lon="4.83859">
        <ele>172</ele>
        <time>2017-04-29T08:38:13Z</time>
      </trkpt>
      <trkpt lat="45.87706" lon="4.83864">
        <ele>172</ele>
        <time>2017-04-29T08:38:14Z</time>
      </trkpt>
      <trkpt lat="45.87709" lon="4.8387">
        <ele>172</ele>
        <time>2017-04-29T08:38:15Z</time>
      </trkpt>
      <trkpt lat="45.87711" lon="4.83876">
        <ele>172</ele>
        <time>2017-04-29T08:38:16Z</time>
      </trkpt>
      <trkpt lat="45.87712" lon="4.83883">
        <ele>172</ele>
        <time>2017-04-29T08:38:17Z</time>
      </trkpt>
      <trkpt lat="45.87712" lon="4.83889">
        <ele>172</ele>
        <time>2017-04-29T08:38:18Z</time>
      </trkpt>
      <trkpt lat="45.87712" lon="4.83896">
        <ele>172</ele>
        <time>2017-04-29T08:38:19Z</time>
      </trkpt>
      <trkpt lat="45.87713" lon="4.83902">
        <ele>172</ele>
        <time>2017-04-29T08:38:20Z</time>
      </trkpt>
      <trkpt lat="45.87713" lon="4.83909">
        <ele>172</ele>
        <time>2017-04-29T08:38:21Z</time>
      </trkpt>
      <trkpt lat="45.87716" lon="4.8392">
        <ele>174</ele>
        <time>2017-04-29T08:38:23Z</time>
      </trkpt>
      <trkpt lat="45.87717" lon="4.83925">
        <ele>174</ele>
        <time>2017-04-29T08:38:24Z</time>
      </trkpt>
      <trkpt lat="45.87718" lon="4.83935">
        <ele>174</ele>
        <time>2017-04-29T08:38:26Z</time>
      </trkpt>
      <trkpt lat="45.87719" lon="4.83939">
        <ele>174</ele>
        <time>2017-04-29T08:38:27Z</time>
      </trkpt>
      <trkpt lat="45.87721" lon="4.83952">
        <ele>174</ele>
        <time>2017-04-29T08:38:31Z</time>
      </trkpt>
      <trkpt lat="45.87721" lon="4.83954">
        <ele>174</ele>
        <time>2017-04-29T08:38:32Z</time>
      </trkpt>
      <trkpt lat="45.87723" lon="4.83965">
        <ele>174</ele>
        <time>2017-04-29T08:38:37Z</time>
      </trkpt>
      <trkpt lat="45.87724" lon="4.83967">
        <ele>174</ele>
        <time>2017-04-29T08:38:38Z</time>
      </trkpt>
      <trkpt lat="45.87723" lon="4.83977">
        <ele>175</ele>
        <time>2017-04-29T08:38:42Z</time>
      </trkpt>
      <trkpt lat="45.87723" lon="4.8398">
        <ele>175</ele>
        <time>2017-04-29T08:38:43Z</time>
      </trkpt>
      <trkpt lat="45.87723" lon="4.83991">
        <ele>175</ele>
        <time>2017-04-29T08:38:46Z</time>
      </trkpt>
      <trkpt lat="45.87723" lon="4.83995">
        <ele>175</ele>
        <time>2017-04-29T08:38:47Z</time>
      </trkpt>
      <trkpt lat="45.87724" lon="4.84006">
        <ele>176</ele>
        <time>2017-04-29T08:38:51Z</time>
      </trkpt>
      <trkpt lat="45.87724" lon="4.84009">
        <ele>177</ele>
        <time>2017-04-29T08:38:52Z</time>
      </trkpt>
      <trkpt lat="45.87721" lon="4.8402">
        <ele>177</ele>
        <time>2017-04-29T08:38:56Z</time>
      </trkpt>
      <trkpt lat="45.8772" lon="4.84023">
        <ele>177</ele>
        <time>2017-04-29T08:38:57Z</time>
      </trkpt>
      <trkpt lat="45.87717" lon="4.84032">
        <ele>177</ele>
        <time>2017-04-29T08:39:00Z</time>
      </trkpt>
      <trkpt lat="45.87715" lon="4.84035">
        <ele>177</ele>
        <time>2017-04-29T08:39:01Z</time>
      </trkpt>
      <trkpt lat="45.87712" lon="4.84045">
        <ele>177</ele>
        <time>2017-04-29T08:39:04Z</time>
      </trkpt>
      <trkpt lat="45.87711" lon="4.84049">
        <ele>177</ele>
        <time>2017-04-29T08:39:05Z</time>
      </trkpt>
      <trkpt lat="45.87708" lon="4.8406">
        <ele>178</ele>
        <time>2017-04-29T08:39:08Z</time>
      </trkpt>
      <trkpt lat="45.87706" lon="4.84064">
        <ele>178</ele>
        <time>2017-04-29T08:39:09Z</time>
      </trkpt>
      <trkpt lat="45.87703" lon="4.84074">
        <ele>178</ele>
        <time>2017-04-29T08:39:11Z</time>
      </trkpt>
      <trkpt lat="45.87701" lon="4.84079">
        <ele>178</ele>
        <time>2017-04-29T08:39:12Z</time>
      </trkpt>
      <trkpt lat="45.87697" lon="4.8409">
        <ele>179</ele>
        <time>2017-04-29T08:39:14Z</time>
      </trkpt>
      <trkpt lat="45.87694" lon="4.84094">
        <ele>179</ele>
        <time>2017-04-29T08:39:15Z</time>
      </trkpt>
      <trkpt lat="45.8769" lon="4.84105">
        <ele>179</ele>
        <time>2017-04-29T08:39:17Z</time>
      </trkpt>
      <trkpt lat="45.87688" lon="4.8411">
        <ele>179</ele>
        <time>2017-04-29T08:39:18Z</time>
      </trkpt>
      <trkpt lat="45.87685" lon="4.8412">
        <ele>179</ele>
        <time>2017-04-29T08:39:20Z</time>
      </trkpt>
      <trkpt lat="45.87684" lon="4.84126">
        <ele>180</ele>
        <time>2017-04-29T08:39:21Z</time>
      </trkpt>
      <trkpt lat="45.87682" lon="4.84137">
        <ele>180</ele>
        <time>2017-04-29T08:39:23Z</time>
      </trkpt>
      <trkpt lat="45.87678" lon="4.84143">
        <ele>180</ele>
        <time>2017-04-29T08:39:24Z</time>
      </trkpt>
      <trkpt lat="45.87677" lon="4.84154">
        <ele>180</ele>
        <time>2017-04-29T08:39:26Z</time>
      </trkpt>
      <trkpt lat="45.87677" lon="4.8416">
        <ele>180</ele>
        <time>2017-04-29T08:39:27Z</time>
      </trkpt>
      <trkpt lat="45.87676" lon="4.84172">
        <ele>180</ele>
        <time>2017-04-29T08:39:29Z</time>
      </trkpt>
      <trkpt lat="45.87675" lon="4.84178">
        <ele>181</ele>
        <time>2017-04-29T08:39:30Z</time>
      </trkpt>
      <trkpt lat="45.87673" lon="4.84187">
        <ele>181</ele>
        <time>2017-04-29T08:39:32Z</time>
      </trkpt>
      <trkpt lat="45.87672" lon="4.84191">
        <ele>181</ele>
        <time>2017-04-29T08:39:33Z</time>
      </trkpt>
      <trkpt lat="45.8767" lon="4.84202">
        <ele>181</ele>
        <time>2017-04-29T08:39:35Z</time>
      </trkpt>
      <trkpt lat="45.87668" lon="4.84208">
        <ele>181</ele>
        <time>2017-04-29T08:39:36Z</time>
      </trkpt>
      <trkpt lat="45.87666" lon="4.84219">
        <ele>180</ele>
        <time>2017-04-29T08:39:38Z</time>
      </trkpt>
      <trkpt lat="45.87664" lon="4.84224">
        <ele>180</ele>
        <time>2017-04-29T08:39:39Z</time>
      </trkpt>
      <trkpt lat="45.87663" lon="4.84234">
        <ele>180</ele>
        <time>2017-04-29T08:39:41Z</time>
      </trkpt>
      <trkpt lat="45.87661" lon="4.8424">
        <ele>180</ele>
        <time>2017-04-29T08:39:42Z</time>
      </trkpt>
      <trkpt lat="45.87659" lon="4.84251">
        <ele>181</ele>
        <time>2017-04-29T08:39:44Z</time>
      </trkpt>
      <trkpt lat="45.87658" lon="4.84256">
        <ele>181</ele>
        <time>2017-04-29T08:39:45Z</time>
      </trkpt>
      <trkpt lat="45.87656" lon="4.84267">
        <ele>181</ele>
        <time>2017-04-29T08:39:47Z</time>
      </trkpt>
      <trkpt lat="45.87655" lon="4.84272">
        <ele>181</ele>
        <time>2017-04-29T08:39:48Z</time>
      </trkpt>
      <trkpt lat="45.87652" lon="4.84282">
        <ele>181</ele>
        <time>2017-04-29T08:39:50Z</time>
      </trkpt>
      <trkpt lat="45.8765" lon="4.84287">
        <ele>181</ele>
        <time>2017-04-29T08:39:51Z</time>
      </trkpt>
      <trkpt lat="45.87645" lon="4.84295">
        <ele>181</ele>
        <time>2017-04-29T08:39:53Z</time>
      </trkpt>
      <trkpt lat="45.87644" lon="4.843">
        <ele>181</ele>
        <time>2017-04-29T08:39:54Z</time>
      </trkpt>
      <trkpt lat="45.87643" lon="4.8431">
        <ele>181</ele>
        <time>2017-04-29T08:39:56Z</time>
      </trkpt>
      <trkpt lat="45.87643" lon="4.84315">
        <ele>181</ele>
        <time>2017-04-29T08:39:57Z</time>
      </trkpt>
      <trkpt lat="45.87642" lon="4.84324">
        <ele>182</ele>
        <time>2017-04-29T08:39:59Z</time>
      </trkpt>
      <trkpt lat="45.87642" lon="4.84329">
        <ele>182</ele>
        <time>2017-04-29T08:40:00Z</time>
      </trkpt>
      <trkpt lat="45.87643" lon="4.84339">
        <ele>183</ele>
        <time>2017-04-29T08:40:02Z</time>
      </trkpt>
      <trkpt lat="45.87644" lon="4.84344">
        <ele>183</ele>
        <time>2017-04-29T08:40:03Z</time>
      </trkpt>
      <trkpt lat="45.87645" lon="4.84353">
        <ele>184</ele>
        <time>2017-04-29T08:40:05Z</time>
      </trkpt>
      <trkpt lat="45.87646" lon="4.84358">
        <ele>184</ele>
        <time>2017-04-29T08:40:06Z</time>
      </trkpt>
      <trkpt lat="45.87648" lon="4.84367">
        <ele>184</ele>
        <time>2017-04-29T08:40:08Z</time>
      </trkpt>
      <trkpt lat="45.87649" lon="4.84372">
        <ele>184</ele>
        <time>2017-04-29T08:40:09Z</time>
      </trkpt>
      <trkpt lat="45.87649" lon="4.84381">
        <ele>184</ele>
        <time>2017-04-29T08:40:11Z</time>
      </trkpt>
      <trkpt lat="45.87649" lon="4.84385">
        <ele>184</ele>
        <time>2017-04-29T08:40:12Z</time>
      </trkpt>
      <trkpt lat="45.8765" lon="4.84393">
        <ele>185</ele>
        <time>2017-04-29T08:40:14Z</time>
      </trkpt>
      <trkpt lat="45.8765" lon="4.84398">
        <ele>185</ele>
        <time>2017-04-29T08:40:15Z</time>
      </trkpt>
      <trkpt lat="45.87651" lon="4.84408">
        <ele>185</ele>
        <time>2017-04-29T08:40:17Z</time>
      </trkpt>
      <trkpt lat="45.87651" lon="4.84413">
        <ele>185</ele>
        <time>2017-04-29T08:40:18Z</time>
      </trkpt>
      <trkpt lat="45.87652" lon="4.84422">
        <ele>187</ele>
        <time>2017-04-29T08:40:20Z</time>
      </trkpt>
      <trkpt lat="45.87653" lon="4.84426">
        <ele>187</ele>
        <time>2017-04-29T08:40:21Z</time>
      </trkpt>
      <trkpt lat="45.87653" lon="4.84436">
        <ele>187</ele>
        <time>2017-04-29T08:40:23Z</time>
      </trkpt>
      <trkpt lat="45.87653" lon="4.8444">
        <ele>187</ele>
        <time>2017-04-29T08:40:24Z</time>
      </trkpt>
      <trkpt lat="45.87654" lon="4.84451">
        <ele>187</ele>
        <time>2017-04-29T08:40:26Z</time>
      </trkpt>
      <trkpt lat="45.87655" lon="4.84456">
        <ele>187</ele>
        <time>2017-04-29T08:40:27Z</time>
      </trkpt>
      <trkpt lat="45.87656" lon="4.84466">
        <ele>187</ele>
        <time>2017-04-29T08:40:29Z</time>
      </trkpt>
      <trkpt lat="45.87656" lon="4.8447">
        <ele>187</ele>
        <time>2017-04-29T08:40:30Z</time>
      </trkpt>
      <trkpt lat="45.87659" lon="4.84478">
        <ele>188</ele>
        <time>2017-04-29T08:40:32Z</time>
      </trkpt>
      <trkpt lat="45.87659" lon="4.84482">
        <ele>188</ele>
        <time>2017-04-29T08:40:33Z</time>
      </trkpt>
      <trkpt lat="45.87661" lon="4.84495">
        <ele>188</ele>
        <time>2017-04-29T08:40:36Z</time>
      </trkpt>
      <trkpt lat="45.87661" lon="4.84499">
        <ele>188</ele>
        <time>2017-04-29T08:40:37Z</time>
      </trkpt>
      <trkpt lat="45.87663" lon="4.84511">
        <ele>188</ele>
        <time>2017-04-29T08:40:40Z</time>
      </trkpt>
      <trkpt lat="45.87664" lon="4.84515">
        <ele>189</ele>
        <time>2017-04-29T08:40:41Z</time>
      </trkpt>
      <trkpt lat="45.87663" lon="4.84524">
        <ele>189</ele>
        <time>2017-04-29T08:40:43Z</time>
      </trkpt>
      <trkpt lat="45.87663" lon="4.84529">
        <ele>189</ele>
        <time>2017-04-29T08:40:44Z</time>
      </trkpt>
      <trkpt lat="45.87662" lon="4.8454">
        <ele>189</ele>
        <time>2017-04-29T08:40:47Z</time>
      </trkpt>
      <trkpt lat="45.87661" lon="4.84544">
        <ele>189</ele>
        <time>2017-04-29T08:40:48Z</time>
      </trkpt>
      <trkpt lat="45.87659" lon="4.84556">
        <ele>189</ele>
        <time>2017-04-29T08:40:51Z</time>
      </trkpt>
      <trkpt lat="45.87658" lon="4.8456">
        <ele>189</ele>
        <time>2017-04-29T08:40:52Z</time>
      </trkpt>
      <trkpt lat="45.87657" lon="4.84572">
        <ele>189</ele>
        <time>2017-04-29T08:40:55Z</time>
      </trkpt>
      <trkpt lat="45.87656" lon="4.84576">
        <ele>189</ele>
        <time>2017-04-29T08:40:56Z</time>
      </trkpt>
      <trkpt lat="45.87656" lon="4.84589">
        <ele>190</ele>
        <time>2017-04-29T08:40:59Z</time>
      </trkpt>
      <trkpt lat="45.87656" lon="4.84593">
        <ele>190</ele>
        <time>2017-04-29T08:41:00Z</time>
      </trkpt>
      <trkpt lat="45.87657" lon="4.84602">
        <ele>190</ele>
        <time>2017-04-29T08:41:02Z</time>
      </trkpt>
      <trkpt lat="45.87656" lon="4.84606">
        <ele>190</ele>
        <time>2017-04-29T08:41:03Z</time>
      </trkpt>
      <trkpt lat="45.87655" lon="4.84618">
        <ele>191</ele>
        <time>2017-04-29T08:41:06Z</time>
      </trkpt>
      <trkpt lat="45.87655" lon="4.84622">
        <ele>191</ele>
        <time>2017-04-29T08:41:07Z</time>
      </trkpt>
      <trkpt lat="45.87654" lon="4.84634">
        <ele>191</ele>
        <time>2017-04-29T08:41:10Z</time>
      </trkpt>
      <trkpt lat="45.87654" lon="4.84637">
        <ele>191</ele>
        <time>2017-04-29T08:41:11Z</time>
      </trkpt>
      <trkpt lat="45.87655" lon="4.84648">
        <ele>191</ele>
        <time>2017-04-29T08:41:14Z</time>
      </trkpt>
      <trkpt lat="45.87654" lon="4.84652">
        <ele>191</ele>
        <time>2017-04-29T08:41:15Z</time>
      </trkpt>
      <trkpt lat="45.87652" lon="4.84663">
        <ele>191</ele>
        <time>2017-04-29T08:41:18Z</time>
      </trkpt>
      <trkpt lat="45.87651" lon="4.84667">
        <ele>193</ele>
        <time>2017-04-29T08:41:19Z</time>
      </trkpt>
      <trkpt lat="45.87649" lon="4.84677">
        <ele>193</ele>
        <time>2017-04-29T08:41:22Z</time>
      </trkpt>
      <trkpt lat="45.87649" lon="4.8468">
        <ele>193</ele>
        <time>2017-04-29T08:41:23Z</time>
      </trkpt>
      <trkpt lat="45.87648" lon="4.8469">
        <ele>194</ele>
        <time>2017-04-29T08:41:26Z</time>
      </trkpt>
      <trkpt lat="45.87647" lon="4.84693">
        <ele>194</ele>
        <time>2017-04-29T08:41:27Z</time>
      </trkpt>
      <trkpt lat="45.87647" lon="4.84706">
        <ele>194</ele>
        <time>2017-04-29T08:41:31Z</time>
      </trkpt>
      <trkpt lat="45.87647" lon="4.84709">
        <ele>194</ele>
        <time>2017-04-29T08:41:32Z</time>
      </trkpt>
      <trkpt lat="45.87645" lon="4.84719">
        <ele>195</ele>
        <time>2017-04-29T08:41:35Z</time>
      </trkpt>
      <trkpt lat="45.87645" lon="4.84722">
        <ele>195</ele>
        <time>2017-04-29T08:41:36Z</time>
      </trkpt>
      <trkpt lat="45.87642" lon="4.84734">
        <ele>195</ele>
        <time>2017-04-29T08:41:40Z</time>
      </trkpt>
      <trkpt lat="45.87642" lon="4.84737">
        <ele>195</ele>
        <time>2017-04-29T08:41:41Z</time>
      </trkpt>
      <trkpt lat="45.87641" lon="4.8475">
        <ele>195</ele>
        <time>2017-04-29T08:41:45Z</time>
      </trkpt>
      <trkpt lat="45.8764" lon="4.84753">
        <ele>198</ele>
        <time>2017-04-29T08:41:46Z</time>
      </trkpt>
      <trkpt lat="45.87639" lon="4.84762">
        <ele>198</ele>
        <time>2017-04-29T08:41:49Z</time>
      </trkpt>
      <trkpt lat="45.8764" lon="4.84766">
        <ele>198</ele>
        <time>2017-04-29T08:41:50Z</time>
      </trkpt>
      <trkpt lat="45.87638" lon="4.84778">
        <ele>199</ele>
        <time>2017-04-29T08:41:54Z</time>
      </trkpt>
      <trkpt lat="45.87638" lon="4.8478">
        <ele>199</ele>
        <time>2017-04-29T08:41:55Z</time>
      </trkpt>
      <trkpt lat="45.87636" lon="4.84792">
        <ele>199</ele>
        <time>2017-04-29T08:41:59Z</time>
      </trkpt>
      <trkpt lat="45.87635" lon="4.84795">
        <ele>199</ele>
        <time>2017-04-29T08:42:00Z</time>
      </trkpt>
      <trkpt lat="45.87634" lon="4.84807">
        <ele>200</ele>
        <time>2017-04-29T08:42:04Z</time>
      </trkpt>
      <trkpt lat="45.87633" lon="4.84811">
        <ele>200</ele>
        <time>2017-04-29T08:42:05Z</time>
      </trkpt>
      <trkpt lat="45.87632" lon="4.84823">
        <ele>200</ele>
        <time>2017-04-29T08:42:09Z</time>
      </trkpt>
      <trkpt lat="45.87631" lon="4.84826">
        <ele>200</ele>
        <time>2017-04-29T08:42:10Z</time>
      </trkpt>
      <trkpt lat="45.87628" lon="4.84837">
        <ele>204</ele>
        <time>2017-04-29T08:42:14Z</time>
      </trkpt>
      <trkpt lat="45.87628" lon="4.84841">
        <ele>204</ele>
        <time>2017-04-29T08:42:15Z</time>
      </trkpt>
      <trkpt lat="45.87628" lon="4.84853">
        <ele>204</ele>
        <time>2017-04-29T08:42:19Z</time>
      </trkpt>
      <trkpt lat="45.87628" lon="4.84855">
        <ele>204</ele>
        <time>2017-04-29T08:42:20Z</time>
      </trkpt>
      <trkpt lat="45.87632" lon="4.84865">
        <ele>205</ele>
        <time>2017-04-29T08:42:24Z</time>
      </trkpt>
      <trkpt lat="45.87634" lon="4.84867">
        <ele>205</ele>
        <time>2017-04-29T08:42:25Z</time>
      </trkpt>
      <trkpt lat="45.87639" lon="4.84876">
        <ele>205</ele>
        <time>2017-04-29T08:42:29Z</time>
      </trkpt>
      <trkpt lat="45.8764" lon="4.84879">
        <ele>205</ele>
        <time>2017-04-29T08:42:30Z</time>
      </trkpt>
      <trkpt lat="45.87645" lon="4.84887">
        <ele>205</ele>
        <time>2017-04-29T08:42:34Z</time>
      </trkpt>
      <trkpt lat="45.87647" lon="4.84889">
        <ele>206</ele>
        <time>2017-04-29T08:42:35Z</time>
      </trkpt>
      <trkpt lat="45.87654" lon="4.84896">
        <ele>206</ele>
        <time>2017-04-29T08:42:39Z</time>
      </trkpt>
      <trkpt lat="45.87656" lon="4.84897">
        <ele>206</ele>
        <time>2017-04-29T08:42:40Z</time>
      </trkpt>
      <trkpt lat="45.87661" lon="4.84905">
        <ele>207</ele>
        <time>2017-04-29T08:42:44Z</time>
      </trkpt>
      <trkpt lat="45.87662" lon="4.84907">
        <ele>207</ele>
        <time>2017-04-29T08:42:45Z</time>
      </trkpt>
      <trkpt lat="45.87669" lon="4.84914">
        <ele>207</ele>
        <time>2017-04-29T08:42:50Z</time>
      </trkpt>
      <trkpt lat="45.8767" lon="4.84916">
        <ele>207</ele>
        <time>2017-04-29T08:42:51Z</time>
      </trkpt>
      <trkpt lat="45.87675" lon="4.84923">
        <ele>209</ele>
        <time>2017-04-29T08:42:55Z</time>
      </trkpt>
      <trkpt lat="45.87677" lon="4.84925">
        <ele>209</ele>
        <time>2017-04-29T08:42:56Z</time>
      </trkpt>
      <trkpt lat="45.87681" lon="4.84935">
        <ele>209</ele>
        <time>2017-04-29T08:43:01Z</time>
      </trkpt>
      <trkpt lat="45.87682" lon="4.84936">
        <ele>209</ele>
        <time>2017-04-29T08:43:02Z</time>
      </trkpt>
      <trkpt lat="45.87689" lon="4.84945">
        <ele>209</ele>
        <time>2017-04-29T08:43:07Z</time>
      </trkpt>
      <trkpt lat="45.8769" lon="4.84946">
        <ele>210</ele>
        <time>2017-04-29T08:43:08Z</time>
      </trkpt>
      <trkpt lat="45.87695" lon="4.84953">
        <ele>210</ele>
        <time>2017-04-29T08:43:12Z</time>
      </trkpt>
      <trkpt lat="45.87697" lon="4.84955">
        <ele>210</ele>
        <time>2017-04-29T08:43:13Z</time>
      </trkpt>
      <trkpt lat="45.87702" lon="4.84962">
        <ele>210</ele>
        <time>2017-04-29T08:43:17Z</time>
      </trkpt>
      <trkpt lat="45.87704" lon="4.84964">
        <ele>210</ele>
        <time>2017-04-29T08:43:18Z</time>
      </trkpt>
      <trkpt lat="45.8771" lon="4.84973">
        <ele>210</ele>
        <time>2017-04-29T08:43:22Z</time>
      </trkpt>
      <trkpt lat="45.87712" lon="4.84975">
        <ele>210</ele>
        <time>2017-04-29T08:43:23Z</time>
      </trkpt>
      <trkpt lat="45.87717" lon="4.84983">
        <ele>210</ele>
        <time>2017-04-29T08:43:27Z</time>
      </trkpt>
      <trkpt lat="45.87719" lon="4.84985">
        <ele>210</ele>
        <time>2017-04-29T08:43:28Z</time>
      </trkpt>
      <trkpt lat="45.87724" lon="4.84993">
        <ele>210</ele>
        <time>2017-04-29T08:43:32Z</time>
      </trkpt>
      <trkpt lat="45.87726" lon="4.84996">
        <ele>210</ele>
        <time>2017-04-29T08:43:33Z</time>
      </trkpt>
      <trkpt lat="45.87732" lon="4.85004">
        <ele>214</ele>
        <time>2017-04-29T08:43:37Z</time>
      </trkpt>
      <trkpt lat="45.87733" lon="4.85006">
        <ele>213</ele>
        <time>2017-04-29T08:43:38Z</time>
      </trkpt>
      <trkpt lat="45.87739" lon="4.85014">
        <ele>213</ele>
        <time>2017-04-29T08:43:42Z</time>
      </trkpt>
      <trkpt lat="45.87741" lon="4.85016">
        <ele>214</ele>
        <time>2017-04-29T08:43:43Z</time>
      </trkpt>
      <trkpt lat="45.87747" lon="4.85023">
        <ele>214</ele>
        <time>2017-04-29T08:43:46Z</time>
      </trkpt>
      <trkpt lat="45.87748" lon="4.85025">
        <ele>214</ele>
        <time>2017-04-29T08:43:47Z</time>
      </trkpt>
      <trkpt lat="45.87753" lon="4.85034">
        <ele>213</ele>
        <time>2017-04-29T08:43:51Z</time>
      </trkpt>
      <trkpt lat="45.87754" lon="4.85036">
        <ele>213</ele>
        <time>2017-04-29T08:43:52Z</time>
      </trkpt>
      <trkpt lat="45.87759" lon="4.85045">
        <ele>213</ele>
        <time>2017-04-29T08:43:56Z</time>
      </trkpt>
      <trkpt lat="45.87761" lon="4.85047">
        <ele>213</ele>
        <time>2017-04-29T08:43:57Z</time>
      </trkpt>
      <trkpt lat="45.87766" lon="4.85055">
        <ele>214</ele>
        <time>2017-04-29T08:44:01Z</time>
      </trkpt>
      <trkpt lat="45.87768" lon="4.85057">
        <ele>214</ele>
        <time>2017-04-29T08:44:02Z</time>
      </trkpt>
      <trkpt lat="45.87774" lon="4.85064">
        <ele>214</ele>
        <time>2017-04-29T08:44:05Z</time>
      </trkpt>
      <trkpt lat="45.87776" lon="4.85067">
        <ele>214</ele>
        <time>2017-04-29T08:44:06Z</time>
      </trkpt>
      <trkpt lat="45.87781" lon="4.85073">
        <ele>214</ele>
        <time>2017-04-29T08:44:09Z</time>
      </trkpt>
      <trkpt lat="45.87783" lon="4.85076">
        <ele>214</ele>
        <time>2017-04-29T08:44:10Z</time>
      </trkpt>
      <trkpt lat="45.87787" lon="4.85083">
        <ele>214</ele>
        <time>2017-04-29T08:44:13Z</time>
      </trkpt>
      <trkpt lat="45.87789" lon="4.85086">
        <ele>218</ele>
        <time>2017-04-29T08:44:14Z</time>
      </trkpt>
      <trkpt lat="45.87795" lon="4.85095">
        <ele>218</ele>
        <time>2017-04-29T08:44:18Z</time>
      </trkpt>
      <trkpt lat="45.87797" lon="4.85097">
        <ele>218</ele>
        <time>2017-04-29T08:44:19Z</time>
      </trkpt>
      <trkpt lat="45.87803" lon="4.85105">
        <ele>218</ele>
        <time>2017-04-29T08:44:23Z</time>
      </trkpt>
      <trkpt lat="45.87804" lon="4.85108">
        <ele>218</ele>
        <time>2017-04-29T08:44:24Z</time>
      </trkpt>
      <trkpt lat="45.87809" lon="4.85116">
        <ele>219</ele>
        <time>2017-04-29T08:44:28Z</time>
      </trkpt>
      <trkpt lat="45.8781" lon="4.85118">
        <ele>219</ele>
        <time>2017-04-29T08:44:29Z</time>
      </trkpt>
      <trkpt lat="45.87816" lon="4.85127">
        <ele>219</ele>
        <time>2017-04-29T08:44:33Z</time>
      </trkpt>
      <trkpt lat="45.87818" lon="4.85129">
        <ele>219</ele>
        <time>2017-04-29T08:44:34Z</time>
      </trkpt>
      <trkpt lat="45.87824" lon="4.85138">
        <ele>220</ele>
        <time>2017-04-29T08:44:38Z</time>
      </trkpt>
      <trkpt lat="45.87826" lon="4.8514">
        <ele>220</ele>
        <time>2017-04-29T08:44:39Z</time>
      </trkpt>
      <trkpt lat="45.87832" lon="4.85149">
        <ele>220</ele>
        <time>2017-04-29T08:44:43Z</time>
      </trkpt>
      <trkpt lat="45.87834" lon="4.85151">
        <ele>219</ele>
        <time>2017-04-29T08:44:44Z</time>
      </trkpt>
      <trkpt lat="45.8784" lon="4.8516">
        <ele>219</ele>
        <time>2017-04-29T08:44:48Z</time>
      </trkpt>
      <trkpt lat="45.87841" lon="4.85162">
        <ele>219</ele>
        <time>2017-04-29T08:44:49Z</time>
      </trkpt>
      <trkpt lat="45.87846" lon="4.8517">
        <ele>222</ele>
        <time>2017-04-29T08:44:52Z</time>
      </trkpt>
      <trkpt lat="45.87848" lon="4.85172">
        <ele>222</ele>
        <time>2017-04-29T08:44:53Z</time>
      </trkpt>
      <trkpt lat="45.87854" lon="4.8518">
        <ele>222</ele>
        <time>2017-04-29T08:44:57Z</time>
      </trkpt>
      <trkpt lat="45.87856" lon="4.85183">
        <ele>223</ele>
        <time>2017-04-29T08:44:58Z</time>
      </trkpt>
      <trkpt lat="45.87862" lon="4.8519">
        <ele>223</ele>
        <time>2017-04-29T08:45:02Z</time>
      </trkpt>
      <trkpt lat="45.87863" lon="4.85193">
        <ele>223</ele>
        <time>2017-04-29T08:45:03Z</time>
      </trkpt>
      <trkpt lat="45.8787" lon="4.852">
        <ele>223</ele>
        <time>2017-04-29T08:45:06Z</time>
      </trkpt>
      <trkpt lat="45.87872" lon="4.85202">
        <ele>223</ele>
        <time>2017-04-29T08:45:07Z</time>
      </trkpt>
      <trkpt lat="45.87878" lon="4.8521">
        <ele>223</ele>
        <time>2017-04-29T08:45:11Z</time>
      </trkpt>
      <trkpt lat="45.8788" lon="4.85211">
        <ele>224</ele>
        <time>2017-04-29T08:45:12Z</time>
      </trkpt>
      <trkpt lat="45.87886" lon="4.85219">
        <ele>224</ele>
        <time>2017-04-29T08:45:16Z</time>
      </trkpt>
      <trkpt lat="45.87888" lon="4.85221">
        <ele>224</ele>
        <time>2017-04-29T08:45:17Z</time>
      </trkpt>
      <trkpt lat="45.87893" lon="4.8523">
        <ele>224</ele>
        <time>2017-04-29T08:45:21Z</time>
      </trkpt>
      <trkpt lat="45.87895" lon="4.85232">
        <ele>224</ele>
        <time>2017-04-29T08:45:22Z</time>
      </trkpt>
      <trkpt lat="45.87901" lon="4.85241">
        <ele>225</ele>
        <time>2017-04-29T08:45:26Z</time>
      </trkpt>
      <trkpt lat="45.87902" lon="4.85243">
        <ele>225</ele>
        <time>2017-04-29T08:45:27Z</time>
      </trkpt>
      <trkpt lat="45.87907" lon="4.8525">
        <ele>228</ele>
        <time>2017-04-29T08:45:30Z</time>
      </trkpt>
      <trkpt lat="45.87909" lon="4.85253">
        <ele>228</ele>
        <time>2017-04-29T08:45:31Z</time>
      </trkpt>
      <trkpt lat="45.87913" lon="4.8526">
        <ele>228</ele>
        <time>2017-04-29T08:45:34Z</time>
      </trkpt>
      <trkpt lat="45.87915" lon="4.85262">
        <ele>228</ele>
        <time>2017-04-29T08:45:35Z</time>
      </trkpt>
      <trkpt lat="45.8792" lon="4.85268">
        <ele>227</ele>
        <time>2017-04-29T08:45:38Z</time>
      </trkpt>
      <trkpt lat="45.87922" lon="4.8527">
        <ele>227</ele>
        <time>2017-04-29T08:45:39Z</time>
      </trkpt>
      <trkpt lat="45.87928" lon="4.85279">
        <ele>227</ele>
        <time>2017-04-29T08:45:43Z</time>
      </trkpt>
      <trkpt lat="45.87929" lon="4.85281">
        <ele>228</ele>
        <time>2017-04-29T08:45:44Z</time>
      </trkpt>
      <trkpt lat="45.87934" lon="4.8529">
        <ele>228</ele>
        <time>2017-04-29T08:45:48Z</time>
      </trkpt>
      <trkpt lat="45.87936" lon="4.85292">
        <ele>228</ele>
        <time>2017-04-29T08:45:49Z</time>
      </trkpt>
      <trkpt lat="45.87941" lon="4.85301">
        <ele>229</ele>
        <time>2017-04-29T08:45:53Z</time>
      </trkpt>
      <trkpt lat="45.87942" lon="4.85303">
        <ele>229</ele>
        <time>2017-04-29T08:45:54Z</time>
      </trkpt>
      <trkpt lat="45.87947" lon="4.85311">
        <ele>229</ele>
        <time>2017-04-29T08:45:58Z</time>
      </trkpt>
      <trkpt lat="45.87949" lon="4.85313">
        <ele>229</ele>
        <time>2017-04-29T08:45:59Z</time>
      </trkpt>
      <trkpt lat="45.87954" lon="4.8532">
        <ele>229</ele>
        <time>2017-04-29T08:46:03Z</time>
      </trkpt>
      <trkpt lat="45.87956" lon="4.85322">
        <ele>229</ele>
        <time>2017-04-29T08:46:04Z</time>
      </trkpt>
      <trkpt lat="45.87962" lon="4.85331">
        <ele>229</ele>
        <time>2017-04-29T08:46:08Z</time>
      </trkpt>
      <trkpt lat="45.87963" lon="4.85333">
        <ele>229</ele>
        <time>2017-04-29T08:46:09Z</time>
      </trkpt>
      <trkpt lat="45.8797" lon="4.85341">
        <ele>235</ele>
        <time>2017-04-29T08:46:13Z</time>
      </trkpt>
      <trkpt lat="45.87971" lon="4.85344">
        <ele>235</ele>
        <time>2017-04-29T08:46:14Z</time>
      </trkpt>
      <trkpt lat="45.87977" lon="4.85353">
        <ele>235</ele>
        <time>2017-04-29T08:46:18Z</time>
      </trkpt>
      <trkpt lat="45.87979" lon="4.85355">
        <ele>235</ele>
        <time>2017-04-29T08:46:19Z</time>
      </trkpt>
      <trkpt lat="45.87983" lon="4.85363">
        <ele>235</ele>
        <time>2017-04-29T08:46:23Z</time>
      </trkpt>
      <trkpt lat="45.87985" lon="4.85365">
        <ele>236</ele>
        <time>2017-04-29T08:46:24Z</time>
      </trkpt>
      <trkpt lat="45.8799" lon="4.85373">
        <ele>236</ele>
        <time>2017-04-29T08:46:28Z</time>
      </trkpt>
      <trkpt lat="45.87991" lon="4.85375">
        <ele>236</ele>
        <time>2017-04-29T08:46:29Z</time>
      </trkpt>
      <trkpt lat="45.87997" lon="4.85384">
        <ele>237</ele>
        <time>2017-04-29T08:46:33Z</time>
      </trkpt>
      <trkpt lat="45.87998" lon="4.85386">
        <ele>237</ele>
        <time>2017-04-29T08:46:34Z</time>
      </trkpt>
      <trkpt lat="45.88005" lon="4.85393">
        <ele>238</ele>
        <time>2017-04-29T08:46:38Z</time>
      </trkpt>
      <trkpt lat="45.88007" lon="4.85395">
        <ele>238</ele>
        <time>2017-04-29T08:46:39Z</time>
      </trkpt>
      <trkpt lat="45.88014" lon="4.85402">
        <ele>238</ele>
        <time>2017-04-29T08:46:43Z</time>
      </trkpt>
      <trkpt lat="45.88016" lon="4.85403">
        <ele>238</ele>
        <time>2017-04-29T08:46:44Z</time>
      </trkpt>
      <trkpt lat="45.88025" lon="4.85406">
        <ele>238</ele>
        <time>2017-04-29T08:46:48Z</time>
      </trkpt>
      <trkpt lat="45.88027" lon="4.85407">
        <ele>238</ele>
        <time>2017-04-29T08:46:49Z</time>
      </trkpt>
      <trkpt lat="45.88035" lon="4.85408">
        <ele>238</ele>
        <time>2017-04-29T08:46:53Z</time>
      </trkpt>
      <trkpt lat="45.88037" lon="4.85408">
        <ele>238</ele>
        <time>2017-04-29T08:46:54Z</time>
      </trkpt>
      <trkpt lat="45.88046" lon="4.85407">
        <ele>238</ele>
        <time>2017-04-29T08:46:58Z</time>
      </trkpt>
      <trkpt lat="45.88048" lon="4.85408">
        <ele>238</ele>
        <time>2017-04-29T08:46:59Z</time>
      </trkpt>
      <trkpt lat="45.88056" lon="4.85406">
        <ele>239</ele>
        <time>2017-04-29T08:47:03Z</time>
      </trkpt>
      <trkpt lat="45.88058" lon="4.85406">
        <ele>239</ele>
        <time>2017-04-29T08:47:04Z</time>
      </trkpt>
      <trkpt lat="45.88066" lon="4.85403">
        <ele>239</ele>
        <time>2017-04-29T08:47:08Z</time>
      </trkpt>
      <trkpt lat="45.88068" lon="4.85404">
        <ele>239</ele>
        <time>2017-04-29T08:47:09Z</time>
      </trkpt>
      <trkpt lat="45.88077" lon="4.85404">
        <ele>240</ele>
        <time>2017-04-29T08:47:13Z</time>
      </trkpt>
      <trkpt lat="45.88079" lon="4.85404">
        <ele>240</ele>
        <time>2017-04-29T08:47:14Z</time>
      </trkpt>
      <trkpt lat="45.88088" lon="4.85403">
        <ele>242</ele>
        <time>2017-04-29T08:47:18Z</time>
      </trkpt>
      <trkpt lat="45.8809" lon="4.85403">
        <ele>242</ele>
        <time>2017-04-29T08:47:19Z</time>
      </trkpt>
      <trkpt lat="45.88098" lon="4.85402">
        <ele>241</ele>
        <time>2017-04-29T08:47:22Z</time>
      </trkpt>
      <trkpt lat="45.881" lon="4.85401">
        <ele>241</ele>
        <time>2017-04-29T08:47:23Z</time>
      </trkpt>
      <trkpt lat="45.88109" lon="4.85399">
        <ele>241</ele>
        <time>2017-04-29T08:47:27Z</time>
      </trkpt>
      <trkpt lat="45.88111" lon="4.85398">
        <ele>241</ele>
        <time>2017-04-29T08:47:28Z</time>
      </trkpt>
      <trkpt lat="45.88118" lon="4.85395">
        <ele>241</ele>
        <time>2017-04-29T08:47:32Z</time>
      </trkpt>
      <trkpt lat="45.8812" lon="4.85395">
        <ele>241</ele>
        <time>2017-04-29T08:47:33Z</time>
      </trkpt>
      <trkpt lat="45.88128" lon="4.85392">
        <ele>241</ele>
        <time>2017-04-29T08:47:37Z</time>
      </trkpt>
      <trkpt lat="45.8813" lon="4.85391">
        <ele>241</ele>
        <time>2017-04-29T08:47:38Z</time>
      </trkpt>
      <trkpt lat="45.88136" lon="4.85387">
        <ele>241</ele>
        <time>2017-04-29T08:47:41Z</time>
      </trkpt>
      <trkpt lat="45.88138" lon="4.85386">
        <ele>241</ele>
        <time>2017-04-29T08:47:42Z</time>
      </trkpt>
      <trkpt lat="45.88146" lon="4.85382">
        <ele>240</ele>
        <time>2017-04-29T08:47:46Z</time>
      </trkpt>
      <trkpt lat="45.88148" lon="4.85381">
        <ele>240</ele>
        <time>2017-04-29T08:47:47Z</time>
      </trkpt>
      <trkpt lat="45.88156" lon="4.85377">
        <ele>240</ele>
        <time>2017-04-29T08:47:51Z</time>
      </trkpt>
      <trkpt lat="45.88158" lon="4.85376">
        <ele>240</ele>
        <time>2017-04-29T08:47:52Z</time>
      </trkpt>
      <trkpt lat="45.88164" lon="4.85381">
        <ele>241</ele>
        <time>2017-04-29T08:47:55Z</time>
      </trkpt>
      <trkpt lat="45.88165" lon="4.85385">
        <ele>242</ele>
        <time>2017-04-29T08:47:56Z</time>
      </trkpt>
      <trkpt lat="45.88169" lon="4.85394">
        <ele>247</ele>
        <time>2017-04-29T08:47:59Z</time>
      </trkpt>
      <trkpt lat="45.88169" lon="4.85397">
        <ele>247</ele>
        <time>2017-04-29T08:48:00Z</time>
      </trkpt>
      <trkpt lat="45.88168" lon="4.85409">
        <ele>249</ele>
        <time>2017-04-29T08:48:04Z</time>
      </trkpt>
      <trkpt lat="45.88167" lon="4.8541">
        <ele>249</ele>
        <time>2017-04-29T08:48:05Z</time>
      </trkpt>
      <trkpt lat="45.8816" lon="4.85418">
        <ele>251</ele>
        <time>2017-04-29T08:48:13Z</time>
      </trkpt>
      <trkpt lat="45.88159" lon="4.8542">
        <ele>251</ele>
        <time>2017-04-29T08:48:14Z</time>
      </trkpt>
      <trkpt lat="45.88151" lon="4.85424">
        <ele>252</ele>
        <time>2017-04-29T08:48:20Z</time>
      </trkpt>
      <trkpt lat="45.8815" lon="4.85424">
        <ele>253</ele>
        <time>2017-04-29T08:48:21Z</time>
      </trkpt>
      <trkpt lat="45.88143" lon="4.85427">
        <ele>253</ele>
        <time>2017-04-29T08:48:24Z</time>
      </trkpt>
      <trkpt lat="45.88141" lon="4.85428">
        <ele>253</ele>
        <time>2017-04-29T08:48:25Z</time>
      </trkpt>
      <trkpt lat="45.88133" lon="4.8543">
        <ele>253</ele>
        <time>2017-04-29T08:48:29Z</time>
      </trkpt>
      <trkpt lat="45.88131" lon="4.85432">
        <ele>253</ele>
        <time>2017-04-29T08:48:30Z</time>
      </trkpt>
      <trkpt lat="45.88125" lon="4.85438">
        <ele>254</ele>
        <time>2017-04-29T08:48:34Z</time>
      </trkpt>
      <trkpt lat="45.88123" lon="4.85439">
        <ele>254</ele>
        <time>2017-04-29T08:48:35Z</time>
      </trkpt>
      <trkpt lat="45.88116" lon="4.85443">
        <ele>254</ele>
        <time>2017-04-29T08:48:38Z</time>
      </trkpt>
      <trkpt lat="45.88114" lon="4.85444">
        <ele>254</ele>
        <time>2017-04-29T08:48:39Z</time>
      </trkpt>
      <trkpt lat="45.88106" lon="4.85447">
        <ele>253</ele>
        <time>2017-04-29T08:48:42Z</time>
      </trkpt>
      <trkpt lat="45.88103" lon="4.85447">
        <ele>253</ele>
        <time>2017-04-29T08:48:43Z</time>
      </trkpt>
      <trkpt lat="45.88095" lon="4.85452">
        <ele>254</ele>
        <time>2017-04-29T08:48:47Z</time>
      </trkpt>
      <trkpt lat="45.88093" lon="4.85454">
        <ele>254</ele>
        <time>2017-04-29T08:48:48Z</time>
      </trkpt>
      <trkpt lat="45.88088" lon="4.85461">
        <ele>255</ele>
        <time>2017-04-29T08:48:52Z</time>
      </trkpt>
      <trkpt lat="45.88086" lon="4.85463">
        <ele>255</ele>
        <time>2017-04-29T08:48:53Z</time>
      </trkpt>
      <trkpt lat="45.88079" lon="4.85469">
        <ele>253</ele>
        <time>2017-04-29T08:48:57Z</time>
      </trkpt>
      <trkpt lat="45.88078" lon="4.85471">
        <ele>253</ele>
        <time>2017-04-29T08:48:58Z</time>
      </trkpt>
      <trkpt lat="45.88072" lon="4.85478">
        <ele>254</ele>
        <time>2017-04-29T08:49:02Z</time>
      </trkpt>
      <trkpt lat="45.8807" lon="4.8548">
        <ele>254</ele>
        <time>2017-04-29T08:49:03Z</time>
      </trkpt>
      <trkpt lat="45.88063" lon="4.85488">
        <ele>255</ele>
        <time>2017-04-29T08:49:07Z</time>
      </trkpt>
      <trkpt lat="45.88062" lon="4.85489">
        <ele>255</ele>
        <time>2017-04-29T08:49:08Z</time>
      </trkpt>
      <trkpt lat="45.88056" lon="4.85496">
        <ele>254</ele>
        <time>2017-04-29T08:49:12Z</time>
      </trkpt>
      <trkpt lat="45.88055" lon="4.85497">
        <ele>254</ele>
        <time>2017-04-29T08:49:13Z</time>
      </trkpt>
      <trkpt lat="45.8805" lon="4.85505">
        <ele>262</ele>
        <time>2017-04-29T08:49:17Z</time>
      </trkpt>
      <trkpt lat="45.88048" lon="4.85506">
        <ele>262</ele>
        <time>2017-04-29T08:49:18Z</time>
      </trkpt>
      <trkpt lat="45.88041" lon="4.85512">
        <ele>262</ele>
        <time>2017-04-29T08:49:23Z</time>
      </trkpt>
      <trkpt lat="45.88039" lon="4.85513">
        <ele>262</ele>
        <time>2017-04-29T08:49:24Z</time>
      </trkpt>
      <trkpt lat="45.88032" lon="4.85518">
        <ele>262</ele>
        <time>2017-04-29T08:49:28Z</time>
      </trkpt>
      <trkpt lat="45.88031" lon="4.85519">
        <ele>261</ele>
        <time>2017-04-29T08:49:29Z</time>
      </trkpt>
      <trkpt lat="45.88023" lon="4.85525">
        <ele>261</ele>
        <time>2017-04-29T08:49:34Z</time>
      </trkpt>
      <trkpt lat="45.88022" lon="4.85527">
        <ele>261</ele>
        <time>2017-04-29T08:49:35Z</time>
      </trkpt>
      <trkpt lat="45.88015" lon="4.85532">
        <ele>262</ele>
        <time>2017-04-29T08:49:39Z</time>
      </trkpt>
      <trkpt lat="45.88014" lon="4.85534">
        <ele>262</ele>
        <time>2017-04-29T08:49:40Z</time>
      </trkpt>
      <trkpt lat="45.88007" lon="4.85539">
        <ele>262</ele>
        <time>2017-04-29T08:49:44Z</time>
      </trkpt>
      <trkpt lat="45.88005" lon="4.85541">
        <ele>262</ele>
        <time>2017-04-29T08:49:45Z</time>
      </trkpt>
      <trkpt lat="45.87998" lon="4.85545">
        <ele>258</ele>
        <time>2017-04-29T08:49:49Z</time>
      </trkpt>
      <trkpt lat="45.87997" lon="4.85547">
        <ele>258</ele>
        <time>2017-04-29T08:49:50Z</time>
      </trkpt>
      <trkpt lat="45.87991" lon="4.85555">
        <ele>259</ele>
        <time>2017-04-29T08:49:54Z</time>
      </trkpt>
      <trkpt lat="45.8799" lon="4.85557">
        <ele>259</ele>
        <time>2017-04-29T08:49:55Z</time>
      </trkpt>
      <trkpt lat="45.87985" lon="4.85566">
        <ele>260</ele>
        <time>2017-04-29T08:49:59Z</time>
      </trkpt>
      <trkpt lat="45.87983" lon="4.85569">
        <ele>260</ele>
        <time>2017-04-29T08:50:00Z</time>
      </trkpt>
      <trkpt lat="45.8798" lon="4.85579">
        <ele>261</ele>
        <time>2017-04-29T08:50:03Z</time>
      </trkpt>
      <trkpt lat="45.87979" lon="4.85581">
        <ele>260</ele>
        <time>2017-04-29T08:50:04Z</time>
      </trkpt>
      <trkpt lat="45.87974" lon="4.85591">
        <ele>265</ele>
        <time>2017-04-29T08:50:09Z</time>
      </trkpt>
      <trkpt lat="45.87973" lon="4.85593">
        <ele>265</ele>
        <time>2017-04-29T08:50:10Z</time>
      </trkpt>
      <trkpt lat="45.87969" lon="4.85602">
        <ele>265</ele>
        <time>2017-04-29T08:50:13Z</time>
      </trkpt>
      <trkpt lat="45.87968" lon="4.85605">
        <ele>265</ele>
        <time>2017-04-29T08:50:14Z</time>
      </trkpt>
      <trkpt lat="45.87966" lon="4.85614">
        <ele>265</ele>
        <time>2017-04-29T08:50:17Z</time>
      </trkpt>
      <trkpt lat="45.87965" lon="4.85618">
        <ele>265</ele>
        <time>2017-04-29T08:50:18Z</time>
      </trkpt>
      <trkpt lat="45.87964" lon="4.8563">
        <ele>266</ele>
        <time>2017-04-29T08:50:22Z</time>
      </trkpt>
      <trkpt lat="45.87965" lon="4.85632">
        <ele>266</ele>
        <time>2017-04-29T08:50:23Z</time>
      </trkpt>
      <trkpt lat="45.87967" lon="4.85643">
        <ele>267</ele>
        <time>2017-04-29T08:50:27Z</time>
      </trkpt>
      <trkpt lat="45.87967" lon="4.85645">
        <ele>267</ele>
        <time>2017-04-29T08:50:28Z</time>
      </trkpt>
      <trkpt lat="45.87969" lon="4.85657">
        <ele>268</ele>
        <time>2017-04-29T08:50:32Z</time>
      </trkpt>
      <trkpt lat="45.87969" lon="4.85659">
        <ele>268</ele>
        <time>2017-04-29T08:50:33Z</time>
      </trkpt>
      <trkpt lat="45.87972" lon="4.85671">
        <ele>273</ele>
        <time>2017-04-29T08:50:38Z</time>
      </trkpt>
      <trkpt lat="45.87972" lon="4.85673">
        <ele>273</ele>
        <time>2017-04-29T08:50:39Z</time>
      </trkpt>
      <trkpt lat="45.87975" lon="4.85683">
        <ele>273</ele>
        <time>2017-04-29T08:50:43Z</time>
      </trkpt>
      <trkpt lat="45.87975" lon="4.85686">
        <ele>273</ele>
        <time>2017-04-29T08:50:44Z</time>
      </trkpt>
      <trkpt lat="45.87978" lon="4.85695">
        <ele>274</ele>
        <time>2017-04-29T08:50:47Z</time>
      </trkpt>
      <trkpt lat="45.87979" lon="4.85698">
        <ele>274</ele>
        <time>2017-04-29T08:50:48Z</time>
      </trkpt>
      <trkpt lat="45.87979" lon="4.85711">
        <ele>274</ele>
        <time>2017-04-29T08:50:53Z</time>
      </trkpt>
      <trkpt lat="45.87979" lon="4.85713">
        <ele>274</ele>
        <time>2017-04-29T08:50:54Z</time>
      </trkpt>
      <trkpt lat="45.87979" lon="4.85725">
        <ele>275</ele>
        <time>2017-04-29T08:50:59Z</time>
      </trkpt>
      <trkpt lat="45.87978" lon="4.85728">
        <ele>275</ele>
        <time>2017-04-29T08:51:00Z</time>
      </trkpt>
      <trkpt lat="45.87977" lon="4.8574">
        <ele>275</ele>
        <time>2017-04-29T08:51:06Z</time>
      </trkpt>
      <trkpt lat="45.87975" lon="4.85742">
        <ele>275</ele>
        <time>2017-04-29T08:51:07Z</time>
      </trkpt>
      <trkpt lat="45.87969" lon="4.8575">
        <ele>275</ele>
        <time>2017-04-29T08:51:12Z</time>
      </trkpt>
      <trkpt lat="45.87968" lon="4.85751">
        <ele>279</ele>
        <time>2017-04-29T08:51:13Z</time>
      </trkpt>
      <trkpt lat="45.87963" lon="4.85759">
        <ele>279</ele>
        <time>2017-04-29T08:51:18Z</time>
      </trkpt>
      <trkpt lat="45.87962" lon="4.85761">
        <ele>279</ele>
        <time>2017-04-29T08:51:19Z</time>
      </trkpt>
      <trkpt lat="45.87955" lon="4.85768">
        <ele>280</ele>
        <time>2017-04-29T08:51:24Z</time>
      </trkpt>
      <trkpt lat="45.87954" lon="4.85769">
        <ele>280</ele>
        <time>2017-04-29T08:51:25Z</time>
      </trkpt>
      <trkpt lat="45.87948" lon="4.85776">
        <ele>280</ele>
        <time>2017-04-29T08:51:29Z</time>
      </trkpt>
      <trkpt lat="45.87946" lon="4.85778">
        <ele>280</ele>
        <time>2017-04-29T08:51:30Z</time>
      </trkpt>
      <trkpt lat="45.87939" lon="4.85784">
        <ele>280</ele>
        <time>2017-04-29T08:51:35Z</time>
      </trkpt>
      <trkpt lat="45.87938" lon="4.85785">
        <ele>280</ele>
        <time>2017-04-29T08:51:36Z</time>
      </trkpt>
      <trkpt lat="45.8793" lon="4.85793">
        <ele>280</ele>
        <time>2017-04-29T08:51:41Z</time>
      </trkpt>
      <trkpt lat="45.87928" lon="4.85794">
        <ele>280</ele>
        <time>2017-04-29T08:51:42Z</time>
      </trkpt>
      <trkpt lat="45.87922" lon="4.85799">
        <ele>280</ele>
        <time>2017-04-29T08:51:46Z</time>
      </trkpt>
      <trkpt lat="45.87921" lon="4.85801">
        <ele>280</ele>
        <time>2017-04-29T08:51:47Z</time>
      </trkpt>
      <trkpt lat="45.87915" lon="4.85811">
        <ele>280</ele>
        <time>2017-04-29T08:51:51Z</time>
      </trkpt>
      <trkpt lat="45.87914" lon="4.85813">
        <ele>281</ele>
        <time>2017-04-29T08:51:52Z</time>
      </trkpt>
      <trkpt lat="45.87908" lon="4.85819">
        <ele>281</ele>
        <time>2017-04-29T08:51:56Z</time>
      </trkpt>
      <trkpt lat="45.87906" lon="4.85823">
        <ele>281</ele>
        <time>2017-04-29T08:51:57Z</time>
      </trkpt>
      <trkpt lat="45.87899" lon="4.8583">
        <ele>281</ele>
        <time>2017-04-29T08:52:01Z</time>
      </trkpt>
      <trkpt lat="45.87897" lon="4.85831">
        <ele>281</ele>
        <time>2017-04-29T08:52:02Z</time>
      </trkpt>
      <trkpt lat="45.87892" lon="4.85838">
        <ele>284</ele>
        <time>2017-04-29T08:52:05Z</time>
      </trkpt>
      <trkpt lat="45.87889" lon="4.8584">
        <ele>284</ele>
        <time>2017-04-29T08:52:06Z</time>
      </trkpt>
      <trkpt lat="45.87884" lon="4.85848">
        <ele>284</ele>
        <time>2017-04-29T08:52:10Z</time>
      </trkpt>
      <trkpt lat="45.87882" lon="4.85849">
        <ele>284</ele>
        <time>2017-04-29T08:52:11Z</time>
      </trkpt>
      <trkpt lat="45.87876" lon="4.85856">
        <ele>284</ele>
        <time>2017-04-29T08:52:16Z</time>
      </trkpt>
      <trkpt lat="45.87875" lon="4.85857">
        <ele>284</ele>
        <time>2017-04-29T08:52:17Z</time>
      </trkpt>
      <trkpt lat="45.87869" lon="4.85865">
        <ele>284</ele>
        <time>2017-04-29T08:52:20Z</time>
      </trkpt>
      <trkpt lat="45.87867" lon="4.85868">
        <ele>284</ele>
        <time>2017-04-29T08:52:21Z</time>
      </trkpt>
      <trkpt lat="45.87859" lon="4.85873">
        <ele>284</ele>
        <time>2017-04-29T08:52:25Z</time>
      </trkpt>
      <trkpt lat="45.87857" lon="4.85876">
        <ele>285</ele>
        <time>2017-04-29T08:52:26Z</time>
      </trkpt>
      <trkpt lat="45.8785" lon="4.85884">
        <ele>285</ele>
        <time>2017-04-29T08:52:30Z</time>
      </trkpt>
      <trkpt lat="45.87848" lon="4.85886">
        <ele>285</ele>
        <time>2017-04-29T08:52:31Z</time>
      </trkpt>
      <trkpt lat="45.87844" lon="4.85894">
        <ele>285</ele>
        <time>2017-04-29T08:52:35Z</time>
      </trkpt>
      <trkpt lat="45.87843" lon="4.85897">
        <ele>285</ele>
        <time>2017-04-29T08:52:36Z</time>
      </trkpt>
      <trkpt lat="45.87841" lon="4.85907">
        <ele>285</ele>
        <time>2017-04-29T08:52:40Z</time>
      </trkpt>
      <trkpt lat="45.8784" lon="4.8591">
        <ele>285</ele>
        <time>2017-04-29T08:52:41Z</time>
      </trkpt>
      <trkpt lat="45.87837" lon="4.85919">
        <ele>286</ele>
        <time>2017-04-29T08:52:45Z</time>
      </trkpt>
      <trkpt lat="45.87837" lon="4.85922">
        <ele>286</ele>
        <time>2017-04-29T08:52:46Z</time>
      </trkpt>
      <trkpt lat="45.87836" lon="4.85932">
        <ele>287</ele>
        <time>2017-04-29T08:52:50Z</time>
      </trkpt>
      <trkpt lat="45.87836" lon="4.85935">
        <ele>287</ele>
        <time>2017-04-29T08:52:51Z</time>
      </trkpt>
      <trkpt lat="45.87838" lon="4.85947">
        <ele>288</ele>
        <time>2017-04-29T08:52:56Z</time>
      </trkpt>
      <trkpt lat="45.87839" lon="4.8595">
        <ele>288</ele>
        <time>2017-04-29T08:52:57Z</time>
      </trkpt>
      <trkpt lat="45.87843" lon="4.8596">
        <ele>288</ele>
        <time>2017-04-29T08:53:01Z</time>
      </trkpt>
      <trkpt lat="45.87845" lon="4.85963">
        <ele>288</ele>
        <time>2017-04-29T08:53:02Z</time>
      </trkpt>
      <trkpt lat="45.8785" lon="4.85973">
        <ele>288</ele>
        <time>2017-04-29T08:53:06Z</time>
      </trkpt>
      <trkpt lat="45.87851" lon="4.85974">
        <ele>289</ele>
        <time>2017-04-29T08:53:07Z</time>
      </trkpt>
      <trkpt lat="45.87859" lon="4.85982">
        <ele>289</ele>
        <time>2017-04-29T08:53:12Z</time>
      </trkpt>
      <trkpt lat="45.8786" lon="4.85984">
        <ele>289</ele>
        <time>2017-04-29T08:53:13Z</time>
      </trkpt>
      <trkpt lat="45.87867" lon="4.85989">
        <ele>289</ele>
        <time>2017-04-29T08:53:17Z</time>
      </trkpt>
      <trkpt lat="45.87869" lon="4.85991">
        <ele>289</ele>
        <time>2017-04-29T08:53:18Z</time>
      </trkpt>
      <trkpt lat="45.87875" lon="4.85995">
        <ele>290</ele>
        <time>2017-04-29T08:53:22Z</time>
      </trkpt>
      <trkpt lat="45.87877" lon="4.85995">
        <ele>290</ele>
        <time>2017-04-29T08:53:23Z</time>
      </trkpt>
      <trkpt lat="45.87884" lon="4.85995">
        <ele>290</ele>
        <time>2017-04-29T08:53:26Z</time>
      </trkpt>
      <trkpt lat="45.87887" lon="4.85995">
        <ele>291</ele>
        <time>2017-04-29T08:53:27Z</time>
      </trkpt>
      <trkpt lat="45.87895" lon="4.85993">
        <ele>291</ele>
        <time>2017-04-29T08:53:31Z</time>
      </trkpt>
      <trkpt lat="45.87897" lon="4.85992">
        <ele>291</ele>
        <time>2017-04-29T08:53:32Z</time>
      </trkpt>
      <trkpt lat="45.87904" lon="4.85986">
        <ele>292</ele>
        <time>2017-04-29T08:53:36Z</time>
      </trkpt>
      <trkpt lat="45.87906" lon="4.85986">
        <ele>292</ele>
        <time>2017-04-29T08:53:37Z</time>
      </trkpt>
      <trkpt lat="45.87913" lon="4.85984">
        <ele>292</ele>
        <time>2017-04-29T08:53:40Z</time>
      </trkpt>
      <trkpt lat="45.87915" lon="4.85983">
        <ele>292</ele>
        <time>2017-04-29T08:53:41Z</time>
      </trkpt>
      <trkpt lat="45.87923" lon="4.8598">
        <ele>294</ele>
        <time>2017-04-29T08:53:45Z</time>
      </trkpt>
      <trkpt lat="45.87925" lon="4.85978">
        <ele>294</ele>
        <time>2017-04-29T08:53:46Z</time>
      </trkpt>
      <trkpt lat="45.87932" lon="4.85978">
        <ele>294</ele>
        <time>2017-04-29T08:53:49Z</time>
      </trkpt>
      <trkpt lat="45.87934" lon="4.8598">
        <ele>294</ele>
        <time>2017-04-29T08:53:50Z</time>
      </trkpt>
      <trkpt lat="45.8794" lon="4.85987">
        <ele>295</ele>
        <time>2017-04-29T08:53:53Z</time>
      </trkpt>
      <trkpt lat="45.87942" lon="4.85988">
        <ele>295</ele>
        <time>2017-04-29T08:53:54Z</time>
      </trkpt>
      <trkpt lat="45.87946" lon="4.85997">
        <ele>295</ele>
        <time>2017-04-29T08:53:58Z</time>
      </trkpt>
      <trkpt lat="45.87948" lon="4.86">
        <ele>295</ele>
        <time>2017-04-29T08:53:59Z</time>
      </trkpt>
      <trkpt lat="45.87953" lon="4.86007">
        <ele>298</ele>
        <time>2017-04-29T08:54:02Z</time>
      </trkpt>
      <trkpt lat="45.87955" lon="4.86008">
        <ele>299</ele>
        <time>2017-04-29T08:54:03Z</time>
      </trkpt>
      <trkpt lat="45.87962" lon="4.86015">
        <ele>299</ele>
        <time>2017-04-29T08:54:08Z</time>
      </trkpt>
      <trkpt lat="45.87964" lon="4.86015">
        <ele>299</ele>
        <time>2017-04-29T08:54:09Z</time>
      </trkpt>
      <trkpt lat="45.87972" lon="4.86013">
        <ele>299</ele>
        <time>2017-04-29T08:54:13Z</time>
      </trkpt>
      <trkpt lat="45.87974" lon="4.86013">
        <ele>299</ele>
        <time>2017-04-29T08:54:14Z</time>
      </trkpt>
      <trkpt lat="45.87982" lon="4.86011">
        <ele>299</ele>
        <time>2017-04-29T08:54:18Z</time>
      </trkpt>
      <trkpt lat="45.87984" lon="4.8601">
        <ele>300</ele>
        <time>2017-04-29T08:54:19Z</time>
      </trkpt>
      <trkpt lat="45.87992" lon="4.86008">
        <ele>300</ele>
        <time>2017-04-29T08:54:22Z</time>
      </trkpt>
      <trkpt lat="45.87995" lon="4.86004">
        <ele>300</ele>
        <time>2017-04-29T08:54:23Z</time>
      </trkpt>
      <trkpt lat="45.88002" lon="4.86003">
        <ele>300</ele>
        <time>2017-04-29T08:54:26Z</time>
      </trkpt>
      <trkpt lat="45.88005" lon="4.86003">
        <ele>300</ele>
        <time>2017-04-29T08:54:27Z</time>
      </trkpt>
      <trkpt lat="45.88012" lon="4.86008">
        <ele>300</ele>
        <time>2017-04-29T08:54:31Z</time>
      </trkpt>
      <trkpt lat="45.88014" lon="4.8601">
        <ele>300</ele>
        <time>2017-04-29T08:54:32Z</time>
      </trkpt>
      <trkpt lat="45.88018" lon="4.86019">
        <ele>300</ele>
        <time>2017-04-29T08:54:35Z</time>
      </trkpt>
      <trkpt lat="45.88019" lon="4.86022">
        <ele>300</ele>
        <time>2017-04-29T08:54:36Z</time>
      </trkpt>
      <trkpt lat="45.88023" lon="4.86033">
        <ele>301</ele>
        <time>2017-04-29T08:54:39Z</time>
      </trkpt>
      <trkpt lat="45.88024" lon="4.86038">
        <ele>301</ele>
        <time>2017-04-29T08:54:40Z</time>
      </trkpt>
      <trkpt lat="45.88026" lon="4.86046">
        <ele>301</ele>
        <time>2017-04-29T08:54:42Z</time>
      </trkpt>
      <trkpt lat="45.88027" lon="4.8605">
        <ele>301</ele>
        <time>2017-04-29T08:54:43Z</time>
      </trkpt>
      <trkpt lat="45.8803" lon="4.8606">
        <ele>301</ele>
        <time>2017-04-29T08:54:46Z</time>
      </trkpt>
      <trkpt lat="45.88031" lon="4.86064">
        <ele>301</ele>
        <time>2017-04-29T08:54:47Z</time>
      </trkpt>
      <trkpt lat="45.88033" lon="4.86074">
        <ele>301</ele>
        <time>2017-04-29T08:54:50Z</time>
      </trkpt>
      <trkpt lat="45.88034" lon="4.86077">
        <ele>301</ele>
        <time>2017-04-29T08:54:51Z</time>
      </trkpt>
      <trkpt lat="45.88036" lon="4.86087">
        <ele>303</ele>
        <time>2017-04-29T08:54:54Z</time>
      </trkpt>
      <trkpt lat="45.88037" lon="4.86091">
        <ele>303</ele>
        <time>2017-04-29T08:54:55Z</time>
      </trkpt>
      <trkpt lat="45.88038" lon="4.86101">
        <ele>304</ele>
        <time>2017-04-29T08:54:58Z</time>
      </trkpt>
      <trkpt lat="45.88038" lon="4.86104">
        <ele>304</ele>
        <time>2017-04-29T08:54:59Z</time>
      </trkpt>
      <trkpt lat="45.88042" lon="4.86116">
        <ele>304</ele>
        <time>2017-04-29T08:55:02Z</time>
      </trkpt>
      <trkpt lat="45.88043" lon="4.8612">
        <ele>304</ele>
        <time>2017-04-29T08:55:03Z</time>
      </trkpt>
      <trkpt lat="45.88046" lon="4.86131">
        <ele>304</ele>
        <time>2017-04-29T08:55:06Z</time>
      </trkpt>
      <trkpt lat="45.88047" lon="4.86134">
        <ele>304</ele>
        <time>2017-04-29T08:55:07Z</time>
      </trkpt>
      <trkpt lat="45.88049" lon="4.86145">
        <ele>304</ele>
        <time>2017-04-29T08:55:10Z</time>
      </trkpt>
      <trkpt lat="45.8805" lon="4.86148">
        <ele>304</ele>
        <time>2017-04-29T08:55:11Z</time>
      </trkpt>
      <trkpt lat="45.88053" lon="4.8616">
        <ele>304</ele>
        <time>2017-04-29T08:55:14Z</time>
      </trkpt>
      <trkpt lat="45.88054" lon="4.86163">
        <ele>304</ele>
        <time>2017-04-29T08:55:15Z</time>
      </trkpt>
      <trkpt lat="45.88059" lon="4.86173">
        <ele>306</ele>
        <time>2017-04-29T08:55:18Z</time>
      </trkpt>
      <trkpt lat="45.8806" lon="4.86177">
        <ele>306</ele>
        <time>2017-04-29T08:55:19Z</time>
      </trkpt>
      <trkpt lat="45.88064" lon="4.86188">
        <ele>306</ele>
        <time>2017-04-29T08:55:22Z</time>
      </trkpt>
      <trkpt lat="45.88065" lon="4.86192">
        <ele>306</ele>
        <time>2017-04-29T08:55:23Z</time>
      </trkpt>
      <trkpt lat="45.88069" lon="4.86203">
        <ele>306</ele>
        <time>2017-04-29T08:55:25Z</time>
      </trkpt>
      <trkpt lat="45.88071" lon="4.86208">
        <ele>306</ele>
        <time>2017-04-29T08:55:26Z</time>
      </trkpt>
      <trkpt lat="45.88075" lon="4.86218">
        <ele>306</ele>
        <time>2017-04-29T08:55:28Z</time>
      </trkpt>
      <trkpt lat="45.88076" lon="4.86222">
        <ele>306</ele>
        <time>2017-04-29T08:55:29Z</time>
      </trkpt>
      <trkpt lat="45.88079" lon="4.8623">
        <ele>306</ele>
        <time>2017-04-29T08:55:31Z</time>
      </trkpt>
      <trkpt lat="45.88081" lon="4.86234">
        <ele>306</ele>
        <time>2017-04-29T08:55:32Z</time>
      </trkpt>
      <trkpt lat="45.88085" lon="4.86241">
        <ele>306</ele>
        <time>2017-04-29T08:55:34Z</time>
      </trkpt>
      <trkpt lat="45.88086" lon="4.86246">
        <ele>306</ele>
        <time>2017-04-29T08:55:35Z</time>
      </trkpt>
      <trkpt lat="45.88088" lon="4.86252">
        <ele>306</ele>
        <time>2017-04-29T08:55:36Z</time>
      </trkpt>
      <trkpt lat="45.8809" lon="4.8626">
        <ele>306</ele>
        <time>2017-04-29T08:55:37Z</time>
      </trkpt>
      <trkpt lat="45.88091" lon="4.86266">
        <ele>306</ele>
        <time>2017-04-29T08:55:38Z</time>
      </trkpt>
      <trkpt lat="45.88092" lon="4.86273">
        <ele>306</ele>
        <time>2017-04-29T08:55:39Z</time>
      </trkpt>
      <trkpt lat="45.88094" lon="4.8628">
        <ele>306</ele>
        <time>2017-04-29T08:55:40Z</time>
      </trkpt>
      <trkpt lat="45.88095" lon="4.86287">
        <ele>306</ele>
        <time>2017-04-29T08:55:41Z</time>
      </trkpt>
      <trkpt lat="45.88096" lon="4.86294">
        <ele>306</ele>
        <time>2017-04-29T08:55:42Z</time>
      </trkpt>
      <trkpt lat="45.88097" lon="4.86301">
        <ele>306</ele>
        <time>2017-04-29T08:55:43Z</time>
      </trkpt>
      <trkpt lat="45.88098" lon="4.86309">
        <ele>306</ele>
        <time>2017-04-29T08:55:44Z</time>
      </trkpt>
      <trkpt lat="45.881" lon="4.86317">
        <ele>306</ele>
        <time>2017-04-29T08:55:45Z</time>
      </trkpt>
      <trkpt lat="45.88101" lon="4.86324">
        <ele>306</ele>
        <time>2017-04-29T08:55:46Z</time>
      </trkpt>
      <trkpt lat="45.88103" lon="4.86333">
        <ele>306</ele>
        <time>2017-04-29T08:55:47Z</time>
      </trkpt>
      <trkpt lat="45.88104" lon="4.86341">
        <ele>305</ele>
        <time>2017-04-29T08:55:48Z</time>
      </trkpt>
      <trkpt lat="45.88105" lon="4.86349">
        <ele>305</ele>
        <time>2017-04-29T08:55:49Z</time>
      </trkpt>
      <trkpt lat="45.88106" lon="4.86356">
        <ele>305</ele>
        <time>2017-04-29T08:55:50Z</time>
      </trkpt>
      <trkpt lat="45.88108" lon="4.86364">
        <ele>305</ele>
        <time>2017-04-29T08:55:51Z</time>
      </trkpt>
      <trkpt lat="45.88109" lon="4.86373">
        <ele>304</ele>
        <time>2017-04-29T08:55:52Z</time>
      </trkpt>
      <trkpt lat="45.8811" lon="4.86381">
        <ele>304</ele>
        <time>2017-04-29T08:55:53Z</time>
      </trkpt>
      <trkpt lat="45.88111" lon="4.86389">
        <ele>304</ele>
        <time>2017-04-29T08:55:54Z</time>
      </trkpt>
      <trkpt lat="45.88112" lon="4.86397">
        <ele>304</ele>
        <time>2017-04-29T08:55:55Z</time>
      </trkpt>
      <trkpt lat="45.88114" lon="4.86405">
        <ele>304</ele>
        <time>2017-04-29T08:55:56Z</time>
      </trkpt>
      <trkpt lat="45.88115" lon="4.86414">
        <ele>304</ele>
        <time>2017-04-29T08:55:57Z</time>
      </trkpt>
      <trkpt lat="45.88117" lon="4.86422">
        <ele>302</ele>
        <time>2017-04-29T08:55:58Z</time>
      </trkpt>
      <trkpt lat="45.88119" lon="4.86429">
        <ele>302</ele>
        <time>2017-04-29T08:55:59Z</time>
      </trkpt>
      <trkpt lat="45.88121" lon="4.86436">
        <ele>302</ele>
        <time>2017-04-29T08:56:00Z</time>
      </trkpt>
      <trkpt lat="45.88123" lon="4.86444">
        <ele>302</ele>
        <time>2017-04-29T08:56:01Z</time>
      </trkpt>
      <trkpt lat="45.88125" lon="4.86452">
        <ele>302</ele>
        <time>2017-04-29T08:56:02Z</time>
      </trkpt>
      <trkpt lat="45.88125" lon="4.86461">
        <ele>302</ele>
        <time>2017-04-29T08:56:03Z</time>
      </trkpt>
      <trkpt lat="45.88127" lon="4.86469">
        <ele>302</ele>
        <time>2017-04-29T08:56:04Z</time>
      </trkpt>
      <trkpt lat="45.88128" lon="4.86476">
        <ele>302</ele>
        <time>2017-04-29T08:56:05Z</time>
      </trkpt>
      <trkpt lat="45.88129" lon="4.86484">
        <ele>302</ele>
        <time>2017-04-29T08:56:06Z</time>
      </trkpt>
      <trkpt lat="45.8813" lon="4.86491">
        <ele>302</ele>
        <time>2017-04-29T08:56:07Z</time>
      </trkpt>
      <trkpt lat="45.8813" lon="4.86499">
        <ele>302</ele>
        <time>2017-04-29T08:56:08Z</time>
      </trkpt>
      <trkpt lat="45.88131" lon="4.86506">
        <ele>301</ele>
        <time>2017-04-29T08:56:09Z</time>
      </trkpt>
      <trkpt lat="45.88133" lon="4.86518">
        <ele>301</ele>
        <time>2017-04-29T08:56:11Z</time>
      </trkpt>
      <trkpt lat="45.88134" lon="4.86523">
        <ele>301</ele>
        <time>2017-04-29T08:56:12Z</time>
      </trkpt>
      <trkpt lat="45.88135" lon="4.86534">
        <ele>301</ele>
        <time>2017-04-29T08:56:14Z</time>
      </trkpt>
      <trkpt lat="45.88135" lon="4.8654">
        <ele>301</ele>
        <time>2017-04-29T08:56:15Z</time>
      </trkpt>
      <trkpt lat="45.88135" lon="4.86551">
        <ele>301</ele>
        <time>2017-04-29T08:56:17Z</time>
      </trkpt>
      <trkpt lat="45.88135" lon="4.86557">
        <ele>301</ele>
        <time>2017-04-29T08:56:18Z</time>
      </trkpt>
      <trkpt lat="45.88136" lon="4.8657">
        <ele>301</ele>
        <time>2017-04-29T08:56:20Z</time>
      </trkpt>
      <trkpt lat="45.88137" lon="4.86576">
        <ele>301</ele>
        <time>2017-04-29T08:56:21Z</time>
      </trkpt>
      <trkpt lat="45.88139" lon="4.86583">
        <ele>301</ele>
        <time>2017-04-29T08:56:22Z</time>
      </trkpt>
      <trkpt lat="45.8814" lon="4.86591">
        <ele>300</ele>
        <time>2017-04-29T08:56:23Z</time>
      </trkpt>
      <trkpt lat="45.88142" lon="4.86598">
        <ele>300</ele>
        <time>2017-04-29T08:56:24Z</time>
      </trkpt>
      <trkpt lat="45.88144" lon="4.86605">
        <ele>300</ele>
        <time>2017-04-29T08:56:25Z</time>
      </trkpt>
      <trkpt lat="45.88146" lon="4.86612">
        <ele>300</ele>
        <time>2017-04-29T08:56:26Z</time>
      </trkpt>
      <trkpt lat="45.88148" lon="4.86618">
        <ele>300</ele>
        <time>2017-04-29T08:56:27Z</time>
      </trkpt>
      <trkpt lat="45.8815" lon="4.86625">
        <ele>300</ele>
        <time>2017-04-29T08:56:28Z</time>
      </trkpt>
      <trkpt lat="45.88152" lon="4.86631">
        <ele>300</ele>
        <time>2017-04-29T08:56:29Z</time>
      </trkpt>
      <trkpt lat="45.88153" lon="4.86638">
        <ele>300</ele>
        <time>2017-04-29T08:56:30Z</time>
      </trkpt>
      <trkpt lat="45.88155" lon="4.86644">
        <ele>300</ele>
        <time>2017-04-29T08:56:31Z</time>
      </trkpt>
      <trkpt lat="45.88158" lon="4.86655">
        <ele>299</ele>
        <time>2017-04-29T08:56:33Z</time>
      </trkpt>
      <trkpt lat="45.88159" lon="4.86661">
        <ele>299</ele>
        <time>2017-04-29T08:56:34Z</time>
      </trkpt>
      <trkpt lat="45.88161" lon="4.86672">
        <ele>299</ele>
        <time>2017-04-29T08:56:36Z</time>
      </trkpt>
      <trkpt lat="45.88162" lon="4.86679">
        <ele>299</ele>
        <time>2017-04-29T08:56:37Z</time>
      </trkpt>
      <trkpt lat="45.88164" lon="4.86686">
        <ele>300</ele>
        <time>2017-04-29T08:56:38Z</time>
      </trkpt>
      <trkpt lat="45.88165" lon="4.86692">
        <ele>300</ele>
        <time>2017-04-29T08:56:39Z</time>
      </trkpt>
      <trkpt lat="45.88167" lon="4.867">
        <ele>299</ele>
        <time>2017-04-29T08:56:40Z</time>
      </trkpt>
      <trkpt lat="45.88169" lon="4.86707">
        <ele>299</ele>
        <time>2017-04-29T08:56:41Z</time>
      </trkpt>
      <trkpt lat="45.8817" lon="4.86715">
        <ele>299</ele>
        <time>2017-04-29T08:56:42Z</time>
      </trkpt>
      <trkpt lat="45.88171" lon="4.86722">
        <ele>299</ele>
        <time>2017-04-29T08:56:43Z</time>
      </trkpt>
      <trkpt lat="45.88173" lon="4.86729">
        <ele>299</ele>
        <time>2017-04-29T08:56:44Z</time>
      </trkpt>
      <trkpt lat="45.88174" lon="4.86736">
        <ele>299</ele>
        <time>2017-04-29T08:56:45Z</time>
      </trkpt>
      <trkpt lat="45.88175" lon="4.86743">
        <ele>299</ele>
        <time>2017-04-29T08:56:46Z</time>
      </trkpt>
      <trkpt lat="45.88176" lon="4.86749">
        <ele>300</ele>
        <time>2017-04-29T08:56:47Z</time>
      </trkpt>
      <trkpt lat="45.88177" lon="4.86756">
        <ele>299</ele>
        <time>2017-04-29T08:56:48Z</time>
      </trkpt>
      <trkpt lat="45.88178" lon="4.86762">
        <ele>299</ele>
        <time>2017-04-29T08:56:49Z</time>
      </trkpt>
      <trkpt lat="45.88179" lon="4.86768">
        <ele>299</ele>
        <time>2017-04-29T08:56:50Z</time>
      </trkpt>
      <trkpt lat="45.8818" lon="4.86774">
        <ele>299</ele>
        <time>2017-04-29T08:56:51Z</time>
      </trkpt>
      <trkpt lat="45.88181" lon="4.86786">
        <ele>299</ele>
        <time>2017-04-29T08:56:53Z</time>
      </trkpt>
      <trkpt lat="45.88182" lon="4.86792">
        <ele>299</ele>
        <time>2017-04-29T08:56:54Z</time>
      </trkpt>
      <trkpt lat="45.88184" lon="4.86803">
        <ele>299</ele>
        <time>2017-04-29T08:56:56Z</time>
      </trkpt>
      <trkpt lat="45.88184" lon="4.86809">
        <ele>299</ele>
        <time>2017-04-29T08:56:57Z</time>
      </trkpt>
      <trkpt lat="45.88186" lon="4.86821">
        <ele>299</ele>
        <time>2017-04-29T08:56:59Z</time>
      </trkpt>
      <trkpt lat="45.88188" lon="4.86827">
        <ele>299</ele>
        <time>2017-04-29T08:57:00Z</time>
      </trkpt>
      <trkpt lat="45.88189" lon="4.86838">
        <ele>299</ele>
        <time>2017-04-29T08:57:02Z</time>
      </trkpt>
      <trkpt lat="45.8819" lon="4.86843">
        <ele>299</ele>
        <time>2017-04-29T08:57:03Z</time>
      </trkpt>
      <trkpt lat="45.88191" lon="4.86854">
        <ele>299</ele>
        <time>2017-04-29T08:57:05Z</time>
      </trkpt>
      <trkpt lat="45.88192" lon="4.86861">
        <ele>299</ele>
        <time>2017-04-29T08:57:06Z</time>
      </trkpt>
      <trkpt lat="45.88193" lon="4.86868">
        <ele>299</ele>
        <time>2017-04-29T08:57:07Z</time>
      </trkpt>
      <trkpt lat="45.88193" lon="4.86876">
        <ele>299</ele>
        <time>2017-04-29T08:57:08Z</time>
      </trkpt>
      <trkpt lat="45.88193" lon="4.86883">
        <ele>299</ele>
        <time>2017-04-29T08:57:09Z</time>
      </trkpt>
      <trkpt lat="45.88194" lon="4.8689">
        <ele>299</ele>
        <time>2017-04-29T08:57:10Z</time>
      </trkpt>
      <trkpt lat="45.88195" lon="4.86897">
        <ele>299</ele>
        <time>2017-04-29T08:57:11Z</time>
      </trkpt>
      <trkpt lat="45.88195" lon="4.86904">
        <ele>300</ele>
        <time>2017-04-29T08:57:12Z</time>
      </trkpt>
      <trkpt lat="45.88195" lon="4.86911">
        <ele>300</ele>
        <time>2017-04-29T08:57:13Z</time>
      </trkpt>
      <trkpt lat="45.88194" lon="4.86918">
        <ele>300</ele>
        <time>2017-04-29T08:57:14Z</time>
      </trkpt>
      <trkpt lat="45.88194" lon="4.86925">
        <ele>300</ele>
        <time>2017-04-29T08:57:15Z</time>
      </trkpt>
      <trkpt lat="45.88193" lon="4.86931">
        <ele>300</ele>
        <time>2017-04-29T08:57:16Z</time>
      </trkpt>
      <trkpt lat="45.88193" lon="4.86944">
        <ele>300</ele>
        <time>2017-04-29T08:57:18Z</time>
      </trkpt>
      <trkpt lat="45.88193" lon="4.8695">
        <ele>300</ele>
        <time>2017-04-29T08:57:19Z</time>
      </trkpt>
      <trkpt lat="45.88193" lon="4.86957">
        <ele>299</ele>
        <time>2017-04-29T08:57:20Z</time>
      </trkpt>
      <trkpt lat="45.88193" lon="4.86963">
        <ele>299</ele>
        <time>2017-04-29T08:57:21Z</time>
      </trkpt>
      <trkpt lat="45.88194" lon="4.86975">
        <ele>299</ele>
        <time>2017-04-29T08:57:23Z</time>
      </trkpt>
      <trkpt lat="45.88194" lon="4.86981">
        <ele>299</ele>
        <time>2017-04-29T08:57:24Z</time>
      </trkpt>
      <trkpt lat="45.88195" lon="4.86994">
        <ele>299</ele>
        <time>2017-04-29T08:57:26Z</time>
      </trkpt>
      <trkpt lat="45.88195" lon="4.86999">
        <ele>299</ele>
        <time>2017-04-29T08:57:27Z</time>
      </trkpt>
      <trkpt lat="45.88195" lon="4.87011">
        <ele>299</ele>
        <time>2017-04-29T08:57:29Z</time>
      </trkpt>
      <trkpt lat="45.88195" lon="4.87017">
        <ele>299</ele>
        <time>2017-04-29T08:57:30Z</time>
      </trkpt>
      <trkpt lat="45.88195" lon="4.87023">
        <ele>299</ele>
        <time>2017-04-29T08:57:31Z</time>
      </trkpt>
      <trkpt lat="45.88196" lon="4.8703">
        <ele>299</ele>
        <time>2017-04-29T08:57:32Z</time>
      </trkpt>
      <trkpt lat="45.88196" lon="4.87036">
        <ele>299</ele>
        <time>2017-04-29T08:57:33Z</time>
      </trkpt>
      <trkpt lat="45.88197" lon="4.87042">
        <ele>299</ele>
        <time>2017-04-29T08:57:34Z</time>
      </trkpt>
      <trkpt lat="45.88198" lon="4.87055">
        <ele>299</ele>
        <time>2017-04-29T08:57:36Z</time>
      </trkpt>
      <trkpt lat="45.88199" lon="4.87061">
        <ele>299</ele>
        <time>2017-04-29T08:57:37Z</time>
      </trkpt>
      <trkpt lat="45.88199" lon="4.87067">
        <ele>299</ele>
        <time>2017-04-29T08:57:38Z</time>
      </trkpt>
      <trkpt lat="45.882" lon="4.87074">
        <ele>299</ele>
        <time>2017-04-29T08:57:39Z</time>
      </trkpt>
      <trkpt lat="45.882" lon="4.87081">
        <ele>299</ele>
        <time>2017-04-29T08:57:40Z</time>
      </trkpt>
      <trkpt lat="45.882" lon="4.87089">
        <ele>299</ele>
        <time>2017-04-29T08:57:41Z</time>
      </trkpt>
      <trkpt lat="45.882" lon="4.87097">
        <ele>299</ele>
        <time>2017-04-29T08:57:42Z</time>
      </trkpt>
      <trkpt lat="45.88201" lon="4.87104">
        <ele>299</ele>
        <time>2017-04-29T08:57:43Z</time>
      </trkpt>
      <trkpt lat="45.88201" lon="4.87113">
        <ele>299</ele>
        <time>2017-04-29T08:57:44Z</time>
      </trkpt>
      <trkpt lat="45.88201" lon="4.87122">
        <ele>299</ele>
        <time>2017-04-29T08:57:45Z</time>
      </trkpt>
      <trkpt lat="45.88202" lon="4.87131">
        <ele>299</ele>
        <time>2017-04-29T08:57:46Z</time>
      </trkpt>
      <trkpt lat="45.88202" lon="4.87139">
        <ele>299</ele>
        <time>2017-04-29T08:57:47Z</time>
      </trkpt>
      <trkpt lat="45.88202" lon="4.87148">
        <ele>298</ele>
        <time>2017-04-29T08:57:48Z</time>
      </trkpt>
      <trkpt lat="45.88203" lon="4.87156">
        <ele>298</ele>
        <time>2017-04-29T08:57:49Z</time>
      </trkpt>
      <trkpt lat="45.88203" lon="4.87165">
        <ele>298</ele>
        <time>2017-04-29T08:57:50Z</time>
      </trkpt>
      <trkpt lat="45.88203" lon="4.87173">
        <ele>298</ele>
        <time>2017-04-29T08:57:51Z</time>
      </trkpt>
      <trkpt lat="45.88204" lon="4.87181">
        <ele>298</ele>
        <time>2017-04-29T08:57:52Z</time>
      </trkpt>
      <trkpt lat="45.88204" lon="4.87189">
        <ele>298</ele>
        <time>2017-04-29T08:57:53Z</time>
      </trkpt>
      <trkpt lat="45.88204" lon="4.87197">
        <ele>298</ele>
        <time>2017-04-29T08:57:54Z</time>
      </trkpt>
      <trkpt lat="45.88205" lon="4.87204">
        <ele>298</ele>
        <time>2017-04-29T08:57:55Z</time>
      </trkpt>
      <trkpt lat="45.88205" lon="4.87212">
        <ele>298</ele>
        <time>2017-04-29T08:57:56Z</time>
      </trkpt>
      <trkpt lat="45.88206" lon="4.8722">
        <ele>298</ele>
        <time>2017-04-29T08:57:57Z</time>
      </trkpt>
      <trkpt lat="45.88206" lon="4.87227">
        <ele>298</ele>
        <time>2017-04-29T08:57:58Z</time>
      </trkpt>
      <trkpt lat="45.88206" lon="4.87235">
        <ele>298</ele>
        <time>2017-04-29T08:57:59Z</time>
      </trkpt>
      <trkpt lat="45.88207" lon="4.87242">
        <ele>298</ele>
        <time>2017-04-29T08:58:00Z</time>
      </trkpt>
      <trkpt lat="45.88207" lon="4.87249">
        <ele>298</ele>
        <time>2017-04-29T08:58:01Z</time>
      </trkpt>
      <trkpt lat="45.88208" lon="4.87257">
        <ele>297</ele>
        <time>2017-04-29T08:58:02Z</time>
      </trkpt>
      <trkpt lat="45.88208" lon="4.87264">
        <ele>297</ele>
        <time>2017-04-29T08:58:03Z</time>
      </trkpt>
      <trkpt lat="45.88208" lon="4.87272">
        <ele>297</ele>
        <time>2017-04-29T08:58:04Z</time>
      </trkpt>
      <trkpt lat="45.88208" lon="4.8728">
        <ele>297</ele>
        <time>2017-04-29T08:58:05Z</time>
      </trkpt>
      <trkpt lat="45.88209" lon="4.87289">
        <ele>297</ele>
        <time>2017-04-29T08:58:06Z</time>
      </trkpt>
      <trkpt lat="45.8821" lon="4.87297">
        <ele>297</ele>
        <time>2017-04-29T08:58:07Z</time>
      </trkpt>
      <trkpt lat="45.8821" lon="4.87306">
        <ele>297</ele>
        <time>2017-04-29T08:58:08Z</time>
      </trkpt>
      <trkpt lat="45.8821" lon="4.87315">
        <ele>297</ele>
        <time>2017-04-29T08:58:09Z</time>
      </trkpt>
      <trkpt lat="45.88209" lon="4.87323">
        <ele>297</ele>
        <time>2017-04-29T08:58:10Z</time>
      </trkpt>
      <trkpt lat="45.88208" lon="4.87332">
        <ele>297</ele>
        <time>2017-04-29T08:58:11Z</time>
      </trkpt>
      <trkpt lat="45.88207" lon="4.8734">
        <ele>297</ele>
        <time>2017-04-29T08:58:12Z</time>
      </trkpt>
      <trkpt lat="45.88207" lon="4.87349">
        <ele>297</ele>
        <time>2017-04-29T08:58:13Z</time>
      </trkpt>
      <trkpt lat="45.88208" lon="4.87357">
        <ele>297</ele>
        <time>2017-04-29T08:58:14Z</time>
      </trkpt>
      <trkpt lat="45.88209" lon="4.87366">
        <ele>297</ele>
        <time>2017-04-29T08:58:15Z</time>
      </trkpt>
      <trkpt lat="45.88211" lon="4.87374">
        <ele>297</ele>
        <time>2017-04-29T08:58:16Z</time>
      </trkpt>
      <trkpt lat="45.88212" lon="4.87383">
        <ele>297</ele>
        <time>2017-04-29T08:58:17Z</time>
      </trkpt>
      <trkpt lat="45.88213" lon="4.87392">
        <ele>297</ele>
        <time>2017-04-29T08:58:18Z</time>
      </trkpt>
      <trkpt lat="45.88214" lon="4.87401">
        <ele>297</ele>
        <time>2017-04-29T08:58:19Z</time>
      </trkpt>
      <trkpt lat="45.88214" lon="4.87409">
        <ele>297</ele>
        <time>2017-04-29T08:58:20Z</time>
      </trkpt>
      <trkpt lat="45.88215" lon="4.87418">
        <ele>297</ele>
        <time>2017-04-29T08:58:21Z</time>
      </trkpt>
      <trkpt lat="45.88216" lon="4.87427">
        <ele>297</ele>
        <time>2017-04-29T08:58:22Z</time>
      </trkpt>
      <trkpt lat="45.88217" lon="4.87435">
        <ele>297</ele>
        <time>2017-04-29T08:58:23Z</time>
      </trkpt>
      <trkpt lat="45.88218" lon="4.87444">
        <ele>297</ele>
        <time>2017-04-29T08:58:24Z</time>
      </trkpt>
      <trkpt lat="45.88218" lon="4.87453">
        <ele>297</ele>
        <time>2017-04-29T08:58:25Z</time>
      </trkpt>
      <trkpt lat="45.88219" lon="4.87462">
        <ele>297</ele>
        <time>2017-04-29T08:58:26Z</time>
      </trkpt>
      <trkpt lat="45.88219" lon="4.87471">
        <ele>297</ele>
        <time>2017-04-29T08:58:27Z</time>
      </trkpt>
      <trkpt lat="45.8822" lon="4.8748">
        <ele>297</ele>
        <time>2017-04-29T08:58:28Z</time>
      </trkpt>
      <trkpt lat="45.8822" lon="4.87489">
        <ele>297</ele>
        <time>2017-04-29T08:58:29Z</time>
      </trkpt>
      <trkpt lat="45.88221" lon="4.87499">
        <ele>297</ele>
        <time>2017-04-29T08:58:30Z</time>
      </trkpt>
      <trkpt lat="45.88221" lon="4.87507">
        <ele>297</ele>
        <time>2017-04-29T08:58:31Z</time>
      </trkpt>
      <trkpt lat="45.88221" lon="4.87517">
        <ele>296</ele>
        <time>2017-04-29T08:58:32Z</time>
      </trkpt>
      <trkpt lat="45.88221" lon="4.87526">
        <ele>296</ele>
        <time>2017-04-29T08:58:33Z</time>
      </trkpt>
      <trkpt lat="45.88222" lon="4.87535">
        <ele>296</ele>
        <time>2017-04-29T08:58:34Z</time>
      </trkpt>
      <trkpt lat="45.88222" lon="4.87544">
        <ele>296</ele>
        <time>2017-04-29T08:58:35Z</time>
      </trkpt>
      <trkpt lat="45.88223" lon="4.87553">
        <ele>296</ele>
        <time>2017-04-29T08:58:36Z</time>
      </trkpt>
      <trkpt lat="45.88223" lon="4.87562">
        <ele>296</ele>
        <time>2017-04-29T08:58:37Z</time>
      </trkpt>
      <trkpt lat="45.88224" lon="4.87571">
        <ele>296</ele>
        <time>2017-04-29T08:58:38Z</time>
      </trkpt>
      <trkpt lat="45.88224" lon="4.8758">
        <ele>296</ele>
        <time>2017-04-29T08:58:39Z</time>
      </trkpt>
      <trkpt lat="45.88225" lon="4.87589">
        <ele>295</ele>
        <time>2017-04-29T08:58:40Z</time>
      </trkpt>
      <trkpt lat="45.88226" lon="4.87598">
        <ele>295</ele>
        <time>2017-04-29T08:58:41Z</time>
      </trkpt>
      <trkpt lat="45.88227" lon="4.87608">
        <ele>295</ele>
        <time>2017-04-29T08:58:42Z</time>
      </trkpt>
      <trkpt lat="45.88228" lon="4.87617">
        <ele>295</ele>
        <time>2017-04-29T08:58:43Z</time>
      </trkpt>
      <trkpt lat="45.88228" lon="4.87626">
        <ele>295</ele>
        <time>2017-04-29T08:58:44Z</time>
      </trkpt>
      <trkpt lat="45.88229" lon="4.87635">
        <ele>295</ele>
        <time>2017-04-29T08:58:45Z</time>
      </trkpt>
      <trkpt lat="45.88231" lon="4.87645">
        <ele>295</ele>
        <time>2017-04-29T08:58:46Z</time>
      </trkpt>
      <trkpt lat="45.88232" lon="4.87654">
        <ele>295</ele>
        <time>2017-04-29T08:58:47Z</time>
      </trkpt>
      <trkpt lat="45.88233" lon="4.87663">
        <ele>295</ele>
        <time>2017-04-29T08:58:48Z</time>
      </trkpt>
      <trkpt lat="45.88234" lon="4.87672">
        <ele>295</ele>
        <time>2017-04-29T08:58:49Z</time>
      </trkpt>
      <trkpt lat="45.88235" lon="4.87681">
        <ele>295</ele>
        <time>2017-04-29T08:58:50Z</time>
      </trkpt>
      <trkpt lat="45.88236" lon="4.87691">
        <ele>295</ele>
        <time>2017-04-29T08:58:51Z</time>
      </trkpt>
      <trkpt lat="45.88237" lon="4.877">
        <ele>295</ele>
        <time>2017-04-29T08:58:52Z</time>
      </trkpt>
      <trkpt lat="45.88238" lon="4.87709">
        <ele>295</ele>
        <time>2017-04-29T08:58:53Z</time>
      </trkpt>
      <trkpt lat="45.8824" lon="4.87718">
        <ele>295</ele>
        <time>2017-04-29T08:58:54Z</time>
      </trkpt>
      <trkpt lat="45.88241" lon="4.87728">
        <ele>295</ele>
        <time>2017-04-29T08:58:55Z</time>
      </trkpt>
      <trkpt lat="45.88242" lon="4.87737">
        <ele>295</ele>
        <time>2017-04-29T08:58:56Z</time>
      </trkpt>
      <trkpt lat="45.88243" lon="4.87746">
        <ele>296</ele>
        <time>2017-04-29T08:58:57Z</time>
      </trkpt>
      <trkpt lat="45.88244" lon="4.87756">
        <ele>296</ele>
        <time>2017-04-29T08:58:58Z</time>
      </trkpt>
      <trkpt lat="45.88246" lon="4.87765">
        <ele>295</ele>
        <time>2017-04-29T08:58:59Z</time>
      </trkpt>
      <trkpt lat="45.88247" lon="4.87774">
        <ele>295</ele>
        <time>2017-04-29T08:59:00Z</time>
      </trkpt>
      <trkpt lat="45.88248" lon="4.87784">
        <ele>295</ele>
        <time>2017-04-29T08:59:01Z</time>
      </trkpt>
      <trkpt lat="45.88249" lon="4.87793">
        <ele>295</ele>
        <time>2017-04-29T08:59:02Z</time>
      </trkpt>
      <trkpt lat="45.8825" lon="4.87801">
        <ele>295</ele>
        <time>2017-04-29T08:59:03Z</time>
      </trkpt>
      <trkpt lat="45.88251" lon="4.8781">
        <ele>295</ele>
        <time>2017-04-29T08:59:04Z</time>
      </trkpt>
      <trkpt lat="45.88252" lon="4.87819">
        <ele>295</ele>
        <time>2017-04-29T08:59:05Z</time>
      </trkpt>
      <trkpt lat="45.88253" lon="4.87827">
        <ele>295</ele>
        <time>2017-04-29T08:59:06Z</time>
      </trkpt>
      <trkpt lat="45.88254" lon="4.87835">
        <ele>295</ele>
        <time>2017-04-29T08:59:07Z</time>
      </trkpt>
      <trkpt lat="45.88255" lon="4.87844">
        <ele>295</ele>
        <time>2017-04-29T08:59:08Z</time>
      </trkpt>
      <trkpt lat="45.88256" lon="4.87852">
        <ele>294</ele>
        <time>2017-04-29T08:59:09Z</time>
      </trkpt>
      <trkpt lat="45.88257" lon="4.8786">
        <ele>294</ele>
        <time>2017-04-29T08:59:10Z</time>
      </trkpt>
      <trkpt lat="45.88258" lon="4.87869">
        <ele>294</ele>
        <time>2017-04-29T08:59:11Z</time>
      </trkpt>
      <trkpt lat="45.88259" lon="4.87877">
        <ele>294</ele>
        <time>2017-04-29T08:59:12Z</time>
      </trkpt>
      <trkpt lat="45.8826" lon="4.87886">
        <ele>294</ele>
        <time>2017-04-29T08:59:13Z</time>
      </trkpt>
      <trkpt lat="45.88261" lon="4.87895">
        <ele>295</ele>
        <time>2017-04-29T08:59:14Z</time>
      </trkpt>
      <trkpt lat="45.88261" lon="4.87903">
        <ele>295</ele>
        <time>2017-04-29T08:59:15Z</time>
      </trkpt>
      <trkpt lat="45.88262" lon="4.87912">
        <ele>295</ele>
        <time>2017-04-29T08:59:16Z</time>
      </trkpt>
      <trkpt lat="45.88263" lon="4.8792">
        <ele>295</ele>
        <time>2017-04-29T08:59:17Z</time>
      </trkpt>
      <trkpt lat="45.88264" lon="4.87929">
        <ele>294</ele>
        <time>2017-04-29T08:59:18Z</time>
      </trkpt>
      <trkpt lat="45.88264" lon="4.87937">
        <ele>294</ele>
        <time>2017-04-29T08:59:19Z</time>
      </trkpt>
      <trkpt lat="45.88265" lon="4.87946">
        <ele>294</ele>
        <time>2017-04-29T08:59:20Z</time>
      </trkpt>
      <trkpt lat="45.88265" lon="4.87954">
        <ele>294</ele>
        <time>2017-04-29T08:59:21Z</time>
      </trkpt>
      <trkpt lat="45.88265" lon="4.87962">
        <ele>293</ele>
        <time>2017-04-29T08:59:22Z</time>
      </trkpt>
      <trkpt lat="45.88266" lon="4.87971">
        <ele>293</ele>
        <time>2017-04-29T08:59:23Z</time>
      </trkpt>
      <trkpt lat="45.88266" lon="4.87979">
        <ele>293</ele>
        <time>2017-04-29T08:59:24Z</time>
      </trkpt>
      <trkpt lat="45.88266" lon="4.87987">
        <ele>293</ele>
        <time>2017-04-29T08:59:25Z</time>
      </trkpt>
      <trkpt lat="45.88266" lon="4.87994">
        <ele>293</ele>
        <time>2017-04-29T08:59:26Z</time>
      </trkpt>
      <trkpt lat="45.88267" lon="4.88003">
        <ele>293</ele>
        <time>2017-04-29T08:59:27Z</time>
      </trkpt>
      <trkpt lat="45.88267" lon="4.8801">
        <ele>293</ele>
        <time>2017-04-29T08:59:28Z</time>
      </trkpt>
      <trkpt lat="45.88267" lon="4.88018">
        <ele>293</ele>
        <time>2017-04-29T08:59:29Z</time>
      </trkpt>
      <trkpt lat="45.88268" lon="4.88026">
        <ele>293</ele>
        <time>2017-04-29T08:59:30Z</time>
      </trkpt>
      <trkpt lat="45.88268" lon="4.88035">
        <ele>293</ele>
        <time>2017-04-29T08:59:31Z</time>
      </trkpt>
      <trkpt lat="45.88268" lon="4.88043">
        <ele>293</ele>
        <time>2017-04-29T08:59:32Z</time>
      </trkpt>
      <trkpt lat="45.88268" lon="4.88052">
        <ele>293</ele>
        <time>2017-04-29T08:59:33Z</time>
      </trkpt>
      <trkpt lat="45.88269" lon="4.88061">
        <ele>293</ele>
        <time>2017-04-29T08:59:34Z</time>
      </trkpt>
      <trkpt lat="45.88269" lon="4.88069">
        <ele>293</ele>
        <time>2017-04-29T08:59:35Z</time>
      </trkpt>
      <trkpt lat="45.88269" lon="4.88078">
        <ele>293</ele>
        <time>2017-04-29T08:59:36Z</time>
      </trkpt>
      <trkpt lat="45.8827" lon="4.88086">
        <ele>294</ele>
        <time>2017-04-29T08:59:37Z</time>
      </trkpt>
      <trkpt lat="45.8827" lon="4.88094">
        <ele>294</ele>
        <time>2017-04-29T08:59:38Z</time>
      </trkpt>
      <trkpt lat="45.88271" lon="4.88102">
        <ele>294</ele>
        <time>2017-04-29T08:59:39Z</time>
      </trkpt>
      <trkpt lat="45.88271" lon="4.88109">
        <ele>295</ele>
        <time>2017-04-29T08:59:40Z</time>
      </trkpt>
      <trkpt lat="45.88271" lon="4.88117">
        <ele>295</ele>
        <time>2017-04-29T08:59:41Z</time>
      </trkpt>
      <trkpt lat="45.88272" lon="4.88125">
        <ele>295</ele>
        <time>2017-04-29T08:59:42Z</time>
      </trkpt>
      <trkpt lat="45.88272" lon="4.88133">
        <ele>295</ele>
        <time>2017-04-29T08:59:43Z</time>
      </trkpt>
      <trkpt lat="45.88272" lon="4.8814">
        <ele>295</ele>
        <time>2017-04-29T08:59:44Z</time>
      </trkpt>
      <trkpt lat="45.88273" lon="4.88148">
        <ele>296</ele>
        <time>2017-04-29T08:59:45Z</time>
      </trkpt>
      <trkpt lat="45.88273" lon="4.88155">
        <ele>296</ele>
        <time>2017-04-29T08:59:46Z</time>
      </trkpt>
      <trkpt lat="45.88274" lon="4.88163">
        <ele>296</ele>
        <time>2017-04-29T08:59:47Z</time>
      </trkpt>
      <trkpt lat="45.88274" lon="4.88171">
        <ele>297</ele>
        <time>2017-04-29T08:59:48Z</time>
      </trkpt>
      <trkpt lat="45.88274" lon="4.88179">
        <ele>297</ele>
        <time>2017-04-29T08:59:49Z</time>
      </trkpt>
      <trkpt lat="45.88274" lon="4.88187">
        <ele>296</ele>
        <time>2017-04-29T08:59:50Z</time>
      </trkpt>
      <trkpt lat="45.88275" lon="4.88195">
        <ele>296</ele>
        <time>2017-04-29T08:59:51Z</time>
      </trkpt>
      <trkpt lat="45.88275" lon="4.88203">
        <ele>296</ele>
        <time>2017-04-29T08:59:52Z</time>
      </trkpt>
      <trkpt lat="45.88275" lon="4.88212">
        <ele>296</ele>
        <time>2017-04-29T08:59:53Z</time>
      </trkpt>
      <trkpt lat="45.88275" lon="4.8822">
        <ele>296</ele>
        <time>2017-04-29T08:59:54Z</time>
      </trkpt>
      <trkpt lat="45.88275" lon="4.88229">
        <ele>296</ele>
        <time>2017-04-29T08:59:55Z</time>
      </trkpt>
      <trkpt lat="45.88275" lon="4.88238">
        <ele>296</ele>
        <time>2017-04-29T08:59:56Z</time>
      </trkpt>
      <trkpt lat="45.88274" lon="4.88247">
        <ele>296</ele>
        <time>2017-04-29T08:59:57Z</time>
      </trkpt>
      <trkpt lat="45.88274" lon="4.88256">
        <ele>296</ele>
        <time>2017-04-29T08:59:58Z</time>
      </trkpt>
      <trkpt lat="45.88274" lon="4.88265">
        <ele>296</ele>
        <time>2017-04-29T08:59:59Z</time>
      </trkpt>
      <trkpt lat="45.88274" lon="4.88274">
        <ele>296</ele>
        <time>2017-04-29T09:00:00Z</time>
      </trkpt>
      <trkpt lat="45.88273" lon="4.88283">
        <ele>296</ele>
        <time>2017-04-29T09:00:01Z</time>
      </trkpt>
      <trkpt lat="45.88272" lon="4.88293">
        <ele>296</ele>
        <time>2017-04-29T09:00:02Z</time>
      </trkpt>
      <trkpt lat="45.88271" lon="4.88302">
        <ele>296</ele>
        <time>2017-04-29T09:00:03Z</time>
      </trkpt>
      <trkpt lat="45.88268" lon="4.8831">
        <ele>296</ele>
        <time>2017-04-29T09:00:04Z</time>
      </trkpt>
      <trkpt lat="45.88264" lon="4.88317">
        <ele>296</ele>
        <time>2017-04-29T09:00:05Z</time>
      </trkpt>
      <trkpt lat="45.88259" lon="4.88323">
        <ele>297</ele>
        <time>2017-04-29T09:00:06Z</time>
      </trkpt>
      <trkpt lat="45.88255" lon="4.8833">
        <ele>297</ele>
        <time>2017-04-29T09:00:07Z</time>
      </trkpt>
      <trkpt lat="45.88252" lon="4.88337">
        <ele>297</ele>
        <time>2017-04-29T09:00:08Z</time>
      </trkpt>
      <trkpt lat="45.8825" lon="4.88346">
        <ele>296</ele>
        <time>2017-04-29T09:00:09Z</time>
      </trkpt>
      <trkpt lat="45.8825" lon="4.88354">
        <ele>296</ele>
        <time>2017-04-29T09:00:10Z</time>
      </trkpt>
      <trkpt lat="45.88251" lon="4.88362">
        <ele>296</ele>
        <time>2017-04-29T09:00:11Z</time>
      </trkpt>
      <trkpt lat="45.88253" lon="4.88369">
        <ele>296</ele>
        <time>2017-04-29T09:00:12Z</time>
      </trkpt>
      <trkpt lat="45.88256" lon="4.88376">
        <ele>296</ele>
        <time>2017-04-29T09:00:13Z</time>
      </trkpt>
      <trkpt lat="45.8826" lon="4.88382">
        <ele>296</ele>
        <time>2017-04-29T09:00:14Z</time>
      </trkpt>
      <trkpt lat="45.88263" lon="4.88389">
        <ele>296</ele>
        <time>2017-04-29T09:00:15Z</time>
      </trkpt>
      <trkpt lat="45.88265" lon="4.88396">
        <ele>296</ele>
        <time>2017-04-29T09:00:16Z</time>
      </trkpt>
      <trkpt lat="45.88266" lon="4.88404">
        <ele>295</ele>
        <time>2017-04-29T09:00:17Z</time>
      </trkpt>
      <trkpt lat="45.88266" lon="4.88412">
        <ele>295</ele>
        <time>2017-04-29T09:00:18Z</time>
      </trkpt>
      <trkpt lat="45.88266" lon="4.88421">
        <ele>295</ele>
        <time>2017-04-29T09:00:19Z</time>
      </trkpt>
      <trkpt lat="45.88266" lon="4.88429">
        <ele>295</ele>
        <time>2017-04-29T09:00:20Z</time>
      </trkpt>
      <trkpt lat="45.88266" lon="4.88438">
        <ele>295</ele>
        <time>2017-04-29T09:00:21Z</time>
      </trkpt>
      <trkpt lat="45.88265" lon="4.88447">
        <ele>295</ele>
        <time>2017-04-29T09:00:22Z</time>
      </trkpt>
      <trkpt lat="45.88265" lon="4.88455">
        <ele>295</ele>
        <time>2017-04-29T09:00:23Z</time>
      </trkpt>
      <trkpt lat="45.88264" lon="4.88464">
        <ele>295</ele>
        <time>2017-04-29T09:00:24Z</time>
      </trkpt>
      <trkpt lat="45.88264" lon="4.88472">
        <ele>295</ele>
        <time>2017-04-29T09:00:25Z</time>
      </trkpt>
      <trkpt lat="45.88263" lon="4.88481">
        <ele>295</ele>
        <time>2017-04-29T09:00:26Z</time>
      </trkpt>
      <trkpt lat="45.88263" lon="4.88489">
        <ele>295</ele>
        <time>2017-04-29T09:00:27Z</time>
      </trkpt>
      <trkpt lat="45.88262" lon="4.88498">
        <ele>295</ele>
        <time>2017-04-29T09:00:28Z</time>
      </trkpt>
      <trkpt lat="45.88261" lon="4.88506">
        <ele>295</ele>
        <time>2017-04-29T09:00:29Z</time>
      </trkpt>
      <trkpt lat="45.88261" lon="4.88514">
        <ele>295</ele>
        <time>2017-04-29T09:00:30Z</time>
      </trkpt>
      <trkpt lat="45.8826" lon="4.88523">
        <ele>295</ele>
        <time>2017-04-29T09:00:31Z</time>
      </trkpt>
      <trkpt lat="45.8826" lon="4.88531">
        <ele>295</ele>
        <time>2017-04-29T09:00:32Z</time>
      </trkpt>
      <trkpt lat="45.88259" lon="4.88539">
        <ele>295</ele>
        <time>2017-04-29T09:00:33Z</time>
      </trkpt>
      <trkpt lat="45.88259" lon="4.88548">
        <ele>295</ele>
        <time>2017-04-29T09:00:34Z</time>
      </trkpt>
      <trkpt lat="45.88258" lon="4.88557">
        <ele>295</ele>
        <time>2017-04-29T09:00:35Z</time>
      </trkpt>
      <trkpt lat="45.88258" lon="4.88566">
        <ele>295</ele>
        <time>2017-04-29T09:00:36Z</time>
      </trkpt>
      <trkpt lat="45.88257" lon="4.88576">
        <ele>295</ele>
        <time>2017-04-29T09:00:37Z</time>
      </trkpt>
      <trkpt lat="45.88256" lon="4.88587">
        <ele>295</ele>
        <time>2017-04-29T09:00:38Z</time>
      </trkpt>
      <trkpt lat="45.88256" lon="4.88598">
        <ele>295</ele>
        <time>2017-04-29T09:00:39Z</time>
      </trkpt>
      <trkpt lat="45.88255" lon="4.88609">
        <ele>294</ele>
        <time>2017-04-29T09:00:40Z</time>
      </trkpt>
      <trkpt lat="45.88254" lon="4.88619">
        <ele>294</ele>
        <time>2017-04-29T09:00:41Z</time>
      </trkpt>
      <trkpt lat="45.88254" lon="4.8863">
        <ele>294</ele>
        <time>2017-04-29T09:00:42Z</time>
      </trkpt>
      <trkpt lat="45.88253" lon="4.8864">
        <ele>294</ele>
        <time>2017-04-29T09:00:43Z</time>
      </trkpt>
      <trkpt lat="45.88253" lon="4.88651">
        <ele>295</ele>
        <time>2017-04-29T09:00:44Z</time>
      </trkpt>
      <trkpt lat="45.88252" lon="4.88661">
        <ele>295</ele>
        <time>2017-04-29T09:00:45Z</time>
      </trkpt>
      <trkpt lat="45.88251" lon="4.88671">
        <ele>295</ele>
        <time>2017-04-29T09:00:46Z</time>
      </trkpt>
      <trkpt lat="45.8825" lon="4.8868">
        <ele>294</ele>
        <time>2017-04-29T09:00:47Z</time>
      </trkpt>
      <trkpt lat="45.88249" lon="4.8869">
        <ele>295</ele>
        <time>2017-04-29T09:00:48Z</time>
      </trkpt>
      <trkpt lat="45.88249" lon="4.88699">
        <ele>295</ele>
        <time>2017-04-29T09:00:49Z</time>
      </trkpt>
      <trkpt lat="45.88248" lon="4.88709">
        <ele>295</ele>
        <time>2017-04-29T09:00:50Z</time>
      </trkpt>
      <trkpt lat="45.88247" lon="4.88718">
        <ele>295</ele>
        <time>2017-04-29T09:00:51Z</time>
      </trkpt>
      <trkpt lat="45.88247" lon="4.88727">
        <ele>295</ele>
        <time>2017-04-29T09:00:52Z</time>
      </trkpt>
      <trkpt lat="45.88246" lon="4.88736">
        <ele>295</ele>
        <time>2017-04-29T09:00:53Z</time>
      </trkpt>
      <trkpt lat="45.88245" lon="4.88745">
        <ele>294</ele>
        <time>2017-04-29T09:00:54Z</time>
      </trkpt>
      <trkpt lat="45.88244" lon="4.88753">
        <ele>294</ele>
        <time>2017-04-29T09:00:55Z</time>
      </trkpt>
      <trkpt lat="45.88244" lon="4.88762">
        <ele>294</ele>
        <time>2017-04-29T09:00:56Z</time>
      </trkpt>
      <trkpt lat="45.88243" lon="4.88771">
        <ele>294</ele>
        <time>2017-04-29T09:00:57Z</time>
      </trkpt>
      <trkpt lat="45.88243" lon="4.88779">
        <ele>294</ele>
        <time>2017-04-29T09:00:58Z</time>
      </trkpt>
      <trkpt lat="45.88243" lon="4.88788">
        <ele>294</ele>
        <time>2017-04-29T09:00:59Z</time>
      </trkpt>
      <trkpt lat="45.88242" lon="4.88797">
        <ele>294</ele>
        <time>2017-04-29T09:01:00Z</time>
      </trkpt>
      <trkpt lat="45.88241" lon="4.88805">
        <ele>294</ele>
        <time>2017-04-29T09:01:01Z</time>
      </trkpt>
      <trkpt lat="45.88241" lon="4.88814">
        <ele>294</ele>
        <time>2017-04-29T09:01:02Z</time>
      </trkpt>
      <trkpt lat="45.8824" lon="4.88823">
        <ele>294</ele>
        <time>2017-04-29T09:01:03Z</time>
      </trkpt>
      <trkpt lat="45.88239" lon="4.88832">
        <ele>294</ele>
        <time>2017-04-29T09:01:04Z</time>
      </trkpt>
      <trkpt lat="45.88239" lon="4.88841">
        <ele>294</ele>
        <time>2017-04-29T09:01:05Z</time>
      </trkpt>
      <trkpt lat="45.88238" lon="4.88849">
        <ele>294</ele>
        <time>2017-04-29T09:01:06Z</time>
      </trkpt>
      <trkpt lat="45.88237" lon="4.88858">
        <ele>294</ele>
        <time>2017-04-29T09:01:07Z</time>
      </trkpt>
      <trkpt lat="45.88237" lon="4.88868">
        <ele>293</ele>
        <time>2017-04-29T09:01:08Z</time>
      </trkpt>
      <trkpt lat="45.88236" lon="4.88877">
        <ele>293</ele>
        <time>2017-04-29T09:01:09Z</time>
      </trkpt>
      <trkpt lat="45.88235" lon="4.88887">
        <ele>293</ele>
        <time>2017-04-29T09:01:10Z</time>
      </trkpt>
      <trkpt lat="45.88234" lon="4.88897">
        <ele>293</ele>
        <time>2017-04-29T09:01:11Z</time>
      </trkpt>
      <trkpt lat="45.88233" lon="4.88907">
        <ele>293</ele>
        <time>2017-04-29T09:01:12Z</time>
      </trkpt>
      <trkpt lat="45.88232" lon="4.88917">
        <ele>292</ele>
        <time>2017-04-29T09:01:13Z</time>
      </trkpt>
      <trkpt lat="45.88231" lon="4.88928">
        <ele>292</ele>
        <time>2017-04-29T09:01:14Z</time>
      </trkpt>
      <trkpt lat="45.8823" lon="4.88938">
        <ele>293</ele>
        <time>2017-04-29T09:01:15Z</time>
      </trkpt>
      <trkpt lat="45.88229" lon="4.88949">
        <ele>293</ele>
        <time>2017-04-29T09:01:16Z</time>
      </trkpt>
      <trkpt lat="45.88228" lon="4.88959">
        <ele>293</ele>
        <time>2017-04-29T09:01:17Z</time>
      </trkpt>
      <trkpt lat="45.88228" lon="4.8897">
        <ele>293</ele>
        <time>2017-04-29T09:01:18Z</time>
      </trkpt>
      <trkpt lat="45.88227" lon="4.8898">
        <ele>293</ele>
        <time>2017-04-29T09:01:19Z</time>
      </trkpt>
      <trkpt lat="45.88226" lon="4.8899">
        <ele>293</ele>
        <time>2017-04-29T09:01:20Z</time>
      </trkpt>
      <trkpt lat="45.88225" lon="4.88999">
        <ele>293</ele>
        <time>2017-04-29T09:01:21Z</time>
      </trkpt>
      <trkpt lat="45.88225" lon="4.89009">
        <ele>293</ele>
        <time>2017-04-29T09:01:22Z</time>
      </trkpt>
      <trkpt lat="45.88224" lon="4.89018">
        <ele>293</ele>
        <time>2017-04-29T09:01:23Z</time>
      </trkpt>
      <trkpt lat="45.88223" lon="4.89027">
        <ele>293</ele>
        <time>2017-04-29T09:01:24Z</time>
      </trkpt>
      <trkpt lat="45.88222" lon="4.89036">
        <ele>293</ele>
        <time>2017-04-29T09:01:25Z</time>
      </trkpt>
      <trkpt lat="45.88221" lon="4.89045">
        <ele>293</ele>
        <time>2017-04-29T09:01:26Z</time>
      </trkpt>
      <trkpt lat="45.88221" lon="4.89053">
        <ele>293</ele>
        <time>2017-04-29T09:01:27Z</time>
      </trkpt>
      <trkpt lat="45.8822" lon="4.89062">
        <ele>293</ele>
        <time>2017-04-29T09:01:28Z</time>
      </trkpt>
      <trkpt lat="45.88219" lon="4.8907">
        <ele>293</ele>
        <time>2017-04-29T09:01:29Z</time>
      </trkpt>
      <trkpt lat="45.88219" lon="4.89077">
        <ele>293</ele>
        <time>2017-04-29T09:01:30Z</time>
      </trkpt>
      <trkpt lat="45.88218" lon="4.89085">
        <ele>294</ele>
        <time>2017-04-29T09:01:31Z</time>
      </trkpt>
      <trkpt lat="45.88217" lon="4.89092">
        <ele>294</ele>
        <time>2017-04-29T09:01:32Z</time>
      </trkpt>
      <trkpt lat="45.88217" lon="4.89099">
        <ele>294</ele>
        <time>2017-04-29T09:01:33Z</time>
      </trkpt>
      <trkpt lat="45.88216" lon="4.89107">
        <ele>294</ele>
        <time>2017-04-29T09:01:34Z</time>
      </trkpt>
      <trkpt lat="45.88215" lon="4.89115">
        <ele>294</ele>
        <time>2017-04-29T09:01:35Z</time>
      </trkpt>
      <trkpt lat="45.88215" lon="4.89123">
        <ele>294</ele>
        <time>2017-04-29T09:01:36Z</time>
      </trkpt>
      <trkpt lat="45.88214" lon="4.89131">
        <ele>294</ele>
        <time>2017-04-29T09:01:37Z</time>
      </trkpt>
      <trkpt lat="45.88213" lon="4.89139">
        <ele>294</ele>
        <time>2017-04-29T09:01:38Z</time>
      </trkpt>
      <trkpt lat="45.88212" lon="4.89147">
        <ele>294</ele>
        <time>2017-04-29T09:01:39Z</time>
      </trkpt>
      <trkpt lat="45.88212" lon="4.89155">
        <ele>295</ele>
        <time>2017-04-29T09:01:40Z</time>
      </trkpt>
      <trkpt lat="45.88212" lon="4.89164">
        <ele>295</ele>
        <time>2017-04-29T09:01:41Z</time>
      </trkpt>
      <trkpt lat="45.88211" lon="4.89172">
        <ele>296</ele>
        <time>2017-04-29T09:01:42Z</time>
      </trkpt>
      <trkpt lat="45.88211" lon="4.89181">
        <ele>296</ele>
        <time>2017-04-29T09:01:43Z</time>
      </trkpt>
      <trkpt lat="45.8821" lon="4.89189">
        <ele>296</ele>
        <time>2017-04-29T09:01:44Z</time>
      </trkpt>
      <trkpt lat="45.8821" lon="4.89198">
        <ele>296</ele>
        <time>2017-04-29T09:01:45Z</time>
      </trkpt>
      <trkpt lat="45.8821" lon="4.89206">
        <ele>296</ele>
        <time>2017-04-29T09:01:46Z</time>
      </trkpt>
      <trkpt lat="45.88209" lon="4.89214">
        <ele>296</ele>
        <time>2017-04-29T09:01:47Z</time>
      </trkpt>
      <trkpt lat="45.88209" lon="4.89222">
        <ele>296</ele>
        <time>2017-04-29T09:01:48Z</time>
      </trkpt>
      <trkpt lat="45.88208" lon="4.8923">
        <ele>296</ele>
        <time>2017-04-29T09:01:49Z</time>
      </trkpt>
      <trkpt lat="45.88207" lon="4.89237">
        <ele>296</ele>
        <time>2017-04-29T09:01:50Z</time>
      </trkpt>
      <trkpt lat="45.88207" lon="4.89244">
        <ele>296</ele>
        <time>2017-04-29T09:01:51Z</time>
      </trkpt>
      <trkpt lat="45.88206" lon="4.89251">
        <ele>296</ele>
        <time>2017-04-29T09:01:52Z</time>
      </trkpt>
      <trkpt lat="45.88206" lon="4.89258">
        <ele>296</ele>
        <time>2017-04-29T09:01:53Z</time>
      </trkpt>
      <trkpt lat="45.88205" lon="4.89265">
        <ele>296</ele>
        <time>2017-04-29T09:01:54Z</time>
      </trkpt>
      <trkpt lat="45.88205" lon="4.89271">
        <ele>296</ele>
        <time>2017-04-29T09:01:55Z</time>
      </trkpt>
      <trkpt lat="45.88204" lon="4.89278">
        <ele>296</ele>
        <time>2017-04-29T09:01:56Z</time>
      </trkpt>
      <trkpt lat="45.88204" lon="4.89286">
        <ele>296</ele>
        <time>2017-04-29T09:01:57Z</time>
      </trkpt>
      <trkpt lat="45.88203" lon="4.89293">
        <ele>296</ele>
        <time>2017-04-29T09:01:58Z</time>
      </trkpt>
      <trkpt lat="45.88203" lon="4.89301">
        <ele>296</ele>
        <time>2017-04-29T09:01:59Z</time>
      </trkpt>
      <trkpt lat="45.88202" lon="4.89308">
        <ele>296</ele>
        <time>2017-04-29T09:02:00Z</time>
      </trkpt>
      <trkpt lat="45.88202" lon="4.89315">
        <ele>296</ele>
        <time>2017-04-29T09:02:01Z</time>
      </trkpt>
      <trkpt lat="45.88201" lon="4.89323">
        <ele>296</ele>
        <time>2017-04-29T09:02:02Z</time>
      </trkpt>
      <trkpt lat="45.88201" lon="4.8933">
        <ele>296</ele>
        <time>2017-04-29T09:02:03Z</time>
      </trkpt>
      <trkpt lat="45.882" lon="4.89337">
        <ele>296</ele>
        <time>2017-04-29T09:02:04Z</time>
      </trkpt>
      <trkpt lat="45.882" lon="4.89344">
        <ele>296</ele>
        <time>2017-04-29T09:02:05Z</time>
      </trkpt>
      <trkpt lat="45.88199" lon="4.89351">
        <ele>296</ele>
        <time>2017-04-29T09:02:06Z</time>
      </trkpt>
      <trkpt lat="45.88199" lon="4.89358">
        <ele>297</ele>
        <time>2017-04-29T09:02:07Z</time>
      </trkpt>
      <trkpt lat="45.88199" lon="4.89365">
        <ele>297</ele>
        <time>2017-04-29T09:02:08Z</time>
      </trkpt>
      <trkpt lat="45.88198" lon="4.89372">
        <ele>297</ele>
        <time>2017-04-29T09:02:09Z</time>
      </trkpt>
      <trkpt lat="45.88198" lon="4.89379">
        <ele>297</ele>
        <time>2017-04-29T09:02:10Z</time>
      </trkpt>
      <trkpt lat="45.88198" lon="4.89387">
        <ele>297</ele>
        <time>2017-04-29T09:02:11Z</time>
      </trkpt>
      <trkpt lat="45.88197" lon="4.89394">
        <ele>297</ele>
        <time>2017-04-29T09:02:12Z</time>
      </trkpt>
      <trkpt lat="45.88197" lon="4.89401">
        <ele>297</ele>
        <time>2017-04-29T09:02:13Z</time>
      </trkpt>
      <trkpt lat="45.88197" lon="4.89409">
        <ele>297</ele>
        <time>2017-04-29T09:02:14Z</time>
      </trkpt>
      <trkpt lat="45.88197" lon="4.89416">
        <ele>297</ele>
        <time>2017-04-29T09:02:15Z</time>
      </trkpt>
      <trkpt lat="45.88196" lon="4.89423">
        <ele>297</ele>
        <time>2017-04-29T09:02:16Z</time>
      </trkpt>
      <trkpt lat="45.88196" lon="4.8943">
        <ele>297</ele>
        <time>2017-04-29T09:02:17Z</time>
      </trkpt>
      <trkpt lat="45.88196" lon="4.89437">
        <ele>297</ele>
        <time>2017-04-29T09:02:18Z</time>
      </trkpt>
      <trkpt lat="45.88196" lon="4.89444">
        <ele>297</ele>
        <time>2017-04-29T09:02:19Z</time>
      </trkpt>
      <trkpt lat="45.88195" lon="4.89451">
        <ele>297</ele>
        <time>2017-04-29T09:02:20Z</time>
      </trkpt>
      <trkpt lat="45.88195" lon="4.89458">
        <ele>297</ele>
        <time>2017-04-29T09:02:21Z</time>
      </trkpt>
      <trkpt lat="45.88195" lon="4.89465">
        <ele>297</ele>
        <time>2017-04-29T09:02:22Z</time>
      </trkpt>
      <trkpt lat="45.88195" lon="4.89472">
        <ele>297</ele>
        <time>2017-04-29T09:02:23Z</time>
      </trkpt>
      <trkpt lat="45.88195" lon="4.8948">
        <ele>297</ele>
        <time>2017-04-29T09:02:24Z</time>
      </trkpt>
      <trkpt lat="45.88195" lon="4.89487">
        <ele>297</ele>
        <time>2017-04-29T09:02:25Z</time>
      </trkpt>
      <trkpt lat="45.88195" lon="4.89494">
        <ele>297</ele>
        <time>2017-04-29T09:02:26Z</time>
      </trkpt>
      <trkpt lat="45.88195" lon="4.89501">
        <ele>298</ele>
        <time>2017-04-29T09:02:27Z</time>
      </trkpt>
      <trkpt lat="45.88194" lon="4.89513">
        <ele>298</ele>
        <time>2017-04-29T09:02:29Z</time>
      </trkpt>
      <trkpt lat="45.88194" lon="4.89519">
        <ele>298</ele>
        <time>2017-04-29T09:02:30Z</time>
      </trkpt>
      <trkpt lat="45.88194" lon="4.89531">
        <ele>298</ele>
        <time>2017-04-29T09:02:32Z</time>
      </trkpt>
      <trkpt lat="45.88195" lon="4.89536">
        <ele>298</ele>
        <time>2017-04-29T09:02:33Z</time>
      </trkpt>
      <trkpt lat="45.88194" lon="4.89547">
        <ele>298</ele>
        <time>2017-04-29T09:02:35Z</time>
      </trkpt>
      <trkpt lat="45.88194" lon="4.89552">
        <ele>298</ele>
        <time>2017-04-29T09:02:36Z</time>
      </trkpt>
      <trkpt lat="45.88194" lon="4.89563">
        <ele>298</ele>
        <time>2017-04-29T09:02:38Z</time>
      </trkpt>
      <trkpt lat="45.88195" lon="4.89569">
        <ele>298</ele>
        <time>2017-04-29T09:02:39Z</time>
      </trkpt>
      <trkpt lat="45.88195" lon="4.8958">
        <ele>298</ele>
        <time>2017-04-29T09:02:41Z</time>
      </trkpt>
      <trkpt lat="45.88195" lon="4.89586">
        <ele>299</ele>
        <time>2017-04-29T09:02:42Z</time>
      </trkpt>
      <trkpt lat="45.88195" lon="4.89598">
        <ele>299</ele>
        <time>2017-04-29T09:02:44Z</time>
      </trkpt>
      <trkpt lat="45.88195" lon="4.89603">
        <ele>299</ele>
        <time>2017-04-29T09:02:45Z</time>
      </trkpt>
      <trkpt lat="45.88195" lon="4.89614">
        <ele>299</ele>
        <time>2017-04-29T09:02:47Z</time>
      </trkpt>
      <trkpt lat="45.88195" lon="4.89619">
        <ele>299</ele>
        <time>2017-04-29T09:02:48Z</time>
      </trkpt>
      <trkpt lat="45.88195" lon="4.8963">
        <ele>299</ele>
        <time>2017-04-29T09:02:50Z</time>
      </trkpt>
      <trkpt lat="45.88195" lon="4.89635">
        <ele>299</ele>
        <time>2017-04-29T09:02:51Z</time>
      </trkpt>
      <trkpt lat="45.88195" lon="4.89646">
        <ele>299</ele>
        <time>2017-04-29T09:02:53Z</time>
      </trkpt>
      <trkpt lat="45.88195" lon="4.89651">
        <ele>299</ele>
        <time>2017-04-29T09:02:54Z</time>
      </trkpt>
      <trkpt lat="45.88196" lon="4.89661">
        <ele>299</ele>
        <time>2017-04-29T09:02:56Z</time>
      </trkpt>
      <trkpt lat="45.88196" lon="4.89666">
        <ele>299</ele>
        <time>2017-04-29T09:02:57Z</time>
      </trkpt>
      <trkpt lat="45.88196" lon="4.89678">
        <ele>299</ele>
        <time>2017-04-29T09:02:59Z</time>
      </trkpt>
      <trkpt lat="45.88196" lon="4.89684">
        <ele>299</ele>
        <time>2017-04-29T09:03:00Z</time>
      </trkpt>
      <trkpt lat="45.88196" lon="4.89696">
        <ele>299</ele>
        <time>2017-04-29T09:03:02Z</time>
      </trkpt>
      <trkpt lat="45.88196" lon="4.89703">
        <ele>299</ele>
        <time>2017-04-29T09:03:03Z</time>
      </trkpt>
      <trkpt lat="45.88195" lon="4.8971">
        <ele>299</ele>
        <time>2017-04-29T09:03:04Z</time>
      </trkpt>
      <trkpt lat="45.88195" lon="4.89717">
        <ele>299</ele>
        <time>2017-04-29T09:03:05Z</time>
      </trkpt>
      <trkpt lat="45.88195" lon="4.89724">
        <ele>299</ele>
        <time>2017-04-29T09:03:06Z</time>
      </trkpt>
      <trkpt lat="45.88195" lon="4.8973">
        <ele>299</ele>
        <time>2017-04-29T09:03:07Z</time>
      </trkpt>
      <trkpt lat="45.88195" lon="4.89743">
        <ele>299</ele>
        <time>2017-04-29T09:03:09Z</time>
      </trkpt>
      <trkpt lat="45.88194" lon="4.89749">
        <ele>299</ele>
        <time>2017-04-29T09:03:10Z</time>
      </trkpt>
      <trkpt lat="45.88194" lon="4.89761">
        <ele>300</ele>
        <time>2017-04-29T09:03:12Z</time>
      </trkpt>
      <trkpt lat="45.88194" lon="4.89768">
        <ele>300</ele>
        <time>2017-04-29T09:03:13Z</time>
      </trkpt>
      <trkpt lat="45.88193" lon="4.8978">
        <ele>300</ele>
        <time>2017-04-29T09:03:15Z</time>
      </trkpt>
      <trkpt lat="45.88193" lon="4.89787">
        <ele>300</ele>
        <time>2017-04-29T09:03:16Z</time>
      </trkpt>
      <trkpt lat="45.88193" lon="4.89793">
        <ele>300</ele>
        <time>2017-04-29T09:03:17Z</time>
      </trkpt>
      <trkpt lat="45.88192" lon="4.898">
        <ele>300</ele>
        <time>2017-04-29T09:03:18Z</time>
      </trkpt>
      <trkpt lat="45.88192" lon="4.89807">
        <ele>300</ele>
        <time>2017-04-29T09:03:19Z</time>
      </trkpt>
      <trkpt lat="45.88192" lon="4.89814">
        <ele>300</ele>
        <time>2017-04-29T09:03:20Z</time>
      </trkpt>
      <trkpt lat="45.88192" lon="4.89821">
        <ele>300</ele>
        <time>2017-04-29T09:03:21Z</time>
      </trkpt>
      <trkpt lat="45.88192" lon="4.89828">
        <ele>300</ele>
        <time>2017-04-29T09:03:22Z</time>
      </trkpt>
      <trkpt lat="45.88191" lon="4.89836">
        <ele>300</ele>
        <time>2017-04-29T09:03:23Z</time>
      </trkpt>
      <trkpt lat="45.88191" lon="4.89843">
        <ele>300</ele>
        <time>2017-04-29T09:03:24Z</time>
      </trkpt>
      <trkpt lat="45.88191" lon="4.89851">
        <ele>301</ele>
        <time>2017-04-29T09:03:25Z</time>
      </trkpt>
      <trkpt lat="45.88191" lon="4.89858">
        <ele>301</ele>
        <time>2017-04-29T09:03:26Z</time>
      </trkpt>
      <trkpt lat="45.88191" lon="4.89866">
        <ele>301</ele>
        <time>2017-04-29T09:03:27Z</time>
      </trkpt>
      <trkpt lat="45.88191" lon="4.89873">
        <ele>301</ele>
        <time>2017-04-29T09:03:28Z</time>
      </trkpt>
      <trkpt lat="45.88191" lon="4.89881">
        <ele>301</ele>
        <time>2017-04-29T09:03:29Z</time>
      </trkpt>
      <trkpt lat="45.8819" lon="4.89889">
        <ele>301</ele>
        <time>2017-04-29T09:03:30Z</time>
      </trkpt>
      <trkpt lat="45.8819" lon="4.89896">
        <ele>301</ele>
        <time>2017-04-29T09:03:31Z</time>
      </trkpt>
      <trkpt lat="45.8819" lon="4.89903">
        <ele>301</ele>
        <time>2017-04-29T09:03:32Z</time>
      </trkpt>
      <trkpt lat="45.8819" lon="4.89911">
        <ele>301</ele>
        <time>2017-04-29T09:03:33Z</time>
      </trkpt>
      <trkpt lat="45.8819" lon="4.89918">
        <ele>301</ele>
        <time>2017-04-29T09:03:34Z</time>
      </trkpt>
      <trkpt lat="45.88191" lon="4.89924">
        <ele>301</ele>
        <time>2017-04-29T09:03:35Z</time>
      </trkpt>
      <trkpt lat="45.88191" lon="4.89931">
        <ele>301</ele>
        <time>2017-04-29T09:03:36Z</time>
      </trkpt>
      <trkpt lat="45.88191" lon="4.89938">
        <ele>301</ele>
        <time>2017-04-29T09:03:37Z</time>
      </trkpt>
      <trkpt lat="45.88191" lon="4.89945">
        <ele>301</ele>
        <time>2017-04-29T09:03:38Z</time>
      </trkpt>
      <trkpt lat="45.88191" lon="4.89952">
        <ele>301</ele>
        <time>2017-04-29T09:03:39Z</time>
      </trkpt>
      <trkpt lat="45.88191" lon="4.8996">
        <ele>301</ele>
        <time>2017-04-29T09:03:40Z</time>
      </trkpt>
      <trkpt lat="45.88192" lon="4.89967">
        <ele>301</ele>
        <time>2017-04-29T09:03:41Z</time>
      </trkpt>
      <trkpt lat="45.88192" lon="4.89974">
        <ele>301</ele>
        <time>2017-04-29T09:03:42Z</time>
      </trkpt>
      <trkpt lat="45.88192" lon="4.89981">
        <ele>301</ele>
        <time>2017-04-29T09:03:43Z</time>
      </trkpt>
      <trkpt lat="45.88192" lon="4.89988">
        <ele>301</ele>
        <time>2017-04-29T09:03:44Z</time>
      </trkpt>
      <trkpt lat="45.88193" lon="4.89995">
        <ele>301</ele>
        <time>2017-04-29T09:03:45Z</time>
      </trkpt>
      <trkpt lat="45.88193" lon="4.90002">
        <ele>302</ele>
        <time>2017-04-29T09:03:46Z</time>
      </trkpt>
      <trkpt lat="45.88192" lon="4.9001">
        <ele>302</ele>
        <time>2017-04-29T09:03:47Z</time>
      </trkpt>
      <trkpt lat="45.88191" lon="4.90017">
        <ele>302</ele>
        <time>2017-04-29T09:03:48Z</time>
      </trkpt>
      <trkpt lat="45.8819" lon="4.90025">
        <ele>302</ele>
        <time>2017-04-29T09:03:49Z</time>
      </trkpt>
      <trkpt lat="45.88188" lon="4.90032">
        <ele>303</ele>
        <time>2017-04-29T09:03:50Z</time>
      </trkpt>
      <trkpt lat="45.88187" lon="4.90039">
        <ele>303</ele>
        <time>2017-04-29T09:03:51Z</time>
      </trkpt>
      <trkpt lat="45.88188" lon="4.90047">
        <ele>303</ele>
        <time>2017-04-29T09:03:52Z</time>
      </trkpt>
      <trkpt lat="45.88189" lon="4.90054">
        <ele>303</ele>
        <time>2017-04-29T09:03:53Z</time>
      </trkpt>
      <trkpt lat="45.8819" lon="4.9006">
        <ele>303</ele>
        <time>2017-04-29T09:03:54Z</time>
      </trkpt>
      <trkpt lat="45.88193" lon="4.90066">
        <ele>303</ele>
        <time>2017-04-29T09:03:55Z</time>
      </trkpt>
      <trkpt lat="45.88195" lon="4.90072">
        <ele>303</ele>
        <time>2017-04-29T09:03:56Z</time>
      </trkpt>
      <trkpt lat="45.88199" lon="4.90076">
        <ele>303</ele>
        <time>2017-04-29T09:03:57Z</time>
      </trkpt>
      <trkpt lat="45.88203" lon="4.90079">
        <ele>303</ele>
        <time>2017-04-29T09:03:58Z</time>
      </trkpt>
      <trkpt lat="45.88208" lon="4.90081">
        <ele>303</ele>
        <time>2017-04-29T09:03:59Z</time>
      </trkpt>
      <trkpt lat="45.88213" lon="4.90081">
        <ele>304</ele>
        <time>2017-04-29T09:04:00Z</time>
      </trkpt>
      <trkpt lat="45.88218" lon="4.90079">
        <ele>304</ele>
        <time>2017-04-29T09:04:01Z</time>
      </trkpt>
      <trkpt lat="45.88223" lon="4.90077">
        <ele>304</ele>
        <time>2017-04-29T09:04:02Z</time>
      </trkpt>
      <trkpt lat="45.88227" lon="4.90073">
        <ele>304</ele>
        <time>2017-04-29T09:04:03Z</time>
      </trkpt>
      <trkpt lat="45.88231" lon="4.90069">
        <ele>304</ele>
        <time>2017-04-29T09:04:04Z</time>
      </trkpt>
      <trkpt lat="45.88234" lon="4.90064">
        <ele>304</ele>
        <time>2017-04-29T09:04:05Z</time>
      </trkpt>
      <trkpt lat="45.88238" lon="4.90059">
        <ele>304</ele>
        <time>2017-04-29T09:04:06Z</time>
      </trkpt>
      <trkpt lat="45.88242" lon="4.90055">
        <ele>304</ele>
        <time>2017-04-29T09:04:07Z</time>
      </trkpt>
      <trkpt lat="45.88247" lon="4.90053">
        <ele>304</ele>
        <time>2017-04-29T09:04:08Z</time>
      </trkpt>
      <trkpt lat="45.88252" lon="4.90052">
        <ele>305</ele>
        <time>2017-04-29T09:04:09Z</time>
      </trkpt>
      <trkpt lat="45.88257" lon="4.90051">
        <ele>305</ele>
        <time>2017-04-29T09:04:10Z</time>
      </trkpt>
      <trkpt lat="45.88262" lon="4.9005">
        <ele>305</ele>
        <time>2017-04-29T09:04:11Z</time>
      </trkpt>
      <trkpt lat="45.88267" lon="4.90048">
        <ele>305</ele>
        <time>2017-04-29T09:04:12Z</time>
      </trkpt>
      <trkpt lat="45.88271" lon="4.90046">
        <ele>305</ele>
        <time>2017-04-29T09:04:13Z</time>
      </trkpt>
      <trkpt lat="45.88276" lon="4.90043">
        <ele>305</ele>
        <time>2017-04-29T09:04:14Z</time>
      </trkpt>
      <trkpt lat="45.8828" lon="4.9004">
        <ele>305</ele>
        <time>2017-04-29T09:04:15Z</time>
      </trkpt>
      <trkpt lat="45.88285" lon="4.90037">
        <ele>305</ele>
        <time>2017-04-29T09:04:16Z</time>
      </trkpt>
      <trkpt lat="45.88289" lon="4.90033">
        <ele>305</ele>
        <time>2017-04-29T09:04:17Z</time>
      </trkpt>
      <trkpt lat="45.88293" lon="4.90028">
        <ele>305</ele>
        <time>2017-04-29T09:04:18Z</time>
      </trkpt>
      <trkpt lat="45.88297" lon="4.90024">
        <ele>305</ele>
        <time>2017-04-29T09:04:19Z</time>
      </trkpt>
      <trkpt lat="45.88301" lon="4.90021">
        <ele>305</ele>
        <time>2017-04-29T09:04:20Z</time>
      </trkpt>
      <trkpt lat="45.88306" lon="4.90018">
        <ele>305</ele>
        <time>2017-04-29T09:04:21Z</time>
      </trkpt>
      <trkpt lat="45.88311" lon="4.90016">
        <ele>305</ele>
        <time>2017-04-29T09:04:22Z</time>
      </trkpt>
      <trkpt lat="45.88315" lon="4.90014">
        <ele>305</ele>
        <time>2017-04-29T09:04:23Z</time>
      </trkpt>
      <trkpt lat="45.8832" lon="4.90012">
        <ele>305</ele>
        <time>2017-04-29T09:04:24Z</time>
      </trkpt>
      <trkpt lat="45.88328" lon="4.90007">
        <ele>305</ele>
        <time>2017-04-29T09:04:26Z</time>
      </trkpt>
      <trkpt lat="45.88331" lon="4.90005">
        <ele>305</ele>
        <time>2017-04-29T09:04:27Z</time>
      </trkpt>
      <trkpt lat="45.88339" lon="4.9">
        <ele>305</ele>
        <time>2017-04-29T09:04:29Z</time>
      </trkpt>
      <trkpt lat="45.88343" lon="4.89999">
        <ele>305</ele>
        <time>2017-04-29T09:04:30Z</time>
      </trkpt>
      <trkpt lat="45.88349" lon="4.89996">
        <ele>305</ele>
        <time>2017-04-29T09:04:32Z</time>
      </trkpt>
      <trkpt lat="45.88352" lon="4.89995">
        <ele>305</ele>
        <time>2017-04-29T09:04:33Z</time>
      </trkpt>
      <trkpt lat="45.88359" lon="4.89992">
        <ele>304</ele>
        <time>2017-04-29T09:04:35Z</time>
      </trkpt>
      <trkpt lat="45.88362" lon="4.8999">
        <ele>304</ele>
        <time>2017-04-29T09:04:36Z</time>
      </trkpt>
      <trkpt lat="45.88371" lon="4.89987">
        <ele>304</ele>
        <time>2017-04-29T09:04:38Z</time>
      </trkpt>
      <trkpt lat="45.88375" lon="4.89985">
        <ele>304</ele>
        <time>2017-04-29T09:04:39Z</time>
      </trkpt>
      <trkpt lat="45.8838" lon="4.89983">
        <ele>304</ele>
        <time>2017-04-29T09:04:40Z</time>
      </trkpt>
      <trkpt lat="45.88385" lon="4.8998">
        <ele>304</ele>
        <time>2017-04-29T09:04:41Z</time>
      </trkpt>
      <trkpt lat="45.8839" lon="4.89977">
        <ele>304</ele>
        <time>2017-04-29T09:04:42Z</time>
      </trkpt>
      <trkpt lat="45.88395" lon="4.89975">
        <ele>304</ele>
        <time>2017-04-29T09:04:43Z</time>
      </trkpt>
      <trkpt lat="45.88401" lon="4.89972">
        <ele>304</ele>
        <time>2017-04-29T09:04:44Z</time>
      </trkpt>
      <trkpt lat="45.88407" lon="4.8997">
        <ele>304</ele>
        <time>2017-04-29T09:04:45Z</time>
      </trkpt>
      <trkpt lat="45.88413" lon="4.89967">
        <ele>304</ele>
        <time>2017-04-29T09:04:46Z</time>
      </trkpt>
      <trkpt lat="45.88418" lon="4.89964">
        <ele>303</ele>
        <time>2017-04-29T09:04:47Z</time>
      </trkpt>
      <trkpt lat="45.88424" lon="4.89961">
        <ele>303</ele>
        <time>2017-04-29T09:04:48Z</time>
      </trkpt>
      <trkpt lat="45.8843" lon="4.89959">
        <ele>303</ele>
        <time>2017-04-29T09:04:49Z</time>
      </trkpt>
      <trkpt lat="45.88435" lon="4.89956">
        <ele>303</ele>
        <time>2017-04-29T09:04:50Z</time>
      </trkpt>
      <trkpt lat="45.88441" lon="4.89954">
        <ele>303</ele>
        <time>2017-04-29T09:04:51Z</time>
      </trkpt>
      <trkpt lat="45.88446" lon="4.89952">
        <ele>303</ele>
        <time>2017-04-29T09:04:52Z</time>
      </trkpt>
      <trkpt lat="45.88451" lon="4.89949">
        <ele>303</ele>
        <time>2017-04-29T09:04:53Z</time>
      </trkpt>
      <trkpt lat="45.88457" lon="4.89947">
        <ele>303</ele>
        <time>2017-04-29T09:04:54Z</time>
      </trkpt>
      <trkpt lat="45.88462" lon="4.89944">
        <ele>303</ele>
        <time>2017-04-29T09:04:55Z</time>
      </trkpt>
      <trkpt lat="45.88467" lon="4.89942">
        <ele>303</ele>
        <time>2017-04-29T09:04:56Z</time>
      </trkpt>
      <trkpt lat="45.88472" lon="4.8994">
        <ele>303</ele>
        <time>2017-04-29T09:04:57Z</time>
      </trkpt>
      <trkpt lat="45.88478" lon="4.89938">
        <ele>303</ele>
        <time>2017-04-29T09:04:58Z</time>
      </trkpt>
      <trkpt lat="45.88483" lon="4.89936">
        <ele>303</ele>
        <time>2017-04-29T09:04:59Z</time>
      </trkpt>
      <trkpt lat="45.88489" lon="4.89933">
        <ele>303</ele>
        <time>2017-04-29T09:05:00Z</time>
      </trkpt>
      <trkpt lat="45.88495" lon="4.89931">
        <ele>303</ele>
        <time>2017-04-29T09:05:01Z</time>
      </trkpt>
      <trkpt lat="45.88501" lon="4.89929">
        <ele>301</ele>
        <time>2017-04-29T09:05:02Z</time>
      </trkpt>
      <trkpt lat="45.88508" lon="4.89927">
        <ele>301</ele>
        <time>2017-04-29T09:05:03Z</time>
      </trkpt>
      <trkpt lat="45.88516" lon="4.89926">
        <ele>301</ele>
        <time>2017-04-29T09:05:04Z</time>
      </trkpt>
      <trkpt lat="45.88523" lon="4.89925">
        <ele>300</ele>
        <time>2017-04-29T09:05:05Z</time>
      </trkpt>
      <trkpt lat="45.88531" lon="4.89923">
        <ele>300</ele>
        <time>2017-04-29T09:05:06Z</time>
      </trkpt>
      <trkpt lat="45.8854" lon="4.89922">
        <ele>299</ele>
        <time>2017-04-29T09:05:07Z</time>
      </trkpt>
      <trkpt lat="45.88548" lon="4.8992">
        <ele>299</ele>
        <time>2017-04-29T09:05:08Z</time>
      </trkpt>
      <trkpt lat="45.88557" lon="4.89918">
        <ele>299</ele>
        <time>2017-04-29T09:05:09Z</time>
      </trkpt>
      <trkpt lat="45.88566" lon="4.89916">
        <ele>298</ele>
        <time>2017-04-29T09:05:10Z</time>
      </trkpt>
      <trkpt lat="45.88575" lon="4.89913">
        <ele>298</ele>
        <time>2017-04-29T09:05:11Z</time>
      </trkpt>
      <trkpt lat="45.88583" lon="4.89911">
        <ele>297</ele>
        <time>2017-04-29T09:05:12Z</time>
      </trkpt>
      <trkpt lat="45.88592" lon="4.89909">
        <ele>296</ele>
        <time>2017-04-29T09:05:13Z</time>
      </trkpt>
      <trkpt lat="45.886" lon="4.89908">
        <ele>296</ele>
        <time>2017-04-29T09:05:14Z</time>
      </trkpt>
      <trkpt lat="45.88607" lon="4.89909">
        <ele>296</ele>
        <time>2017-04-29T09:05:15Z</time>
      </trkpt>
      <trkpt lat="45.88613" lon="4.89912">
        <ele>296</ele>
        <time>2017-04-29T09:05:16Z</time>
      </trkpt>
      <trkpt lat="45.88618" lon="4.89917">
        <ele>296</ele>
        <time>2017-04-29T09:05:17Z</time>
      </trkpt>
      <trkpt lat="45.88622" lon="4.89924">
        <ele>295</ele>
        <time>2017-04-29T09:05:18Z</time>
      </trkpt>
      <trkpt lat="45.88624" lon="4.89931">
        <ele>295</ele>
        <time>2017-04-29T09:05:19Z</time>
      </trkpt>
      <trkpt lat="45.88625" lon="4.89938">
        <ele>295</ele>
        <time>2017-04-29T09:05:20Z</time>
      </trkpt>
      <trkpt lat="45.88627" lon="4.89945">
        <ele>295</ele>
        <time>2017-04-29T09:05:21Z</time>
      </trkpt>
      <trkpt lat="45.88628" lon="4.89952">
        <ele>295</ele>
        <time>2017-04-29T09:05:22Z</time>
      </trkpt>
      <trkpt lat="45.88629" lon="4.89959">
        <ele>295</ele>
        <time>2017-04-29T09:05:23Z</time>
      </trkpt>
      <trkpt lat="45.8863" lon="4.89966">
        <ele>295</ele>
        <time>2017-04-29T09:05:24Z</time>
      </trkpt>
      <trkpt lat="45.88632" lon="4.89973">
        <ele>295</ele>
        <time>2017-04-29T09:05:25Z</time>
      </trkpt>
      <trkpt lat="45.88633" lon="4.89981">
        <ele>295</ele>
        <time>2017-04-29T09:05:26Z</time>
      </trkpt>
      <trkpt lat="45.88634" lon="4.89988">
        <ele>295</ele>
        <time>2017-04-29T09:05:27Z</time>
      </trkpt>
      <trkpt lat="45.88636" lon="4.89996">
        <ele>295</ele>
        <time>2017-04-29T09:05:28Z</time>
      </trkpt>
      <trkpt lat="45.88637" lon="4.90004">
        <ele>295</ele>
        <time>2017-04-29T09:05:29Z</time>
      </trkpt>
      <trkpt lat="45.88638" lon="4.90012">
        <ele>295</ele>
        <time>2017-04-29T09:05:30Z</time>
      </trkpt>
      <trkpt lat="45.88639" lon="4.90019">
        <ele>295</ele>
        <time>2017-04-29T09:05:31Z</time>
      </trkpt>
      <trkpt lat="45.8864" lon="4.90027">
        <ele>295</ele>
        <time>2017-04-29T09:05:32Z</time>
      </trkpt>
      <trkpt lat="45.88642" lon="4.90034">
        <ele>295</ele>
        <time>2017-04-29T09:05:33Z</time>
      </trkpt>
      <trkpt lat="45.88643" lon="4.90042">
        <ele>295</ele>
        <time>2017-04-29T09:05:34Z</time>
      </trkpt>
      <trkpt lat="45.88644" lon="4.90049">
        <ele>295</ele>
        <time>2017-04-29T09:05:35Z</time>
      </trkpt>
      <trkpt lat="45.88645" lon="4.90056">
        <ele>295</ele>
        <time>2017-04-29T09:05:36Z</time>
      </trkpt>
      <trkpt lat="45.88647" lon="4.90063">
        <ele>295</ele>
        <time>2017-04-29T09:05:37Z</time>
      </trkpt>
      <trkpt lat="45.88648" lon="4.9007">
        <ele>295</ele>
        <time>2017-04-29T09:05:38Z</time>
      </trkpt>
      <trkpt lat="45.88649" lon="4.90077">
        <ele>295</ele>
        <time>2017-04-29T09:05:39Z</time>
      </trkpt>
      <trkpt lat="45.88651" lon="4.90084">
        <ele>294</ele>
        <time>2017-04-29T09:05:40Z</time>
      </trkpt>
      <trkpt lat="45.88652" lon="4.90091">
        <ele>294</ele>
        <time>2017-04-29T09:05:41Z</time>
      </trkpt>
      <trkpt lat="45.88653" lon="4.90098">
        <ele>294</ele>
        <time>2017-04-29T09:05:42Z</time>
      </trkpt>
      <trkpt lat="45.88655" lon="4.90106">
        <ele>294</ele>
        <time>2017-04-29T09:05:43Z</time>
      </trkpt>
      <trkpt lat="45.88655" lon="4.90113">
        <ele>295</ele>
        <time>2017-04-29T09:05:44Z</time>
      </trkpt>
      <trkpt lat="45.88656" lon="4.90121">
        <ele>295</ele>
        <time>2017-04-29T09:05:45Z</time>
      </trkpt>
      <trkpt lat="45.88656" lon="4.90129">
        <ele>295</ele>
        <time>2017-04-29T09:05:46Z</time>
      </trkpt>
      <trkpt lat="45.88657" lon="4.90137">
        <ele>294</ele>
        <time>2017-04-29T09:05:47Z</time>
      </trkpt>
      <trkpt lat="45.88658" lon="4.90145">
        <ele>294</ele>
        <time>2017-04-29T09:05:48Z</time>
      </trkpt>
      <trkpt lat="45.88659" lon="4.90154">
        <ele>294</ele>
        <time>2017-04-29T09:05:49Z</time>
      </trkpt>
      <trkpt lat="45.8866" lon="4.90163">
        <ele>294</ele>
        <time>2017-04-29T09:05:50Z</time>
      </trkpt>
      <trkpt lat="45.88661" lon="4.90171">
        <ele>294</ele>
        <time>2017-04-29T09:05:51Z</time>
      </trkpt>
      <trkpt lat="45.88661" lon="4.9018">
        <ele>294</ele>
        <time>2017-04-29T09:05:52Z</time>
      </trkpt>
      <trkpt lat="45.88662" lon="4.90189">
        <ele>294</ele>
        <time>2017-04-29T09:05:53Z</time>
      </trkpt>
      <trkpt lat="45.88662" lon="4.90198">
        <ele>294</ele>
        <time>2017-04-29T09:05:54Z</time>
      </trkpt>
      <trkpt lat="45.88662" lon="4.90208">
        <ele>294</ele>
        <time>2017-04-29T09:05:55Z</time>
      </trkpt>
      <trkpt lat="45.88662" lon="4.90217">
        <ele>294</ele>
        <time>2017-04-29T09:05:56Z</time>
      </trkpt>
      <trkpt lat="45.88661" lon="4.90226">
        <ele>294</ele>
        <time>2017-04-29T09:05:57Z</time>
      </trkpt>
      <trkpt lat="45.88661" lon="4.90235">
        <ele>293</ele>
        <time>2017-04-29T09:05:58Z</time>
      </trkpt>
      <trkpt lat="45.88661" lon="4.90243">
        <ele>293</ele>
        <time>2017-04-29T09:05:59Z</time>
      </trkpt>
      <trkpt lat="45.88661" lon="4.90252">
        <ele>293</ele>
        <time>2017-04-29T09:06:00Z</time>
      </trkpt>
      <trkpt lat="45.88661" lon="4.90261">
        <ele>293</ele>
        <time>2017-04-29T09:06:01Z</time>
      </trkpt>
      <trkpt lat="45.88661" lon="4.90269">
        <ele>293</ele>
        <time>2017-04-29T09:06:02Z</time>
      </trkpt>
      <trkpt lat="45.88661" lon="4.90278">
        <ele>293</ele>
        <time>2017-04-29T09:06:03Z</time>
      </trkpt>
      <trkpt lat="45.88661" lon="4.90286">
        <ele>293</ele>
        <time>2017-04-29T09:06:04Z</time>
      </trkpt>
      <trkpt lat="45.8866" lon="4.90296">
        <ele>293</ele>
        <time>2017-04-29T09:06:05Z</time>
      </trkpt>
      <trkpt lat="45.8866" lon="4.90306">
        <ele>293</ele>
        <time>2017-04-29T09:06:06Z</time>
      </trkpt>
      <trkpt lat="45.8866" lon="4.90315">
        <ele>293</ele>
        <time>2017-04-29T09:06:07Z</time>
      </trkpt>
      <trkpt lat="45.8866" lon="4.90325">
        <ele>293</ele>
        <time>2017-04-29T09:06:08Z</time>
      </trkpt>
      <trkpt lat="45.8866" lon="4.90335">
        <ele>293</ele>
        <time>2017-04-29T09:06:09Z</time>
      </trkpt>
      <trkpt lat="45.8866" lon="4.90345">
        <ele>293</ele>
        <time>2017-04-29T09:06:10Z</time>
      </trkpt>
      <trkpt lat="45.8866" lon="4.90354">
        <ele>293</ele>
        <time>2017-04-29T09:06:11Z</time>
      </trkpt>
      <trkpt lat="45.8866" lon="4.90363">
        <ele>293</ele>
        <time>2017-04-29T09:06:12Z</time>
      </trkpt>
      <trkpt lat="45.8866" lon="4.90372">
        <ele>293</ele>
        <time>2017-04-29T09:06:13Z</time>
      </trkpt>
      <trkpt lat="45.8866" lon="4.9038">
        <ele>293</ele>
        <time>2017-04-29T09:06:14Z</time>
      </trkpt>
      <trkpt lat="45.8866" lon="4.90389">
        <ele>293</ele>
        <time>2017-04-29T09:06:15Z</time>
      </trkpt>
      <trkpt lat="45.8866" lon="4.90397">
        <ele>293</ele>
        <time>2017-04-29T09:06:16Z</time>
      </trkpt>
      <trkpt lat="45.88661" lon="4.90405">
        <ele>293</ele>
        <time>2017-04-29T09:06:17Z</time>
      </trkpt>
      <trkpt lat="45.88661" lon="4.90413">
        <ele>293</ele>
        <time>2017-04-29T09:06:18Z</time>
      </trkpt>
      <trkpt lat="45.88661" lon="4.90421">
        <ele>293</ele>
        <time>2017-04-29T09:06:19Z</time>
      </trkpt>
      <trkpt lat="45.88661" lon="4.90429">
        <ele>293</ele>
        <time>2017-04-29T09:06:20Z</time>
      </trkpt>
      <trkpt lat="45.88662" lon="4.90437">
        <ele>293</ele>
        <time>2017-04-29T09:06:21Z</time>
      </trkpt>
      <trkpt lat="45.88662" lon="4.90444">
        <ele>293</ele>
        <time>2017-04-29T09:06:22Z</time>
      </trkpt>
      <trkpt lat="45.88663" lon="4.90452">
        <ele>293</ele>
        <time>2017-04-29T09:06:23Z</time>
      </trkpt>
      <trkpt lat="45.88664" lon="4.9046">
        <ele>293</ele>
        <time>2017-04-29T09:06:24Z</time>
      </trkpt>
      <trkpt lat="45.88665" lon="4.90469">
        <ele>293</ele>
        <time>2017-04-29T09:06:25Z</time>
      </trkpt>
      <trkpt lat="45.88667" lon="4.90478">
        <ele>293</ele>
        <time>2017-04-29T09:06:26Z</time>
      </trkpt>
      <trkpt lat="45.88668" lon="4.90488">
        <ele>293</ele>
        <time>2017-04-29T09:06:27Z</time>
      </trkpt>
      <trkpt lat="45.8867" lon="4.90498">
        <ele>293</ele>
        <time>2017-04-29T09:06:28Z</time>
      </trkpt>
      <trkpt lat="45.88672" lon="4.90508">
        <ele>293</ele>
        <time>2017-04-29T09:06:29Z</time>
      </trkpt>
      <trkpt lat="45.88674" lon="4.90518">
        <ele>293</ele>
        <time>2017-04-29T09:06:30Z</time>
      </trkpt>
      <trkpt lat="45.88676" lon="4.90528">
        <ele>293</ele>
        <time>2017-04-29T09:06:31Z</time>
      </trkpt>
      <trkpt lat="45.88677" lon="4.90537">
        <ele>293</ele>
        <time>2017-04-29T09:06:32Z</time>
      </trkpt>
      <trkpt lat="45.88679" lon="4.90546">
        <ele>293</ele>
        <time>2017-04-29T09:06:33Z</time>
      </trkpt>
      <trkpt lat="45.8868" lon="4.90555">
        <ele>293</ele>
        <time>2017-04-29T09:06:34Z</time>
      </trkpt>
      <trkpt lat="45.88682" lon="4.90564">
        <ele>293</ele>
        <time>2017-04-29T09:06:35Z</time>
      </trkpt>
      <trkpt lat="45.88683" lon="4.90572">
        <ele>293</ele>
        <time>2017-04-29T09:06:36Z</time>
      </trkpt>
      <trkpt lat="45.88685" lon="4.90581">
        <ele>293</ele>
        <time>2017-04-29T09:06:37Z</time>
      </trkpt>
      <trkpt lat="45.88687" lon="4.90589">
        <ele>292</ele>
        <time>2017-04-29T09:06:38Z</time>
      </trkpt>
      <trkpt lat="45.88688" lon="4.90597">
        <ele>292</ele>
        <time>2017-04-29T09:06:39Z</time>
      </trkpt>
      <trkpt lat="45.8869" lon="4.90605">
        <ele>292</ele>
        <time>2017-04-29T09:06:40Z</time>
      </trkpt>
      <trkpt lat="45.88691" lon="4.90612">
        <ele>292</ele>
        <time>2017-04-29T09:06:41Z</time>
      </trkpt>
      <trkpt lat="45.88692" lon="4.9062">
        <ele>291</ele>
        <time>2017-04-29T09:06:42Z</time>
      </trkpt>
      <trkpt lat="45.88694" lon="4.90627">
        <ele>291</ele>
        <time>2017-04-29T09:06:43Z</time>
      </trkpt>
      <trkpt lat="45.88695" lon="4.90635">
        <ele>291</ele>
        <time>2017-04-29T09:06:44Z</time>
      </trkpt>
      <trkpt lat="45.88696" lon="4.90642">
        <ele>291</ele>
        <time>2017-04-29T09:06:45Z</time>
      </trkpt>
      <trkpt lat="45.88698" lon="4.9065">
        <ele>291</ele>
        <time>2017-04-29T09:06:46Z</time>
      </trkpt>
      <trkpt lat="45.88699" lon="4.90658">
        <ele>291</ele>
        <time>2017-04-29T09:06:47Z</time>
      </trkpt>
      <trkpt lat="45.88701" lon="4.90666">
        <ele>291</ele>
        <time>2017-04-29T09:06:48Z</time>
      </trkpt>
      <trkpt lat="45.88703" lon="4.90675">
        <ele>290</ele>
        <time>2017-04-29T09:06:49Z</time>
      </trkpt>
      <trkpt lat="45.88705" lon="4.90684">
        <ele>290</ele>
        <time>2017-04-29T09:06:50Z</time>
      </trkpt>
      <trkpt lat="45.88707" lon="4.90693">
        <ele>290</ele>
        <time>2017-04-29T09:06:51Z</time>
      </trkpt>
      <trkpt lat="45.88709" lon="4.90703">
        <ele>290</ele>
        <time>2017-04-29T09:06:52Z</time>
      </trkpt>
      <trkpt lat="45.88711" lon="4.90712">
        <ele>290</ele>
        <time>2017-04-29T09:06:53Z</time>
      </trkpt>
      <trkpt lat="45.88712" lon="4.90721">
        <ele>290</ele>
        <time>2017-04-29T09:06:54Z</time>
      </trkpt>
      <trkpt lat="45.88714" lon="4.9073">
        <ele>290</ele>
        <time>2017-04-29T09:06:55Z</time>
      </trkpt>
      <trkpt lat="45.88716" lon="4.90739">
        <ele>290</ele>
        <time>2017-04-29T09:06:56Z</time>
      </trkpt>
      <trkpt lat="45.88718" lon="4.90747">
        <ele>290</ele>
        <time>2017-04-29T09:06:57Z</time>
      </trkpt>
      <trkpt lat="45.88719" lon="4.90756">
        <ele>289</ele>
        <time>2017-04-29T09:06:58Z</time>
      </trkpt>
      <trkpt lat="45.88721" lon="4.90765">
        <ele>289</ele>
        <time>2017-04-29T09:06:59Z</time>
      </trkpt>
      <trkpt lat="45.88723" lon="4.90773">
        <ele>289</ele>
        <time>2017-04-29T09:07:00Z</time>
      </trkpt>
      <trkpt lat="45.88725" lon="4.90781">
        <ele>289</ele>
        <time>2017-04-29T09:07:01Z</time>
      </trkpt>
      <trkpt lat="45.88726" lon="4.90789">
        <ele>289</ele>
        <time>2017-04-29T09:07:02Z</time>
      </trkpt>
      <trkpt lat="45.88728" lon="4.90797">
        <ele>289</ele>
        <time>2017-04-29T09:07:03Z</time>
      </trkpt>
      <trkpt lat="45.8873" lon="4.90804">
        <ele>289</ele>
        <time>2017-04-29T09:07:04Z</time>
      </trkpt>
      <trkpt lat="45.88732" lon="4.90812">
        <ele>289</ele>
        <time>2017-04-29T09:07:05Z</time>
      </trkpt>
      <trkpt lat="45.88733" lon="4.90819">
        <ele>289</ele>
        <time>2017-04-29T09:07:06Z</time>
      </trkpt>
      <trkpt lat="45.88735" lon="4.90827">
        <ele>289</ele>
        <time>2017-04-29T09:07:07Z</time>
      </trkpt>
      <trkpt lat="45.88737" lon="4.90834">
        <ele>288</ele>
        <time>2017-04-29T09:07:08Z</time>
      </trkpt>
      <trkpt lat="45.88738" lon="4.90841">
        <ele>288</ele>
        <time>2017-04-29T09:07:09Z</time>
      </trkpt>
      <trkpt lat="45.8874" lon="4.90849">
        <ele>288</ele>
        <time>2017-04-29T09:07:10Z</time>
      </trkpt>
      <trkpt lat="45.88742" lon="4.90856">
        <ele>288</ele>
        <time>2017-04-29T09:07:11Z</time>
      </trkpt>
      <trkpt lat="45.88743" lon="4.90863">
        <ele>288</ele>
        <time>2017-04-29T09:07:12Z</time>
      </trkpt>
      <trkpt lat="45.88744" lon="4.9087">
        <ele>288</ele>
        <time>2017-04-29T09:07:13Z</time>
      </trkpt>
      <trkpt lat="45.88746" lon="4.90877">
        <ele>288</ele>
        <time>2017-04-29T09:07:14Z</time>
      </trkpt>
      <trkpt lat="45.88747" lon="4.90884">
        <ele>288</ele>
        <time>2017-04-29T09:07:15Z</time>
      </trkpt>
      <trkpt lat="45.88748" lon="4.90893">
        <ele>288</ele>
        <time>2017-04-29T09:07:16Z</time>
      </trkpt>
      <trkpt lat="45.8875" lon="4.90901">
        <ele>288</ele>
        <time>2017-04-29T09:07:17Z</time>
      </trkpt>
      <trkpt lat="45.88752" lon="4.9091">
        <ele>288</ele>
        <time>2017-04-29T09:07:18Z</time>
      </trkpt>
      <trkpt lat="45.88753" lon="4.90919">
        <ele>288</ele>
        <time>2017-04-29T09:07:19Z</time>
      </trkpt>
      <trkpt lat="45.88755" lon="4.90928">
        <ele>288</ele>
        <time>2017-04-29T09:07:20Z</time>
      </trkpt>
      <trkpt lat="45.88756" lon="4.90936">
        <ele>288</ele>
        <time>2017-04-29T09:07:21Z</time>
      </trkpt>
      <trkpt lat="45.88758" lon="4.90945">
        <ele>288</ele>
        <time>2017-04-29T09:07:22Z</time>
      </trkpt>
      <trkpt lat="45.88759" lon="4.90953">
        <ele>288</ele>
        <time>2017-04-29T09:07:23Z</time>
      </trkpt>
      <trkpt lat="45.88761" lon="4.90961">
        <ele>288</ele>
        <time>2017-04-29T09:07:24Z</time>
      </trkpt>
      <trkpt lat="45.88763" lon="4.9097">
        <ele>288</ele>
        <time>2017-04-29T09:07:25Z</time>
      </trkpt>
      <trkpt lat="45.88765" lon="4.90978">
        <ele>288</ele>
        <time>2017-04-29T09:07:26Z</time>
      </trkpt>
      <trkpt lat="45.88766" lon="4.90985">
        <ele>287</ele>
        <time>2017-04-29T09:07:27Z</time>
      </trkpt>
      <trkpt lat="45.88768" lon="4.90993">
        <ele>287</ele>
        <time>2017-04-29T09:07:28Z</time>
      </trkpt>
      <trkpt lat="45.88769" lon="4.91">
        <ele>287</ele>
        <time>2017-04-29T09:07:29Z</time>
      </trkpt>
      <trkpt lat="45.88771" lon="4.91008">
        <ele>287</ele>
        <time>2017-04-29T09:07:30Z</time>
      </trkpt>
      <trkpt lat="45.88772" lon="4.91014">
        <ele>288</ele>
        <time>2017-04-29T09:07:31Z</time>
      </trkpt>
      <trkpt lat="45.88774" lon="4.91022">
        <ele>288</ele>
        <time>2017-04-29T09:07:32Z</time>
      </trkpt>
      <trkpt lat="45.88776" lon="4.91029">
        <ele>288</ele>
        <time>2017-04-29T09:07:33Z</time>
      </trkpt>
      <trkpt lat="45.88778" lon="4.91036">
        <ele>288</ele>
        <time>2017-04-29T09:07:34Z</time>
      </trkpt>
      <trkpt lat="45.88781" lon="4.91043">
        <ele>288</ele>
        <time>2017-04-29T09:07:35Z</time>
      </trkpt>
      <trkpt lat="45.88784" lon="4.9105">
        <ele>288</ele>
        <time>2017-04-29T09:07:36Z</time>
      </trkpt>
      <trkpt lat="45.88788" lon="4.91057">
        <ele>288</ele>
        <time>2017-04-29T09:07:37Z</time>
      </trkpt>
      <trkpt lat="45.88792" lon="4.91064">
        <ele>288</ele>
        <time>2017-04-29T09:07:38Z</time>
      </trkpt>
      <trkpt lat="45.88796" lon="4.9107">
        <ele>288</ele>
        <time>2017-04-29T09:07:39Z</time>
      </trkpt>
      <trkpt lat="45.88801" lon="4.91078">
        <ele>288</ele>
        <time>2017-04-29T09:07:40Z</time>
      </trkpt>
      <trkpt lat="45.88804" lon="4.91086">
        <ele>288</ele>
        <time>2017-04-29T09:07:41Z</time>
      </trkpt>
      <trkpt lat="45.88805" lon="4.91096">
        <ele>288</ele>
        <time>2017-04-29T09:07:42Z</time>
      </trkpt>
      <trkpt lat="45.88805" lon="4.91105">
        <ele>288</ele>
        <time>2017-04-29T09:07:43Z</time>
      </trkpt>
      <trkpt lat="45.88802" lon="4.91113">
        <ele>288</ele>
        <time>2017-04-29T09:07:44Z</time>
      </trkpt>
      <trkpt lat="45.88799" lon="4.9112">
        <ele>288</ele>
        <time>2017-04-29T09:07:45Z</time>
      </trkpt>
      <trkpt lat="45.88796" lon="4.91127">
        <ele>288</ele>
        <time>2017-04-29T09:07:46Z</time>
      </trkpt>
      <trkpt lat="45.88793" lon="4.91134">
        <ele>288</ele>
        <time>2017-04-29T09:07:47Z</time>
      </trkpt>
      <trkpt lat="45.88791" lon="4.91141">
        <ele>288</ele>
        <time>2017-04-29T09:07:48Z</time>
      </trkpt>
      <trkpt lat="45.8879" lon="4.91149">
        <ele>288</ele>
        <time>2017-04-29T09:07:49Z</time>
      </trkpt>
      <trkpt lat="45.8879" lon="4.91156">
        <ele>288</ele>
        <time>2017-04-29T09:07:50Z</time>
      </trkpt>
      <trkpt lat="45.88789" lon="4.91164">
        <ele>288</ele>
        <time>2017-04-29T09:07:51Z</time>
      </trkpt>
      <trkpt lat="45.88789" lon="4.91171">
        <ele>288</ele>
        <time>2017-04-29T09:07:52Z</time>
      </trkpt>
      <trkpt lat="45.88789" lon="4.91179">
        <ele>288</ele>
        <time>2017-04-29T09:07:53Z</time>
      </trkpt>
      <trkpt lat="45.8879" lon="4.91187">
        <ele>288</ele>
        <time>2017-04-29T09:07:54Z</time>
      </trkpt>
      <trkpt lat="45.8879" lon="4.91195">
        <ele>288</ele>
        <time>2017-04-29T09:07:55Z</time>
      </trkpt>
      <trkpt lat="45.8879" lon="4.91203">
        <ele>288</ele>
        <time>2017-04-29T09:07:56Z</time>
      </trkpt>
      <trkpt lat="45.8879" lon="4.91211">
        <ele>288</ele>
        <time>2017-04-29T09:07:57Z</time>
      </trkpt>
      <trkpt lat="45.8879" lon="4.91219">
        <ele>288</ele>
        <time>2017-04-29T09:07:58Z</time>
      </trkpt>
      <trkpt lat="45.8879" lon="4.91228">
        <ele>288</ele>
        <time>2017-04-29T09:07:59Z</time>
      </trkpt>
      <trkpt lat="45.8879" lon="4.91236">
        <ele>288</ele>
        <time>2017-04-29T09:08:00Z</time>
      </trkpt>
      <trkpt lat="45.8879" lon="4.91245">
        <ele>288</ele>
        <time>2017-04-29T09:08:01Z</time>
      </trkpt>
      <trkpt lat="45.88791" lon="4.91254">
        <ele>288</ele>
        <time>2017-04-29T09:08:02Z</time>
      </trkpt>
      <trkpt lat="45.88791" lon="4.91264">
        <ele>288</ele>
        <time>2017-04-29T09:08:03Z</time>
      </trkpt>
      <trkpt lat="45.88791" lon="4.91273">
        <ele>288</ele>
        <time>2017-04-29T09:08:04Z</time>
      </trkpt>
      <trkpt lat="45.88791" lon="4.91282">
        <ele>288</ele>
        <time>2017-04-29T09:08:05Z</time>
      </trkpt>
      <trkpt lat="45.88791" lon="4.91291">
        <ele>288</ele>
        <time>2017-04-29T09:08:06Z</time>
      </trkpt>
      <trkpt lat="45.88791" lon="4.913">
        <ele>288</ele>
        <time>2017-04-29T09:08:07Z</time>
      </trkpt>
      <trkpt lat="45.88791" lon="4.91309">
        <ele>288</ele>
        <time>2017-04-29T09:08:08Z</time>
      </trkpt>
      <trkpt lat="45.88792" lon="4.91318">
        <ele>288</ele>
        <time>2017-04-29T09:08:09Z</time>
      </trkpt>
      <trkpt lat="45.88792" lon="4.91326">
        <ele>289</ele>
        <time>2017-04-29T09:08:10Z</time>
      </trkpt>
      <trkpt lat="45.88793" lon="4.91335">
        <ele>288</ele>
        <time>2017-04-29T09:08:11Z</time>
      </trkpt>
      <trkpt lat="45.88793" lon="4.91343">
        <ele>288</ele>
        <time>2017-04-29T09:08:12Z</time>
      </trkpt>
      <trkpt lat="45.88794" lon="4.91351">
        <ele>288</ele>
        <time>2017-04-29T09:08:13Z</time>
      </trkpt>
      <trkpt lat="45.88795" lon="4.91358">
        <ele>288</ele>
        <time>2017-04-29T09:08:14Z</time>
      </trkpt>
      <trkpt lat="45.88796" lon="4.91366">
        <ele>288</ele>
        <time>2017-04-29T09:08:15Z</time>
      </trkpt>
      <trkpt lat="45.88797" lon="4.91374">
        <ele>288</ele>
        <time>2017-04-29T09:08:16Z</time>
      </trkpt>
      <trkpt lat="45.88798" lon="4.91381">
        <ele>288</ele>
        <time>2017-04-29T09:08:17Z</time>
      </trkpt>
      <trkpt lat="45.88799" lon="4.91388">
        <ele>288</ele>
        <time>2017-04-29T09:08:18Z</time>
      </trkpt>
      <trkpt lat="45.888" lon="4.91396">
        <ele>288</ele>
        <time>2017-04-29T09:08:19Z</time>
      </trkpt>
      <trkpt lat="45.88801" lon="4.91403">
        <ele>288</ele>
        <time>2017-04-29T09:08:20Z</time>
      </trkpt>
      <trkpt lat="45.88803" lon="4.9141">
        <ele>289</ele>
        <time>2017-04-29T09:08:21Z</time>
      </trkpt>
      <trkpt lat="45.88805" lon="4.91417">
        <ele>288</ele>
        <time>2017-04-29T09:08:22Z</time>
      </trkpt>
      <trkpt lat="45.88806" lon="4.91424">
        <ele>288</ele>
        <time>2017-04-29T09:08:23Z</time>
      </trkpt>
      <trkpt lat="45.88808" lon="4.9143">
        <ele>288</ele>
        <time>2017-04-29T09:08:24Z</time>
      </trkpt>
      <trkpt lat="45.88809" lon="4.91437">
        <ele>288</ele>
        <time>2017-04-29T09:08:25Z</time>
      </trkpt>
      <trkpt lat="45.8881" lon="4.91444">
        <ele>288</ele>
        <time>2017-04-29T09:08:26Z</time>
      </trkpt>
      <trkpt lat="45.88811" lon="4.9145">
        <ele>288</ele>
        <time>2017-04-29T09:08:27Z</time>
      </trkpt>
      <trkpt lat="45.88813" lon="4.91462">
        <ele>288</ele>
        <time>2017-04-29T09:08:29Z</time>
      </trkpt>
      <trkpt lat="45.88814" lon="4.91467">
        <ele>288</ele>
        <time>2017-04-29T09:08:30Z</time>
      </trkpt>
      <trkpt lat="45.88817" lon="4.91478">
        <ele>288</ele>
        <time>2017-04-29T09:08:32Z</time>
      </trkpt>
      <trkpt lat="45.88818" lon="4.91484">
        <ele>288</ele>
        <time>2017-04-29T09:08:33Z</time>
      </trkpt>
      <trkpt lat="45.88821" lon="4.91495">
        <ele>288</ele>
        <time>2017-04-29T09:08:35Z</time>
      </trkpt>
      <trkpt lat="45.88821" lon="4.91501">
        <ele>288</ele>
        <time>2017-04-29T09:08:36Z</time>
      </trkpt>
      <trkpt lat="45.88822" lon="4.91507">
        <ele>288</ele>
        <time>2017-04-29T09:08:37Z</time>
      </trkpt>
      <trkpt lat="45.88823" lon="4.91514">
        <ele>288</ele>
        <time>2017-04-29T09:08:38Z</time>
      </trkpt>
      <trkpt lat="45.88825" lon="4.91521">
        <ele>288</ele>
        <time>2017-04-29T09:08:39Z</time>
      </trkpt>
      <trkpt lat="45.88826" lon="4.91528">
        <ele>288</ele>
        <time>2017-04-29T09:08:40Z</time>
      </trkpt>
      <trkpt lat="45.88827" lon="4.91536">
        <ele>288</ele>
        <time>2017-04-29T09:08:41Z</time>
      </trkpt>
      <trkpt lat="45.88828" lon="4.91544">
        <ele>288</ele>
        <time>2017-04-29T09:08:42Z</time>
      </trkpt>
      <trkpt lat="45.8883" lon="4.91552">
        <ele>288</ele>
        <time>2017-04-29T09:08:43Z</time>
      </trkpt>
      <trkpt lat="45.88832" lon="4.9156">
        <ele>288</ele>
        <time>2017-04-29T09:08:44Z</time>
      </trkpt>
      <trkpt lat="45.88834" lon="4.91568">
        <ele>289</ele>
        <time>2017-04-29T09:08:45Z</time>
      </trkpt>
      <trkpt lat="45.88837" lon="4.91576">
        <ele>289</ele>
        <time>2017-04-29T09:08:46Z</time>
      </trkpt>
      <trkpt lat="45.88839" lon="4.91585">
        <ele>289</ele>
        <time>2017-04-29T09:08:47Z</time>
      </trkpt>
      <trkpt lat="45.88842" lon="4.91593">
        <ele>289</ele>
        <time>2017-04-29T09:08:48Z</time>
      </trkpt>
      <trkpt lat="45.88845" lon="4.91602">
        <ele>289</ele>
        <time>2017-04-29T09:08:49Z</time>
      </trkpt>
      <trkpt lat="45.88847" lon="4.91611">
        <ele>289</ele>
        <time>2017-04-29T09:08:50Z</time>
      </trkpt>
      <trkpt lat="45.8885" lon="4.91619">
        <ele>289</ele>
        <time>2017-04-29T09:08:51Z</time>
      </trkpt>
      <trkpt lat="45.88852" lon="4.91628">
        <ele>289</ele>
        <time>2017-04-29T09:08:52Z</time>
      </trkpt>
      <trkpt lat="45.88854" lon="4.91637">
        <ele>289</ele>
        <time>2017-04-29T09:08:53Z</time>
      </trkpt>
      <trkpt lat="45.88857" lon="4.91646">
        <ele>289</ele>
        <time>2017-04-29T09:08:54Z</time>
      </trkpt>
      <trkpt lat="45.88859" lon="4.91655">
        <ele>289</ele>
        <time>2017-04-29T09:08:55Z</time>
      </trkpt>
      <trkpt lat="45.88861" lon="4.91663">
        <ele>289</ele>
        <time>2017-04-29T09:08:56Z</time>
      </trkpt>
      <trkpt lat="45.88863" lon="4.91672">
        <ele>289</ele>
        <time>2017-04-29T09:08:57Z</time>
      </trkpt>
      <trkpt lat="45.88865" lon="4.9168">
        <ele>289</ele>
        <time>2017-04-29T09:08:58Z</time>
      </trkpt>
      <trkpt lat="45.88867" lon="4.91688">
        <ele>289</ele>
        <time>2017-04-29T09:08:59Z</time>
      </trkpt>
      <trkpt lat="45.88869" lon="4.91696">
        <ele>289</ele>
        <time>2017-04-29T09:09:00Z</time>
      </trkpt>
      <trkpt lat="45.8887" lon="4.91704">
        <ele>289</ele>
        <time>2017-04-29T09:09:01Z</time>
      </trkpt>
      <trkpt lat="45.88872" lon="4.91712">
        <ele>288</ele>
        <time>2017-04-29T09:09:02Z</time>
      </trkpt>
      <trkpt lat="45.88874" lon="4.91719">
        <ele>288</ele>
        <time>2017-04-29T09:09:03Z</time>
      </trkpt>
      <trkpt lat="45.88875" lon="4.91727">
        <ele>288</ele>
        <time>2017-04-29T09:09:04Z</time>
      </trkpt>
      <trkpt lat="45.88877" lon="4.91735">
        <ele>288</ele>
        <time>2017-04-29T09:09:05Z</time>
      </trkpt>
      <trkpt lat="45.88879" lon="4.91743">
        <ele>288</ele>
        <time>2017-04-29T09:09:06Z</time>
      </trkpt>
      <trkpt lat="45.8888" lon="4.91751">
        <ele>288</ele>
        <time>2017-04-29T09:09:07Z</time>
      </trkpt>
      <trkpt lat="45.88882" lon="4.91758">
        <ele>288</ele>
        <time>2017-04-29T09:09:08Z</time>
      </trkpt>
      <trkpt lat="45.88883" lon="4.91766">
        <ele>288</ele>
        <time>2017-04-29T09:09:09Z</time>
      </trkpt>
      <trkpt lat="45.88884" lon="4.91773">
        <ele>288</ele>
        <time>2017-04-29T09:09:10Z</time>
      </trkpt>
      <trkpt lat="45.88886" lon="4.9178">
        <ele>288</ele>
        <time>2017-04-29T09:09:11Z</time>
      </trkpt>
      <trkpt lat="45.88887" lon="4.91787">
        <ele>288</ele>
        <time>2017-04-29T09:09:12Z</time>
      </trkpt>
      <trkpt lat="45.88888" lon="4.91795">
        <ele>288</ele>
        <time>2017-04-29T09:09:13Z</time>
      </trkpt>
      <trkpt lat="45.8889" lon="4.91803">
        <ele>288</ele>
        <time>2017-04-29T09:09:14Z</time>
      </trkpt>
      <trkpt lat="45.88891" lon="4.91811">
        <ele>288</ele>
        <time>2017-04-29T09:09:15Z</time>
      </trkpt>
      <trkpt lat="45.88893" lon="4.91819">
        <ele>288</ele>
        <time>2017-04-29T09:09:16Z</time>
      </trkpt>
      <trkpt lat="45.88895" lon="4.91828">
        <ele>288</ele>
        <time>2017-04-29T09:09:17Z</time>
      </trkpt>
      <trkpt lat="45.88896" lon="4.91836">
        <ele>288</ele>
        <time>2017-04-29T09:09:18Z</time>
      </trkpt>
      <trkpt lat="45.88898" lon="4.91845">
        <ele>288</ele>
        <time>2017-04-29T09:09:19Z</time>
      </trkpt>
      <trkpt lat="45.88901" lon="4.91854">
        <ele>288</ele>
        <time>2017-04-29T09:09:20Z</time>
      </trkpt>
      <trkpt lat="45.88903" lon="4.91862">
        <ele>288</ele>
        <time>2017-04-29T09:09:21Z</time>
      </trkpt>
      <trkpt lat="45.88905" lon="4.9187">
        <ele>288</ele>
        <time>2017-04-29T09:09:22Z</time>
      </trkpt>
      <trkpt lat="45.88907" lon="4.91877">
        <ele>288</ele>
        <time>2017-04-29T09:09:23Z</time>
      </trkpt>
      <trkpt lat="45.8891" lon="4.91884">
        <ele>288</ele>
        <time>2017-04-29T09:09:24Z</time>
      </trkpt>
      <trkpt lat="45.88912" lon="4.9189">
        <ele>288</ele>
        <time>2017-04-29T09:09:25Z</time>
      </trkpt>
      <trkpt lat="45.88915" lon="4.91896">
        <ele>288</ele>
        <time>2017-04-29T09:09:26Z</time>
      </trkpt>
      <trkpt lat="45.88918" lon="4.91901">
        <ele>288</ele>
        <time>2017-04-29T09:09:27Z</time>
      </trkpt>
      <trkpt lat="45.88921" lon="4.91907">
        <ele>288</ele>
        <time>2017-04-29T09:09:28Z</time>
      </trkpt>
      <trkpt lat="45.88925" lon="4.91912">
        <ele>288</ele>
        <time>2017-04-29T09:09:29Z</time>
      </trkpt>
      <trkpt lat="45.88928" lon="4.91917">
        <ele>288</ele>
        <time>2017-04-29T09:09:30Z</time>
      </trkpt>
      <trkpt lat="45.8893" lon="4.91921">
        <ele>288</ele>
        <time>2017-04-29T09:09:31Z</time>
      </trkpt>
      <trkpt lat="45.88934" lon="4.91927">
        <ele>288</ele>
        <time>2017-04-29T09:09:32Z</time>
      </trkpt>
      <trkpt lat="45.88937" lon="4.91932">
        <ele>287</ele>
        <time>2017-04-29T09:09:33Z</time>
      </trkpt>
      <trkpt lat="45.8894" lon="4.91938">
        <ele>287</ele>
        <time>2017-04-29T09:09:34Z</time>
      </trkpt>
      <trkpt lat="45.88943" lon="4.91944">
        <ele>287</ele>
        <time>2017-04-29T09:09:35Z</time>
      </trkpt>
      <trkpt lat="45.88947" lon="4.9195">
        <ele>287</ele>
        <time>2017-04-29T09:09:36Z</time>
      </trkpt>
      <trkpt lat="45.88951" lon="4.91956">
        <ele>287</ele>
        <time>2017-04-29T09:09:37Z</time>
      </trkpt>
      <trkpt lat="45.88955" lon="4.91962">
        <ele>287</ele>
        <time>2017-04-29T09:09:38Z</time>
      </trkpt>
      <trkpt lat="45.8896" lon="4.91967">
        <ele>287</ele>
        <time>2017-04-29T09:09:39Z</time>
      </trkpt>
      <trkpt lat="45.88964" lon="4.91973">
        <ele>287</ele>
        <time>2017-04-29T09:09:40Z</time>
      </trkpt>
      <trkpt lat="45.88968" lon="4.91979">
        <ele>287</ele>
        <time>2017-04-29T09:09:41Z</time>
      </trkpt>
      <trkpt lat="45.88972" lon="4.91984">
        <ele>287</ele>
        <time>2017-04-29T09:09:42Z</time>
      </trkpt>
      <trkpt lat="45.88976" lon="4.9199">
        <ele>287</ele>
        <time>2017-04-29T09:09:43Z</time>
      </trkpt>
      <trkpt lat="45.8898" lon="4.91995">
        <ele>287</ele>
        <time>2017-04-29T09:09:44Z</time>
      </trkpt>
      <trkpt lat="45.88983" lon="4.92">
        <ele>287</ele>
        <time>2017-04-29T09:09:45Z</time>
      </trkpt>
      <trkpt lat="45.88987" lon="4.92005">
        <ele>287</ele>
        <time>2017-04-29T09:09:46Z</time>
      </trkpt>
      <trkpt lat="45.8899" lon="4.9201">
        <ele>287</ele>
        <time>2017-04-29T09:09:47Z</time>
      </trkpt>
      <trkpt lat="45.88994" lon="4.92015">
        <ele>287</ele>
        <time>2017-04-29T09:09:48Z</time>
      </trkpt>
      <trkpt lat="45.88997" lon="4.9202">
        <ele>287</ele>
        <time>2017-04-29T09:09:49Z</time>
      </trkpt>
      <trkpt lat="45.89001" lon="4.92024">
        <ele>287</ele>
        <time>2017-04-29T09:09:50Z</time>
      </trkpt>
      <trkpt lat="45.89004" lon="4.92029">
        <ele>287</ele>
        <time>2017-04-29T09:09:51Z</time>
      </trkpt>
      <trkpt lat="45.89008" lon="4.92034">
        <ele>287</ele>
        <time>2017-04-29T09:09:52Z</time>
      </trkpt>
      <trkpt lat="45.89012" lon="4.92039">
        <ele>287</ele>
        <time>2017-04-29T09:09:53Z</time>
      </trkpt>
      <trkpt lat="45.89016" lon="4.92043">
        <ele>287</ele>
        <time>2017-04-29T09:09:54Z</time>
      </trkpt>
      <trkpt lat="45.8902" lon="4.92048">
        <ele>287</ele>
        <time>2017-04-29T09:09:55Z</time>
      </trkpt>
      <trkpt lat="45.89024" lon="4.92052">
        <ele>287</ele>
        <time>2017-04-29T09:09:56Z</time>
      </trkpt>
      <trkpt lat="45.89028" lon="4.92057">
        <ele>287</ele>
        <time>2017-04-29T09:09:57Z</time>
      </trkpt>
      <trkpt lat="45.89033" lon="4.92061">
        <ele>287</ele>
        <time>2017-04-29T09:09:58Z</time>
      </trkpt>
      <trkpt lat="45.89037" lon="4.92065">
        <ele>287</ele>
        <time>2017-04-29T09:09:59Z</time>
      </trkpt>
      <trkpt lat="45.89041" lon="4.92068">
        <ele>287</ele>
        <time>2017-04-29T09:10:00Z</time>
      </trkpt>
      <trkpt lat="45.89045" lon="4.92072">
        <ele>287</ele>
        <time>2017-04-29T09:10:01Z</time>
      </trkpt>
      <trkpt lat="45.8905" lon="4.92077">
        <ele>287</ele>
        <time>2017-04-29T09:10:02Z</time>
      </trkpt>
      <trkpt lat="45.89055" lon="4.92081">
        <ele>287</ele>
        <time>2017-04-29T09:10:03Z</time>
      </trkpt>
      <trkpt lat="45.8906" lon="4.92085">
        <ele>287</ele>
        <time>2017-04-29T09:10:04Z</time>
      </trkpt>
      <trkpt lat="45.89065" lon="4.9209">
        <ele>287</ele>
        <time>2017-04-29T09:10:05Z</time>
      </trkpt>
      <trkpt lat="45.8907" lon="4.92094">
        <ele>287</ele>
        <time>2017-04-29T09:10:06Z</time>
      </trkpt>
      <trkpt lat="45.89075" lon="4.92098">
        <ele>287</ele>
        <time>2017-04-29T09:10:07Z</time>
      </trkpt>
      <trkpt lat="45.8908" lon="4.92102">
        <ele>287</ele>
        <time>2017-04-29T09:10:08Z</time>
      </trkpt>
      <trkpt lat="45.89085" lon="4.92106">
        <ele>287</ele>
        <time>2017-04-29T09:10:09Z</time>
      </trkpt>
      <trkpt lat="45.89089" lon="4.9211">
        <ele>287</ele>
        <time>2017-04-29T09:10:10Z</time>
      </trkpt>
      <trkpt lat="45.89094" lon="4.92114">
        <ele>287</ele>
        <time>2017-04-29T09:10:11Z</time>
      </trkpt>
      <trkpt lat="45.89099" lon="4.92118">
        <ele>287</ele>
        <time>2017-04-29T09:10:12Z</time>
      </trkpt>
      <trkpt lat="45.89103" lon="4.92122">
        <ele>287</ele>
        <time>2017-04-29T09:10:13Z</time>
      </trkpt>
      <trkpt lat="45.89108" lon="4.92127">
        <ele>288</ele>
        <time>2017-04-29T09:10:14Z</time>
      </trkpt>
      <trkpt lat="45.89113" lon="4.9213">
        <ele>288</ele>
        <time>2017-04-29T09:10:15Z</time>
      </trkpt>
      <trkpt lat="45.89118" lon="4.92134">
        <ele>288</ele>
        <time>2017-04-29T09:10:16Z</time>
      </trkpt>
      <trkpt lat="45.89122" lon="4.92138">
        <ele>288</ele>
        <time>2017-04-29T09:10:17Z</time>
      </trkpt>
      <trkpt lat="45.89127" lon="4.92141">
        <ele>288</ele>
        <time>2017-04-29T09:10:18Z</time>
      </trkpt>
      <trkpt lat="45.89131" lon="4.92145">
        <ele>288</ele>
        <time>2017-04-29T09:10:19Z</time>
      </trkpt>
      <trkpt lat="45.89136" lon="4.92149">
        <ele>288</ele>
        <time>2017-04-29T09:10:20Z</time>
      </trkpt>
      <trkpt lat="45.8914" lon="4.92153">
        <ele>288</ele>
        <time>2017-04-29T09:10:21Z</time>
      </trkpt>
      <trkpt lat="45.89145" lon="4.92157">
        <ele>288</ele>
        <time>2017-04-29T09:10:22Z</time>
      </trkpt>
      <trkpt lat="45.8915" lon="4.92161">
        <ele>288</ele>
        <time>2017-04-29T09:10:23Z</time>
      </trkpt>
      <trkpt lat="45.89154" lon="4.92165">
        <ele>288</ele>
        <time>2017-04-29T09:10:24Z</time>
      </trkpt>
      <trkpt lat="45.89158" lon="4.9217">
        <ele>289</ele>
        <time>2017-04-29T09:10:25Z</time>
      </trkpt>
      <trkpt lat="45.89161" lon="4.92174">
        <ele>289</ele>
        <time>2017-04-29T09:10:26Z</time>
      </trkpt>
      <trkpt lat="45.89165" lon="4.92178">
        <ele>289</ele>
        <time>2017-04-29T09:10:27Z</time>
      </trkpt>
      <trkpt lat="45.89169" lon="4.92182">
        <ele>289</ele>
        <time>2017-04-29T09:10:28Z</time>
      </trkpt>
      <trkpt lat="45.89172" lon="4.92187">
        <ele>289</ele>
        <time>2017-04-29T09:10:29Z</time>
      </trkpt>
      <trkpt lat="45.89176" lon="4.92191">
        <ele>289</ele>
        <time>2017-04-29T09:10:30Z</time>
      </trkpt>
      <trkpt lat="45.89182" lon="4.92199">
        <ele>289</ele>
        <time>2017-04-29T09:10:32Z</time>
      </trkpt>
      <trkpt lat="45.89185" lon="4.92204">
        <ele>289</ele>
        <time>2017-04-29T09:10:33Z</time>
      </trkpt>
      <trkpt lat="45.8919" lon="4.92214">
        <ele>289</ele>
        <time>2017-04-29T09:10:35Z</time>
      </trkpt>
      <trkpt lat="45.89193" lon="4.92218">
        <ele>289</ele>
        <time>2017-04-29T09:10:36Z</time>
      </trkpt>
      <trkpt lat="45.89198" lon="4.92229">
        <ele>289</ele>
        <time>2017-04-29T09:10:38Z</time>
      </trkpt>
      <trkpt lat="45.89201" lon="4.92234">
        <ele>289</ele>
        <time>2017-04-29T09:10:39Z</time>
      </trkpt>
      <trkpt lat="45.89203" lon="4.92239">
        <ele>289</ele>
        <time>2017-04-29T09:10:40Z</time>
      </trkpt>
      <trkpt lat="45.89206" lon="4.92245">
        <ele>289</ele>
        <time>2017-04-29T09:10:41Z</time>
      </trkpt>
      <trkpt lat="45.89208" lon="4.9225">
        <ele>289</ele>
        <time>2017-04-29T09:10:42Z</time>
      </trkpt>
      <trkpt lat="45.89211" lon="4.92255">
        <ele>290</ele>
        <time>2017-04-29T09:10:43Z</time>
      </trkpt>
      <trkpt lat="45.89213" lon="4.92261">
        <ele>290</ele>
        <time>2017-04-29T09:10:44Z</time>
      </trkpt>
      <trkpt lat="45.89216" lon="4.92266">
        <ele>290</ele>
        <time>2017-04-29T09:10:45Z</time>
      </trkpt>
      <trkpt lat="45.8922" lon="4.92277">
        <ele>290</ele>
        <time>2017-04-29T09:10:47Z</time>
      </trkpt>
      <trkpt lat="45.89222" lon="4.92282">
        <ele>290</ele>
        <time>2017-04-29T09:10:48Z</time>
      </trkpt>
      <trkpt lat="45.89226" lon="4.92291">
        <ele>290</ele>
        <time>2017-04-29T09:10:50Z</time>
      </trkpt>
      <trkpt lat="45.89228" lon="4.92296">
        <ele>290</ele>
        <time>2017-04-29T09:10:51Z</time>
      </trkpt>
      <trkpt lat="45.89232" lon="4.92305">
        <ele>291</ele>
        <time>2017-04-29T09:10:53Z</time>
      </trkpt>
      <trkpt lat="45.89233" lon="4.92309">
        <ele>291</ele>
        <time>2017-04-29T09:10:54Z</time>
      </trkpt>
      <trkpt lat="45.89235" lon="4.92318">
        <ele>291</ele>
        <time>2017-04-29T09:10:56Z</time>
      </trkpt>
      <trkpt lat="45.89236" lon="4.92322">
        <ele>291</ele>
        <time>2017-04-29T09:10:57Z</time>
      </trkpt>
      <trkpt lat="45.89238" lon="4.92331">
        <ele>291</ele>
        <time>2017-04-29T09:10:59Z</time>
      </trkpt>
      <trkpt lat="45.89239" lon="4.92336">
        <ele>292</ele>
        <time>2017-04-29T09:11:00Z</time>
      </trkpt>
      <trkpt lat="45.8924" lon="4.92346">
        <ele>292</ele>
        <time>2017-04-29T09:11:02Z</time>
      </trkpt>
      <trkpt lat="45.89241" lon="4.92351">
        <ele>292</ele>
        <time>2017-04-29T09:11:03Z</time>
      </trkpt>
      <trkpt lat="45.89244" lon="4.92361">
        <ele>293</ele>
        <time>2017-04-29T09:11:05Z</time>
      </trkpt>
      <trkpt lat="45.89245" lon="4.92366">
        <ele>293</ele>
        <time>2017-04-29T09:11:06Z</time>
      </trkpt>
      <trkpt lat="45.89248" lon="4.92376">
        <ele>293</ele>
        <time>2017-04-29T09:11:08Z</time>
      </trkpt>
      <trkpt lat="45.89249" lon="4.9238">
        <ele>293</ele>
        <time>2017-04-29T09:11:09Z</time>
      </trkpt>
      <trkpt lat="45.89252" lon="4.92389">
        <ele>293</ele>
        <time>2017-04-29T09:11:11Z</time>
      </trkpt>
      <trkpt lat="45.89253" lon="4.92393">
        <ele>293</ele>
        <time>2017-04-29T09:11:12Z</time>
      </trkpt>
      <trkpt lat="45.89257" lon="4.92401">
        <ele>293</ele>
        <time>2017-04-29T09:11:14Z</time>
      </trkpt>
      <trkpt lat="45.89258" lon="4.92405">
        <ele>293</ele>
        <time>2017-04-29T09:11:15Z</time>
      </trkpt>
      <trkpt lat="45.89259" lon="4.92415">
        <ele>293</ele>
        <time>2017-04-29T09:11:17Z</time>
      </trkpt>
      <trkpt lat="45.89261" lon="4.9242">
        <ele>294</ele>
        <time>2017-04-29T09:11:18Z</time>
      </trkpt>
      <trkpt lat="45.89265" lon="4.9243">
        <ele>294</ele>
        <time>2017-04-29T09:11:20Z</time>
      </trkpt>
      <trkpt lat="45.89267" lon="4.92436">
        <ele>294</ele>
        <time>2017-04-29T09:11:21Z</time>
      </trkpt>
      <trkpt lat="45.89271" lon="4.92447">
        <ele>294</ele>
        <time>2017-04-29T09:11:23Z</time>
      </trkpt>
      <trkpt lat="45.89273" lon="4.92452">
        <ele>294</ele>
        <time>2017-04-29T09:11:24Z</time>
      </trkpt>
      <trkpt lat="45.89276" lon="4.92462">
        <ele>294</ele>
        <time>2017-04-29T09:11:26Z</time>
      </trkpt>
      <trkpt lat="45.89278" lon="4.92467">
        <ele>294</ele>
        <time>2017-04-29T09:11:27Z</time>
      </trkpt>
      <trkpt lat="45.89282" lon="4.92478">
        <ele>294</ele>
        <time>2017-04-29T09:11:29Z</time>
      </trkpt>
      <trkpt lat="45.89284" lon="4.92483">
        <ele>294</ele>
        <time>2017-04-29T09:11:30Z</time>
      </trkpt>
      <trkpt lat="45.89287" lon="4.92494">
        <ele>294</ele>
        <time>2017-04-29T09:11:32Z</time>
      </trkpt>
      <trkpt lat="45.89289" lon="4.925">
        <ele>294</ele>
        <time>2017-04-29T09:11:33Z</time>
      </trkpt>
      <trkpt lat="45.89291" lon="4.92506">
        <ele>294</ele>
        <time>2017-04-29T09:11:34Z</time>
      </trkpt>
      <trkpt lat="45.89294" lon="4.92512">
        <ele>293</ele>
        <time>2017-04-29T09:11:35Z</time>
      </trkpt>
      <trkpt lat="45.89296" lon="4.92518">
        <ele>293</ele>
        <time>2017-04-29T09:11:36Z</time>
      </trkpt>
      <trkpt lat="45.89298" lon="4.92524">
        <ele>293</ele>
        <time>2017-04-29T09:11:37Z</time>
      </trkpt>
      <trkpt lat="45.893" lon="4.9253">
        <ele>293</ele>
        <time>2017-04-29T09:11:38Z</time>
      </trkpt>
      <trkpt lat="45.89302" lon="4.92537">
        <ele>293</ele>
        <time>2017-04-29T09:11:39Z</time>
      </trkpt>
      <trkpt lat="45.89304" lon="4.92544">
        <ele>293</ele>
        <time>2017-04-29T09:11:40Z</time>
      </trkpt>
      <trkpt lat="45.89307" lon="4.92551">
        <ele>293</ele>
        <time>2017-04-29T09:11:41Z</time>
      </trkpt>
      <trkpt lat="45.89309" lon="4.92558">
        <ele>293</ele>
        <time>2017-04-29T09:11:42Z</time>
      </trkpt>
      <trkpt lat="45.89311" lon="4.92565">
        <ele>293</ele>
        <time>2017-04-29T09:11:43Z</time>
      </trkpt>
      <trkpt lat="45.89313" lon="4.92572">
        <ele>293</ele>
        <time>2017-04-29T09:11:44Z</time>
      </trkpt>
      <trkpt lat="45.89315" lon="4.92579">
        <ele>293</ele>
        <time>2017-04-29T09:11:45Z</time>
      </trkpt>
      <trkpt lat="45.89317" lon="4.92586">
        <ele>292</ele>
        <time>2017-04-29T09:11:46Z</time>
      </trkpt>
      <trkpt lat="45.8932" lon="4.92594">
        <ele>292</ele>
        <time>2017-04-29T09:11:47Z</time>
      </trkpt>
      <trkpt lat="45.89322" lon="4.92601">
        <ele>292</ele>
        <time>2017-04-29T09:11:48Z</time>
      </trkpt>
      <trkpt lat="45.89324" lon="4.92608">
        <ele>292</ele>
        <time>2017-04-29T09:11:49Z</time>
      </trkpt>
      <trkpt lat="45.89326" lon="4.92615">
        <ele>292</ele>
        <time>2017-04-29T09:11:50Z</time>
      </trkpt>
      <trkpt lat="45.89329" lon="4.92622">
        <ele>292</ele>
        <time>2017-04-29T09:11:51Z</time>
      </trkpt>
      <trkpt lat="45.8933" lon="4.92629">
        <ele>292</ele>
        <time>2017-04-29T09:11:52Z</time>
      </trkpt>
      <trkpt lat="45.89332" lon="4.92636">
        <ele>292</ele>
        <time>2017-04-29T09:11:53Z</time>
      </trkpt>
      <trkpt lat="45.89334" lon="4.92643">
        <ele>291</ele>
        <time>2017-04-29T09:11:54Z</time>
      </trkpt>
      <trkpt lat="45.89336" lon="4.9265">
        <ele>291</ele>
        <time>2017-04-29T09:11:55Z</time>
      </trkpt>
      <trkpt lat="45.89337" lon="4.92657">
        <ele>291</ele>
        <time>2017-04-29T09:11:56Z</time>
      </trkpt>
      <trkpt lat="45.89339" lon="4.92663">
        <ele>291</ele>
        <time>2017-04-29T09:11:57Z</time>
      </trkpt>
      <trkpt lat="45.89341" lon="4.9267">
        <ele>291</ele>
        <time>2017-04-29T09:11:58Z</time>
      </trkpt>
      <trkpt lat="45.89342" lon="4.92677">
        <ele>291</ele>
        <time>2017-04-29T09:11:59Z</time>
      </trkpt>
      <trkpt lat="45.89344" lon="4.92683">
        <ele>291</ele>
        <time>2017-04-29T09:12:00Z</time>
      </trkpt>
      <trkpt lat="45.89346" lon="4.9269">
        <ele>291</ele>
        <time>2017-04-29T09:12:01Z</time>
      </trkpt>
      <trkpt lat="45.89348" lon="4.92697">
        <ele>291</ele>
        <time>2017-04-29T09:12:02Z</time>
      </trkpt>
      <trkpt lat="45.8935" lon="4.92704">
        <ele>291</ele>
        <time>2017-04-29T09:12:03Z</time>
      </trkpt>
      <trkpt lat="45.89351" lon="4.92711">
        <ele>291</ele>
        <time>2017-04-29T09:12:04Z</time>
      </trkpt>
      <trkpt lat="45.89353" lon="4.92718">
        <ele>290</ele>
        <time>2017-04-29T09:12:05Z</time>
      </trkpt>
      <trkpt lat="45.89354" lon="4.92725">
        <ele>290</ele>
        <time>2017-04-29T09:12:06Z</time>
      </trkpt>
      <trkpt lat="45.89355" lon="4.92733">
        <ele>290</ele>
        <time>2017-04-29T09:12:07Z</time>
      </trkpt>
      <trkpt lat="45.89356" lon="4.9274">
        <ele>290</ele>
        <time>2017-04-29T09:12:08Z</time>
      </trkpt>
      <trkpt lat="45.89358" lon="4.92747">
        <ele>290</ele>
        <time>2017-04-29T09:12:09Z</time>
      </trkpt>
      <trkpt lat="45.89359" lon="4.92754">
        <ele>290</ele>
        <time>2017-04-29T09:12:10Z</time>
      </trkpt>
      <trkpt lat="45.89361" lon="4.92761">
        <ele>290</ele>
        <time>2017-04-29T09:12:11Z</time>
      </trkpt>
      <trkpt lat="45.89362" lon="4.92768">
        <ele>290</ele>
        <time>2017-04-29T09:12:12Z</time>
      </trkpt>
      <trkpt lat="45.89363" lon="4.92774">
        <ele>290</ele>
        <time>2017-04-29T09:12:13Z</time>
      </trkpt>
      <trkpt lat="45.89364" lon="4.92781">
        <ele>290</ele>
        <time>2017-04-29T09:12:14Z</time>
      </trkpt>
      <trkpt lat="45.89366" lon="4.92788">
        <ele>290</ele>
        <time>2017-04-29T09:12:15Z</time>
      </trkpt>
      <trkpt lat="45.89367" lon="4.92795">
        <ele>290</ele>
        <time>2017-04-29T09:12:16Z</time>
      </trkpt>
      <trkpt lat="45.89368" lon="4.92801">
        <ele>290</ele>
        <time>2017-04-29T09:12:17Z</time>
      </trkpt>
      <trkpt lat="45.89369" lon="4.92808">
        <ele>290</ele>
        <time>2017-04-29T09:12:18Z</time>
      </trkpt>
      <trkpt lat="45.8937" lon="4.92814">
        <ele>290</ele>
        <time>2017-04-29T09:12:19Z</time>
      </trkpt>
      <trkpt lat="45.89372" lon="4.92821">
        <ele>290</ele>
        <time>2017-04-29T09:12:20Z</time>
      </trkpt>
      <trkpt lat="45.89373" lon="4.92828">
        <ele>290</ele>
        <time>2017-04-29T09:12:21Z</time>
      </trkpt>
      <trkpt lat="45.89375" lon="4.92834">
        <ele>289</ele>
        <time>2017-04-29T09:12:22Z</time>
      </trkpt>
      <trkpt lat="45.89376" lon="4.92842">
        <ele>289</ele>
        <time>2017-04-29T09:12:23Z</time>
      </trkpt>
      <trkpt lat="45.89378" lon="4.9285">
        <ele>288</ele>
        <time>2017-04-29T09:12:24Z</time>
      </trkpt>
      <trkpt lat="45.89381" lon="4.92859">
        <ele>288</ele>
        <time>2017-04-29T09:12:25Z</time>
      </trkpt>
      <trkpt lat="45.89384" lon="4.92867">
        <ele>288</ele>
        <time>2017-04-29T09:12:26Z</time>
      </trkpt>
      <trkpt lat="45.89388" lon="4.92876">
        <ele>288</ele>
        <time>2017-04-29T09:12:27Z</time>
      </trkpt>
      <trkpt lat="45.89391" lon="4.92886">
        <ele>288</ele>
        <time>2017-04-29T09:12:28Z</time>
      </trkpt>
      <trkpt lat="45.89395" lon="4.92895">
        <ele>288</ele>
        <time>2017-04-29T09:12:29Z</time>
      </trkpt>
      <trkpt lat="45.89399" lon="4.92905">
        <ele>288</ele>
        <time>2017-04-29T09:12:30Z</time>
      </trkpt>
      <trkpt lat="45.89403" lon="4.92915">
        <ele>288</ele>
        <time>2017-04-29T09:12:31Z</time>
      </trkpt>
      <trkpt lat="45.89407" lon="4.92925">
        <ele>287</ele>
        <time>2017-04-29T09:12:32Z</time>
      </trkpt>
      <trkpt lat="45.89411" lon="4.92936">
        <ele>287</ele>
        <time>2017-04-29T09:12:33Z</time>
      </trkpt>
      <trkpt lat="45.89415" lon="4.92947">
        <ele>286</ele>
        <time>2017-04-29T09:12:34Z</time>
      </trkpt>
      <trkpt lat="45.89419" lon="4.92958">
        <ele>287</ele>
        <time>2017-04-29T09:12:35Z</time>
      </trkpt>
      <trkpt lat="45.89423" lon="4.92969">
        <ele>286</ele>
        <time>2017-04-29T09:12:36Z</time>
      </trkpt>
      <trkpt lat="45.89427" lon="4.9298">
        <ele>286</ele>
        <time>2017-04-29T09:12:37Z</time>
      </trkpt>
      <trkpt lat="45.8943" lon="4.92991">
        <ele>286</ele>
        <time>2017-04-29T09:12:38Z</time>
      </trkpt>
      <trkpt lat="45.89434" lon="4.93001">
        <ele>284</ele>
        <time>2017-04-29T09:12:39Z</time>
      </trkpt>
      <trkpt lat="45.89437" lon="4.93012">
        <ele>284</ele>
        <time>2017-04-29T09:12:40Z</time>
      </trkpt>
      <trkpt lat="45.8944" lon="4.93021">
        <ele>284</ele>
        <time>2017-04-29T09:12:41Z</time>
      </trkpt>
      <trkpt lat="45.89443" lon="4.9303">
        <ele>284</ele>
        <time>2017-04-29T09:12:42Z</time>
      </trkpt>
      <trkpt lat="45.89446" lon="4.93038">
        <ele>284</ele>
        <time>2017-04-29T09:12:43Z</time>
      </trkpt>
      <trkpt lat="45.89449" lon="4.93045">
        <ele>284</ele>
        <time>2017-04-29T09:12:44Z</time>
      </trkpt>
      <trkpt lat="45.89453" lon="4.93052">
        <ele>283</ele>
        <time>2017-04-29T09:12:45Z</time>
      </trkpt>
      <trkpt lat="45.89455" lon="4.93058">
        <ele>283</ele>
        <time>2017-04-29T09:12:46Z</time>
      </trkpt>
      <trkpt lat="45.89458" lon="4.93065">
        <ele>283</ele>
        <time>2017-04-29T09:12:47Z</time>
      </trkpt>
      <trkpt lat="45.8946" lon="4.93072">
        <ele>283</ele>
        <time>2017-04-29T09:12:48Z</time>
      </trkpt>
      <trkpt lat="45.89462" lon="4.93077">
        <ele>283</ele>
        <time>2017-04-29T09:12:49Z</time>
      </trkpt>
      <trkpt lat="45.89465" lon="4.93087">
        <ele>283</ele>
        <time>2017-04-29T09:12:51Z</time>
      </trkpt>
      <trkpt lat="45.89465" lon="4.93091">
        <ele>283</ele>
        <time>2017-04-29T09:12:52Z</time>
      </trkpt>
      <trkpt lat="45.89465" lon="4.93094">
        <ele>283</ele>
        <time>2017-04-29T09:12:53Z</time>
      </trkpt>
      <trkpt lat="45.89465" lon="4.93095">
        <ele>283</ele>
        <time>2017-04-29T09:12:54Z</time>
      </trkpt>
      <trkpt lat="45.89466" lon="4.93095">
        <ele>283</ele>
        <time>2017-04-29T09:13:16Z</time>
      </trkpt>
      <trkpt lat="45.89466" lon="4.93095">
        <ele>283</ele>
        <time>2017-04-29T09:13:17Z</time>
      </trkpt>
      <trkpt lat="45.89472" lon="4.93105">
        <ele>283</ele>
        <time>2017-04-29T09:13:24Z</time>
      </trkpt>
      <trkpt lat="45.89474" lon="4.93106">
        <ele>283</ele>
        <time>2017-04-29T09:13:25Z</time>
      </trkpt>
      <trkpt lat="45.89482" lon="4.93109">
        <ele>283</ele>
        <time>2017-04-29T09:13:27Z</time>
      </trkpt>
      <trkpt lat="45.89486" lon="4.9311">
        <ele>283</ele>
        <time>2017-04-29T09:13:28Z</time>
      </trkpt>
      <trkpt lat="45.89494" lon="4.93116">
        <ele>283</ele>
        <time>2017-04-29T09:13:30Z</time>
      </trkpt>
      <trkpt lat="45.89497" lon="4.93121">
        <ele>283</ele>
        <time>2017-04-29T09:13:31Z</time>
      </trkpt>
      <trkpt lat="45.895" lon="4.93133">
        <ele>283</ele>
        <time>2017-04-29T09:13:33Z</time>
      </trkpt>
      <trkpt lat="45.89501" lon="4.93139">
        <ele>285</ele>
        <time>2017-04-29T09:13:34Z</time>
      </trkpt>
      <trkpt lat="45.89505" lon="4.9315">
        <ele>285</ele>
        <time>2017-04-29T09:13:36Z</time>
      </trkpt>
      <trkpt lat="45.89507" lon="4.93156">
        <ele>285</ele>
        <time>2017-04-29T09:13:37Z</time>
      </trkpt>
      <trkpt lat="45.89508" lon="4.93162">
        <ele>285</ele>
        <time>2017-04-29T09:13:38Z</time>
      </trkpt>
      <trkpt lat="45.89511" lon="4.93168">
        <ele>286</ele>
        <time>2017-04-29T09:13:39Z</time>
      </trkpt>
      <trkpt lat="45.89512" lon="4.93174">
        <ele>286</ele>
        <time>2017-04-29T09:13:40Z</time>
      </trkpt>
      <trkpt lat="45.89514" lon="4.9318">
        <ele>286</ele>
        <time>2017-04-29T09:13:41Z</time>
      </trkpt>
      <trkpt lat="45.89516" lon="4.93186">
        <ele>287</ele>
        <time>2017-04-29T09:13:42Z</time>
      </trkpt>
      <trkpt lat="45.89518" lon="4.93192">
        <ele>287</ele>
        <time>2017-04-29T09:13:43Z</time>
      </trkpt>
      <trkpt lat="45.8952" lon="4.93198">
        <ele>287</ele>
        <time>2017-04-29T09:13:44Z</time>
      </trkpt>
      <trkpt lat="45.89521" lon="4.93204">
        <ele>287</ele>
        <time>2017-04-29T09:13:45Z</time>
      </trkpt>
      <trkpt lat="45.89523" lon="4.9321">
        <ele>287</ele>
        <time>2017-04-29T09:13:46Z</time>
      </trkpt>
      <trkpt lat="45.89525" lon="4.93217">
        <ele>287</ele>
        <time>2017-04-29T09:13:47Z</time>
      </trkpt>
      <trkpt lat="45.89526" lon="4.93224">
        <ele>287</ele>
        <time>2017-04-29T09:13:48Z</time>
      </trkpt>
      <trkpt lat="45.89527" lon="4.9323">
        <ele>287</ele>
        <time>2017-04-29T09:13:49Z</time>
      </trkpt>
      <trkpt lat="45.89527" lon="4.93237">
        <ele>287</ele>
        <time>2017-04-29T09:13:50Z</time>
      </trkpt>
      <trkpt lat="45.89528" lon="4.93244">
        <ele>288</ele>
        <time>2017-04-29T09:13:51Z</time>
      </trkpt>
      <trkpt lat="45.8953" lon="4.93253">
        <ele>287</ele>
        <time>2017-04-29T09:13:53Z</time>
      </trkpt>
      <trkpt lat="45.89531" lon="4.93258">
        <ele>287</ele>
        <time>2017-04-29T09:13:54Z</time>
      </trkpt>
      <trkpt lat="45.89528" lon="4.93269">
        <ele>287</ele>
        <time>2017-04-29T09:13:56Z</time>
      </trkpt>
      <trkpt lat="45.89528" lon="4.93275">
        <ele>286</ele>
        <time>2017-04-29T09:13:57Z</time>
      </trkpt>
      <trkpt lat="45.89528" lon="4.93282">
        <ele>286</ele>
        <time>2017-04-29T09:13:58Z</time>
      </trkpt>
      <trkpt lat="45.89527" lon="4.9329">
        <ele>286</ele>
        <time>2017-04-29T09:13:59Z</time>
      </trkpt>
      <trkpt lat="45.89527" lon="4.93298">
        <ele>286</ele>
        <time>2017-04-29T09:14:00Z</time>
      </trkpt>
      <trkpt lat="45.89527" lon="4.93306">
        <ele>285</ele>
        <time>2017-04-29T09:14:01Z</time>
      </trkpt>
      <trkpt lat="45.89526" lon="4.93314">
        <ele>285</ele>
        <time>2017-04-29T09:14:02Z</time>
      </trkpt>
      <trkpt lat="45.89527" lon="4.93323">
        <ele>285</ele>
        <time>2017-04-29T09:14:03Z</time>
      </trkpt>
      <trkpt lat="45.89528" lon="4.93331">
        <ele>285</ele>
        <time>2017-04-29T09:14:04Z</time>
      </trkpt>
      <trkpt lat="45.89529" lon="4.9334">
        <ele>283</ele>
        <time>2017-04-29T09:14:05Z</time>
      </trkpt>
      <trkpt lat="45.8953" lon="4.9335">
        <ele>283</ele>
        <time>2017-04-29T09:14:06Z</time>
      </trkpt>
      <trkpt lat="45.89532" lon="4.93358">
        <ele>282</ele>
        <time>2017-04-29T09:14:07Z</time>
      </trkpt>
      <trkpt lat="45.89535" lon="4.93367">
        <ele>282</ele>
        <time>2017-04-29T09:14:08Z</time>
      </trkpt>
      <trkpt lat="45.89537" lon="4.93377">
        <ele>282</ele>
        <time>2017-04-29T09:14:09Z</time>
      </trkpt>
      <trkpt lat="45.89539" lon="4.93386">
        <ele>282</ele>
        <time>2017-04-29T09:14:10Z</time>
      </trkpt>
      <trkpt lat="45.89542" lon="4.93395">
        <ele>282</ele>
        <time>2017-04-29T09:14:11Z</time>
      </trkpt>
      <trkpt lat="45.89544" lon="4.93404">
        <ele>282</ele>
        <time>2017-04-29T09:14:12Z</time>
      </trkpt>
      <trkpt lat="45.89547" lon="4.93414">
        <ele>282</ele>
        <time>2017-04-29T09:14:13Z</time>
      </trkpt>
      <trkpt lat="45.89549" lon="4.93423">
        <ele>280</ele>
        <time>2017-04-29T09:14:14Z</time>
      </trkpt>
      <trkpt lat="45.89551" lon="4.93433">
        <ele>280</ele>
        <time>2017-04-29T09:14:15Z</time>
      </trkpt>
      <trkpt lat="45.89552" lon="4.93444">
        <ele>280</ele>
        <time>2017-04-29T09:14:16Z</time>
      </trkpt>
      <trkpt lat="45.89553" lon="4.93455">
        <ele>280</ele>
        <time>2017-04-29T09:14:17Z</time>
      </trkpt>
      <trkpt lat="45.89553" lon="4.93466">
        <ele>280</ele>
        <time>2017-04-29T09:14:18Z</time>
      </trkpt>
      <trkpt lat="45.89553" lon="4.93477">
        <ele>280</ele>
        <time>2017-04-29T09:14:19Z</time>
      </trkpt>
      <trkpt lat="45.89552" lon="4.93488">
        <ele>280</ele>
        <time>2017-04-29T09:14:20Z</time>
      </trkpt>
      <trkpt lat="45.89552" lon="4.935">
        <ele>280</ele>
        <time>2017-04-29T09:14:21Z</time>
      </trkpt>
      <trkpt lat="45.8955" lon="4.93512">
        <ele>279</ele>
        <time>2017-04-29T09:14:22Z</time>
      </trkpt>
      <trkpt lat="45.89548" lon="4.93523">
        <ele>279</ele>
        <time>2017-04-29T09:14:23Z</time>
      </trkpt>
      <trkpt lat="45.89546" lon="4.93535">
        <ele>279</ele>
        <time>2017-04-29T09:14:24Z</time>
      </trkpt>
      <trkpt lat="45.89545" lon="4.93546">
        <ele>279</ele>
        <time>2017-04-29T09:14:25Z</time>
      </trkpt>
      <trkpt lat="45.89544" lon="4.93557">
        <ele>279</ele>
        <time>2017-04-29T09:14:26Z</time>
      </trkpt>
      <trkpt lat="45.89543" lon="4.93567">
        <ele>279</ele>
        <time>2017-04-29T09:14:27Z</time>
      </trkpt>
      <trkpt lat="45.89542" lon="4.93578">
        <ele>279</ele>
        <time>2017-04-29T09:14:28Z</time>
      </trkpt>
      <trkpt lat="45.89541" lon="4.93588">
        <ele>278</ele>
        <time>2017-04-29T09:14:29Z</time>
      </trkpt>
      <trkpt lat="45.89541" lon="4.93598">
        <ele>277</ele>
        <time>2017-04-29T09:14:30Z</time>
      </trkpt>
      <trkpt lat="45.8954" lon="4.93608">
        <ele>277</ele>
        <time>2017-04-29T09:14:31Z</time>
      </trkpt>
      <trkpt lat="45.89539" lon="4.93618">
        <ele>277</ele>
        <time>2017-04-29T09:14:32Z</time>
      </trkpt>
      <trkpt lat="45.89539" lon="4.93627">
        <ele>277</ele>
        <time>2017-04-29T09:14:33Z</time>
      </trkpt>
      <trkpt lat="45.89539" lon="4.93637">
        <ele>277</ele>
        <time>2017-04-29T09:14:34Z</time>
      </trkpt>
      <trkpt lat="45.89538" lon="4.93646">
        <ele>277</ele>
        <time>2017-04-29T09:14:35Z</time>
      </trkpt>
      <trkpt lat="45.89538" lon="4.93654">
        <ele>277</ele>
        <time>2017-04-29T09:14:36Z</time>
      </trkpt>
      <trkpt lat="45.89538" lon="4.93663">
        <ele>276</ele>
        <time>2017-04-29T09:14:37Z</time>
      </trkpt>
      <trkpt lat="45.89537" lon="4.93672">
        <ele>275</ele>
        <time>2017-04-29T09:14:38Z</time>
      </trkpt>
      <trkpt lat="45.89536" lon="4.93681">
        <ele>275</ele>
        <time>2017-04-29T09:14:39Z</time>
      </trkpt>
      <trkpt lat="45.89535" lon="4.93689">
        <ele>275</ele>
        <time>2017-04-29T09:14:40Z</time>
      </trkpt>
      <trkpt lat="45.89534" lon="4.93697">
        <ele>275</ele>
        <time>2017-04-29T09:14:41Z</time>
      </trkpt>
      <trkpt lat="45.89534" lon="4.93706">
        <ele>275</ele>
        <time>2017-04-29T09:14:42Z</time>
      </trkpt>
      <trkpt lat="45.89534" lon="4.93715">
        <ele>275</ele>
        <time>2017-04-29T09:14:43Z</time>
      </trkpt>
      <trkpt lat="45.89533" lon="4.93723">
        <ele>275</ele>
        <time>2017-04-29T09:14:44Z</time>
      </trkpt>
      <trkpt lat="45.89533" lon="4.93731">
        <ele>275</ele>
        <time>2017-04-29T09:14:45Z</time>
      </trkpt>
      <trkpt lat="45.89533" lon="4.9374">
        <ele>275</ele>
        <time>2017-04-29T09:14:46Z</time>
      </trkpt>
      <trkpt lat="45.89533" lon="4.93748">
        <ele>275</ele>
        <time>2017-04-29T09:14:47Z</time>
      </trkpt>
      <trkpt lat="45.89533" lon="4.93755">
        <ele>275</ele>
        <time>2017-04-29T09:14:48Z</time>
      </trkpt>
      <trkpt lat="45.89533" lon="4.93763">
        <ele>275</ele>
        <time>2017-04-29T09:14:49Z</time>
      </trkpt>
      <trkpt lat="45.89533" lon="4.93771">
        <ele>274</ele>
        <time>2017-04-29T09:14:50Z</time>
      </trkpt>
      <trkpt lat="45.89533" lon="4.93778">
        <ele>274</ele>
        <time>2017-04-29T09:14:51Z</time>
      </trkpt>
      <trkpt lat="45.89532" lon="4.93786">
        <ele>274</ele>
        <time>2017-04-29T09:14:52Z</time>
      </trkpt>
      <trkpt lat="45.89531" lon="4.93794">
        <ele>274</ele>
        <time>2017-04-29T09:14:53Z</time>
      </trkpt>
      <trkpt lat="45.8953" lon="4.93803">
        <ele>274</ele>
        <time>2017-04-29T09:14:54Z</time>
      </trkpt>
      <trkpt lat="45.89529" lon="4.93811">
        <ele>274</ele>
        <time>2017-04-29T09:14:55Z</time>
      </trkpt>
      <trkpt lat="45.89528" lon="4.9382">
        <ele>274</ele>
        <time>2017-04-29T09:14:56Z</time>
      </trkpt>
      <trkpt lat="45.89527" lon="4.9383">
        <ele>274</ele>
        <time>2017-04-29T09:14:57Z</time>
      </trkpt>
      <trkpt lat="45.89526" lon="4.93839">
        <ele>274</ele>
        <time>2017-04-29T09:14:58Z</time>
      </trkpt>
      <trkpt lat="45.89525" lon="4.93848">
        <ele>274</ele>
        <time>2017-04-29T09:14:59Z</time>
      </trkpt>
      <trkpt lat="45.89524" lon="4.93856">
        <ele>274</ele>
        <time>2017-04-29T09:15:00Z</time>
      </trkpt>
      <trkpt lat="45.89523" lon="4.93864">
        <ele>274</ele>
        <time>2017-04-29T09:15:01Z</time>
      </trkpt>
      <trkpt lat="45.89522" lon="4.93873">
        <ele>274</ele>
        <time>2017-04-29T09:15:02Z</time>
      </trkpt>
      <trkpt lat="45.89521" lon="4.9388">
        <ele>274</ele>
        <time>2017-04-29T09:15:03Z</time>
      </trkpt>
      <trkpt lat="45.8952" lon="4.93888">
        <ele>274</ele>
        <time>2017-04-29T09:15:04Z</time>
      </trkpt>
      <trkpt lat="45.89519" lon="4.93896">
        <ele>273</ele>
        <time>2017-04-29T09:15:05Z</time>
      </trkpt>
      <trkpt lat="45.89519" lon="4.93903">
        <ele>273</ele>
        <time>2017-04-29T09:15:06Z</time>
      </trkpt>
      <trkpt lat="45.89518" lon="4.93911">
        <ele>273</ele>
        <time>2017-04-29T09:15:07Z</time>
      </trkpt>
      <trkpt lat="45.89518" lon="4.93918">
        <ele>273</ele>
        <time>2017-04-29T09:15:08Z</time>
      </trkpt>
      <trkpt lat="45.89517" lon="4.93926">
        <ele>274</ele>
        <time>2017-04-29T09:15:09Z</time>
      </trkpt>
      <trkpt lat="45.89516" lon="4.93934">
        <ele>274</ele>
        <time>2017-04-29T09:15:10Z</time>
      </trkpt>
      <trkpt lat="45.89516" lon="4.93942">
        <ele>274</ele>
        <time>2017-04-29T09:15:11Z</time>
      </trkpt>
      <trkpt lat="45.89515" lon="4.9395">
        <ele>274</ele>
        <time>2017-04-29T09:15:12Z</time>
      </trkpt>
      <trkpt lat="45.89515" lon="4.93958">
        <ele>274</ele>
        <time>2017-04-29T09:15:13Z</time>
      </trkpt>
      <trkpt lat="45.89515" lon="4.93967">
        <ele>274</ele>
        <time>2017-04-29T09:15:14Z</time>
      </trkpt>
      <trkpt lat="45.89515" lon="4.93975">
        <ele>274</ele>
        <time>2017-04-29T09:15:15Z</time>
      </trkpt>
      <trkpt lat="45.89514" lon="4.93984">
        <ele>274</ele>
        <time>2017-04-29T09:15:16Z</time>
      </trkpt>
      <trkpt lat="45.89514" lon="4.93993">
        <ele>274</ele>
        <time>2017-04-29T09:15:17Z</time>
      </trkpt>
      <trkpt lat="45.89514" lon="4.94002">
        <ele>274</ele>
        <time>2017-04-29T09:15:18Z</time>
      </trkpt>
      <trkpt lat="45.89514" lon="4.94011">
        <ele>275</ele>
        <time>2017-04-29T09:15:19Z</time>
      </trkpt>
      <trkpt lat="45.89513" lon="4.9402">
        <ele>275</ele>
        <time>2017-04-29T09:15:20Z</time>
      </trkpt>
      <trkpt lat="45.89513" lon="4.94029">
        <ele>275</ele>
        <time>2017-04-29T09:15:21Z</time>
      </trkpt>
      <trkpt lat="45.89512" lon="4.94037">
        <ele>275</ele>
        <time>2017-04-29T09:15:22Z</time>
      </trkpt>
      <trkpt lat="45.89511" lon="4.94045">
        <ele>275</ele>
        <time>2017-04-29T09:15:23Z</time>
      </trkpt>
      <trkpt lat="45.8951" lon="4.94053">
        <ele>275</ele>
        <time>2017-04-29T09:15:24Z</time>
      </trkpt>
      <trkpt lat="45.8951" lon="4.94061">
        <ele>275</ele>
        <time>2017-04-29T09:15:25Z</time>
      </trkpt>
      <trkpt lat="45.8951" lon="4.94068">
        <ele>275</ele>
        <time>2017-04-29T09:15:26Z</time>
      </trkpt>
      <trkpt lat="45.89509" lon="4.94076">
        <ele>275</ele>
        <time>2017-04-29T09:15:27Z</time>
      </trkpt>
      <trkpt lat="45.89508" lon="4.94084">
        <ele>275</ele>
        <time>2017-04-29T09:15:28Z</time>
      </trkpt>
      <trkpt lat="45.89507" lon="4.94092">
        <ele>275</ele>
        <time>2017-04-29T09:15:29Z</time>
      </trkpt>
      <trkpt lat="45.89507" lon="4.941">
        <ele>275</ele>
        <time>2017-04-29T09:15:30Z</time>
      </trkpt>
      <trkpt lat="45.89506" lon="4.94107">
        <ele>275</ele>
        <time>2017-04-29T09:15:31Z</time>
      </trkpt>
      <trkpt lat="45.89505" lon="4.94114">
        <ele>275</ele>
        <time>2017-04-29T09:15:32Z</time>
      </trkpt>
      <trkpt lat="45.89505" lon="4.94122">
        <ele>275</ele>
        <time>2017-04-29T09:15:33Z</time>
      </trkpt>
      <trkpt lat="45.89504" lon="4.94129">
        <ele>275</ele>
        <time>2017-04-29T09:15:34Z</time>
      </trkpt>
      <trkpt lat="45.89504" lon="4.94137">
        <ele>275</ele>
        <time>2017-04-29T09:15:35Z</time>
      </trkpt>
      <trkpt lat="45.89503" lon="4.94145">
        <ele>275</ele>
        <time>2017-04-29T09:15:36Z</time>
      </trkpt>
      <trkpt lat="45.89502" lon="4.94153">
        <ele>275</ele>
        <time>2017-04-29T09:15:37Z</time>
      </trkpt>
      <trkpt lat="45.89501" lon="4.94161">
        <ele>275</ele>
        <time>2017-04-29T09:15:38Z</time>
      </trkpt>
      <trkpt lat="45.895" lon="4.94169">
        <ele>275</ele>
        <time>2017-04-29T09:15:39Z</time>
      </trkpt>
      <trkpt lat="45.895" lon="4.94177">
        <ele>275</ele>
        <time>2017-04-29T09:15:40Z</time>
      </trkpt>
      <trkpt lat="45.89499" lon="4.94186">
        <ele>275</ele>
        <time>2017-04-29T09:15:41Z</time>
      </trkpt>
      <trkpt lat="45.89499" lon="4.94194">
        <ele>275</ele>
        <time>2017-04-29T09:15:42Z</time>
      </trkpt>
      <trkpt lat="45.89498" lon="4.94201">
        <ele>275</ele>
        <time>2017-04-29T09:15:43Z</time>
      </trkpt>
      <trkpt lat="45.89497" lon="4.94209">
        <ele>275</ele>
        <time>2017-04-29T09:15:44Z</time>
      </trkpt>
      <trkpt lat="45.89496" lon="4.94216">
        <ele>275</ele>
        <time>2017-04-29T09:15:45Z</time>
      </trkpt>
      <trkpt lat="45.89496" lon="4.94223">
        <ele>275</ele>
        <time>2017-04-29T09:15:46Z</time>
      </trkpt>
      <trkpt lat="45.89495" lon="4.9423">
        <ele>275</ele>
        <time>2017-04-29T09:15:47Z</time>
      </trkpt>
      <trkpt lat="45.89495" lon="4.94237">
        <ele>275</ele>
        <time>2017-04-29T09:15:48Z</time>
      </trkpt>
      <trkpt lat="45.89494" lon="4.94244">
        <ele>275</ele>
        <time>2017-04-29T09:15:49Z</time>
      </trkpt>
      <trkpt lat="45.89494" lon="4.94251">
        <ele>276</ele>
        <time>2017-04-29T09:15:50Z</time>
      </trkpt>
      <trkpt lat="45.89493" lon="4.94258">
        <ele>275</ele>
        <time>2017-04-29T09:15:51Z</time>
      </trkpt>
      <trkpt lat="45.89493" lon="4.94265">
        <ele>275</ele>
        <time>2017-04-29T09:15:52Z</time>
      </trkpt>
      <trkpt lat="45.89492" lon="4.94273">
        <ele>275</ele>
        <time>2017-04-29T09:15:53Z</time>
      </trkpt>
      <trkpt lat="45.89491" lon="4.94281">
        <ele>275</ele>
        <time>2017-04-29T09:15:54Z</time>
      </trkpt>
      <trkpt lat="45.8949" lon="4.9429">
        <ele>275</ele>
        <time>2017-04-29T09:15:55Z</time>
      </trkpt>
      <trkpt lat="45.8949" lon="4.94298">
        <ele>274</ele>
        <time>2017-04-29T09:15:56Z</time>
      </trkpt>
      <trkpt lat="45.89489" lon="4.94307">
        <ele>274</ele>
        <time>2017-04-29T09:15:57Z</time>
      </trkpt>
      <trkpt lat="45.89488" lon="4.94315">
        <ele>274</ele>
        <time>2017-04-29T09:15:58Z</time>
      </trkpt>
      <trkpt lat="45.89487" lon="4.94324">
        <ele>275</ele>
        <time>2017-04-29T09:15:59Z</time>
      </trkpt>
      <trkpt lat="45.89486" lon="4.94333">
        <ele>275</ele>
        <time>2017-04-29T09:16:00Z</time>
      </trkpt>
      <trkpt lat="45.89486" lon="4.94341">
        <ele>274</ele>
        <time>2017-04-29T09:16:01Z</time>
      </trkpt>
      <trkpt lat="45.89485" lon="4.94349">
        <ele>274</ele>
        <time>2017-04-29T09:16:02Z</time>
      </trkpt>
      <trkpt lat="45.89484" lon="4.94357">
        <ele>274</ele>
        <time>2017-04-29T09:16:03Z</time>
      </trkpt>
      <trkpt lat="45.89484" lon="4.94365">
        <ele>274</ele>
        <time>2017-04-29T09:16:04Z</time>
      </trkpt>
      <trkpt lat="45.89483" lon="4.94372">
        <ele>274</ele>
        <time>2017-04-29T09:16:05Z</time>
      </trkpt>
      <trkpt lat="45.89483" lon="4.9438">
        <ele>274</ele>
        <time>2017-04-29T09:16:06Z</time>
      </trkpt>
      <trkpt lat="45.89482" lon="4.94387">
        <ele>274</ele>
        <time>2017-04-29T09:16:07Z</time>
      </trkpt>
      <trkpt lat="45.89481" lon="4.94394">
        <ele>274</ele>
        <time>2017-04-29T09:16:08Z</time>
      </trkpt>
      <trkpt lat="45.89481" lon="4.94401">
        <ele>274</ele>
        <time>2017-04-29T09:16:09Z</time>
      </trkpt>
      <trkpt lat="45.8948" lon="4.94408">
        <ele>274</ele>
        <time>2017-04-29T09:16:10Z</time>
      </trkpt>
      <trkpt lat="45.89479" lon="4.94415">
        <ele>274</ele>
        <time>2017-04-29T09:16:11Z</time>
      </trkpt>
      <trkpt lat="45.89479" lon="4.94422">
        <ele>274</ele>
        <time>2017-04-29T09:16:12Z</time>
      </trkpt>
      <trkpt lat="45.89478" lon="4.9443">
        <ele>274</ele>
        <time>2017-04-29T09:16:13Z</time>
      </trkpt>
      <trkpt lat="45.89477" lon="4.94437">
        <ele>274</ele>
        <time>2017-04-29T09:16:14Z</time>
      </trkpt>
      <trkpt lat="45.89476" lon="4.94444">
        <ele>274</ele>
        <time>2017-04-29T09:16:15Z</time>
      </trkpt>
      <trkpt lat="45.89476" lon="4.94451">
        <ele>274</ele>
        <time>2017-04-29T09:16:16Z</time>
      </trkpt>
      <trkpt lat="45.89475" lon="4.94457">
        <ele>274</ele>
        <time>2017-04-29T09:16:17Z</time>
      </trkpt>
      <trkpt lat="45.89474" lon="4.94465">
        <ele>274</ele>
        <time>2017-04-29T09:16:18Z</time>
      </trkpt>
      <trkpt lat="45.89473" lon="4.94473">
        <ele>274</ele>
        <time>2017-04-29T09:16:19Z</time>
      </trkpt>
      <trkpt lat="45.89472" lon="4.9448">
        <ele>274</ele>
        <time>2017-04-29T09:16:20Z</time>
      </trkpt>
      <trkpt lat="45.89472" lon="4.94488">
        <ele>274</ele>
        <time>2017-04-29T09:16:21Z</time>
      </trkpt>
      <trkpt lat="45.89471" lon="4.94496">
        <ele>274</ele>
        <time>2017-04-29T09:16:22Z</time>
      </trkpt>
      <trkpt lat="45.8947" lon="4.94504">
        <ele>274</ele>
        <time>2017-04-29T09:16:23Z</time>
      </trkpt>
      <trkpt lat="45.89469" lon="4.94512">
        <ele>274</ele>
        <time>2017-04-29T09:16:24Z</time>
      </trkpt>
      <trkpt lat="45.89468" lon="4.9452">
        <ele>274</ele>
        <time>2017-04-29T09:16:25Z</time>
      </trkpt>
      <trkpt lat="45.89467" lon="4.94528">
        <ele>274</ele>
        <time>2017-04-29T09:16:26Z</time>
      </trkpt>
      <trkpt lat="45.89466" lon="4.94536">
        <ele>274</ele>
        <time>2017-04-29T09:16:27Z</time>
      </trkpt>
      <trkpt lat="45.89465" lon="4.94544">
        <ele>274</ele>
        <time>2017-04-29T09:16:28Z</time>
      </trkpt>
      <trkpt lat="45.89464" lon="4.94551">
        <ele>274</ele>
        <time>2017-04-29T09:16:29Z</time>
      </trkpt>
      <trkpt lat="45.89463" lon="4.94558">
        <ele>274</ele>
        <time>2017-04-29T09:16:30Z</time>
      </trkpt>
      <trkpt lat="45.89462" lon="4.94565">
        <ele>274</ele>
        <time>2017-04-29T09:16:31Z</time>
      </trkpt>
      <trkpt lat="45.89462" lon="4.94572">
        <ele>274</ele>
        <time>2017-04-29T09:16:32Z</time>
      </trkpt>
      <trkpt lat="45.89461" lon="4.94578">
        <ele>274</ele>
        <time>2017-04-29T09:16:33Z</time>
      </trkpt>
      <trkpt lat="45.8946" lon="4.94584">
        <ele>274</ele>
        <time>2017-04-29T09:16:34Z</time>
      </trkpt>
      <trkpt lat="45.89459" lon="4.94591">
        <ele>274</ele>
        <time>2017-04-29T09:16:35Z</time>
      </trkpt>
      <trkpt lat="45.89458" lon="4.94597">
        <ele>274</ele>
        <time>2017-04-29T09:16:36Z</time>
      </trkpt>
      <trkpt lat="45.89457" lon="4.94604">
        <ele>274</ele>
        <time>2017-04-29T09:16:37Z</time>
      </trkpt>
      <trkpt lat="45.89456" lon="4.94611">
        <ele>274</ele>
        <time>2017-04-29T09:16:38Z</time>
      </trkpt>
      <trkpt lat="45.89455" lon="4.94618">
        <ele>274</ele>
        <time>2017-04-29T09:16:39Z</time>
      </trkpt>
      <trkpt lat="45.89453" lon="4.94625">
        <ele>274</ele>
        <time>2017-04-29T09:16:40Z</time>
      </trkpt>
      <trkpt lat="45.89452" lon="4.94632">
        <ele>274</ele>
        <time>2017-04-29T09:16:41Z</time>
      </trkpt>
      <trkpt lat="45.8945" lon="4.9464">
        <ele>274</ele>
        <time>2017-04-29T09:16:42Z</time>
      </trkpt>
      <trkpt lat="45.89448" lon="4.94648">
        <ele>274</ele>
        <time>2017-04-29T09:16:43Z</time>
      </trkpt>
      <trkpt lat="45.89446" lon="4.94656">
        <ele>273</ele>
        <time>2017-04-29T09:16:44Z</time>
      </trkpt>
      <trkpt lat="45.89444" lon="4.94663">
        <ele>273</ele>
        <time>2017-04-29T09:16:45Z</time>
      </trkpt>
      <trkpt lat="45.89442" lon="4.9467">
        <ele>274</ele>
        <time>2017-04-29T09:16:46Z</time>
      </trkpt>
      <trkpt lat="45.8944" lon="4.94677">
        <ele>274</ele>
        <time>2017-04-29T09:16:47Z</time>
      </trkpt>
      <trkpt lat="45.89438" lon="4.94683">
        <ele>274</ele>
        <time>2017-04-29T09:16:48Z</time>
      </trkpt>
      <trkpt lat="45.89437" lon="4.94689">
        <ele>274</ele>
        <time>2017-04-29T09:16:49Z</time>
      </trkpt>
      <trkpt lat="45.89435" lon="4.94696">
        <ele>274</ele>
        <time>2017-04-29T09:16:50Z</time>
      </trkpt>
      <trkpt lat="45.89433" lon="4.94702">
        <ele>274</ele>
        <time>2017-04-29T09:16:51Z</time>
      </trkpt>
      <trkpt lat="45.89431" lon="4.94708">
        <ele>274</ele>
        <time>2017-04-29T09:16:52Z</time>
      </trkpt>
      <trkpt lat="45.8943" lon="4.94714">
        <ele>274</ele>
        <time>2017-04-29T09:16:53Z</time>
      </trkpt>
      <trkpt lat="45.89428" lon="4.9472">
        <ele>274</ele>
        <time>2017-04-29T09:16:54Z</time>
      </trkpt>
      <trkpt lat="45.89426" lon="4.94727">
        <ele>274</ele>
        <time>2017-04-29T09:16:55Z</time>
      </trkpt>
      <trkpt lat="45.89424" lon="4.94733">
        <ele>274</ele>
        <time>2017-04-29T09:16:56Z</time>
      </trkpt>
      <trkpt lat="45.89422" lon="4.94739">
        <ele>274</ele>
        <time>2017-04-29T09:16:57Z</time>
      </trkpt>
      <trkpt lat="45.8942" lon="4.94745">
        <ele>273</ele>
        <time>2017-04-29T09:16:58Z</time>
      </trkpt>
      <trkpt lat="45.89419" lon="4.94752">
        <ele>273</ele>
        <time>2017-04-29T09:16:59Z</time>
      </trkpt>
      <trkpt lat="45.89417" lon="4.94758">
        <ele>273</ele>
        <time>2017-04-29T09:17:00Z</time>
      </trkpt>
      <trkpt lat="45.89415" lon="4.94764">
        <ele>273</ele>
        <time>2017-04-29T09:17:01Z</time>
      </trkpt>
      <trkpt lat="45.89413" lon="4.9477">
        <ele>273</ele>
        <time>2017-04-29T09:17:02Z</time>
      </trkpt>
      <trkpt lat="45.89411" lon="4.94776">
        <ele>272</ele>
        <time>2017-04-29T09:17:03Z</time>
      </trkpt>
      <trkpt lat="45.89409" lon="4.94782">
        <ele>272</ele>
        <time>2017-04-29T09:17:04Z</time>
      </trkpt>
      <trkpt lat="45.89408" lon="4.94789">
        <ele>272</ele>
        <time>2017-04-29T09:17:05Z</time>
      </trkpt>
      <trkpt lat="45.89406" lon="4.94796">
        <ele>273</ele>
        <time>2017-04-29T09:17:06Z</time>
      </trkpt>
      <trkpt lat="45.89404" lon="4.94802">
        <ele>273</ele>
        <time>2017-04-29T09:17:07Z</time>
      </trkpt>
      <trkpt lat="45.89402" lon="4.94809">
        <ele>273</ele>
        <time>2017-04-29T09:17:08Z</time>
      </trkpt>
      <trkpt lat="45.894" lon="4.94816">
        <ele>273</ele>
        <time>2017-04-29T09:17:09Z</time>
      </trkpt>
      <trkpt lat="45.89398" lon="4.94823">
        <ele>273</ele>
        <time>2017-04-29T09:17:10Z</time>
      </trkpt>
      <trkpt lat="45.89396" lon="4.9483">
        <ele>273</ele>
        <time>2017-04-29T09:17:11Z</time>
      </trkpt>
      <trkpt lat="45.89394" lon="4.94837">
        <ele>273</ele>
        <time>2017-04-29T09:17:12Z</time>
      </trkpt>
      <trkpt lat="45.89393" lon="4.94844">
        <ele>273</ele>
        <time>2017-04-29T09:17:13Z</time>
      </trkpt>
      <trkpt lat="45.8939" lon="4.94851">
        <ele>273</ele>
        <time>2017-04-29T09:17:14Z</time>
      </trkpt>
      <trkpt lat="45.89388" lon="4.94858">
        <ele>273</ele>
        <time>2017-04-29T09:17:15Z</time>
      </trkpt>
      <trkpt lat="45.89386" lon="4.94864">
        <ele>273</ele>
        <time>2017-04-29T09:17:16Z</time>
      </trkpt>
      <trkpt lat="45.89384" lon="4.94871">
        <ele>273</ele>
        <time>2017-04-29T09:17:17Z</time>
      </trkpt>
      <trkpt lat="45.89382" lon="4.94877">
        <ele>273</ele>
        <time>2017-04-29T09:17:18Z</time>
      </trkpt>
      <trkpt lat="45.8938" lon="4.94884">
        <ele>273</ele>
        <time>2017-04-29T09:17:19Z</time>
      </trkpt>
      <trkpt lat="45.89378" lon="4.94891">
        <ele>273</ele>
        <time>2017-04-29T09:17:20Z</time>
      </trkpt>
      <trkpt lat="45.89376" lon="4.94898">
        <ele>273</ele>
        <time>2017-04-29T09:17:21Z</time>
      </trkpt>
      <trkpt lat="45.89374" lon="4.94905">
        <ele>273</ele>
        <time>2017-04-29T09:17:22Z</time>
      </trkpt>
      <trkpt lat="45.89372" lon="4.94912">
        <ele>273</ele>
        <time>2017-04-29T09:17:23Z</time>
      </trkpt>
      <trkpt lat="45.89371" lon="4.94919">
        <ele>274</ele>
        <time>2017-04-29T09:17:24Z</time>
      </trkpt>
      <trkpt lat="45.89369" lon="4.94926">
        <ele>274</ele>
        <time>2017-04-29T09:17:25Z</time>
      </trkpt>
      <trkpt lat="45.89367" lon="4.94933">
        <ele>274</ele>
        <time>2017-04-29T09:17:26Z</time>
      </trkpt>
      <trkpt lat="45.89365" lon="4.94939">
        <ele>274</ele>
        <time>2017-04-29T09:17:27Z</time>
      </trkpt>
      <trkpt lat="45.89362" lon="4.94945">
        <ele>274</ele>
        <time>2017-04-29T09:17:28Z</time>
      </trkpt>
      <trkpt lat="45.8936" lon="4.94952">
        <ele>274</ele>
        <time>2017-04-29T09:17:29Z</time>
      </trkpt>
      <trkpt lat="45.89358" lon="4.94959">
        <ele>274</ele>
        <time>2017-04-29T09:17:30Z</time>
      </trkpt>
      <trkpt lat="45.89356" lon="4.94966">
        <ele>274</ele>
        <time>2017-04-29T09:17:31Z</time>
      </trkpt>
      <trkpt lat="45.89355" lon="4.94972">
        <ele>274</ele>
        <time>2017-04-29T09:17:32Z</time>
      </trkpt>
      <trkpt lat="45.89353" lon="4.94979">
        <ele>273</ele>
        <time>2017-04-29T09:17:33Z</time>
      </trkpt>
      <trkpt lat="45.89351" lon="4.94986">
        <ele>273</ele>
        <time>2017-04-29T09:17:34Z</time>
      </trkpt>
      <trkpt lat="45.89349" lon="4.94992">
        <ele>273</ele>
        <time>2017-04-29T09:17:35Z</time>
      </trkpt>
      <trkpt lat="45.89347" lon="4.94999">
        <ele>273</ele>
        <time>2017-04-29T09:17:36Z</time>
      </trkpt>
      <trkpt lat="45.89345" lon="4.95006">
        <ele>273</ele>
        <time>2017-04-29T09:17:37Z</time>
      </trkpt>
      <trkpt lat="45.89343" lon="4.95012">
        <ele>273</ele>
        <time>2017-04-29T09:17:38Z</time>
      </trkpt>
      <trkpt lat="45.89341" lon="4.95018">
        <ele>274</ele>
        <time>2017-04-29T09:17:39Z</time>
      </trkpt>
      <trkpt lat="45.8934" lon="4.95025">
        <ele>274</ele>
        <time>2017-04-29T09:17:40Z</time>
      </trkpt>
      <trkpt lat="45.89338" lon="4.95031">
        <ele>274</ele>
        <time>2017-04-29T09:17:41Z</time>
      </trkpt>
      <trkpt lat="45.89335" lon="4.95043">
        <ele>274</ele>
        <time>2017-04-29T09:17:43Z</time>
      </trkpt>
      <trkpt lat="45.89333" lon="4.9505">
        <ele>273</ele>
        <time>2017-04-29T09:17:44Z</time>
      </trkpt>
      <trkpt lat="45.89331" lon="4.95057">
        <ele>273</ele>
        <time>2017-04-29T09:17:45Z</time>
      </trkpt>
      <trkpt lat="45.89329" lon="4.95064">
        <ele>273</ele>
        <time>2017-04-29T09:17:46Z</time>
      </trkpt>
      <trkpt lat="45.89327" lon="4.95071">
        <ele>273</ele>
        <time>2017-04-29T09:17:47Z</time>
      </trkpt>
      <trkpt lat="45.89325" lon="4.95079">
        <ele>274</ele>
        <time>2017-04-29T09:17:48Z</time>
      </trkpt>
      <trkpt lat="45.89323" lon="4.95086">
        <ele>274</ele>
        <time>2017-04-29T09:17:49Z</time>
      </trkpt>
      <trkpt lat="45.89321" lon="4.95093">
        <ele>274</ele>
        <time>2017-04-29T09:17:50Z</time>
      </trkpt>
      <trkpt lat="45.89319" lon="4.95099">
        <ele>274</ele>
        <time>2017-04-29T09:17:51Z</time>
      </trkpt>
      <trkpt lat="45.89317" lon="4.95106">
        <ele>274</ele>
        <time>2017-04-29T09:17:52Z</time>
      </trkpt>
      <trkpt lat="45.89315" lon="4.95112">
        <ele>274</ele>
        <time>2017-04-29T09:17:53Z</time>
      </trkpt>
      <trkpt lat="45.89313" lon="4.95118">
        <ele>274</ele>
        <time>2017-04-29T09:17:54Z</time>
      </trkpt>
      <trkpt lat="45.89312" lon="4.95124">
        <ele>274</ele>
        <time>2017-04-29T09:17:55Z</time>
      </trkpt>
      <trkpt lat="45.8931" lon="4.95131">
        <ele>275</ele>
        <time>2017-04-29T09:17:56Z</time>
      </trkpt>
      <trkpt lat="45.8931" lon="4.95139">
        <ele>275</ele>
        <time>2017-04-29T09:17:57Z</time>
      </trkpt>
      <trkpt lat="45.8931" lon="4.95146">
        <ele>275</ele>
        <time>2017-04-29T09:17:58Z</time>
      </trkpt>
      <trkpt lat="45.8931" lon="4.95153">
        <ele>275</ele>
        <time>2017-04-29T09:17:59Z</time>
      </trkpt>
      <trkpt lat="45.89311" lon="4.95161">
        <ele>275</ele>
        <time>2017-04-29T09:18:00Z</time>
      </trkpt>
      <trkpt lat="45.89311" lon="4.95168">
        <ele>275</ele>
        <time>2017-04-29T09:18:01Z</time>
      </trkpt>
      <trkpt lat="45.89312" lon="4.95175">
        <ele>275</ele>
        <time>2017-04-29T09:18:02Z</time>
      </trkpt>
      <trkpt lat="45.89313" lon="4.95182">
        <ele>275</ele>
        <time>2017-04-29T09:18:03Z</time>
      </trkpt>
      <trkpt lat="45.89315" lon="4.9519">
        <ele>275</ele>
        <time>2017-04-29T09:18:04Z</time>
      </trkpt>
      <trkpt lat="45.89316" lon="4.95197">
        <ele>275</ele>
        <time>2017-04-29T09:18:05Z</time>
      </trkpt>
      <trkpt lat="45.89318" lon="4.95203">
        <ele>275</ele>
        <time>2017-04-29T09:18:06Z</time>
      </trkpt>
      <trkpt lat="45.8932" lon="4.95209">
        <ele>275</ele>
        <time>2017-04-29T09:18:07Z</time>
      </trkpt>
      <trkpt lat="45.89322" lon="4.95216">
        <ele>275</ele>
        <time>2017-04-29T09:18:08Z</time>
      </trkpt>
      <trkpt lat="45.89324" lon="4.95223">
        <ele>275</ele>
        <time>2017-04-29T09:18:09Z</time>
      </trkpt>
      <trkpt lat="45.89325" lon="4.9523">
        <ele>275</ele>
        <time>2017-04-29T09:18:10Z</time>
      </trkpt>
      <trkpt lat="45.89327" lon="4.95236">
        <ele>274</ele>
        <time>2017-04-29T09:18:11Z</time>
      </trkpt>
      <trkpt lat="45.89329" lon="4.95243">
        <ele>274</ele>
        <time>2017-04-29T09:18:12Z</time>
      </trkpt>
      <trkpt lat="45.8933" lon="4.9525">
        <ele>274</ele>
        <time>2017-04-29T09:18:13Z</time>
      </trkpt>
      <trkpt lat="45.89332" lon="4.95256">
        <ele>274</ele>
        <time>2017-04-29T09:18:14Z</time>
      </trkpt>
      <trkpt lat="45.89334" lon="4.95263">
        <ele>274</ele>
        <time>2017-04-29T09:18:15Z</time>
      </trkpt>
      <trkpt lat="45.89335" lon="4.95269">
        <ele>274</ele>
        <time>2017-04-29T09:18:16Z</time>
      </trkpt>
      <trkpt lat="45.89337" lon="4.95276">
        <ele>274</ele>
        <time>2017-04-29T09:18:17Z</time>
      </trkpt>
      <trkpt lat="45.89339" lon="4.95282">
        <ele>274</ele>
        <time>2017-04-29T09:18:18Z</time>
      </trkpt>
      <trkpt lat="45.89341" lon="4.95289">
        <ele>274</ele>
        <time>2017-04-29T09:18:19Z</time>
      </trkpt>
      <trkpt lat="45.89342" lon="4.95296">
        <ele>274</ele>
        <time>2017-04-29T09:18:20Z</time>
      </trkpt>
      <trkpt lat="45.89344" lon="4.95302">
        <ele>274</ele>
        <time>2017-04-29T09:18:21Z</time>
      </trkpt>
      <trkpt lat="45.89345" lon="4.95309">
        <ele>274</ele>
        <time>2017-04-29T09:18:22Z</time>
      </trkpt>
      <trkpt lat="45.89346" lon="4.95316">
        <ele>274</ele>
        <time>2017-04-29T09:18:23Z</time>
      </trkpt>
      <trkpt lat="45.89348" lon="4.95324">
        <ele>274</ele>
        <time>2017-04-29T09:18:24Z</time>
      </trkpt>
      <trkpt lat="45.89349" lon="4.95331">
        <ele>274</ele>
        <time>2017-04-29T09:18:25Z</time>
      </trkpt>
      <trkpt lat="45.89351" lon="4.95339">
        <ele>274</ele>
        <time>2017-04-29T09:18:26Z</time>
      </trkpt>
      <trkpt lat="45.89352" lon="4.95346">
        <ele>274</ele>
        <time>2017-04-29T09:18:27Z</time>
      </trkpt>
      <trkpt lat="45.89354" lon="4.95353">
        <ele>274</ele>
        <time>2017-04-29T09:18:28Z</time>
      </trkpt>
      <trkpt lat="45.89356" lon="4.95361">
        <ele>274</ele>
        <time>2017-04-29T09:18:29Z</time>
      </trkpt>
      <trkpt lat="45.89357" lon="4.95369">
        <ele>274</ele>
        <time>2017-04-29T09:18:30Z</time>
      </trkpt>
      <trkpt lat="45.89359" lon="4.95377">
        <ele>274</ele>
        <time>2017-04-29T09:18:31Z</time>
      </trkpt>
      <trkpt lat="45.89361" lon="4.95384">
        <ele>274</ele>
        <time>2017-04-29T09:18:32Z</time>
      </trkpt>
      <trkpt lat="45.89362" lon="4.95391">
        <ele>274</ele>
        <time>2017-04-29T09:18:33Z</time>
      </trkpt>
      <trkpt lat="45.89362" lon="4.95397">
        <ele>274</ele>
        <time>2017-04-29T09:18:34Z</time>
      </trkpt>
      <trkpt lat="45.89365" lon="4.95409">
        <ele>275</ele>
        <time>2017-04-29T09:18:36Z</time>
      </trkpt>
      <trkpt lat="45.89366" lon="4.95415">
        <ele>275</ele>
        <time>2017-04-29T09:18:37Z</time>
      </trkpt>
      <trkpt lat="45.89368" lon="4.95421">
        <ele>275</ele>
        <time>2017-04-29T09:18:38Z</time>
      </trkpt>
      <trkpt lat="45.89369" lon="4.95428">
        <ele>275</ele>
        <time>2017-04-29T09:18:39Z</time>
      </trkpt>
      <trkpt lat="45.8937" lon="4.95434">
        <ele>275</ele>
        <time>2017-04-29T09:18:40Z</time>
      </trkpt>
      <trkpt lat="45.89371" lon="4.9544">
        <ele>275</ele>
        <time>2017-04-29T09:18:41Z</time>
      </trkpt>
      <trkpt lat="45.89373" lon="4.95447">
        <ele>275</ele>
        <time>2017-04-29T09:18:42Z</time>
      </trkpt>
      <trkpt lat="45.89374" lon="4.95453">
        <ele>275</ele>
        <time>2017-04-29T09:18:43Z</time>
      </trkpt>
      <trkpt lat="45.89376" lon="4.9546">
        <ele>276</ele>
        <time>2017-04-29T09:18:44Z</time>
      </trkpt>
      <trkpt lat="45.89377" lon="4.95466">
        <ele>276</ele>
        <time>2017-04-29T09:18:45Z</time>
      </trkpt>
      <trkpt lat="45.89378" lon="4.95473">
        <ele>276</ele>
        <time>2017-04-29T09:18:46Z</time>
      </trkpt>
      <trkpt lat="45.8938" lon="4.9548">
        <ele>276</ele>
        <time>2017-04-29T09:18:47Z</time>
      </trkpt>
      <trkpt lat="45.89382" lon="4.95487">
        <ele>276</ele>
        <time>2017-04-29T09:18:48Z</time>
      </trkpt>
      <trkpt lat="45.89383" lon="4.95494">
        <ele>276</ele>
        <time>2017-04-29T09:18:49Z</time>
      </trkpt>
      <trkpt lat="45.89385" lon="4.955">
        <ele>277</ele>
        <time>2017-04-29T09:18:50Z</time>
      </trkpt>
      <trkpt lat="45.89387" lon="4.95507">
        <ele>277</ele>
        <time>2017-04-29T09:18:51Z</time>
      </trkpt>
      <trkpt lat="45.89388" lon="4.95514">
        <ele>277</ele>
        <time>2017-04-29T09:18:52Z</time>
      </trkpt>
      <trkpt lat="45.89389" lon="4.9552">
        <ele>277</ele>
        <time>2017-04-29T09:18:53Z</time>
      </trkpt>
      <trkpt lat="45.89392" lon="4.95533">
        <ele>277</ele>
        <time>2017-04-29T09:18:55Z</time>
      </trkpt>
      <trkpt lat="45.89393" lon="4.95538">
        <ele>277</ele>
        <time>2017-04-29T09:18:56Z</time>
      </trkpt>
      <trkpt lat="45.89395" lon="4.95549">
        <ele>277</ele>
        <time>2017-04-29T09:18:58Z</time>
      </trkpt>
      <trkpt lat="45.89396" lon="4.95555">
        <ele>277</ele>
        <time>2017-04-29T09:18:59Z</time>
      </trkpt>
      <trkpt lat="45.89399" lon="4.95567">
        <ele>277</ele>
        <time>2017-04-29T09:19:01Z</time>
      </trkpt>
      <trkpt lat="45.89401" lon="4.95572">
        <ele>277</ele>
        <time>2017-04-29T09:19:02Z</time>
      </trkpt>
      <trkpt lat="45.89403" lon="4.95584">
        <ele>278</ele>
        <time>2017-04-29T09:19:04Z</time>
      </trkpt>
      <trkpt lat="45.89405" lon="4.95591">
        <ele>278</ele>
        <time>2017-04-29T09:19:05Z</time>
      </trkpt>
      <trkpt lat="45.89406" lon="4.95598">
        <ele>278</ele>
        <time>2017-04-29T09:19:06Z</time>
      </trkpt>
      <trkpt lat="45.89407" lon="4.95605">
        <ele>278</ele>
        <time>2017-04-29T09:19:07Z</time>
      </trkpt>
      <trkpt lat="45.89409" lon="4.95613">
        <ele>278</ele>
        <time>2017-04-29T09:19:08Z</time>
      </trkpt>
      <trkpt lat="45.89411" lon="4.9562">
        <ele>278</ele>
        <time>2017-04-29T09:19:09Z</time>
      </trkpt>
      <trkpt lat="45.89413" lon="4.95628">
        <ele>278</ele>
        <time>2017-04-29T09:19:10Z</time>
      </trkpt>
      <trkpt lat="45.89415" lon="4.95636">
        <ele>278</ele>
        <time>2017-04-29T09:19:11Z</time>
      </trkpt>
      <trkpt lat="45.89416" lon="4.95643">
        <ele>279</ele>
        <time>2017-04-29T09:19:12Z</time>
      </trkpt>
      <trkpt lat="45.89418" lon="4.95651">
        <ele>278</ele>
        <time>2017-04-29T09:19:13Z</time>
      </trkpt>
      <trkpt lat="45.8942" lon="4.95658">
        <ele>278</ele>
        <time>2017-04-29T09:19:14Z</time>
      </trkpt>
      <trkpt lat="45.89422" lon="4.95665">
        <ele>279</ele>
        <time>2017-04-29T09:19:15Z</time>
      </trkpt>
      <trkpt lat="45.89423" lon="4.95672">
        <ele>279</ele>
        <time>2017-04-29T09:19:16Z</time>
      </trkpt>
      <trkpt lat="45.89425" lon="4.95679">
        <ele>278</ele>
        <time>2017-04-29T09:19:17Z</time>
      </trkpt>
      <trkpt lat="45.89427" lon="4.95685">
        <ele>278</ele>
        <time>2017-04-29T09:19:18Z</time>
      </trkpt>
      <trkpt lat="45.89428" lon="4.95692">
        <ele>278</ele>
        <time>2017-04-29T09:19:19Z</time>
      </trkpt>
      <trkpt lat="45.8943" lon="4.95699">
        <ele>278</ele>
        <time>2017-04-29T09:19:20Z</time>
      </trkpt>
      <trkpt lat="45.89431" lon="4.95705">
        <ele>278</ele>
        <time>2017-04-29T09:19:21Z</time>
      </trkpt>
      <trkpt lat="45.89432" lon="4.95712">
        <ele>278</ele>
        <time>2017-04-29T09:19:22Z</time>
      </trkpt>
      <trkpt lat="45.89434" lon="4.95718">
        <ele>278</ele>
        <time>2017-04-29T09:19:23Z</time>
      </trkpt>
      <trkpt lat="45.89435" lon="4.95725">
        <ele>278</ele>
        <time>2017-04-29T09:19:24Z</time>
      </trkpt>
      <trkpt lat="45.89436" lon="4.95731">
        <ele>278</ele>
        <time>2017-04-29T09:19:25Z</time>
      </trkpt>
      <trkpt lat="45.89438" lon="4.95738">
        <ele>279</ele>
        <time>2017-04-29T09:19:26Z</time>
      </trkpt>
      <trkpt lat="45.89439" lon="4.95745">
        <ele>279</ele>
        <time>2017-04-29T09:19:27Z</time>
      </trkpt>
      <trkpt lat="45.89441" lon="4.95752">
        <ele>279</ele>
        <time>2017-04-29T09:19:28Z</time>
      </trkpt>
      <trkpt lat="45.89443" lon="4.95759">
        <ele>279</ele>
        <time>2017-04-29T09:19:29Z</time>
      </trkpt>
      <trkpt lat="45.89444" lon="4.95766">
        <ele>279</ele>
        <time>2017-04-29T09:19:30Z</time>
      </trkpt>
      <trkpt lat="45.89446" lon="4.95773">
        <ele>279</ele>
        <time>2017-04-29T09:19:31Z</time>
      </trkpt>
      <trkpt lat="45.89447" lon="4.9578">
        <ele>278</ele>
        <time>2017-04-29T09:19:32Z</time>
      </trkpt>
      <trkpt lat="45.89448" lon="4.95786">
        <ele>278</ele>
        <time>2017-04-29T09:19:33Z</time>
      </trkpt>
      <trkpt lat="45.89449" lon="4.95792">
        <ele>278</ele>
        <time>2017-04-29T09:19:34Z</time>
      </trkpt>
      <trkpt lat="45.8945" lon="4.95798">
        <ele>278</ele>
        <time>2017-04-29T09:19:35Z</time>
      </trkpt>
      <trkpt lat="45.89452" lon="4.95804">
        <ele>278</ele>
        <time>2017-04-29T09:19:36Z</time>
      </trkpt>
      <trkpt lat="45.89453" lon="4.95811">
        <ele>278</ele>
        <time>2017-04-29T09:19:37Z</time>
      </trkpt>
      <trkpt lat="45.89454" lon="4.95817">
        <ele>278</ele>
        <time>2017-04-29T09:19:38Z</time>
      </trkpt>
      <trkpt lat="45.89455" lon="4.95825">
        <ele>278</ele>
        <time>2017-04-29T09:19:39Z</time>
      </trkpt>
      <trkpt lat="45.89457" lon="4.95832">
        <ele>278</ele>
        <time>2017-04-29T09:19:40Z</time>
      </trkpt>
      <trkpt lat="45.89459" lon="4.95839">
        <ele>278</ele>
        <time>2017-04-29T09:19:41Z</time>
      </trkpt>
      <trkpt lat="45.8946" lon="4.95847">
        <ele>278</ele>
        <time>2017-04-29T09:19:42Z</time>
      </trkpt>
      <trkpt lat="45.89462" lon="4.95855">
        <ele>278</ele>
        <time>2017-04-29T09:19:43Z</time>
      </trkpt>
      <trkpt lat="45.89464" lon="4.95863">
        <ele>278</ele>
        <time>2017-04-29T09:19:44Z</time>
      </trkpt>
      <trkpt lat="45.89466" lon="4.95871">
        <ele>278</ele>
        <time>2017-04-29T09:19:45Z</time>
      </trkpt>
      <trkpt lat="45.89467" lon="4.95879">
        <ele>278</ele>
        <time>2017-04-29T09:19:46Z</time>
      </trkpt>
      <trkpt lat="45.89469" lon="4.95886">
        <ele>278</ele>
        <time>2017-04-29T09:19:47Z</time>
      </trkpt>
      <trkpt lat="45.8947" lon="4.95893">
        <ele>278</ele>
        <time>2017-04-29T09:19:48Z</time>
      </trkpt>
      <trkpt lat="45.89471" lon="4.959">
        <ele>278</ele>
        <time>2017-04-29T09:19:49Z</time>
      </trkpt>
      <trkpt lat="45.89472" lon="4.95907">
        <ele>278</ele>
        <time>2017-04-29T09:19:50Z</time>
      </trkpt>
      <trkpt lat="45.89473" lon="4.95914">
        <ele>278</ele>
        <time>2017-04-29T09:19:51Z</time>
      </trkpt>
      <trkpt lat="45.89474" lon="4.9592">
        <ele>278</ele>
        <time>2017-04-29T09:19:52Z</time>
      </trkpt>
      <trkpt lat="45.89474" lon="4.95927">
        <ele>278</ele>
        <time>2017-04-29T09:19:53Z</time>
      </trkpt>
      <trkpt lat="45.89475" lon="4.95933">
        <ele>278</ele>
        <time>2017-04-29T09:19:54Z</time>
      </trkpt>
      <trkpt lat="45.89476" lon="4.9594">
        <ele>278</ele>
        <time>2017-04-29T09:19:55Z</time>
      </trkpt>
      <trkpt lat="45.89477" lon="4.95952">
        <ele>278</ele>
        <time>2017-04-29T09:19:57Z</time>
      </trkpt>
      <trkpt lat="45.89478" lon="4.95959">
        <ele>278</ele>
        <time>2017-04-29T09:19:58Z</time>
      </trkpt>
      <trkpt lat="45.89479" lon="4.95971">
        <ele>278</ele>
        <time>2017-04-29T09:20:00Z</time>
      </trkpt>
      <trkpt lat="45.89479" lon="4.95977">
        <ele>278</ele>
        <time>2017-04-29T09:20:01Z</time>
      </trkpt>
      <trkpt lat="45.8948" lon="4.95988">
        <ele>277</ele>
        <time>2017-04-29T09:20:03Z</time>
      </trkpt>
      <trkpt lat="45.89481" lon="4.95993">
        <ele>277</ele>
        <time>2017-04-29T09:20:04Z</time>
      </trkpt>
      <trkpt lat="45.89482" lon="4.96002">
        <ele>278</ele>
        <time>2017-04-29T09:20:06Z</time>
      </trkpt>
      <trkpt lat="45.89481" lon="4.96007">
        <ele>278</ele>
        <time>2017-04-29T09:20:07Z</time>
      </trkpt>
      <trkpt lat="45.89481" lon="4.96017">
        <ele>278</ele>
        <time>2017-04-29T09:20:09Z</time>
      </trkpt>
      <trkpt lat="45.89481" lon="4.96022">
        <ele>278</ele>
        <time>2017-04-29T09:20:10Z</time>
      </trkpt>
      <trkpt lat="45.8948" lon="4.96033">
        <ele>278</ele>
        <time>2017-04-29T09:20:12Z</time>
      </trkpt>
      <trkpt lat="45.8948" lon="4.96038">
        <ele>278</ele>
        <time>2017-04-29T09:20:13Z</time>
      </trkpt>
      <trkpt lat="45.89479" lon="4.9605">
        <ele>278</ele>
        <time>2017-04-29T09:20:15Z</time>
      </trkpt>
      <trkpt lat="45.89479" lon="4.96057">
        <ele>278</ele>
        <time>2017-04-29T09:20:16Z</time>
      </trkpt>
      <trkpt lat="45.89479" lon="4.96063">
        <ele>278</ele>
        <time>2017-04-29T09:20:17Z</time>
      </trkpt>
      <trkpt lat="45.8948" lon="4.9607">
        <ele>278</ele>
        <time>2017-04-29T09:20:18Z</time>
      </trkpt>
      <trkpt lat="45.8948" lon="4.96077">
        <ele>278</ele>
        <time>2017-04-29T09:20:19Z</time>
      </trkpt>
      <trkpt lat="45.8948" lon="4.96084">
        <ele>279</ele>
        <time>2017-04-29T09:20:20Z</time>
      </trkpt>
      <trkpt lat="45.8948" lon="4.96091">
        <ele>279</ele>
        <time>2017-04-29T09:20:21Z</time>
      </trkpt>
      <trkpt lat="45.8948" lon="4.96098">
        <ele>279</ele>
        <time>2017-04-29T09:20:22Z</time>
      </trkpt>
      <trkpt lat="45.8948" lon="4.96105">
        <ele>279</ele>
        <time>2017-04-29T09:20:23Z</time>
      </trkpt>
      <trkpt lat="45.8948" lon="4.96112">
        <ele>279</ele>
        <time>2017-04-29T09:20:24Z</time>
      </trkpt>
      <trkpt lat="45.8948" lon="4.96118">
        <ele>279</ele>
        <time>2017-04-29T09:20:25Z</time>
      </trkpt>
      <trkpt lat="45.89481" lon="4.96125">
        <ele>279</ele>
        <time>2017-04-29T09:20:26Z</time>
      </trkpt>
      <trkpt lat="45.89481" lon="4.96131">
        <ele>279</ele>
        <time>2017-04-29T09:20:27Z</time>
      </trkpt>
      <trkpt lat="45.89482" lon="4.96138">
        <ele>279</ele>
        <time>2017-04-29T09:20:28Z</time>
      </trkpt>
      <trkpt lat="45.89483" lon="4.9615">
        <ele>280</ele>
        <time>2017-04-29T09:20:30Z</time>
      </trkpt>
      <trkpt lat="45.89484" lon="4.96156">
        <ele>280</ele>
        <time>2017-04-29T09:20:31Z</time>
      </trkpt>
      <trkpt lat="45.89486" lon="4.96168">
        <ele>280</ele>
        <time>2017-04-29T09:20:33Z</time>
      </trkpt>
      <trkpt lat="45.89487" lon="4.96174">
        <ele>280</ele>
        <time>2017-04-29T09:20:34Z</time>
      </trkpt>
      <trkpt lat="45.89489" lon="4.96181">
        <ele>280</ele>
        <time>2017-04-29T09:20:35Z</time>
      </trkpt>
      <trkpt lat="45.89491" lon="4.96187">
        <ele>280</ele>
        <time>2017-04-29T09:20:36Z</time>
      </trkpt>
      <trkpt lat="45.89494" lon="4.96198">
        <ele>280</ele>
        <time>2017-04-29T09:20:38Z</time>
      </trkpt>
      <trkpt lat="45.89496" lon="4.96204">
        <ele>280</ele>
        <time>2017-04-29T09:20:39Z</time>
      </trkpt>
      <trkpt lat="45.89498" lon="4.96211">
        <ele>280</ele>
        <time>2017-04-29T09:20:40Z</time>
      </trkpt>
      <trkpt lat="45.89499" lon="4.96217">
        <ele>280</ele>
        <time>2017-04-29T09:20:41Z</time>
      </trkpt>
      <trkpt lat="45.89501" lon="4.96223">
        <ele>281</ele>
        <time>2017-04-29T09:20:42Z</time>
      </trkpt>
      <trkpt lat="45.89503" lon="4.96229">
        <ele>281</ele>
        <time>2017-04-29T09:20:43Z</time>
      </trkpt>
      <trkpt lat="45.89505" lon="4.96236">
        <ele>281</ele>
        <time>2017-04-29T09:20:44Z</time>
      </trkpt>
      <trkpt lat="45.89507" lon="4.96242">
        <ele>281</ele>
        <time>2017-04-29T09:20:45Z</time>
      </trkpt>
      <trkpt lat="45.89509" lon="4.96248">
        <ele>281</ele>
        <time>2017-04-29T09:20:46Z</time>
      </trkpt>
      <trkpt lat="45.89512" lon="4.96254">
        <ele>281</ele>
        <time>2017-04-29T09:20:47Z</time>
      </trkpt>
      <trkpt lat="45.89516" lon="4.96265">
        <ele>282</ele>
        <time>2017-04-29T09:20:49Z</time>
      </trkpt>
      <trkpt lat="45.89518" lon="4.96271">
        <ele>282</ele>
        <time>2017-04-29T09:20:50Z</time>
      </trkpt>
      <trkpt lat="45.89522" lon="4.96282">
        <ele>282</ele>
        <time>2017-04-29T09:20:52Z</time>
      </trkpt>
      <trkpt lat="45.89525" lon="4.96287">
        <ele>282</ele>
        <time>2017-04-29T09:20:53Z</time>
      </trkpt>
      <trkpt lat="45.89527" lon="4.96293">
        <ele>282</ele>
        <time>2017-04-29T09:20:54Z</time>
      </trkpt>
      <trkpt lat="45.89529" lon="4.96299">
        <ele>282</ele>
        <time>2017-04-29T09:20:55Z</time>
      </trkpt>
      <trkpt lat="45.89532" lon="4.96306">
        <ele>282</ele>
        <time>2017-04-29T09:20:56Z</time>
      </trkpt>
      <trkpt lat="45.89534" lon="4.96312">
        <ele>282</ele>
        <time>2017-04-29T09:20:57Z</time>
      </trkpt>
      <trkpt lat="45.89536" lon="4.96318">
        <ele>282</ele>
        <time>2017-04-29T09:20:58Z</time>
      </trkpt>
      <trkpt lat="45.89539" lon="4.96324">
        <ele>282</ele>
        <time>2017-04-29T09:20:59Z</time>
      </trkpt>
      <trkpt lat="45.89541" lon="4.9633">
        <ele>282</ele>
        <time>2017-04-29T09:21:00Z</time>
      </trkpt>
      <trkpt lat="45.89543" lon="4.96336">
        <ele>283</ele>
        <time>2017-04-29T09:21:01Z</time>
      </trkpt>
      <trkpt lat="45.89545" lon="4.96342">
        <ele>283</ele>
        <time>2017-04-29T09:21:02Z</time>
      </trkpt>
      <trkpt lat="45.89547" lon="4.96348">
        <ele>283</ele>
        <time>2017-04-29T09:21:03Z</time>
      </trkpt>
      <trkpt lat="45.89549" lon="4.96354">
        <ele>283</ele>
        <time>2017-04-29T09:21:04Z</time>
      </trkpt>
      <trkpt lat="45.89551" lon="4.9636">
        <ele>283</ele>
        <time>2017-04-29T09:21:05Z</time>
      </trkpt>
      <trkpt lat="45.89554" lon="4.96366">
        <ele>283</ele>
        <time>2017-04-29T09:21:06Z</time>
      </trkpt>
      <trkpt lat="45.89556" lon="4.96372">
        <ele>283</ele>
        <time>2017-04-29T09:21:07Z</time>
      </trkpt>
      <trkpt lat="45.89557" lon="4.96378">
        <ele>283</ele>
        <time>2017-04-29T09:21:08Z</time>
      </trkpt>
      <trkpt lat="45.89559" lon="4.96384">
        <ele>283</ele>
        <time>2017-04-29T09:21:09Z</time>
      </trkpt>
      <trkpt lat="45.89561" lon="4.9639">
        <ele>283</ele>
        <time>2017-04-29T09:21:10Z</time>
      </trkpt>
      <trkpt lat="45.89563" lon="4.96396">
        <ele>283</ele>
        <time>2017-04-29T09:21:11Z</time>
      </trkpt>
      <trkpt lat="45.89566" lon="4.96408">
        <ele>283</ele>
        <time>2017-04-29T09:21:13Z</time>
      </trkpt>
      <trkpt lat="45.89568" lon="4.96414">
        <ele>284</ele>
        <time>2017-04-29T09:21:14Z</time>
      </trkpt>
      <trkpt lat="45.89572" lon="4.96425">
        <ele>284</ele>
        <time>2017-04-29T09:21:16Z</time>
      </trkpt>
      <trkpt lat="45.89574" lon="4.9643">
        <ele>284</ele>
        <time>2017-04-29T09:21:17Z</time>
      </trkpt>
      <trkpt lat="45.89578" lon="4.96441">
        <ele>284</ele>
        <time>2017-04-29T09:21:19Z</time>
      </trkpt>
      <trkpt lat="45.8958" lon="4.96446">
        <ele>284</ele>
        <time>2017-04-29T09:21:20Z</time>
      </trkpt>
      <trkpt lat="45.89584" lon="4.96458">
        <ele>284</ele>
        <time>2017-04-29T09:21:22Z</time>
      </trkpt>
      <trkpt lat="45.89585" lon="4.96463">
        <ele>284</ele>
        <time>2017-04-29T09:21:23Z</time>
      </trkpt>
      <trkpt lat="45.89587" lon="4.96469">
        <ele>284</ele>
        <time>2017-04-29T09:21:24Z</time>
      </trkpt>
      <trkpt lat="45.89589" lon="4.96475">
        <ele>284</ele>
        <time>2017-04-29T09:21:25Z</time>
      </trkpt>
      <trkpt lat="45.89591" lon="4.96482">
        <ele>284</ele>
        <time>2017-04-29T09:21:26Z</time>
      </trkpt>
      <trkpt lat="45.89593" lon="4.96488">
        <ele>285</ele>
        <time>2017-04-29T09:21:27Z</time>
      </trkpt>
      <trkpt lat="45.89595" lon="4.96495">
        <ele>285</ele>
        <time>2017-04-29T09:21:28Z</time>
      </trkpt>
      <trkpt lat="45.89597" lon="4.96502">
        <ele>286</ele>
        <time>2017-04-29T09:21:29Z</time>
      </trkpt>
      <trkpt lat="45.89599" lon="4.96509">
        <ele>286</ele>
        <time>2017-04-29T09:21:30Z</time>
      </trkpt>
      <trkpt lat="45.89601" lon="4.96515">
        <ele>286</ele>
        <time>2017-04-29T09:21:31Z</time>
      </trkpt>
      <trkpt lat="45.89605" lon="4.96526">
        <ele>286</ele>
        <time>2017-04-29T09:21:33Z</time>
      </trkpt>
      <trkpt lat="45.89607" lon="4.96531">
        <ele>286</ele>
        <time>2017-04-29T09:21:34Z</time>
      </trkpt>
      <trkpt lat="45.8961" lon="4.9654">
        <ele>287</ele>
        <time>2017-04-29T09:21:36Z</time>
      </trkpt>
      <trkpt lat="45.89611" lon="4.96545">
        <ele>287</ele>
        <time>2017-04-29T09:21:37Z</time>
      </trkpt>
      <trkpt lat="45.89614" lon="4.96555">
        <ele>287</ele>
        <time>2017-04-29T09:21:39Z</time>
      </trkpt>
      <trkpt lat="45.89615" lon="4.96559">
        <ele>287</ele>
        <time>2017-04-29T09:21:40Z</time>
      </trkpt>
      <trkpt lat="45.89618" lon="4.96569">
        <ele>287</ele>
        <time>2017-04-29T09:21:42Z</time>
      </trkpt>
      <trkpt lat="45.89619" lon="4.96575">
        <ele>287</ele>
        <time>2017-04-29T09:21:43Z</time>
      </trkpt>
      <trkpt lat="45.89621" lon="4.96585">
        <ele>290</ele>
        <time>2017-04-29T09:21:45Z</time>
      </trkpt>
      <trkpt lat="45.89622" lon="4.96591">
        <ele>290</ele>
        <time>2017-04-29T09:21:46Z</time>
      </trkpt>
      <trkpt lat="45.89624" lon="4.96602">
        <ele>290</ele>
        <time>2017-04-29T09:21:48Z</time>
      </trkpt>
      <trkpt lat="45.89626" lon="4.96607">
        <ele>290</ele>
        <time>2017-04-29T09:21:49Z</time>
      </trkpt>
      <trkpt lat="45.89628" lon="4.96619">
        <ele>290</ele>
        <time>2017-04-29T09:21:51Z</time>
      </trkpt>
      <trkpt lat="45.89629" lon="4.96626">
        <ele>290</ele>
        <time>2017-04-29T09:21:52Z</time>
      </trkpt>
      <trkpt lat="45.8963" lon="4.96632">
        <ele>290</ele>
        <time>2017-04-29T09:21:53Z</time>
      </trkpt>
      <trkpt lat="45.89631" lon="4.96638">
        <ele>290</ele>
        <time>2017-04-29T09:21:54Z</time>
      </trkpt>
      <trkpt lat="45.89633" lon="4.9665">
        <ele>290</ele>
        <time>2017-04-29T09:21:56Z</time>
      </trkpt>
      <trkpt lat="45.89633" lon="4.96656">
        <ele>291</ele>
        <time>2017-04-29T09:21:57Z</time>
      </trkpt>
      <trkpt lat="45.89634" lon="4.96668">
        <ele>292</ele>
        <time>2017-04-29T09:21:59Z</time>
      </trkpt>
      <trkpt lat="45.89634" lon="4.96675">
        <ele>292</ele>
        <time>2017-04-29T09:22:00Z</time>
      </trkpt>
      <trkpt lat="45.89632" lon="4.96687">
        <ele>292</ele>
        <time>2017-04-29T09:22:02Z</time>
      </trkpt>
      <trkpt lat="45.89631" lon="4.96693">
        <ele>292</ele>
        <time>2017-04-29T09:22:03Z</time>
      </trkpt>
      <trkpt lat="45.89629" lon="4.967">
        <ele>292</ele>
        <time>2017-04-29T09:22:04Z</time>
      </trkpt>
      <trkpt lat="45.89628" lon="4.96706">
        <ele>292</ele>
        <time>2017-04-29T09:22:05Z</time>
      </trkpt>
      <trkpt lat="45.89627" lon="4.96713">
        <ele>292</ele>
        <time>2017-04-29T09:22:06Z</time>
      </trkpt>
      <trkpt lat="45.89626" lon="4.9672">
        <ele>292</ele>
        <time>2017-04-29T09:22:07Z</time>
      </trkpt>
      <trkpt lat="45.89624" lon="4.96726">
        <ele>292</ele>
        <time>2017-04-29T09:22:08Z</time>
      </trkpt>
      <trkpt lat="45.89623" lon="4.96732">
        <ele>292</ele>
        <time>2017-04-29T09:22:09Z</time>
      </trkpt>
      <trkpt lat="45.8962" lon="4.96743">
        <ele>292</ele>
        <time>2017-04-29T09:22:11Z</time>
      </trkpt>
      <trkpt lat="45.89618" lon="4.96749">
        <ele>292</ele>
        <time>2017-04-29T09:22:12Z</time>
      </trkpt>
      <trkpt lat="45.89616" lon="4.9676">
        <ele>292</ele>
        <time>2017-04-29T09:22:14Z</time>
      </trkpt>
      <trkpt lat="45.89614" lon="4.96766">
        <ele>292</ele>
        <time>2017-04-29T09:22:15Z</time>
      </trkpt>
      <trkpt lat="45.89612" lon="4.96778">
        <ele>292</ele>
        <time>2017-04-29T09:22:17Z</time>
      </trkpt>
      <trkpt lat="45.8961" lon="4.96784">
        <ele>292</ele>
        <time>2017-04-29T09:22:18Z</time>
      </trkpt>
      <trkpt lat="45.89609" lon="4.9679">
        <ele>292</ele>
        <time>2017-04-29T09:22:19Z</time>
      </trkpt>
      <trkpt lat="45.89608" lon="4.96797">
        <ele>293</ele>
        <time>2017-04-29T09:22:20Z</time>
      </trkpt>
      <trkpt lat="45.89606" lon="4.96803">
        <ele>293</ele>
        <time>2017-04-29T09:22:21Z</time>
      </trkpt>
      <trkpt lat="45.89604" lon="4.96809">
        <ele>293</ele>
        <time>2017-04-29T09:22:22Z</time>
      </trkpt>
      <trkpt lat="45.89601" lon="4.96819">
        <ele>293</ele>
        <time>2017-04-29T09:22:24Z</time>
      </trkpt>
      <trkpt lat="45.89599" lon="4.96826">
        <ele>293</ele>
        <time>2017-04-29T09:22:25Z</time>
      </trkpt>
      <trkpt lat="45.89598" lon="4.96832">
        <ele>293</ele>
        <time>2017-04-29T09:22:26Z</time>
      </trkpt>
      <trkpt lat="45.89597" lon="4.9684">
        <ele>293</ele>
        <time>2017-04-29T09:22:27Z</time>
      </trkpt>
      <trkpt lat="45.89597" lon="4.96847">
        <ele>294</ele>
        <time>2017-04-29T09:22:28Z</time>
      </trkpt>
      <trkpt lat="45.89597" lon="4.96854">
        <ele>294</ele>
        <time>2017-04-29T09:22:29Z</time>
      </trkpt>
      <trkpt lat="45.89598" lon="4.96861">
        <ele>294</ele>
        <time>2017-04-29T09:22:30Z</time>
      </trkpt>
      <trkpt lat="45.896" lon="4.96868">
        <ele>294</ele>
        <time>2017-04-29T09:22:31Z</time>
      </trkpt>
      <trkpt lat="45.89602" lon="4.96875">
        <ele>294</ele>
        <time>2017-04-29T09:22:32Z</time>
      </trkpt>
      <trkpt lat="45.89604" lon="4.96881">
        <ele>294</ele>
        <time>2017-04-29T09:22:33Z</time>
      </trkpt>
      <trkpt lat="45.89607" lon="4.96887">
        <ele>294</ele>
        <time>2017-04-29T09:22:34Z</time>
      </trkpt>
      <trkpt lat="45.8961" lon="4.96893">
        <ele>294</ele>
        <time>2017-04-29T09:22:35Z</time>
      </trkpt>
      <trkpt lat="45.89613" lon="4.96899">
        <ele>294</ele>
        <time>2017-04-29T09:22:36Z</time>
      </trkpt>
      <trkpt lat="45.89615" lon="4.96905">
        <ele>294</ele>
        <time>2017-04-29T09:22:37Z</time>
      </trkpt>
      <trkpt lat="45.89619" lon="4.96914">
        <ele>294</ele>
        <time>2017-04-29T09:22:39Z</time>
      </trkpt>
      <trkpt lat="45.8962" lon="4.96916">
        <ele>294</ele>
        <time>2017-04-29T09:22:40Z</time>
      </trkpt>
      <trkpt lat="45.89621" lon="4.96917">
        <ele>295</ele>
        <time>2017-04-29T09:22:41Z</time>
      </trkpt>
      <trkpt lat="45.89625" lon="4.96923">
        <ele>295</ele>
        <time>2017-04-29T09:22:50Z</time>
      </trkpt>
      <trkpt lat="45.89627" lon="4.96925">
        <ele>295</ele>
        <time>2017-04-29T09:22:51Z</time>
      </trkpt>
      <trkpt lat="45.89632" lon="4.9693">
        <ele>295</ele>
        <time>2017-04-29T09:22:53Z</time>
      </trkpt>
      <trkpt lat="45.89635" lon="4.96934">
        <ele>295</ele>
        <time>2017-04-29T09:22:54Z</time>
      </trkpt>
      <trkpt lat="45.89638" lon="4.96939">
        <ele>295</ele>
        <time>2017-04-29T09:22:55Z</time>
      </trkpt>
      <trkpt lat="45.89641" lon="4.96944">
        <ele>295</ele>
        <time>2017-04-29T09:22:56Z</time>
      </trkpt>
      <trkpt lat="45.89644" lon="4.96951">
        <ele>295</ele>
        <time>2017-04-29T09:22:57Z</time>
      </trkpt>
      <trkpt lat="45.89648" lon="4.96957">
        <ele>295</ele>
        <time>2017-04-29T09:22:58Z</time>
      </trkpt>
      <trkpt lat="45.89652" lon="4.96964">
        <ele>295</ele>
        <time>2017-04-29T09:22:59Z</time>
      </trkpt>
      <trkpt lat="45.89656" lon="4.96969">
        <ele>295</ele>
        <time>2017-04-29T09:23:00Z</time>
      </trkpt>
      <trkpt lat="45.8966" lon="4.96975">
        <ele>295</ele>
        <time>2017-04-29T09:23:01Z</time>
      </trkpt>
      <trkpt lat="45.89664" lon="4.96981">
        <ele>295</ele>
        <time>2017-04-29T09:23:02Z</time>
      </trkpt>
      <trkpt lat="45.89667" lon="4.96987">
        <ele>293</ele>
        <time>2017-04-29T09:23:03Z</time>
      </trkpt>
      <trkpt lat="45.8967" lon="4.96993">
        <ele>294</ele>
        <time>2017-04-29T09:23:04Z</time>
      </trkpt>
      <trkpt lat="45.89674" lon="4.96999">
        <ele>294</ele>
        <time>2017-04-29T09:23:05Z</time>
      </trkpt>
      <trkpt lat="45.89677" lon="4.97004">
        <ele>293</ele>
        <time>2017-04-29T09:23:06Z</time>
      </trkpt>
      <trkpt lat="45.89681" lon="4.97009">
        <ele>292</ele>
        <time>2017-04-29T09:23:07Z</time>
      </trkpt>
      <trkpt lat="45.89684" lon="4.97014">
        <ele>292</ele>
        <time>2017-04-29T09:23:08Z</time>
      </trkpt>
      <trkpt lat="45.89689" lon="4.97019">
        <ele>291</ele>
        <time>2017-04-29T09:23:09Z</time>
      </trkpt>
      <trkpt lat="45.89692" lon="4.97025">
        <ele>291</ele>
        <time>2017-04-29T09:23:10Z</time>
      </trkpt>
      <trkpt lat="45.89696" lon="4.97031">
        <ele>291</ele>
        <time>2017-04-29T09:23:11Z</time>
      </trkpt>
      <trkpt lat="45.897" lon="4.97037">
        <ele>290</ele>
        <time>2017-04-29T09:23:12Z</time>
      </trkpt>
      <trkpt lat="45.89704" lon="4.97044">
        <ele>290</ele>
        <time>2017-04-29T09:23:13Z</time>
      </trkpt>
      <trkpt lat="45.89707" lon="4.9705">
        <ele>290</ele>
        <time>2017-04-29T09:23:14Z</time>
      </trkpt>
      <trkpt lat="45.89711" lon="4.97056">
        <ele>290</ele>
        <time>2017-04-29T09:23:15Z</time>
      </trkpt>
      <trkpt lat="45.89715" lon="4.97062">
        <ele>289</ele>
        <time>2017-04-29T09:23:16Z</time>
      </trkpt>
      <trkpt lat="45.89719" lon="4.97069">
        <ele>289</ele>
        <time>2017-04-29T09:23:17Z</time>
      </trkpt>
      <trkpt lat="45.89724" lon="4.97076">
        <ele>289</ele>
        <time>2017-04-29T09:23:18Z</time>
      </trkpt>
      <trkpt lat="45.89727" lon="4.97083">
        <ele>288</ele>
        <time>2017-04-29T09:23:19Z</time>
      </trkpt>
      <trkpt lat="45.89731" lon="4.97089">
        <ele>288</ele>
        <time>2017-04-29T09:23:20Z</time>
      </trkpt>
      <trkpt lat="45.89734" lon="4.97094">
        <ele>288</ele>
        <time>2017-04-29T09:23:21Z</time>
      </trkpt>
      <trkpt lat="45.89738" lon="4.97099">
        <ele>288</ele>
        <time>2017-04-29T09:23:22Z</time>
      </trkpt>
      <trkpt lat="45.89741" lon="4.97106">
        <ele>288</ele>
        <time>2017-04-29T09:23:23Z</time>
      </trkpt>
      <trkpt lat="45.89745" lon="4.97111">
        <ele>288</ele>
        <time>2017-04-29T09:23:24Z</time>
      </trkpt>
      <trkpt lat="45.89748" lon="4.97116">
        <ele>288</ele>
        <time>2017-04-29T09:23:25Z</time>
      </trkpt>
      <trkpt lat="45.89751" lon="4.97122">
        <ele>286</ele>
        <time>2017-04-29T09:23:26Z</time>
      </trkpt>
      <trkpt lat="45.89754" lon="4.97128">
        <ele>286</ele>
        <time>2017-04-29T09:23:27Z</time>
      </trkpt>
      <trkpt lat="45.89757" lon="4.97135">
        <ele>286</ele>
        <time>2017-04-29T09:23:28Z</time>
      </trkpt>
      <trkpt lat="45.8976" lon="4.97141">
        <ele>286</ele>
        <time>2017-04-29T09:23:29Z</time>
      </trkpt>
      <trkpt lat="45.89763" lon="4.97148">
        <ele>286</ele>
        <time>2017-04-29T09:23:30Z</time>
      </trkpt>
      <trkpt lat="45.89766" lon="4.97154">
        <ele>286</ele>
        <time>2017-04-29T09:23:31Z</time>
      </trkpt>
      <trkpt lat="45.89769" lon="4.9716">
        <ele>286</ele>
        <time>2017-04-29T09:23:32Z</time>
      </trkpt>
      <trkpt lat="45.89772" lon="4.97166">
        <ele>286</ele>
        <time>2017-04-29T09:23:33Z</time>
      </trkpt>
      <trkpt lat="45.89775" lon="4.97172">
        <ele>286</ele>
        <time>2017-04-29T09:23:34Z</time>
      </trkpt>
      <trkpt lat="45.89778" lon="4.97179">
        <ele>286</ele>
        <time>2017-04-29T09:23:35Z</time>
      </trkpt>
      <trkpt lat="45.89781" lon="4.97185">
        <ele>286</ele>
        <time>2017-04-29T09:23:36Z</time>
      </trkpt>
      <trkpt lat="45.89785" lon="4.97191">
        <ele>286</ele>
        <time>2017-04-29T09:23:37Z</time>
      </trkpt>
      <trkpt lat="45.89788" lon="4.97197">
        <ele>286</ele>
        <time>2017-04-29T09:23:38Z</time>
      </trkpt>
      <trkpt lat="45.89791" lon="4.97204">
        <ele>286</ele>
        <time>2017-04-29T09:23:39Z</time>
      </trkpt>
      <trkpt lat="45.89794" lon="4.97212">
        <ele>286</ele>
        <time>2017-04-29T09:23:40Z</time>
      </trkpt>
      <trkpt lat="45.89796" lon="4.97221">
        <ele>286</ele>
        <time>2017-04-29T09:23:41Z</time>
      </trkpt>
      <trkpt lat="45.89797" lon="4.9723">
        <ele>286</ele>
        <time>2017-04-29T09:23:42Z</time>
      </trkpt>
      <trkpt lat="45.89797" lon="4.97238">
        <ele>286</ele>
        <time>2017-04-29T09:23:43Z</time>
      </trkpt>
      <trkpt lat="45.89795" lon="4.97246">
        <ele>286</ele>
        <time>2017-04-29T09:23:44Z</time>
      </trkpt>
      <trkpt lat="45.89792" lon="4.97253">
        <ele>286</ele>
        <time>2017-04-29T09:23:45Z</time>
      </trkpt>
      <trkpt lat="45.8979" lon="4.9726">
        <ele>286</ele>
        <time>2017-04-29T09:23:46Z</time>
      </trkpt>
      <trkpt lat="45.89787" lon="4.97266">
        <ele>286</ele>
        <time>2017-04-29T09:23:47Z</time>
      </trkpt>
      <trkpt lat="45.89784" lon="4.97273">
        <ele>286</ele>
        <time>2017-04-29T09:23:48Z</time>
      </trkpt>
      <trkpt lat="45.89781" lon="4.97279">
        <ele>286</ele>
        <time>2017-04-29T09:23:49Z</time>
      </trkpt>
      <trkpt lat="45.89778" lon="4.97285">
        <ele>286</ele>
        <time>2017-04-29T09:23:50Z</time>
      </trkpt>
      <trkpt lat="45.89775" lon="4.97291">
        <ele>286</ele>
        <time>2017-04-29T09:23:51Z</time>
      </trkpt>
      <trkpt lat="45.89772" lon="4.97296">
        <ele>286</ele>
        <time>2017-04-29T09:23:52Z</time>
      </trkpt>
      <trkpt lat="45.89767" lon="4.97307">
        <ele>286</ele>
        <time>2017-04-29T09:23:54Z</time>
      </trkpt>
      <trkpt lat="45.89765" lon="4.97312">
        <ele>286</ele>
        <time>2017-04-29T09:23:55Z</time>
      </trkpt>
      <trkpt lat="45.89759" lon="4.97322">
        <ele>287</ele>
        <time>2017-04-29T09:23:57Z</time>
      </trkpt>
      <trkpt lat="45.89757" lon="4.97327">
        <ele>287</ele>
        <time>2017-04-29T09:23:58Z</time>
      </trkpt>
      <trkpt lat="45.89752" lon="4.97337">
        <ele>287</ele>
        <time>2017-04-29T09:24:00Z</time>
      </trkpt>
      <trkpt lat="45.8975" lon="4.97342">
        <ele>287</ele>
        <time>2017-04-29T09:24:01Z</time>
      </trkpt>
      <trkpt lat="45.89747" lon="4.97347">
        <ele>287</ele>
        <time>2017-04-29T09:24:02Z</time>
      </trkpt>
      <trkpt lat="45.89745" lon="4.97354">
        <ele>287</ele>
        <time>2017-04-29T09:24:03Z</time>
      </trkpt>
      <trkpt lat="45.89742" lon="4.9736">
        <ele>287</ele>
        <time>2017-04-29T09:24:04Z</time>
      </trkpt>
      <trkpt lat="45.89739" lon="4.97367">
        <ele>287</ele>
        <time>2017-04-29T09:24:05Z</time>
      </trkpt>
      <trkpt lat="45.89736" lon="4.97374">
        <ele>287</ele>
        <time>2017-04-29T09:24:06Z</time>
      </trkpt>
      <trkpt lat="45.89733" lon="4.97381">
        <ele>287</ele>
        <time>2017-04-29T09:24:07Z</time>
      </trkpt>
      <trkpt lat="45.8973" lon="4.97389">
        <ele>287</ele>
        <time>2017-04-29T09:24:08Z</time>
      </trkpt>
      <trkpt lat="45.89727" lon="4.97396">
        <ele>287</ele>
        <time>2017-04-29T09:24:09Z</time>
      </trkpt>
      <trkpt lat="45.89724" lon="4.97404">
        <ele>288</ele>
        <time>2017-04-29T09:24:10Z</time>
      </trkpt>
      <trkpt lat="45.89722" lon="4.97411">
        <ele>288</ele>
        <time>2017-04-29T09:24:11Z</time>
      </trkpt>
      <trkpt lat="45.89719" lon="4.97418">
        <ele>287</ele>
        <time>2017-04-29T09:24:12Z</time>
      </trkpt>
      <trkpt lat="45.89717" lon="4.97425">
        <ele>287</ele>
        <time>2017-04-29T09:24:13Z</time>
      </trkpt>
      <trkpt lat="45.89714" lon="4.97432">
        <ele>287</ele>
        <time>2017-04-29T09:24:14Z</time>
      </trkpt>
      <trkpt lat="45.89713" lon="4.9744">
        <ele>287</ele>
        <time>2017-04-29T09:24:15Z</time>
      </trkpt>
      <trkpt lat="45.89712" lon="4.97447">
        <ele>287</ele>
        <time>2017-04-29T09:24:16Z</time>
      </trkpt>
      <trkpt lat="45.89711" lon="4.97454">
        <ele>287</ele>
        <time>2017-04-29T09:24:17Z</time>
      </trkpt>
      <trkpt lat="45.89711" lon="4.9746">
        <ele>287</ele>
        <time>2017-04-29T09:24:18Z</time>
      </trkpt>
      <trkpt lat="45.8971" lon="4.97468">
        <ele>287</ele>
        <time>2017-04-29T09:24:19Z</time>
      </trkpt>
      <trkpt lat="45.89709" lon="4.97475">
        <ele>287</ele>
        <time>2017-04-29T09:24:20Z</time>
      </trkpt>
      <trkpt lat="45.89707" lon="4.97482">
        <ele>287</ele>
        <time>2017-04-29T09:24:21Z</time>
      </trkpt>
      <trkpt lat="45.89705" lon="4.9749">
        <ele>287</ele>
        <time>2017-04-29T09:24:22Z</time>
      </trkpt>
      <trkpt lat="45.89703" lon="4.97498">
        <ele>287</ele>
        <time>2017-04-29T09:24:23Z</time>
      </trkpt>
      <trkpt lat="45.89701" lon="4.97506">
        <ele>285</ele>
        <time>2017-04-29T09:24:24Z</time>
      </trkpt>
      <trkpt lat="45.89699" lon="4.97514">
        <ele>285</ele>
        <time>2017-04-29T09:24:25Z</time>
      </trkpt>
      <trkpt lat="45.89698" lon="4.97522">
        <ele>285</ele>
        <time>2017-04-29T09:24:26Z</time>
      </trkpt>
      <trkpt lat="45.89697" lon="4.97532">
        <ele>284</ele>
        <time>2017-04-29T09:24:27Z</time>
      </trkpt>
      <trkpt lat="45.89695" lon="4.97543">
        <ele>284</ele>
        <time>2017-04-29T09:24:28Z</time>
      </trkpt>
      <trkpt lat="45.89694" lon="4.97553">
        <ele>284</ele>
        <time>2017-04-29T09:24:29Z</time>
      </trkpt>
      <trkpt lat="45.89692" lon="4.97564">
        <ele>284</ele>
        <time>2017-04-29T09:24:30Z</time>
      </trkpt>
      <trkpt lat="45.89689" lon="4.97575">
        <ele>284</ele>
        <time>2017-04-29T09:24:31Z</time>
      </trkpt>
      <trkpt lat="45.89687" lon="4.97587">
        <ele>282</ele>
        <time>2017-04-29T09:24:32Z</time>
      </trkpt>
      <trkpt lat="45.89685" lon="4.97599">
        <ele>282</ele>
        <time>2017-04-29T09:24:33Z</time>
      </trkpt>
      <trkpt lat="45.89683" lon="4.97611">
        <ele>282</ele>
        <time>2017-04-29T09:24:34Z</time>
      </trkpt>
      <trkpt lat="45.89681" lon="4.97623">
        <ele>281</ele>
        <time>2017-04-29T09:24:35Z</time>
      </trkpt>
      <trkpt lat="45.89679" lon="4.97636">
        <ele>281</ele>
        <time>2017-04-29T09:24:36Z</time>
      </trkpt>
      <trkpt lat="45.89677" lon="4.97649">
        <ele>281</ele>
        <time>2017-04-29T09:24:37Z</time>
      </trkpt>
      <trkpt lat="45.89675" lon="4.97661">
        <ele>280</ele>
        <time>2017-04-29T09:24:38Z</time>
      </trkpt>
      <trkpt lat="45.89673" lon="4.97673">
        <ele>280</ele>
        <time>2017-04-29T09:24:39Z</time>
      </trkpt>
      <trkpt lat="45.8967" lon="4.97685">
        <ele>280</ele>
        <time>2017-04-29T09:24:40Z</time>
      </trkpt>
      <trkpt lat="45.89668" lon="4.97696">
        <ele>280</ele>
        <time>2017-04-29T09:24:41Z</time>
      </trkpt>
      <trkpt lat="45.89666" lon="4.97708">
        <ele>280</ele>
        <time>2017-04-29T09:24:42Z</time>
      </trkpt>
      <trkpt lat="45.89664" lon="4.97719">
        <ele>280</ele>
        <time>2017-04-29T09:24:43Z</time>
      </trkpt>
      <trkpt lat="45.89663" lon="4.9773">
        <ele>280</ele>
        <time>2017-04-29T09:24:44Z</time>
      </trkpt>
      <trkpt lat="45.89663" lon="4.9774">
        <ele>280</ele>
        <time>2017-04-29T09:24:45Z</time>
      </trkpt>
      <trkpt lat="45.89665" lon="4.9775">
        <ele>280</ele>
        <time>2017-04-29T09:24:46Z</time>
      </trkpt>
      <trkpt lat="45.89669" lon="4.97759">
        <ele>280</ele>
        <time>2017-04-29T09:24:47Z</time>
      </trkpt>
      <trkpt lat="45.89673" lon="4.97766">
        <ele>280</ele>
        <time>2017-04-29T09:24:48Z</time>
      </trkpt>
      <trkpt lat="45.89679" lon="4.97772">
        <ele>280</ele>
        <time>2017-04-29T09:24:49Z</time>
      </trkpt>
      <trkpt lat="45.89685" lon="4.97778">
        <ele>280</ele>
        <time>2017-04-29T09:24:50Z</time>
      </trkpt>
      <trkpt lat="45.8969" lon="4.97782">
        <ele>280</ele>
        <time>2017-04-29T09:24:51Z</time>
      </trkpt>
      <trkpt lat="45.89696" lon="4.97787">
        <ele>280</ele>
        <time>2017-04-29T09:24:52Z</time>
      </trkpt>
      <trkpt lat="45.89702" lon="4.97791">
        <ele>280</ele>
        <time>2017-04-29T09:24:53Z</time>
      </trkpt>
      <trkpt lat="45.89707" lon="4.97796">
        <ele>280</ele>
        <time>2017-04-29T09:24:54Z</time>
      </trkpt>
      <trkpt lat="45.89712" lon="4.978">
        <ele>279</ele>
        <time>2017-04-29T09:24:55Z</time>
      </trkpt>
      <trkpt lat="45.89718" lon="4.97804">
        <ele>279</ele>
        <time>2017-04-29T09:24:56Z</time>
      </trkpt>
      <trkpt lat="45.89723" lon="4.97808">
        <ele>279</ele>
        <time>2017-04-29T09:24:57Z</time>
      </trkpt>
      <trkpt lat="45.89728" lon="4.97812">
        <ele>279</ele>
        <time>2017-04-29T09:24:58Z</time>
      </trkpt>
      <trkpt lat="45.89733" lon="4.97816">
        <ele>279</ele>
        <time>2017-04-29T09:24:59Z</time>
      </trkpt>
      <trkpt lat="45.89739" lon="4.9782">
        <ele>279</ele>
        <time>2017-04-29T09:25:00Z</time>
      </trkpt>
      <trkpt lat="45.89744" lon="4.97824">
        <ele>279</ele>
        <time>2017-04-29T09:25:01Z</time>
      </trkpt>
      <trkpt lat="45.89749" lon="4.97828">
        <ele>278</ele>
        <time>2017-04-29T09:25:02Z</time>
      </trkpt>
      <trkpt lat="45.89754" lon="4.97832">
        <ele>278</ele>
        <time>2017-04-29T09:25:03Z</time>
      </trkpt>
      <trkpt lat="45.89759" lon="4.97835">
        <ele>278</ele>
        <time>2017-04-29T09:25:04Z</time>
      </trkpt>
      <trkpt lat="45.89764" lon="4.97839">
        <ele>278</ele>
        <time>2017-04-29T09:25:05Z</time>
      </trkpt>
      <trkpt lat="45.89769" lon="4.97843">
        <ele>278</ele>
        <time>2017-04-29T09:25:06Z</time>
      </trkpt>
      <trkpt lat="45.89774" lon="4.97846">
        <ele>278</ele>
        <time>2017-04-29T09:25:07Z</time>
      </trkpt>
      <trkpt lat="45.89779" lon="4.9785">
        <ele>278</ele>
        <time>2017-04-29T09:25:08Z</time>
      </trkpt>
      <trkpt lat="45.89784" lon="4.97854">
        <ele>278</ele>
        <time>2017-04-29T09:25:09Z</time>
      </trkpt>
      <trkpt lat="45.8979" lon="4.97858">
        <ele>278</ele>
        <time>2017-04-29T09:25:10Z</time>
      </trkpt>
      <trkpt lat="45.89795" lon="4.97862">
        <ele>278</ele>
        <time>2017-04-29T09:25:11Z</time>
      </trkpt>
      <trkpt lat="45.89801" lon="4.97866">
        <ele>278</ele>
        <time>2017-04-29T09:25:12Z</time>
      </trkpt>
      <trkpt lat="45.89807" lon="4.97871">
        <ele>278</ele>
        <time>2017-04-29T09:25:13Z</time>
      </trkpt>
      <trkpt lat="45.89813" lon="4.97875">
        <ele>278</ele>
        <time>2017-04-29T09:25:14Z</time>
      </trkpt>
      <trkpt lat="45.89819" lon="4.97879">
        <ele>278</ele>
        <time>2017-04-29T09:25:15Z</time>
      </trkpt>
      <trkpt lat="45.89825" lon="4.97882">
        <ele>278</ele>
        <time>2017-04-29T09:25:16Z</time>
      </trkpt>
      <trkpt lat="45.89832" lon="4.97886">
        <ele>278</ele>
        <time>2017-04-29T09:25:17Z</time>
      </trkpt>
      <trkpt lat="45.89837" lon="4.9789">
        <ele>278</ele>
        <time>2017-04-29T09:25:18Z</time>
      </trkpt>
      <trkpt lat="45.89843" lon="4.97893">
        <ele>278</ele>
        <time>2017-04-29T09:25:19Z</time>
      </trkpt>
      <trkpt lat="45.89848" lon="4.97896">
        <ele>278</ele>
        <time>2017-04-29T09:25:20Z</time>
      </trkpt>
      <trkpt lat="45.89853" lon="4.97899">
        <ele>278</ele>
        <time>2017-04-29T09:25:21Z</time>
      </trkpt>
      <trkpt lat="45.89858" lon="4.97903">
        <ele>278</ele>
        <time>2017-04-29T09:25:22Z</time>
      </trkpt>
      <trkpt lat="45.89863" lon="4.97906">
        <ele>278</ele>
        <time>2017-04-29T09:25:23Z</time>
      </trkpt>
      <trkpt lat="45.89867" lon="4.97909">
        <ele>278</ele>
        <time>2017-04-29T09:25:24Z</time>
      </trkpt>
      <trkpt lat="45.89872" lon="4.97911">
        <ele>278</ele>
        <time>2017-04-29T09:25:25Z</time>
      </trkpt>
      <trkpt lat="45.89876" lon="4.97914">
        <ele>278</ele>
        <time>2017-04-29T09:25:26Z</time>
      </trkpt>
      <trkpt lat="45.89881" lon="4.97916">
        <ele>278</ele>
        <time>2017-04-29T09:25:27Z</time>
      </trkpt>
      <trkpt lat="45.89885" lon="4.97918">
        <ele>278</ele>
        <time>2017-04-29T09:25:28Z</time>
      </trkpt>
      <trkpt lat="45.89889" lon="4.9792">
        <ele>278</ele>
        <time>2017-04-29T09:25:29Z</time>
      </trkpt>
      <trkpt lat="45.89894" lon="4.97922">
        <ele>278</ele>
        <time>2017-04-29T09:25:30Z</time>
      </trkpt>
      <trkpt lat="45.89899" lon="4.97924">
        <ele>278</ele>
        <time>2017-04-29T09:25:31Z</time>
      </trkpt>
      <trkpt lat="45.89904" lon="4.97926">
        <ele>278</ele>
        <time>2017-04-29T09:25:32Z</time>
      </trkpt>
      <trkpt lat="45.8991" lon="4.97928">
        <ele>278</ele>
        <time>2017-04-29T09:25:33Z</time>
      </trkpt>
      <trkpt lat="45.89915" lon="4.9793">
        <ele>278</ele>
        <time>2017-04-29T09:25:34Z</time>
      </trkpt>
      <trkpt lat="45.89921" lon="4.97932">
        <ele>278</ele>
        <time>2017-04-29T09:25:35Z</time>
      </trkpt>
      <trkpt lat="45.89927" lon="4.97933">
        <ele>278</ele>
        <time>2017-04-29T09:25:36Z</time>
      </trkpt>
      <trkpt lat="45.89932" lon="4.97935">
        <ele>278</ele>
        <time>2017-04-29T09:25:37Z</time>
      </trkpt>
      <trkpt lat="45.89938" lon="4.97935">
        <ele>278</ele>
        <time>2017-04-29T09:25:38Z</time>
      </trkpt>
      <trkpt lat="45.89944" lon="4.97936">
        <ele>278</ele>
        <time>2017-04-29T09:25:39Z</time>
      </trkpt>
      <trkpt lat="45.89949" lon="4.97936">
        <ele>278</ele>
        <time>2017-04-29T09:25:40Z</time>
      </trkpt>
      <trkpt lat="45.89955" lon="4.97936">
        <ele>278</ele>
        <time>2017-04-29T09:25:41Z</time>
      </trkpt>
      <trkpt lat="45.8996" lon="4.97935">
        <ele>278</ele>
        <time>2017-04-29T09:25:42Z</time>
      </trkpt>
      <trkpt lat="45.89965" lon="4.97933">
        <ele>278</ele>
        <time>2017-04-29T09:25:43Z</time>
      </trkpt>
      <trkpt lat="45.8997" lon="4.97931">
        <ele>278</ele>
        <time>2017-04-29T09:25:44Z</time>
      </trkpt>
      <trkpt lat="45.89975" lon="4.97929">
        <ele>278</ele>
        <time>2017-04-29T09:25:45Z</time>
      </trkpt>
      <trkpt lat="45.89979" lon="4.97927">
        <ele>278</ele>
        <time>2017-04-29T09:25:46Z</time>
      </trkpt>
      <trkpt lat="45.89984" lon="4.97925">
        <ele>278</ele>
        <time>2017-04-29T09:25:47Z</time>
      </trkpt>
      <trkpt lat="45.89988" lon="4.97923">
        <ele>278</ele>
        <time>2017-04-29T09:25:48Z</time>
      </trkpt>
      <trkpt lat="45.89993" lon="4.9792">
        <ele>278</ele>
        <time>2017-04-29T09:25:49Z</time>
      </trkpt>
      <trkpt lat="45.9" lon="4.97917">
        <ele>278</ele>
        <time>2017-04-29T09:25:51Z</time>
      </trkpt>
      <trkpt lat="45.90004" lon="4.97915">
        <ele>278</ele>
        <time>2017-04-29T09:25:52Z</time>
      </trkpt>
      <trkpt lat="45.90011" lon="4.97913">
        <ele>278</ele>
        <time>2017-04-29T09:25:54Z</time>
      </trkpt>
      <trkpt lat="45.90014" lon="4.97912">
        <ele>278</ele>
        <time>2017-04-29T09:25:55Z</time>
      </trkpt>
      <trkpt lat="45.90022" lon="4.97911">
        <ele>279</ele>
        <time>2017-04-29T09:25:57Z</time>
      </trkpt>
      <trkpt lat="45.90024" lon="4.9791">
        <ele>279</ele>
        <time>2017-04-29T09:25:58Z</time>
      </trkpt>
      <trkpt lat="45.90031" lon="4.97906">
        <ele>279</ele>
        <time>2017-04-29T09:26:01Z</time>
      </trkpt>
      <trkpt lat="45.90033" lon="4.97905">
        <ele>279</ele>
        <time>2017-04-29T09:26:02Z</time>
      </trkpt>
      <trkpt lat="45.90037" lon="4.97904">
        <ele>279</ele>
        <time>2017-04-29T09:26:04Z</time>
      </trkpt>
      <trkpt lat="45.90037" lon="4.97903">
        <ele>279</ele>
        <time>2017-04-29T09:26:05Z</time>
      </trkpt>
      <trkpt lat="45.90038" lon="4.97902">
        <ele>279</ele>
        <time>2017-04-29T09:27:38Z</time>
      </trkpt>
      <trkpt lat="45.9004" lon="4.97898">
        <ele>279</ele>
        <time>2017-04-29T09:27:39Z</time>
      </trkpt>
      <trkpt lat="45.90048" lon="4.97896">
        <ele>279</ele>
        <time>2017-04-29T09:27:49Z</time>
      </trkpt>
      <trkpt lat="45.90049" lon="4.97895">
        <ele>279</ele>
        <time>2017-04-29T09:27:50Z</time>
      </trkpt>
      <trkpt lat="45.90057" lon="4.97894">
        <ele>279</ele>
        <time>2017-04-29T09:27:59Z</time>
      </trkpt>
      <trkpt lat="45.90058" lon="4.97893">
        <ele>279</ele>
        <time>2017-04-29T09:28:00Z</time>
      </trkpt>
      <trkpt lat="45.90067" lon="4.97891">
        <ele>279</ele>
        <time>2017-04-29T09:28:14Z</time>
      </trkpt>
      <trkpt lat="45.90068" lon="4.9789">
        <ele>279</ele>
        <time>2017-04-29T09:28:15Z</time>
      </trkpt>
      <trkpt lat="45.90076" lon="4.97887">
        <ele>279</ele>
        <time>2017-04-29T09:28:26Z</time>
      </trkpt>
      <trkpt lat="45.90077" lon="4.97887">
        <ele>279</ele>
        <time>2017-04-29T09:28:27Z</time>
      </trkpt>
      <trkpt lat="45.90069" lon="4.97891">
        <ele>279</ele>
        <time>2017-04-29T09:29:40Z</time>
      </trkpt>
      <trkpt lat="45.90068" lon="4.97891">
        <ele>279</ele>
        <time>2017-04-29T09:29:41Z</time>
      </trkpt>
      <trkpt lat="45.9006" lon="4.97894">
        <ele>279</ele>
        <time>2017-04-29T09:29:53Z</time>
      </trkpt>
      <trkpt lat="45.90059" lon="4.97895">
        <ele>279</ele>
        <time>2017-04-29T09:29:54Z</time>
      </trkpt>
      <trkpt lat="45.90065" lon="4.97889">
        <ele>279</ele>
        <time>2017-04-29T09:30:17Z</time>
      </trkpt>
      <trkpt lat="45.90068" lon="4.97888">
        <ele>279</ele>
        <time>2017-04-29T09:30:18Z</time>
      </trkpt>
      <trkpt lat="45.90075" lon="4.97884">
        <ele>279</ele>
        <time>2017-04-29T09:30:21Z</time>
      </trkpt>
      <trkpt lat="45.90077" lon="4.97884">
        <ele>279</ele>
        <time>2017-04-29T09:30:22Z</time>
      </trkpt>
      <trkpt lat="45.90084" lon="4.97883">
        <ele>280</ele>
        <time>2017-04-29T09:32:13Z</time>
      </trkpt>
      <trkpt lat="45.90087" lon="4.97881">
        <ele>280</ele>
        <time>2017-04-29T09:32:14Z</time>
      </trkpt>
      <trkpt lat="45.90093" lon="4.97879">
        <ele>280</ele>
        <time>2017-04-29T09:32:16Z</time>
      </trkpt>
      <trkpt lat="45.90096" lon="4.97878">
        <ele>280</ele>
        <time>2017-04-29T09:32:17Z</time>
      </trkpt>
      <trkpt lat="45.90103" lon="4.97876">
        <ele>280</ele>
        <time>2017-04-29T09:32:19Z</time>
      </trkpt>
      <trkpt lat="45.90106" lon="4.97874">
        <ele>280</ele>
        <time>2017-04-29T09:32:20Z</time>
      </trkpt>
      <trkpt lat="45.90113" lon="4.97871">
        <ele>280</ele>
        <time>2017-04-29T09:32:22Z</time>
      </trkpt>
      <trkpt lat="45.90116" lon="4.9787">
        <ele>280</ele>
        <time>2017-04-29T09:32:23Z</time>
      </trkpt>
      <trkpt lat="45.90123" lon="4.97868">
        <ele>280</ele>
        <time>2017-04-29T09:32:25Z</time>
      </trkpt>
      <trkpt lat="45.90126" lon="4.97867">
        <ele>280</ele>
        <time>2017-04-29T09:32:26Z</time>
      </trkpt>
      <trkpt lat="45.90133" lon="4.97865">
        <ele>280</ele>
        <time>2017-04-29T09:32:29Z</time>
      </trkpt>
      <trkpt lat="45.90135" lon="4.97864">
        <ele>280</ele>
        <time>2017-04-29T09:32:30Z</time>
      </trkpt>
      <trkpt lat="45.90136" lon="4.97863">
        <ele>280</ele>
        <time>2017-04-29T09:32:31Z</time>
      </trkpt>
      <trkpt lat="45.90137" lon="4.97863">
        <ele>280</ele>
        <time>2017-04-29T09:32:32Z</time>
      </trkpt>
      <trkpt lat="45.90138" lon="4.97863">
        <ele>280</ele>
        <time>2017-04-29T09:32:41Z</time>
      </trkpt>
      <trkpt lat="45.90136" lon="4.97863">
        <ele>280</ele>
        <time>2017-04-29T09:32:42Z</time>
      </trkpt>
      <trkpt lat="45.90129" lon="4.97867">
        <ele>280</ele>
        <time>2017-04-29T09:32:51Z</time>
      </trkpt>
      <trkpt lat="45.90126" lon="4.97868">
        <ele>280</ele>
        <time>2017-04-29T09:32:52Z</time>
      </trkpt>
      <trkpt lat="45.90118" lon="4.97871">
        <ele>280</ele>
        <time>2017-04-29T09:32:55Z</time>
      </trkpt>
      <trkpt lat="45.90115" lon="4.97872">
        <ele>280</ele>
        <time>2017-04-29T09:32:56Z</time>
      </trkpt>
      <trkpt lat="45.90108" lon="4.97875">
        <ele>280</ele>
        <time>2017-04-29T09:32:58Z</time>
      </trkpt>
      <trkpt lat="45.90104" lon="4.97877">
        <ele>280</ele>
        <time>2017-04-29T09:32:59Z</time>
      </trkpt>
      <trkpt lat="45.90098" lon="4.9788">
        <ele>280</ele>
        <time>2017-04-29T09:33:01Z</time>
      </trkpt>
      <trkpt lat="45.90094" lon="4.97881">
        <ele>280</ele>
        <time>2017-04-29T09:33:02Z</time>
      </trkpt>
      <trkpt lat="45.90088" lon="4.97885">
        <ele>280</ele>
        <time>2017-04-29T09:34:14Z</time>
      </trkpt>
      <trkpt lat="45.90085" lon="4.97887">
        <ele>280</ele>
        <time>2017-04-29T09:34:15Z</time>
      </trkpt>
      <trkpt lat="45.90076" lon="4.9789">
        <ele>279</ele>
        <time>2017-04-29T09:34:17Z</time>
      </trkpt>
      <trkpt lat="45.90072" lon="4.97892">
        <ele>279</ele>
        <time>2017-04-29T09:34:18Z</time>
      </trkpt>
      <trkpt lat="45.90066" lon="4.97895">
        <ele>279</ele>
        <time>2017-04-29T09:34:20Z</time>
      </trkpt>
      <trkpt lat="45.90062" lon="4.97896">
        <ele>279</ele>
        <time>2017-04-29T09:34:21Z</time>
      </trkpt>
      <trkpt lat="45.90055" lon="4.979">
        <ele>279</ele>
        <time>2017-04-29T09:34:23Z</time>
      </trkpt>
      <trkpt lat="45.90053" lon="4.97902">
        <ele>279</ele>
        <time>2017-04-29T09:34:24Z</time>
      </trkpt>
      <trkpt lat="45.90048" lon="4.97909">
        <ele>279</ele>
        <time>2017-04-29T09:34:26Z</time>
      </trkpt>
      <trkpt lat="45.90047" lon="4.97913">
        <ele>279</ele>
        <time>2017-04-29T09:34:27Z</time>
      </trkpt>
      <trkpt lat="45.90045" lon="4.97922">
        <ele>279</ele>
        <time>2017-04-29T09:34:29Z</time>
      </trkpt>
      <trkpt lat="45.90045" lon="4.97927">
        <ele>279</ele>
        <time>2017-04-29T09:34:30Z</time>
      </trkpt>
      <trkpt lat="45.90045" lon="4.97937">
        <ele>279</ele>
        <time>2017-04-29T09:34:32Z</time>
      </trkpt>
      <trkpt lat="45.90045" lon="4.97942">
        <ele>279</ele>
        <time>2017-04-29T09:34:33Z</time>
      </trkpt>
      <trkpt lat="45.90045" lon="4.97954">
        <ele>279</ele>
        <time>2017-04-29T09:34:35Z</time>
      </trkpt>
      <trkpt lat="45.90045" lon="4.97961">
        <ele>279</ele>
        <time>2017-04-29T09:34:36Z</time>
      </trkpt>
      <trkpt lat="45.90044" lon="4.97968">
        <ele>278</ele>
        <time>2017-04-29T09:34:37Z</time>
      </trkpt>
      <trkpt lat="45.90044" lon="4.97974">
        <ele>278</ele>
        <time>2017-04-29T09:34:38Z</time>
      </trkpt>
      <trkpt lat="45.90044" lon="4.97981">
        <ele>278</ele>
        <time>2017-04-29T09:34:39Z</time>
      </trkpt>
      <trkpt lat="45.90044" lon="4.97988">
        <ele>278</ele>
        <time>2017-04-29T09:34:40Z</time>
      </trkpt>
      <trkpt lat="45.90044" lon="4.97995">
        <ele>278</ele>
        <time>2017-04-29T09:34:41Z</time>
      </trkpt>
      <trkpt lat="45.90044" lon="4.98003">
        <ele>278</ele>
        <time>2017-04-29T09:34:42Z</time>
      </trkpt>
      <trkpt lat="45.90044" lon="4.9801">
        <ele>278</ele>
        <time>2017-04-29T09:34:43Z</time>
      </trkpt>
      <trkpt lat="45.90045" lon="4.98017">
        <ele>278</ele>
        <time>2017-04-29T09:34:44Z</time>
      </trkpt>
      <trkpt lat="45.90045" lon="4.98025">
        <ele>278</ele>
        <time>2017-04-29T09:34:45Z</time>
      </trkpt>
      <trkpt lat="45.90046" lon="4.98032">
        <ele>278</ele>
        <time>2017-04-29T09:34:46Z</time>
      </trkpt>
      <trkpt lat="45.90046" lon="4.98044">
        <ele>279</ele>
        <time>2017-04-29T09:34:48Z</time>
      </trkpt>
      <trkpt lat="45.90046" lon="4.9805">
        <ele>279</ele>
        <time>2017-04-29T09:34:49Z</time>
      </trkpt>
      <trkpt lat="45.90046" lon="4.98063">
        <ele>279</ele>
        <time>2017-04-29T09:34:51Z</time>
      </trkpt>
      <trkpt lat="45.90047" lon="4.98069">
        <ele>279</ele>
        <time>2017-04-29T09:34:52Z</time>
      </trkpt>
      <trkpt lat="45.90048" lon="4.98082">
        <ele>279</ele>
        <time>2017-04-29T09:34:54Z</time>
      </trkpt>
      <trkpt lat="45.90048" lon="4.98088">
        <ele>279</ele>
        <time>2017-04-29T09:34:55Z</time>
      </trkpt>
      <trkpt lat="45.90049" lon="4.981">
        <ele>279</ele>
        <time>2017-04-29T09:34:57Z</time>
      </trkpt>
      <trkpt lat="45.90049" lon="4.98107">
        <ele>279</ele>
        <time>2017-04-29T09:34:58Z</time>
      </trkpt>
      <trkpt lat="45.9005" lon="4.98119">
        <ele>279</ele>
        <time>2017-04-29T09:35:00Z</time>
      </trkpt>
      <trkpt lat="45.9005" lon="4.98126">
        <ele>279</ele>
        <time>2017-04-29T09:35:01Z</time>
      </trkpt>
      <trkpt lat="45.9005" lon="4.98132">
        <ele>279</ele>
        <time>2017-04-29T09:35:02Z</time>
      </trkpt>
      <trkpt lat="45.90051" lon="4.98139">
        <ele>279</ele>
        <time>2017-04-29T09:35:03Z</time>
      </trkpt>
      <trkpt lat="45.90051" lon="4.98146">
        <ele>279</ele>
        <time>2017-04-29T09:35:04Z</time>
      </trkpt>
      <trkpt lat="45.90052" lon="4.98153">
        <ele>279</ele>
        <time>2017-04-29T09:35:05Z</time>
      </trkpt>
      <trkpt lat="45.90052" lon="4.9816">
        <ele>279</ele>
        <time>2017-04-29T09:35:06Z</time>
      </trkpt>
      <trkpt lat="45.90053" lon="4.98167">
        <ele>279</ele>
        <time>2017-04-29T09:35:07Z</time>
      </trkpt>
      <trkpt lat="45.90054" lon="4.98179">
        <ele>280</ele>
        <time>2017-04-29T09:35:09Z</time>
      </trkpt>
      <trkpt lat="45.90054" lon="4.98185">
        <ele>280</ele>
        <time>2017-04-29T09:35:10Z</time>
      </trkpt>
      <trkpt lat="45.90055" lon="4.98196">
        <ele>280</ele>
        <time>2017-04-29T09:35:12Z</time>
      </trkpt>
      <trkpt lat="45.90055" lon="4.98202">
        <ele>280</ele>
        <time>2017-04-29T09:35:13Z</time>
      </trkpt>
      <trkpt lat="45.90056" lon="4.98215">
        <ele>280</ele>
        <time>2017-04-29T09:35:15Z</time>
      </trkpt>
      <trkpt lat="45.90056" lon="4.98221">
        <ele>280</ele>
        <time>2017-04-29T09:35:16Z</time>
      </trkpt>
      <trkpt lat="45.90057" lon="4.98228">
        <ele>280</ele>
        <time>2017-04-29T09:35:17Z</time>
      </trkpt>
      <trkpt lat="45.90057" lon="4.98234">
        <ele>280</ele>
        <time>2017-04-29T09:35:18Z</time>
      </trkpt>
      <trkpt lat="45.90057" lon="4.98241">
        <ele>280</ele>
        <time>2017-04-29T09:35:19Z</time>
      </trkpt>
      <trkpt lat="45.90058" lon="4.98247">
        <ele>280</ele>
        <time>2017-04-29T09:35:20Z</time>
      </trkpt>
      <trkpt lat="45.90059" lon="4.9826">
        <ele>281</ele>
        <time>2017-04-29T09:35:22Z</time>
      </trkpt>
      <trkpt lat="45.90059" lon="4.98266">
        <ele>281</ele>
        <time>2017-04-29T09:35:23Z</time>
      </trkpt>
      <trkpt lat="45.9006" lon="4.98278">
        <ele>281</ele>
        <time>2017-04-29T09:35:25Z</time>
      </trkpt>
      <trkpt lat="45.9006" lon="4.98285">
        <ele>281</ele>
        <time>2017-04-29T09:35:26Z</time>
      </trkpt>
      <trkpt lat="45.9006" lon="4.98292">
        <ele>281</ele>
        <time>2017-04-29T09:35:27Z</time>
      </trkpt>
      <trkpt lat="45.90061" lon="4.98299">
        <ele>281</ele>
        <time>2017-04-29T09:35:28Z</time>
      </trkpt>
      <trkpt lat="45.90061" lon="4.98305">
        <ele>281</ele>
        <time>2017-04-29T09:35:29Z</time>
      </trkpt>
      <trkpt lat="45.90062" lon="4.98312">
        <ele>281</ele>
        <time>2017-04-29T09:35:30Z</time>
      </trkpt>
      <trkpt lat="45.90062" lon="4.98319">
        <ele>281</ele>
        <time>2017-04-29T09:35:31Z</time>
      </trkpt>
      <trkpt lat="45.90063" lon="4.98326">
        <ele>281</ele>
        <time>2017-04-29T09:35:32Z</time>
      </trkpt>
      <trkpt lat="45.90063" lon="4.98332">
        <ele>281</ele>
        <time>2017-04-29T09:35:33Z</time>
      </trkpt>
      <trkpt lat="45.90064" lon="4.98339">
        <ele>282</ele>
        <time>2017-04-29T09:35:34Z</time>
      </trkpt>
      <trkpt lat="45.90064" lon="4.98345">
        <ele>282</ele>
        <time>2017-04-29T09:35:35Z</time>
      </trkpt>
      <trkpt lat="45.90065" lon="4.98351">
        <ele>282</ele>
        <time>2017-04-29T09:35:36Z</time>
      </trkpt>
      <trkpt lat="45.90066" lon="4.98364">
        <ele>282</ele>
        <time>2017-04-29T09:35:38Z</time>
      </trkpt>
      <trkpt lat="45.90066" lon="4.9837">
        <ele>282</ele>
        <time>2017-04-29T09:35:39Z</time>
      </trkpt>
      <trkpt lat="45.90068" lon="4.98383">
        <ele>282</ele>
        <time>2017-04-29T09:35:41Z</time>
      </trkpt>
      <trkpt lat="45.90069" lon="4.98389">
        <ele>282</ele>
        <time>2017-04-29T09:35:42Z</time>
      </trkpt>
      <trkpt lat="45.90071" lon="4.98401">
        <ele>283</ele>
        <time>2017-04-29T09:35:44Z</time>
      </trkpt>
      <trkpt lat="45.90073" lon="4.98407">
        <ele>283</ele>
        <time>2017-04-29T09:35:45Z</time>
      </trkpt>
      <trkpt lat="45.90074" lon="4.98413">
        <ele>283</ele>
        <time>2017-04-29T09:35:46Z</time>
      </trkpt>
      <trkpt lat="45.90076" lon="4.98419">
        <ele>284</ele>
        <time>2017-04-29T09:35:47Z</time>
      </trkpt>
      <trkpt lat="45.9008" lon="4.98431">
        <ele>283</ele>
        <time>2017-04-29T09:35:49Z</time>
      </trkpt>
      <trkpt lat="45.90082" lon="4.98436">
        <ele>283</ele>
        <time>2017-04-29T09:35:50Z</time>
      </trkpt>
      <trkpt lat="45.90085" lon="4.98447">
        <ele>283</ele>
        <time>2017-04-29T09:35:52Z</time>
      </trkpt>
      <trkpt lat="45.90087" lon="4.98453">
        <ele>283</ele>
        <time>2017-04-29T09:35:53Z</time>
      </trkpt>
      <trkpt lat="45.90089" lon="4.98459">
        <ele>283</ele>
        <time>2017-04-29T09:35:54Z</time>
      </trkpt>
      <trkpt lat="45.90091" lon="4.98465">
        <ele>283</ele>
        <time>2017-04-29T09:35:55Z</time>
      </trkpt>
      <trkpt lat="45.90094" lon="4.9847">
        <ele>283</ele>
        <time>2017-04-29T09:35:56Z</time>
      </trkpt>
      <trkpt lat="45.90096" lon="4.98476">
        <ele>283</ele>
        <time>2017-04-29T09:35:57Z</time>
      </trkpt>
      <trkpt lat="45.90098" lon="4.98482">
        <ele>283</ele>
        <time>2017-04-29T09:35:58Z</time>
      </trkpt>
      <trkpt lat="45.901" lon="4.98488">
        <ele>283</ele>
        <time>2017-04-29T09:35:59Z</time>
      </trkpt>
      <trkpt lat="45.90102" lon="4.98494">
        <ele>283</ele>
        <time>2017-04-29T09:36:00Z</time>
      </trkpt>
      <trkpt lat="45.90104" lon="4.98501">
        <ele>283</ele>
        <time>2017-04-29T09:36:01Z</time>
      </trkpt>
      <trkpt lat="45.90106" lon="4.98507">
        <ele>283</ele>
        <time>2017-04-29T09:36:02Z</time>
      </trkpt>
      <trkpt lat="45.90109" lon="4.98514">
        <ele>283</ele>
        <time>2017-04-29T09:36:03Z</time>
      </trkpt>
      <trkpt lat="45.90111" lon="4.98521">
        <ele>283</ele>
        <time>2017-04-29T09:36:04Z</time>
      </trkpt>
      <trkpt lat="45.90113" lon="4.98527">
        <ele>283</ele>
        <time>2017-04-29T09:36:05Z</time>
      </trkpt>
      <trkpt lat="45.90116" lon="4.98534">
        <ele>283</ele>
        <time>2017-04-29T09:36:06Z</time>
      </trkpt>
      <trkpt lat="45.90118" lon="4.98541">
        <ele>282</ele>
        <time>2017-04-29T09:36:07Z</time>
      </trkpt>
      <trkpt lat="45.9012" lon="4.98547">
        <ele>282</ele>
        <time>2017-04-29T09:36:08Z</time>
      </trkpt>
      <trkpt lat="45.90123" lon="4.98554">
        <ele>282</ele>
        <time>2017-04-29T09:36:09Z</time>
      </trkpt>
      <trkpt lat="45.90125" lon="4.98561">
        <ele>282</ele>
        <time>2017-04-29T09:36:10Z</time>
      </trkpt>
      <trkpt lat="45.90127" lon="4.98567">
        <ele>282</ele>
        <time>2017-04-29T09:36:11Z</time>
      </trkpt>
      <trkpt lat="45.9013" lon="4.98574">
        <ele>282</ele>
        <time>2017-04-29T09:36:12Z</time>
      </trkpt>
      <trkpt lat="45.90132" lon="4.9858">
        <ele>282</ele>
        <time>2017-04-29T09:36:13Z</time>
      </trkpt>
      <trkpt lat="45.90134" lon="4.98587">
        <ele>282</ele>
        <time>2017-04-29T09:36:14Z</time>
      </trkpt>
      <trkpt lat="45.90137" lon="4.98593">
        <ele>282</ele>
        <time>2017-04-29T09:36:15Z</time>
      </trkpt>
      <trkpt lat="45.90139" lon="4.98599">
        <ele>282</ele>
        <time>2017-04-29T09:36:16Z</time>
      </trkpt>
      <trkpt lat="45.90141" lon="4.98605">
        <ele>282</ele>
        <time>2017-04-29T09:36:17Z</time>
      </trkpt>
      <trkpt lat="45.90143" lon="4.98611">
        <ele>282</ele>
        <time>2017-04-29T09:36:18Z</time>
      </trkpt>
      <trkpt lat="45.90146" lon="4.98617">
        <ele>282</ele>
        <time>2017-04-29T09:36:19Z</time>
      </trkpt>
      <trkpt lat="45.90148" lon="4.98623">
        <ele>282</ele>
        <time>2017-04-29T09:36:20Z</time>
      </trkpt>
      <trkpt lat="45.9015" lon="4.9863">
        <ele>282</ele>
        <time>2017-04-29T09:36:21Z</time>
      </trkpt>
      <trkpt lat="45.90152" lon="4.98636">
        <ele>282</ele>
        <time>2017-04-29T09:36:22Z</time>
      </trkpt>
      <trkpt lat="45.90155" lon="4.98642">
        <ele>282</ele>
        <time>2017-04-29T09:36:23Z</time>
      </trkpt>
      <trkpt lat="45.90157" lon="4.98648">
        <ele>282</ele>
        <time>2017-04-29T09:36:24Z</time>
      </trkpt>
      <trkpt lat="45.90159" lon="4.98655">
        <ele>282</ele>
        <time>2017-04-29T09:36:25Z</time>
      </trkpt>
      <trkpt lat="45.90162" lon="4.98661">
        <ele>282</ele>
        <time>2017-04-29T09:36:26Z</time>
      </trkpt>
      <trkpt lat="45.90164" lon="4.98669">
        <ele>282</ele>
        <time>2017-04-29T09:36:27Z</time>
      </trkpt>
      <trkpt lat="45.90167" lon="4.98676">
        <ele>282</ele>
        <time>2017-04-29T09:36:28Z</time>
      </trkpt>
      <trkpt lat="45.9017" lon="4.98684">
        <ele>282</ele>
        <time>2017-04-29T09:36:29Z</time>
      </trkpt>
      <trkpt lat="45.90173" lon="4.98691">
        <ele>282</ele>
        <time>2017-04-29T09:36:30Z</time>
      </trkpt>
      <trkpt lat="45.90175" lon="4.98699">
        <ele>281</ele>
        <time>2017-04-29T09:36:31Z</time>
      </trkpt>
      <trkpt lat="45.90178" lon="4.98706">
        <ele>281</ele>
        <time>2017-04-29T09:36:32Z</time>
      </trkpt>
      <trkpt lat="45.9018" lon="4.98714">
        <ele>281</ele>
        <time>2017-04-29T09:36:33Z</time>
      </trkpt>
      <trkpt lat="45.90183" lon="4.98722">
        <ele>281</ele>
        <time>2017-04-29T09:36:34Z</time>
      </trkpt>
      <trkpt lat="45.90185" lon="4.9873">
        <ele>281</ele>
        <time>2017-04-29T09:36:35Z</time>
      </trkpt>
      <trkpt lat="45.90188" lon="4.98738">
        <ele>281</ele>
        <time>2017-04-29T09:36:36Z</time>
      </trkpt>
      <trkpt lat="45.90191" lon="4.98746">
        <ele>281</ele>
        <time>2017-04-29T09:36:37Z</time>
      </trkpt>
      <trkpt lat="45.90193" lon="4.98754">
        <ele>281</ele>
        <time>2017-04-29T09:36:38Z</time>
      </trkpt>
      <trkpt lat="45.90196" lon="4.98762">
        <ele>281</ele>
        <time>2017-04-29T09:36:39Z</time>
      </trkpt>
      <trkpt lat="45.90198" lon="4.9877">
        <ele>281</ele>
        <time>2017-04-29T09:36:40Z</time>
      </trkpt>
      <trkpt lat="45.902" lon="4.98778">
        <ele>281</ele>
        <time>2017-04-29T09:36:41Z</time>
      </trkpt>
      <trkpt lat="45.90202" lon="4.98785">
        <ele>281</ele>
        <time>2017-04-29T09:36:42Z</time>
      </trkpt>
      <trkpt lat="45.90204" lon="4.98793">
        <ele>281</ele>
        <time>2017-04-29T09:36:43Z</time>
      </trkpt>
      <trkpt lat="45.90207" lon="4.98801">
        <ele>281</ele>
        <time>2017-04-29T09:36:44Z</time>
      </trkpt>
      <trkpt lat="45.90209" lon="4.98808">
        <ele>281</ele>
        <time>2017-04-29T09:36:45Z</time>
      </trkpt>
      <trkpt lat="45.90211" lon="4.98815">
        <ele>281</ele>
        <time>2017-04-29T09:36:46Z</time>
      </trkpt>
      <trkpt lat="45.90213" lon="4.98823">
        <ele>281</ele>
        <time>2017-04-29T09:36:47Z</time>
      </trkpt>
      <trkpt lat="45.90215" lon="4.98831">
        <ele>281</ele>
        <time>2017-04-29T09:36:48Z</time>
      </trkpt>
      <trkpt lat="45.90216" lon="4.98838">
        <ele>281</ele>
        <time>2017-04-29T09:36:49Z</time>
      </trkpt>
      <trkpt lat="45.90218" lon="4.98846">
        <ele>281</ele>
        <time>2017-04-29T09:36:50Z</time>
      </trkpt>
      <trkpt lat="45.90219" lon="4.98853">
        <ele>281</ele>
        <time>2017-04-29T09:36:51Z</time>
      </trkpt>
      <trkpt lat="45.9022" lon="4.9886">
        <ele>281</ele>
        <time>2017-04-29T09:36:52Z</time>
      </trkpt>
      <trkpt lat="45.9022" lon="4.98867">
        <ele>281</ele>
        <time>2017-04-29T09:36:53Z</time>
      </trkpt>
      <trkpt lat="45.90221" lon="4.98875">
        <ele>281</ele>
        <time>2017-04-29T09:36:54Z</time>
      </trkpt>
      <trkpt lat="45.90221" lon="4.98883">
        <ele>281</ele>
        <time>2017-04-29T09:36:55Z</time>
      </trkpt>
      <trkpt lat="45.90221" lon="4.98892">
        <ele>281</ele>
        <time>2017-04-29T09:36:56Z</time>
      </trkpt>
      <trkpt lat="45.90221" lon="4.98901">
        <ele>281</ele>
        <time>2017-04-29T09:36:57Z</time>
      </trkpt>
      <trkpt lat="45.90222" lon="4.9891">
        <ele>281</ele>
        <time>2017-04-29T09:36:58Z</time>
      </trkpt>
      <trkpt lat="45.90222" lon="4.98918">
        <ele>280</ele>
        <time>2017-04-29T09:36:59Z</time>
      </trkpt>
      <trkpt lat="45.90222" lon="4.98927">
        <ele>280</ele>
        <time>2017-04-29T09:37:00Z</time>
      </trkpt>
      <trkpt lat="45.90222" lon="4.98935">
        <ele>280</ele>
        <time>2017-04-29T09:37:01Z</time>
      </trkpt>
      <trkpt lat="45.90223" lon="4.98944">
        <ele>280</ele>
        <time>2017-04-29T09:37:02Z</time>
      </trkpt>
      <trkpt lat="45.90223" lon="4.98952">
        <ele>280</ele>
        <time>2017-04-29T09:37:03Z</time>
      </trkpt>
      <trkpt lat="45.90223" lon="4.9896">
        <ele>280</ele>
        <time>2017-04-29T09:37:04Z</time>
      </trkpt>
      <trkpt lat="45.90224" lon="4.98967">
        <ele>280</ele>
        <time>2017-04-29T09:37:05Z</time>
      </trkpt>
      <trkpt lat="45.90224" lon="4.98975">
        <ele>280</ele>
        <time>2017-04-29T09:37:06Z</time>
      </trkpt>
      <trkpt lat="45.90224" lon="4.98982">
        <ele>280</ele>
        <time>2017-04-29T09:37:07Z</time>
      </trkpt>
      <trkpt lat="45.90225" lon="4.9899">
        <ele>280</ele>
        <time>2017-04-29T09:37:08Z</time>
      </trkpt>
      <trkpt lat="45.90225" lon="4.98997">
        <ele>280</ele>
        <time>2017-04-29T09:37:09Z</time>
      </trkpt>
      <trkpt lat="45.90225" lon="4.99005">
        <ele>280</ele>
        <time>2017-04-29T09:37:10Z</time>
      </trkpt>
      <trkpt lat="45.90225" lon="4.99014">
        <ele>280</ele>
        <time>2017-04-29T09:37:11Z</time>
      </trkpt>
      <trkpt lat="45.90226" lon="4.99022">
        <ele>280</ele>
        <time>2017-04-29T09:37:12Z</time>
      </trkpt>
      <trkpt lat="45.90226" lon="4.99031">
        <ele>280</ele>
        <time>2017-04-29T09:37:13Z</time>
      </trkpt>
      <trkpt lat="45.90226" lon="4.9904">
        <ele>280</ele>
        <time>2017-04-29T09:37:14Z</time>
      </trkpt>
      <trkpt lat="45.90227" lon="4.99048">
        <ele>280</ele>
        <time>2017-04-29T09:37:15Z</time>
      </trkpt>
      <trkpt lat="45.90227" lon="4.99057">
        <ele>280</ele>
        <time>2017-04-29T09:37:16Z</time>
      </trkpt>
      <trkpt lat="45.90227" lon="4.99066">
        <ele>281</ele>
        <time>2017-04-29T09:37:17Z</time>
      </trkpt>
      <trkpt lat="45.90228" lon="4.99074">
        <ele>281</ele>
        <time>2017-04-29T09:37:18Z</time>
      </trkpt>
      <trkpt lat="45.90228" lon="4.99082">
        <ele>281</ele>
        <time>2017-04-29T09:37:19Z</time>
      </trkpt>
      <trkpt lat="45.90228" lon="4.99089">
        <ele>281</ele>
        <time>2017-04-29T09:37:20Z</time>
      </trkpt>
      <trkpt lat="45.90228" lon="4.99097">
        <ele>281</ele>
        <time>2017-04-29T09:37:21Z</time>
      </trkpt>
      <trkpt lat="45.90229" lon="4.99103">
        <ele>281</ele>
        <time>2017-04-29T09:37:22Z</time>
      </trkpt>
      <trkpt lat="45.90229" lon="4.9911">
        <ele>281</ele>
        <time>2017-04-29T09:37:23Z</time>
      </trkpt>
      <trkpt lat="45.90229" lon="4.99117">
        <ele>281</ele>
        <time>2017-04-29T09:37:24Z</time>
      </trkpt>
      <trkpt lat="45.9023" lon="4.99124">
        <ele>281</ele>
        <time>2017-04-29T09:37:25Z</time>
      </trkpt>
      <trkpt lat="45.9023" lon="4.99131">
        <ele>280</ele>
        <time>2017-04-29T09:37:26Z</time>
      </trkpt>
      <trkpt lat="45.9023" lon="4.99139">
        <ele>280</ele>
        <time>2017-04-29T09:37:27Z</time>
      </trkpt>
      <trkpt lat="45.9023" lon="4.99146">
        <ele>280</ele>
        <time>2017-04-29T09:37:28Z</time>
      </trkpt>
      <trkpt lat="45.90231" lon="4.99154">
        <ele>280</ele>
        <time>2017-04-29T09:37:29Z</time>
      </trkpt>
      <trkpt lat="45.90231" lon="4.99161">
        <ele>280</ele>
        <time>2017-04-29T09:37:30Z</time>
      </trkpt>
      <trkpt lat="45.90231" lon="4.99169">
        <ele>280</ele>
        <time>2017-04-29T09:37:31Z</time>
      </trkpt>
      <trkpt lat="45.90232" lon="4.99176">
        <ele>280</ele>
        <time>2017-04-29T09:37:32Z</time>
      </trkpt>
      <trkpt lat="45.90232" lon="4.99183">
        <ele>280</ele>
        <time>2017-04-29T09:37:33Z</time>
      </trkpt>
      <trkpt lat="45.90232" lon="4.99191">
        <ele>280</ele>
        <time>2017-04-29T09:37:34Z</time>
      </trkpt>
      <trkpt lat="45.90232" lon="4.99198">
        <ele>280</ele>
        <time>2017-04-29T09:37:35Z</time>
      </trkpt>
      <trkpt lat="45.90233" lon="4.99206">
        <ele>280</ele>
        <time>2017-04-29T09:37:36Z</time>
      </trkpt>
      <trkpt lat="45.90233" lon="4.99213">
        <ele>281</ele>
        <time>2017-04-29T09:37:37Z</time>
      </trkpt>
      <trkpt lat="45.90233" lon="4.99221">
        <ele>281</ele>
        <time>2017-04-29T09:37:38Z</time>
      </trkpt>
      <trkpt lat="45.90234" lon="4.99228">
        <ele>281</ele>
        <time>2017-04-29T09:37:39Z</time>
      </trkpt>
      <trkpt lat="45.90234" lon="4.99236">
        <ele>281</ele>
        <time>2017-04-29T09:37:40Z</time>
      </trkpt>
      <trkpt lat="45.90235" lon="4.99243">
        <ele>281</ele>
        <time>2017-04-29T09:37:41Z</time>
      </trkpt>
      <trkpt lat="45.90235" lon="4.9925">
        <ele>281</ele>
        <time>2017-04-29T09:37:42Z</time>
      </trkpt>
      <trkpt lat="45.90235" lon="4.99257">
        <ele>281</ele>
        <time>2017-04-29T09:37:43Z</time>
      </trkpt>
      <trkpt lat="45.90235" lon="4.99264">
        <ele>281</ele>
        <time>2017-04-29T09:37:44Z</time>
      </trkpt>
      <trkpt lat="45.90235" lon="4.9927">
        <ele>281</ele>
        <time>2017-04-29T09:37:45Z</time>
      </trkpt>
      <trkpt lat="45.90235" lon="4.99277">
        <ele>281</ele>
        <time>2017-04-29T09:37:46Z</time>
      </trkpt>
      <trkpt lat="45.90235" lon="4.99284">
        <ele>281</ele>
        <time>2017-04-29T09:37:47Z</time>
      </trkpt>
      <trkpt lat="45.90235" lon="4.99292">
        <ele>281</ele>
        <time>2017-04-29T09:37:48Z</time>
      </trkpt>
      <trkpt lat="45.90235" lon="4.993">
        <ele>281</ele>
        <time>2017-04-29T09:37:49Z</time>
      </trkpt>
      <trkpt lat="45.90234" lon="4.99307">
        <ele>281</ele>
        <time>2017-04-29T09:37:50Z</time>
      </trkpt>
      <trkpt lat="45.90234" lon="4.99315">
        <ele>281</ele>
        <time>2017-04-29T09:37:51Z</time>
      </trkpt>
      <trkpt lat="45.90234" lon="4.99323">
        <ele>281</ele>
        <time>2017-04-29T09:37:52Z</time>
      </trkpt>
      <trkpt lat="45.90234" lon="4.99331">
        <ele>282</ele>
        <time>2017-04-29T09:37:53Z</time>
      </trkpt>
      <trkpt lat="45.90234" lon="4.99339">
        <ele>282</ele>
        <time>2017-04-29T09:37:54Z</time>
      </trkpt>
      <trkpt lat="45.90233" lon="4.99346">
        <ele>282</ele>
        <time>2017-04-29T09:37:55Z</time>
      </trkpt>
      <trkpt lat="45.90233" lon="4.99354">
        <ele>282</ele>
        <time>2017-04-29T09:37:56Z</time>
      </trkpt>
      <trkpt lat="45.90233" lon="4.99361">
        <ele>282</ele>
        <time>2017-04-29T09:37:57Z</time>
      </trkpt>
      <trkpt lat="45.90232" lon="4.99368">
        <ele>282</ele>
        <time>2017-04-29T09:37:58Z</time>
      </trkpt>
      <trkpt lat="45.90232" lon="4.99375">
        <ele>282</ele>
        <time>2017-04-29T09:37:59Z</time>
      </trkpt>
      <trkpt lat="45.90231" lon="4.99387">
        <ele>283</ele>
        <time>2017-04-29T09:38:01Z</time>
      </trkpt>
      <trkpt lat="45.90231" lon="4.99392">
        <ele>283</ele>
        <time>2017-04-29T09:38:02Z</time>
      </trkpt>
      <trkpt lat="45.9023" lon="4.99405">
        <ele>283</ele>
        <time>2017-04-29T09:38:04Z</time>
      </trkpt>
      <trkpt lat="45.9023" lon="4.99411">
        <ele>283</ele>
        <time>2017-04-29T09:38:05Z</time>
      </trkpt>
      <trkpt lat="45.90229" lon="4.99418">
        <ele>284</ele>
        <time>2017-04-29T09:38:06Z</time>
      </trkpt>
      <trkpt lat="45.90228" lon="4.99424">
        <ele>284</ele>
        <time>2017-04-29T09:38:07Z</time>
      </trkpt>
      <trkpt lat="45.90227" lon="4.99437">
        <ele>284</ele>
        <time>2017-04-29T09:38:09Z</time>
      </trkpt>
      <trkpt lat="45.90227" lon="4.99443">
        <ele>284</ele>
        <time>2017-04-29T09:38:10Z</time>
      </trkpt>
      <trkpt lat="45.90226" lon="4.99456">
        <ele>284</ele>
        <time>2017-04-29T09:38:12Z</time>
      </trkpt>
      <trkpt lat="45.90225" lon="4.99461">
        <ele>284</ele>
        <time>2017-04-29T09:38:13Z</time>
      </trkpt>
      <trkpt lat="45.90223" lon="4.99473">
        <ele>284</ele>
        <time>2017-04-29T09:38:15Z</time>
      </trkpt>
      <trkpt lat="45.90222" lon="4.99478">
        <ele>284</ele>
        <time>2017-04-29T09:38:16Z</time>
      </trkpt>
      <trkpt lat="45.90221" lon="4.99489">
        <ele>284</ele>
        <time>2017-04-29T09:38:18Z</time>
      </trkpt>
      <trkpt lat="45.9022" lon="4.99494">
        <ele>284</ele>
        <time>2017-04-29T09:38:19Z</time>
      </trkpt>
      <trkpt lat="45.90217" lon="4.99504">
        <ele>285</ele>
        <time>2017-04-29T09:38:21Z</time>
      </trkpt>
      <trkpt lat="45.90216" lon="4.99509">
        <ele>285</ele>
        <time>2017-04-29T09:38:22Z</time>
      </trkpt>
      <trkpt lat="45.90214" lon="4.99521">
        <ele>285</ele>
        <time>2017-04-29T09:38:24Z</time>
      </trkpt>
      <trkpt lat="45.90213" lon="4.99527">
        <ele>285</ele>
        <time>2017-04-29T09:38:25Z</time>
      </trkpt>
      <trkpt lat="45.90212" lon="4.99533">
        <ele>285</ele>
        <time>2017-04-29T09:38:26Z</time>
      </trkpt>
      <trkpt lat="45.90211" lon="4.9954">
        <ele>285</ele>
        <time>2017-04-29T09:38:27Z</time>
      </trkpt>
      <trkpt lat="45.90209" lon="4.99551">
        <ele>285</ele>
        <time>2017-04-29T09:38:29Z</time>
      </trkpt>
      <trkpt lat="45.90208" lon="4.99557">
        <ele>285</ele>
        <time>2017-04-29T09:38:30Z</time>
      </trkpt>
      <trkpt lat="45.90208" lon="4.99569">
        <ele>285</ele>
        <time>2017-04-29T09:38:32Z</time>
      </trkpt>
      <trkpt lat="45.90207" lon="4.99574">
        <ele>286</ele>
        <time>2017-04-29T09:38:33Z</time>
      </trkpt>
      <trkpt lat="45.90207" lon="4.99587">
        <ele>287</ele>
        <time>2017-04-29T09:38:35Z</time>
      </trkpt>
      <trkpt lat="45.90207" lon="4.99593">
        <ele>287</ele>
        <time>2017-04-29T09:38:36Z</time>
      </trkpt>
      <trkpt lat="45.90207" lon="4.99605">
        <ele>287</ele>
        <time>2017-04-29T09:38:38Z</time>
      </trkpt>
      <trkpt lat="45.90207" lon="4.99611">
        <ele>287</ele>
        <time>2017-04-29T09:38:39Z</time>
      </trkpt>
      <trkpt lat="45.90208" lon="4.99622">
        <ele>287</ele>
        <time>2017-04-29T09:38:41Z</time>
      </trkpt>
      <trkpt lat="45.90209" lon="4.99627">
        <ele>287</ele>
        <time>2017-04-29T09:38:42Z</time>
      </trkpt>
      <trkpt lat="45.90211" lon="4.99638">
        <ele>287</ele>
        <time>2017-04-29T09:38:44Z</time>
      </trkpt>
      <trkpt lat="45.90212" lon="4.99644">
        <ele>287</ele>
        <time>2017-04-29T09:38:45Z</time>
      </trkpt>
      <trkpt lat="45.90213" lon="4.99655">
        <ele>287</ele>
        <time>2017-04-29T09:38:47Z</time>
      </trkpt>
      <trkpt lat="45.90215" lon="4.99661">
        <ele>287</ele>
        <time>2017-04-29T09:38:48Z</time>
      </trkpt>
      <trkpt lat="45.90217" lon="4.99673">
        <ele>288</ele>
        <time>2017-04-29T09:38:50Z</time>
      </trkpt>
      <trkpt lat="45.90219" lon="4.99679">
        <ele>288</ele>
        <time>2017-04-29T09:38:51Z</time>
      </trkpt>
      <trkpt lat="45.90221" lon="4.99691">
        <ele>288</ele>
        <time>2017-04-29T09:38:53Z</time>
      </trkpt>
      <trkpt lat="45.90222" lon="4.99697">
        <ele>288</ele>
        <time>2017-04-29T09:38:54Z</time>
      </trkpt>
      <trkpt lat="45.90225" lon="4.99709">
        <ele>288</ele>
        <time>2017-04-29T09:38:56Z</time>
      </trkpt>
      <trkpt lat="45.90226" lon="4.99715">
        <ele>288</ele>
        <time>2017-04-29T09:38:57Z</time>
      </trkpt>
      <trkpt lat="45.90226" lon="4.99727">
        <ele>288</ele>
        <time>2017-04-29T09:38:59Z</time>
      </trkpt>
      <trkpt lat="45.90227" lon="4.99733">
        <ele>288</ele>
        <time>2017-04-29T09:39:00Z</time>
      </trkpt>
      <trkpt lat="45.90227" lon="4.99744">
        <ele>288</ele>
        <time>2017-04-29T09:39:02Z</time>
      </trkpt>
      <trkpt lat="45.90228" lon="4.9975">
        <ele>288</ele>
        <time>2017-04-29T09:39:03Z</time>
      </trkpt>
      <trkpt lat="45.90229" lon="4.99762">
        <ele>288</ele>
        <time>2017-04-29T09:39:05Z</time>
      </trkpt>
      <trkpt lat="45.9023" lon="4.99768">
        <ele>288</ele>
        <time>2017-04-29T09:39:06Z</time>
      </trkpt>
      <trkpt lat="45.90232" lon="4.9978">
        <ele>288</ele>
        <time>2017-04-29T09:39:08Z</time>
      </trkpt>
      <trkpt lat="45.90232" lon="4.99786">
        <ele>287</ele>
        <time>2017-04-29T09:39:09Z</time>
      </trkpt>
      <trkpt lat="45.90234" lon="4.99798">
        <ele>287</ele>
        <time>2017-04-29T09:39:11Z</time>
      </trkpt>
      <trkpt lat="45.90234" lon="4.99804">
        <ele>287</ele>
        <time>2017-04-29T09:39:12Z</time>
      </trkpt>
      <trkpt lat="45.90235" lon="4.9981">
        <ele>287</ele>
        <time>2017-04-29T09:39:13Z</time>
      </trkpt>
      <trkpt lat="45.90236" lon="4.99817">
        <ele>287</ele>
        <time>2017-04-29T09:39:14Z</time>
      </trkpt>
      <trkpt lat="45.90237" lon="4.99823">
        <ele>287</ele>
        <time>2017-04-29T09:39:15Z</time>
      </trkpt>
      <trkpt lat="45.90238" lon="4.9983">
        <ele>287</ele>
        <time>2017-04-29T09:39:16Z</time>
      </trkpt>
      <trkpt lat="45.9024" lon="4.99842">
        <ele>287</ele>
        <time>2017-04-29T09:39:18Z</time>
      </trkpt>
      <trkpt lat="45.90243" lon="4.99848">
        <ele>287</ele>
        <time>2017-04-29T09:39:19Z</time>
      </trkpt>
      <trkpt lat="45.90246" lon="4.99854">
        <ele>287</ele>
        <time>2017-04-29T09:39:20Z</time>
      </trkpt>
      <trkpt lat="45.90248" lon="4.99861">
        <ele>287</ele>
        <time>2017-04-29T09:39:21Z</time>
      </trkpt>
      <trkpt lat="45.90251" lon="4.99868">
        <ele>285</ele>
        <time>2017-04-29T09:39:22Z</time>
      </trkpt>
      <trkpt lat="45.90254" lon="4.99875">
        <ele>285</ele>
        <time>2017-04-29T09:39:23Z</time>
      </trkpt>
      <trkpt lat="45.90257" lon="4.99884">
        <ele>285</ele>
        <time>2017-04-29T09:39:24Z</time>
      </trkpt>
      <trkpt lat="45.90258" lon="4.99893">
        <ele>285</ele>
        <time>2017-04-29T09:39:25Z</time>
      </trkpt>
      <trkpt lat="45.90258" lon="4.99903">
        <ele>285</ele>
        <time>2017-04-29T09:39:26Z</time>
      </trkpt>
      <trkpt lat="45.90257" lon="4.99913">
        <ele>286</ele>
        <time>2017-04-29T09:39:27Z</time>
      </trkpt>
      <trkpt lat="45.90257" lon="4.99922">
        <ele>286</ele>
        <time>2017-04-29T09:39:28Z</time>
      </trkpt>
      <trkpt lat="45.90255" lon="4.99932">
        <ele>285</ele>
        <time>2017-04-29T09:39:29Z</time>
      </trkpt>
      <trkpt lat="45.90254" lon="4.99942">
        <ele>285</ele>
        <time>2017-04-29T09:39:30Z</time>
      </trkpt>
      <trkpt lat="45.90253" lon="4.99951">
        <ele>284</ele>
        <time>2017-04-29T09:39:31Z</time>
      </trkpt>
      <trkpt lat="45.90253" lon="4.9996">
        <ele>284</ele>
        <time>2017-04-29T09:39:32Z</time>
      </trkpt>
      <trkpt lat="45.90252" lon="4.9997">
        <ele>284</ele>
        <time>2017-04-29T09:39:33Z</time>
      </trkpt>
      <trkpt lat="45.90251" lon="4.9998">
        <ele>284</ele>
        <time>2017-04-29T09:39:34Z</time>
      </trkpt>
      <trkpt lat="45.9025" lon="4.99989">
        <ele>284</ele>
        <time>2017-04-29T09:39:35Z</time>
      </trkpt>
      <trkpt lat="45.9025" lon="4.99999">
        <ele>285</ele>
        <time>2017-04-29T09:39:36Z</time>
      </trkpt>
      <trkpt lat="45.90249" lon="5.00009">
        <ele>285</ele>
        <time>2017-04-29T09:39:37Z</time>
      </trkpt>
      <trkpt lat="45.90248" lon="5.0002">
        <ele>284</ele>
        <time>2017-04-29T09:39:38Z</time>
      </trkpt>
      <trkpt lat="45.90247" lon="5.0003">
        <ele>284</ele>
        <time>2017-04-29T09:39:39Z</time>
      </trkpt>
      <trkpt lat="45.90247" lon="5.00041">
        <ele>284</ele>
        <time>2017-04-29T09:39:40Z</time>
      </trkpt>
      <trkpt lat="45.90247" lon="5.00051">
        <ele>283</ele>
        <time>2017-04-29T09:39:41Z</time>
      </trkpt>
      <trkpt lat="45.90247" lon="5.00061">
        <ele>283</ele>
        <time>2017-04-29T09:39:42Z</time>
      </trkpt>
      <trkpt lat="45.90246" lon="5.00071">
        <ele>283</ele>
        <time>2017-04-29T09:39:43Z</time>
      </trkpt>
      <trkpt lat="45.90245" lon="5.00081">
        <ele>282</ele>
        <time>2017-04-29T09:39:44Z</time>
      </trkpt>
      <trkpt lat="45.90243" lon="5.00092">
        <ele>281</ele>
        <time>2017-04-29T09:39:45Z</time>
      </trkpt>
      <trkpt lat="45.90242" lon="5.00102">
        <ele>281</ele>
        <time>2017-04-29T09:39:46Z</time>
      </trkpt>
      <trkpt lat="45.90241" lon="5.00113">
        <ele>280</ele>
        <time>2017-04-29T09:39:47Z</time>
      </trkpt>
      <trkpt lat="45.9024" lon="5.00123">
        <ele>280</ele>
        <time>2017-04-29T09:39:48Z</time>
      </trkpt>
      <trkpt lat="45.9024" lon="5.00134">
        <ele>279</ele>
        <time>2017-04-29T09:39:49Z</time>
      </trkpt>
      <trkpt lat="45.90239" lon="5.00144">
        <ele>279</ele>
        <time>2017-04-29T09:39:50Z</time>
      </trkpt>
      <trkpt lat="45.90238" lon="5.00155">
        <ele>279</ele>
        <time>2017-04-29T09:39:51Z</time>
      </trkpt>
      <trkpt lat="45.90237" lon="5.00166">
        <ele>279</ele>
        <time>2017-04-29T09:39:52Z</time>
      </trkpt>
      <trkpt lat="45.90236" lon="5.00177">
        <ele>278</ele>
        <time>2017-04-29T09:39:53Z</time>
      </trkpt>
      <trkpt lat="45.90235" lon="5.00187">
        <ele>277</ele>
        <time>2017-04-29T09:39:54Z</time>
      </trkpt>
      <trkpt lat="45.90234" lon="5.00198">
        <ele>277</ele>
        <time>2017-04-29T09:39:55Z</time>
      </trkpt>
      <trkpt lat="45.90233" lon="5.00209">
        <ele>277</ele>
        <time>2017-04-29T09:39:56Z</time>
      </trkpt>
      <trkpt lat="45.90232" lon="5.0022">
        <ele>277</ele>
        <time>2017-04-29T09:39:57Z</time>
      </trkpt>
      <trkpt lat="45.90231" lon="5.0023">
        <ele>277</ele>
        <time>2017-04-29T09:39:58Z</time>
      </trkpt>
      <trkpt lat="45.9023" lon="5.00241">
        <ele>277</ele>
        <time>2017-04-29T09:39:59Z</time>
      </trkpt>
      <trkpt lat="45.90229" lon="5.00251">
        <ele>277</ele>
        <time>2017-04-29T09:40:00Z</time>
      </trkpt>
      <trkpt lat="45.90229" lon="5.00261">
        <ele>277</ele>
        <time>2017-04-29T09:40:01Z</time>
      </trkpt>
      <trkpt lat="45.90228" lon="5.00272">
        <ele>277</ele>
        <time>2017-04-29T09:40:02Z</time>
      </trkpt>
      <trkpt lat="45.90227" lon="5.00282">
        <ele>277</ele>
        <time>2017-04-29T09:40:03Z</time>
      </trkpt>
      <trkpt lat="45.90227" lon="5.00292">
        <ele>277</ele>
        <time>2017-04-29T09:40:04Z</time>
      </trkpt>
      <trkpt lat="45.90226" lon="5.00302">
        <ele>277</ele>
        <time>2017-04-29T09:40:05Z</time>
      </trkpt>
      <trkpt lat="45.90226" lon="5.00312">
        <ele>277</ele>
        <time>2017-04-29T09:40:06Z</time>
      </trkpt>
      <trkpt lat="45.90226" lon="5.00321">
        <ele>277</ele>
        <time>2017-04-29T09:40:07Z</time>
      </trkpt>
      <trkpt lat="45.90227" lon="5.00329">
        <ele>277</ele>
        <time>2017-04-29T09:40:08Z</time>
      </trkpt>
      <trkpt lat="45.90228" lon="5.00337">
        <ele>277</ele>
        <time>2017-04-29T09:40:09Z</time>
      </trkpt>
      <trkpt lat="45.9023" lon="5.00344">
        <ele>277</ele>
        <time>2017-04-29T09:40:10Z</time>
      </trkpt>
      <trkpt lat="45.90232" lon="5.00351">
        <ele>277</ele>
        <time>2017-04-29T09:40:11Z</time>
      </trkpt>
      <trkpt lat="45.90235" lon="5.00358">
        <ele>277</ele>
        <time>2017-04-29T09:40:12Z</time>
      </trkpt>
      <trkpt lat="45.90239" lon="5.00363">
        <ele>277</ele>
        <time>2017-04-29T09:40:13Z</time>
      </trkpt>
      <trkpt lat="45.90242" lon="5.00369">
        <ele>277</ele>
        <time>2017-04-29T09:40:14Z</time>
      </trkpt>
      <trkpt lat="45.90246" lon="5.00374">
        <ele>278</ele>
        <time>2017-04-29T09:40:15Z</time>
      </trkpt>
      <trkpt lat="45.90249" lon="5.00379">
        <ele>278</ele>
        <time>2017-04-29T09:40:16Z</time>
      </trkpt>
      <trkpt lat="45.90253" lon="5.00383">
        <ele>278</ele>
        <time>2017-04-29T09:40:17Z</time>
      </trkpt>
      <trkpt lat="45.90257" lon="5.00388">
        <ele>278</ele>
        <time>2017-04-29T09:40:18Z</time>
      </trkpt>
      <trkpt lat="45.90261" lon="5.00394">
        <ele>278</ele>
        <time>2017-04-29T09:40:19Z</time>
      </trkpt>
      <trkpt lat="45.90265" lon="5.00399">
        <ele>279</ele>
        <time>2017-04-29T09:40:20Z</time>
      </trkpt>
      <trkpt lat="45.90269" lon="5.00404">
        <ele>279</ele>
        <time>2017-04-29T09:40:21Z</time>
      </trkpt>
      <trkpt lat="45.90273" lon="5.00409">
        <ele>279</ele>
        <time>2017-04-29T09:40:22Z</time>
      </trkpt>
      <trkpt lat="45.90277" lon="5.00414">
        <ele>279</ele>
        <time>2017-04-29T09:40:23Z</time>
      </trkpt>
      <trkpt lat="45.90281" lon="5.00419">
        <ele>279</ele>
        <time>2017-04-29T09:40:24Z</time>
      </trkpt>
      <trkpt lat="45.90285" lon="5.00425">
        <ele>279</ele>
        <time>2017-04-29T09:40:25Z</time>
      </trkpt>
      <trkpt lat="45.90289" lon="5.0043">
        <ele>279</ele>
        <time>2017-04-29T09:40:26Z</time>
      </trkpt>
      <trkpt lat="45.90293" lon="5.00435">
        <ele>279</ele>
        <time>2017-04-29T09:40:27Z</time>
      </trkpt>
      <trkpt lat="45.90297" lon="5.0044">
        <ele>279</ele>
        <time>2017-04-29T09:40:28Z</time>
      </trkpt>
      <trkpt lat="45.90301" lon="5.00445">
        <ele>279</ele>
        <time>2017-04-29T09:40:29Z</time>
      </trkpt>
      <trkpt lat="45.90305" lon="5.0045">
        <ele>279</ele>
        <time>2017-04-29T09:40:30Z</time>
      </trkpt>
      <trkpt lat="45.90309" lon="5.00456">
        <ele>279</ele>
        <time>2017-04-29T09:40:31Z</time>
      </trkpt>
      <trkpt lat="45.90313" lon="5.00461">
        <ele>280</ele>
        <time>2017-04-29T09:40:32Z</time>
      </trkpt>
      <trkpt lat="45.90317" lon="5.00467">
        <ele>280</ele>
        <time>2017-04-29T09:40:33Z</time>
      </trkpt>
      <trkpt lat="45.90321" lon="5.00472">
        <ele>280</ele>
        <time>2017-04-29T09:40:34Z</time>
      </trkpt>
      <trkpt lat="45.90326" lon="5.00478">
        <ele>280</ele>
        <time>2017-04-29T09:40:35Z</time>
      </trkpt>
      <trkpt lat="45.90329" lon="5.00482">
        <ele>280</ele>
        <time>2017-04-29T09:40:36Z</time>
      </trkpt>
      <trkpt lat="45.90333" lon="5.00487">
        <ele>280</ele>
        <time>2017-04-29T09:40:37Z</time>
      </trkpt>
      <trkpt lat="45.90339" lon="5.00496">
        <ele>280</ele>
        <time>2017-04-29T09:40:39Z</time>
      </trkpt>
      <trkpt lat="45.90343" lon="5.005">
        <ele>280</ele>
        <time>2017-04-29T09:40:40Z</time>
      </trkpt>
      <trkpt lat="45.90349" lon="5.00507">
        <ele>280</ele>
        <time>2017-04-29T09:40:42Z</time>
      </trkpt>
      <trkpt lat="45.90352" lon="5.00511">
        <ele>281</ele>
        <time>2017-04-29T09:40:43Z</time>
      </trkpt>
      <trkpt lat="45.90356" lon="5.00518">
        <ele>281</ele>
        <time>2017-04-29T09:40:45Z</time>
      </trkpt>
      <trkpt lat="45.90359" lon="5.00522">
        <ele>281</ele>
        <time>2017-04-29T09:40:46Z</time>
      </trkpt>
      <trkpt lat="45.90364" lon="5.0053">
        <ele>281</ele>
        <time>2017-04-29T09:40:48Z</time>
      </trkpt>
      <trkpt lat="45.90366" lon="5.00534">
        <ele>281</ele>
        <time>2017-04-29T09:40:49Z</time>
      </trkpt>
      <trkpt lat="45.90372" lon="5.00542">
        <ele>281</ele>
        <time>2017-04-29T09:40:51Z</time>
      </trkpt>
      <trkpt lat="45.90375" lon="5.00546">
        <ele>281</ele>
        <time>2017-04-29T09:40:52Z</time>
      </trkpt>
      <trkpt lat="45.9038" lon="5.00554">
        <ele>281</ele>
        <time>2017-04-29T09:40:54Z</time>
      </trkpt>
      <trkpt lat="45.90381" lon="5.0056">
        <ele>281</ele>
        <time>2017-04-29T09:40:55Z</time>
      </trkpt>
      <trkpt lat="45.90384" lon="5.00571">
        <ele>281</ele>
        <time>2017-04-29T09:40:57Z</time>
      </trkpt>
      <trkpt lat="45.90385" lon="5.00577">
        <ele>281</ele>
        <time>2017-04-29T09:40:58Z</time>
      </trkpt>
      <trkpt lat="45.90386" lon="5.00589">
        <ele>282</ele>
        <time>2017-04-29T09:41:00Z</time>
      </trkpt>
      <trkpt lat="45.90387" lon="5.00595">
        <ele>282</ele>
        <time>2017-04-29T09:41:01Z</time>
      </trkpt>
      <trkpt lat="45.90388" lon="5.00607">
        <ele>282</ele>
        <time>2017-04-29T09:41:03Z</time>
      </trkpt>
      <trkpt lat="45.90389" lon="5.00613">
        <ele>282</ele>
        <time>2017-04-29T09:41:04Z</time>
      </trkpt>
      <trkpt lat="45.9039" lon="5.00625">
        <ele>282</ele>
        <time>2017-04-29T09:41:06Z</time>
      </trkpt>
      <trkpt lat="45.9039" lon="5.00631">
        <ele>282</ele>
        <time>2017-04-29T09:41:07Z</time>
      </trkpt>
      <trkpt lat="45.90391" lon="5.00643">
        <ele>282</ele>
        <time>2017-04-29T09:41:09Z</time>
      </trkpt>
      <trkpt lat="45.90392" lon="5.00649">
        <ele>282</ele>
        <time>2017-04-29T09:41:10Z</time>
      </trkpt>
      <trkpt lat="45.90392" lon="5.00655">
        <ele>282</ele>
        <time>2017-04-29T09:41:11Z</time>
      </trkpt>
      <trkpt lat="45.90393" lon="5.00662">
        <ele>282</ele>
        <time>2017-04-29T09:41:12Z</time>
      </trkpt>
      <trkpt lat="45.90393" lon="5.00669">
        <ele>282</ele>
        <time>2017-04-29T09:41:13Z</time>
      </trkpt>
      <trkpt lat="45.90394" lon="5.00675">
        <ele>282</ele>
        <time>2017-04-29T09:41:14Z</time>
      </trkpt>
      <trkpt lat="45.90395" lon="5.00682">
        <ele>282</ele>
        <time>2017-04-29T09:41:15Z</time>
      </trkpt>
      <trkpt lat="45.90395" lon="5.00689">
        <ele>282</ele>
        <time>2017-04-29T09:41:16Z</time>
      </trkpt>
      <trkpt lat="45.90395" lon="5.00695">
        <ele>282</ele>
        <time>2017-04-29T09:41:17Z</time>
      </trkpt>
      <trkpt lat="45.90396" lon="5.00702">
        <ele>282</ele>
        <time>2017-04-29T09:41:18Z</time>
      </trkpt>
      <trkpt lat="45.90397" lon="5.00709">
        <ele>282</ele>
        <time>2017-04-29T09:41:19Z</time>
      </trkpt>
      <trkpt lat="45.90397" lon="5.00717">
        <ele>283</ele>
        <time>2017-04-29T09:41:20Z</time>
      </trkpt>
      <trkpt lat="45.90398" lon="5.00725">
        <ele>283</ele>
        <time>2017-04-29T09:41:21Z</time>
      </trkpt>
      <trkpt lat="45.90398" lon="5.00733">
        <ele>283</ele>
        <time>2017-04-29T09:41:22Z</time>
      </trkpt>
      <trkpt lat="45.90399" lon="5.0074">
        <ele>282</ele>
        <time>2017-04-29T09:41:23Z</time>
      </trkpt>
      <trkpt lat="45.904" lon="5.00748">
        <ele>282</ele>
        <time>2017-04-29T09:41:24Z</time>
      </trkpt>
      <trkpt lat="45.904" lon="5.00756">
        <ele>283</ele>
        <time>2017-04-29T09:41:25Z</time>
      </trkpt>
      <trkpt lat="45.90401" lon="5.00763">
        <ele>283</ele>
        <time>2017-04-29T09:41:26Z</time>
      </trkpt>
      <trkpt lat="45.90401" lon="5.0077">
        <ele>283</ele>
        <time>2017-04-29T09:41:27Z</time>
      </trkpt>
      <trkpt lat="45.90402" lon="5.00777">
        <ele>283</ele>
        <time>2017-04-29T09:41:28Z</time>
      </trkpt>
      <trkpt lat="45.90403" lon="5.00784">
        <ele>283</ele>
        <time>2017-04-29T09:41:29Z</time>
      </trkpt>
      <trkpt lat="45.90404" lon="5.00791">
        <ele>283</ele>
        <time>2017-04-29T09:41:30Z</time>
      </trkpt>
      <trkpt lat="45.90404" lon="5.00797">
        <ele>283</ele>
        <time>2017-04-29T09:41:31Z</time>
      </trkpt>
      <trkpt lat="45.90405" lon="5.00804">
        <ele>283</ele>
        <time>2017-04-29T09:41:32Z</time>
      </trkpt>
      <trkpt lat="45.90405" lon="5.00811">
        <ele>283</ele>
        <time>2017-04-29T09:41:33Z</time>
      </trkpt>
      <trkpt lat="45.90406" lon="5.00818">
        <ele>283</ele>
        <time>2017-04-29T09:41:34Z</time>
      </trkpt>
      <trkpt lat="45.90407" lon="5.00826">
        <ele>283</ele>
        <time>2017-04-29T09:41:35Z</time>
      </trkpt>
      <trkpt lat="45.90407" lon="5.00833">
        <ele>283</ele>
        <time>2017-04-29T09:41:36Z</time>
      </trkpt>
      <trkpt lat="45.90408" lon="5.00841">
        <ele>283</ele>
        <time>2017-04-29T09:41:37Z</time>
      </trkpt>
      <trkpt lat="45.90408" lon="5.00849">
        <ele>284</ele>
        <time>2017-04-29T09:41:38Z</time>
      </trkpt>
      <trkpt lat="45.90409" lon="5.00856">
        <ele>284</ele>
        <time>2017-04-29T09:41:39Z</time>
      </trkpt>
      <trkpt lat="45.90409" lon="5.00864">
        <ele>284</ele>
        <time>2017-04-29T09:41:40Z</time>
      </trkpt>
      <trkpt lat="45.9041" lon="5.00871">
        <ele>284</ele>
        <time>2017-04-29T09:41:41Z</time>
      </trkpt>
      <trkpt lat="45.90411" lon="5.00878">
        <ele>284</ele>
        <time>2017-04-29T09:41:42Z</time>
      </trkpt>
      <trkpt lat="45.90412" lon="5.00885">
        <ele>284</ele>
        <time>2017-04-29T09:41:43Z</time>
      </trkpt>
      <trkpt lat="45.90412" lon="5.00892">
        <ele>284</ele>
        <time>2017-04-29T09:41:44Z</time>
      </trkpt>
      <trkpt lat="45.90413" lon="5.00899">
        <ele>284</ele>
        <time>2017-04-29T09:41:45Z</time>
      </trkpt>
      <trkpt lat="45.90413" lon="5.00906">
        <ele>283</ele>
        <time>2017-04-29T09:41:46Z</time>
      </trkpt>
      <trkpt lat="45.90413" lon="5.00913">
        <ele>283</ele>
        <time>2017-04-29T09:41:47Z</time>
      </trkpt>
      <trkpt lat="45.90414" lon="5.0092">
        <ele>283</ele>
        <time>2017-04-29T09:41:48Z</time>
      </trkpt>
      <trkpt lat="45.90415" lon="5.00927">
        <ele>283</ele>
        <time>2017-04-29T09:41:49Z</time>
      </trkpt>
      <trkpt lat="45.90415" lon="5.00935">
        <ele>284</ele>
        <time>2017-04-29T09:41:50Z</time>
      </trkpt>
      <trkpt lat="45.90416" lon="5.00943">
        <ele>284</ele>
        <time>2017-04-29T09:41:51Z</time>
      </trkpt>
      <trkpt lat="45.90417" lon="5.00951">
        <ele>282</ele>
        <time>2017-04-29T09:41:52Z</time>
      </trkpt>
      <trkpt lat="45.90418" lon="5.0096">
        <ele>282</ele>
        <time>2017-04-29T09:41:53Z</time>
      </trkpt>
      <trkpt lat="45.90419" lon="5.00969">
        <ele>282</ele>
        <time>2017-04-29T09:41:54Z</time>
      </trkpt>
      <trkpt lat="45.9042" lon="5.00977">
        <ele>282</ele>
        <time>2017-04-29T09:41:55Z</time>
      </trkpt>
      <trkpt lat="45.9042" lon="5.00986">
        <ele>282</ele>
        <time>2017-04-29T09:41:56Z</time>
      </trkpt>
      <trkpt lat="45.90421" lon="5.00995">
        <ele>282</ele>
        <time>2017-04-29T09:41:57Z</time>
      </trkpt>
      <trkpt lat="45.90422" lon="5.01003">
        <ele>282</ele>
        <time>2017-04-29T09:41:58Z</time>
      </trkpt>
      <trkpt lat="45.90423" lon="5.01012">
        <ele>282</ele>
        <time>2017-04-29T09:41:59Z</time>
      </trkpt>
      <trkpt lat="45.90423" lon="5.0102">
        <ele>282</ele>
        <time>2017-04-29T09:42:00Z</time>
      </trkpt>
      <trkpt lat="45.90424" lon="5.01028">
        <ele>282</ele>
        <time>2017-04-29T09:42:01Z</time>
      </trkpt>
      <trkpt lat="45.90425" lon="5.01036">
        <ele>282</ele>
        <time>2017-04-29T09:42:02Z</time>
      </trkpt>
      <trkpt lat="45.90425" lon="5.01044">
        <ele>282</ele>
        <time>2017-04-29T09:42:03Z</time>
      </trkpt>
      <trkpt lat="45.90426" lon="5.01051">
        <ele>282</ele>
        <time>2017-04-29T09:42:04Z</time>
      </trkpt>
      <trkpt lat="45.90427" lon="5.01059">
        <ele>282</ele>
        <time>2017-04-29T09:42:05Z</time>
      </trkpt>
      <trkpt lat="45.90427" lon="5.01067">
        <ele>282</ele>
        <time>2017-04-29T09:42:06Z</time>
      </trkpt>
      <trkpt lat="45.90428" lon="5.01075">
        <ele>282</ele>
        <time>2017-04-29T09:42:07Z</time>
      </trkpt>
      <trkpt lat="45.90428" lon="5.01082">
        <ele>282</ele>
        <time>2017-04-29T09:42:08Z</time>
      </trkpt>
      <trkpt lat="45.90429" lon="5.0109">
        <ele>282</ele>
        <time>2017-04-29T09:42:09Z</time>
      </trkpt>
      <trkpt lat="45.90429" lon="5.01098">
        <ele>282</ele>
        <time>2017-04-29T09:42:10Z</time>
      </trkpt>
      <trkpt lat="45.9043" lon="5.01106">
        <ele>282</ele>
        <time>2017-04-29T09:42:11Z</time>
      </trkpt>
      <trkpt lat="45.90431" lon="5.01114">
        <ele>282</ele>
        <time>2017-04-29T09:42:12Z</time>
      </trkpt>
      <trkpt lat="45.90432" lon="5.01122">
        <ele>282</ele>
        <time>2017-04-29T09:42:13Z</time>
      </trkpt>
      <trkpt lat="45.90432" lon="5.01131">
        <ele>282</ele>
        <time>2017-04-29T09:42:14Z</time>
      </trkpt>
      <trkpt lat="45.90433" lon="5.01139">
        <ele>282</ele>
        <time>2017-04-29T09:42:15Z</time>
      </trkpt>
      <trkpt lat="45.90433" lon="5.01148">
        <ele>282</ele>
        <time>2017-04-29T09:42:16Z</time>
      </trkpt>
      <trkpt lat="45.90434" lon="5.01156">
        <ele>282</ele>
        <time>2017-04-29T09:42:17Z</time>
      </trkpt>
      <trkpt lat="45.90435" lon="5.01165">
        <ele>282</ele>
        <time>2017-04-29T09:42:18Z</time>
      </trkpt>
      <trkpt lat="45.90436" lon="5.01174">
        <ele>282</ele>
        <time>2017-04-29T09:42:19Z</time>
      </trkpt>
      <trkpt lat="45.90436" lon="5.01183">
        <ele>282</ele>
        <time>2017-04-29T09:42:20Z</time>
      </trkpt>
      <trkpt lat="45.90437" lon="5.01193">
        <ele>282</ele>
        <time>2017-04-29T09:42:21Z</time>
      </trkpt>
      <trkpt lat="45.90438" lon="5.01202">
        <ele>281</ele>
        <time>2017-04-29T09:42:22Z</time>
      </trkpt>
      <trkpt lat="45.90439" lon="5.01212">
        <ele>281</ele>
        <time>2017-04-29T09:42:23Z</time>
      </trkpt>
      <trkpt lat="45.9044" lon="5.01222">
        <ele>281</ele>
        <time>2017-04-29T09:42:24Z</time>
      </trkpt>
      <trkpt lat="45.9044" lon="5.01231">
        <ele>282</ele>
        <time>2017-04-29T09:42:25Z</time>
      </trkpt>
      <trkpt lat="45.90441" lon="5.01241">
        <ele>282</ele>
        <time>2017-04-29T09:42:26Z</time>
      </trkpt>
      <trkpt lat="45.90442" lon="5.0125">
        <ele>281</ele>
        <time>2017-04-29T09:42:27Z</time>
      </trkpt>
      <trkpt lat="45.90443" lon="5.01259">
        <ele>281</ele>
        <time>2017-04-29T09:42:28Z</time>
      </trkpt>
      <trkpt lat="45.90444" lon="5.01268">
        <ele>281</ele>
        <time>2017-04-29T09:42:29Z</time>
      </trkpt>
      <trkpt lat="45.90444" lon="5.01277">
        <ele>281</ele>
        <time>2017-04-29T09:42:30Z</time>
      </trkpt>
      <trkpt lat="45.90445" lon="5.01285">
        <ele>281</ele>
        <time>2017-04-29T09:42:31Z</time>
      </trkpt>
      <trkpt lat="45.90446" lon="5.01294">
        <ele>281</ele>
        <time>2017-04-29T09:42:32Z</time>
      </trkpt>
      <trkpt lat="45.90446" lon="5.01302">
        <ele>281</ele>
        <time>2017-04-29T09:42:33Z</time>
      </trkpt>
      <trkpt lat="45.90447" lon="5.0131">
        <ele>281</ele>
        <time>2017-04-29T09:42:34Z</time>
      </trkpt>
      <trkpt lat="45.90448" lon="5.01318">
        <ele>281</ele>
        <time>2017-04-29T09:42:35Z</time>
      </trkpt>
      <trkpt lat="45.90448" lon="5.01326">
        <ele>281</ele>
        <time>2017-04-29T09:42:36Z</time>
      </trkpt>
      <trkpt lat="45.90449" lon="5.01333">
        <ele>281</ele>
        <time>2017-04-29T09:42:37Z</time>
      </trkpt>
      <trkpt lat="45.90449" lon="5.01341">
        <ele>281</ele>
        <time>2017-04-29T09:42:38Z</time>
      </trkpt>
      <trkpt lat="45.9045" lon="5.01349">
        <ele>281</ele>
        <time>2017-04-29T09:42:39Z</time>
      </trkpt>
      <trkpt lat="45.90451" lon="5.01356">
        <ele>281</ele>
        <time>2017-04-29T09:42:40Z</time>
      </trkpt>
      <trkpt lat="45.90452" lon="5.01364">
        <ele>281</ele>
        <time>2017-04-29T09:42:41Z</time>
      </trkpt>
      <trkpt lat="45.90452" lon="5.01372">
        <ele>281</ele>
        <time>2017-04-29T09:42:42Z</time>
      </trkpt>
      <trkpt lat="45.90453" lon="5.0138">
        <ele>281</ele>
        <time>2017-04-29T09:42:43Z</time>
      </trkpt>
      <trkpt lat="45.90454" lon="5.01387">
        <ele>281</ele>
        <time>2017-04-29T09:42:44Z</time>
      </trkpt>
      <trkpt lat="45.90454" lon="5.01395">
        <ele>281</ele>
        <time>2017-04-29T09:42:45Z</time>
      </trkpt>
      <trkpt lat="45.90455" lon="5.01402">
        <ele>281</ele>
        <time>2017-04-29T09:42:46Z</time>
      </trkpt>
      <trkpt lat="45.90456" lon="5.01409">
        <ele>281</ele>
        <time>2017-04-29T09:42:47Z</time>
      </trkpt>
      <trkpt lat="45.90456" lon="5.01416">
        <ele>281</ele>
        <time>2017-04-29T09:42:48Z</time>
      </trkpt>
      <trkpt lat="45.90457" lon="5.01423">
        <ele>282</ele>
        <time>2017-04-29T09:42:49Z</time>
      </trkpt>
      <trkpt lat="45.90457" lon="5.01431">
        <ele>282</ele>
        <time>2017-04-29T09:42:50Z</time>
      </trkpt>
      <trkpt lat="45.90458" lon="5.01439">
        <ele>282</ele>
        <time>2017-04-29T09:42:51Z</time>
      </trkpt>
      <trkpt lat="45.90458" lon="5.01447">
        <ele>282</ele>
        <time>2017-04-29T09:42:52Z</time>
      </trkpt>
      <trkpt lat="45.90459" lon="5.01455">
        <ele>282</ele>
        <time>2017-04-29T09:42:53Z</time>
      </trkpt>
      <trkpt lat="45.9046" lon="5.01464">
        <ele>282</ele>
        <time>2017-04-29T09:42:54Z</time>
      </trkpt>
      <trkpt lat="45.90461" lon="5.01473">
        <ele>282</ele>
        <time>2017-04-29T09:42:55Z</time>
      </trkpt>
      <trkpt lat="45.90461" lon="5.01481">
        <ele>282</ele>
        <time>2017-04-29T09:42:56Z</time>
      </trkpt>
      <trkpt lat="45.90462" lon="5.0149">
        <ele>282</ele>
        <time>2017-04-29T09:42:57Z</time>
      </trkpt>
      <trkpt lat="45.90463" lon="5.01499">
        <ele>282</ele>
        <time>2017-04-29T09:42:58Z</time>
      </trkpt>
      <trkpt lat="45.90464" lon="5.01508">
        <ele>283</ele>
        <time>2017-04-29T09:42:59Z</time>
      </trkpt>
      <trkpt lat="45.90465" lon="5.01516">
        <ele>283</ele>
        <time>2017-04-29T09:43:00Z</time>
      </trkpt>
      <trkpt lat="45.90465" lon="5.01523">
        <ele>283</ele>
        <time>2017-04-29T09:43:01Z</time>
      </trkpt>
      <trkpt lat="45.90466" lon="5.01531">
        <ele>283</ele>
        <time>2017-04-29T09:43:02Z</time>
      </trkpt>
      <trkpt lat="45.90467" lon="5.01543">
        <ele>283</ele>
        <time>2017-04-29T09:43:04Z</time>
      </trkpt>
      <trkpt lat="45.90467" lon="5.01549">
        <ele>283</ele>
        <time>2017-04-29T09:43:05Z</time>
      </trkpt>
      <trkpt lat="45.90468" lon="5.01561">
        <ele>283</ele>
        <time>2017-04-29T09:43:07Z</time>
      </trkpt>
      <trkpt lat="45.90468" lon="5.01567">
        <ele>283</ele>
        <time>2017-04-29T09:43:08Z</time>
      </trkpt>
      <trkpt lat="45.90468" lon="5.01577">
        <ele>284</ele>
        <time>2017-04-29T09:43:10Z</time>
      </trkpt>
      <trkpt lat="45.90467" lon="5.01581">
        <ele>284</ele>
        <time>2017-04-29T09:43:11Z</time>
      </trkpt>
      <trkpt lat="45.90469" lon="5.01592">
        <ele>285</ele>
        <time>2017-04-29T09:43:14Z</time>
      </trkpt>
      <trkpt lat="45.90472" lon="5.01594">
        <ele>285</ele>
        <time>2017-04-29T09:43:15Z</time>
      </trkpt>
      <trkpt lat="45.90478" lon="5.01594">
        <ele>285</ele>
        <time>2017-04-29T09:43:17Z</time>
      </trkpt>
      <trkpt lat="45.90482" lon="5.01592">
        <ele>285</ele>
        <time>2017-04-29T09:43:18Z</time>
      </trkpt>
      <trkpt lat="45.9049" lon="5.01588">
        <ele>285</ele>
        <time>2017-04-29T09:43:20Z</time>
      </trkpt>
      <trkpt lat="45.90495" lon="5.01586">
        <ele>285</ele>
        <time>2017-04-29T09:43:21Z</time>
      </trkpt>
      <trkpt lat="45.905" lon="5.01585">
        <ele>285</ele>
        <time>2017-04-29T09:43:22Z</time>
      </trkpt>
      <trkpt lat="45.90505" lon="5.01584">
        <ele>285</ele>
        <time>2017-04-29T09:43:23Z</time>
      </trkpt>
      <trkpt lat="45.9051" lon="5.01583">
        <ele>284</ele>
        <time>2017-04-29T09:43:24Z</time>
      </trkpt>
      <trkpt lat="45.90515" lon="5.01582">
        <ele>284</ele>
        <time>2017-04-29T09:43:25Z</time>
      </trkpt>
      <trkpt lat="45.9052" lon="5.01582">
        <ele>284</ele>
        <time>2017-04-29T09:43:26Z</time>
      </trkpt>
      <trkpt lat="45.90525" lon="5.01582">
        <ele>284</ele>
        <time>2017-04-29T09:43:27Z</time>
      </trkpt>
      <trkpt lat="45.9053" lon="5.01582">
        <ele>284</ele>
        <time>2017-04-29T09:43:28Z</time>
      </trkpt>
      <trkpt lat="45.90534" lon="5.01582">
        <ele>284</ele>
        <time>2017-04-29T09:43:29Z</time>
      </trkpt>
      <trkpt lat="45.90539" lon="5.01583">
        <ele>284</ele>
        <time>2017-04-29T09:43:30Z</time>
      </trkpt>
      <trkpt lat="45.90545" lon="5.01585">
        <ele>285</ele>
        <time>2017-04-29T09:43:31Z</time>
      </trkpt>
      <trkpt lat="45.9055" lon="5.01586">
        <ele>285</ele>
        <time>2017-04-29T09:43:32Z</time>
      </trkpt>
      <trkpt lat="45.90555" lon="5.01588">
        <ele>285</ele>
        <time>2017-04-29T09:43:33Z</time>
      </trkpt>
      <trkpt lat="45.9056" lon="5.0159">
        <ele>285</ele>
        <time>2017-04-29T09:43:34Z</time>
      </trkpt>
      <trkpt lat="45.90565" lon="5.01592">
        <ele>285</ele>
        <time>2017-04-29T09:43:35Z</time>
      </trkpt>
      <trkpt lat="45.9057" lon="5.01594">
        <ele>285</ele>
        <time>2017-04-29T09:43:36Z</time>
      </trkpt>
      <trkpt lat="45.90575" lon="5.01596">
        <ele>285</ele>
        <time>2017-04-29T09:43:37Z</time>
      </trkpt>
      <trkpt lat="45.90581" lon="5.01598">
        <ele>285</ele>
        <time>2017-04-29T09:43:38Z</time>
      </trkpt>
      <trkpt lat="45.90586" lon="5.016">
        <ele>284</ele>
        <time>2017-04-29T09:43:39Z</time>
      </trkpt>
      <trkpt lat="45.90592" lon="5.01602">
        <ele>284</ele>
        <time>2017-04-29T09:43:40Z</time>
      </trkpt>
      <trkpt lat="45.90599" lon="5.01604">
        <ele>284</ele>
        <time>2017-04-29T09:43:41Z</time>
      </trkpt>
      <trkpt lat="45.90605" lon="5.01606">
        <ele>284</ele>
        <time>2017-04-29T09:43:42Z</time>
      </trkpt>
      <trkpt lat="45.90611" lon="5.01608">
        <ele>283</ele>
        <time>2017-04-29T09:43:43Z</time>
      </trkpt>
      <trkpt lat="45.90618" lon="5.01611">
        <ele>283</ele>
        <time>2017-04-29T09:43:44Z</time>
      </trkpt>
      <trkpt lat="45.90625" lon="5.01613">
        <ele>283</ele>
        <time>2017-04-29T09:43:45Z</time>
      </trkpt>
      <trkpt lat="45.90632" lon="5.01616">
        <ele>283</ele>
        <time>2017-04-29T09:43:46Z</time>
      </trkpt>
      <trkpt lat="45.90638" lon="5.01618">
        <ele>283</ele>
        <time>2017-04-29T09:43:47Z</time>
      </trkpt>
      <trkpt lat="45.90645" lon="5.0162">
        <ele>283</ele>
        <time>2017-04-29T09:43:48Z</time>
      </trkpt>
      <trkpt lat="45.90652" lon="5.01622">
        <ele>283</ele>
        <time>2017-04-29T09:43:49Z</time>
      </trkpt>
      <trkpt lat="45.90659" lon="5.01625">
        <ele>283</ele>
        <time>2017-04-29T09:43:50Z</time>
      </trkpt>
      <trkpt lat="45.90666" lon="5.01627">
        <ele>283</ele>
        <time>2017-04-29T09:43:51Z</time>
      </trkpt>
      <trkpt lat="45.90673" lon="5.0163">
        <ele>281</ele>
        <time>2017-04-29T09:43:52Z</time>
      </trkpt>
      <trkpt lat="45.9068" lon="5.01632">
        <ele>281</ele>
        <time>2017-04-29T09:43:53Z</time>
      </trkpt>
      <trkpt lat="45.90686" lon="5.01634">
        <ele>281</ele>
        <time>2017-04-29T09:43:54Z</time>
      </trkpt>
      <trkpt lat="45.90693" lon="5.01637">
        <ele>281</ele>
        <time>2017-04-29T09:43:55Z</time>
      </trkpt>
      <trkpt lat="45.907" lon="5.01639">
        <ele>281</ele>
        <time>2017-04-29T09:43:56Z</time>
      </trkpt>
      <trkpt lat="45.90706" lon="5.01642">
        <ele>280</ele>
        <time>2017-04-29T09:43:57Z</time>
      </trkpt>
      <trkpt lat="45.90712" lon="5.01644">
        <ele>280</ele>
        <time>2017-04-29T09:43:58Z</time>
      </trkpt>
      <trkpt lat="45.90719" lon="5.01646">
        <ele>280</ele>
        <time>2017-04-29T09:43:59Z</time>
      </trkpt>
      <trkpt lat="45.90725" lon="5.01648">
        <ele>280</ele>
        <time>2017-04-29T09:44:00Z</time>
      </trkpt>
      <trkpt lat="45.90731" lon="5.01649">
        <ele>280</ele>
        <time>2017-04-29T09:44:01Z</time>
      </trkpt>
      <trkpt lat="45.90737" lon="5.01651">
        <ele>280</ele>
        <time>2017-04-29T09:44:02Z</time>
      </trkpt>
      <trkpt lat="45.90743" lon="5.01653">
        <ele>280</ele>
        <time>2017-04-29T09:44:03Z</time>
      </trkpt>
      <trkpt lat="45.90749" lon="5.01655">
        <ele>280</ele>
        <time>2017-04-29T09:44:04Z</time>
      </trkpt>
      <trkpt lat="45.90754" lon="5.01657">
        <ele>280</ele>
        <time>2017-04-29T09:44:05Z</time>
      </trkpt>
      <trkpt lat="45.90759" lon="5.0166">
        <ele>280</ele>
        <time>2017-04-29T09:44:06Z</time>
      </trkpt>
      <trkpt lat="45.90765" lon="5.01662">
        <ele>280</ele>
        <time>2017-04-29T09:44:07Z</time>
      </trkpt>
      <trkpt lat="45.9077" lon="5.01664">
        <ele>280</ele>
        <time>2017-04-29T09:44:08Z</time>
      </trkpt>
      <trkpt lat="45.90776" lon="5.01667">
        <ele>280</ele>
        <time>2017-04-29T09:44:09Z</time>
      </trkpt>
      <trkpt lat="45.90782" lon="5.01669">
        <ele>279</ele>
        <time>2017-04-29T09:44:10Z</time>
      </trkpt>
      <trkpt lat="45.90787" lon="5.01671">
        <ele>279</ele>
        <time>2017-04-29T09:44:11Z</time>
      </trkpt>
      <trkpt lat="45.90793" lon="5.01673">
        <ele>279</ele>
        <time>2017-04-29T09:44:12Z</time>
      </trkpt>
      <trkpt lat="45.908" lon="5.01675">
        <ele>279</ele>
        <time>2017-04-29T09:44:13Z</time>
      </trkpt>
      <trkpt lat="45.90806" lon="5.01677">
        <ele>279</ele>
        <time>2017-04-29T09:44:14Z</time>
      </trkpt>
      <trkpt lat="45.90812" lon="5.01679">
        <ele>280</ele>
        <time>2017-04-29T09:44:15Z</time>
      </trkpt>
      <trkpt lat="45.90819" lon="5.01681">
        <ele>280</ele>
        <time>2017-04-29T09:44:16Z</time>
      </trkpt>
      <trkpt lat="45.90825" lon="5.01683">
        <ele>280</ele>
        <time>2017-04-29T09:44:17Z</time>
      </trkpt>
      <trkpt lat="45.90831" lon="5.01685">
        <ele>280</ele>
        <time>2017-04-29T09:44:18Z</time>
      </trkpt>
      <trkpt lat="45.90837" lon="5.01687">
        <ele>280</ele>
        <time>2017-04-29T09:44:19Z</time>
      </trkpt>
      <trkpt lat="45.90843" lon="5.01689">
        <ele>280</ele>
        <time>2017-04-29T09:44:20Z</time>
      </trkpt>
      <trkpt lat="45.90849" lon="5.01691">
        <ele>280</ele>
        <time>2017-04-29T09:44:21Z</time>
      </trkpt>
      <trkpt lat="45.90855" lon="5.01692">
        <ele>280</ele>
        <time>2017-04-29T09:44:22Z</time>
      </trkpt>
      <trkpt lat="45.9086" lon="5.01694">
        <ele>280</ele>
        <time>2017-04-29T09:44:23Z</time>
      </trkpt>
      <trkpt lat="45.90865" lon="5.01696">
        <ele>280</ele>
        <time>2017-04-29T09:44:24Z</time>
      </trkpt>
      <trkpt lat="45.90871" lon="5.01698">
        <ele>279</ele>
        <time>2017-04-29T09:44:25Z</time>
      </trkpt>
      <trkpt lat="45.90876" lon="5.017">
        <ele>279</ele>
        <time>2017-04-29T09:44:26Z</time>
      </trkpt>
      <trkpt lat="45.90881" lon="5.01702">
        <ele>279</ele>
        <time>2017-04-29T09:44:27Z</time>
      </trkpt>
      <trkpt lat="45.90887" lon="5.01704">
        <ele>279</ele>
        <time>2017-04-29T09:44:28Z</time>
      </trkpt>
      <trkpt lat="45.90892" lon="5.01705">
        <ele>279</ele>
        <time>2017-04-29T09:44:29Z</time>
      </trkpt>
      <trkpt lat="45.90898" lon="5.01707">
        <ele>279</ele>
        <time>2017-04-29T09:44:30Z</time>
      </trkpt>
      <trkpt lat="45.90904" lon="5.01708">
        <ele>279</ele>
        <time>2017-04-29T09:44:31Z</time>
      </trkpt>
      <trkpt lat="45.9091" lon="5.01708">
        <ele>279</ele>
        <time>2017-04-29T09:44:32Z</time>
      </trkpt>
      <trkpt lat="45.90917" lon="5.01708">
        <ele>279</ele>
        <time>2017-04-29T09:44:33Z</time>
      </trkpt>
      <trkpt lat="45.90924" lon="5.01707">
        <ele>279</ele>
        <time>2017-04-29T09:44:34Z</time>
      </trkpt>
      <trkpt lat="45.90931" lon="5.01706">
        <ele>279</ele>
        <time>2017-04-29T09:44:35Z</time>
      </trkpt>
      <trkpt lat="45.90938" lon="5.01704">
        <ele>279</ele>
        <time>2017-04-29T09:44:36Z</time>
      </trkpt>
      <trkpt lat="45.90945" lon="5.01702">
        <ele>279</ele>
        <time>2017-04-29T09:44:37Z</time>
      </trkpt>
      <trkpt lat="45.90952" lon="5.01699">
        <ele>278</ele>
        <time>2017-04-29T09:44:38Z</time>
      </trkpt>
      <trkpt lat="45.90959" lon="5.01696">
        <ele>278</ele>
        <time>2017-04-29T09:44:39Z</time>
      </trkpt>
      <trkpt lat="45.90965" lon="5.01694">
        <ele>278</ele>
        <time>2017-04-29T09:44:40Z</time>
      </trkpt>
      <trkpt lat="45.90972" lon="5.01691">
        <ele>278</ele>
        <time>2017-04-29T09:44:41Z</time>
      </trkpt>
      <trkpt lat="45.90979" lon="5.01688">
        <ele>278</ele>
        <time>2017-04-29T09:44:42Z</time>
      </trkpt>
      <trkpt lat="45.90987" lon="5.01685">
        <ele>278</ele>
        <time>2017-04-29T09:44:43Z</time>
      </trkpt>
      <trkpt lat="45.90994" lon="5.01682">
        <ele>278</ele>
        <time>2017-04-29T09:44:44Z</time>
      </trkpt>
      <trkpt lat="45.91002" lon="5.01679">
        <ele>277</ele>
        <time>2017-04-29T09:44:45Z</time>
      </trkpt>
      <trkpt lat="45.9101" lon="5.01677">
        <ele>277</ele>
        <time>2017-04-29T09:44:46Z</time>
      </trkpt>
      <trkpt lat="45.91017" lon="5.01674">
        <ele>277</ele>
        <time>2017-04-29T09:44:47Z</time>
      </trkpt>
      <trkpt lat="45.91025" lon="5.0167">
        <ele>276</ele>
        <time>2017-04-29T09:44:48Z</time>
      </trkpt>
      <trkpt lat="45.91033" lon="5.01667">
        <ele>276</ele>
        <time>2017-04-29T09:44:49Z</time>
      </trkpt>
      <trkpt lat="45.91041" lon="5.01664">
        <ele>278</ele>
        <time>2017-04-29T09:44:50Z</time>
      </trkpt>
      <trkpt lat="45.91049" lon="5.01661">
        <ele>278</ele>
        <time>2017-04-29T09:44:51Z</time>
      </trkpt>
      <trkpt lat="45.91057" lon="5.01658">
        <ele>277</ele>
        <time>2017-04-29T09:44:52Z</time>
      </trkpt>
      <trkpt lat="45.91065" lon="5.01655">
        <ele>277</ele>
        <time>2017-04-29T09:44:53Z</time>
      </trkpt>
      <trkpt lat="45.91073" lon="5.01652">
        <ele>277</ele>
        <time>2017-04-29T09:44:54Z</time>
      </trkpt>
      <trkpt lat="45.91082" lon="5.01649">
        <ele>276</ele>
        <time>2017-04-29T09:44:55Z</time>
      </trkpt>
      <trkpt lat="45.9109" lon="5.01646">
        <ele>274</ele>
        <time>2017-04-29T09:44:56Z</time>
      </trkpt>
      <trkpt lat="45.91098" lon="5.01643">
        <ele>274</ele>
        <time>2017-04-29T09:44:57Z</time>
      </trkpt>
      <trkpt lat="45.91106" lon="5.0164">
        <ele>274</ele>
        <time>2017-04-29T09:44:58Z</time>
      </trkpt>
      <trkpt lat="45.91114" lon="5.01637">
        <ele>274</ele>
        <time>2017-04-29T09:44:59Z</time>
      </trkpt>
      <trkpt lat="45.91122" lon="5.01634">
        <ele>274</ele>
        <time>2017-04-29T09:45:00Z</time>
      </trkpt>
      <trkpt lat="45.9113" lon="5.01631">
        <ele>274</ele>
        <time>2017-04-29T09:45:01Z</time>
      </trkpt>
      <trkpt lat="45.91137" lon="5.01628">
        <ele>274</ele>
        <time>2017-04-29T09:45:02Z</time>
      </trkpt>
      <trkpt lat="45.91145" lon="5.01625">
        <ele>274</ele>
        <time>2017-04-29T09:45:03Z</time>
      </trkpt>
      <trkpt lat="45.91152" lon="5.01623">
        <ele>274</ele>
        <time>2017-04-29T09:45:04Z</time>
      </trkpt>
      <trkpt lat="45.91159" lon="5.0162">
        <ele>274</ele>
        <time>2017-04-29T09:45:05Z</time>
      </trkpt>
      <trkpt lat="45.91166" lon="5.01617">
        <ele>274</ele>
        <time>2017-04-29T09:45:06Z</time>
      </trkpt>
      <trkpt lat="45.91173" lon="5.01615">
        <ele>273</ele>
        <time>2017-04-29T09:45:07Z</time>
      </trkpt>
      <trkpt lat="45.91179" lon="5.01612">
        <ele>273</ele>
        <time>2017-04-29T09:45:08Z</time>
      </trkpt>
      <trkpt lat="45.91185" lon="5.0161">
        <ele>273</ele>
        <time>2017-04-29T09:45:09Z</time>
      </trkpt>
      <trkpt lat="45.91191" lon="5.01608">
        <ele>273</ele>
        <time>2017-04-29T09:45:10Z</time>
      </trkpt>
      <trkpt lat="45.91197" lon="5.01606">
        <ele>273</ele>
        <time>2017-04-29T09:45:11Z</time>
      </trkpt>
      <trkpt lat="45.91203" lon="5.01605">
        <ele>273</ele>
        <time>2017-04-29T09:45:12Z</time>
      </trkpt>
      <trkpt lat="45.91208" lon="5.01603">
        <ele>273</ele>
        <time>2017-04-29T09:45:13Z</time>
      </trkpt>
      <trkpt lat="45.91214" lon="5.01601">
        <ele>273</ele>
        <time>2017-04-29T09:45:14Z</time>
      </trkpt>
      <trkpt lat="45.9122" lon="5.01599">
        <ele>273</ele>
        <time>2017-04-29T09:45:15Z</time>
      </trkpt>
      <trkpt lat="45.91225" lon="5.01597">
        <ele>273</ele>
        <time>2017-04-29T09:45:16Z</time>
      </trkpt>
      <trkpt lat="45.91231" lon="5.01595">
        <ele>273</ele>
        <time>2017-04-29T09:45:17Z</time>
      </trkpt>
      <trkpt lat="45.91237" lon="5.01594">
        <ele>273</ele>
        <time>2017-04-29T09:45:18Z</time>
      </trkpt>
      <trkpt lat="45.91243" lon="5.01592">
        <ele>274</ele>
        <time>2017-04-29T09:45:19Z</time>
      </trkpt>
      <trkpt lat="45.91249" lon="5.0159">
        <ele>274</ele>
        <time>2017-04-29T09:45:20Z</time>
      </trkpt>
      <trkpt lat="45.91255" lon="5.01589">
        <ele>274</ele>
        <time>2017-04-29T09:45:21Z</time>
      </trkpt>
      <trkpt lat="45.9126" lon="5.01588">
        <ele>274</ele>
        <time>2017-04-29T09:45:22Z</time>
      </trkpt>
      <trkpt lat="45.91267" lon="5.01587">
        <ele>274</ele>
        <time>2017-04-29T09:45:23Z</time>
      </trkpt>
      <trkpt lat="45.91273" lon="5.01587">
        <ele>275</ele>
        <time>2017-04-29T09:45:24Z</time>
      </trkpt>
      <trkpt lat="45.9128" lon="5.01587">
        <ele>275</ele>
        <time>2017-04-29T09:45:25Z</time>
      </trkpt>
      <trkpt lat="45.91286" lon="5.01587">
        <ele>275</ele>
        <time>2017-04-29T09:45:26Z</time>
      </trkpt>
      <trkpt lat="45.91293" lon="5.01587">
        <ele>275</ele>
        <time>2017-04-29T09:45:27Z</time>
      </trkpt>
      <trkpt lat="45.91299" lon="5.01587">
        <ele>275</ele>
        <time>2017-04-29T09:45:28Z</time>
      </trkpt>
      <trkpt lat="45.91305" lon="5.01587">
        <ele>276</ele>
        <time>2017-04-29T09:45:29Z</time>
      </trkpt>
      <trkpt lat="45.91312" lon="5.01588">
        <ele>276</ele>
        <time>2017-04-29T09:45:30Z</time>
      </trkpt>
      <trkpt lat="45.91317" lon="5.01588">
        <ele>276</ele>
        <time>2017-04-29T09:45:31Z</time>
      </trkpt>
      <trkpt lat="45.91323" lon="5.01589">
        <ele>277</ele>
        <time>2017-04-29T09:45:32Z</time>
      </trkpt>
      <trkpt lat="45.91328" lon="5.01591">
        <ele>277</ele>
        <time>2017-04-29T09:45:33Z</time>
      </trkpt>
      <trkpt lat="45.91333" lon="5.01592">
        <ele>277</ele>
        <time>2017-04-29T09:45:34Z</time>
      </trkpt>
      <trkpt lat="45.91338" lon="5.01594">
        <ele>278</ele>
        <time>2017-04-29T09:45:35Z</time>
      </trkpt>
      <trkpt lat="45.91343" lon="5.01595">
        <ele>278</ele>
        <time>2017-04-29T09:45:36Z</time>
      </trkpt>
      <trkpt lat="45.91348" lon="5.01596">
        <ele>278</ele>
        <time>2017-04-29T09:45:37Z</time>
      </trkpt>
      <trkpt lat="45.91353" lon="5.01598">
        <ele>278</ele>
        <time>2017-04-29T09:45:38Z</time>
      </trkpt>
      <trkpt lat="45.91358" lon="5.01599">
        <ele>279</ele>
        <time>2017-04-29T09:45:39Z</time>
      </trkpt>
      <trkpt lat="45.91363" lon="5.01601">
        <ele>279</ele>
        <time>2017-04-29T09:45:40Z</time>
      </trkpt>
      <trkpt lat="45.91368" lon="5.01603">
        <ele>279</ele>
        <time>2017-04-29T09:45:41Z</time>
      </trkpt>
      <trkpt lat="45.91373" lon="5.01605">
        <ele>279</ele>
        <time>2017-04-29T09:45:42Z</time>
      </trkpt>
      <trkpt lat="45.91378" lon="5.01606">
        <ele>279</ele>
        <time>2017-04-29T09:45:43Z</time>
      </trkpt>
      <trkpt lat="45.91384" lon="5.01608">
        <ele>279</ele>
        <time>2017-04-29T09:45:44Z</time>
      </trkpt>
      <trkpt lat="45.91389" lon="5.0161">
        <ele>279</ele>
        <time>2017-04-29T09:45:45Z</time>
      </trkpt>
      <trkpt lat="45.91393" lon="5.01612">
        <ele>279</ele>
        <time>2017-04-29T09:45:46Z</time>
      </trkpt>
      <trkpt lat="45.91398" lon="5.01614">
        <ele>279</ele>
        <time>2017-04-29T09:45:47Z</time>
      </trkpt>
      <trkpt lat="45.91403" lon="5.01616">
        <ele>279</ele>
        <time>2017-04-29T09:45:48Z</time>
      </trkpt>
      <trkpt lat="45.91408" lon="5.01618">
        <ele>279</ele>
        <time>2017-04-29T09:45:49Z</time>
      </trkpt>
      <trkpt lat="45.91413" lon="5.0162">
        <ele>279</ele>
        <time>2017-04-29T09:45:50Z</time>
      </trkpt>
      <trkpt lat="45.91418" lon="5.01622">
        <ele>281</ele>
        <time>2017-04-29T09:45:51Z</time>
      </trkpt>
      <trkpt lat="45.91423" lon="5.01623">
        <ele>281</ele>
        <time>2017-04-29T09:45:52Z</time>
      </trkpt>
      <trkpt lat="45.91428" lon="5.01623">
        <ele>281</ele>
        <time>2017-04-29T09:45:53Z</time>
      </trkpt>
      <trkpt lat="45.91433" lon="5.01623">
        <ele>281</ele>
        <time>2017-04-29T09:45:54Z</time>
      </trkpt>
      <trkpt lat="45.91437" lon="5.01623">
        <ele>281</ele>
        <time>2017-04-29T09:45:55Z</time>
      </trkpt>
      <trkpt lat="45.91442" lon="5.01621">
        <ele>281</ele>
        <time>2017-04-29T09:45:56Z</time>
      </trkpt>
      <trkpt lat="45.91446" lon="5.01619">
        <ele>281</ele>
        <time>2017-04-29T09:45:57Z</time>
      </trkpt>
      <trkpt lat="45.91454" lon="5.01613">
        <ele>281</ele>
        <time>2017-04-29T09:45:59Z</time>
      </trkpt>
      <trkpt lat="45.91458" lon="5.01609">
        <ele>281</ele>
        <time>2017-04-29T09:46:00Z</time>
      </trkpt>
      <trkpt lat="45.91465" lon="5.01602">
        <ele>281</ele>
        <time>2017-04-29T09:46:02Z</time>
      </trkpt>
      <trkpt lat="45.91468" lon="5.01597">
        <ele>281</ele>
        <time>2017-04-29T09:46:03Z</time>
      </trkpt>
      <trkpt lat="45.91473" lon="5.01589">
        <ele>281</ele>
        <time>2017-04-29T09:46:05Z</time>
      </trkpt>
      <trkpt lat="45.91476" lon="5.01584">
        <ele>281</ele>
        <time>2017-04-29T09:46:06Z</time>
      </trkpt>
      <trkpt lat="45.91481" lon="5.01576">
        <ele>283</ele>
        <time>2017-04-29T09:46:08Z</time>
      </trkpt>
      <trkpt lat="45.91484" lon="5.01571">
        <ele>283</ele>
        <time>2017-04-29T09:46:09Z</time>
      </trkpt>
      <trkpt lat="45.9149" lon="5.01562">
        <ele>283</ele>
        <time>2017-04-29T09:46:11Z</time>
      </trkpt>
      <trkpt lat="45.91493" lon="5.01557">
        <ele>283</ele>
        <time>2017-04-29T09:46:12Z</time>
      </trkpt>
      <trkpt lat="45.91499" lon="5.01548">
        <ele>283</ele>
        <time>2017-04-29T09:46:14Z</time>
      </trkpt>
      <trkpt lat="45.91502" lon="5.01543">
        <ele>281</ele>
        <time>2017-04-29T09:46:15Z</time>
      </trkpt>
      <trkpt lat="45.91506" lon="5.01539">
        <ele>281</ele>
        <time>2017-04-29T09:46:16Z</time>
      </trkpt>
      <trkpt lat="45.91509" lon="5.01534">
        <ele>281</ele>
        <time>2017-04-29T09:46:17Z</time>
      </trkpt>
      <trkpt lat="45.91513" lon="5.0153">
        <ele>281</ele>
        <time>2017-04-29T09:46:18Z</time>
      </trkpt>
      <trkpt lat="45.91516" lon="5.01525">
        <ele>282</ele>
        <time>2017-04-29T09:46:19Z</time>
      </trkpt>
      <trkpt lat="45.9152" lon="5.0152">
        <ele>282</ele>
        <time>2017-04-29T09:46:20Z</time>
      </trkpt>
      <trkpt lat="45.91524" lon="5.01515">
        <ele>282</ele>
        <time>2017-04-29T09:46:21Z</time>
      </trkpt>
      <trkpt lat="45.91529" lon="5.01511">
        <ele>281</ele>
        <time>2017-04-29T09:46:22Z</time>
      </trkpt>
      <trkpt lat="45.91533" lon="5.01506">
        <ele>281</ele>
        <time>2017-04-29T09:46:23Z</time>
      </trkpt>
      <trkpt lat="45.91538" lon="5.01501">
        <ele>281</ele>
        <time>2017-04-29T09:46:24Z</time>
      </trkpt>
      <trkpt lat="45.91542" lon="5.01496">
        <ele>282</ele>
        <time>2017-04-29T09:46:25Z</time>
      </trkpt>
      <trkpt lat="45.91546" lon="5.01491">
        <ele>282</ele>
        <time>2017-04-29T09:46:26Z</time>
      </trkpt>
      <trkpt lat="45.91551" lon="5.01486">
        <ele>282</ele>
        <time>2017-04-29T09:46:27Z</time>
      </trkpt>
      <trkpt lat="45.91555" lon="5.01482">
        <ele>282</ele>
        <time>2017-04-29T09:46:28Z</time>
      </trkpt>
      <trkpt lat="45.91559" lon="5.01477">
        <ele>282</ele>
        <time>2017-04-29T09:46:29Z</time>
      </trkpt>
      <trkpt lat="45.91564" lon="5.01473">
        <ele>282</ele>
        <time>2017-04-29T09:46:30Z</time>
      </trkpt>
      <trkpt lat="45.91568" lon="5.01469">
        <ele>282</ele>
        <time>2017-04-29T09:46:31Z</time>
      </trkpt>
      <trkpt lat="45.91571" lon="5.01464">
        <ele>282</ele>
        <time>2017-04-29T09:46:32Z</time>
      </trkpt>
      <trkpt lat="45.91575" lon="5.0146">
        <ele>282</ele>
        <time>2017-04-29T09:46:33Z</time>
      </trkpt>
      <trkpt lat="45.91578" lon="5.01456">
        <ele>282</ele>
        <time>2017-04-29T09:46:34Z</time>
      </trkpt>
      <trkpt lat="45.91582" lon="5.01452">
        <ele>282</ele>
        <time>2017-04-29T09:46:35Z</time>
      </trkpt>
      <trkpt lat="45.91586" lon="5.01447">
        <ele>280</ele>
        <time>2017-04-29T09:46:36Z</time>
      </trkpt>
      <trkpt lat="45.9159" lon="5.01442">
        <ele>280</ele>
        <time>2017-04-29T09:46:37Z</time>
      </trkpt>
      <trkpt lat="45.91594" lon="5.01437">
        <ele>280</ele>
        <time>2017-04-29T09:46:38Z</time>
      </trkpt>
      <trkpt lat="45.91598" lon="5.01432">
        <ele>280</ele>
        <time>2017-04-29T09:46:39Z</time>
      </trkpt>
      <trkpt lat="45.91602" lon="5.01428">
        <ele>280</ele>
        <time>2017-04-29T09:46:40Z</time>
      </trkpt>
      <trkpt lat="45.91606" lon="5.01425">
        <ele>280</ele>
        <time>2017-04-29T09:46:41Z</time>
      </trkpt>
      <trkpt lat="45.91611" lon="5.0142">
        <ele>280</ele>
        <time>2017-04-29T09:46:42Z</time>
      </trkpt>
      <trkpt lat="45.91615" lon="5.01416">
        <ele>280</ele>
        <time>2017-04-29T09:46:43Z</time>
      </trkpt>
      <trkpt lat="45.9162" lon="5.01411">
        <ele>280</ele>
        <time>2017-04-29T09:46:44Z</time>
      </trkpt>
      <trkpt lat="45.91625" lon="5.01407">
        <ele>280</ele>
        <time>2017-04-29T09:46:45Z</time>
      </trkpt>
      <trkpt lat="45.9163" lon="5.01403">
        <ele>280</ele>
        <time>2017-04-29T09:46:46Z</time>
      </trkpt>
      <trkpt lat="45.91635" lon="5.014">
        <ele>280</ele>
        <time>2017-04-29T09:46:47Z</time>
      </trkpt>
      <trkpt lat="45.9164" lon="5.01396">
        <ele>280</ele>
        <time>2017-04-29T09:46:48Z</time>
      </trkpt>
      <trkpt lat="45.91646" lon="5.01393">
        <ele>280</ele>
        <time>2017-04-29T09:46:49Z</time>
      </trkpt>
      <trkpt lat="45.91651" lon="5.01391">
        <ele>280</ele>
        <time>2017-04-29T09:46:50Z</time>
      </trkpt>
      <trkpt lat="45.91655" lon="5.01388">
        <ele>280</ele>
        <time>2017-04-29T09:46:51Z</time>
      </trkpt>
      <trkpt lat="45.9166" lon="5.01386">
        <ele>280</ele>
        <time>2017-04-29T09:46:52Z</time>
      </trkpt>
      <trkpt lat="45.91665" lon="5.01383">
        <ele>280</ele>
        <time>2017-04-29T09:46:53Z</time>
      </trkpt>
      <trkpt lat="45.91669" lon="5.01381">
        <ele>280</ele>
        <time>2017-04-29T09:46:54Z</time>
      </trkpt>
      <trkpt lat="45.91674" lon="5.01378">
        <ele>280</ele>
        <time>2017-04-29T09:46:55Z</time>
      </trkpt>
      <trkpt lat="45.91679" lon="5.01375">
        <ele>280</ele>
        <time>2017-04-29T09:46:56Z</time>
      </trkpt>
      <trkpt lat="45.91684" lon="5.01373">
        <ele>280</ele>
        <time>2017-04-29T09:46:57Z</time>
      </trkpt>
      <trkpt lat="45.91689" lon="5.0137">
        <ele>280</ele>
        <time>2017-04-29T09:46:58Z</time>
      </trkpt>
      <trkpt lat="45.91695" lon="5.01368">
        <ele>280</ele>
        <time>2017-04-29T09:46:59Z</time>
      </trkpt>
      <trkpt lat="45.917" lon="5.01366">
        <ele>280</ele>
        <time>2017-04-29T09:47:00Z</time>
      </trkpt>
      <trkpt lat="45.91705" lon="5.01363">
        <ele>280</ele>
        <time>2017-04-29T09:47:01Z</time>
      </trkpt>
      <trkpt lat="45.91711" lon="5.0136">
        <ele>280</ele>
        <time>2017-04-29T09:47:02Z</time>
      </trkpt>
      <trkpt lat="45.91716" lon="5.01357">
        <ele>280</ele>
        <time>2017-04-29T09:47:03Z</time>
      </trkpt>
      <trkpt lat="45.9172" lon="5.01355">
        <ele>280</ele>
        <time>2017-04-29T09:47:04Z</time>
      </trkpt>
      <trkpt lat="45.91725" lon="5.01352">
        <ele>280</ele>
        <time>2017-04-29T09:47:05Z</time>
      </trkpt>
      <trkpt lat="45.91729" lon="5.0135">
        <ele>280</ele>
        <time>2017-04-29T09:47:06Z</time>
      </trkpt>
      <trkpt lat="45.91733" lon="5.01348">
        <ele>281</ele>
        <time>2017-04-29T09:47:07Z</time>
      </trkpt>
      <trkpt lat="45.91738" lon="5.01346">
        <ele>281</ele>
        <time>2017-04-29T09:47:08Z</time>
      </trkpt>
      <trkpt lat="45.91744" lon="5.01343">
        <ele>281</ele>
        <time>2017-04-29T09:47:09Z</time>
      </trkpt>
      <trkpt lat="45.91749" lon="5.01341">
        <ele>281</ele>
        <time>2017-04-29T09:47:10Z</time>
      </trkpt>
      <trkpt lat="45.91754" lon="5.01338">
        <ele>281</ele>
        <time>2017-04-29T09:47:11Z</time>
      </trkpt>
      <trkpt lat="45.91759" lon="5.01334">
        <ele>281</ele>
        <time>2017-04-29T09:47:12Z</time>
      </trkpt>
      <trkpt lat="45.91765" lon="5.01332">
        <ele>282</ele>
        <time>2017-04-29T09:47:13Z</time>
      </trkpt>
      <trkpt lat="45.91771" lon="5.01329">
        <ele>282</ele>
        <time>2017-04-29T09:47:14Z</time>
      </trkpt>
      <trkpt lat="45.91776" lon="5.01326">
        <ele>282</ele>
        <time>2017-04-29T09:47:15Z</time>
      </trkpt>
      <trkpt lat="45.91781" lon="5.01324">
        <ele>282</ele>
        <time>2017-04-29T09:47:16Z</time>
      </trkpt>
      <trkpt lat="45.91786" lon="5.01322">
        <ele>282</ele>
        <time>2017-04-29T09:47:17Z</time>
      </trkpt>
      <trkpt lat="45.91791" lon="5.0132">
        <ele>283</ele>
        <time>2017-04-29T09:47:18Z</time>
      </trkpt>
      <trkpt lat="45.91796" lon="5.01319">
        <ele>283</ele>
        <time>2017-04-29T09:47:19Z</time>
      </trkpt>
      <trkpt lat="45.91804" lon="5.01317">
        <ele>283</ele>
        <time>2017-04-29T09:47:21Z</time>
      </trkpt>
      <trkpt lat="45.91808" lon="5.01316">
        <ele>283</ele>
        <time>2017-04-29T09:47:22Z</time>
      </trkpt>
      <trkpt lat="45.91816" lon="5.01314">
        <ele>283</ele>
        <time>2017-04-29T09:47:24Z</time>
      </trkpt>
      <trkpt lat="45.9182" lon="5.01314">
        <ele>283</ele>
        <time>2017-04-29T09:47:25Z</time>
      </trkpt>
      <trkpt lat="45.91827" lon="5.01312">
        <ele>283</ele>
        <time>2017-04-29T09:47:27Z</time>
      </trkpt>
      <trkpt lat="45.91832" lon="5.01312">
        <ele>283</ele>
        <time>2017-04-29T09:47:28Z</time>
      </trkpt>
      <trkpt lat="45.91839" lon="5.01311">
        <ele>284</ele>
        <time>2017-04-29T09:47:30Z</time>
      </trkpt>
      <trkpt lat="45.91843" lon="5.01311">
        <ele>284</ele>
        <time>2017-04-29T09:47:31Z</time>
      </trkpt>
      <trkpt lat="45.9185" lon="5.0131">
        <ele>284</ele>
        <time>2017-04-29T09:47:33Z</time>
      </trkpt>
      <trkpt lat="45.91853" lon="5.01309">
        <ele>285</ele>
        <time>2017-04-29T09:47:34Z</time>
      </trkpt>
      <trkpt lat="45.91861" lon="5.01309">
        <ele>285</ele>
        <time>2017-04-29T09:47:36Z</time>
      </trkpt>
      <trkpt lat="45.91864" lon="5.01309">
        <ele>285</ele>
        <time>2017-04-29T09:47:37Z</time>
      </trkpt>
      <trkpt lat="45.91871" lon="5.01308">
        <ele>285</ele>
        <time>2017-04-29T09:47:39Z</time>
      </trkpt>
      <trkpt lat="45.91875" lon="5.01307">
        <ele>285</ele>
        <time>2017-04-29T09:47:40Z</time>
      </trkpt>
      <trkpt lat="45.91882" lon="5.01306">
        <ele>285</ele>
        <time>2017-04-29T09:47:42Z</time>
      </trkpt>
      <trkpt lat="45.91885" lon="5.01306">
        <ele>285</ele>
        <time>2017-04-29T09:47:43Z</time>
      </trkpt>
      <trkpt lat="45.91892" lon="5.01305">
        <ele>285</ele>
        <time>2017-04-29T09:47:45Z</time>
      </trkpt>
      <trkpt lat="45.91895" lon="5.01305">
        <ele>286</ele>
        <time>2017-04-29T09:47:46Z</time>
      </trkpt>
      <trkpt lat="45.91904" lon="5.01303">
        <ele>286</ele>
        <time>2017-04-29T09:47:49Z</time>
      </trkpt>
      <trkpt lat="45.91907" lon="5.01302">
        <ele>286</ele>
        <time>2017-04-29T09:47:50Z</time>
      </trkpt>
      <trkpt lat="45.91914" lon="5.01302">
        <ele>286</ele>
        <time>2017-04-29T09:47:52Z</time>
      </trkpt>
      <trkpt lat="45.91918" lon="5.01301">
        <ele>286</ele>
        <time>2017-04-29T09:47:53Z</time>
      </trkpt>
      <trkpt lat="45.91925" lon="5.013">
        <ele>286</ele>
        <time>2017-04-29T09:47:55Z</time>
      </trkpt>
      <trkpt lat="45.91929" lon="5.013">
        <ele>286</ele>
        <time>2017-04-29T09:47:56Z</time>
      </trkpt>
      <trkpt lat="45.91934" lon="5.013">
        <ele>286</ele>
        <time>2017-04-29T09:47:57Z</time>
      </trkpt>
      <trkpt lat="45.91939" lon="5.01299">
        <ele>286</ele>
        <time>2017-04-29T09:47:58Z</time>
      </trkpt>
      <trkpt lat="45.91945" lon="5.01298">
        <ele>286</ele>
        <time>2017-04-29T09:47:59Z</time>
      </trkpt>
      <trkpt lat="45.9195" lon="5.01297">
        <ele>286</ele>
        <time>2017-04-29T09:48:00Z</time>
      </trkpt>
      <trkpt lat="45.91954" lon="5.01296">
        <ele>286</ele>
        <time>2017-04-29T09:48:01Z</time>
      </trkpt>
      <trkpt lat="45.91959" lon="5.01295">
        <ele>286</ele>
        <time>2017-04-29T09:48:02Z</time>
      </trkpt>
      <trkpt lat="45.91964" lon="5.01295">
        <ele>286</ele>
        <time>2017-04-29T09:48:03Z</time>
      </trkpt>
      <trkpt lat="45.91968" lon="5.01295">
        <ele>286</ele>
        <time>2017-04-29T09:48:04Z</time>
      </trkpt>
      <trkpt lat="45.91974" lon="5.01295">
        <ele>285</ele>
        <time>2017-04-29T09:48:05Z</time>
      </trkpt>
      <trkpt lat="45.91982" lon="5.01292">
        <ele>285</ele>
        <time>2017-04-29T09:48:06Z</time>
      </trkpt>
      <trkpt lat="45.91989" lon="5.0129">
        <ele>285</ele>
        <time>2017-04-29T09:48:07Z</time>
      </trkpt>
      <trkpt lat="45.91995" lon="5.01288">
        <ele>285</ele>
        <time>2017-04-29T09:48:08Z</time>
      </trkpt>
      <trkpt lat="45.92002" lon="5.01286">
        <ele>284</ele>
        <time>2017-04-29T09:48:09Z</time>
      </trkpt>
      <trkpt lat="45.92008" lon="5.01284">
        <ele>284</ele>
        <time>2017-04-29T09:48:10Z</time>
      </trkpt>
      <trkpt lat="45.92013" lon="5.01282">
        <ele>284</ele>
        <time>2017-04-29T09:48:11Z</time>
      </trkpt>
      <trkpt lat="45.92019" lon="5.0128">
        <ele>284</ele>
        <time>2017-04-29T09:48:12Z</time>
      </trkpt>
      <trkpt lat="45.92025" lon="5.01277">
        <ele>284</ele>
        <time>2017-04-29T09:48:13Z</time>
      </trkpt>
      <trkpt lat="45.9203" lon="5.01273">
        <ele>284</ele>
        <time>2017-04-29T09:48:14Z</time>
      </trkpt>
      <trkpt lat="45.92035" lon="5.01267">
        <ele>283</ele>
        <time>2017-04-29T09:48:16Z</time>
      </trkpt>
      <trkpt lat="45.92037" lon="5.01265">
        <ele>283</ele>
        <time>2017-04-29T09:48:17Z</time>
      </trkpt>
      <trkpt lat="45.92038" lon="5.01261">
        <ele>283</ele>
        <time>2017-04-29T09:48:25Z</time>
      </trkpt>
      <trkpt lat="45.92038" lon="5.0126">
        <ele>283</ele>
        <time>2017-04-29T09:48:26Z</time>
      </trkpt>
      <trkpt lat="45.92039" lon="5.01257">
        <ele>283</ele>
        <time>2017-04-29T09:48:46Z</time>
      </trkpt>
      <trkpt lat="45.92039" lon="5.01255">
        <ele>283</ele>
        <time>2017-04-29T09:48:47Z</time>
      </trkpt>
      <trkpt lat="45.92041" lon="5.01243">
        <ele>283</ele>
        <time>2017-04-29T09:49:35Z</time>
      </trkpt>
      <trkpt lat="45.92041" lon="5.01241">
        <ele>283</ele>
        <time>2017-04-29T09:49:36Z</time>
      </trkpt>
      <trkpt lat="45.9205" lon="5.01237">
        <ele>283</ele>
        <time>2017-04-29T09:58:45Z</time>
      </trkpt>
      <trkpt lat="45.9205" lon="5.01236">
        <ele>283</ele>
        <time>2017-04-29T09:58:46Z</time>
      </trkpt>
      <trkpt lat="45.92046" lon="5.01246">
        <ele>283</ele>
        <time>2017-04-29T09:59:43Z</time>
      </trkpt>
      <trkpt lat="45.92046" lon="5.01248">
        <ele>283</ele>
        <time>2017-04-29T09:59:44Z</time>
      </trkpt>
      <trkpt lat="45.92051" lon="5.01258">
        <ele>283</ele>
        <time>2017-04-29T10:00:34Z</time>
      </trkpt>
      <trkpt lat="45.92052" lon="5.01258">
        <ele>283</ele>
        <time>2017-04-29T10:00:35Z</time>
      </trkpt>
      <trkpt lat="45.92059" lon="5.01254">
        <ele>283</ele>
        <time>2017-04-29T10:00:39Z</time>
      </trkpt>
      <trkpt lat="45.92062" lon="5.01252">
        <ele>283</ele>
        <time>2017-04-29T10:00:40Z</time>
      </trkpt>
      <trkpt lat="45.92068" lon="5.01248">
        <ele>283</ele>
        <time>2017-04-29T10:00:42Z</time>
      </trkpt>
      <trkpt lat="45.92071" lon="5.01245">
        <ele>283</ele>
        <time>2017-04-29T10:00:43Z</time>
      </trkpt>
      <trkpt lat="45.92078" lon="5.0124">
        <ele>282</ele>
        <time>2017-04-29T10:00:45Z</time>
      </trkpt>
      <trkpt lat="45.92082" lon="5.01237">
        <ele>282</ele>
        <time>2017-04-29T10:00:46Z</time>
      </trkpt>
      <trkpt lat="45.92089" lon="5.01232">
        <ele>282</ele>
        <time>2017-04-29T10:00:48Z</time>
      </trkpt>
      <trkpt lat="45.92092" lon="5.01229">
        <ele>282</ele>
        <time>2017-04-29T10:00:49Z</time>
      </trkpt>
      <trkpt lat="45.92099" lon="5.01225">
        <ele>282</ele>
        <time>2017-04-29T10:00:51Z</time>
      </trkpt>
      <trkpt lat="45.92103" lon="5.01223">
        <ele>282</ele>
        <time>2017-04-29T10:00:52Z</time>
      </trkpt>
      <trkpt lat="45.92111" lon="5.01217">
        <ele>282</ele>
        <time>2017-04-29T10:00:54Z</time>
      </trkpt>
      <trkpt lat="45.92115" lon="5.01214">
        <ele>282</ele>
        <time>2017-04-29T10:00:55Z</time>
      </trkpt>
      <trkpt lat="45.92122" lon="5.01209">
        <ele>282</ele>
        <time>2017-04-29T10:00:57Z</time>
      </trkpt>
      <trkpt lat="45.92126" lon="5.01206">
        <ele>282</ele>
        <time>2017-04-29T10:00:58Z</time>
      </trkpt>
      <trkpt lat="45.92132" lon="5.01202">
        <ele>282</ele>
        <time>2017-04-29T10:01:00Z</time>
      </trkpt>
      <trkpt lat="45.92136" lon="5.01199">
        <ele>282</ele>
        <time>2017-04-29T10:01:01Z</time>
      </trkpt>
      <trkpt lat="45.92143" lon="5.01194">
        <ele>282</ele>
        <time>2017-04-29T10:01:03Z</time>
      </trkpt>
      <trkpt lat="45.92147" lon="5.01192">
        <ele>282</ele>
        <time>2017-04-29T10:01:04Z</time>
      </trkpt>
      <trkpt lat="45.92155" lon="5.01187">
        <ele>282</ele>
        <time>2017-04-29T10:01:06Z</time>
      </trkpt>
      <trkpt lat="45.92159" lon="5.01184">
        <ele>282</ele>
        <time>2017-04-29T10:01:07Z</time>
      </trkpt>
      <trkpt lat="45.92166" lon="5.01179">
        <ele>282</ele>
        <time>2017-04-29T10:01:09Z</time>
      </trkpt>
      <trkpt lat="45.9217" lon="5.01177">
        <ele>283</ele>
        <time>2017-04-29T10:01:10Z</time>
      </trkpt>
      <trkpt lat="45.92177" lon="5.01174">
        <ele>283</ele>
        <time>2017-04-29T10:01:12Z</time>
      </trkpt>
      <trkpt lat="45.92181" lon="5.01173">
        <ele>283</ele>
        <time>2017-04-29T10:01:13Z</time>
      </trkpt>
      <trkpt lat="45.92189" lon="5.01172">
        <ele>283</ele>
        <time>2017-04-29T10:01:15Z</time>
      </trkpt>
      <trkpt lat="45.92193" lon="5.01171">
        <ele>283</ele>
        <time>2017-04-29T10:01:16Z</time>
      </trkpt>
      <trkpt lat="45.92201" lon="5.0117">
        <ele>283</ele>
        <time>2017-04-29T10:01:18Z</time>
      </trkpt>
      <trkpt lat="45.92205" lon="5.0117">
        <ele>283</ele>
        <time>2017-04-29T10:01:19Z</time>
      </trkpt>
      <trkpt lat="45.92213" lon="5.01169">
        <ele>284</ele>
        <time>2017-04-29T10:01:21Z</time>
      </trkpt>
      <trkpt lat="45.92217" lon="5.01169">
        <ele>284</ele>
        <time>2017-04-29T10:01:22Z</time>
      </trkpt>
      <trkpt lat="45.92226" lon="5.01168">
        <ele>284</ele>
        <time>2017-04-29T10:01:24Z</time>
      </trkpt>
      <trkpt lat="45.9223" lon="5.01167">
        <ele>284</ele>
        <time>2017-04-29T10:01:25Z</time>
      </trkpt>
      <trkpt lat="45.92238" lon="5.01166">
        <ele>284</ele>
        <time>2017-04-29T10:01:27Z</time>
      </trkpt>
      <trkpt lat="45.92242" lon="5.01166">
        <ele>285</ele>
        <time>2017-04-29T10:01:28Z</time>
      </trkpt>
      <trkpt lat="45.9225" lon="5.01164">
        <ele>285</ele>
        <time>2017-04-29T10:01:30Z</time>
      </trkpt>
      <trkpt lat="45.92254" lon="5.01164">
        <ele>285</ele>
        <time>2017-04-29T10:01:31Z</time>
      </trkpt>
      <trkpt lat="45.92262" lon="5.01161">
        <ele>285</ele>
        <time>2017-04-29T10:01:33Z</time>
      </trkpt>
      <trkpt lat="45.92266" lon="5.0116">
        <ele>286</ele>
        <time>2017-04-29T10:01:34Z</time>
      </trkpt>
      <trkpt lat="45.92274" lon="5.01157">
        <ele>286</ele>
        <time>2017-04-29T10:01:36Z</time>
      </trkpt>
      <trkpt lat="45.92278" lon="5.01155">
        <ele>286</ele>
        <time>2017-04-29T10:01:37Z</time>
      </trkpt>
      <trkpt lat="45.92282" lon="5.01153">
        <ele>286</ele>
        <time>2017-04-29T10:01:38Z</time>
      </trkpt>
      <trkpt lat="45.92287" lon="5.01151">
        <ele>286</ele>
        <time>2017-04-29T10:01:39Z</time>
      </trkpt>
      <trkpt lat="45.92295" lon="5.01148">
        <ele>286</ele>
        <time>2017-04-29T10:01:41Z</time>
      </trkpt>
      <trkpt lat="45.92299" lon="5.01146">
        <ele>286</ele>
        <time>2017-04-29T10:01:42Z</time>
      </trkpt>
      <trkpt lat="45.92306" lon="5.01143">
        <ele>286</ele>
        <time>2017-04-29T10:01:44Z</time>
      </trkpt>
      <trkpt lat="45.92311" lon="5.01141">
        <ele>286</ele>
        <time>2017-04-29T10:01:45Z</time>
      </trkpt>
      <trkpt lat="45.92319" lon="5.01138">
        <ele>287</ele>
        <time>2017-04-29T10:01:47Z</time>
      </trkpt>
      <trkpt lat="45.92323" lon="5.01136">
        <ele>287</ele>
        <time>2017-04-29T10:01:48Z</time>
      </trkpt>
      <trkpt lat="45.9233" lon="5.01133">
        <ele>287</ele>
        <time>2017-04-29T10:01:50Z</time>
      </trkpt>
      <trkpt lat="45.92333" lon="5.01132">
        <ele>287</ele>
        <time>2017-04-29T10:01:51Z</time>
      </trkpt>
      <trkpt lat="45.92341" lon="5.01129">
        <ele>288</ele>
        <time>2017-04-29T10:01:53Z</time>
      </trkpt>
      <trkpt lat="45.92345" lon="5.01127">
        <ele>288</ele>
        <time>2017-04-29T10:01:54Z</time>
      </trkpt>
      <trkpt lat="45.92352" lon="5.01124">
        <ele>288</ele>
        <time>2017-04-29T10:01:56Z</time>
      </trkpt>
      <trkpt lat="45.92356" lon="5.01123">
        <ele>288</ele>
        <time>2017-04-29T10:01:57Z</time>
      </trkpt>
      <trkpt lat="45.92363" lon="5.01119">
        <ele>288</ele>
        <time>2017-04-29T10:01:59Z</time>
      </trkpt>
      <trkpt lat="45.92365" lon="5.01118">
        <ele>288</ele>
        <time>2017-04-29T10:02:00Z</time>
      </trkpt>
      <trkpt lat="45.92374" lon="5.01113">
        <ele>288</ele>
        <time>2017-04-29T10:02:03Z</time>
      </trkpt>
      <trkpt lat="45.92376" lon="5.0111">
        <ele>288</ele>
        <time>2017-04-29T10:02:04Z</time>
      </trkpt>
      <trkpt lat="45.92381" lon="5.01102">
        <ele>288</ele>
        <time>2017-04-29T10:02:06Z</time>
      </trkpt>
      <trkpt lat="45.92384" lon="5.01098">
        <ele>288</ele>
        <time>2017-04-29T10:02:07Z</time>
      </trkpt>
      <trkpt lat="45.92391" lon="5.0109">
        <ele>288</ele>
        <time>2017-04-29T10:02:09Z</time>
      </trkpt>
      <trkpt lat="45.92394" lon="5.01087">
        <ele>288</ele>
        <time>2017-04-29T10:02:10Z</time>
      </trkpt>
      <trkpt lat="45.92398" lon="5.01083">
        <ele>288</ele>
        <time>2017-04-29T10:02:11Z</time>
      </trkpt>
      <trkpt lat="45.92402" lon="5.0108">
        <ele>288</ele>
        <time>2017-04-29T10:02:12Z</time>
      </trkpt>
      <trkpt lat="45.92406" lon="5.01077">
        <ele>288</ele>
        <time>2017-04-29T10:02:13Z</time>
      </trkpt>
      <trkpt lat="45.92411" lon="5.01075">
        <ele>288</ele>
        <time>2017-04-29T10:02:14Z</time>
      </trkpt>
      <trkpt lat="45.92419" lon="5.01072">
        <ele>289</ele>
        <time>2017-04-29T10:02:16Z</time>
      </trkpt>
      <trkpt lat="45.92424" lon="5.01071">
        <ele>289</ele>
        <time>2017-04-29T10:02:17Z</time>
      </trkpt>
      <trkpt lat="45.92428" lon="5.01071">
        <ele>289</ele>
        <time>2017-04-29T10:02:18Z</time>
      </trkpt>
      <trkpt lat="45.92433" lon="5.0107">
        <ele>289</ele>
        <time>2017-04-29T10:02:19Z</time>
      </trkpt>
      <trkpt lat="45.92437" lon="5.01069">
        <ele>288</ele>
        <time>2017-04-29T10:02:20Z</time>
      </trkpt>
      <trkpt lat="45.92442" lon="5.01068">
        <ele>288</ele>
        <time>2017-04-29T10:02:21Z</time>
      </trkpt>
      <trkpt lat="45.92447" lon="5.01068">
        <ele>288</ele>
        <time>2017-04-29T10:02:22Z</time>
      </trkpt>
      <trkpt lat="45.92451" lon="5.01068">
        <ele>288</ele>
        <time>2017-04-29T10:02:23Z</time>
      </trkpt>
      <trkpt lat="45.92456" lon="5.01068">
        <ele>288</ele>
        <time>2017-04-29T10:02:24Z</time>
      </trkpt>
      <trkpt lat="45.92461" lon="5.01067">
        <ele>288</ele>
        <time>2017-04-29T10:02:25Z</time>
      </trkpt>
      <trkpt lat="45.92465" lon="5.01067">
        <ele>288</ele>
        <time>2017-04-29T10:02:26Z</time>
      </trkpt>
      <trkpt lat="45.9247" lon="5.01066">
        <ele>288</ele>
        <time>2017-04-29T10:02:27Z</time>
      </trkpt>
      <trkpt lat="45.92475" lon="5.01066">
        <ele>288</ele>
        <time>2017-04-29T10:02:28Z</time>
      </trkpt>
      <trkpt lat="45.92481" lon="5.01065">
        <ele>288</ele>
        <time>2017-04-29T10:02:29Z</time>
      </trkpt>
      <trkpt lat="45.92486" lon="5.01065">
        <ele>288</ele>
        <time>2017-04-29T10:02:30Z</time>
      </trkpt>
      <trkpt lat="45.92491" lon="5.01065">
        <ele>288</ele>
        <time>2017-04-29T10:02:31Z</time>
      </trkpt>
      <trkpt lat="45.92496" lon="5.01065">
        <ele>288</ele>
        <time>2017-04-29T10:02:32Z</time>
      </trkpt>
      <trkpt lat="45.92501" lon="5.01065">
        <ele>288</ele>
        <time>2017-04-29T10:02:33Z</time>
      </trkpt>
      <trkpt lat="45.92506" lon="5.01064">
        <ele>288</ele>
        <time>2017-04-29T10:02:34Z</time>
      </trkpt>
      <trkpt lat="45.92511" lon="5.01064">
        <ele>288</ele>
        <time>2017-04-29T10:02:35Z</time>
      </trkpt>
      <trkpt lat="45.92516" lon="5.01064">
        <ele>288</ele>
        <time>2017-04-29T10:02:36Z</time>
      </trkpt>
      <trkpt lat="45.92521" lon="5.01064">
        <ele>288</ele>
        <time>2017-04-29T10:02:37Z</time>
      </trkpt>
      <trkpt lat="45.92526" lon="5.01063">
        <ele>288</ele>
        <time>2017-04-29T10:02:38Z</time>
      </trkpt>
      <trkpt lat="45.92531" lon="5.01063">
        <ele>288</ele>
        <time>2017-04-29T10:02:39Z</time>
      </trkpt>
      <trkpt lat="45.92536" lon="5.01062">
        <ele>288</ele>
        <time>2017-04-29T10:02:40Z</time>
      </trkpt>
      <trkpt lat="45.9254" lon="5.0106">
        <ele>288</ele>
        <time>2017-04-29T10:02:41Z</time>
      </trkpt>
      <trkpt lat="45.92545" lon="5.01058">
        <ele>288</ele>
        <time>2017-04-29T10:02:42Z</time>
      </trkpt>
      <trkpt lat="45.9255" lon="5.01056">
        <ele>288</ele>
        <time>2017-04-29T10:02:43Z</time>
      </trkpt>
      <trkpt lat="45.92556" lon="5.01054">
        <ele>288</ele>
        <time>2017-04-29T10:02:44Z</time>
      </trkpt>
      <trkpt lat="45.92561" lon="5.01052">
        <ele>288</ele>
        <time>2017-04-29T10:02:45Z</time>
      </trkpt>
      <trkpt lat="45.92566" lon="5.0105">
        <ele>288</ele>
        <time>2017-04-29T10:02:46Z</time>
      </trkpt>
      <trkpt lat="45.92571" lon="5.01049">
        <ele>288</ele>
        <time>2017-04-29T10:02:47Z</time>
      </trkpt>
      <trkpt lat="45.92576" lon="5.01047">
        <ele>288</ele>
        <time>2017-04-29T10:02:48Z</time>
      </trkpt>
      <trkpt lat="45.92582" lon="5.01045">
        <ele>288</ele>
        <time>2017-04-29T10:02:49Z</time>
      </trkpt>
      <trkpt lat="45.92587" lon="5.01043">
        <ele>288</ele>
        <time>2017-04-29T10:02:50Z</time>
      </trkpt>
      <trkpt lat="45.92593" lon="5.01041">
        <ele>288</ele>
        <time>2017-04-29T10:02:51Z</time>
      </trkpt>
      <trkpt lat="45.92598" lon="5.0104">
        <ele>288</ele>
        <time>2017-04-29T10:02:52Z</time>
      </trkpt>
      <trkpt lat="45.92604" lon="5.01037">
        <ele>288</ele>
        <time>2017-04-29T10:02:53Z</time>
      </trkpt>
      <trkpt lat="45.92609" lon="5.01036">
        <ele>288</ele>
        <time>2017-04-29T10:02:54Z</time>
      </trkpt>
      <trkpt lat="45.92614" lon="5.01034">
        <ele>288</ele>
        <time>2017-04-29T10:02:55Z</time>
      </trkpt>
      <trkpt lat="45.9262" lon="5.01032">
        <ele>288</ele>
        <time>2017-04-29T10:02:56Z</time>
      </trkpt>
      <trkpt lat="45.92625" lon="5.01032">
        <ele>288</ele>
        <time>2017-04-29T10:02:57Z</time>
      </trkpt>
      <trkpt lat="45.9263" lon="5.01031">
        <ele>288</ele>
        <time>2017-04-29T10:02:58Z</time>
      </trkpt>
      <trkpt lat="45.92634" lon="5.0103">
        <ele>289</ele>
        <time>2017-04-29T10:02:59Z</time>
      </trkpt>
      <trkpt lat="45.9264" lon="5.01029">
        <ele>289</ele>
        <time>2017-04-29T10:03:00Z</time>
      </trkpt>
      <trkpt lat="45.92644" lon="5.01027">
        <ele>289</ele>
        <time>2017-04-29T10:03:01Z</time>
      </trkpt>
      <trkpt lat="45.92649" lon="5.01024">
        <ele>289</ele>
        <time>2017-04-29T10:03:02Z</time>
      </trkpt>
      <trkpt lat="45.92656" lon="5.0102">
        <ele>289</ele>
        <time>2017-04-29T10:03:03Z</time>
      </trkpt>
      <trkpt lat="45.92662" lon="5.01017">
        <ele>289</ele>
        <time>2017-04-29T10:03:04Z</time>
      </trkpt>
      <trkpt lat="45.92667" lon="5.01014">
        <ele>289</ele>
        <time>2017-04-29T10:03:05Z</time>
      </trkpt>
      <trkpt lat="45.92672" lon="5.01011">
        <ele>289</ele>
        <time>2017-04-29T10:03:06Z</time>
      </trkpt>
      <trkpt lat="45.92677" lon="5.01007">
        <ele>289</ele>
        <time>2017-04-29T10:03:07Z</time>
      </trkpt>
      <trkpt lat="45.92682" lon="5.01003">
        <ele>288</ele>
        <time>2017-04-29T10:03:08Z</time>
      </trkpt>
      <trkpt lat="45.92688" lon="5.00997">
        <ele>288</ele>
        <time>2017-04-29T10:03:09Z</time>
      </trkpt>
      <trkpt lat="45.92692" lon="5.00993">
        <ele>287</ele>
        <time>2017-04-29T10:03:10Z</time>
      </trkpt>
      <trkpt lat="45.92697" lon="5.00989">
        <ele>287</ele>
        <time>2017-04-29T10:03:11Z</time>
      </trkpt>
      <trkpt lat="45.92702" lon="5.00984">
        <ele>287</ele>
        <time>2017-04-29T10:03:12Z</time>
      </trkpt>
      <trkpt lat="45.92706" lon="5.00979">
        <ele>287</ele>
        <time>2017-04-29T10:03:13Z</time>
      </trkpt>
      <trkpt lat="45.9271" lon="5.00975">
        <ele>287</ele>
        <time>2017-04-29T10:03:14Z</time>
      </trkpt>
      <trkpt lat="45.92713" lon="5.00971">
        <ele>287</ele>
        <time>2017-04-29T10:03:15Z</time>
      </trkpt>
      <trkpt lat="45.92717" lon="5.00966">
        <ele>287</ele>
        <time>2017-04-29T10:03:16Z</time>
      </trkpt>
      <trkpt lat="45.92721" lon="5.0096">
        <ele>287</ele>
        <time>2017-04-29T10:03:17Z</time>
      </trkpt>
      <trkpt lat="45.92726" lon="5.00955">
        <ele>287</ele>
        <time>2017-04-29T10:03:18Z</time>
      </trkpt>
      <trkpt lat="45.9273" lon="5.00949">
        <ele>287</ele>
        <time>2017-04-29T10:03:19Z</time>
      </trkpt>
      <trkpt lat="45.92735" lon="5.00944">
        <ele>287</ele>
        <time>2017-04-29T10:03:20Z</time>
      </trkpt>
      <trkpt lat="45.9274" lon="5.00939">
        <ele>287</ele>
        <time>2017-04-29T10:03:21Z</time>
      </trkpt>
      <trkpt lat="45.92745" lon="5.00933">
        <ele>287</ele>
        <time>2017-04-29T10:03:22Z</time>
      </trkpt>
      <trkpt lat="45.9275" lon="5.00928">
        <ele>287</ele>
        <time>2017-04-29T10:03:23Z</time>
      </trkpt>
      <trkpt lat="45.92755" lon="5.00923">
        <ele>287</ele>
        <time>2017-04-29T10:03:24Z</time>
      </trkpt>
      <trkpt lat="45.9276" lon="5.00918">
        <ele>287</ele>
        <time>2017-04-29T10:03:25Z</time>
      </trkpt>
      <trkpt lat="45.92765" lon="5.00913">
        <ele>287</ele>
        <time>2017-04-29T10:03:26Z</time>
      </trkpt>
      <trkpt lat="45.92769" lon="5.00907">
        <ele>287</ele>
        <time>2017-04-29T10:03:27Z</time>
      </trkpt>
      <trkpt lat="45.92773" lon="5.00903">
        <ele>287</ele>
        <time>2017-04-29T10:03:28Z</time>
      </trkpt>
      <trkpt lat="45.92777" lon="5.00898">
        <ele>287</ele>
        <time>2017-04-29T10:03:29Z</time>
      </trkpt>
      <trkpt lat="45.9278" lon="5.00893">
        <ele>287</ele>
        <time>2017-04-29T10:03:30Z</time>
      </trkpt>
      <trkpt lat="45.92784" lon="5.00889">
        <ele>287</ele>
        <time>2017-04-29T10:03:31Z</time>
      </trkpt>
      <trkpt lat="45.92787" lon="5.00885">
        <ele>287</ele>
        <time>2017-04-29T10:03:32Z</time>
      </trkpt>
      <trkpt lat="45.92791" lon="5.00881">
        <ele>287</ele>
        <time>2017-04-29T10:03:33Z</time>
      </trkpt>
      <trkpt lat="45.92794" lon="5.00876">
        <ele>287</ele>
        <time>2017-04-29T10:03:34Z</time>
      </trkpt>
      <trkpt lat="45.92798" lon="5.00871">
        <ele>287</ele>
        <time>2017-04-29T10:03:35Z</time>
      </trkpt>
      <trkpt lat="45.92802" lon="5.00866">
        <ele>287</ele>
        <time>2017-04-29T10:03:36Z</time>
      </trkpt>
      <trkpt lat="45.92805" lon="5.0086">
        <ele>287</ele>
        <time>2017-04-29T10:03:37Z</time>
      </trkpt>
      <trkpt lat="45.92809" lon="5.00855">
        <ele>287</ele>
        <time>2017-04-29T10:03:38Z</time>
      </trkpt>
      <trkpt lat="45.92812" lon="5.00849">
        <ele>287</ele>
        <time>2017-04-29T10:03:39Z</time>
      </trkpt>
      <trkpt lat="45.92815" lon="5.00844">
        <ele>287</ele>
        <time>2017-04-29T10:03:40Z</time>
      </trkpt>
      <trkpt lat="45.92818" lon="5.00838">
        <ele>287</ele>
        <time>2017-04-29T10:03:41Z</time>
      </trkpt>
      <trkpt lat="45.92821" lon="5.00832">
        <ele>287</ele>
        <time>2017-04-29T10:03:42Z</time>
      </trkpt>
      <trkpt lat="45.92824" lon="5.00826">
        <ele>287</ele>
        <time>2017-04-29T10:03:43Z</time>
      </trkpt>
      <trkpt lat="45.92827" lon="5.0082">
        <ele>287</ele>
        <time>2017-04-29T10:03:44Z</time>
      </trkpt>
      <trkpt lat="45.92829" lon="5.00814">
        <ele>287</ele>
        <time>2017-04-29T10:03:45Z</time>
      </trkpt>
      <trkpt lat="45.92832" lon="5.00808">
        <ele>287</ele>
        <time>2017-04-29T10:03:46Z</time>
      </trkpt>
      <trkpt lat="45.92835" lon="5.00802">
        <ele>287</ele>
        <time>2017-04-29T10:03:47Z</time>
      </trkpt>
      <trkpt lat="45.92837" lon="5.00796">
        <ele>287</ele>
        <time>2017-04-29T10:03:48Z</time>
      </trkpt>
      <trkpt lat="45.9284" lon="5.0079">
        <ele>287</ele>
        <time>2017-04-29T10:03:49Z</time>
      </trkpt>
      <trkpt lat="45.92843" lon="5.00784">
        <ele>287</ele>
        <time>2017-04-29T10:03:50Z</time>
      </trkpt>
      <trkpt lat="45.92846" lon="5.00779">
        <ele>287</ele>
        <time>2017-04-29T10:03:51Z</time>
      </trkpt>
      <trkpt lat="45.9285" lon="5.00773">
        <ele>287</ele>
        <time>2017-04-29T10:03:52Z</time>
      </trkpt>
      <trkpt lat="45.92853" lon="5.00768">
        <ele>287</ele>
        <time>2017-04-29T10:03:53Z</time>
      </trkpt>
      <trkpt lat="45.9286" lon="5.0076">
        <ele>287</ele>
        <time>2017-04-29T10:03:55Z</time>
      </trkpt>
      <trkpt lat="45.92863" lon="5.00756">
        <ele>287</ele>
        <time>2017-04-29T10:03:56Z</time>
      </trkpt>
      <trkpt lat="45.92868" lon="5.00749">
        <ele>287</ele>
        <time>2017-04-29T10:03:58Z</time>
      </trkpt>
      <trkpt lat="45.92871" lon="5.00746">
        <ele>287</ele>
        <time>2017-04-29T10:03:59Z</time>
      </trkpt>
      <trkpt lat="45.92876" lon="5.00741">
        <ele>288</ele>
        <time>2017-04-29T10:04:01Z</time>
      </trkpt>
      <trkpt lat="45.92879" lon="5.00738">
        <ele>288</ele>
        <time>2017-04-29T10:04:02Z</time>
      </trkpt>
      <trkpt lat="45.92886" lon="5.00734">
        <ele>288</ele>
        <time>2017-04-29T10:04:04Z</time>
      </trkpt>
      <trkpt lat="45.9289" lon="5.00731">
        <ele>288</ele>
        <time>2017-04-29T10:04:05Z</time>
      </trkpt>
      <trkpt lat="45.92894" lon="5.00729">
        <ele>288</ele>
        <time>2017-04-29T10:04:06Z</time>
      </trkpt>
      <trkpt lat="45.92899" lon="5.00726">
        <ele>288</ele>
        <time>2017-04-29T10:04:07Z</time>
      </trkpt>
      <trkpt lat="45.92903" lon="5.00723">
        <ele>288</ele>
        <time>2017-04-29T10:04:08Z</time>
      </trkpt>
      <trkpt lat="45.92908" lon="5.0072">
        <ele>288</ele>
        <time>2017-04-29T10:04:09Z</time>
      </trkpt>
      <trkpt lat="45.92912" lon="5.00716">
        <ele>288</ele>
        <time>2017-04-29T10:04:10Z</time>
      </trkpt>
      <trkpt lat="45.92916" lon="5.00713">
        <ele>288</ele>
        <time>2017-04-29T10:04:11Z</time>
      </trkpt>
      <trkpt lat="45.92921" lon="5.0071">
        <ele>287</ele>
        <time>2017-04-29T10:04:12Z</time>
      </trkpt>
      <trkpt lat="45.92925" lon="5.00708">
        <ele>287</ele>
        <time>2017-04-29T10:04:13Z</time>
      </trkpt>
      <trkpt lat="45.9293" lon="5.00705">
        <ele>287</ele>
        <time>2017-04-29T10:04:14Z</time>
      </trkpt>
      <trkpt lat="45.92934" lon="5.00702">
        <ele>287</ele>
        <time>2017-04-29T10:04:15Z</time>
      </trkpt>
      <trkpt lat="45.92938" lon="5.007">
        <ele>287</ele>
        <time>2017-04-29T10:04:16Z</time>
      </trkpt>
      <trkpt lat="45.92943" lon="5.00696">
        <ele>287</ele>
        <time>2017-04-29T10:04:17Z</time>
      </trkpt>
      <trkpt lat="45.92948" lon="5.00692">
        <ele>287</ele>
        <time>2017-04-29T10:04:18Z</time>
      </trkpt>
      <trkpt lat="45.92952" lon="5.00689">
        <ele>287</ele>
        <time>2017-04-29T10:04:19Z</time>
      </trkpt>
      <trkpt lat="45.92956" lon="5.00686">
        <ele>287</ele>
        <time>2017-04-29T10:04:20Z</time>
      </trkpt>
      <trkpt lat="45.92961" lon="5.00683">
        <ele>287</ele>
        <time>2017-04-29T10:04:21Z</time>
      </trkpt>
      <trkpt lat="45.92966" lon="5.0068">
        <ele>287</ele>
        <time>2017-04-29T10:04:22Z</time>
      </trkpt>
      <trkpt lat="45.92971" lon="5.00677">
        <ele>287</ele>
        <time>2017-04-29T10:04:23Z</time>
      </trkpt>
      <trkpt lat="45.92976" lon="5.00673">
        <ele>287</ele>
        <time>2017-04-29T10:04:24Z</time>
      </trkpt>
      <trkpt lat="45.92982" lon="5.0067">
        <ele>287</ele>
        <time>2017-04-29T10:04:25Z</time>
      </trkpt>
      <trkpt lat="45.92987" lon="5.00667">
        <ele>287</ele>
        <time>2017-04-29T10:04:26Z</time>
      </trkpt>
      <trkpt lat="45.92992" lon="5.00664">
        <ele>287</ele>
        <time>2017-04-29T10:04:27Z</time>
      </trkpt>
      <trkpt lat="45.92997" lon="5.00662">
        <ele>287</ele>
        <time>2017-04-29T10:04:28Z</time>
      </trkpt>
      <trkpt lat="45.93003" lon="5.0066">
        <ele>287</ele>
        <time>2017-04-29T10:04:29Z</time>
      </trkpt>
      <trkpt lat="45.93008" lon="5.00658">
        <ele>287</ele>
        <time>2017-04-29T10:04:30Z</time>
      </trkpt>
      <trkpt lat="45.93014" lon="5.00657">
        <ele>286</ele>
        <time>2017-04-29T10:04:31Z</time>
      </trkpt>
      <trkpt lat="45.93019" lon="5.00656">
        <ele>286</ele>
        <time>2017-04-29T10:04:32Z</time>
      </trkpt>
      <trkpt lat="45.93025" lon="5.00655">
        <ele>286</ele>
        <time>2017-04-29T10:04:33Z</time>
      </trkpt>
      <trkpt lat="45.93031" lon="5.00654">
        <ele>286</ele>
        <time>2017-04-29T10:04:34Z</time>
      </trkpt>
      <trkpt lat="45.93037" lon="5.00653">
        <ele>286</ele>
        <time>2017-04-29T10:04:35Z</time>
      </trkpt>
      <trkpt lat="45.93043" lon="5.00653">
        <ele>286</ele>
        <time>2017-04-29T10:04:36Z</time>
      </trkpt>
      <trkpt lat="45.9305" lon="5.00652">
        <ele>286</ele>
        <time>2017-04-29T10:04:37Z</time>
      </trkpt>
      <trkpt lat="45.93056" lon="5.00652">
        <ele>286</ele>
        <time>2017-04-29T10:04:38Z</time>
      </trkpt>
      <trkpt lat="45.93062" lon="5.00651">
        <ele>286</ele>
        <time>2017-04-29T10:04:39Z</time>
      </trkpt>
      <trkpt lat="45.93067" lon="5.00651">
        <ele>286</ele>
        <time>2017-04-29T10:04:40Z</time>
      </trkpt>
      <trkpt lat="45.93072" lon="5.0065">
        <ele>286</ele>
        <time>2017-04-29T10:04:41Z</time>
      </trkpt>
      <trkpt lat="45.93076" lon="5.00649">
        <ele>286</ele>
        <time>2017-04-29T10:04:42Z</time>
      </trkpt>
      <trkpt lat="45.93081" lon="5.00648">
        <ele>286</ele>
        <time>2017-04-29T10:04:43Z</time>
      </trkpt>
      <trkpt lat="45.93086" lon="5.00646">
        <ele>286</ele>
        <time>2017-04-29T10:04:44Z</time>
      </trkpt>
      <trkpt lat="45.93091" lon="5.00645">
        <ele>286</ele>
        <time>2017-04-29T10:04:45Z</time>
      </trkpt>
      <trkpt lat="45.93095" lon="5.00645">
        <ele>286</ele>
        <time>2017-04-29T10:04:46Z</time>
      </trkpt>
      <trkpt lat="45.931" lon="5.00644">
        <ele>286</ele>
        <time>2017-04-29T10:04:47Z</time>
      </trkpt>
      <trkpt lat="45.93105" lon="5.00643">
        <ele>286</ele>
        <time>2017-04-29T10:04:48Z</time>
      </trkpt>
      <trkpt lat="45.9311" lon="5.00642">
        <ele>286</ele>
        <time>2017-04-29T10:04:49Z</time>
      </trkpt>
      <trkpt lat="45.93119" lon="5.00642">
        <ele>286</ele>
        <time>2017-04-29T10:04:51Z</time>
      </trkpt>
      <trkpt lat="45.93124" lon="5.00641">
        <ele>287</ele>
        <time>2017-04-29T10:04:52Z</time>
      </trkpt>
      <trkpt lat="45.93132" lon="5.00642">
        <ele>287</ele>
        <time>2017-04-29T10:04:54Z</time>
      </trkpt>
      <trkpt lat="45.93137" lon="5.00642">
        <ele>287</ele>
        <time>2017-04-29T10:04:55Z</time>
      </trkpt>
      <trkpt lat="45.93146" lon="5.00641">
        <ele>287</ele>
        <time>2017-04-29T10:04:57Z</time>
      </trkpt>
      <trkpt lat="45.9315" lon="5.00641">
        <ele>287</ele>
        <time>2017-04-29T10:04:58Z</time>
      </trkpt>
      <trkpt lat="45.93155" lon="5.00641">
        <ele>287</ele>
        <time>2017-04-29T10:04:59Z</time>
      </trkpt>
      <trkpt lat="45.9316" lon="5.0064">
        <ele>287</ele>
        <time>2017-04-29T10:05:00Z</time>
      </trkpt>
      <trkpt lat="45.93166" lon="5.00639">
        <ele>287</ele>
        <time>2017-04-29T10:05:01Z</time>
      </trkpt>
      <trkpt lat="45.93172" lon="5.00638">
        <ele>290</ele>
        <time>2017-04-29T10:05:02Z</time>
      </trkpt>
      <trkpt lat="45.93178" lon="5.00637">
        <ele>290</ele>
        <time>2017-04-29T10:05:03Z</time>
      </trkpt>
      <trkpt lat="45.93185" lon="5.00635">
        <ele>290</ele>
        <time>2017-04-29T10:05:04Z</time>
      </trkpt>
      <trkpt lat="45.9319" lon="5.00632">
        <ele>291</ele>
        <time>2017-04-29T10:05:05Z</time>
      </trkpt>
      <trkpt lat="45.93198" lon="5.00629">
        <ele>291</ele>
        <time>2017-04-29T10:05:06Z</time>
      </trkpt>
      <trkpt lat="45.93204" lon="5.00625">
        <ele>291</ele>
        <time>2017-04-29T10:05:07Z</time>
      </trkpt>
      <trkpt lat="45.93211" lon="5.0062">
        <ele>291</ele>
        <time>2017-04-29T10:05:08Z</time>
      </trkpt>
      <trkpt lat="45.93218" lon="5.00616">
        <ele>292</ele>
        <time>2017-04-29T10:05:09Z</time>
      </trkpt>
      <trkpt lat="45.93224" lon="5.00611">
        <ele>292</ele>
        <time>2017-04-29T10:05:10Z</time>
      </trkpt>
      <trkpt lat="45.9323" lon="5.00606">
        <ele>292</ele>
        <time>2017-04-29T10:05:11Z</time>
      </trkpt>
      <trkpt lat="45.93236" lon="5.00601">
        <ele>292</ele>
        <time>2017-04-29T10:05:12Z</time>
      </trkpt>
      <trkpt lat="45.93242" lon="5.00596">
        <ele>293</ele>
        <time>2017-04-29T10:05:13Z</time>
      </trkpt>
      <trkpt lat="45.93248" lon="5.00591">
        <ele>293</ele>
        <time>2017-04-29T10:05:14Z</time>
      </trkpt>
      <trkpt lat="45.93253" lon="5.00587">
        <ele>294</ele>
        <time>2017-04-29T10:05:15Z</time>
      </trkpt>
      <trkpt lat="45.93257" lon="5.00583">
        <ele>294</ele>
        <time>2017-04-29T10:05:16Z</time>
      </trkpt>
      <trkpt lat="45.93262" lon="5.00579">
        <ele>295</ele>
        <time>2017-04-29T10:05:17Z</time>
      </trkpt>
      <trkpt lat="45.93266" lon="5.00575">
        <ele>295</ele>
        <time>2017-04-29T10:05:18Z</time>
      </trkpt>
      <trkpt lat="45.93271" lon="5.00571">
        <ele>295</ele>
        <time>2017-04-29T10:05:19Z</time>
      </trkpt>
      <trkpt lat="45.93275" lon="5.00566">
        <ele>295</ele>
        <time>2017-04-29T10:05:20Z</time>
      </trkpt>
      <trkpt lat="45.9328" lon="5.00562">
        <ele>296</ele>
        <time>2017-04-29T10:05:21Z</time>
      </trkpt>
      <trkpt lat="45.93285" lon="5.00556">
        <ele>296</ele>
        <time>2017-04-29T10:05:22Z</time>
      </trkpt>
      <trkpt lat="45.93289" lon="5.00549">
        <ele>296</ele>
        <time>2017-04-29T10:05:23Z</time>
      </trkpt>
      <trkpt lat="45.93293" lon="5.00542">
        <ele>296</ele>
        <time>2017-04-29T10:05:24Z</time>
      </trkpt>
      <trkpt lat="45.93297" lon="5.00535">
        <ele>296</ele>
        <time>2017-04-29T10:05:25Z</time>
      </trkpt>
      <trkpt lat="45.933" lon="5.00529">
        <ele>296</ele>
        <time>2017-04-29T10:05:26Z</time>
      </trkpt>
      <trkpt lat="45.93303" lon="5.00522">
        <ele>296</ele>
        <time>2017-04-29T10:05:27Z</time>
      </trkpt>
      <trkpt lat="45.93306" lon="5.00515">
        <ele>296</ele>
        <time>2017-04-29T10:05:28Z</time>
      </trkpt>
      <trkpt lat="45.93309" lon="5.00509">
        <ele>296</ele>
        <time>2017-04-29T10:05:29Z</time>
      </trkpt>
      <trkpt lat="45.93312" lon="5.00503">
        <ele>296</ele>
        <time>2017-04-29T10:05:30Z</time>
      </trkpt>
      <trkpt lat="45.93317" lon="5.00492">
        <ele>296</ele>
        <time>2017-04-29T10:05:32Z</time>
      </trkpt>
      <trkpt lat="45.9332" lon="5.00487">
        <ele>296</ele>
        <time>2017-04-29T10:05:33Z</time>
      </trkpt>
      <trkpt lat="45.93324" lon="5.00481">
        <ele>296</ele>
        <time>2017-04-29T10:05:34Z</time>
      </trkpt>
      <trkpt lat="45.93328" lon="5.00477">
        <ele>296</ele>
        <time>2017-04-29T10:05:35Z</time>
      </trkpt>
      <trkpt lat="45.93331" lon="5.00473">
        <ele>295</ele>
        <time>2017-04-29T10:05:36Z</time>
      </trkpt>
      <trkpt lat="45.93335" lon="5.00468">
        <ele>297</ele>
        <time>2017-04-29T10:05:37Z</time>
      </trkpt>
      <trkpt lat="45.93339" lon="5.00464">
        <ele>297</ele>
        <time>2017-04-29T10:05:38Z</time>
      </trkpt>
      <trkpt lat="45.93343" lon="5.00459">
        <ele>297</ele>
        <time>2017-04-29T10:05:39Z</time>
      </trkpt>
      <trkpt lat="45.93346" lon="5.00455">
        <ele>297</ele>
        <time>2017-04-29T10:05:40Z</time>
      </trkpt>
      <trkpt lat="45.9335" lon="5.00451">
        <ele>297</ele>
        <time>2017-04-29T10:05:41Z</time>
      </trkpt>
      <trkpt lat="45.93356" lon="5.00443">
        <ele>297</ele>
        <time>2017-04-29T10:05:43Z</time>
      </trkpt>
      <trkpt lat="45.93361" lon="5.00438">
        <ele>297</ele>
        <time>2017-04-29T10:05:44Z</time>
      </trkpt>
      <trkpt lat="45.93364" lon="5.00433">
        <ele>297</ele>
        <time>2017-04-29T10:05:45Z</time>
      </trkpt>
      <trkpt lat="45.93369" lon="5.00428">
        <ele>297</ele>
        <time>2017-04-29T10:05:46Z</time>
      </trkpt>
      <trkpt lat="45.93373" lon="5.00423">
        <ele>297</ele>
        <time>2017-04-29T10:05:47Z</time>
      </trkpt>
      <trkpt lat="45.93378" lon="5.00418">
        <ele>297</ele>
        <time>2017-04-29T10:05:48Z</time>
      </trkpt>
      <trkpt lat="45.93382" lon="5.00414">
        <ele>297</ele>
        <time>2017-04-29T10:05:49Z</time>
      </trkpt>
      <trkpt lat="45.93386" lon="5.0041">
        <ele>297</ele>
        <time>2017-04-29T10:05:50Z</time>
      </trkpt>
      <trkpt lat="45.9339" lon="5.00406">
        <ele>297</ele>
        <time>2017-04-29T10:05:51Z</time>
      </trkpt>
      <trkpt lat="45.93395" lon="5.00401">
        <ele>297</ele>
        <time>2017-04-29T10:05:52Z</time>
      </trkpt>
      <trkpt lat="45.93399" lon="5.00398">
        <ele>297</ele>
        <time>2017-04-29T10:05:53Z</time>
      </trkpt>
      <trkpt lat="45.93404" lon="5.00394">
        <ele>297</ele>
        <time>2017-04-29T10:05:54Z</time>
      </trkpt>
      <trkpt lat="45.93409" lon="5.0039">
        <ele>297</ele>
        <time>2017-04-29T10:05:55Z</time>
      </trkpt>
      <trkpt lat="45.93413" lon="5.00387">
        <ele>297</ele>
        <time>2017-04-29T10:05:56Z</time>
      </trkpt>
      <trkpt lat="45.93418" lon="5.00383">
        <ele>296</ele>
        <time>2017-04-29T10:05:57Z</time>
      </trkpt>
      <trkpt lat="45.93423" lon="5.0038">
        <ele>296</ele>
        <time>2017-04-29T10:05:58Z</time>
      </trkpt>
      <trkpt lat="45.93428" lon="5.00377">
        <ele>296</ele>
        <time>2017-04-29T10:05:59Z</time>
      </trkpt>
      <trkpt lat="45.93433" lon="5.00373">
        <ele>296</ele>
        <time>2017-04-29T10:06:00Z</time>
      </trkpt>
      <trkpt lat="45.93438" lon="5.0037">
        <ele>296</ele>
        <time>2017-04-29T10:06:01Z</time>
      </trkpt>
      <trkpt lat="45.93443" lon="5.00367">
        <ele>296</ele>
        <time>2017-04-29T10:06:02Z</time>
      </trkpt>
      <trkpt lat="45.93447" lon="5.00365">
        <ele>296</ele>
        <time>2017-04-29T10:06:03Z</time>
      </trkpt>
      <trkpt lat="45.93452" lon="5.00362">
        <ele>295</ele>
        <time>2017-04-29T10:06:04Z</time>
      </trkpt>
      <trkpt lat="45.93457" lon="5.00359">
        <ele>295</ele>
        <time>2017-04-29T10:06:05Z</time>
      </trkpt>
      <trkpt lat="45.93462" lon="5.00356">
        <ele>295</ele>
        <time>2017-04-29T10:06:06Z</time>
      </trkpt>
      <trkpt lat="45.93467" lon="5.00352">
        <ele>295</ele>
        <time>2017-04-29T10:06:07Z</time>
      </trkpt>
      <trkpt lat="45.93472" lon="5.00348">
        <ele>295</ele>
        <time>2017-04-29T10:06:08Z</time>
      </trkpt>
      <trkpt lat="45.93477" lon="5.00345">
        <ele>294</ele>
        <time>2017-04-29T10:06:09Z</time>
      </trkpt>
      <trkpt lat="45.93483" lon="5.00342">
        <ele>294</ele>
        <time>2017-04-29T10:06:10Z</time>
      </trkpt>
      <trkpt lat="45.93489" lon="5.00339">
        <ele>294</ele>
        <time>2017-04-29T10:06:11Z</time>
      </trkpt>
      <trkpt lat="45.93494" lon="5.00335">
        <ele>293</ele>
        <time>2017-04-29T10:06:12Z</time>
      </trkpt>
      <trkpt lat="45.935" lon="5.00332">
        <ele>293</ele>
        <time>2017-04-29T10:06:13Z</time>
      </trkpt>
      <trkpt lat="45.93507" lon="5.00328">
        <ele>293</ele>
        <time>2017-04-29T10:06:14Z</time>
      </trkpt>
      <trkpt lat="45.93512" lon="5.00325">
        <ele>292</ele>
        <time>2017-04-29T10:06:15Z</time>
      </trkpt>
      <trkpt lat="45.93517" lon="5.00321">
        <ele>292</ele>
        <time>2017-04-29T10:06:16Z</time>
      </trkpt>
      <trkpt lat="45.93522" lon="5.00319">
        <ele>292</ele>
        <time>2017-04-29T10:06:17Z</time>
      </trkpt>
      <trkpt lat="45.93527" lon="5.00317">
        <ele>292</ele>
        <time>2017-04-29T10:06:18Z</time>
      </trkpt>
      <trkpt lat="45.93533" lon="5.00315">
        <ele>292</ele>
        <time>2017-04-29T10:06:19Z</time>
      </trkpt>
      <trkpt lat="45.93538" lon="5.00313">
        <ele>292</ele>
        <time>2017-04-29T10:06:20Z</time>
      </trkpt>
      <trkpt lat="45.93543" lon="5.00311">
        <ele>292</ele>
        <time>2017-04-29T10:06:21Z</time>
      </trkpt>
      <trkpt lat="45.93548" lon="5.00309">
        <ele>292</ele>
        <time>2017-04-29T10:06:22Z</time>
      </trkpt>
      <trkpt lat="45.93553" lon="5.00308">
        <ele>292</ele>
        <time>2017-04-29T10:06:23Z</time>
      </trkpt>
      <trkpt lat="45.93558" lon="5.00306">
        <ele>292</ele>
        <time>2017-04-29T10:06:24Z</time>
      </trkpt>
      <trkpt lat="45.93564" lon="5.00305">
        <ele>292</ele>
        <time>2017-04-29T10:06:25Z</time>
      </trkpt>
      <trkpt lat="45.93569" lon="5.00303">
        <ele>292</ele>
        <time>2017-04-29T10:06:26Z</time>
      </trkpt>
      <trkpt lat="45.93574" lon="5.00302">
        <ele>292</ele>
        <time>2017-04-29T10:06:27Z</time>
      </trkpt>
      <trkpt lat="45.93578" lon="5.00301">
        <ele>292</ele>
        <time>2017-04-29T10:06:28Z</time>
      </trkpt>
      <trkpt lat="45.93583" lon="5.00299">
        <ele>292</ele>
        <time>2017-04-29T10:06:29Z</time>
      </trkpt>
      <trkpt lat="45.93587" lon="5.00297">
        <ele>291</ele>
        <time>2017-04-29T10:06:30Z</time>
      </trkpt>
      <trkpt lat="45.93592" lon="5.00296">
        <ele>291</ele>
        <time>2017-04-29T10:06:31Z</time>
      </trkpt>
      <trkpt lat="45.93598" lon="5.00294">
        <ele>291</ele>
        <time>2017-04-29T10:06:32Z</time>
      </trkpt>
      <trkpt lat="45.93603" lon="5.00293">
        <ele>291</ele>
        <time>2017-04-29T10:06:33Z</time>
      </trkpt>
      <trkpt lat="45.93608" lon="5.00291">
        <ele>291</ele>
        <time>2017-04-29T10:06:34Z</time>
      </trkpt>
      <trkpt lat="45.93613" lon="5.0029">
        <ele>291</ele>
        <time>2017-04-29T10:06:35Z</time>
      </trkpt>
      <trkpt lat="45.93619" lon="5.00288">
        <ele>291</ele>
        <time>2017-04-29T10:06:36Z</time>
      </trkpt>
      <trkpt lat="45.93624" lon="5.00287">
        <ele>291</ele>
        <time>2017-04-29T10:06:37Z</time>
      </trkpt>
      <trkpt lat="45.9363" lon="5.00286">
        <ele>290</ele>
        <time>2017-04-29T10:06:38Z</time>
      </trkpt>
      <trkpt lat="45.93635" lon="5.00285">
        <ele>290</ele>
        <time>2017-04-29T10:06:39Z</time>
      </trkpt>
      <trkpt lat="45.93641" lon="5.00284">
        <ele>290</ele>
        <time>2017-04-29T10:06:40Z</time>
      </trkpt>
      <trkpt lat="45.93646" lon="5.00283">
        <ele>290</ele>
        <time>2017-04-29T10:06:41Z</time>
      </trkpt>
      <trkpt lat="45.93651" lon="5.00283">
        <ele>290</ele>
        <time>2017-04-29T10:06:42Z</time>
      </trkpt>
      <trkpt lat="45.93657" lon="5.00284">
        <ele>290</ele>
        <time>2017-04-29T10:06:43Z</time>
      </trkpt>
      <trkpt lat="45.93663" lon="5.00284">
        <ele>290</ele>
        <time>2017-04-29T10:06:44Z</time>
      </trkpt>
      <trkpt lat="45.93668" lon="5.00284">
        <ele>289</ele>
        <time>2017-04-29T10:06:45Z</time>
      </trkpt>
      <trkpt lat="45.93675" lon="5.00285">
        <ele>289</ele>
        <time>2017-04-29T10:06:46Z</time>
      </trkpt>
      <trkpt lat="45.9368" lon="5.00285">
        <ele>289</ele>
        <time>2017-04-29T10:06:47Z</time>
      </trkpt>
      <trkpt lat="45.93685" lon="5.00286">
        <ele>289</ele>
        <time>2017-04-29T10:06:48Z</time>
      </trkpt>
      <trkpt lat="45.9369" lon="5.00286">
        <ele>289</ele>
        <time>2017-04-29T10:06:49Z</time>
      </trkpt>
      <trkpt lat="45.93694" lon="5.00287">
        <ele>289</ele>
        <time>2017-04-29T10:06:50Z</time>
      </trkpt>
      <trkpt lat="45.93703" lon="5.00288">
        <ele>289</ele>
        <time>2017-04-29T10:06:52Z</time>
      </trkpt>
      <trkpt lat="45.93707" lon="5.00289">
        <ele>289</ele>
        <time>2017-04-29T10:06:53Z</time>
      </trkpt>
      <trkpt lat="45.93716" lon="5.00289">
        <ele>289</ele>
        <time>2017-04-29T10:06:55Z</time>
      </trkpt>
      <trkpt lat="45.9372" lon="5.00289">
        <ele>289</ele>
        <time>2017-04-29T10:06:56Z</time>
      </trkpt>
      <trkpt lat="45.93725" lon="5.00288">
        <ele>289</ele>
        <time>2017-04-29T10:06:57Z</time>
      </trkpt>
      <trkpt lat="45.93729" lon="5.00288">
        <ele>289</ele>
        <time>2017-04-29T10:06:58Z</time>
      </trkpt>
      <trkpt lat="45.93734" lon="5.0029">
        <ele>289</ele>
        <time>2017-04-29T10:06:59Z</time>
      </trkpt>
      <trkpt lat="45.93739" lon="5.00291">
        <ele>289</ele>
        <time>2017-04-29T10:07:00Z</time>
      </trkpt>
      <trkpt lat="45.93748" lon="5.00292">
        <ele>289</ele>
        <time>2017-04-29T10:07:02Z</time>
      </trkpt>
      <trkpt lat="45.93752" lon="5.00293">
        <ele>289</ele>
        <time>2017-04-29T10:07:03Z</time>
      </trkpt>
      <trkpt lat="45.93757" lon="5.00293">
        <ele>289</ele>
        <time>2017-04-29T10:07:04Z</time>
      </trkpt>
      <trkpt lat="45.93763" lon="5.00293">
        <ele>289</ele>
        <time>2017-04-29T10:07:05Z</time>
      </trkpt>
      <trkpt lat="45.93768" lon="5.00294">
        <ele>289</ele>
        <time>2017-04-29T10:07:06Z</time>
      </trkpt>
      <trkpt lat="45.93773" lon="5.00295">
        <ele>289</ele>
        <time>2017-04-29T10:07:07Z</time>
      </trkpt>
      <trkpt lat="45.93778" lon="5.00295">
        <ele>289</ele>
        <time>2017-04-29T10:07:08Z</time>
      </trkpt>
      <trkpt lat="45.93783" lon="5.00296">
        <ele>289</ele>
        <time>2017-04-29T10:07:09Z</time>
      </trkpt>
      <trkpt lat="45.93788" lon="5.00296">
        <ele>289</ele>
        <time>2017-04-29T10:07:10Z</time>
      </trkpt>
      <trkpt lat="45.93793" lon="5.00297">
        <ele>289</ele>
        <time>2017-04-29T10:07:11Z</time>
      </trkpt>
      <trkpt lat="45.93798" lon="5.00298">
        <ele>289</ele>
        <time>2017-04-29T10:07:12Z</time>
      </trkpt>
      <trkpt lat="45.93803" lon="5.00298">
        <ele>289</ele>
        <time>2017-04-29T10:07:13Z</time>
      </trkpt>
      <trkpt lat="45.93808" lon="5.003">
        <ele>289</ele>
        <time>2017-04-29T10:07:14Z</time>
      </trkpt>
      <trkpt lat="45.93812" lon="5.00301">
        <ele>289</ele>
        <time>2017-04-29T10:07:15Z</time>
      </trkpt>
      <trkpt lat="45.93817" lon="5.00302">
        <ele>289</ele>
        <time>2017-04-29T10:07:16Z</time>
      </trkpt>
      <trkpt lat="45.93822" lon="5.00303">
        <ele>289</ele>
        <time>2017-04-29T10:07:17Z</time>
      </trkpt>
      <trkpt lat="45.93828" lon="5.00304">
        <ele>289</ele>
        <time>2017-04-29T10:07:18Z</time>
      </trkpt>
      <trkpt lat="45.93833" lon="5.00306">
        <ele>289</ele>
        <time>2017-04-29T10:07:19Z</time>
      </trkpt>
      <trkpt lat="45.93838" lon="5.00307">
        <ele>288</ele>
        <time>2017-04-29T10:07:20Z</time>
      </trkpt>
      <trkpt lat="45.93844" lon="5.00309">
        <ele>288</ele>
        <time>2017-04-29T10:07:21Z</time>
      </trkpt>
      <trkpt lat="45.9385" lon="5.00311">
        <ele>288</ele>
        <time>2017-04-29T10:07:22Z</time>
      </trkpt>
      <trkpt lat="45.93856" lon="5.00313">
        <ele>288</ele>
        <time>2017-04-29T10:07:23Z</time>
      </trkpt>
      <trkpt lat="45.93862" lon="5.00315">
        <ele>288</ele>
        <time>2017-04-29T10:07:24Z</time>
      </trkpt>
      <trkpt lat="45.93867" lon="5.00317">
        <ele>288</ele>
        <time>2017-04-29T10:07:25Z</time>
      </trkpt>
      <trkpt lat="45.93874" lon="5.00319">
        <ele>288</ele>
        <time>2017-04-29T10:07:26Z</time>
      </trkpt>
      <trkpt lat="45.9388" lon="5.00321">
        <ele>288</ele>
        <time>2017-04-29T10:07:27Z</time>
      </trkpt>
      <trkpt lat="45.93886" lon="5.00323">
        <ele>288</ele>
        <time>2017-04-29T10:07:28Z</time>
      </trkpt>
      <trkpt lat="45.93892" lon="5.00325">
        <ele>287</ele>
        <time>2017-04-29T10:07:29Z</time>
      </trkpt>
      <trkpt lat="45.93898" lon="5.00327">
        <ele>287</ele>
        <time>2017-04-29T10:07:30Z</time>
      </trkpt>
      <trkpt lat="45.93905" lon="5.00329">
        <ele>287</ele>
        <time>2017-04-29T10:07:31Z</time>
      </trkpt>
      <trkpt lat="45.93911" lon="5.00331">
        <ele>286</ele>
        <time>2017-04-29T10:07:32Z</time>
      </trkpt>
      <trkpt lat="45.93918" lon="5.00333">
        <ele>286</ele>
        <time>2017-04-29T10:07:33Z</time>
      </trkpt>
      <trkpt lat="45.93924" lon="5.00335">
        <ele>286</ele>
        <time>2017-04-29T10:07:34Z</time>
      </trkpt>
      <trkpt lat="45.9393" lon="5.00337">
        <ele>286</ele>
        <time>2017-04-29T10:07:35Z</time>
      </trkpt>
      <trkpt lat="45.93936" lon="5.0034">
        <ele>286</ele>
        <time>2017-04-29T10:07:36Z</time>
      </trkpt>
      <trkpt lat="45.93942" lon="5.00342">
        <ele>286</ele>
        <time>2017-04-29T10:07:37Z</time>
      </trkpt>
      <trkpt lat="45.93948" lon="5.00345">
        <ele>286</ele>
        <time>2017-04-29T10:07:38Z</time>
      </trkpt>
      <trkpt lat="45.93955" lon="5.00347">
        <ele>286</ele>
        <time>2017-04-29T10:07:39Z</time>
      </trkpt>
      <trkpt lat="45.93962" lon="5.00349">
        <ele>286</ele>
        <time>2017-04-29T10:07:40Z</time>
      </trkpt>
      <trkpt lat="45.93968" lon="5.00351">
        <ele>286</ele>
        <time>2017-04-29T10:07:41Z</time>
      </trkpt>
      <trkpt lat="45.93974" lon="5.00353">
        <ele>286</ele>
        <time>2017-04-29T10:07:42Z</time>
      </trkpt>
      <trkpt lat="45.9398" lon="5.00354">
        <ele>286</ele>
        <time>2017-04-29T10:07:43Z</time>
      </trkpt>
      <trkpt lat="45.93986" lon="5.00356">
        <ele>286</ele>
        <time>2017-04-29T10:07:44Z</time>
      </trkpt>
      <trkpt lat="45.93992" lon="5.00357">
        <ele>285</ele>
        <time>2017-04-29T10:07:45Z</time>
      </trkpt>
      <trkpt lat="45.93997" lon="5.00358">
        <ele>285</ele>
        <time>2017-04-29T10:07:46Z</time>
      </trkpt>
      <trkpt lat="45.94003" lon="5.00359">
        <ele>285</ele>
        <time>2017-04-29T10:07:47Z</time>
      </trkpt>
      <trkpt lat="45.94008" lon="5.0036">
        <ele>285</ele>
        <time>2017-04-29T10:07:48Z</time>
      </trkpt>
      <trkpt lat="45.94014" lon="5.0036">
        <ele>285</ele>
        <time>2017-04-29T10:07:49Z</time>
      </trkpt>
      <trkpt lat="45.94018" lon="5.00361">
        <ele>285</ele>
        <time>2017-04-29T10:07:50Z</time>
      </trkpt>
      <trkpt lat="45.94023" lon="5.00361">
        <ele>285</ele>
        <time>2017-04-29T10:07:51Z</time>
      </trkpt>
      <trkpt lat="45.94028" lon="5.00362">
        <ele>285</ele>
        <time>2017-04-29T10:07:52Z</time>
      </trkpt>
      <trkpt lat="45.94034" lon="5.00362">
        <ele>285</ele>
        <time>2017-04-29T10:07:53Z</time>
      </trkpt>
      <trkpt lat="45.94039" lon="5.00362">
        <ele>285</ele>
        <time>2017-04-29T10:07:54Z</time>
      </trkpt>
      <trkpt lat="45.94045" lon="5.00362">
        <ele>285</ele>
        <time>2017-04-29T10:07:55Z</time>
      </trkpt>
      <trkpt lat="45.94051" lon="5.00361">
        <ele>285</ele>
        <time>2017-04-29T10:07:56Z</time>
      </trkpt>
      <trkpt lat="45.94057" lon="5.00361">
        <ele>285</ele>
        <time>2017-04-29T10:07:57Z</time>
      </trkpt>
      <trkpt lat="45.94064" lon="5.0036">
        <ele>285</ele>
        <time>2017-04-29T10:07:58Z</time>
      </trkpt>
      <trkpt lat="45.9407" lon="5.00359">
        <ele>285</ele>
        <time>2017-04-29T10:07:59Z</time>
      </trkpt>
      <trkpt lat="45.94076" lon="5.00356">
        <ele>285</ele>
        <time>2017-04-29T10:08:00Z</time>
      </trkpt>
      <trkpt lat="45.94082" lon="5.00352">
        <ele>285</ele>
        <time>2017-04-29T10:08:01Z</time>
      </trkpt>
      <trkpt lat="45.94087" lon="5.00347">
        <ele>285</ele>
        <time>2017-04-29T10:08:02Z</time>
      </trkpt>
      <trkpt lat="45.94092" lon="5.00342">
        <ele>285</ele>
        <time>2017-04-29T10:08:03Z</time>
      </trkpt>
      <trkpt lat="45.94096" lon="5.00337">
        <ele>285</ele>
        <time>2017-04-29T10:08:04Z</time>
      </trkpt>
      <trkpt lat="45.94101" lon="5.00332">
        <ele>285</ele>
        <time>2017-04-29T10:08:05Z</time>
      </trkpt>
      <trkpt lat="45.94105" lon="5.00327">
        <ele>285</ele>
        <time>2017-04-29T10:08:06Z</time>
      </trkpt>
      <trkpt lat="45.9411" lon="5.00322">
        <ele>285</ele>
        <time>2017-04-29T10:08:07Z</time>
      </trkpt>
      <trkpt lat="45.94114" lon="5.00316">
        <ele>285</ele>
        <time>2017-04-29T10:08:08Z</time>
      </trkpt>
      <trkpt lat="45.94119" lon="5.00311">
        <ele>285</ele>
        <time>2017-04-29T10:08:09Z</time>
      </trkpt>
      <trkpt lat="45.94124" lon="5.00306">
        <ele>285</ele>
        <time>2017-04-29T10:08:10Z</time>
      </trkpt>
      <trkpt lat="45.94128" lon="5.00301">
        <ele>285</ele>
        <time>2017-04-29T10:08:11Z</time>
      </trkpt>
      <trkpt lat="45.94133" lon="5.00295">
        <ele>285</ele>
        <time>2017-04-29T10:08:12Z</time>
      </trkpt>
      <trkpt lat="45.94137" lon="5.0029">
        <ele>285</ele>
        <time>2017-04-29T10:08:13Z</time>
      </trkpt>
      <trkpt lat="45.94141" lon="5.00284">
        <ele>285</ele>
        <time>2017-04-29T10:08:14Z</time>
      </trkpt>
      <trkpt lat="45.94146" lon="5.00279">
        <ele>285</ele>
        <time>2017-04-29T10:08:15Z</time>
      </trkpt>
      <trkpt lat="45.9415" lon="5.00273">
        <ele>285</ele>
        <time>2017-04-29T10:08:16Z</time>
      </trkpt>
      <trkpt lat="45.94154" lon="5.00267">
        <ele>285</ele>
        <time>2017-04-29T10:08:17Z</time>
      </trkpt>
      <trkpt lat="45.94159" lon="5.00261">
        <ele>285</ele>
        <time>2017-04-29T10:08:18Z</time>
      </trkpt>
      <trkpt lat="45.94163" lon="5.00255">
        <ele>285</ele>
        <time>2017-04-29T10:08:19Z</time>
      </trkpt>
      <trkpt lat="45.94167" lon="5.00249">
        <ele>285</ele>
        <time>2017-04-29T10:08:20Z</time>
      </trkpt>
      <trkpt lat="45.94172" lon="5.00242">
        <ele>286</ele>
        <time>2017-04-29T10:08:21Z</time>
      </trkpt>
      <trkpt lat="45.94176" lon="5.00236">
        <ele>286</ele>
        <time>2017-04-29T10:08:22Z</time>
      </trkpt>
      <trkpt lat="45.94179" lon="5.00231">
        <ele>286</ele>
        <time>2017-04-29T10:08:23Z</time>
      </trkpt>
      <trkpt lat="45.94183" lon="5.00226">
        <ele>286</ele>
        <time>2017-04-29T10:08:24Z</time>
      </trkpt>
      <trkpt lat="45.94186" lon="5.0022">
        <ele>286</ele>
        <time>2017-04-29T10:08:25Z</time>
      </trkpt>
      <trkpt lat="45.9419" lon="5.00215">
        <ele>286</ele>
        <time>2017-04-29T10:08:26Z</time>
      </trkpt>
      <trkpt lat="45.94193" lon="5.0021">
        <ele>287</ele>
        <time>2017-04-29T10:08:27Z</time>
      </trkpt>
      <trkpt lat="45.94196" lon="5.00205">
        <ele>287</ele>
        <time>2017-04-29T10:08:28Z</time>
      </trkpt>
      <trkpt lat="45.942" lon="5.002">
        <ele>287</ele>
        <time>2017-04-29T10:08:29Z</time>
      </trkpt>
      <trkpt lat="45.94204" lon="5.00195">
        <ele>287</ele>
        <time>2017-04-29T10:08:30Z</time>
      </trkpt>
      <trkpt lat="45.94207" lon="5.0019">
        <ele>287</ele>
        <time>2017-04-29T10:08:31Z</time>
      </trkpt>
      <trkpt lat="45.94211" lon="5.00184">
        <ele>287</ele>
        <time>2017-04-29T10:08:32Z</time>
      </trkpt>
      <trkpt lat="45.94215" lon="5.00179">
        <ele>287</ele>
        <time>2017-04-29T10:08:33Z</time>
      </trkpt>
      <trkpt lat="45.94219" lon="5.00174">
        <ele>287</ele>
        <time>2017-04-29T10:08:34Z</time>
      </trkpt>
      <trkpt lat="45.94222" lon="5.00168">
        <ele>287</ele>
        <time>2017-04-29T10:08:35Z</time>
      </trkpt>
      <trkpt lat="45.94226" lon="5.00163">
        <ele>287</ele>
        <time>2017-04-29T10:08:36Z</time>
      </trkpt>
      <trkpt lat="45.9423" lon="5.00157">
        <ele>288</ele>
        <time>2017-04-29T10:08:37Z</time>
      </trkpt>
      <trkpt lat="45.94233" lon="5.00152">
        <ele>288</ele>
        <time>2017-04-29T10:08:38Z</time>
      </trkpt>
      <trkpt lat="45.94237" lon="5.00147">
        <ele>288</ele>
        <time>2017-04-29T10:08:39Z</time>
      </trkpt>
      <trkpt lat="45.9424" lon="5.00141">
        <ele>288</ele>
        <time>2017-04-29T10:08:40Z</time>
      </trkpt>
      <trkpt lat="45.94244" lon="5.00136">
        <ele>288</ele>
        <time>2017-04-29T10:08:41Z</time>
      </trkpt>
      <trkpt lat="45.94248" lon="5.00131">
        <ele>288</ele>
        <time>2017-04-29T10:08:42Z</time>
      </trkpt>
      <trkpt lat="45.94251" lon="5.00126">
        <ele>289</ele>
        <time>2017-04-29T10:08:43Z</time>
      </trkpt>
      <trkpt lat="45.94255" lon="5.00121">
        <ele>289</ele>
        <time>2017-04-29T10:08:44Z</time>
      </trkpt>
      <trkpt lat="45.94258" lon="5.00116">
        <ele>289</ele>
        <time>2017-04-29T10:08:45Z</time>
      </trkpt>
      <trkpt lat="45.94262" lon="5.00111">
        <ele>289</ele>
        <time>2017-04-29T10:08:46Z</time>
      </trkpt>
      <trkpt lat="45.94265" lon="5.00106">
        <ele>289</ele>
        <time>2017-04-29T10:08:47Z</time>
      </trkpt>
      <trkpt lat="45.94271" lon="5.00097">
        <ele>289</ele>
        <time>2017-04-29T10:08:49Z</time>
      </trkpt>
      <trkpt lat="45.94275" lon="5.00093">
        <ele>289</ele>
        <time>2017-04-29T10:08:50Z</time>
      </trkpt>
      <trkpt lat="45.9428" lon="5.00086">
        <ele>289</ele>
        <time>2017-04-29T10:08:52Z</time>
      </trkpt>
      <trkpt lat="45.94283" lon="5.00083">
        <ele>290</ele>
        <time>2017-04-29T10:08:53Z</time>
      </trkpt>
      <trkpt lat="45.94288" lon="5.00074">
        <ele>290</ele>
        <time>2017-04-29T10:08:55Z</time>
      </trkpt>
      <trkpt lat="45.94291" lon="5.0007">
        <ele>290</ele>
        <time>2017-04-29T10:08:56Z</time>
      </trkpt>
      <trkpt lat="45.94297" lon="5.00061">
        <ele>290</ele>
        <time>2017-04-29T10:08:58Z</time>
      </trkpt>
      <trkpt lat="45.943" lon="5.00056">
        <ele>290</ele>
        <time>2017-04-29T10:08:59Z</time>
      </trkpt>
      <trkpt lat="45.94303" lon="5.00051">
        <ele>290</ele>
        <time>2017-04-29T10:09:00Z</time>
      </trkpt>
      <trkpt lat="45.94307" lon="5.00046">
        <ele>290</ele>
        <time>2017-04-29T10:09:01Z</time>
      </trkpt>
      <trkpt lat="45.9431" lon="5.00041">
        <ele>290</ele>
        <time>2017-04-29T10:09:02Z</time>
      </trkpt>
      <trkpt lat="45.94312" lon="5.00036">
        <ele>290</ele>
        <time>2017-04-29T10:09:03Z</time>
      </trkpt>
      <trkpt lat="45.94315" lon="5.00031">
        <ele>290</ele>
        <time>2017-04-29T10:09:04Z</time>
      </trkpt>
      <trkpt lat="45.94318" lon="5.00025">
        <ele>291</ele>
        <time>2017-04-29T10:09:05Z</time>
      </trkpt>
      <trkpt lat="45.94321" lon="5.00019">
        <ele>291</ele>
        <time>2017-04-29T10:09:06Z</time>
      </trkpt>
      <trkpt lat="45.94323" lon="5.00013">
        <ele>291</ele>
        <time>2017-04-29T10:09:07Z</time>
      </trkpt>
      <trkpt lat="45.94326" lon="5.00007">
        <ele>291</ele>
        <time>2017-04-29T10:09:08Z</time>
      </trkpt>
      <trkpt lat="45.94329" lon="5.00001">
        <ele>291</ele>
        <time>2017-04-29T10:09:09Z</time>
      </trkpt>
      <trkpt lat="45.94331" lon="4.99995">
        <ele>291</ele>
        <time>2017-04-29T10:09:10Z</time>
      </trkpt>
      <trkpt lat="45.94334" lon="4.9999">
        <ele>291</ele>
        <time>2017-04-29T10:09:11Z</time>
      </trkpt>
      <trkpt lat="45.94336" lon="4.99984">
        <ele>290</ele>
        <time>2017-04-29T10:09:12Z</time>
      </trkpt>
      <trkpt lat="45.94339" lon="4.99979">
        <ele>290</ele>
        <time>2017-04-29T10:09:13Z</time>
      </trkpt>
      <trkpt lat="45.94341" lon="4.99973">
        <ele>290</ele>
        <time>2017-04-29T10:09:14Z</time>
      </trkpt>
      <trkpt lat="45.94344" lon="4.99967">
        <ele>290</ele>
        <time>2017-04-29T10:09:15Z</time>
      </trkpt>
      <trkpt lat="45.94347" lon="4.99961">
        <ele>290</ele>
        <time>2017-04-29T10:09:16Z</time>
      </trkpt>
      <trkpt lat="45.9435" lon="4.99955">
        <ele>290</ele>
        <time>2017-04-29T10:09:17Z</time>
      </trkpt>
      <trkpt lat="45.94353" lon="4.99949">
        <ele>290</ele>
        <time>2017-04-29T10:09:18Z</time>
      </trkpt>
      <trkpt lat="45.94357" lon="4.99943">
        <ele>290</ele>
        <time>2017-04-29T10:09:19Z</time>
      </trkpt>
      <trkpt lat="45.94359" lon="4.99937">
        <ele>290</ele>
        <time>2017-04-29T10:09:20Z</time>
      </trkpt>
      <trkpt lat="45.94362" lon="4.9993">
        <ele>290</ele>
        <time>2017-04-29T10:09:21Z</time>
      </trkpt>
      <trkpt lat="45.94365" lon="4.99925">
        <ele>290</ele>
        <time>2017-04-29T10:09:22Z</time>
      </trkpt>
      <trkpt lat="45.94368" lon="4.99918">
        <ele>290</ele>
        <time>2017-04-29T10:09:23Z</time>
      </trkpt>
      <trkpt lat="45.94372" lon="4.99912">
        <ele>290</ele>
        <time>2017-04-29T10:09:24Z</time>
      </trkpt>
      <trkpt lat="45.94375" lon="4.99905">
        <ele>290</ele>
        <time>2017-04-29T10:09:25Z</time>
      </trkpt>
      <trkpt lat="45.94378" lon="4.99899">
        <ele>290</ele>
        <time>2017-04-29T10:09:26Z</time>
      </trkpt>
      <trkpt lat="45.9438" lon="4.99893">
        <ele>290</ele>
        <time>2017-04-29T10:09:27Z</time>
      </trkpt>
      <trkpt lat="45.94383" lon="4.99886">
        <ele>290</ele>
        <time>2017-04-29T10:09:28Z</time>
      </trkpt>
      <trkpt lat="45.94386" lon="4.9988">
        <ele>290</ele>
        <time>2017-04-29T10:09:29Z</time>
      </trkpt>
      <trkpt lat="45.94389" lon="4.99874">
        <ele>290</ele>
        <time>2017-04-29T10:09:30Z</time>
      </trkpt>
      <trkpt lat="45.94391" lon="4.99868">
        <ele>290</ele>
        <time>2017-04-29T10:09:31Z</time>
      </trkpt>
      <trkpt lat="45.94394" lon="4.99862">
        <ele>290</ele>
        <time>2017-04-29T10:09:32Z</time>
      </trkpt>
      <trkpt lat="45.94396" lon="4.99857">
        <ele>290</ele>
        <time>2017-04-29T10:09:33Z</time>
      </trkpt>
      <trkpt lat="45.94398" lon="4.99851">
        <ele>289</ele>
        <time>2017-04-29T10:09:34Z</time>
      </trkpt>
      <trkpt lat="45.94401" lon="4.99845">
        <ele>289</ele>
        <time>2017-04-29T10:09:35Z</time>
      </trkpt>
      <trkpt lat="45.94404" lon="4.99839">
        <ele>289</ele>
        <time>2017-04-29T10:09:36Z</time>
      </trkpt>
      <trkpt lat="45.94407" lon="4.99832">
        <ele>289</ele>
        <time>2017-04-29T10:09:37Z</time>
      </trkpt>
      <trkpt lat="45.9441" lon="4.99825">
        <ele>289</ele>
        <time>2017-04-29T10:09:38Z</time>
      </trkpt>
      <trkpt lat="45.94412" lon="4.99818">
        <ele>290</ele>
        <time>2017-04-29T10:09:39Z</time>
      </trkpt>
      <trkpt lat="45.94415" lon="4.99811">
        <ele>290</ele>
        <time>2017-04-29T10:09:40Z</time>
      </trkpt>
      <trkpt lat="45.94418" lon="4.99804">
        <ele>288</ele>
        <time>2017-04-29T10:09:41Z</time>
      </trkpt>
      <trkpt lat="45.94422" lon="4.99798">
        <ele>288</ele>
        <time>2017-04-29T10:09:42Z</time>
      </trkpt>
      <trkpt lat="45.94425" lon="4.99792">
        <ele>288</ele>
        <time>2017-04-29T10:09:43Z</time>
      </trkpt>
      <trkpt lat="45.94428" lon="4.99785">
        <ele>288</ele>
        <time>2017-04-29T10:09:44Z</time>
      </trkpt>
      <trkpt lat="45.9443" lon="4.99779">
        <ele>288</ele>
        <time>2017-04-29T10:09:45Z</time>
      </trkpt>
      <trkpt lat="45.94433" lon="4.99773">
        <ele>288</ele>
        <time>2017-04-29T10:09:46Z</time>
      </trkpt>
      <trkpt lat="45.94436" lon="4.99767">
        <ele>288</ele>
        <time>2017-04-29T10:09:47Z</time>
      </trkpt>
      <trkpt lat="45.94439" lon="4.9976">
        <ele>288</ele>
        <time>2017-04-29T10:09:48Z</time>
      </trkpt>
      <trkpt lat="45.94442" lon="4.99754">
        <ele>288</ele>
        <time>2017-04-29T10:09:49Z</time>
      </trkpt>
      <trkpt lat="45.94445" lon="4.99747">
        <ele>289</ele>
        <time>2017-04-29T10:09:50Z</time>
      </trkpt>
      <trkpt lat="45.94448" lon="4.99741">
        <ele>289</ele>
        <time>2017-04-29T10:09:51Z</time>
      </trkpt>
      <trkpt lat="45.94451" lon="4.99734">
        <ele>289</ele>
        <time>2017-04-29T10:09:52Z</time>
      </trkpt>
      <trkpt lat="45.94454" lon="4.99727">
        <ele>289</ele>
        <time>2017-04-29T10:09:53Z</time>
      </trkpt>
      <trkpt lat="45.94457" lon="4.99721">
        <ele>289</ele>
        <time>2017-04-29T10:09:54Z</time>
      </trkpt>
      <trkpt lat="45.9446" lon="4.99714">
        <ele>289</ele>
        <time>2017-04-29T10:09:55Z</time>
      </trkpt>
      <trkpt lat="45.94462" lon="4.99707">
        <ele>289</ele>
        <time>2017-04-29T10:09:56Z</time>
      </trkpt>
      <trkpt lat="45.94464" lon="4.997">
        <ele>289</ele>
        <time>2017-04-29T10:09:57Z</time>
      </trkpt>
      <trkpt lat="45.94466" lon="4.99692">
        <ele>289</ele>
        <time>2017-04-29T10:09:58Z</time>
      </trkpt>
      <trkpt lat="45.94468" lon="4.99684">
        <ele>289</ele>
        <time>2017-04-29T10:09:59Z</time>
      </trkpt>
      <trkpt lat="45.94469" lon="4.99676">
        <ele>289</ele>
        <time>2017-04-29T10:10:00Z</time>
      </trkpt>
      <trkpt lat="45.9447" lon="4.99668">
        <ele>289</ele>
        <time>2017-04-29T10:10:01Z</time>
      </trkpt>
      <trkpt lat="45.94472" lon="4.9966">
        <ele>290</ele>
        <time>2017-04-29T10:10:02Z</time>
      </trkpt>
      <trkpt lat="45.94473" lon="4.99653">
        <ele>289</ele>
        <time>2017-04-29T10:10:03Z</time>
      </trkpt>
      <trkpt lat="45.94475" lon="4.99646">
        <ele>289</ele>
        <time>2017-04-29T10:10:04Z</time>
      </trkpt>
      <trkpt lat="45.94477" lon="4.99639">
        <ele>289</ele>
        <time>2017-04-29T10:10:05Z</time>
      </trkpt>
      <trkpt lat="45.94479" lon="4.99631">
        <ele>289</ele>
        <time>2017-04-29T10:10:06Z</time>
      </trkpt>
      <trkpt lat="45.94482" lon="4.99623">
        <ele>289</ele>
        <time>2017-04-29T10:10:07Z</time>
      </trkpt>
      <trkpt lat="45.94484" lon="4.99615">
        <ele>289</ele>
        <time>2017-04-29T10:10:08Z</time>
      </trkpt>
      <trkpt lat="45.94486" lon="4.99606">
        <ele>289</ele>
        <time>2017-04-29T10:10:09Z</time>
      </trkpt>
      <trkpt lat="45.94488" lon="4.99598">
        <ele>289</ele>
        <time>2017-04-29T10:10:10Z</time>
      </trkpt>
      <trkpt lat="45.9449" lon="4.99589">
        <ele>288</ele>
        <time>2017-04-29T10:10:11Z</time>
      </trkpt>
      <trkpt lat="45.94491" lon="4.99581">
        <ele>288</ele>
        <time>2017-04-29T10:10:12Z</time>
      </trkpt>
      <trkpt lat="45.94493" lon="4.99573">
        <ele>288</ele>
        <time>2017-04-29T10:10:13Z</time>
      </trkpt>
      <trkpt lat="45.94494" lon="4.99565">
        <ele>288</ele>
        <time>2017-04-29T10:10:14Z</time>
      </trkpt>
      <trkpt lat="45.94496" lon="4.99558">
        <ele>288</ele>
        <time>2017-04-29T10:10:15Z</time>
      </trkpt>
      <trkpt lat="45.94498" lon="4.99551">
        <ele>288</ele>
        <time>2017-04-29T10:10:16Z</time>
      </trkpt>
      <trkpt lat="45.945" lon="4.99544">
        <ele>288</ele>
        <time>2017-04-29T10:10:17Z</time>
      </trkpt>
      <trkpt lat="45.94502" lon="4.99537">
        <ele>287</ele>
        <time>2017-04-29T10:10:18Z</time>
      </trkpt>
      <trkpt lat="45.94504" lon="4.99531">
        <ele>287</ele>
        <time>2017-04-29T10:10:19Z</time>
      </trkpt>
      <trkpt lat="45.94505" lon="4.99524">
        <ele>287</ele>
        <time>2017-04-29T10:10:20Z</time>
      </trkpt>
      <trkpt lat="45.94507" lon="4.99517">
        <ele>288</ele>
        <time>2017-04-29T10:10:21Z</time>
      </trkpt>
      <trkpt lat="45.94509" lon="4.99509">
        <ele>288</ele>
        <time>2017-04-29T10:10:22Z</time>
      </trkpt>
      <trkpt lat="45.94511" lon="4.99502">
        <ele>288</ele>
        <time>2017-04-29T10:10:23Z</time>
      </trkpt>
      <trkpt lat="45.94514" lon="4.99495">
        <ele>288</ele>
        <time>2017-04-29T10:10:24Z</time>
      </trkpt>
      <trkpt lat="45.94516" lon="4.99487">
        <ele>288</ele>
        <time>2017-04-29T10:10:25Z</time>
      </trkpt>
      <trkpt lat="45.94517" lon="4.99479">
        <ele>288</ele>
        <time>2017-04-29T10:10:26Z</time>
      </trkpt>
      <trkpt lat="45.94519" lon="4.99471">
        <ele>288</ele>
        <time>2017-04-29T10:10:27Z</time>
      </trkpt>
      <trkpt lat="45.94522" lon="4.99464">
        <ele>288</ele>
        <time>2017-04-29T10:10:28Z</time>
      </trkpt>
      <trkpt lat="45.94524" lon="4.99456">
        <ele>288</ele>
        <time>2017-04-29T10:10:29Z</time>
      </trkpt>
      <trkpt lat="45.94526" lon="4.99447">
        <ele>288</ele>
        <time>2017-04-29T10:10:30Z</time>
      </trkpt>
      <trkpt lat="45.94528" lon="4.99439">
        <ele>288</ele>
        <time>2017-04-29T10:10:31Z</time>
      </trkpt>
      <trkpt lat="45.94531" lon="4.99431">
        <ele>288</ele>
        <time>2017-04-29T10:10:32Z</time>
      </trkpt>
      <trkpt lat="45.94533" lon="4.99422">
        <ele>288</ele>
        <time>2017-04-29T10:10:33Z</time>
      </trkpt>
      <trkpt lat="45.94535" lon="4.99414">
        <ele>288</ele>
        <time>2017-04-29T10:10:34Z</time>
      </trkpt>
      <trkpt lat="45.94538" lon="4.99405">
        <ele>288</ele>
        <time>2017-04-29T10:10:35Z</time>
      </trkpt>
      <trkpt lat="45.9454" lon="4.99397">
        <ele>288</ele>
        <time>2017-04-29T10:10:36Z</time>
      </trkpt>
      <trkpt lat="45.94543" lon="4.99389">
        <ele>288</ele>
        <time>2017-04-29T10:10:37Z</time>
      </trkpt>
      <trkpt lat="45.94546" lon="4.99381">
        <ele>288</ele>
        <time>2017-04-29T10:10:38Z</time>
      </trkpt>
      <trkpt lat="45.94549" lon="4.99373">
        <ele>288</ele>
        <time>2017-04-29T10:10:39Z</time>
      </trkpt>
      <trkpt lat="45.94552" lon="4.99366">
        <ele>288</ele>
        <time>2017-04-29T10:10:40Z</time>
      </trkpt>
      <trkpt lat="45.94555" lon="4.99359">
        <ele>288</ele>
        <time>2017-04-29T10:10:41Z</time>
      </trkpt>
      <trkpt lat="45.94558" lon="4.99353">
        <ele>288</ele>
        <time>2017-04-29T10:10:42Z</time>
      </trkpt>
      <trkpt lat="45.94562" lon="4.99346">
        <ele>287</ele>
        <time>2017-04-29T10:10:43Z</time>
      </trkpt>
      <trkpt lat="45.94565" lon="4.99341">
        <ele>287</ele>
        <time>2017-04-29T10:10:44Z</time>
      </trkpt>
      <trkpt lat="45.94569" lon="4.99335">
        <ele>287</ele>
        <time>2017-04-29T10:10:45Z</time>
      </trkpt>
      <trkpt lat="45.94573" lon="4.99329">
        <ele>287</ele>
        <time>2017-04-29T10:10:46Z</time>
      </trkpt>
      <trkpt lat="45.94577" lon="4.99323">
        <ele>287</ele>
        <time>2017-04-29T10:10:47Z</time>
      </trkpt>
      <trkpt lat="45.94581" lon="4.99317">
        <ele>287</ele>
        <time>2017-04-29T10:10:48Z</time>
      </trkpt>
      <trkpt lat="45.94585" lon="4.99312">
        <ele>287</ele>
        <time>2017-04-29T10:10:49Z</time>
      </trkpt>
      <trkpt lat="45.94589" lon="4.99306">
        <ele>287</ele>
        <time>2017-04-29T10:10:50Z</time>
      </trkpt>
      <trkpt lat="45.94593" lon="4.993">
        <ele>287</ele>
        <time>2017-04-29T10:10:51Z</time>
      </trkpt>
      <trkpt lat="45.94597" lon="4.99295">
        <ele>287</ele>
        <time>2017-04-29T10:10:52Z</time>
      </trkpt>
      <trkpt lat="45.946" lon="4.99289">
        <ele>287</ele>
        <time>2017-04-29T10:10:53Z</time>
      </trkpt>
      <trkpt lat="45.94603" lon="4.99284">
        <ele>287</ele>
        <time>2017-04-29T10:10:54Z</time>
      </trkpt>
      <trkpt lat="45.94606" lon="4.99278">
        <ele>287</ele>
        <time>2017-04-29T10:10:55Z</time>
      </trkpt>
      <trkpt lat="45.9461" lon="4.99273">
        <ele>287</ele>
        <time>2017-04-29T10:10:56Z</time>
      </trkpt>
      <trkpt lat="45.94613" lon="4.99268">
        <ele>287</ele>
        <time>2017-04-29T10:10:57Z</time>
      </trkpt>
      <trkpt lat="45.94617" lon="4.99264">
        <ele>287</ele>
        <time>2017-04-29T10:10:58Z</time>
      </trkpt>
      <trkpt lat="45.9462" lon="4.99259">
        <ele>287</ele>
        <time>2017-04-29T10:10:59Z</time>
      </trkpt>
      <trkpt lat="45.94624" lon="4.99254">
        <ele>287</ele>
        <time>2017-04-29T10:11:00Z</time>
      </trkpt>
      <trkpt lat="45.94628" lon="4.99249">
        <ele>288</ele>
        <time>2017-04-29T10:11:01Z</time>
      </trkpt>
      <trkpt lat="45.94632" lon="4.99244">
        <ele>288</ele>
        <time>2017-04-29T10:11:02Z</time>
      </trkpt>
      <trkpt lat="45.94636" lon="4.99238">
        <ele>288</ele>
        <time>2017-04-29T10:11:03Z</time>
      </trkpt>
      <trkpt lat="45.94639" lon="4.99232">
        <ele>288</ele>
        <time>2017-04-29T10:11:04Z</time>
      </trkpt>
      <trkpt lat="45.94644" lon="4.99227">
        <ele>288</ele>
        <time>2017-04-29T10:11:05Z</time>
      </trkpt>
      <trkpt lat="45.94648" lon="4.99221">
        <ele>288</ele>
        <time>2017-04-29T10:11:06Z</time>
      </trkpt>
      <trkpt lat="45.94652" lon="4.99216">
        <ele>288</ele>
        <time>2017-04-29T10:11:07Z</time>
      </trkpt>
      <trkpt lat="45.94656" lon="4.9921">
        <ele>288</ele>
        <time>2017-04-29T10:11:08Z</time>
      </trkpt>
      <trkpt lat="45.9466" lon="4.99205">
        <ele>288</ele>
        <time>2017-04-29T10:11:09Z</time>
      </trkpt>
      <trkpt lat="45.94664" lon="4.99199">
        <ele>288</ele>
        <time>2017-04-29T10:11:10Z</time>
      </trkpt>
      <trkpt lat="45.94668" lon="4.99194">
        <ele>288</ele>
        <time>2017-04-29T10:11:11Z</time>
      </trkpt>
      <trkpt lat="45.94673" lon="4.9919">
        <ele>289</ele>
        <time>2017-04-29T10:11:12Z</time>
      </trkpt>
      <trkpt lat="45.94677" lon="4.99186">
        <ele>289</ele>
        <time>2017-04-29T10:11:13Z</time>
      </trkpt>
      <trkpt lat="45.94681" lon="4.99181">
        <ele>289</ele>
        <time>2017-04-29T10:11:14Z</time>
      </trkpt>
      <trkpt lat="45.94684" lon="4.99177">
        <ele>289</ele>
        <time>2017-04-29T10:11:15Z</time>
      </trkpt>
      <trkpt lat="45.94692" lon="4.9917">
        <ele>289</ele>
        <time>2017-04-29T10:11:17Z</time>
      </trkpt>
      <trkpt lat="45.94695" lon="4.99167">
        <ele>289</ele>
        <time>2017-04-29T10:11:18Z</time>
      </trkpt>
      <trkpt lat="45.94702" lon="4.9916">
        <ele>289</ele>
        <time>2017-04-29T10:11:20Z</time>
      </trkpt>
      <trkpt lat="45.94706" lon="4.99156">
        <ele>289</ele>
        <time>2017-04-29T10:11:21Z</time>
      </trkpt>
      <trkpt lat="45.9471" lon="4.99152">
        <ele>289</ele>
        <time>2017-04-29T10:11:22Z</time>
      </trkpt>
      <trkpt lat="45.94714" lon="4.99148">
        <ele>289</ele>
        <time>2017-04-29T10:11:23Z</time>
      </trkpt>
      <trkpt lat="45.94719" lon="4.99144">
        <ele>289</ele>
        <time>2017-04-29T10:11:24Z</time>
      </trkpt>
      <trkpt lat="45.94723" lon="4.9914">
        <ele>289</ele>
        <time>2017-04-29T10:11:25Z</time>
      </trkpt>
      <trkpt lat="45.94727" lon="4.99136">
        <ele>289</ele>
        <time>2017-04-29T10:11:26Z</time>
      </trkpt>
      <trkpt lat="45.94731" lon="4.99132">
        <ele>289</ele>
        <time>2017-04-29T10:11:27Z</time>
      </trkpt>
      <trkpt lat="45.94737" lon="4.99123">
        <ele>290</ele>
        <time>2017-04-29T10:11:29Z</time>
      </trkpt>
      <trkpt lat="45.9474" lon="4.99119">
        <ele>290</ele>
        <time>2017-04-29T10:11:30Z</time>
      </trkpt>
      <trkpt lat="45.94746" lon="4.9911">
        <ele>290</ele>
        <time>2017-04-29T10:11:32Z</time>
      </trkpt>
      <trkpt lat="45.94749" lon="4.99106">
        <ele>290</ele>
        <time>2017-04-29T10:11:33Z</time>
      </trkpt>
      <trkpt lat="45.94755" lon="4.99097">
        <ele>290</ele>
        <time>2017-04-29T10:11:35Z</time>
      </trkpt>
      <trkpt lat="45.94758" lon="4.99092">
        <ele>290</ele>
        <time>2017-04-29T10:11:36Z</time>
      </trkpt>
      <trkpt lat="45.94764" lon="4.99082">
        <ele>291</ele>
        <time>2017-04-29T10:11:38Z</time>
      </trkpt>
      <trkpt lat="45.94767" lon="4.99077">
        <ele>291</ele>
        <time>2017-04-29T10:11:39Z</time>
      </trkpt>
      <trkpt lat="45.9477" lon="4.99072">
        <ele>291</ele>
        <time>2017-04-29T10:11:40Z</time>
      </trkpt>
      <trkpt lat="45.94773" lon="4.99067">
        <ele>291</ele>
        <time>2017-04-29T10:11:41Z</time>
      </trkpt>
      <trkpt lat="45.94776" lon="4.99062">
        <ele>291</ele>
        <time>2017-04-29T10:11:42Z</time>
      </trkpt>
      <trkpt lat="45.94779" lon="4.99056">
        <ele>291</ele>
        <time>2017-04-29T10:11:43Z</time>
      </trkpt>
      <trkpt lat="45.94782" lon="4.99051">
        <ele>291</ele>
        <time>2017-04-29T10:11:44Z</time>
      </trkpt>
      <trkpt lat="45.94785" lon="4.99046">
        <ele>291</ele>
        <time>2017-04-29T10:11:45Z</time>
      </trkpt>
      <trkpt lat="45.9479" lon="4.99036">
        <ele>291</ele>
        <time>2017-04-29T10:11:47Z</time>
      </trkpt>
      <trkpt lat="45.94792" lon="4.99031">
        <ele>291</ele>
        <time>2017-04-29T10:11:48Z</time>
      </trkpt>
      <trkpt lat="45.94795" lon="4.9902">
        <ele>291</ele>
        <time>2017-04-29T10:11:50Z</time>
      </trkpt>
      <trkpt lat="45.94795" lon="4.99014">
        <ele>291</ele>
        <time>2017-04-29T10:11:51Z</time>
      </trkpt>
      <trkpt lat="45.94795" lon="4.99007">
        <ele>291</ele>
        <time>2017-04-29T10:11:52Z</time>
      </trkpt>
      <trkpt lat="45.94795" lon="4.99">
        <ele>291</ele>
        <time>2017-04-29T10:11:53Z</time>
      </trkpt>
      <trkpt lat="45.94795" lon="4.98993">
        <ele>291</ele>
        <time>2017-04-29T10:11:54Z</time>
      </trkpt>
      <trkpt lat="45.94795" lon="4.98985">
        <ele>291</ele>
        <time>2017-04-29T10:11:55Z</time>
      </trkpt>
      <trkpt lat="45.94795" lon="4.98977">
        <ele>291</ele>
        <time>2017-04-29T10:11:56Z</time>
      </trkpt>
      <trkpt lat="45.94796" lon="4.98969">
        <ele>291</ele>
        <time>2017-04-29T10:11:57Z</time>
      </trkpt>
      <trkpt lat="45.94796" lon="4.98962">
        <ele>292</ele>
        <time>2017-04-29T10:11:58Z</time>
      </trkpt>
      <trkpt lat="45.94797" lon="4.98955">
        <ele>292</ele>
        <time>2017-04-29T10:11:59Z</time>
      </trkpt>
      <trkpt lat="45.94798" lon="4.98947">
        <ele>292</ele>
        <time>2017-04-29T10:12:00Z</time>
      </trkpt>
      <trkpt lat="45.94798" lon="4.9894">
        <ele>292</ele>
        <time>2017-04-29T10:12:01Z</time>
      </trkpt>
      <trkpt lat="45.94799" lon="4.98933">
        <ele>292</ele>
        <time>2017-04-29T10:12:02Z</time>
      </trkpt>
      <trkpt lat="45.94799" lon="4.98926">
        <ele>292</ele>
        <time>2017-04-29T10:12:03Z</time>
      </trkpt>
      <trkpt lat="45.948" lon="4.98919">
        <ele>292</ele>
        <time>2017-04-29T10:12:04Z</time>
      </trkpt>
      <trkpt lat="45.94801" lon="4.98912">
        <ele>293</ele>
        <time>2017-04-29T10:12:05Z</time>
      </trkpt>
      <trkpt lat="45.94802" lon="4.989">
        <ele>293</ele>
        <time>2017-04-29T10:12:07Z</time>
      </trkpt>
      <trkpt lat="45.94802" lon="4.98894">
        <ele>293</ele>
        <time>2017-04-29T10:12:08Z</time>
      </trkpt>
      <trkpt lat="45.94803" lon="4.98882">
        <ele>293</ele>
        <time>2017-04-29T10:12:10Z</time>
      </trkpt>
      <trkpt lat="45.94804" lon="4.98876">
        <ele>293</ele>
        <time>2017-04-29T10:12:11Z</time>
      </trkpt>
      <trkpt lat="45.94805" lon="4.98863">
        <ele>293</ele>
        <time>2017-04-29T10:12:13Z</time>
      </trkpt>
      <trkpt lat="45.94806" lon="4.98857">
        <ele>293</ele>
        <time>2017-04-29T10:12:14Z</time>
      </trkpt>
      <trkpt lat="45.94807" lon="4.98845">
        <ele>293</ele>
        <time>2017-04-29T10:12:16Z</time>
      </trkpt>
      <trkpt lat="45.94807" lon="4.9884">
        <ele>293</ele>
        <time>2017-04-29T10:12:17Z</time>
      </trkpt>
      <trkpt lat="45.94808" lon="4.98828">
        <ele>294</ele>
        <time>2017-04-29T10:12:19Z</time>
      </trkpt>
      <trkpt lat="45.94809" lon="4.98822">
        <ele>294</ele>
        <time>2017-04-29T10:12:20Z</time>
      </trkpt>
      <trkpt lat="45.94811" lon="4.98809">
        <ele>294</ele>
        <time>2017-04-29T10:12:22Z</time>
      </trkpt>
      <trkpt lat="45.94811" lon="4.98803">
        <ele>294</ele>
        <time>2017-04-29T10:12:23Z</time>
      </trkpt>
      <trkpt lat="45.94812" lon="4.9879">
        <ele>294</ele>
        <time>2017-04-29T10:12:25Z</time>
      </trkpt>
      <trkpt lat="45.94813" lon="4.98784">
        <ele>294</ele>
        <time>2017-04-29T10:12:26Z</time>
      </trkpt>
      <trkpt lat="45.94814" lon="4.98771">
        <ele>294</ele>
        <time>2017-04-29T10:12:28Z</time>
      </trkpt>
      <trkpt lat="45.94815" lon="4.98765">
        <ele>294</ele>
        <time>2017-04-29T10:12:29Z</time>
      </trkpt>
      <trkpt lat="45.94817" lon="4.98753">
        <ele>294</ele>
        <time>2017-04-29T10:12:31Z</time>
      </trkpt>
      <trkpt lat="45.94817" lon="4.98747">
        <ele>294</ele>
        <time>2017-04-29T10:12:32Z</time>
      </trkpt>
      <trkpt lat="45.94819" lon="4.98734">
        <ele>294</ele>
        <time>2017-04-29T10:12:34Z</time>
      </trkpt>
      <trkpt lat="45.9482" lon="4.98729">
        <ele>294</ele>
        <time>2017-04-29T10:12:35Z</time>
      </trkpt>
      <trkpt lat="45.94824" lon="4.98718">
        <ele>294</ele>
        <time>2017-04-29T10:12:37Z</time>
      </trkpt>
      <trkpt lat="45.94826" lon="4.98713">
        <ele>294</ele>
        <time>2017-04-29T10:12:38Z</time>
      </trkpt>
      <trkpt lat="45.94831" lon="4.98704">
        <ele>294</ele>
        <time>2017-04-29T10:12:40Z</time>
      </trkpt>
      <trkpt lat="45.94833" lon="4.98699">
        <ele>294</ele>
        <time>2017-04-29T10:12:41Z</time>
      </trkpt>
      <trkpt lat="45.94836" lon="4.98689">
        <ele>294</ele>
        <time>2017-04-29T10:12:43Z</time>
      </trkpt>
      <trkpt lat="45.94837" lon="4.98683">
        <ele>294</ele>
        <time>2017-04-29T10:12:44Z</time>
      </trkpt>
      <trkpt lat="45.94837" lon="4.9867">
        <ele>294</ele>
        <time>2017-04-29T10:12:46Z</time>
      </trkpt>
      <trkpt lat="45.94838" lon="4.98664">
        <ele>294</ele>
        <time>2017-04-29T10:12:47Z</time>
      </trkpt>
      <trkpt lat="45.94839" lon="4.98654">
        <ele>294</ele>
        <time>2017-04-29T10:12:49Z</time>
      </trkpt>
      <trkpt lat="45.9484" lon="4.98649">
        <ele>294</ele>
        <time>2017-04-29T10:12:50Z</time>
      </trkpt>
      <trkpt lat="45.94845" lon="4.9864">
        <ele>293</ele>
        <time>2017-04-29T10:12:52Z</time>
      </trkpt>
      <trkpt lat="45.94848" lon="4.98636">
        <ele>293</ele>
        <time>2017-04-29T10:12:53Z</time>
      </trkpt>
      <trkpt lat="45.94854" lon="4.98632">
        <ele>293</ele>
        <time>2017-04-29T10:12:55Z</time>
      </trkpt>
      <trkpt lat="45.94858" lon="4.98632">
        <ele>293</ele>
        <time>2017-04-29T10:12:56Z</time>
      </trkpt>
      <trkpt lat="45.94864" lon="4.9863">
        <ele>293</ele>
        <time>2017-04-29T10:12:59Z</time>
      </trkpt>
      <trkpt lat="45.94867" lon="4.98627">
        <ele>293</ele>
        <time>2017-04-29T10:13:00Z</time>
      </trkpt>
      <trkpt lat="45.94873" lon="4.98622">
        <ele>293</ele>
        <time>2017-04-29T10:13:02Z</time>
      </trkpt>
      <trkpt lat="45.94876" lon="4.98619">
        <ele>293</ele>
        <time>2017-04-29T10:13:03Z</time>
      </trkpt>
      <trkpt lat="45.94883" lon="4.98612">
        <ele>293</ele>
        <time>2017-04-29T10:13:05Z</time>
      </trkpt>
      <trkpt lat="45.94886" lon="4.98607">
        <ele>293</ele>
        <time>2017-04-29T10:13:06Z</time>
      </trkpt>
      <trkpt lat="45.94889" lon="4.98602">
        <ele>293</ele>
        <time>2017-04-29T10:13:07Z</time>
      </trkpt>
      <trkpt lat="45.94892" lon="4.98596">
        <ele>292</ele>
        <time>2017-04-29T10:13:08Z</time>
      </trkpt>
      <trkpt lat="45.94895" lon="4.98591">
        <ele>292</ele>
        <time>2017-04-29T10:13:09Z</time>
      </trkpt>
      <trkpt lat="45.94899" lon="4.98586">
        <ele>292</ele>
        <time>2017-04-29T10:13:10Z</time>
      </trkpt>
      <trkpt lat="45.94902" lon="4.9858">
        <ele>291</ele>
        <time>2017-04-29T10:13:11Z</time>
      </trkpt>
      <trkpt lat="45.94905" lon="4.98575">
        <ele>291</ele>
        <time>2017-04-29T10:13:12Z</time>
      </trkpt>
      <trkpt lat="45.94908" lon="4.98569">
        <ele>291</ele>
        <time>2017-04-29T10:13:13Z</time>
      </trkpt>
      <trkpt lat="45.94911" lon="4.98564">
        <ele>291</ele>
        <time>2017-04-29T10:13:14Z</time>
      </trkpt>
      <trkpt lat="45.94914" lon="4.98558">
        <ele>291</ele>
        <time>2017-04-29T10:13:15Z</time>
      </trkpt>
      <trkpt lat="45.94916" lon="4.98553">
        <ele>291</ele>
        <time>2017-04-29T10:13:16Z</time>
      </trkpt>
      <trkpt lat="45.94919" lon="4.98547">
        <ele>290</ele>
        <time>2017-04-29T10:13:17Z</time>
      </trkpt>
      <trkpt lat="45.94921" lon="4.98542">
        <ele>290</ele>
        <time>2017-04-29T10:13:18Z</time>
      </trkpt>
      <trkpt lat="45.94924" lon="4.98536">
        <ele>290</ele>
        <time>2017-04-29T10:13:19Z</time>
      </trkpt>
      <trkpt lat="45.94927" lon="4.98531">
        <ele>290</ele>
        <time>2017-04-29T10:13:20Z</time>
      </trkpt>
      <trkpt lat="45.94929" lon="4.98526">
        <ele>290</ele>
        <time>2017-04-29T10:13:21Z</time>
      </trkpt>
      <trkpt lat="45.94933" lon="4.9852">
        <ele>290</ele>
        <time>2017-04-29T10:13:22Z</time>
      </trkpt>
      <trkpt lat="45.94936" lon="4.98515">
        <ele>290</ele>
        <time>2017-04-29T10:13:23Z</time>
      </trkpt>
      <trkpt lat="45.94939" lon="4.98509">
        <ele>290</ele>
        <time>2017-04-29T10:13:24Z</time>
      </trkpt>
      <trkpt lat="45.94942" lon="4.98504">
        <ele>289</ele>
        <time>2017-04-29T10:13:25Z</time>
      </trkpt>
      <trkpt lat="45.94945" lon="4.98498">
        <ele>289</ele>
        <time>2017-04-29T10:13:26Z</time>
      </trkpt>
      <trkpt lat="45.94949" lon="4.98492">
        <ele>289</ele>
        <time>2017-04-29T10:13:27Z</time>
      </trkpt>
      <trkpt lat="45.94952" lon="4.98487">
        <ele>289</ele>
        <time>2017-04-29T10:13:28Z</time>
      </trkpt>
      <trkpt lat="45.94955" lon="4.9848">
        <ele>289</ele>
        <time>2017-04-29T10:13:29Z</time>
      </trkpt>
      <trkpt lat="45.94959" lon="4.98474">
        <ele>289</ele>
        <time>2017-04-29T10:13:30Z</time>
      </trkpt>
      <trkpt lat="45.94962" lon="4.98468">
        <ele>289</ele>
        <time>2017-04-29T10:13:31Z</time>
      </trkpt>
      <trkpt lat="45.94965" lon="4.98461">
        <ele>288</ele>
        <time>2017-04-29T10:13:32Z</time>
      </trkpt>
      <trkpt lat="45.94969" lon="4.98455">
        <ele>288</ele>
        <time>2017-04-29T10:13:33Z</time>
      </trkpt>
      <trkpt lat="45.94973" lon="4.98449">
        <ele>288</ele>
        <time>2017-04-29T10:13:34Z</time>
      </trkpt>
      <trkpt lat="45.94976" lon="4.98442">
        <ele>288</ele>
        <time>2017-04-29T10:13:35Z</time>
      </trkpt>
      <trkpt lat="45.9498" lon="4.98436">
        <ele>288</ele>
        <time>2017-04-29T10:13:36Z</time>
      </trkpt>
      <trkpt lat="45.94983" lon="4.98429">
        <ele>288</ele>
        <time>2017-04-29T10:13:37Z</time>
      </trkpt>
      <trkpt lat="45.94986" lon="4.98422">
        <ele>288</ele>
        <time>2017-04-29T10:13:38Z</time>
      </trkpt>
      <trkpt lat="45.9499" lon="4.98415">
        <ele>288</ele>
        <time>2017-04-29T10:13:39Z</time>
      </trkpt>
      <trkpt lat="45.94993" lon="4.98408">
        <ele>288</ele>
        <time>2017-04-29T10:13:40Z</time>
      </trkpt>
      <trkpt lat="45.94997" lon="4.984">
        <ele>288</ele>
        <time>2017-04-29T10:13:41Z</time>
      </trkpt>
      <trkpt lat="45.95001" lon="4.98393">
        <ele>287</ele>
        <time>2017-04-29T10:13:42Z</time>
      </trkpt>
      <trkpt lat="45.95004" lon="4.98385">
        <ele>287</ele>
        <time>2017-04-29T10:13:43Z</time>
      </trkpt>
      <trkpt lat="45.95008" lon="4.98378">
        <ele>287</ele>
        <time>2017-04-29T10:13:44Z</time>
      </trkpt>
      <trkpt lat="45.95011" lon="4.98372">
        <ele>287</ele>
        <time>2017-04-29T10:13:45Z</time>
      </trkpt>
      <trkpt lat="45.95014" lon="4.98365">
        <ele>287</ele>
        <time>2017-04-29T10:13:46Z</time>
      </trkpt>
      <trkpt lat="45.95018" lon="4.98358">
        <ele>287</ele>
        <time>2017-04-29T10:13:47Z</time>
      </trkpt>
      <trkpt lat="45.95021" lon="4.98351">
        <ele>287</ele>
        <time>2017-04-29T10:13:48Z</time>
      </trkpt>
      <trkpt lat="45.95024" lon="4.98345">
        <ele>287</ele>
        <time>2017-04-29T10:13:49Z</time>
      </trkpt>
      <trkpt lat="45.95028" lon="4.98338">
        <ele>287</ele>
        <time>2017-04-29T10:13:50Z</time>
      </trkpt>
      <trkpt lat="45.95031" lon="4.98332">
        <ele>287</ele>
        <time>2017-04-29T10:13:51Z</time>
      </trkpt>
      <trkpt lat="45.95033" lon="4.98326">
        <ele>287</ele>
        <time>2017-04-29T10:13:52Z</time>
      </trkpt>
      <trkpt lat="45.95036" lon="4.98319">
        <ele>287</ele>
        <time>2017-04-29T10:13:53Z</time>
      </trkpt>
      <trkpt lat="45.95039" lon="4.98313">
        <ele>287</ele>
        <time>2017-04-29T10:13:54Z</time>
      </trkpt>
      <trkpt lat="45.95042" lon="4.98307">
        <ele>287</ele>
        <time>2017-04-29T10:13:55Z</time>
      </trkpt>
      <trkpt lat="45.95045" lon="4.98301">
        <ele>287</ele>
        <time>2017-04-29T10:13:56Z</time>
      </trkpt>
      <trkpt lat="45.95047" lon="4.98294">
        <ele>287</ele>
        <time>2017-04-29T10:13:57Z</time>
      </trkpt>
      <trkpt lat="45.9505" lon="4.98287">
        <ele>287</ele>
        <time>2017-04-29T10:13:58Z</time>
      </trkpt>
      <trkpt lat="45.95052" lon="4.9828">
        <ele>287</ele>
        <time>2017-04-29T10:13:59Z</time>
      </trkpt>
      <trkpt lat="45.95054" lon="4.98273">
        <ele>287</ele>
        <time>2017-04-29T10:14:00Z</time>
      </trkpt>
      <trkpt lat="45.95057" lon="4.98265">
        <ele>287</ele>
        <time>2017-04-29T10:14:01Z</time>
      </trkpt>
      <trkpt lat="45.9506" lon="4.98257">
        <ele>287</ele>
        <time>2017-04-29T10:14:02Z</time>
      </trkpt>
      <trkpt lat="45.95062" lon="4.98249">
        <ele>287</ele>
        <time>2017-04-29T10:14:03Z</time>
      </trkpt>
      <trkpt lat="45.95065" lon="4.98241">
        <ele>287</ele>
        <time>2017-04-29T10:14:04Z</time>
      </trkpt>
      <trkpt lat="45.95067" lon="4.98233">
        <ele>287</ele>
        <time>2017-04-29T10:14:05Z</time>
      </trkpt>
      <trkpt lat="45.95069" lon="4.98226">
        <ele>287</ele>
        <time>2017-04-29T10:14:06Z</time>
      </trkpt>
      <trkpt lat="45.95071" lon="4.98218">
        <ele>287</ele>
        <time>2017-04-29T10:14:07Z</time>
      </trkpt>
      <trkpt lat="45.95073" lon="4.98211">
        <ele>287</ele>
        <time>2017-04-29T10:14:08Z</time>
      </trkpt>
      <trkpt lat="45.95075" lon="4.98205">
        <ele>288</ele>
        <time>2017-04-29T10:14:09Z</time>
      </trkpt>
      <trkpt lat="45.95076" lon="4.98198">
        <ele>288</ele>
        <time>2017-04-29T10:14:10Z</time>
      </trkpt>
      <trkpt lat="45.95078" lon="4.98191">
        <ele>288</ele>
        <time>2017-04-29T10:14:11Z</time>
      </trkpt>
      <trkpt lat="45.95079" lon="4.98185">
        <ele>288</ele>
        <time>2017-04-29T10:14:12Z</time>
      </trkpt>
      <trkpt lat="45.95081" lon="4.98178">
        <ele>288</ele>
        <time>2017-04-29T10:14:13Z</time>
      </trkpt>
      <trkpt lat="45.95082" lon="4.98171">
        <ele>288</ele>
        <time>2017-04-29T10:14:14Z</time>
      </trkpt>
      <trkpt lat="45.95083" lon="4.98163">
        <ele>288</ele>
        <time>2017-04-29T10:14:15Z</time>
      </trkpt>
      <trkpt lat="45.95084" lon="4.98155">
        <ele>287</ele>
        <time>2017-04-29T10:14:16Z</time>
      </trkpt>
      <trkpt lat="45.95086" lon="4.98148">
        <ele>287</ele>
        <time>2017-04-29T10:14:17Z</time>
      </trkpt>
      <trkpt lat="45.95087" lon="4.98141">
        <ele>287</ele>
        <time>2017-04-29T10:14:18Z</time>
      </trkpt>
      <trkpt lat="45.95088" lon="4.98134">
        <ele>287</ele>
        <time>2017-04-29T10:14:19Z</time>
      </trkpt>
      <trkpt lat="45.95089" lon="4.98127">
        <ele>287</ele>
        <time>2017-04-29T10:14:20Z</time>
      </trkpt>
      <trkpt lat="45.9509" lon="4.98119">
        <ele>287</ele>
        <time>2017-04-29T10:14:21Z</time>
      </trkpt>
      <trkpt lat="45.95091" lon="4.98112">
        <ele>287</ele>
        <time>2017-04-29T10:14:22Z</time>
      </trkpt>
      <trkpt lat="45.95092" lon="4.98105">
        <ele>287</ele>
        <time>2017-04-29T10:14:23Z</time>
      </trkpt>
      <trkpt lat="45.95093" lon="4.98097">
        <ele>287</ele>
        <time>2017-04-29T10:14:24Z</time>
      </trkpt>
      <trkpt lat="45.95094" lon="4.98089">
        <ele>287</ele>
        <time>2017-04-29T10:14:25Z</time>
      </trkpt>
      <trkpt lat="45.95095" lon="4.98081">
        <ele>288</ele>
        <time>2017-04-29T10:14:26Z</time>
      </trkpt>
      <trkpt lat="45.95095" lon="4.98073">
        <ele>288</ele>
        <time>2017-04-29T10:14:27Z</time>
      </trkpt>
      <trkpt lat="45.95096" lon="4.98065">
        <ele>287</ele>
        <time>2017-04-29T10:14:28Z</time>
      </trkpt>
      <trkpt lat="45.95096" lon="4.98056">
        <ele>287</ele>
        <time>2017-04-29T10:14:29Z</time>
      </trkpt>
      <trkpt lat="45.95097" lon="4.98048">
        <ele>287</ele>
        <time>2017-04-29T10:14:30Z</time>
      </trkpt>
      <trkpt lat="45.95097" lon="4.98039">
        <ele>287</ele>
        <time>2017-04-29T10:14:31Z</time>
      </trkpt>
      <trkpt lat="45.95097" lon="4.9803">
        <ele>288</ele>
        <time>2017-04-29T10:14:32Z</time>
      </trkpt>
      <trkpt lat="45.95097" lon="4.98021">
        <ele>288</ele>
        <time>2017-04-29T10:14:33Z</time>
      </trkpt>
      <trkpt lat="45.95097" lon="4.98012">
        <ele>288</ele>
        <time>2017-04-29T10:14:34Z</time>
      </trkpt>
      <trkpt lat="45.95097" lon="4.98003">
        <ele>288</ele>
        <time>2017-04-29T10:14:35Z</time>
      </trkpt>
      <trkpt lat="45.95097" lon="4.97994">
        <ele>288</ele>
        <time>2017-04-29T10:14:36Z</time>
      </trkpt>
      <trkpt lat="45.95097" lon="4.97986">
        <ele>288</ele>
        <time>2017-04-29T10:14:37Z</time>
      </trkpt>
      <trkpt lat="45.95096" lon="4.97978">
        <ele>288</ele>
        <time>2017-04-29T10:14:38Z</time>
      </trkpt>
      <trkpt lat="45.95096" lon="4.9797">
        <ele>288</ele>
        <time>2017-04-29T10:14:39Z</time>
      </trkpt>
      <trkpt lat="45.95095" lon="4.97963">
        <ele>288</ele>
        <time>2017-04-29T10:14:40Z</time>
      </trkpt>
      <trkpt lat="45.95095" lon="4.97956">
        <ele>287</ele>
        <time>2017-04-29T10:14:41Z</time>
      </trkpt>
      <trkpt lat="45.95094" lon="4.97948">
        <ele>287</ele>
        <time>2017-04-29T10:14:42Z</time>
      </trkpt>
      <trkpt lat="45.95093" lon="4.97941">
        <ele>287</ele>
        <time>2017-04-29T10:14:43Z</time>
      </trkpt>
      <trkpt lat="45.95091" lon="4.97934">
        <ele>288</ele>
        <time>2017-04-29T10:14:44Z</time>
      </trkpt>
      <trkpt lat="45.9509" lon="4.97927">
        <ele>288</ele>
        <time>2017-04-29T10:14:45Z</time>
      </trkpt>
      <trkpt lat="45.95089" lon="4.97919">
        <ele>288</ele>
        <time>2017-04-29T10:14:46Z</time>
      </trkpt>
      <trkpt lat="45.95087" lon="4.97911">
        <ele>288</ele>
        <time>2017-04-29T10:14:47Z</time>
      </trkpt>
      <trkpt lat="45.95086" lon="4.97903">
        <ele>287</ele>
        <time>2017-04-29T10:14:48Z</time>
      </trkpt>
      <trkpt lat="45.95083" lon="4.97895">
        <ele>288</ele>
        <time>2017-04-29T10:14:49Z</time>
      </trkpt>
      <trkpt lat="45.95081" lon="4.97887">
        <ele>287</ele>
        <time>2017-04-29T10:14:50Z</time>
      </trkpt>
      <trkpt lat="45.95079" lon="4.97879">
        <ele>287</ele>
        <time>2017-04-29T10:14:51Z</time>
      </trkpt>
      <trkpt lat="45.95077" lon="4.97872">
        <ele>287</ele>
        <time>2017-04-29T10:14:52Z</time>
      </trkpt>
      <trkpt lat="45.95075" lon="4.97865">
        <ele>287</ele>
        <time>2017-04-29T10:14:53Z</time>
      </trkpt>
      <trkpt lat="45.95073" lon="4.97858">
        <ele>287</ele>
        <time>2017-04-29T10:14:54Z</time>
      </trkpt>
      <trkpt lat="45.95071" lon="4.97851">
        <ele>287</ele>
        <time>2017-04-29T10:14:55Z</time>
      </trkpt>
      <trkpt lat="45.95069" lon="4.97844">
        <ele>287</ele>
        <time>2017-04-29T10:14:56Z</time>
      </trkpt>
      <trkpt lat="45.95067" lon="4.97837">
        <ele>287</ele>
        <time>2017-04-29T10:14:57Z</time>
      </trkpt>
      <trkpt lat="45.95066" lon="4.97829">
        <ele>287</ele>
        <time>2017-04-29T10:14:58Z</time>
      </trkpt>
      <trkpt lat="45.95064" lon="4.97821">
        <ele>287</ele>
        <time>2017-04-29T10:14:59Z</time>
      </trkpt>
      <trkpt lat="45.95064" lon="4.97813">
        <ele>287</ele>
        <time>2017-04-29T10:15:00Z</time>
      </trkpt>
      <trkpt lat="45.95063" lon="4.97804">
        <ele>287</ele>
        <time>2017-04-29T10:15:01Z</time>
      </trkpt>
      <trkpt lat="45.95063" lon="4.97796">
        <ele>287</ele>
        <time>2017-04-29T10:15:02Z</time>
      </trkpt>
      <trkpt lat="45.95063" lon="4.97788">
        <ele>287</ele>
        <time>2017-04-29T10:15:03Z</time>
      </trkpt>
      <trkpt lat="45.95063" lon="4.97781">
        <ele>287</ele>
        <time>2017-04-29T10:15:04Z</time>
      </trkpt>
      <trkpt lat="45.95063" lon="4.97774">
        <ele>287</ele>
        <time>2017-04-29T10:15:05Z</time>
      </trkpt>
      <trkpt lat="45.95063" lon="4.97766">
        <ele>287</ele>
        <time>2017-04-29T10:15:06Z</time>
      </trkpt>
      <trkpt lat="45.95063" lon="4.97759">
        <ele>287</ele>
        <time>2017-04-29T10:15:07Z</time>
      </trkpt>
      <trkpt lat="45.95064" lon="4.97751">
        <ele>287</ele>
        <time>2017-04-29T10:15:08Z</time>
      </trkpt>
      <trkpt lat="45.95064" lon="4.97743">
        <ele>287</ele>
        <time>2017-04-29T10:15:09Z</time>
      </trkpt>
      <trkpt lat="45.95065" lon="4.97735">
        <ele>287</ele>
        <time>2017-04-29T10:15:10Z</time>
      </trkpt>
      <trkpt lat="45.95065" lon="4.97727">
        <ele>287</ele>
        <time>2017-04-29T10:15:11Z</time>
      </trkpt>
      <trkpt lat="45.95066" lon="4.97718">
        <ele>287</ele>
        <time>2017-04-29T10:15:12Z</time>
      </trkpt>
      <trkpt lat="45.95067" lon="4.97709">
        <ele>287</ele>
        <time>2017-04-29T10:15:13Z</time>
      </trkpt>
      <trkpt lat="45.95067" lon="4.977">
        <ele>286</ele>
        <time>2017-04-29T10:15:14Z</time>
      </trkpt>
      <trkpt lat="45.95068" lon="4.97691">
        <ele>286</ele>
        <time>2017-04-29T10:15:15Z</time>
      </trkpt>
      <trkpt lat="45.95068" lon="4.97682">
        <ele>286</ele>
        <time>2017-04-29T10:15:16Z</time>
      </trkpt>
      <trkpt lat="45.95069" lon="4.97673">
        <ele>286</ele>
        <time>2017-04-29T10:15:17Z</time>
      </trkpt>
      <trkpt lat="45.95069" lon="4.97664">
        <ele>286</ele>
        <time>2017-04-29T10:15:18Z</time>
      </trkpt>
      <trkpt lat="45.9507" lon="4.97655">
        <ele>286</ele>
        <time>2017-04-29T10:15:19Z</time>
      </trkpt>
      <trkpt lat="45.95071" lon="4.97646">
        <ele>286</ele>
        <time>2017-04-29T10:15:20Z</time>
      </trkpt>
      <trkpt lat="45.95071" lon="4.97637">
        <ele>285</ele>
        <time>2017-04-29T10:15:21Z</time>
      </trkpt>
      <trkpt lat="45.95072" lon="4.97629">
        <ele>285</ele>
        <time>2017-04-29T10:15:22Z</time>
      </trkpt>
      <trkpt lat="45.95073" lon="4.9762">
        <ele>285</ele>
        <time>2017-04-29T10:15:23Z</time>
      </trkpt>
      <trkpt lat="45.95073" lon="4.97611">
        <ele>285</ele>
        <time>2017-04-29T10:15:24Z</time>
      </trkpt>
      <trkpt lat="45.95073" lon="4.97603">
        <ele>285</ele>
        <time>2017-04-29T10:15:25Z</time>
      </trkpt>
      <trkpt lat="45.95074" lon="4.97594">
        <ele>285</ele>
        <time>2017-04-29T10:15:26Z</time>
      </trkpt>
      <trkpt lat="45.95074" lon="4.97586">
        <ele>285</ele>
        <time>2017-04-29T10:15:27Z</time>
      </trkpt>
      <trkpt lat="45.95074" lon="4.97578">
        <ele>285</ele>
        <time>2017-04-29T10:15:28Z</time>
      </trkpt>
      <trkpt lat="45.95074" lon="4.97569">
        <ele>285</ele>
        <time>2017-04-29T10:15:29Z</time>
      </trkpt>
      <trkpt lat="45.95075" lon="4.97561">
        <ele>285</ele>
        <time>2017-04-29T10:15:30Z</time>
      </trkpt>
      <trkpt lat="45.95075" lon="4.97553">
        <ele>285</ele>
        <time>2017-04-29T10:15:31Z</time>
      </trkpt>
      <trkpt lat="45.95075" lon="4.97545">
        <ele>285</ele>
        <time>2017-04-29T10:15:32Z</time>
      </trkpt>
      <trkpt lat="45.95075" lon="4.97537">
        <ele>286</ele>
        <time>2017-04-29T10:15:33Z</time>
      </trkpt>
      <trkpt lat="45.95075" lon="4.97529">
        <ele>286</ele>
        <time>2017-04-29T10:15:34Z</time>
      </trkpt>
      <trkpt lat="45.95074" lon="4.97521">
        <ele>286</ele>
        <time>2017-04-29T10:15:35Z</time>
      </trkpt>
      <trkpt lat="45.95074" lon="4.97512">
        <ele>286</ele>
        <time>2017-04-29T10:15:36Z</time>
      </trkpt>
      <trkpt lat="45.95074" lon="4.97504">
        <ele>286</ele>
        <time>2017-04-29T10:15:37Z</time>
      </trkpt>
      <trkpt lat="45.95074" lon="4.97496">
        <ele>286</ele>
        <time>2017-04-29T10:15:38Z</time>
      </trkpt>
      <trkpt lat="45.95074" lon="4.97488">
        <ele>286</ele>
        <time>2017-04-29T10:15:39Z</time>
      </trkpt>
      <trkpt lat="45.95073" lon="4.97479">
        <ele>287</ele>
        <time>2017-04-29T10:15:40Z</time>
      </trkpt>
      <trkpt lat="45.95073" lon="4.9747">
        <ele>287</ele>
        <time>2017-04-29T10:15:41Z</time>
      </trkpt>
      <trkpt lat="45.95072" lon="4.97461">
        <ele>287</ele>
        <time>2017-04-29T10:15:42Z</time>
      </trkpt>
      <trkpt lat="45.95072" lon="4.97453">
        <ele>287</ele>
        <time>2017-04-29T10:15:43Z</time>
      </trkpt>
      <trkpt lat="45.95071" lon="4.97444">
        <ele>287</ele>
        <time>2017-04-29T10:15:44Z</time>
      </trkpt>
      <trkpt lat="45.95071" lon="4.97436">
        <ele>287</ele>
        <time>2017-04-29T10:15:45Z</time>
      </trkpt>
      <trkpt lat="45.95071" lon="4.97428">
        <ele>287</ele>
        <time>2017-04-29T10:15:46Z</time>
      </trkpt>
      <trkpt lat="45.9507" lon="4.97419">
        <ele>287</ele>
        <time>2017-04-29T10:15:47Z</time>
      </trkpt>
      <trkpt lat="45.9507" lon="4.97412">
        <ele>287</ele>
        <time>2017-04-29T10:15:48Z</time>
      </trkpt>
      <trkpt lat="45.95069" lon="4.97404">
        <ele>287</ele>
        <time>2017-04-29T10:15:49Z</time>
      </trkpt>
      <trkpt lat="45.95069" lon="4.97396">
        <ele>287</ele>
        <time>2017-04-29T10:15:50Z</time>
      </trkpt>
      <trkpt lat="45.95069" lon="4.97388">
        <ele>287</ele>
        <time>2017-04-29T10:15:51Z</time>
      </trkpt>
      <trkpt lat="45.95068" lon="4.9738">
        <ele>287</ele>
        <time>2017-04-29T10:15:52Z</time>
      </trkpt>
      <trkpt lat="45.95068" lon="4.97372">
        <ele>286</ele>
        <time>2017-04-29T10:15:53Z</time>
      </trkpt>
      <trkpt lat="45.95068" lon="4.97363">
        <ele>286</ele>
        <time>2017-04-29T10:15:54Z</time>
      </trkpt>
      <trkpt lat="45.95067" lon="4.97354">
        <ele>286</ele>
        <time>2017-04-29T10:15:55Z</time>
      </trkpt>
      <trkpt lat="45.95067" lon="4.97344">
        <ele>286</ele>
        <time>2017-04-29T10:15:56Z</time>
      </trkpt>
      <trkpt lat="45.95066" lon="4.97335">
        <ele>286</ele>
        <time>2017-04-29T10:15:57Z</time>
      </trkpt>
      <trkpt lat="45.95065" lon="4.97325">
        <ele>286</ele>
        <time>2017-04-29T10:15:58Z</time>
      </trkpt>
      <trkpt lat="45.95065" lon="4.97315">
        <ele>286</ele>
        <time>2017-04-29T10:15:59Z</time>
      </trkpt>
      <trkpt lat="45.95065" lon="4.97305">
        <ele>285</ele>
        <time>2017-04-29T10:16:00Z</time>
      </trkpt>
      <trkpt lat="45.95064" lon="4.97295">
        <ele>285</ele>
        <time>2017-04-29T10:16:01Z</time>
      </trkpt>
      <trkpt lat="45.95064" lon="4.97285">
        <ele>285</ele>
        <time>2017-04-29T10:16:02Z</time>
      </trkpt>
      <trkpt lat="45.95064" lon="4.97276">
        <ele>285</ele>
        <time>2017-04-29T10:16:03Z</time>
      </trkpt>
      <trkpt lat="45.95063" lon="4.97266">
        <ele>285</ele>
        <time>2017-04-29T10:16:04Z</time>
      </trkpt>
      <trkpt lat="45.95063" lon="4.97257">
        <ele>286</ele>
        <time>2017-04-29T10:16:05Z</time>
      </trkpt>
      <trkpt lat="45.95063" lon="4.97247">
        <ele>285</ele>
        <time>2017-04-29T10:16:06Z</time>
      </trkpt>
      <trkpt lat="45.95062" lon="4.97238">
        <ele>285</ele>
        <time>2017-04-29T10:16:07Z</time>
      </trkpt>
      <trkpt lat="45.95062" lon="4.97229">
        <ele>285</ele>
        <time>2017-04-29T10:16:08Z</time>
      </trkpt>
      <trkpt lat="45.95061" lon="4.97219">
        <ele>285</ele>
        <time>2017-04-29T10:16:09Z</time>
      </trkpt>
      <trkpt lat="45.95061" lon="4.9721">
        <ele>285</ele>
        <time>2017-04-29T10:16:10Z</time>
      </trkpt>
      <trkpt lat="45.95061" lon="4.97202">
        <ele>285</ele>
        <time>2017-04-29T10:16:11Z</time>
      </trkpt>
      <trkpt lat="45.95061" lon="4.97193">
        <ele>285</ele>
        <time>2017-04-29T10:16:12Z</time>
      </trkpt>
      <trkpt lat="45.95061" lon="4.97184">
        <ele>285</ele>
        <time>2017-04-29T10:16:13Z</time>
      </trkpt>
      <trkpt lat="45.9506" lon="4.97175">
        <ele>285</ele>
        <time>2017-04-29T10:16:14Z</time>
      </trkpt>
      <trkpt lat="45.9506" lon="4.97167">
        <ele>285</ele>
        <time>2017-04-29T10:16:15Z</time>
      </trkpt>
      <trkpt lat="45.95059" lon="4.97158">
        <ele>285</ele>
        <time>2017-04-29T10:16:16Z</time>
      </trkpt>
      <trkpt lat="45.95059" lon="4.97149">
        <ele>285</ele>
        <time>2017-04-29T10:16:17Z</time>
      </trkpt>
      <trkpt lat="45.95058" lon="4.97141">
        <ele>285</ele>
        <time>2017-04-29T10:16:18Z</time>
      </trkpt>
      <trkpt lat="45.95058" lon="4.97133">
        <ele>285</ele>
        <time>2017-04-29T10:16:19Z</time>
      </trkpt>
      <trkpt lat="45.95057" lon="4.97124">
        <ele>285</ele>
        <time>2017-04-29T10:16:20Z</time>
      </trkpt>
      <trkpt lat="45.95057" lon="4.97117">
        <ele>285</ele>
        <time>2017-04-29T10:16:21Z</time>
      </trkpt>
      <trkpt lat="45.95057" lon="4.97109">
        <ele>285</ele>
        <time>2017-04-29T10:16:22Z</time>
      </trkpt>
      <trkpt lat="45.95056" lon="4.97101">
        <ele>285</ele>
        <time>2017-04-29T10:16:23Z</time>
      </trkpt>
      <trkpt lat="45.95056" lon="4.97093">
        <ele>285</ele>
        <time>2017-04-29T10:16:24Z</time>
      </trkpt>
      <trkpt lat="45.95056" lon="4.97085">
        <ele>285</ele>
        <time>2017-04-29T10:16:25Z</time>
      </trkpt>
      <trkpt lat="45.95055" lon="4.97078">
        <ele>285</ele>
        <time>2017-04-29T10:16:26Z</time>
      </trkpt>
      <trkpt lat="45.95055" lon="4.97069">
        <ele>285</ele>
        <time>2017-04-29T10:16:27Z</time>
      </trkpt>
      <trkpt lat="45.95055" lon="4.97061">
        <ele>285</ele>
        <time>2017-04-29T10:16:28Z</time>
      </trkpt>
      <trkpt lat="45.95055" lon="4.97053">
        <ele>285</ele>
        <time>2017-04-29T10:16:29Z</time>
      </trkpt>
      <trkpt lat="45.95054" lon="4.97045">
        <ele>285</ele>
        <time>2017-04-29T10:16:30Z</time>
      </trkpt>
      <trkpt lat="45.95054" lon="4.97037">
        <ele>285</ele>
        <time>2017-04-29T10:16:31Z</time>
      </trkpt>
      <trkpt lat="45.95054" lon="4.97029">
        <ele>285</ele>
        <time>2017-04-29T10:16:32Z</time>
      </trkpt>
      <trkpt lat="45.95053" lon="4.97021">
        <ele>285</ele>
        <time>2017-04-29T10:16:33Z</time>
      </trkpt>
      <trkpt lat="45.95053" lon="4.97012">
        <ele>285</ele>
        <time>2017-04-29T10:16:34Z</time>
      </trkpt>
      <trkpt lat="45.95053" lon="4.97004">
        <ele>285</ele>
        <time>2017-04-29T10:16:35Z</time>
      </trkpt>
      <trkpt lat="45.95053" lon="4.96995">
        <ele>285</ele>
        <time>2017-04-29T10:16:36Z</time>
      </trkpt>
      <trkpt lat="45.95053" lon="4.96986">
        <ele>285</ele>
        <time>2017-04-29T10:16:37Z</time>
      </trkpt>
      <trkpt lat="45.95052" lon="4.96977">
        <ele>285</ele>
        <time>2017-04-29T10:16:38Z</time>
      </trkpt>
      <trkpt lat="45.95052" lon="4.96969">
        <ele>285</ele>
        <time>2017-04-29T10:16:39Z</time>
      </trkpt>
      <trkpt lat="45.95051" lon="4.9696">
        <ele>285</ele>
        <time>2017-04-29T10:16:40Z</time>
      </trkpt>
      <trkpt lat="45.95051" lon="4.96951">
        <ele>285</ele>
        <time>2017-04-29T10:16:41Z</time>
      </trkpt>
      <trkpt lat="45.9505" lon="4.96942">
        <ele>285</ele>
        <time>2017-04-29T10:16:42Z</time>
      </trkpt>
      <trkpt lat="45.95049" lon="4.96933">
        <ele>285</ele>
        <time>2017-04-29T10:16:43Z</time>
      </trkpt>
      <trkpt lat="45.95049" lon="4.96924">
        <ele>285</ele>
        <time>2017-04-29T10:16:44Z</time>
      </trkpt>
      <trkpt lat="45.95049" lon="4.96915">
        <ele>285</ele>
        <time>2017-04-29T10:16:45Z</time>
      </trkpt>
      <trkpt lat="45.95049" lon="4.96906">
        <ele>286</ele>
        <time>2017-04-29T10:16:46Z</time>
      </trkpt>
      <trkpt lat="45.95048" lon="4.96897">
        <ele>286</ele>
        <time>2017-04-29T10:16:47Z</time>
      </trkpt>
      <trkpt lat="45.95047" lon="4.96888">
        <ele>286</ele>
        <time>2017-04-29T10:16:48Z</time>
      </trkpt>
      <trkpt lat="45.95047" lon="4.96879">
        <ele>286</ele>
        <time>2017-04-29T10:16:49Z</time>
      </trkpt>
      <trkpt lat="45.95047" lon="4.9687">
        <ele>286</ele>
        <time>2017-04-29T10:16:50Z</time>
      </trkpt>
      <trkpt lat="45.95046" lon="4.96862">
        <ele>286</ele>
        <time>2017-04-29T10:16:51Z</time>
      </trkpt>
      <trkpt lat="45.95046" lon="4.96854">
        <ele>286</ele>
        <time>2017-04-29T10:16:52Z</time>
      </trkpt>
      <trkpt lat="45.95046" lon="4.96846">
        <ele>286</ele>
        <time>2017-04-29T10:16:53Z</time>
      </trkpt>
      <trkpt lat="45.95046" lon="4.96838">
        <ele>286</ele>
        <time>2017-04-29T10:16:54Z</time>
      </trkpt>
      <trkpt lat="45.95045" lon="4.96831">
        <ele>286</ele>
        <time>2017-04-29T10:16:55Z</time>
      </trkpt>
      <trkpt lat="45.95045" lon="4.96824">
        <ele>286</ele>
        <time>2017-04-29T10:16:56Z</time>
      </trkpt>
      <trkpt lat="45.95045" lon="4.96816">
        <ele>286</ele>
        <time>2017-04-29T10:16:57Z</time>
      </trkpt>
      <trkpt lat="45.95044" lon="4.96809">
        <ele>286</ele>
        <time>2017-04-29T10:16:58Z</time>
      </trkpt>
      <trkpt lat="45.95044" lon="4.96801">
        <ele>286</ele>
        <time>2017-04-29T10:16:59Z</time>
      </trkpt>
      <trkpt lat="45.95043" lon="4.96794">
        <ele>286</ele>
        <time>2017-04-29T10:17:00Z</time>
      </trkpt>
      <trkpt lat="45.95043" lon="4.96786">
        <ele>287</ele>
        <time>2017-04-29T10:17:01Z</time>
      </trkpt>
      <trkpt lat="45.95042" lon="4.96778">
        <ele>287</ele>
        <time>2017-04-29T10:17:02Z</time>
      </trkpt>
      <trkpt lat="45.95042" lon="4.96771">
        <ele>287</ele>
        <time>2017-04-29T10:17:03Z</time>
      </trkpt>
      <trkpt lat="45.95041" lon="4.96763">
        <ele>287</ele>
        <time>2017-04-29T10:17:04Z</time>
      </trkpt>
      <trkpt lat="45.95041" lon="4.96755">
        <ele>287</ele>
        <time>2017-04-29T10:17:05Z</time>
      </trkpt>
      <trkpt lat="45.95041" lon="4.96748">
        <ele>287</ele>
        <time>2017-04-29T10:17:06Z</time>
      </trkpt>
      <trkpt lat="45.95041" lon="4.9674">
        <ele>287</ele>
        <time>2017-04-29T10:17:07Z</time>
      </trkpt>
      <trkpt lat="45.95041" lon="4.96732">
        <ele>287</ele>
        <time>2017-04-29T10:17:08Z</time>
      </trkpt>
      <trkpt lat="45.95041" lon="4.96724">
        <ele>287</ele>
        <time>2017-04-29T10:17:09Z</time>
      </trkpt>
      <trkpt lat="45.9504" lon="4.96715">
        <ele>287</ele>
        <time>2017-04-29T10:17:10Z</time>
      </trkpt>
      <trkpt lat="45.9504" lon="4.96707">
        <ele>287</ele>
        <time>2017-04-29T10:17:11Z</time>
      </trkpt>
      <trkpt lat="45.9504" lon="4.96699">
        <ele>287</ele>
        <time>2017-04-29T10:17:12Z</time>
      </trkpt>
      <trkpt lat="45.95039" lon="4.9669">
        <ele>287</ele>
        <time>2017-04-29T10:17:13Z</time>
      </trkpt>
      <trkpt lat="45.95039" lon="4.96682">
        <ele>287</ele>
        <time>2017-04-29T10:17:14Z</time>
      </trkpt>
      <trkpt lat="45.95039" lon="4.96673">
        <ele>287</ele>
        <time>2017-04-29T10:17:15Z</time>
      </trkpt>
      <trkpt lat="45.95039" lon="4.96665">
        <ele>288</ele>
        <time>2017-04-29T10:17:16Z</time>
      </trkpt>
      <trkpt lat="45.95039" lon="4.96656">
        <ele>288</ele>
        <time>2017-04-29T10:17:17Z</time>
      </trkpt>
      <trkpt lat="45.95039" lon="4.96647">
        <ele>288</ele>
        <time>2017-04-29T10:17:18Z</time>
      </trkpt>
      <trkpt lat="45.95039" lon="4.96639">
        <ele>288</ele>
        <time>2017-04-29T10:17:19Z</time>
      </trkpt>
      <trkpt lat="45.9504" lon="4.96632">
        <ele>288</ele>
        <time>2017-04-29T10:17:20Z</time>
      </trkpt>
      <trkpt lat="45.95041" lon="4.96624">
        <ele>287</ele>
        <time>2017-04-29T10:17:21Z</time>
      </trkpt>
      <trkpt lat="45.95042" lon="4.96617">
        <ele>287</ele>
        <time>2017-04-29T10:17:22Z</time>
      </trkpt>
      <trkpt lat="45.95042" lon="4.9661">
        <ele>288</ele>
        <time>2017-04-29T10:17:23Z</time>
      </trkpt>
      <trkpt lat="45.95043" lon="4.96603">
        <ele>288</ele>
        <time>2017-04-29T10:17:24Z</time>
      </trkpt>
      <trkpt lat="45.95044" lon="4.96596">
        <ele>288</ele>
        <time>2017-04-29T10:17:25Z</time>
      </trkpt>
      <trkpt lat="45.95045" lon="4.96589">
        <ele>288</ele>
        <time>2017-04-29T10:17:26Z</time>
      </trkpt>
      <trkpt lat="45.95046" lon="4.96582">
        <ele>287</ele>
        <time>2017-04-29T10:17:27Z</time>
      </trkpt>
      <trkpt lat="45.95047" lon="4.96576">
        <ele>287</ele>
        <time>2017-04-29T10:17:28Z</time>
      </trkpt>
      <trkpt lat="45.95049" lon="4.96569">
        <ele>287</ele>
        <time>2017-04-29T10:17:29Z</time>
      </trkpt>
      <trkpt lat="45.95051" lon="4.96562">
        <ele>287</ele>
        <time>2017-04-29T10:17:30Z</time>
      </trkpt>
      <trkpt lat="45.95053" lon="4.96555">
        <ele>287</ele>
        <time>2017-04-29T10:17:31Z</time>
      </trkpt>
      <trkpt lat="45.95055" lon="4.96548">
        <ele>287</ele>
        <time>2017-04-29T10:17:32Z</time>
      </trkpt>
      <trkpt lat="45.95057" lon="4.96541">
        <ele>287</ele>
        <time>2017-04-29T10:17:33Z</time>
      </trkpt>
      <trkpt lat="45.95059" lon="4.96534">
        <ele>287</ele>
        <time>2017-04-29T10:17:34Z</time>
      </trkpt>
      <trkpt lat="45.95062" lon="4.96528">
        <ele>287</ele>
        <time>2017-04-29T10:17:35Z</time>
      </trkpt>
      <trkpt lat="45.95065" lon="4.96522">
        <ele>287</ele>
        <time>2017-04-29T10:17:36Z</time>
      </trkpt>
      <trkpt lat="45.95068" lon="4.96517">
        <ele>288</ele>
        <time>2017-04-29T10:17:37Z</time>
      </trkpt>
      <trkpt lat="45.9507" lon="4.9651">
        <ele>288</ele>
        <time>2017-04-29T10:17:38Z</time>
      </trkpt>
      <trkpt lat="45.95072" lon="4.96503">
        <ele>288</ele>
        <time>2017-04-29T10:17:39Z</time>
      </trkpt>
      <trkpt lat="45.95075" lon="4.96495">
        <ele>288</ele>
        <time>2017-04-29T10:17:40Z</time>
      </trkpt>
      <trkpt lat="45.95079" lon="4.96488">
        <ele>287</ele>
        <time>2017-04-29T10:17:41Z</time>
      </trkpt>
      <trkpt lat="45.95081" lon="4.9648">
        <ele>287</ele>
        <time>2017-04-29T10:17:42Z</time>
      </trkpt>
      <trkpt lat="45.95084" lon="4.96472">
        <ele>287</ele>
        <time>2017-04-29T10:17:43Z</time>
      </trkpt>
      <trkpt lat="45.95087" lon="4.96464">
        <ele>287</ele>
        <time>2017-04-29T10:17:44Z</time>
      </trkpt>
      <trkpt lat="45.9509" lon="4.96456">
        <ele>287</ele>
        <time>2017-04-29T10:17:45Z</time>
      </trkpt>
      <trkpt lat="45.95093" lon="4.96448">
        <ele>287</ele>
        <time>2017-04-29T10:17:46Z</time>
      </trkpt>
      <trkpt lat="45.95096" lon="4.96441">
        <ele>287</ele>
        <time>2017-04-29T10:17:47Z</time>
      </trkpt>
      <trkpt lat="45.95099" lon="4.96434">
        <ele>287</ele>
        <time>2017-04-29T10:17:48Z</time>
      </trkpt>
      <trkpt lat="45.95102" lon="4.96427">
        <ele>286</ele>
        <time>2017-04-29T10:17:49Z</time>
      </trkpt>
      <trkpt lat="45.95105" lon="4.9642">
        <ele>286</ele>
        <time>2017-04-29T10:17:50Z</time>
      </trkpt>
      <trkpt lat="45.95107" lon="4.96412">
        <ele>286</ele>
        <time>2017-04-29T10:17:51Z</time>
      </trkpt>
      <trkpt lat="45.9511" lon="4.96405">
        <ele>286</ele>
        <time>2017-04-29T10:17:52Z</time>
      </trkpt>
      <trkpt lat="45.95112" lon="4.96398">
        <ele>286</ele>
        <time>2017-04-29T10:17:53Z</time>
      </trkpt>
      <trkpt lat="45.95115" lon="4.9639">
        <ele>286</ele>
        <time>2017-04-29T10:17:54Z</time>
      </trkpt>
      <trkpt lat="45.95117" lon="4.96384">
        <ele>286</ele>
        <time>2017-04-29T10:17:55Z</time>
      </trkpt>
      <trkpt lat="45.9512" lon="4.96377">
        <ele>286</ele>
        <time>2017-04-29T10:17:56Z</time>
      </trkpt>
      <trkpt lat="45.95122" lon="4.9637">
        <ele>286</ele>
        <time>2017-04-29T10:17:57Z</time>
      </trkpt>
      <trkpt lat="45.95125" lon="4.96363">
        <ele>286</ele>
        <time>2017-04-29T10:17:58Z</time>
      </trkpt>
      <trkpt lat="45.95127" lon="4.96356">
        <ele>286</ele>
        <time>2017-04-29T10:17:59Z</time>
      </trkpt>
      <trkpt lat="45.9513" lon="4.96348">
        <ele>286</ele>
        <time>2017-04-29T10:18:00Z</time>
      </trkpt>
      <trkpt lat="45.95132" lon="4.9634">
        <ele>286</ele>
        <time>2017-04-29T10:18:01Z</time>
      </trkpt>
      <trkpt lat="45.95135" lon="4.96332">
        <ele>285</ele>
        <time>2017-04-29T10:18:02Z</time>
      </trkpt>
      <trkpt lat="45.95137" lon="4.96324">
        <ele>286</ele>
        <time>2017-04-29T10:18:03Z</time>
      </trkpt>
      <trkpt lat="45.9514" lon="4.96315">
        <ele>285</ele>
        <time>2017-04-29T10:18:04Z</time>
      </trkpt>
      <trkpt lat="45.95143" lon="4.96307">
        <ele>285</ele>
        <time>2017-04-29T10:18:05Z</time>
      </trkpt>
      <trkpt lat="45.95146" lon="4.96299">
        <ele>285</ele>
        <time>2017-04-29T10:18:06Z</time>
      </trkpt>
      <trkpt lat="45.95149" lon="4.96292">
        <ele>285</ele>
        <time>2017-04-29T10:18:07Z</time>
      </trkpt>
      <trkpt lat="45.95152" lon="4.96284">
        <ele>285</ele>
        <time>2017-04-29T10:18:08Z</time>
      </trkpt>
      <trkpt lat="45.95154" lon="4.96276">
        <ele>285</ele>
        <time>2017-04-29T10:18:09Z</time>
      </trkpt>
      <trkpt lat="45.95157" lon="4.96268">
        <ele>285</ele>
        <time>2017-04-29T10:18:10Z</time>
      </trkpt>
      <trkpt lat="45.95159" lon="4.96261">
        <ele>286</ele>
        <time>2017-04-29T10:18:11Z</time>
      </trkpt>
      <trkpt lat="45.9516" lon="4.96253">
        <ele>286</ele>
        <time>2017-04-29T10:18:12Z</time>
      </trkpt>
      <trkpt lat="45.95162" lon="4.96246">
        <ele>286</ele>
        <time>2017-04-29T10:18:13Z</time>
      </trkpt>
      <trkpt lat="45.95163" lon="4.96238">
        <ele>286</ele>
        <time>2017-04-29T10:18:14Z</time>
      </trkpt>
      <trkpt lat="45.95163" lon="4.9623">
        <ele>286</ele>
        <time>2017-04-29T10:18:15Z</time>
      </trkpt>
      <trkpt lat="45.95163" lon="4.96222">
        <ele>286</ele>
        <time>2017-04-29T10:18:16Z</time>
      </trkpt>
      <trkpt lat="45.95164" lon="4.96214">
        <ele>286</ele>
        <time>2017-04-29T10:18:17Z</time>
      </trkpt>
      <trkpt lat="45.95164" lon="4.96206">
        <ele>286</ele>
        <time>2017-04-29T10:18:18Z</time>
      </trkpt>
      <trkpt lat="45.95164" lon="4.96199">
        <ele>286</ele>
        <time>2017-04-29T10:18:19Z</time>
      </trkpt>
      <trkpt lat="45.95164" lon="4.96191">
        <ele>286</ele>
        <time>2017-04-29T10:18:20Z</time>
      </trkpt>
      <trkpt lat="45.95165" lon="4.96184">
        <ele>286</ele>
        <time>2017-04-29T10:18:21Z</time>
      </trkpt>
      <trkpt lat="45.95165" lon="4.96176">
        <ele>286</ele>
        <time>2017-04-29T10:18:22Z</time>
      </trkpt>
      <trkpt lat="45.95165" lon="4.96167">
        <ele>286</ele>
        <time>2017-04-29T10:18:23Z</time>
      </trkpt>
      <trkpt lat="45.95165" lon="4.96159">
        <ele>286</ele>
        <time>2017-04-29T10:18:24Z</time>
      </trkpt>
      <trkpt lat="45.95165" lon="4.96151">
        <ele>286</ele>
        <time>2017-04-29T10:18:25Z</time>
      </trkpt>
      <trkpt lat="45.95165" lon="4.96142">
        <ele>286</ele>
        <time>2017-04-29T10:18:26Z</time>
      </trkpt>
      <trkpt lat="45.95166" lon="4.96133">
        <ele>286</ele>
        <time>2017-04-29T10:18:27Z</time>
      </trkpt>
      <trkpt lat="45.95166" lon="4.96125">
        <ele>286</ele>
        <time>2017-04-29T10:18:28Z</time>
      </trkpt>
      <trkpt lat="45.95166" lon="4.96116">
        <ele>286</ele>
        <time>2017-04-29T10:18:29Z</time>
      </trkpt>
      <trkpt lat="45.95166" lon="4.96107">
        <ele>286</ele>
        <time>2017-04-29T10:18:30Z</time>
      </trkpt>
      <trkpt lat="45.95165" lon="4.96097">
        <ele>286</ele>
        <time>2017-04-29T10:18:31Z</time>
      </trkpt>
      <trkpt lat="45.95164" lon="4.96088">
        <ele>286</ele>
        <time>2017-04-29T10:18:32Z</time>
      </trkpt>
      <trkpt lat="45.95163" lon="4.96078">
        <ele>286</ele>
        <time>2017-04-29T10:18:33Z</time>
      </trkpt>
      <trkpt lat="45.95161" lon="4.96069">
        <ele>286</ele>
        <time>2017-04-29T10:18:34Z</time>
      </trkpt>
      <trkpt lat="45.95158" lon="4.9606">
        <ele>285</ele>
        <time>2017-04-29T10:18:35Z</time>
      </trkpt>
      <trkpt lat="45.95156" lon="4.96051">
        <ele>285</ele>
        <time>2017-04-29T10:18:36Z</time>
      </trkpt>
      <trkpt lat="45.95155" lon="4.96043">
        <ele>285</ele>
        <time>2017-04-29T10:18:37Z</time>
      </trkpt>
      <trkpt lat="45.95153" lon="4.96034">
        <ele>285</ele>
        <time>2017-04-29T10:18:38Z</time>
      </trkpt>
      <trkpt lat="45.95152" lon="4.96026">
        <ele>285</ele>
        <time>2017-04-29T10:18:39Z</time>
      </trkpt>
      <trkpt lat="45.9515" lon="4.96018">
        <ele>285</ele>
        <time>2017-04-29T10:18:40Z</time>
      </trkpt>
      <trkpt lat="45.95148" lon="4.96009">
        <ele>285</ele>
        <time>2017-04-29T10:18:41Z</time>
      </trkpt>
      <trkpt lat="45.95146" lon="4.96002">
        <ele>285</ele>
        <time>2017-04-29T10:18:42Z</time>
      </trkpt>
      <trkpt lat="45.95145" lon="4.95994">
        <ele>285</ele>
        <time>2017-04-29T10:18:43Z</time>
      </trkpt>
      <trkpt lat="45.95143" lon="4.95986">
        <ele>285</ele>
        <time>2017-04-29T10:18:44Z</time>
      </trkpt>
      <trkpt lat="45.95141" lon="4.95978">
        <ele>285</ele>
        <time>2017-04-29T10:18:45Z</time>
      </trkpt>
      <trkpt lat="45.9514" lon="4.9597">
        <ele>285</ele>
        <time>2017-04-29T10:18:46Z</time>
      </trkpt>
      <trkpt lat="45.95139" lon="4.95961">
        <ele>285</ele>
        <time>2017-04-29T10:18:47Z</time>
      </trkpt>
      <trkpt lat="45.95137" lon="4.95953">
        <ele>284</ele>
        <time>2017-04-29T10:18:48Z</time>
      </trkpt>
      <trkpt lat="45.95134" lon="4.95944">
        <ele>284</ele>
        <time>2017-04-29T10:18:49Z</time>
      </trkpt>
      <trkpt lat="45.95132" lon="4.95935">
        <ele>284</ele>
        <time>2017-04-29T10:18:50Z</time>
      </trkpt>
      <trkpt lat="45.95129" lon="4.95926">
        <ele>284</ele>
        <time>2017-04-29T10:18:51Z</time>
      </trkpt>
      <trkpt lat="45.95127" lon="4.95917">
        <ele>284</ele>
        <time>2017-04-29T10:18:52Z</time>
      </trkpt>
      <trkpt lat="45.95124" lon="4.95907">
        <ele>285</ele>
        <time>2017-04-29T10:18:53Z</time>
      </trkpt>
      <trkpt lat="45.95122" lon="4.95898">
        <ele>285</ele>
        <time>2017-04-29T10:18:54Z</time>
      </trkpt>
      <trkpt lat="45.95119" lon="4.95888">
        <ele>285</ele>
        <time>2017-04-29T10:18:55Z</time>
      </trkpt>
      <trkpt lat="45.95117" lon="4.95878">
        <ele>285</ele>
        <time>2017-04-29T10:18:56Z</time>
      </trkpt>
      <trkpt lat="45.95115" lon="4.95868">
        <ele>285</ele>
        <time>2017-04-29T10:18:57Z</time>
      </trkpt>
      <trkpt lat="45.95113" lon="4.95859">
        <ele>285</ele>
        <time>2017-04-29T10:18:58Z</time>
      </trkpt>
      <trkpt lat="45.9511" lon="4.95849">
        <ele>285</ele>
        <time>2017-04-29T10:18:59Z</time>
      </trkpt>
      <trkpt lat="45.95108" lon="4.95839">
        <ele>285</ele>
        <time>2017-04-29T10:19:00Z</time>
      </trkpt>
      <trkpt lat="45.95106" lon="4.9583">
        <ele>285</ele>
        <time>2017-04-29T10:19:01Z</time>
      </trkpt>
      <trkpt lat="45.95103" lon="4.95821">
        <ele>285</ele>
        <time>2017-04-29T10:19:02Z</time>
      </trkpt>
      <trkpt lat="45.95102" lon="4.95813">
        <ele>285</ele>
        <time>2017-04-29T10:19:03Z</time>
      </trkpt>
      <trkpt lat="45.951" lon="4.95805">
        <ele>285</ele>
        <time>2017-04-29T10:19:04Z</time>
      </trkpt>
      <trkpt lat="45.95098" lon="4.95797">
        <ele>285</ele>
        <time>2017-04-29T10:19:05Z</time>
      </trkpt>
      <trkpt lat="45.95096" lon="4.95789">
        <ele>285</ele>
        <time>2017-04-29T10:19:06Z</time>
      </trkpt>
      <trkpt lat="45.95094" lon="4.95781">
        <ele>285</ele>
        <time>2017-04-29T10:19:07Z</time>
      </trkpt>
      <trkpt lat="45.95092" lon="4.95774">
        <ele>285</ele>
        <time>2017-04-29T10:19:08Z</time>
      </trkpt>
      <trkpt lat="45.9509" lon="4.95766">
        <ele>285</ele>
        <time>2017-04-29T10:19:09Z</time>
      </trkpt>
      <trkpt lat="45.95088" lon="4.95759">
        <ele>285</ele>
        <time>2017-04-29T10:19:10Z</time>
      </trkpt>
      <trkpt lat="45.95087" lon="4.95751">
        <ele>286</ele>
        <time>2017-04-29T10:19:11Z</time>
      </trkpt>
      <trkpt lat="45.95085" lon="4.95744">
        <ele>286</ele>
        <time>2017-04-29T10:19:12Z</time>
      </trkpt>
      <trkpt lat="45.95083" lon="4.95736">
        <ele>286</ele>
        <time>2017-04-29T10:19:13Z</time>
      </trkpt>
      <trkpt lat="45.9508" lon="4.95729">
        <ele>286</ele>
        <time>2017-04-29T10:19:14Z</time>
      </trkpt>
      <trkpt lat="45.95078" lon="4.95722">
        <ele>286</ele>
        <time>2017-04-29T10:19:15Z</time>
      </trkpt>
      <trkpt lat="45.95076" lon="4.95715">
        <ele>286</ele>
        <time>2017-04-29T10:19:16Z</time>
      </trkpt>
      <trkpt lat="45.95074" lon="4.95708">
        <ele>286</ele>
        <time>2017-04-29T10:19:17Z</time>
      </trkpt>
      <trkpt lat="45.95072" lon="4.95701">
        <ele>286</ele>
        <time>2017-04-29T10:19:18Z</time>
      </trkpt>
      <trkpt lat="45.9507" lon="4.95694">
        <ele>286</ele>
        <time>2017-04-29T10:19:19Z</time>
      </trkpt>
      <trkpt lat="45.95067" lon="4.95687">
        <ele>286</ele>
        <time>2017-04-29T10:19:20Z</time>
      </trkpt>
      <trkpt lat="45.95065" lon="4.9568">
        <ele>286</ele>
        <time>2017-04-29T10:19:21Z</time>
      </trkpt>
      <trkpt lat="45.95062" lon="4.95673">
        <ele>286</ele>
        <time>2017-04-29T10:19:22Z</time>
      </trkpt>
      <trkpt lat="45.9506" lon="4.95667">
        <ele>286</ele>
        <time>2017-04-29T10:19:23Z</time>
      </trkpt>
      <trkpt lat="45.95057" lon="4.9566">
        <ele>286</ele>
        <time>2017-04-29T10:19:24Z</time>
      </trkpt>
      <trkpt lat="45.95055" lon="4.95654">
        <ele>286</ele>
        <time>2017-04-29T10:19:25Z</time>
      </trkpt>
      <trkpt lat="45.95052" lon="4.95647">
        <ele>286</ele>
        <time>2017-04-29T10:19:26Z</time>
      </trkpt>
      <trkpt lat="45.9505" lon="4.9564">
        <ele>286</ele>
        <time>2017-04-29T10:19:27Z</time>
      </trkpt>
      <trkpt lat="45.95047" lon="4.95634">
        <ele>286</ele>
        <time>2017-04-29T10:19:28Z</time>
      </trkpt>
      <trkpt lat="45.95045" lon="4.95627">
        <ele>286</ele>
        <time>2017-04-29T10:19:29Z</time>
      </trkpt>
      <trkpt lat="45.95043" lon="4.95621">
        <ele>286</ele>
        <time>2017-04-29T10:19:30Z</time>
      </trkpt>
      <trkpt lat="45.95041" lon="4.95614">
        <ele>286</ele>
        <time>2017-04-29T10:19:31Z</time>
      </trkpt>
      <trkpt lat="45.95038" lon="4.95607">
        <ele>286</ele>
        <time>2017-04-29T10:19:32Z</time>
      </trkpt>
      <trkpt lat="45.95036" lon="4.956">
        <ele>286</ele>
        <time>2017-04-29T10:19:33Z</time>
      </trkpt>
      <trkpt lat="45.95034" lon="4.95593">
        <ele>286</ele>
        <time>2017-04-29T10:19:34Z</time>
      </trkpt>
      <trkpt lat="45.95031" lon="4.95587">
        <ele>286</ele>
        <time>2017-04-29T10:19:35Z</time>
      </trkpt>
      <trkpt lat="45.95028" lon="4.9558">
        <ele>286</ele>
        <time>2017-04-29T10:19:36Z</time>
      </trkpt>
      <trkpt lat="45.95026" lon="4.95574">
        <ele>286</ele>
        <time>2017-04-29T10:19:37Z</time>
      </trkpt>
      <trkpt lat="45.95024" lon="4.95568">
        <ele>287</ele>
        <time>2017-04-29T10:19:38Z</time>
      </trkpt>
      <trkpt lat="45.95022" lon="4.95561">
        <ele>287</ele>
        <time>2017-04-29T10:19:39Z</time>
      </trkpt>
      <trkpt lat="45.9502" lon="4.95554">
        <ele>287</ele>
        <time>2017-04-29T10:19:40Z</time>
      </trkpt>
      <trkpt lat="45.95018" lon="4.95546">
        <ele>287</ele>
        <time>2017-04-29T10:19:41Z</time>
      </trkpt>
      <trkpt lat="45.95017" lon="4.95539">
        <ele>287</ele>
        <time>2017-04-29T10:19:42Z</time>
      </trkpt>
      <trkpt lat="45.95016" lon="4.95532">
        <ele>287</ele>
        <time>2017-04-29T10:19:43Z</time>
      </trkpt>
      <trkpt lat="45.95015" lon="4.95525">
        <ele>287</ele>
        <time>2017-04-29T10:19:44Z</time>
      </trkpt>
      <trkpt lat="45.95015" lon="4.95518">
        <ele>287</ele>
        <time>2017-04-29T10:19:45Z</time>
      </trkpt>
      <trkpt lat="45.95014" lon="4.95511">
        <ele>287</ele>
        <time>2017-04-29T10:19:46Z</time>
      </trkpt>
      <trkpt lat="45.95014" lon="4.95504">
        <ele>287</ele>
        <time>2017-04-29T10:19:47Z</time>
      </trkpt>
      <trkpt lat="45.95013" lon="4.95497">
        <ele>288</ele>
        <time>2017-04-29T10:19:48Z</time>
      </trkpt>
      <trkpt lat="45.95013" lon="4.9549">
        <ele>288</ele>
        <time>2017-04-29T10:19:49Z</time>
      </trkpt>
      <trkpt lat="45.95012" lon="4.95483">
        <ele>288</ele>
        <time>2017-04-29T10:19:50Z</time>
      </trkpt>
      <trkpt lat="45.95012" lon="4.95476">
        <ele>288</ele>
        <time>2017-04-29T10:19:51Z</time>
      </trkpt>
      <trkpt lat="45.95012" lon="4.95468">
        <ele>288</ele>
        <time>2017-04-29T10:19:52Z</time>
      </trkpt>
      <trkpt lat="45.95013" lon="4.95461">
        <ele>288</ele>
        <time>2017-04-29T10:19:53Z</time>
      </trkpt>
      <trkpt lat="45.95013" lon="4.95454">
        <ele>288</ele>
        <time>2017-04-29T10:19:54Z</time>
      </trkpt>
      <trkpt lat="45.95013" lon="4.95447">
        <ele>288</ele>
        <time>2017-04-29T10:19:55Z</time>
      </trkpt>
      <trkpt lat="45.95014" lon="4.9544">
        <ele>288</ele>
        <time>2017-04-29T10:19:56Z</time>
      </trkpt>
      <trkpt lat="45.95014" lon="4.95433">
        <ele>288</ele>
        <time>2017-04-29T10:19:57Z</time>
      </trkpt>
      <trkpt lat="45.95015" lon="4.95425">
        <ele>288</ele>
        <time>2017-04-29T10:19:58Z</time>
      </trkpt>
      <trkpt lat="45.95015" lon="4.95418">
        <ele>288</ele>
        <time>2017-04-29T10:19:59Z</time>
      </trkpt>
      <trkpt lat="45.95015" lon="4.95411">
        <ele>288</ele>
        <time>2017-04-29T10:20:00Z</time>
      </trkpt>
      <trkpt lat="45.95016" lon="4.95404">
        <ele>288</ele>
        <time>2017-04-29T10:20:01Z</time>
      </trkpt>
      <trkpt lat="45.95016" lon="4.95397">
        <ele>288</ele>
        <time>2017-04-29T10:20:02Z</time>
      </trkpt>
      <trkpt lat="45.95017" lon="4.95385">
        <ele>288</ele>
        <time>2017-04-29T10:20:04Z</time>
      </trkpt>
      <trkpt lat="45.95017" lon="4.95378">
        <ele>288</ele>
        <time>2017-04-29T10:20:05Z</time>
      </trkpt>
      <trkpt lat="45.95017" lon="4.95372">
        <ele>288</ele>
        <time>2017-04-29T10:20:06Z</time>
      </trkpt>
      <trkpt lat="45.95017" lon="4.95365">
        <ele>289</ele>
        <time>2017-04-29T10:20:07Z</time>
      </trkpt>
      <trkpt lat="45.95017" lon="4.95359">
        <ele>289</ele>
        <time>2017-04-29T10:20:08Z</time>
      </trkpt>
      <trkpt lat="45.95017" lon="4.95352">
        <ele>289</ele>
        <time>2017-04-29T10:20:09Z</time>
      </trkpt>
      <trkpt lat="45.95017" lon="4.95345">
        <ele>289</ele>
        <time>2017-04-29T10:20:10Z</time>
      </trkpt>
      <trkpt lat="45.95017" lon="4.95337">
        <ele>289</ele>
        <time>2017-04-29T10:20:11Z</time>
      </trkpt>
      <trkpt lat="45.95017" lon="4.9533">
        <ele>289</ele>
        <time>2017-04-29T10:20:12Z</time>
      </trkpt>
      <trkpt lat="45.95017" lon="4.95323">
        <ele>289</ele>
        <time>2017-04-29T10:20:13Z</time>
      </trkpt>
      <trkpt lat="45.95017" lon="4.95316">
        <ele>289</ele>
        <time>2017-04-29T10:20:14Z</time>
      </trkpt>
      <trkpt lat="45.95017" lon="4.9531">
        <ele>289</ele>
        <time>2017-04-29T10:20:15Z</time>
      </trkpt>
      <trkpt lat="45.95016" lon="4.95297">
        <ele>289</ele>
        <time>2017-04-29T10:20:17Z</time>
      </trkpt>
      <trkpt lat="45.95016" lon="4.95291">
        <ele>289</ele>
        <time>2017-04-29T10:20:18Z</time>
      </trkpt>
      <trkpt lat="45.95015" lon="4.95284">
        <ele>289</ele>
        <time>2017-04-29T10:20:19Z</time>
      </trkpt>
      <trkpt lat="45.95014" lon="4.95277">
        <ele>289</ele>
        <time>2017-04-29T10:20:20Z</time>
      </trkpt>
      <trkpt lat="45.95013" lon="4.9527">
        <ele>289</ele>
        <time>2017-04-29T10:20:21Z</time>
      </trkpt>
      <trkpt lat="45.95012" lon="4.95263">
        <ele>289</ele>
        <time>2017-04-29T10:20:22Z</time>
      </trkpt>
      <trkpt lat="45.9501" lon="4.95257">
        <ele>289</ele>
        <time>2017-04-29T10:20:23Z</time>
      </trkpt>
      <trkpt lat="45.95009" lon="4.9525">
        <ele>290</ele>
        <time>2017-04-29T10:20:24Z</time>
      </trkpt>
      <trkpt lat="45.95008" lon="4.95243">
        <ele>290</ele>
        <time>2017-04-29T10:20:25Z</time>
      </trkpt>
      <trkpt lat="45.95007" lon="4.95236">
        <ele>290</ele>
        <time>2017-04-29T10:20:26Z</time>
      </trkpt>
      <trkpt lat="45.95006" lon="4.95229">
        <ele>290</ele>
        <time>2017-04-29T10:20:27Z</time>
      </trkpt>
      <trkpt lat="45.95005" lon="4.95221">
        <ele>290</ele>
        <time>2017-04-29T10:20:28Z</time>
      </trkpt>
      <trkpt lat="45.95004" lon="4.95214">
        <ele>290</ele>
        <time>2017-04-29T10:20:29Z</time>
      </trkpt>
      <trkpt lat="45.95003" lon="4.95207">
        <ele>290</ele>
        <time>2017-04-29T10:20:30Z</time>
      </trkpt>
      <trkpt lat="45.95002" lon="4.95199">
        <ele>290</ele>
        <time>2017-04-29T10:20:31Z</time>
      </trkpt>
      <trkpt lat="45.95001" lon="4.95192">
        <ele>290</ele>
        <time>2017-04-29T10:20:32Z</time>
      </trkpt>
      <trkpt lat="45.95001" lon="4.95185">
        <ele>290</ele>
        <time>2017-04-29T10:20:33Z</time>
      </trkpt>
      <trkpt lat="45.95001" lon="4.95178">
        <ele>290</ele>
        <time>2017-04-29T10:20:34Z</time>
      </trkpt>
      <trkpt lat="45.95001" lon="4.95171">
        <ele>290</ele>
        <time>2017-04-29T10:20:35Z</time>
      </trkpt>
      <trkpt lat="45.95001" lon="4.95164">
        <ele>290</ele>
        <time>2017-04-29T10:20:36Z</time>
      </trkpt>
      <trkpt lat="45.95002" lon="4.95156">
        <ele>290</ele>
        <time>2017-04-29T10:20:37Z</time>
      </trkpt>
      <trkpt lat="45.95002" lon="4.95149">
        <ele>290</ele>
        <time>2017-04-29T10:20:38Z</time>
      </trkpt>
      <trkpt lat="45.95002" lon="4.95141">
        <ele>290</ele>
        <time>2017-04-29T10:20:39Z</time>
      </trkpt>
      <trkpt lat="45.95003" lon="4.95134">
        <ele>290</ele>
        <time>2017-04-29T10:20:40Z</time>
      </trkpt>
      <trkpt lat="45.95003" lon="4.95126">
        <ele>290</ele>
        <time>2017-04-29T10:20:41Z</time>
      </trkpt>
      <trkpt lat="45.95004" lon="4.95119">
        <ele>290</ele>
        <time>2017-04-29T10:20:42Z</time>
      </trkpt>
      <trkpt lat="45.95004" lon="4.95112">
        <ele>290</ele>
        <time>2017-04-29T10:20:43Z</time>
      </trkpt>
      <trkpt lat="45.95004" lon="4.95105">
        <ele>290</ele>
        <time>2017-04-29T10:20:44Z</time>
      </trkpt>
      <trkpt lat="45.95004" lon="4.95098">
        <ele>290</ele>
        <time>2017-04-29T10:20:45Z</time>
      </trkpt>
      <trkpt lat="45.95004" lon="4.95091">
        <ele>290</ele>
        <time>2017-04-29T10:20:46Z</time>
      </trkpt>
      <trkpt lat="45.95004" lon="4.95084">
        <ele>290</ele>
        <time>2017-04-29T10:20:47Z</time>
      </trkpt>
      <trkpt lat="45.95004" lon="4.95076">
        <ele>290</ele>
        <time>2017-04-29T10:20:48Z</time>
      </trkpt>
      <trkpt lat="45.95004" lon="4.9507">
        <ele>290</ele>
        <time>2017-04-29T10:20:49Z</time>
      </trkpt>
      <trkpt lat="45.95005" lon="4.95063">
        <ele>290</ele>
        <time>2017-04-29T10:20:50Z</time>
      </trkpt>
      <trkpt lat="45.95005" lon="4.95056">
        <ele>290</ele>
        <time>2017-04-29T10:20:51Z</time>
      </trkpt>
      <trkpt lat="45.95005" lon="4.95049">
        <ele>290</ele>
        <time>2017-04-29T10:20:52Z</time>
      </trkpt>
      <trkpt lat="45.95004" lon="4.95042">
        <ele>290</ele>
        <time>2017-04-29T10:20:53Z</time>
      </trkpt>
      <trkpt lat="45.95003" lon="4.95036">
        <ele>290</ele>
        <time>2017-04-29T10:20:54Z</time>
      </trkpt>
      <trkpt lat="45.95002" lon="4.95029">
        <ele>290</ele>
        <time>2017-04-29T10:20:55Z</time>
      </trkpt>
      <trkpt lat="45.95001" lon="4.95023">
        <ele>289</ele>
        <time>2017-04-29T10:20:56Z</time>
      </trkpt>
      <trkpt lat="45.94999" lon="4.95016">
        <ele>289</ele>
        <time>2017-04-29T10:20:57Z</time>
      </trkpt>
      <trkpt lat="45.94997" lon="4.9501">
        <ele>289</ele>
        <time>2017-04-29T10:20:58Z</time>
      </trkpt>
      <trkpt lat="45.94995" lon="4.95004">
        <ele>289</ele>
        <time>2017-04-29T10:20:59Z</time>
      </trkpt>
      <trkpt lat="45.94994" lon="4.94996">
        <ele>289</ele>
        <time>2017-04-29T10:21:00Z</time>
      </trkpt>
      <trkpt lat="45.94993" lon="4.94989">
        <ele>289</ele>
        <time>2017-04-29T10:21:01Z</time>
      </trkpt>
      <trkpt lat="45.94993" lon="4.94982">
        <ele>289</ele>
        <time>2017-04-29T10:21:02Z</time>
      </trkpt>
      <trkpt lat="45.94994" lon="4.94975">
        <ele>289</ele>
        <time>2017-04-29T10:21:03Z</time>
      </trkpt>
      <trkpt lat="45.94997" lon="4.94969">
        <ele>289</ele>
        <time>2017-04-29T10:21:04Z</time>
      </trkpt>
      <trkpt lat="45.95" lon="4.94963">
        <ele>289</ele>
        <time>2017-04-29T10:21:05Z</time>
      </trkpt>
      <trkpt lat="45.95004" lon="4.94958">
        <ele>289</ele>
        <time>2017-04-29T10:21:06Z</time>
      </trkpt>
      <trkpt lat="45.95008" lon="4.94954">
        <ele>289</ele>
        <time>2017-04-29T10:21:07Z</time>
      </trkpt>
      <trkpt lat="45.95012" lon="4.94949">
        <ele>289</ele>
        <time>2017-04-29T10:21:08Z</time>
      </trkpt>
      <trkpt lat="45.95016" lon="4.94944">
        <ele>289</ele>
        <time>2017-04-29T10:21:09Z</time>
      </trkpt>
      <trkpt lat="45.9502" lon="4.94939">
        <ele>289</ele>
        <time>2017-04-29T10:21:10Z</time>
      </trkpt>
      <trkpt lat="45.95024" lon="4.94934">
        <ele>289</ele>
        <time>2017-04-29T10:21:11Z</time>
      </trkpt>
      <trkpt lat="45.95027" lon="4.94929">
        <ele>289</ele>
        <time>2017-04-29T10:21:12Z</time>
      </trkpt>
      <trkpt lat="45.95031" lon="4.94924">
        <ele>289</ele>
        <time>2017-04-29T10:21:13Z</time>
      </trkpt>
      <trkpt lat="45.95035" lon="4.94919">
        <ele>289</ele>
        <time>2017-04-29T10:21:14Z</time>
      </trkpt>
      <trkpt lat="45.95039" lon="4.94914">
        <ele>289</ele>
        <time>2017-04-29T10:21:15Z</time>
      </trkpt>
      <trkpt lat="45.95044" lon="4.94909">
        <ele>289</ele>
        <time>2017-04-29T10:21:16Z</time>
      </trkpt>
      <trkpt lat="45.95048" lon="4.94903">
        <ele>289</ele>
        <time>2017-04-29T10:21:17Z</time>
      </trkpt>
      <trkpt lat="45.95053" lon="4.94898">
        <ele>289</ele>
        <time>2017-04-29T10:21:18Z</time>
      </trkpt>
      <trkpt lat="45.95057" lon="4.94893">
        <ele>289</ele>
        <time>2017-04-29T10:21:19Z</time>
      </trkpt>
      <trkpt lat="45.95062" lon="4.94887">
        <ele>289</ele>
        <time>2017-04-29T10:21:20Z</time>
      </trkpt>
      <trkpt lat="45.95067" lon="4.94881">
        <ele>289</ele>
        <time>2017-04-29T10:21:21Z</time>
      </trkpt>
      <trkpt lat="45.95071" lon="4.94876">
        <ele>289</ele>
        <time>2017-04-29T10:21:22Z</time>
      </trkpt>
      <trkpt lat="45.95076" lon="4.9487">
        <ele>289</ele>
        <time>2017-04-29T10:21:23Z</time>
      </trkpt>
      <trkpt lat="45.9508" lon="4.94864">
        <ele>289</ele>
        <time>2017-04-29T10:21:24Z</time>
      </trkpt>
      <trkpt lat="45.95085" lon="4.94859">
        <ele>289</ele>
        <time>2017-04-29T10:21:25Z</time>
      </trkpt>
      <trkpt lat="45.9509" lon="4.94854">
        <ele>289</ele>
        <time>2017-04-29T10:21:26Z</time>
      </trkpt>
      <trkpt lat="45.95095" lon="4.94848">
        <ele>289</ele>
        <time>2017-04-29T10:21:27Z</time>
      </trkpt>
      <trkpt lat="45.951" lon="4.94843">
        <ele>289</ele>
        <time>2017-04-29T10:21:28Z</time>
      </trkpt>
      <trkpt lat="45.95106" lon="4.94838">
        <ele>289</ele>
        <time>2017-04-29T10:21:29Z</time>
      </trkpt>
      <trkpt lat="45.95111" lon="4.94832">
        <ele>289</ele>
        <time>2017-04-29T10:21:30Z</time>
      </trkpt>
      <trkpt lat="45.95116" lon="4.94827">
        <ele>289</ele>
        <time>2017-04-29T10:21:31Z</time>
      </trkpt>
      <trkpt lat="45.95121" lon="4.94823">
        <ele>289</ele>
        <time>2017-04-29T10:21:32Z</time>
      </trkpt>
      <trkpt lat="45.95126" lon="4.94819">
        <ele>289</ele>
        <time>2017-04-29T10:21:33Z</time>
      </trkpt>
      <trkpt lat="45.95131" lon="4.94815">
        <ele>289</ele>
        <time>2017-04-29T10:21:34Z</time>
      </trkpt>
      <trkpt lat="45.95137" lon="4.94812">
        <ele>289</ele>
        <time>2017-04-29T10:21:35Z</time>
      </trkpt>
      <trkpt lat="45.95142" lon="4.94809">
        <ele>289</ele>
        <time>2017-04-29T10:21:36Z</time>
      </trkpt>
      <trkpt lat="45.95148" lon="4.94806">
        <ele>289</ele>
        <time>2017-04-29T10:21:37Z</time>
      </trkpt>
      <trkpt lat="45.95154" lon="4.94803">
        <ele>289</ele>
        <time>2017-04-29T10:21:38Z</time>
      </trkpt>
      <trkpt lat="45.95159" lon="4.948">
        <ele>289</ele>
        <time>2017-04-29T10:21:39Z</time>
      </trkpt>
      <trkpt lat="45.95165" lon="4.94798">
        <ele>289</ele>
        <time>2017-04-29T10:21:40Z</time>
      </trkpt>
      <trkpt lat="45.95171" lon="4.94795">
        <ele>287</ele>
        <time>2017-04-29T10:21:41Z</time>
      </trkpt>
      <trkpt lat="45.95176" lon="4.94792">
        <ele>287</ele>
        <time>2017-04-29T10:21:42Z</time>
      </trkpt>
      <trkpt lat="45.95182" lon="4.9479">
        <ele>287</ele>
        <time>2017-04-29T10:21:43Z</time>
      </trkpt>
      <trkpt lat="45.95187" lon="4.94788">
        <ele>287</ele>
        <time>2017-04-29T10:21:44Z</time>
      </trkpt>
      <trkpt lat="45.95193" lon="4.94785">
        <ele>287</ele>
        <time>2017-04-29T10:21:45Z</time>
      </trkpt>
      <trkpt lat="45.95197" lon="4.9478">
        <ele>287</ele>
        <time>2017-04-29T10:21:46Z</time>
      </trkpt>
      <trkpt lat="45.95201" lon="4.94774">
        <ele>287</ele>
        <time>2017-04-29T10:21:47Z</time>
      </trkpt>
      <trkpt lat="45.95201" lon="4.94767">
        <ele>287</ele>
        <time>2017-04-29T10:21:48Z</time>
      </trkpt>
      <trkpt lat="45.952" lon="4.94759">
        <ele>287</ele>
        <time>2017-04-29T10:21:49Z</time>
      </trkpt>
      <trkpt lat="45.95197" lon="4.94753">
        <ele>287</ele>
        <time>2017-04-29T10:21:50Z</time>
      </trkpt>
      <trkpt lat="45.95193" lon="4.94748">
        <ele>288</ele>
        <time>2017-04-29T10:21:51Z</time>
      </trkpt>
      <trkpt lat="45.95188" lon="4.94743">
        <ele>288</ele>
        <time>2017-04-29T10:21:52Z</time>
      </trkpt>
      <trkpt lat="45.95184" lon="4.94738">
        <ele>288</ele>
        <time>2017-04-29T10:21:53Z</time>
      </trkpt>
      <trkpt lat="45.95179" lon="4.94732">
        <ele>288</ele>
        <time>2017-04-29T10:21:54Z</time>
      </trkpt>
      <trkpt lat="45.95174" lon="4.94727">
        <ele>288</ele>
        <time>2017-04-29T10:21:55Z</time>
      </trkpt>
      <trkpt lat="45.9517" lon="4.94722">
        <ele>288</ele>
        <time>2017-04-29T10:21:56Z</time>
      </trkpt>
      <trkpt lat="45.95165" lon="4.94717">
        <ele>290</ele>
        <time>2017-04-29T10:21:57Z</time>
      </trkpt>
      <trkpt lat="45.95161" lon="4.94711">
        <ele>290</ele>
        <time>2017-04-29T10:21:58Z</time>
      </trkpt>
      <trkpt lat="45.95157" lon="4.94705">
        <ele>290</ele>
        <time>2017-04-29T10:21:59Z</time>
      </trkpt>
      <trkpt lat="45.95152" lon="4.94699">
        <ele>290</ele>
        <time>2017-04-29T10:22:00Z</time>
      </trkpt>
      <trkpt lat="45.95149" lon="4.94693">
        <ele>290</ele>
        <time>2017-04-29T10:22:01Z</time>
      </trkpt>
      <trkpt lat="45.95147" lon="4.94685">
        <ele>290</ele>
        <time>2017-04-29T10:22:02Z</time>
      </trkpt>
      <trkpt lat="45.95146" lon="4.94677">
        <ele>290</ele>
        <time>2017-04-29T10:22:03Z</time>
      </trkpt>
      <trkpt lat="45.95148" lon="4.94669">
        <ele>290</ele>
        <time>2017-04-29T10:22:04Z</time>
      </trkpt>
      <trkpt lat="45.95151" lon="4.94663">
        <ele>290</ele>
        <time>2017-04-29T10:22:05Z</time>
      </trkpt>
      <trkpt lat="45.95154" lon="4.94657">
        <ele>290</ele>
        <time>2017-04-29T10:22:06Z</time>
      </trkpt>
      <trkpt lat="45.95158" lon="4.94652">
        <ele>290</ele>
        <time>2017-04-29T10:22:07Z</time>
      </trkpt>
      <trkpt lat="45.95162" lon="4.94647">
        <ele>290</ele>
        <time>2017-04-29T10:22:08Z</time>
      </trkpt>
      <trkpt lat="45.95165" lon="4.94642">
        <ele>290</ele>
        <time>2017-04-29T10:22:09Z</time>
      </trkpt>
      <trkpt lat="45.95168" lon="4.94636">
        <ele>289</ele>
        <time>2017-04-29T10:22:10Z</time>
      </trkpt>
      <trkpt lat="45.95171" lon="4.9463">
        <ele>289</ele>
        <time>2017-04-29T10:22:11Z</time>
      </trkpt>
      <trkpt lat="45.95174" lon="4.94623">
        <ele>289</ele>
        <time>2017-04-29T10:22:12Z</time>
      </trkpt>
      <trkpt lat="45.95177" lon="4.94616">
        <ele>289</ele>
        <time>2017-04-29T10:22:13Z</time>
      </trkpt>
      <trkpt lat="45.95178" lon="4.94608">
        <ele>289</ele>
        <time>2017-04-29T10:22:14Z</time>
      </trkpt>
      <trkpt lat="45.95179" lon="4.94601">
        <ele>289</ele>
        <time>2017-04-29T10:22:15Z</time>
      </trkpt>
      <trkpt lat="45.9518" lon="4.94592">
        <ele>289</ele>
        <time>2017-04-29T10:22:16Z</time>
      </trkpt>
      <trkpt lat="45.95181" lon="4.94583">
        <ele>289</ele>
        <time>2017-04-29T10:22:17Z</time>
      </trkpt>
      <trkpt lat="45.95182" lon="4.94575">
        <ele>289</ele>
        <time>2017-04-29T10:22:18Z</time>
      </trkpt>
      <trkpt lat="45.95182" lon="4.94566">
        <ele>289</ele>
        <time>2017-04-29T10:22:19Z</time>
      </trkpt>
      <trkpt lat="45.95183" lon="4.94558">
        <ele>289</ele>
        <time>2017-04-29T10:22:20Z</time>
      </trkpt>
      <trkpt lat="45.95184" lon="4.94551">
        <ele>289</ele>
        <time>2017-04-29T10:22:21Z</time>
      </trkpt>
      <trkpt lat="45.95184" lon="4.94543">
        <ele>289</ele>
        <time>2017-04-29T10:22:22Z</time>
      </trkpt>
      <trkpt lat="45.95185" lon="4.94536">
        <ele>289</ele>
        <time>2017-04-29T10:22:23Z</time>
      </trkpt>
      <trkpt lat="45.95186" lon="4.94529">
        <ele>289</ele>
        <time>2017-04-29T10:22:24Z</time>
      </trkpt>
      <trkpt lat="45.95187" lon="4.94522">
        <ele>289</ele>
        <time>2017-04-29T10:22:25Z</time>
      </trkpt>
      <trkpt lat="45.95188" lon="4.94516">
        <ele>289</ele>
        <time>2017-04-29T10:22:26Z</time>
      </trkpt>
      <trkpt lat="45.95188" lon="4.94509">
        <ele>289</ele>
        <time>2017-04-29T10:22:27Z</time>
      </trkpt>
      <trkpt lat="45.95189" lon="4.94502">
        <ele>289</ele>
        <time>2017-04-29T10:22:28Z</time>
      </trkpt>
      <trkpt lat="45.95189" lon="4.94495">
        <ele>289</ele>
        <time>2017-04-29T10:22:29Z</time>
      </trkpt>
      <trkpt lat="45.95189" lon="4.94488">
        <ele>289</ele>
        <time>2017-04-29T10:22:30Z</time>
      </trkpt>
      <trkpt lat="45.95189" lon="4.9448">
        <ele>289</ele>
        <time>2017-04-29T10:22:31Z</time>
      </trkpt>
      <trkpt lat="45.95189" lon="4.94473">
        <ele>289</ele>
        <time>2017-04-29T10:22:32Z</time>
      </trkpt>
      <trkpt lat="45.9519" lon="4.94466">
        <ele>289</ele>
        <time>2017-04-29T10:22:33Z</time>
      </trkpt>
      <trkpt lat="45.9519" lon="4.94459">
        <ele>289</ele>
        <time>2017-04-29T10:22:34Z</time>
      </trkpt>
      <trkpt lat="45.95191" lon="4.94452">
        <ele>290</ele>
        <time>2017-04-29T10:22:35Z</time>
      </trkpt>
      <trkpt lat="45.95193" lon="4.94446">
        <ele>290</ele>
        <time>2017-04-29T10:22:36Z</time>
      </trkpt>
      <trkpt lat="45.95194" lon="4.94439">
        <ele>290</ele>
        <time>2017-04-29T10:22:37Z</time>
      </trkpt>
      <trkpt lat="45.95196" lon="4.94431">
        <ele>290</ele>
        <time>2017-04-29T10:22:38Z</time>
      </trkpt>
      <trkpt lat="45.95197" lon="4.94424">
        <ele>290</ele>
        <time>2017-04-29T10:22:39Z</time>
      </trkpt>
      <trkpt lat="45.952" lon="4.94417">
        <ele>289</ele>
        <time>2017-04-29T10:22:40Z</time>
      </trkpt>
      <trkpt lat="45.95202" lon="4.9441">
        <ele>289</ele>
        <time>2017-04-29T10:22:41Z</time>
      </trkpt>
      <trkpt lat="45.95205" lon="4.94402">
        <ele>289</ele>
        <time>2017-04-29T10:22:42Z</time>
      </trkpt>
      <trkpt lat="45.95208" lon="4.94395">
        <ele>289</ele>
        <time>2017-04-29T10:22:43Z</time>
      </trkpt>
      <trkpt lat="45.95211" lon="4.94388">
        <ele>289</ele>
        <time>2017-04-29T10:22:44Z</time>
      </trkpt>
      <trkpt lat="45.95214" lon="4.9438">
        <ele>289</ele>
        <time>2017-04-29T10:22:45Z</time>
      </trkpt>
      <trkpt lat="45.95217" lon="4.94373">
        <ele>289</ele>
        <time>2017-04-29T10:22:46Z</time>
      </trkpt>
      <trkpt lat="45.9522" lon="4.94366">
        <ele>289</ele>
        <time>2017-04-29T10:22:47Z</time>
      </trkpt>
      <trkpt lat="45.95222" lon="4.9436">
        <ele>289</ele>
        <time>2017-04-29T10:22:48Z</time>
      </trkpt>
      <trkpt lat="45.95224" lon="4.94354">
        <ele>289</ele>
        <time>2017-04-29T10:22:49Z</time>
      </trkpt>
      <trkpt lat="45.95226" lon="4.94347">
        <ele>289</ele>
        <time>2017-04-29T10:22:50Z</time>
      </trkpt>
      <trkpt lat="45.95228" lon="4.94341">
        <ele>289</ele>
        <time>2017-04-29T10:22:51Z</time>
      </trkpt>
      <trkpt lat="45.95229" lon="4.94334">
        <ele>289</ele>
        <time>2017-04-29T10:22:52Z</time>
      </trkpt>
      <trkpt lat="45.95231" lon="4.94328">
        <ele>288</ele>
        <time>2017-04-29T10:22:53Z</time>
      </trkpt>
      <trkpt lat="45.95232" lon="4.94321">
        <ele>288</ele>
        <time>2017-04-29T10:22:54Z</time>
      </trkpt>
      <trkpt lat="45.95232" lon="4.94314">
        <ele>288</ele>
        <time>2017-04-29T10:22:55Z</time>
      </trkpt>
      <trkpt lat="45.95233" lon="4.94306">
        <ele>289</ele>
        <time>2017-04-29T10:22:56Z</time>
      </trkpt>
      <trkpt lat="45.95233" lon="4.94298">
        <ele>289</ele>
        <time>2017-04-29T10:22:57Z</time>
      </trkpt>
      <trkpt lat="45.95233" lon="4.94291">
        <ele>289</ele>
        <time>2017-04-29T10:22:58Z</time>
      </trkpt>
      <trkpt lat="45.95234" lon="4.94284">
        <ele>289</ele>
        <time>2017-04-29T10:22:59Z</time>
      </trkpt>
      <trkpt lat="45.95234" lon="4.94276">
        <ele>289</ele>
        <time>2017-04-29T10:23:00Z</time>
      </trkpt>
      <trkpt lat="45.95234" lon="4.94268">
        <ele>288</ele>
        <time>2017-04-29T10:23:01Z</time>
      </trkpt>
      <trkpt lat="45.95234" lon="4.9426">
        <ele>288</ele>
        <time>2017-04-29T10:23:02Z</time>
      </trkpt>
      <trkpt lat="45.95235" lon="4.94252">
        <ele>288</ele>
        <time>2017-04-29T10:23:03Z</time>
      </trkpt>
      <trkpt lat="45.95235" lon="4.94244">
        <ele>289</ele>
        <time>2017-04-29T10:23:04Z</time>
      </trkpt>
      <trkpt lat="45.95236" lon="4.94236">
        <ele>289</ele>
        <time>2017-04-29T10:23:05Z</time>
      </trkpt>
      <trkpt lat="45.95237" lon="4.94227">
        <ele>289</ele>
        <time>2017-04-29T10:23:06Z</time>
      </trkpt>
      <trkpt lat="45.95237" lon="4.94219">
        <ele>289</ele>
        <time>2017-04-29T10:23:07Z</time>
      </trkpt>
      <trkpt lat="45.95238" lon="4.94212">
        <ele>289</ele>
        <time>2017-04-29T10:23:08Z</time>
      </trkpt>
      <trkpt lat="45.95239" lon="4.94204">
        <ele>289</ele>
        <time>2017-04-29T10:23:09Z</time>
      </trkpt>
      <trkpt lat="45.95241" lon="4.94196">
        <ele>289</ele>
        <time>2017-04-29T10:23:10Z</time>
      </trkpt>
      <trkpt lat="45.95242" lon="4.94189">
        <ele>289</ele>
        <time>2017-04-29T10:23:11Z</time>
      </trkpt>
      <trkpt lat="45.95244" lon="4.94182">
        <ele>289</ele>
        <time>2017-04-29T10:23:12Z</time>
      </trkpt>
      <trkpt lat="45.95247" lon="4.94175">
        <ele>289</ele>
        <time>2017-04-29T10:23:13Z</time>
      </trkpt>
      <trkpt lat="45.9525" lon="4.94168">
        <ele>289</ele>
        <time>2017-04-29T10:23:14Z</time>
      </trkpt>
      <trkpt lat="45.95252" lon="4.94161">
        <ele>289</ele>
        <time>2017-04-29T10:23:15Z</time>
      </trkpt>
      <trkpt lat="45.95255" lon="4.94154">
        <ele>289</ele>
        <time>2017-04-29T10:23:16Z</time>
      </trkpt>
      <trkpt lat="45.95259" lon="4.94147">
        <ele>288</ele>
        <time>2017-04-29T10:23:17Z</time>
      </trkpt>
      <trkpt lat="45.95262" lon="4.9414">
        <ele>288</ele>
        <time>2017-04-29T10:23:18Z</time>
      </trkpt>
      <trkpt lat="45.95265" lon="4.94133">
        <ele>288</ele>
        <time>2017-04-29T10:23:19Z</time>
      </trkpt>
      <trkpt lat="45.95268" lon="4.94126">
        <ele>288</ele>
        <time>2017-04-29T10:23:20Z</time>
      </trkpt>
      <trkpt lat="45.95271" lon="4.94119">
        <ele>288</ele>
        <time>2017-04-29T10:23:21Z</time>
      </trkpt>
      <trkpt lat="45.95273" lon="4.94113">
        <ele>288</ele>
        <time>2017-04-29T10:23:22Z</time>
      </trkpt>
      <trkpt lat="45.95276" lon="4.94106">
        <ele>288</ele>
        <time>2017-04-29T10:23:23Z</time>
      </trkpt>
      <trkpt lat="45.95278" lon="4.94099">
        <ele>288</ele>
        <time>2017-04-29T10:23:24Z</time>
      </trkpt>
      <trkpt lat="45.9528" lon="4.94093">
        <ele>288</ele>
        <time>2017-04-29T10:23:25Z</time>
      </trkpt>
      <trkpt lat="45.95282" lon="4.94087">
        <ele>288</ele>
        <time>2017-04-29T10:23:26Z</time>
      </trkpt>
      <trkpt lat="45.95286" lon="4.94077">
        <ele>288</ele>
        <time>2017-04-29T10:23:28Z</time>
      </trkpt>
      <trkpt lat="45.95287" lon="4.94072">
        <ele>288</ele>
        <time>2017-04-29T10:23:29Z</time>
      </trkpt>
      <trkpt lat="45.95289" lon="4.94066">
        <ele>288</ele>
        <time>2017-04-29T10:23:30Z</time>
      </trkpt>
      <trkpt lat="45.95291" lon="4.9406">
        <ele>288</ele>
        <time>2017-04-29T10:23:31Z</time>
      </trkpt>
      <trkpt lat="45.95294" lon="4.94054">
        <ele>288</ele>
        <time>2017-04-29T10:23:32Z</time>
      </trkpt>
      <trkpt lat="45.95297" lon="4.94048">
        <ele>288</ele>
        <time>2017-04-29T10:23:33Z</time>
      </trkpt>
      <trkpt lat="45.953" lon="4.94042">
        <ele>288</ele>
        <time>2017-04-29T10:23:34Z</time>
      </trkpt>
      <trkpt lat="45.95303" lon="4.94036">
        <ele>288</ele>
        <time>2017-04-29T10:23:35Z</time>
      </trkpt>
      <trkpt lat="45.95307" lon="4.94031">
        <ele>288</ele>
        <time>2017-04-29T10:23:36Z</time>
      </trkpt>
      <trkpt lat="45.95311" lon="4.94029">
        <ele>288</ele>
        <time>2017-04-29T10:23:37Z</time>
      </trkpt>
      <trkpt lat="45.95316" lon="4.94028">
        <ele>288</ele>
        <time>2017-04-29T10:23:38Z</time>
      </trkpt>
      <trkpt lat="45.9532" lon="4.94028">
        <ele>288</ele>
        <time>2017-04-29T10:23:39Z</time>
      </trkpt>
      <trkpt lat="45.95324" lon="4.94029">
        <ele>288</ele>
        <time>2017-04-29T10:23:40Z</time>
      </trkpt>
      <trkpt lat="45.95329" lon="4.94029">
        <ele>288</ele>
        <time>2017-04-29T10:23:41Z</time>
      </trkpt>
      <trkpt lat="45.95334" lon="4.94029">
        <ele>288</ele>
        <time>2017-04-29T10:23:42Z</time>
      </trkpt>
      <trkpt lat="45.95339" lon="4.94029">
        <ele>288</ele>
        <time>2017-04-29T10:23:43Z</time>
      </trkpt>
      <trkpt lat="45.95344" lon="4.94029">
        <ele>288</ele>
        <time>2017-04-29T10:23:44Z</time>
      </trkpt>
      <trkpt lat="45.95349" lon="4.94028">
        <ele>288</ele>
        <time>2017-04-29T10:23:45Z</time>
      </trkpt>
      <trkpt lat="45.95354" lon="4.94028">
        <ele>288</ele>
        <time>2017-04-29T10:23:46Z</time>
      </trkpt>
      <trkpt lat="45.95359" lon="4.94027">
        <ele>288</ele>
        <time>2017-04-29T10:23:47Z</time>
      </trkpt>
      <trkpt lat="45.95364" lon="4.94025">
        <ele>288</ele>
        <time>2017-04-29T10:23:48Z</time>
      </trkpt>
      <trkpt lat="45.9537" lon="4.94024">
        <ele>288</ele>
        <time>2017-04-29T10:23:49Z</time>
      </trkpt>
      <trkpt lat="45.95375" lon="4.94022">
        <ele>288</ele>
        <time>2017-04-29T10:23:50Z</time>
      </trkpt>
      <trkpt lat="45.95381" lon="4.9402">
        <ele>289</ele>
        <time>2017-04-29T10:23:51Z</time>
      </trkpt>
      <trkpt lat="45.95387" lon="4.94017">
        <ele>289</ele>
        <time>2017-04-29T10:23:52Z</time>
      </trkpt>
      <trkpt lat="45.95392" lon="4.94015">
        <ele>289</ele>
        <time>2017-04-29T10:23:53Z</time>
      </trkpt>
      <trkpt lat="45.95398" lon="4.94013">
        <ele>289</ele>
        <time>2017-04-29T10:23:54Z</time>
      </trkpt>
      <trkpt lat="45.95403" lon="4.94012">
        <ele>289</ele>
        <time>2017-04-29T10:23:55Z</time>
      </trkpt>
      <trkpt lat="45.95409" lon="4.9401">
        <ele>289</ele>
        <time>2017-04-29T10:23:56Z</time>
      </trkpt>
      <trkpt lat="45.95414" lon="4.94009">
        <ele>289</ele>
        <time>2017-04-29T10:23:57Z</time>
      </trkpt>
      <trkpt lat="45.95419" lon="4.94007">
        <ele>290</ele>
        <time>2017-04-29T10:23:58Z</time>
      </trkpt>
      <trkpt lat="45.95424" lon="4.94006">
        <ele>290</ele>
        <time>2017-04-29T10:23:59Z</time>
      </trkpt>
      <trkpt lat="45.95429" lon="4.94004">
        <ele>289</ele>
        <time>2017-04-29T10:24:00Z</time>
      </trkpt>
      <trkpt lat="45.95434" lon="4.94003">
        <ele>289</ele>
        <time>2017-04-29T10:24:01Z</time>
      </trkpt>
      <trkpt lat="45.95439" lon="4.94001">
        <ele>289</ele>
        <time>2017-04-29T10:24:02Z</time>
      </trkpt>
      <trkpt lat="45.95444" lon="4.94">
        <ele>289</ele>
        <time>2017-04-29T10:24:03Z</time>
      </trkpt>
      <trkpt lat="45.95449" lon="4.93998">
        <ele>289</ele>
        <time>2017-04-29T10:24:04Z</time>
      </trkpt>
      <trkpt lat="45.95455" lon="4.93997">
        <ele>289</ele>
        <time>2017-04-29T10:24:05Z</time>
      </trkpt>
      <trkpt lat="45.95461" lon="4.93996">
        <ele>289</ele>
        <time>2017-04-29T10:24:06Z</time>
      </trkpt>
      <trkpt lat="45.95467" lon="4.93995">
        <ele>289</ele>
        <time>2017-04-29T10:24:07Z</time>
      </trkpt>
      <trkpt lat="45.95472" lon="4.93994">
        <ele>289</ele>
        <time>2017-04-29T10:24:08Z</time>
      </trkpt>
      <trkpt lat="45.95478" lon="4.93994">
        <ele>289</ele>
        <time>2017-04-29T10:24:09Z</time>
      </trkpt>
      <trkpt lat="45.95483" lon="4.93993">
        <ele>289</ele>
        <time>2017-04-29T10:24:10Z</time>
      </trkpt>
      <trkpt lat="45.95488" lon="4.93994">
        <ele>289</ele>
        <time>2017-04-29T10:24:11Z</time>
      </trkpt>
      <trkpt lat="45.95493" lon="4.93994">
        <ele>289</ele>
        <time>2017-04-29T10:24:12Z</time>
      </trkpt>
      <trkpt lat="45.95498" lon="4.93995">
        <ele>289</ele>
        <time>2017-04-29T10:24:13Z</time>
      </trkpt>
      <trkpt lat="45.95507" lon="4.93997">
        <ele>289</ele>
        <time>2017-04-29T10:24:15Z</time>
      </trkpt>
      <trkpt lat="45.95512" lon="4.93997">
        <ele>290</ele>
        <time>2017-04-29T10:24:16Z</time>
      </trkpt>
      <trkpt lat="45.95516" lon="4.93997">
        <ele>290</ele>
        <time>2017-04-29T10:24:17Z</time>
      </trkpt>
      <trkpt lat="45.95521" lon="4.93994">
        <ele>290</ele>
        <time>2017-04-29T10:24:18Z</time>
      </trkpt>
      <trkpt lat="45.95525" lon="4.9399">
        <ele>290</ele>
        <time>2017-04-29T10:24:19Z</time>
      </trkpt>
      <trkpt lat="45.95527" lon="4.93984">
        <ele>290</ele>
        <time>2017-04-29T10:24:20Z</time>
      </trkpt>
      <trkpt lat="45.95528" lon="4.93977">
        <ele>290</ele>
        <time>2017-04-29T10:24:21Z</time>
      </trkpt>
      <trkpt lat="45.95527" lon="4.9397">
        <ele>290</ele>
        <time>2017-04-29T10:24:22Z</time>
      </trkpt>
      <trkpt lat="45.95527" lon="4.93962">
        <ele>290</ele>
        <time>2017-04-29T10:24:23Z</time>
      </trkpt>
      <trkpt lat="45.95527" lon="4.93955">
        <ele>290</ele>
        <time>2017-04-29T10:24:24Z</time>
      </trkpt>
      <trkpt lat="45.95527" lon="4.93947">
        <ele>290</ele>
        <time>2017-04-29T10:24:25Z</time>
      </trkpt>
      <trkpt lat="45.95528" lon="4.9394">
        <ele>290</ele>
        <time>2017-04-29T10:24:26Z</time>
      </trkpt>
      <trkpt lat="45.95528" lon="4.93932">
        <ele>290</ele>
        <time>2017-04-29T10:24:27Z</time>
      </trkpt>
      <trkpt lat="45.95528" lon="4.93924">
        <ele>290</ele>
        <time>2017-04-29T10:24:28Z</time>
      </trkpt>
      <trkpt lat="45.95528" lon="4.93916">
        <ele>290</ele>
        <time>2017-04-29T10:24:29Z</time>
      </trkpt>
      <trkpt lat="45.95528" lon="4.93907">
        <ele>290</ele>
        <time>2017-04-29T10:24:30Z</time>
      </trkpt>
      <trkpt lat="45.95528" lon="4.93899">
        <ele>290</ele>
        <time>2017-04-29T10:24:31Z</time>
      </trkpt>
      <trkpt lat="45.95528" lon="4.93891">
        <ele>290</ele>
        <time>2017-04-29T10:24:32Z</time>
      </trkpt>
      <trkpt lat="45.95529" lon="4.93883">
        <ele>290</ele>
        <time>2017-04-29T10:24:33Z</time>
      </trkpt>
      <trkpt lat="45.95529" lon="4.93875">
        <ele>290</ele>
        <time>2017-04-29T10:24:34Z</time>
      </trkpt>
      <trkpt lat="45.95529" lon="4.93867">
        <ele>290</ele>
        <time>2017-04-29T10:24:35Z</time>
      </trkpt>
      <trkpt lat="45.95529" lon="4.93859">
        <ele>290</ele>
        <time>2017-04-29T10:24:36Z</time>
      </trkpt>
      <trkpt lat="45.95529" lon="4.93851">
        <ele>290</ele>
        <time>2017-04-29T10:24:37Z</time>
      </trkpt>
      <trkpt lat="45.95531" lon="4.93844">
        <ele>290</ele>
        <time>2017-04-29T10:24:38Z</time>
      </trkpt>
      <trkpt lat="45.95532" lon="4.93837">
        <ele>290</ele>
        <time>2017-04-29T10:24:39Z</time>
      </trkpt>
      <trkpt lat="45.95534" lon="4.93831">
        <ele>291</ele>
        <time>2017-04-29T10:24:40Z</time>
      </trkpt>
      <trkpt lat="45.9554" lon="4.93822">
        <ele>291</ele>
        <time>2017-04-29T10:24:42Z</time>
      </trkpt>
      <trkpt lat="45.95544" lon="4.93817">
        <ele>290</ele>
        <time>2017-04-29T10:24:43Z</time>
      </trkpt>
      <trkpt lat="45.95548" lon="4.93813">
        <ele>290</ele>
        <time>2017-04-29T10:24:44Z</time>
      </trkpt>
      <trkpt lat="45.95552" lon="4.93809">
        <ele>290</ele>
        <time>2017-04-29T10:24:45Z</time>
      </trkpt>
      <trkpt lat="45.95556" lon="4.93803">
        <ele>290</ele>
        <time>2017-04-29T10:24:46Z</time>
      </trkpt>
      <trkpt lat="45.95559" lon="4.93797">
        <ele>290</ele>
        <time>2017-04-29T10:24:47Z</time>
      </trkpt>
      <trkpt lat="45.9556" lon="4.93789">
        <ele>290</ele>
        <time>2017-04-29T10:24:48Z</time>
      </trkpt>
      <trkpt lat="45.95561" lon="4.9378">
        <ele>290</ele>
        <time>2017-04-29T10:24:49Z</time>
      </trkpt>
      <trkpt lat="45.9556" lon="4.93772">
        <ele>290</ele>
        <time>2017-04-29T10:24:50Z</time>
      </trkpt>
      <trkpt lat="45.9556" lon="4.93764">
        <ele>290</ele>
        <time>2017-04-29T10:24:51Z</time>
      </trkpt>
      <trkpt lat="45.9556" lon="4.93756">
        <ele>290</ele>
        <time>2017-04-29T10:24:52Z</time>
      </trkpt>
      <trkpt lat="45.9556" lon="4.93749">
        <ele>290</ele>
        <time>2017-04-29T10:24:53Z</time>
      </trkpt>
      <trkpt lat="45.9556" lon="4.93743">
        <ele>290</ele>
        <time>2017-04-29T10:24:54Z</time>
      </trkpt>
      <trkpt lat="45.9556" lon="4.93736">
        <ele>290</ele>
        <time>2017-04-29T10:24:55Z</time>
      </trkpt>
      <trkpt lat="45.95559" lon="4.93729">
        <ele>290</ele>
        <time>2017-04-29T10:24:56Z</time>
      </trkpt>
      <trkpt lat="45.95559" lon="4.93722">
        <ele>290</ele>
        <time>2017-04-29T10:24:57Z</time>
      </trkpt>
      <trkpt lat="45.95559" lon="4.93715">
        <ele>290</ele>
        <time>2017-04-29T10:24:58Z</time>
      </trkpt>
      <trkpt lat="45.9556" lon="4.93709">
        <ele>290</ele>
        <time>2017-04-29T10:24:59Z</time>
      </trkpt>
      <trkpt lat="45.9556" lon="4.93702">
        <ele>290</ele>
        <time>2017-04-29T10:25:00Z</time>
      </trkpt>
      <trkpt lat="45.9556" lon="4.93696">
        <ele>290</ele>
        <time>2017-04-29T10:25:01Z</time>
      </trkpt>
      <trkpt lat="45.95561" lon="4.93689">
        <ele>290</ele>
        <time>2017-04-29T10:25:02Z</time>
      </trkpt>
      <trkpt lat="45.95561" lon="4.93682">
        <ele>290</ele>
        <time>2017-04-29T10:25:03Z</time>
      </trkpt>
      <trkpt lat="45.95561" lon="4.93675">
        <ele>289</ele>
        <time>2017-04-29T10:25:04Z</time>
      </trkpt>
      <trkpt lat="45.95562" lon="4.93668">
        <ele>289</ele>
        <time>2017-04-29T10:25:05Z</time>
      </trkpt>
      <trkpt lat="45.95562" lon="4.93661">
        <ele>289</ele>
        <time>2017-04-29T10:25:06Z</time>
      </trkpt>
      <trkpt lat="45.95563" lon="4.93654">
        <ele>289</ele>
        <time>2017-04-29T10:25:07Z</time>
      </trkpt>
      <trkpt lat="45.95563" lon="4.93648">
        <ele>289</ele>
        <time>2017-04-29T10:25:08Z</time>
      </trkpt>
      <trkpt lat="45.95564" lon="4.93641">
        <ele>289</ele>
        <time>2017-04-29T10:25:09Z</time>
      </trkpt>
      <trkpt lat="45.95564" lon="4.93634">
        <ele>289</ele>
        <time>2017-04-29T10:25:10Z</time>
      </trkpt>
      <trkpt lat="45.95565" lon="4.93627">
        <ele>289</ele>
        <time>2017-04-29T10:25:11Z</time>
      </trkpt>
      <trkpt lat="45.95565" lon="4.9362">
        <ele>289</ele>
        <time>2017-04-29T10:25:12Z</time>
      </trkpt>
      <trkpt lat="45.95566" lon="4.93614">
        <ele>289</ele>
        <time>2017-04-29T10:25:13Z</time>
      </trkpt>
      <trkpt lat="45.95567" lon="4.93607">
        <ele>289</ele>
        <time>2017-04-29T10:25:14Z</time>
      </trkpt>
      <trkpt lat="45.95567" lon="4.93599">
        <ele>289</ele>
        <time>2017-04-29T10:25:15Z</time>
      </trkpt>
      <trkpt lat="45.95568" lon="4.93592">
        <ele>289</ele>
        <time>2017-04-29T10:25:16Z</time>
      </trkpt>
      <trkpt lat="45.95568" lon="4.93584">
        <ele>289</ele>
        <time>2017-04-29T10:25:17Z</time>
      </trkpt>
      <trkpt lat="45.95569" lon="4.93576">
        <ele>289</ele>
        <time>2017-04-29T10:25:18Z</time>
      </trkpt>
      <trkpt lat="45.9557" lon="4.93569">
        <ele>289</ele>
        <time>2017-04-29T10:25:19Z</time>
      </trkpt>
      <trkpt lat="45.9557" lon="4.93561">
        <ele>289</ele>
        <time>2017-04-29T10:25:20Z</time>
      </trkpt>
      <trkpt lat="45.9557" lon="4.93553">
        <ele>289</ele>
        <time>2017-04-29T10:25:21Z</time>
      </trkpt>
      <trkpt lat="45.95571" lon="4.93545">
        <ele>289</ele>
        <time>2017-04-29T10:25:22Z</time>
      </trkpt>
      <trkpt lat="45.95571" lon="4.93537">
        <ele>290</ele>
        <time>2017-04-29T10:25:23Z</time>
      </trkpt>
      <trkpt lat="45.95571" lon="4.93529">
        <ele>290</ele>
        <time>2017-04-29T10:25:24Z</time>
      </trkpt>
      <trkpt lat="45.9557" lon="4.93522">
        <ele>290</ele>
        <time>2017-04-29T10:25:25Z</time>
      </trkpt>
      <trkpt lat="45.95568" lon="4.93514">
        <ele>290</ele>
        <time>2017-04-29T10:25:26Z</time>
      </trkpt>
      <trkpt lat="45.95566" lon="4.93507">
        <ele>290</ele>
        <time>2017-04-29T10:25:27Z</time>
      </trkpt>
      <trkpt lat="45.95564" lon="4.935">
        <ele>290</ele>
        <time>2017-04-29T10:25:28Z</time>
      </trkpt>
      <trkpt lat="45.95562" lon="4.93494">
        <ele>290</ele>
        <time>2017-04-29T10:25:29Z</time>
      </trkpt>
      <trkpt lat="45.95559" lon="4.93488">
        <ele>289</ele>
        <time>2017-04-29T10:25:30Z</time>
      </trkpt>
      <trkpt lat="45.95557" lon="4.93483">
        <ele>289</ele>
        <time>2017-04-29T10:25:31Z</time>
      </trkpt>
      <trkpt lat="45.95553" lon="4.93473">
        <ele>289</ele>
        <time>2017-04-29T10:25:33Z</time>
      </trkpt>
      <trkpt lat="45.95551" lon="4.93469">
        <ele>289</ele>
        <time>2017-04-29T10:25:34Z</time>
      </trkpt>
      <trkpt lat="45.95546" lon="4.93459">
        <ele>289</ele>
        <time>2017-04-29T10:25:36Z</time>
      </trkpt>
      <trkpt lat="45.95544" lon="4.93453">
        <ele>289</ele>
        <time>2017-04-29T10:25:37Z</time>
      </trkpt>
      <trkpt lat="45.95541" lon="4.93446">
        <ele>289</ele>
        <time>2017-04-29T10:25:38Z</time>
      </trkpt>
      <trkpt lat="45.95538" lon="4.9344">
        <ele>289</ele>
        <time>2017-04-29T10:25:39Z</time>
      </trkpt>
      <trkpt lat="45.95535" lon="4.93433">
        <ele>289</ele>
        <time>2017-04-29T10:25:40Z</time>
      </trkpt>
      <trkpt lat="45.95533" lon="4.93426">
        <ele>289</ele>
        <time>2017-04-29T10:25:41Z</time>
      </trkpt>
      <trkpt lat="45.9553" lon="4.93419">
        <ele>289</ele>
        <time>2017-04-29T10:25:42Z</time>
      </trkpt>
      <trkpt lat="45.95527" lon="4.93411">
        <ele>289</ele>
        <time>2017-04-29T10:25:43Z</time>
      </trkpt>
      <trkpt lat="45.95524" lon="4.93404">
        <ele>289</ele>
        <time>2017-04-29T10:25:44Z</time>
      </trkpt>
      <trkpt lat="45.95521" lon="4.93397">
        <ele>289</ele>
        <time>2017-04-29T10:25:45Z</time>
      </trkpt>
      <trkpt lat="45.95518" lon="4.9339">
        <ele>289</ele>
        <time>2017-04-29T10:25:46Z</time>
      </trkpt>
      <trkpt lat="45.95516" lon="4.93383">
        <ele>289</ele>
        <time>2017-04-29T10:25:47Z</time>
      </trkpt>
      <trkpt lat="45.95513" lon="4.93377">
        <ele>289</ele>
        <time>2017-04-29T10:25:48Z</time>
      </trkpt>
      <trkpt lat="45.9551" lon="4.9337">
        <ele>289</ele>
        <time>2017-04-29T10:25:49Z</time>
      </trkpt>
      <trkpt lat="45.95507" lon="4.93364">
        <ele>289</ele>
        <time>2017-04-29T10:25:50Z</time>
      </trkpt>
      <trkpt lat="45.95505" lon="4.93358">
        <ele>289</ele>
        <time>2017-04-29T10:25:51Z</time>
      </trkpt>
      <trkpt lat="45.95503" lon="4.93352">
        <ele>289</ele>
        <time>2017-04-29T10:25:52Z</time>
      </trkpt>
      <trkpt lat="45.95501" lon="4.93346">
        <ele>289</ele>
        <time>2017-04-29T10:25:53Z</time>
      </trkpt>
      <trkpt lat="45.95498" lon="4.9334">
        <ele>289</ele>
        <time>2017-04-29T10:25:54Z</time>
      </trkpt>
      <trkpt lat="45.95495" lon="4.93334">
        <ele>289</ele>
        <time>2017-04-29T10:25:55Z</time>
      </trkpt>
      <trkpt lat="45.95492" lon="4.93328">
        <ele>289</ele>
        <time>2017-04-29T10:25:56Z</time>
      </trkpt>
      <trkpt lat="45.9549" lon="4.93322">
        <ele>290</ele>
        <time>2017-04-29T10:25:57Z</time>
      </trkpt>
      <trkpt lat="45.95486" lon="4.93316">
        <ele>290</ele>
        <time>2017-04-29T10:25:58Z</time>
      </trkpt>
      <trkpt lat="45.95483" lon="4.93309">
        <ele>290</ele>
        <time>2017-04-29T10:25:59Z</time>
      </trkpt>
      <trkpt lat="45.9548" lon="4.93303">
        <ele>290</ele>
        <time>2017-04-29T10:26:00Z</time>
      </trkpt>
      <trkpt lat="45.95477" lon="4.93296">
        <ele>290</ele>
        <time>2017-04-29T10:26:01Z</time>
      </trkpt>
      <trkpt lat="45.95475" lon="4.93289">
        <ele>290</ele>
        <time>2017-04-29T10:26:02Z</time>
      </trkpt>
      <trkpt lat="45.95472" lon="4.93282">
        <ele>290</ele>
        <time>2017-04-29T10:26:03Z</time>
      </trkpt>
      <trkpt lat="45.9547" lon="4.93276">
        <ele>290</ele>
        <time>2017-04-29T10:26:04Z</time>
      </trkpt>
      <trkpt lat="45.95467" lon="4.9327">
        <ele>290</ele>
        <time>2017-04-29T10:26:05Z</time>
      </trkpt>
      <trkpt lat="45.95465" lon="4.93264">
        <ele>290</ele>
        <time>2017-04-29T10:26:06Z</time>
      </trkpt>
      <trkpt lat="45.95463" lon="4.93258">
        <ele>290</ele>
        <time>2017-04-29T10:26:07Z</time>
      </trkpt>
      <trkpt lat="45.95459" lon="4.93247">
        <ele>290</ele>
        <time>2017-04-29T10:26:09Z</time>
      </trkpt>
      <trkpt lat="45.95456" lon="4.93242">
        <ele>291</ele>
        <time>2017-04-29T10:26:10Z</time>
      </trkpt>
      <trkpt lat="45.95452" lon="4.9323">
        <ele>291</ele>
        <time>2017-04-29T10:26:12Z</time>
      </trkpt>
      <trkpt lat="45.9545" lon="4.93225">
        <ele>291</ele>
        <time>2017-04-29T10:26:13Z</time>
      </trkpt>
      <trkpt lat="45.95448" lon="4.93219">
        <ele>291</ele>
        <time>2017-04-29T10:26:14Z</time>
      </trkpt>
      <trkpt lat="45.95446" lon="4.93213">
        <ele>291</ele>
        <time>2017-04-29T10:26:15Z</time>
      </trkpt>
      <trkpt lat="45.95444" lon="4.93207">
        <ele>291</ele>
        <time>2017-04-29T10:26:16Z</time>
      </trkpt>
      <trkpt lat="45.95444" lon="4.932">
        <ele>291</ele>
        <time>2017-04-29T10:26:17Z</time>
      </trkpt>
      <trkpt lat="45.95445" lon="4.93194">
        <ele>291</ele>
        <time>2017-04-29T10:26:18Z</time>
      </trkpt>
      <trkpt lat="45.95447" lon="4.93187">
        <ele>291</ele>
        <time>2017-04-29T10:26:19Z</time>
      </trkpt>
      <trkpt lat="45.95449" lon="4.93182">
        <ele>291</ele>
        <time>2017-04-29T10:26:20Z</time>
      </trkpt>
      <trkpt lat="45.95452" lon="4.93177">
        <ele>291</ele>
        <time>2017-04-29T10:26:21Z</time>
      </trkpt>
      <trkpt lat="45.95456" lon="4.93173">
        <ele>291</ele>
        <time>2017-04-29T10:26:22Z</time>
      </trkpt>
      <trkpt lat="45.9546" lon="4.93169">
        <ele>290</ele>
        <time>2017-04-29T10:26:23Z</time>
      </trkpt>
      <trkpt lat="45.95464" lon="4.93165">
        <ele>290</ele>
        <time>2017-04-29T10:26:24Z</time>
      </trkpt>
      <trkpt lat="45.95468" lon="4.93161">
        <ele>290</ele>
        <time>2017-04-29T10:26:25Z</time>
      </trkpt>
      <trkpt lat="45.95472" lon="4.93158">
        <ele>290</ele>
        <time>2017-04-29T10:26:26Z</time>
      </trkpt>
      <trkpt lat="45.95476" lon="4.93155">
        <ele>290</ele>
        <time>2017-04-29T10:26:27Z</time>
      </trkpt>
      <trkpt lat="45.9548" lon="4.93152">
        <ele>290</ele>
        <time>2017-04-29T10:26:28Z</time>
      </trkpt>
      <trkpt lat="45.95484" lon="4.93149">
        <ele>290</ele>
        <time>2017-04-29T10:26:29Z</time>
      </trkpt>
      <trkpt lat="45.95492" lon="4.93143">
        <ele>290</ele>
        <time>2017-04-29T10:26:31Z</time>
      </trkpt>
      <trkpt lat="45.95495" lon="4.93139">
        <ele>290</ele>
        <time>2017-04-29T10:26:32Z</time>
      </trkpt>
      <trkpt lat="45.95502" lon="4.93133">
        <ele>289</ele>
        <time>2017-04-29T10:26:34Z</time>
      </trkpt>
      <trkpt lat="45.95506" lon="4.93129">
        <ele>289</ele>
        <time>2017-04-29T10:26:35Z</time>
      </trkpt>
      <trkpt lat="45.95509" lon="4.93125">
        <ele>289</ele>
        <time>2017-04-29T10:26:36Z</time>
      </trkpt>
      <trkpt lat="45.95514" lon="4.93122">
        <ele>289</ele>
        <time>2017-04-29T10:26:37Z</time>
      </trkpt>
      <trkpt lat="45.95518" lon="4.93118">
        <ele>289</ele>
        <time>2017-04-29T10:26:38Z</time>
      </trkpt>
      <trkpt lat="45.95522" lon="4.93113">
        <ele>289</ele>
        <time>2017-04-29T10:26:39Z</time>
      </trkpt>
      <trkpt lat="45.95525" lon="4.93108">
        <ele>289</ele>
        <time>2017-04-29T10:26:40Z</time>
      </trkpt>
      <trkpt lat="45.95529" lon="4.93103">
        <ele>289</ele>
        <time>2017-04-29T10:26:41Z</time>
      </trkpt>
      <trkpt lat="45.95533" lon="4.93097">
        <ele>289</ele>
        <time>2017-04-29T10:26:42Z</time>
      </trkpt>
      <trkpt lat="45.95537" lon="4.9309">
        <ele>290</ele>
        <time>2017-04-29T10:26:43Z</time>
      </trkpt>
      <trkpt lat="45.9554" lon="4.93084">
        <ele>290</ele>
        <time>2017-04-29T10:26:44Z</time>
      </trkpt>
      <trkpt lat="45.95542" lon="4.93077">
        <ele>290</ele>
        <time>2017-04-29T10:26:45Z</time>
      </trkpt>
      <trkpt lat="45.95544" lon="4.93071">
        <ele>290</ele>
        <time>2017-04-29T10:26:46Z</time>
      </trkpt>
      <trkpt lat="45.95545" lon="4.93064">
        <ele>290</ele>
        <time>2017-04-29T10:26:47Z</time>
      </trkpt>
      <trkpt lat="45.95546" lon="4.93058">
        <ele>290</ele>
        <time>2017-04-29T10:26:48Z</time>
      </trkpt>
      <trkpt lat="45.95547" lon="4.93051">
        <ele>290</ele>
        <time>2017-04-29T10:26:49Z</time>
      </trkpt>
      <trkpt lat="45.95548" lon="4.93043">
        <ele>291</ele>
        <time>2017-04-29T10:26:50Z</time>
      </trkpt>
      <trkpt lat="45.95548" lon="4.93035">
        <ele>291</ele>
        <time>2017-04-29T10:26:51Z</time>
      </trkpt>
      <trkpt lat="45.95548" lon="4.93027">
        <ele>291</ele>
        <time>2017-04-29T10:26:52Z</time>
      </trkpt>
      <trkpt lat="45.95549" lon="4.9302">
        <ele>291</ele>
        <time>2017-04-29T10:26:53Z</time>
      </trkpt>
      <trkpt lat="45.9555" lon="4.93013">
        <ele>291</ele>
        <time>2017-04-29T10:26:54Z</time>
      </trkpt>
      <trkpt lat="45.95551" lon="4.93005">
        <ele>291</ele>
        <time>2017-04-29T10:26:55Z</time>
      </trkpt>
      <trkpt lat="45.95551" lon="4.92998">
        <ele>292</ele>
        <time>2017-04-29T10:26:56Z</time>
      </trkpt>
      <trkpt lat="45.95552" lon="4.92991">
        <ele>292</ele>
        <time>2017-04-29T10:26:57Z</time>
      </trkpt>
      <trkpt lat="45.95553" lon="4.92985">
        <ele>292</ele>
        <time>2017-04-29T10:26:58Z</time>
      </trkpt>
      <trkpt lat="45.95554" lon="4.92978">
        <ele>292</ele>
        <time>2017-04-29T10:26:59Z</time>
      </trkpt>
      <trkpt lat="45.95555" lon="4.92972">
        <ele>292</ele>
        <time>2017-04-29T10:27:00Z</time>
      </trkpt>
      <trkpt lat="45.95557" lon="4.92965">
        <ele>292</ele>
        <time>2017-04-29T10:27:01Z</time>
      </trkpt>
      <trkpt lat="45.95558" lon="4.92958">
        <ele>292</ele>
        <time>2017-04-29T10:27:02Z</time>
      </trkpt>
      <trkpt lat="45.95559" lon="4.92952">
        <ele>292</ele>
        <time>2017-04-29T10:27:03Z</time>
      </trkpt>
      <trkpt lat="45.9556" lon="4.92945">
        <ele>292</ele>
        <time>2017-04-29T10:27:04Z</time>
      </trkpt>
      <trkpt lat="45.95561" lon="4.92938">
        <ele>292</ele>
        <time>2017-04-29T10:27:05Z</time>
      </trkpt>
      <trkpt lat="45.95562" lon="4.92932">
        <ele>293</ele>
        <time>2017-04-29T10:27:06Z</time>
      </trkpt>
      <trkpt lat="45.95564" lon="4.92924">
        <ele>293</ele>
        <time>2017-04-29T10:27:07Z</time>
      </trkpt>
      <trkpt lat="45.95565" lon="4.92917">
        <ele>293</ele>
        <time>2017-04-29T10:27:08Z</time>
      </trkpt>
      <trkpt lat="45.95566" lon="4.9291">
        <ele>294</ele>
        <time>2017-04-29T10:27:09Z</time>
      </trkpt>
      <trkpt lat="45.95567" lon="4.92903">
        <ele>294</ele>
        <time>2017-04-29T10:27:10Z</time>
      </trkpt>
      <trkpt lat="45.95568" lon="4.92896">
        <ele>294</ele>
        <time>2017-04-29T10:27:11Z</time>
      </trkpt>
      <trkpt lat="45.9557" lon="4.92888">
        <ele>294</ele>
        <time>2017-04-29T10:27:12Z</time>
      </trkpt>
      <trkpt lat="45.95571" lon="4.92881">
        <ele>294</ele>
        <time>2017-04-29T10:27:13Z</time>
      </trkpt>
      <trkpt lat="45.95572" lon="4.92874">
        <ele>294</ele>
        <time>2017-04-29T10:27:14Z</time>
      </trkpt>
      <trkpt lat="45.95573" lon="4.92867">
        <ele>294</ele>
        <time>2017-04-29T10:27:15Z</time>
      </trkpt>
      <trkpt lat="45.95574" lon="4.92859">
        <ele>294</ele>
        <time>2017-04-29T10:27:16Z</time>
      </trkpt>
      <trkpt lat="45.95576" lon="4.92852">
        <ele>294</ele>
        <time>2017-04-29T10:27:17Z</time>
      </trkpt>
      <trkpt lat="45.95577" lon="4.92845">
        <ele>294</ele>
        <time>2017-04-29T10:27:18Z</time>
      </trkpt>
      <trkpt lat="45.95578" lon="4.92838">
        <ele>295</ele>
        <time>2017-04-29T10:27:19Z</time>
      </trkpt>
      <trkpt lat="45.95579" lon="4.92831">
        <ele>295</ele>
        <time>2017-04-29T10:27:20Z</time>
      </trkpt>
      <trkpt lat="45.9558" lon="4.92824">
        <ele>295</ele>
        <time>2017-04-29T10:27:21Z</time>
      </trkpt>
      <trkpt lat="45.95582" lon="4.92817">
        <ele>295</ele>
        <time>2017-04-29T10:27:22Z</time>
      </trkpt>
      <trkpt lat="45.95582" lon="4.9281">
        <ele>294</ele>
        <time>2017-04-29T10:27:23Z</time>
      </trkpt>
      <trkpt lat="45.95583" lon="4.92803">
        <ele>294</ele>
        <time>2017-04-29T10:27:24Z</time>
      </trkpt>
      <trkpt lat="45.95584" lon="4.92796">
        <ele>295</ele>
        <time>2017-04-29T10:27:25Z</time>
      </trkpt>
      <trkpt lat="45.95586" lon="4.92784">
        <ele>295</ele>
        <time>2017-04-29T10:27:27Z</time>
      </trkpt>
      <trkpt lat="45.95588" lon="4.92778">
        <ele>295</ele>
        <time>2017-04-29T10:27:28Z</time>
      </trkpt>
      <trkpt lat="45.95589" lon="4.92771">
        <ele>295</ele>
        <time>2017-04-29T10:27:29Z</time>
      </trkpt>
      <trkpt lat="45.95591" lon="4.92763">
        <ele>295</ele>
        <time>2017-04-29T10:27:30Z</time>
      </trkpt>
      <trkpt lat="45.95592" lon="4.92756">
        <ele>295</ele>
        <time>2017-04-29T10:27:31Z</time>
      </trkpt>
      <trkpt lat="45.95594" lon="4.92748">
        <ele>295</ele>
        <time>2017-04-29T10:27:32Z</time>
      </trkpt>
      <trkpt lat="45.95595" lon="4.9274">
        <ele>295</ele>
        <time>2017-04-29T10:27:33Z</time>
      </trkpt>
      <trkpt lat="45.95596" lon="4.92732">
        <ele>295</ele>
        <time>2017-04-29T10:27:34Z</time>
      </trkpt>
      <trkpt lat="45.95597" lon="4.92723">
        <ele>295</ele>
        <time>2017-04-29T10:27:35Z</time>
      </trkpt>
      <trkpt lat="45.95599" lon="4.92715">
        <ele>295</ele>
        <time>2017-04-29T10:27:36Z</time>
      </trkpt>
      <trkpt lat="45.956" lon="4.92707">
        <ele>295</ele>
        <time>2017-04-29T10:27:37Z</time>
      </trkpt>
      <trkpt lat="45.95602" lon="4.92699">
        <ele>295</ele>
        <time>2017-04-29T10:27:38Z</time>
      </trkpt>
      <trkpt lat="45.95603" lon="4.92691">
        <ele>295</ele>
        <time>2017-04-29T10:27:39Z</time>
      </trkpt>
      <trkpt lat="45.95605" lon="4.92683">
        <ele>295</ele>
        <time>2017-04-29T10:27:40Z</time>
      </trkpt>
      <trkpt lat="45.95606" lon="4.92675">
        <ele>294</ele>
        <time>2017-04-29T10:27:41Z</time>
      </trkpt>
      <trkpt lat="45.95608" lon="4.92668">
        <ele>294</ele>
        <time>2017-04-29T10:27:42Z</time>
      </trkpt>
      <trkpt lat="45.95609" lon="4.92661">
        <ele>294</ele>
        <time>2017-04-29T10:27:43Z</time>
      </trkpt>
      <trkpt lat="45.9561" lon="4.92654">
        <ele>294</ele>
        <time>2017-04-29T10:27:44Z</time>
      </trkpt>
      <trkpt lat="45.95612" lon="4.92647">
        <ele>294</ele>
        <time>2017-04-29T10:27:45Z</time>
      </trkpt>
      <trkpt lat="45.95613" lon="4.92639">
        <ele>294</ele>
        <time>2017-04-29T10:27:46Z</time>
      </trkpt>
      <trkpt lat="45.95615" lon="4.92631">
        <ele>294</ele>
        <time>2017-04-29T10:27:47Z</time>
      </trkpt>
      <trkpt lat="45.95616" lon="4.92623">
        <ele>294</ele>
        <time>2017-04-29T10:27:48Z</time>
      </trkpt>
      <trkpt lat="45.95617" lon="4.92614">
        <ele>294</ele>
        <time>2017-04-29T10:27:49Z</time>
      </trkpt>
      <trkpt lat="45.95619" lon="4.92605">
        <ele>294</ele>
        <time>2017-04-29T10:27:50Z</time>
      </trkpt>
      <trkpt lat="45.9562" lon="4.92596">
        <ele>294</ele>
        <time>2017-04-29T10:27:51Z</time>
      </trkpt>
      <trkpt lat="45.95622" lon="4.92587">
        <ele>294</ele>
        <time>2017-04-29T10:27:52Z</time>
      </trkpt>
      <trkpt lat="45.95623" lon="4.92578">
        <ele>294</ele>
        <time>2017-04-29T10:27:53Z</time>
      </trkpt>
      <trkpt lat="45.95624" lon="4.9257">
        <ele>294</ele>
        <time>2017-04-29T10:27:54Z</time>
      </trkpt>
      <trkpt lat="45.95625" lon="4.92562">
        <ele>294</ele>
        <time>2017-04-29T10:27:55Z</time>
      </trkpt>
      <trkpt lat="45.95627" lon="4.92553">
        <ele>294</ele>
        <time>2017-04-29T10:27:56Z</time>
      </trkpt>
      <trkpt lat="45.95628" lon="4.92546">
        <ele>294</ele>
        <time>2017-04-29T10:27:57Z</time>
      </trkpt>
      <trkpt lat="45.95629" lon="4.92539">
        <ele>294</ele>
        <time>2017-04-29T10:27:58Z</time>
      </trkpt>
      <trkpt lat="45.9563" lon="4.92531">
        <ele>294</ele>
        <time>2017-04-29T10:27:59Z</time>
      </trkpt>
      <trkpt lat="45.95631" lon="4.92524">
        <ele>294</ele>
        <time>2017-04-29T10:28:00Z</time>
      </trkpt>
      <trkpt lat="45.95632" lon="4.92516">
        <ele>294</ele>
        <time>2017-04-29T10:28:01Z</time>
      </trkpt>
      <trkpt lat="45.95632" lon="4.92509">
        <ele>294</ele>
        <time>2017-04-29T10:28:02Z</time>
      </trkpt>
      <trkpt lat="45.95633" lon="4.92502">
        <ele>294</ele>
        <time>2017-04-29T10:28:03Z</time>
      </trkpt>
      <trkpt lat="45.95634" lon="4.92494">
        <ele>293</ele>
        <time>2017-04-29T10:28:04Z</time>
      </trkpt>
      <trkpt lat="45.95635" lon="4.92487">
        <ele>293</ele>
        <time>2017-04-29T10:28:05Z</time>
      </trkpt>
      <trkpt lat="45.95637" lon="4.92479">
        <ele>293</ele>
        <time>2017-04-29T10:28:06Z</time>
      </trkpt>
      <trkpt lat="45.95638" lon="4.92471">
        <ele>293</ele>
        <time>2017-04-29T10:28:07Z</time>
      </trkpt>
      <trkpt lat="45.95639" lon="4.92464">
        <ele>293</ele>
        <time>2017-04-29T10:28:08Z</time>
      </trkpt>
      <trkpt lat="45.9564" lon="4.92456">
        <ele>293</ele>
        <time>2017-04-29T10:28:09Z</time>
      </trkpt>
      <trkpt lat="45.95641" lon="4.92449">
        <ele>293</ele>
        <time>2017-04-29T10:28:10Z</time>
      </trkpt>
      <trkpt lat="45.95643" lon="4.92442">
        <ele>293</ele>
        <time>2017-04-29T10:28:11Z</time>
      </trkpt>
      <trkpt lat="45.95644" lon="4.92435">
        <ele>293</ele>
        <time>2017-04-29T10:28:12Z</time>
      </trkpt>
      <trkpt lat="45.95645" lon="4.92428">
        <ele>293</ele>
        <time>2017-04-29T10:28:13Z</time>
      </trkpt>
      <trkpt lat="45.95646" lon="4.9242">
        <ele>293</ele>
        <time>2017-04-29T10:28:14Z</time>
      </trkpt>
      <trkpt lat="45.95647" lon="4.92412">
        <ele>293</ele>
        <time>2017-04-29T10:28:15Z</time>
      </trkpt>
      <trkpt lat="45.95648" lon="4.92404">
        <ele>293</ele>
        <time>2017-04-29T10:28:16Z</time>
      </trkpt>
      <trkpt lat="45.95649" lon="4.92396">
        <ele>293</ele>
        <time>2017-04-29T10:28:17Z</time>
      </trkpt>
      <trkpt lat="45.95649" lon="4.92388">
        <ele>293</ele>
        <time>2017-04-29T10:28:18Z</time>
      </trkpt>
      <trkpt lat="45.9565" lon="4.9238">
        <ele>293</ele>
        <time>2017-04-29T10:28:19Z</time>
      </trkpt>
      <trkpt lat="45.9565" lon="4.92372">
        <ele>293</ele>
        <time>2017-04-29T10:28:20Z</time>
      </trkpt>
      <trkpt lat="45.95651" lon="4.92365">
        <ele>293</ele>
        <time>2017-04-29T10:28:21Z</time>
      </trkpt>
      <trkpt lat="45.95652" lon="4.92358">
        <ele>293</ele>
        <time>2017-04-29T10:28:22Z</time>
      </trkpt>
      <trkpt lat="45.95653" lon="4.9235">
        <ele>293</ele>
        <time>2017-04-29T10:28:23Z</time>
      </trkpt>
      <trkpt lat="45.95653" lon="4.92343">
        <ele>293</ele>
        <time>2017-04-29T10:28:24Z</time>
      </trkpt>
      <trkpt lat="45.95653" lon="4.92336">
        <ele>293</ele>
        <time>2017-04-29T10:28:25Z</time>
      </trkpt>
      <trkpt lat="45.95654" lon="4.92329">
        <ele>293</ele>
        <time>2017-04-29T10:28:26Z</time>
      </trkpt>
      <trkpt lat="45.95655" lon="4.92322">
        <ele>293</ele>
        <time>2017-04-29T10:28:27Z</time>
      </trkpt>
      <trkpt lat="45.95655" lon="4.92315">
        <ele>293</ele>
        <time>2017-04-29T10:28:28Z</time>
      </trkpt>
      <trkpt lat="45.95655" lon="4.92308">
        <ele>293</ele>
        <time>2017-04-29T10:28:29Z</time>
      </trkpt>
      <trkpt lat="45.95656" lon="4.92301">
        <ele>293</ele>
        <time>2017-04-29T10:28:30Z</time>
      </trkpt>
      <trkpt lat="45.95656" lon="4.92294">
        <ele>293</ele>
        <time>2017-04-29T10:28:31Z</time>
      </trkpt>
      <trkpt lat="45.95656" lon="4.92287">
        <ele>293</ele>
        <time>2017-04-29T10:28:32Z</time>
      </trkpt>
      <trkpt lat="45.95656" lon="4.9228">
        <ele>293</ele>
        <time>2017-04-29T10:28:33Z</time>
      </trkpt>
      <trkpt lat="45.95657" lon="4.92273">
        <ele>294</ele>
        <time>2017-04-29T10:28:34Z</time>
      </trkpt>
      <trkpt lat="45.95657" lon="4.92266">
        <ele>294</ele>
        <time>2017-04-29T10:28:35Z</time>
      </trkpt>
      <trkpt lat="45.95657" lon="4.92258">
        <ele>294</ele>
        <time>2017-04-29T10:28:36Z</time>
      </trkpt>
      <trkpt lat="45.95657" lon="4.92251">
        <ele>294</ele>
        <time>2017-04-29T10:28:37Z</time>
      </trkpt>
      <trkpt lat="45.95658" lon="4.92244">
        <ele>294</ele>
        <time>2017-04-29T10:28:38Z</time>
      </trkpt>
      <trkpt lat="45.95658" lon="4.92237">
        <ele>294</ele>
        <time>2017-04-29T10:28:39Z</time>
      </trkpt>
      <trkpt lat="45.95658" lon="4.92229">
        <ele>294</ele>
        <time>2017-04-29T10:28:40Z</time>
      </trkpt>
      <trkpt lat="45.95658" lon="4.92222">
        <ele>294</ele>
        <time>2017-04-29T10:28:41Z</time>
      </trkpt>
      <trkpt lat="45.95659" lon="4.92214">
        <ele>294</ele>
        <time>2017-04-29T10:28:42Z</time>
      </trkpt>
      <trkpt lat="45.95659" lon="4.92206">
        <ele>294</ele>
        <time>2017-04-29T10:28:43Z</time>
      </trkpt>
      <trkpt lat="45.9566" lon="4.92198">
        <ele>295</ele>
        <time>2017-04-29T10:28:44Z</time>
      </trkpt>
      <trkpt lat="45.9566" lon="4.9219">
        <ele>295</ele>
        <time>2017-04-29T10:28:45Z</time>
      </trkpt>
      <trkpt lat="45.9566" lon="4.92182">
        <ele>295</ele>
        <time>2017-04-29T10:28:46Z</time>
      </trkpt>
      <trkpt lat="45.9566" lon="4.92174">
        <ele>296</ele>
        <time>2017-04-29T10:28:47Z</time>
      </trkpt>
      <trkpt lat="45.95661" lon="4.92166">
        <ele>296</ele>
        <time>2017-04-29T10:28:48Z</time>
      </trkpt>
      <trkpt lat="45.95661" lon="4.92158">
        <ele>296</ele>
        <time>2017-04-29T10:28:49Z</time>
      </trkpt>
      <trkpt lat="45.95661" lon="4.9215">
        <ele>296</ele>
        <time>2017-04-29T10:28:50Z</time>
      </trkpt>
      <trkpt lat="45.95661" lon="4.92142">
        <ele>296</ele>
        <time>2017-04-29T10:28:51Z</time>
      </trkpt>
      <trkpt lat="45.95662" lon="4.92134">
        <ele>296</ele>
        <time>2017-04-29T10:28:52Z</time>
      </trkpt>
      <trkpt lat="45.95662" lon="4.92127">
        <ele>296</ele>
        <time>2017-04-29T10:28:53Z</time>
      </trkpt>
      <trkpt lat="45.95662" lon="4.92121">
        <ele>296</ele>
        <time>2017-04-29T10:28:54Z</time>
      </trkpt>
      <trkpt lat="45.95662" lon="4.92114">
        <ele>296</ele>
        <time>2017-04-29T10:28:55Z</time>
      </trkpt>
      <trkpt lat="45.95662" lon="4.92107">
        <ele>297</ele>
        <time>2017-04-29T10:28:56Z</time>
      </trkpt>
      <trkpt lat="45.95662" lon="4.921">
        <ele>297</ele>
        <time>2017-04-29T10:28:57Z</time>
      </trkpt>
      <trkpt lat="45.95663" lon="4.92092">
        <ele>298</ele>
        <time>2017-04-29T10:28:58Z</time>
      </trkpt>
      <trkpt lat="45.95664" lon="4.92084">
        <ele>299</ele>
        <time>2017-04-29T10:28:59Z</time>
      </trkpt>
      <trkpt lat="45.95665" lon="4.92076">
        <ele>298</ele>
        <time>2017-04-29T10:29:00Z</time>
      </trkpt>
      <trkpt lat="45.95666" lon="4.92068">
        <ele>297</ele>
        <time>2017-04-29T10:29:01Z</time>
      </trkpt>
      <trkpt lat="45.95666" lon="4.9206">
        <ele>297</ele>
        <time>2017-04-29T10:29:02Z</time>
      </trkpt>
      <trkpt lat="45.95667" lon="4.92052">
        <ele>297</ele>
        <time>2017-04-29T10:29:03Z</time>
      </trkpt>
      <trkpt lat="45.95667" lon="4.92045">
        <ele>300</ele>
        <time>2017-04-29T10:29:04Z</time>
      </trkpt>
      <trkpt lat="45.95667" lon="4.92037">
        <ele>300</ele>
        <time>2017-04-29T10:29:05Z</time>
      </trkpt>
      <trkpt lat="45.95666" lon="4.9203">
        <ele>297</ele>
        <time>2017-04-29T10:29:06Z</time>
      </trkpt>
      <trkpt lat="45.95664" lon="4.92024">
        <ele>297</ele>
        <time>2017-04-29T10:29:07Z</time>
      </trkpt>
      <trkpt lat="45.95661" lon="4.92018">
        <ele>297</ele>
        <time>2017-04-29T10:29:08Z</time>
      </trkpt>
      <trkpt lat="45.95658" lon="4.92013">
        <ele>297</ele>
        <time>2017-04-29T10:29:09Z</time>
      </trkpt>
      <trkpt lat="45.95654" lon="4.92008">
        <ele>297</ele>
        <time>2017-04-29T10:29:10Z</time>
      </trkpt>
      <trkpt lat="45.95651" lon="4.92002">
        <ele>297</ele>
        <time>2017-04-29T10:29:11Z</time>
      </trkpt>
      <trkpt lat="45.95648" lon="4.91997">
        <ele>296</ele>
        <time>2017-04-29T10:29:12Z</time>
      </trkpt>
      <trkpt lat="45.95645" lon="4.91992">
        <ele>296</ele>
        <time>2017-04-29T10:29:13Z</time>
      </trkpt>
      <trkpt lat="45.95641" lon="4.91987">
        <ele>296</ele>
        <time>2017-04-29T10:29:14Z</time>
      </trkpt>
      <trkpt lat="45.95638" lon="4.91982">
        <ele>295</ele>
        <time>2017-04-29T10:29:15Z</time>
      </trkpt>
      <trkpt lat="45.95635" lon="4.91976">
        <ele>295</ele>
        <time>2017-04-29T10:29:16Z</time>
      </trkpt>
      <trkpt lat="45.95632" lon="4.91971">
        <ele>295</ele>
        <time>2017-04-29T10:29:17Z</time>
      </trkpt>
      <trkpt lat="45.95628" lon="4.91967">
        <ele>295</ele>
        <time>2017-04-29T10:29:18Z</time>
      </trkpt>
      <trkpt lat="45.95621" lon="4.91959">
        <ele>295</ele>
        <time>2017-04-29T10:29:20Z</time>
      </trkpt>
      <trkpt lat="45.95618" lon="4.91955">
        <ele>295</ele>
        <time>2017-04-29T10:29:21Z</time>
      </trkpt>
      <trkpt lat="45.95611" lon="4.91947">
        <ele>294</ele>
        <time>2017-04-29T10:29:23Z</time>
      </trkpt>
      <trkpt lat="45.95607" lon="4.91943">
        <ele>294</ele>
        <time>2017-04-29T10:29:24Z</time>
      </trkpt>
      <trkpt lat="45.95603" lon="4.91938">
        <ele>294</ele>
        <time>2017-04-29T10:29:25Z</time>
      </trkpt>
      <trkpt lat="45.95599" lon="4.91934">
        <ele>294</ele>
        <time>2017-04-29T10:29:26Z</time>
      </trkpt>
      <trkpt lat="45.95595" lon="4.9193">
        <ele>294</ele>
        <time>2017-04-29T10:29:27Z</time>
      </trkpt>
      <trkpt lat="45.9559" lon="4.91926">
        <ele>294</ele>
        <time>2017-04-29T10:29:28Z</time>
      </trkpt>
      <trkpt lat="45.95585" lon="4.91922">
        <ele>293</ele>
        <time>2017-04-29T10:29:29Z</time>
      </trkpt>
      <trkpt lat="45.95579" lon="4.91917">
        <ele>293</ele>
        <time>2017-04-29T10:29:30Z</time>
      </trkpt>
      <trkpt lat="45.95575" lon="4.91913">
        <ele>293</ele>
        <time>2017-04-29T10:29:31Z</time>
      </trkpt>
      <trkpt lat="45.95569" lon="4.91909">
        <ele>294</ele>
        <time>2017-04-29T10:29:32Z</time>
      </trkpt>
      <trkpt lat="45.95564" lon="4.91906">
        <ele>294</ele>
        <time>2017-04-29T10:29:33Z</time>
      </trkpt>
      <trkpt lat="45.9556" lon="4.91903">
        <ele>294</ele>
        <time>2017-04-29T10:29:34Z</time>
      </trkpt>
      <trkpt lat="45.95555" lon="4.919">
        <ele>294</ele>
        <time>2017-04-29T10:29:35Z</time>
      </trkpt>
      <trkpt lat="45.9555" lon="4.91897">
        <ele>294</ele>
        <time>2017-04-29T10:29:36Z</time>
      </trkpt>
      <trkpt lat="45.95546" lon="4.91894">
        <ele>294</ele>
        <time>2017-04-29T10:29:37Z</time>
      </trkpt>
      <trkpt lat="45.95541" lon="4.91891">
        <ele>294</ele>
        <time>2017-04-29T10:29:38Z</time>
      </trkpt>
      <trkpt lat="45.95537" lon="4.91888">
        <ele>294</ele>
        <time>2017-04-29T10:29:39Z</time>
      </trkpt>
      <trkpt lat="45.95533" lon="4.91884">
        <ele>294</ele>
        <time>2017-04-29T10:29:40Z</time>
      </trkpt>
      <trkpt lat="45.95528" lon="4.9188">
        <ele>294</ele>
        <time>2017-04-29T10:29:41Z</time>
      </trkpt>
      <trkpt lat="45.95524" lon="4.91876">
        <ele>294</ele>
        <time>2017-04-29T10:29:42Z</time>
      </trkpt>
      <trkpt lat="45.95519" lon="4.91872">
        <ele>295</ele>
        <time>2017-04-29T10:29:43Z</time>
      </trkpt>
      <trkpt lat="45.95514" lon="4.91868">
        <ele>295</ele>
        <time>2017-04-29T10:29:44Z</time>
      </trkpt>
      <trkpt lat="45.95509" lon="4.91864">
        <ele>295</ele>
        <time>2017-04-29T10:29:45Z</time>
      </trkpt>
      <trkpt lat="45.95503" lon="4.9186">
        <ele>295</ele>
        <time>2017-04-29T10:29:46Z</time>
      </trkpt>
      <trkpt lat="45.95497" lon="4.91856">
        <ele>295</ele>
        <time>2017-04-29T10:29:47Z</time>
      </trkpt>
      <trkpt lat="45.95492" lon="4.91851">
        <ele>295</ele>
        <time>2017-04-29T10:29:48Z</time>
      </trkpt>
      <trkpt lat="45.95487" lon="4.91847">
        <ele>295</ele>
        <time>2017-04-29T10:29:49Z</time>
      </trkpt>
      <trkpt lat="45.95483" lon="4.91843">
        <ele>295</ele>
        <time>2017-04-29T10:29:50Z</time>
      </trkpt>
      <trkpt lat="45.95479" lon="4.91839">
        <ele>295</ele>
        <time>2017-04-29T10:29:51Z</time>
      </trkpt>
      <trkpt lat="45.95475" lon="4.91834">
        <ele>295</ele>
        <time>2017-04-29T10:29:52Z</time>
      </trkpt>
      <trkpt lat="45.95471" lon="4.9183">
        <ele>297</ele>
        <time>2017-04-29T10:29:53Z</time>
      </trkpt>
      <trkpt lat="45.95467" lon="4.91826">
        <ele>297</ele>
        <time>2017-04-29T10:29:54Z</time>
      </trkpt>
      <trkpt lat="45.95463" lon="4.91821">
        <ele>297</ele>
        <time>2017-04-29T10:29:55Z</time>
      </trkpt>
      <trkpt lat="45.95459" lon="4.91815">
        <ele>297</ele>
        <time>2017-04-29T10:29:56Z</time>
      </trkpt>
      <trkpt lat="45.95455" lon="4.91809">
        <ele>297</ele>
        <time>2017-04-29T10:29:57Z</time>
      </trkpt>
      <trkpt lat="45.95452" lon="4.91804">
        <ele>298</ele>
        <time>2017-04-29T10:29:58Z</time>
      </trkpt>
      <trkpt lat="45.95448" lon="4.91799">
        <ele>298</ele>
        <time>2017-04-29T10:29:59Z</time>
      </trkpt>
      <trkpt lat="45.95445" lon="4.91794">
        <ele>298</ele>
        <time>2017-04-29T10:30:00Z</time>
      </trkpt>
      <trkpt lat="45.95442" lon="4.91789">
        <ele>298</ele>
        <time>2017-04-29T10:30:01Z</time>
      </trkpt>
      <trkpt lat="45.95439" lon="4.91784">
        <ele>298</ele>
        <time>2017-04-29T10:30:02Z</time>
      </trkpt>
      <trkpt lat="45.95435" lon="4.91778">
        <ele>298</ele>
        <time>2017-04-29T10:30:03Z</time>
      </trkpt>
      <trkpt lat="45.95432" lon="4.91771">
        <ele>298</ele>
        <time>2017-04-29T10:30:04Z</time>
      </trkpt>
      <trkpt lat="45.9543" lon="4.91765">
        <ele>298</ele>
        <time>2017-04-29T10:30:05Z</time>
      </trkpt>
      <trkpt lat="45.95427" lon="4.91758">
        <ele>298</ele>
        <time>2017-04-29T10:30:06Z</time>
      </trkpt>
      <trkpt lat="45.95426" lon="4.91752">
        <ele>298</ele>
        <time>2017-04-29T10:30:07Z</time>
      </trkpt>
      <trkpt lat="45.95424" lon="4.91746">
        <ele>299</ele>
        <time>2017-04-29T10:30:08Z</time>
      </trkpt>
      <trkpt lat="45.9542" lon="4.91736">
        <ele>300</ele>
        <time>2017-04-29T10:30:10Z</time>
      </trkpt>
      <trkpt lat="45.95417" lon="4.91731">
        <ele>300</ele>
        <time>2017-04-29T10:30:11Z</time>
      </trkpt>
      <trkpt lat="45.95414" lon="4.91722">
        <ele>299</ele>
        <time>2017-04-29T10:30:13Z</time>
      </trkpt>
      <trkpt lat="45.95412" lon="4.91718">
        <ele>299</ele>
        <time>2017-04-29T10:30:14Z</time>
      </trkpt>
      <trkpt lat="45.95408" lon="4.91709">
        <ele>299</ele>
        <time>2017-04-29T10:30:16Z</time>
      </trkpt>
      <trkpt lat="45.95406" lon="4.91706">
        <ele>299</ele>
        <time>2017-04-29T10:30:17Z</time>
      </trkpt>
      <trkpt lat="45.95402" lon="4.91698">
        <ele>299</ele>
        <time>2017-04-29T10:30:19Z</time>
      </trkpt>
      <trkpt lat="45.954" lon="4.91694">
        <ele>299</ele>
        <time>2017-04-29T10:30:20Z</time>
      </trkpt>
      <trkpt lat="45.95397" lon="4.91686">
        <ele>300</ele>
        <time>2017-04-29T10:30:22Z</time>
      </trkpt>
      <trkpt lat="45.95396" lon="4.91681">
        <ele>300</ele>
        <time>2017-04-29T10:30:23Z</time>
      </trkpt>
      <trkpt lat="45.95393" lon="4.91673">
        <ele>300</ele>
        <time>2017-04-29T10:30:25Z</time>
      </trkpt>
      <trkpt lat="45.95392" lon="4.91669">
        <ele>300</ele>
        <time>2017-04-29T10:30:26Z</time>
      </trkpt>
      <trkpt lat="45.95388" lon="4.91661">
        <ele>301</ele>
        <time>2017-04-29T10:30:28Z</time>
      </trkpt>
      <trkpt lat="45.95387" lon="4.91657">
        <ele>301</ele>
        <time>2017-04-29T10:30:29Z</time>
      </trkpt>
      <trkpt lat="45.95384" lon="4.91646">
        <ele>301</ele>
        <time>2017-04-29T10:30:31Z</time>
      </trkpt>
      <trkpt lat="45.95383" lon="4.9164">
        <ele>301</ele>
        <time>2017-04-29T10:30:32Z</time>
      </trkpt>
      <trkpt lat="45.95379" lon="4.9163">
        <ele>301</ele>
        <time>2017-04-29T10:30:34Z</time>
      </trkpt>
      <trkpt lat="45.95377" lon="4.91626">
        <ele>301</ele>
        <time>2017-04-29T10:30:35Z</time>
      </trkpt>
      <trkpt lat="45.95373" lon="4.91617">
        <ele>300</ele>
        <time>2017-04-29T10:30:37Z</time>
      </trkpt>
      <trkpt lat="45.95371" lon="4.91614">
        <ele>300</ele>
        <time>2017-04-29T10:30:38Z</time>
      </trkpt>
      <trkpt lat="45.95368" lon="4.91605">
        <ele>300</ele>
        <time>2017-04-29T10:30:40Z</time>
      </trkpt>
      <trkpt lat="45.95367" lon="4.916">
        <ele>300</ele>
        <time>2017-04-29T10:30:41Z</time>
      </trkpt>
      <trkpt lat="45.95364" lon="4.9159">
        <ele>300</ele>
        <time>2017-04-29T10:30:43Z</time>
      </trkpt>
      <trkpt lat="45.95363" lon="4.91585">
        <ele>300</ele>
        <time>2017-04-29T10:30:44Z</time>
      </trkpt>
      <trkpt lat="45.95361" lon="4.91576">
        <ele>300</ele>
        <time>2017-04-29T10:30:46Z</time>
      </trkpt>
      <trkpt lat="45.9536" lon="4.91571">
        <ele>300</ele>
        <time>2017-04-29T10:30:47Z</time>
      </trkpt>
      <trkpt lat="45.95357" lon="4.91562">
        <ele>300</ele>
        <time>2017-04-29T10:30:49Z</time>
      </trkpt>
      <trkpt lat="45.95356" lon="4.91556">
        <ele>300</ele>
        <time>2017-04-29T10:30:50Z</time>
      </trkpt>
      <trkpt lat="45.95353" lon="4.91545">
        <ele>300</ele>
        <time>2017-04-29T10:30:52Z</time>
      </trkpt>
      <trkpt lat="45.95352" lon="4.91539">
        <ele>300</ele>
        <time>2017-04-29T10:30:53Z</time>
      </trkpt>
      <trkpt lat="45.9535" lon="4.91529">
        <ele>299</ele>
        <time>2017-04-29T10:30:55Z</time>
      </trkpt>
      <trkpt lat="45.9535" lon="4.91524">
        <ele>299</ele>
        <time>2017-04-29T10:30:56Z</time>
      </trkpt>
      <trkpt lat="45.95349" lon="4.91514">
        <ele>299</ele>
        <time>2017-04-29T10:30:58Z</time>
      </trkpt>
      <trkpt lat="45.95348" lon="4.9151">
        <ele>299</ele>
        <time>2017-04-29T10:30:59Z</time>
      </trkpt>
      <trkpt lat="45.95346" lon="4.91499">
        <ele>298</ele>
        <time>2017-04-29T10:31:01Z</time>
      </trkpt>
      <trkpt lat="45.95346" lon="4.91496">
        <ele>298</ele>
        <time>2017-04-29T10:31:02Z</time>
      </trkpt>
      <trkpt lat="45.95344" lon="4.91484">
        <ele>298</ele>
        <time>2017-04-29T10:31:05Z</time>
      </trkpt>
      <trkpt lat="45.95344" lon="4.9148">
        <ele>298</ele>
        <time>2017-04-29T10:31:06Z</time>
      </trkpt>
      <trkpt lat="45.95343" lon="4.91471">
        <ele>298</ele>
        <time>2017-04-29T10:31:08Z</time>
      </trkpt>
      <trkpt lat="45.95342" lon="4.91465">
        <ele>298</ele>
        <time>2017-04-29T10:31:09Z</time>
      </trkpt>
      <trkpt lat="45.9534" lon="4.91454">
        <ele>298</ele>
        <time>2017-04-29T10:31:11Z</time>
      </trkpt>
      <trkpt lat="45.95339" lon="4.9145">
        <ele>298</ele>
        <time>2017-04-29T10:31:12Z</time>
      </trkpt>
      <trkpt lat="45.95338" lon="4.91441">
        <ele>298</ele>
        <time>2017-04-29T10:31:14Z</time>
      </trkpt>
      <trkpt lat="45.95337" lon="4.91436">
        <ele>298</ele>
        <time>2017-04-29T10:31:15Z</time>
      </trkpt>
      <trkpt lat="45.95334" lon="4.91428">
        <ele>298</ele>
        <time>2017-04-29T10:31:17Z</time>
      </trkpt>
      <trkpt lat="45.95333" lon="4.91424">
        <ele>298</ele>
        <time>2017-04-29T10:31:18Z</time>
      </trkpt>
      <trkpt lat="45.95331" lon="4.91415">
        <ele>298</ele>
        <time>2017-04-29T10:31:20Z</time>
      </trkpt>
      <trkpt lat="45.95331" lon="4.91411">
        <ele>298</ele>
        <time>2017-04-29T10:31:21Z</time>
      </trkpt>
      <trkpt lat="45.9533" lon="4.91399">
        <ele>298</ele>
        <time>2017-04-29T10:31:24Z</time>
      </trkpt>
      <trkpt lat="45.95329" lon="4.91395">
        <ele>298</ele>
        <time>2017-04-29T10:31:25Z</time>
      </trkpt>
      <trkpt lat="45.95327" lon="4.91383">
        <ele>298</ele>
        <time>2017-04-29T10:31:28Z</time>
      </trkpt>
      <trkpt lat="45.95325" lon="4.91379">
        <ele>298</ele>
        <time>2017-04-29T10:31:29Z</time>
      </trkpt>
      <trkpt lat="45.95323" lon="4.91369">
        <ele>298</ele>
        <time>2017-04-29T10:31:31Z</time>
      </trkpt>
      <trkpt lat="45.95322" lon="4.91364">
        <ele>298</ele>
        <time>2017-04-29T10:31:32Z</time>
      </trkpt>
      <trkpt lat="45.95316" lon="4.91355">
        <ele>298</ele>
        <time>2017-04-29T10:31:34Z</time>
      </trkpt>
      <trkpt lat="45.95315" lon="4.91349">
        <ele>297</ele>
        <time>2017-04-29T10:31:35Z</time>
      </trkpt>
      <trkpt lat="45.95313" lon="4.91336">
        <ele>297</ele>
        <time>2017-04-29T10:31:37Z</time>
      </trkpt>
      <trkpt lat="45.95312" lon="4.9133">
        <ele>298</ele>
        <time>2017-04-29T10:31:38Z</time>
      </trkpt>
      <trkpt lat="45.9531" lon="4.91324">
        <ele>298</ele>
        <time>2017-04-29T10:31:39Z</time>
      </trkpt>
      <trkpt lat="45.95309" lon="4.91318">
        <ele>298</ele>
        <time>2017-04-29T10:31:40Z</time>
      </trkpt>
      <trkpt lat="45.95307" lon="4.91308">
        <ele>298</ele>
        <time>2017-04-29T10:31:42Z</time>
      </trkpt>
      <trkpt lat="45.95306" lon="4.91304">
        <ele>298</ele>
        <time>2017-04-29T10:31:43Z</time>
      </trkpt>
      <trkpt lat="45.95303" lon="4.91292">
        <ele>298</ele>
        <time>2017-04-29T10:31:46Z</time>
      </trkpt>
      <trkpt lat="45.95302" lon="4.91289">
        <ele>298</ele>
        <time>2017-04-29T10:31:47Z</time>
      </trkpt>
      <trkpt lat="45.953" lon="4.91277">
        <ele>298</ele>
        <time>2017-04-29T10:31:50Z</time>
      </trkpt>
      <trkpt lat="45.95299" lon="4.91273">
        <ele>298</ele>
        <time>2017-04-29T10:31:51Z</time>
      </trkpt>
      <trkpt lat="45.95298" lon="4.91263">
        <ele>298</ele>
        <time>2017-04-29T10:31:54Z</time>
      </trkpt>
      <trkpt lat="45.95298" lon="4.9126">
        <ele>298</ele>
        <time>2017-04-29T10:31:55Z</time>
      </trkpt>
      <trkpt lat="45.95295" lon="4.9125">
        <ele>298</ele>
        <time>2017-04-29T10:31:58Z</time>
      </trkpt>
      <trkpt lat="45.95294" lon="4.91247">
        <ele>299</ele>
        <time>2017-04-29T10:31:59Z</time>
      </trkpt>
      <trkpt lat="45.9529" lon="4.91235">
        <ele>299</ele>
        <time>2017-04-29T10:32:02Z</time>
      </trkpt>
      <trkpt lat="45.95289" lon="4.9123">
        <ele>299</ele>
        <time>2017-04-29T10:32:03Z</time>
      </trkpt>
      <trkpt lat="45.95287" lon="4.91219">
        <ele>299</ele>
        <time>2017-04-29T10:32:05Z</time>
      </trkpt>
      <trkpt lat="45.95285" lon="4.91214">
        <ele>299</ele>
        <time>2017-04-29T10:32:06Z</time>
      </trkpt>
      <trkpt lat="45.95282" lon="4.91204">
        <ele>299</ele>
        <time>2017-04-29T10:32:08Z</time>
      </trkpt>
      <trkpt lat="45.9528" lon="4.912">
        <ele>299</ele>
        <time>2017-04-29T10:32:09Z</time>
      </trkpt>
      <trkpt lat="45.95276" lon="4.91194">
        <ele>299</ele>
        <time>2017-04-29T10:32:11Z</time>
      </trkpt>
      <trkpt lat="45.95273" lon="4.9119">
        <ele>299</ele>
        <time>2017-04-29T10:32:12Z</time>
      </trkpt>
      <trkpt lat="45.95268" lon="4.9118">
        <ele>299</ele>
        <time>2017-04-29T10:32:15Z</time>
      </trkpt>
      <trkpt lat="45.95266" lon="4.91176">
        <ele>299</ele>
        <time>2017-04-29T10:32:16Z</time>
      </trkpt>
      <trkpt lat="45.95261" lon="4.91168">
        <ele>299</ele>
        <time>2017-04-29T10:32:18Z</time>
      </trkpt>
      <trkpt lat="45.95259" lon="4.91165">
        <ele>299</ele>
        <time>2017-04-29T10:32:19Z</time>
      </trkpt>
      <trkpt lat="45.95255" lon="4.91158">
        <ele>299</ele>
        <time>2017-04-29T10:32:21Z</time>
      </trkpt>
      <trkpt lat="45.95253" lon="4.91154">
        <ele>299</ele>
        <time>2017-04-29T10:32:22Z</time>
      </trkpt>
      <trkpt lat="45.95249" lon="4.91147">
        <ele>298</ele>
        <time>2017-04-29T10:32:24Z</time>
      </trkpt>
      <trkpt lat="45.95246" lon="4.91144">
        <ele>298</ele>
        <time>2017-04-29T10:32:25Z</time>
      </trkpt>
      <trkpt lat="45.9524" lon="4.91135">
        <ele>298</ele>
        <time>2017-04-29T10:32:28Z</time>
      </trkpt>
      <trkpt lat="45.95238" lon="4.91132">
        <ele>298</ele>
        <time>2017-04-29T10:32:29Z</time>
      </trkpt>
      <trkpt lat="45.95231" lon="4.91123">
        <ele>298</ele>
        <time>2017-04-29T10:32:32Z</time>
      </trkpt>
      <trkpt lat="45.95229" lon="4.9112">
        <ele>298</ele>
        <time>2017-04-29T10:32:33Z</time>
      </trkpt>
      <trkpt lat="45.95225" lon="4.91112">
        <ele>298</ele>
        <time>2017-04-29T10:32:35Z</time>
      </trkpt>
      <trkpt lat="45.95223" lon="4.91109">
        <ele>298</ele>
        <time>2017-04-29T10:32:36Z</time>
      </trkpt>
      <trkpt lat="45.9522" lon="4.91101">
        <ele>298</ele>
        <time>2017-04-29T10:32:38Z</time>
      </trkpt>
      <trkpt lat="45.95218" lon="4.91097">
        <ele>298</ele>
        <time>2017-04-29T10:32:39Z</time>
      </trkpt>
      <trkpt lat="45.95212" lon="4.91089">
        <ele>298</ele>
        <time>2017-04-29T10:32:42Z</time>
      </trkpt>
      <trkpt lat="45.95211" lon="4.91086">
        <ele>298</ele>
        <time>2017-04-29T10:32:43Z</time>
      </trkpt>
      <trkpt lat="45.95202" lon="4.91083">
        <ele>297</ele>
        <time>2017-04-29T10:32:47Z</time>
      </trkpt>
      <trkpt lat="45.952" lon="4.91083">
        <ele>297</ele>
        <time>2017-04-29T10:32:48Z</time>
      </trkpt>
      <trkpt lat="45.95191" lon="4.9108">
        <ele>297</ele>
        <time>2017-04-29T10:32:51Z</time>
      </trkpt>
      <trkpt lat="45.95188" lon="4.91079">
        <ele>297</ele>
        <time>2017-04-29T10:32:52Z</time>
      </trkpt>
      <trkpt lat="45.95183" lon="4.91071">
        <ele>297</ele>
        <time>2017-04-29T10:32:55Z</time>
      </trkpt>
      <trkpt lat="45.95181" lon="4.91067">
        <ele>297</ele>
        <time>2017-04-29T10:32:56Z</time>
      </trkpt>
      <trkpt lat="45.95177" lon="4.91059">
        <ele>297</ele>
        <time>2017-04-29T10:32:58Z</time>
      </trkpt>
      <trkpt lat="45.95175" lon="4.91056">
        <ele>297</ele>
        <time>2017-04-29T10:32:59Z</time>
      </trkpt>
      <trkpt lat="45.95171" lon="4.91048">
        <ele>297</ele>
        <time>2017-04-29T10:33:01Z</time>
      </trkpt>
      <trkpt lat="45.9517" lon="4.91043">
        <ele>297</ele>
        <time>2017-04-29T10:33:02Z</time>
      </trkpt>
      <trkpt lat="45.95166" lon="4.91034">
        <ele>297</ele>
        <time>2017-04-29T10:33:04Z</time>
      </trkpt>
      <trkpt lat="45.95164" lon="4.91031">
        <ele>297</ele>
        <time>2017-04-29T10:33:05Z</time>
      </trkpt>
      <trkpt lat="45.95161" lon="4.91022">
        <ele>297</ele>
        <time>2017-04-29T10:33:07Z</time>
      </trkpt>
      <trkpt lat="45.9516" lon="4.91019">
        <ele>297</ele>
        <time>2017-04-29T10:33:08Z</time>
      </trkpt>
      <trkpt lat="45.95156" lon="4.91013">
        <ele>297</ele>
        <time>2017-04-29T10:33:19Z</time>
      </trkpt>
      <trkpt lat="45.95155" lon="4.91014">
        <ele>297</ele>
        <time>2017-04-29T10:33:20Z</time>
      </trkpt>
      <trkpt lat="45.95155" lon="4.91014">
        <ele>297</ele>
        <time>2017-04-29T10:33:21Z</time>
      </trkpt>
      <trkpt lat="45.95154" lon="4.91015">
        <ele>297</ele>
        <time>2017-04-29T10:33:22Z</time>
      </trkpt>
      <trkpt lat="45.95162" lon="4.91009">
        <ele>298</ele>
        <time>2017-04-29T10:39:06Z</time>
      </trkpt>
      <trkpt lat="45.95163" lon="4.91008">
        <ele>298</ele>
        <time>2017-04-29T10:39:07Z</time>
      </trkpt>
      <trkpt lat="45.95169" lon="4.91">
        <ele>298</ele>
        <time>2017-04-29T10:39:21Z</time>
      </trkpt>
      <trkpt lat="45.95169" lon="4.90999">
        <ele>298</ele>
        <time>2017-04-29T10:39:22Z</time>
      </trkpt>
      <trkpt lat="45.95175" lon="4.9099">
        <ele>298</ele>
        <time>2017-04-29T10:39:35Z</time>
      </trkpt>
      <trkpt lat="45.95176" lon="4.90989">
        <ele>298</ele>
        <time>2017-04-29T10:39:36Z</time>
      </trkpt>
      <trkpt lat="45.95173" lon="4.90978">
        <ele>298</ele>
        <time>2017-04-29T10:40:55Z</time>
      </trkpt>
      <trkpt lat="45.95172" lon="4.90973">
        <ele>298</ele>
        <time>2017-04-29T10:40:56Z</time>
      </trkpt>
      <trkpt lat="45.95172" lon="4.90965">
        <ele>298</ele>
        <time>2017-04-29T10:40:58Z</time>
      </trkpt>
      <trkpt lat="45.95173" lon="4.9096">
        <ele>298</ele>
        <time>2017-04-29T10:40:59Z</time>
      </trkpt>
      <trkpt lat="45.95173" lon="4.90949">
        <ele>297</ele>
        <time>2017-04-29T10:41:01Z</time>
      </trkpt>
      <trkpt lat="45.95174" lon="4.90943">
        <ele>297</ele>
        <time>2017-04-29T10:41:02Z</time>
      </trkpt>
      <trkpt lat="45.95176" lon="4.90931">
        <ele>297</ele>
        <time>2017-04-29T10:41:04Z</time>
      </trkpt>
      <trkpt lat="45.95176" lon="4.90925">
        <ele>297</ele>
        <time>2017-04-29T10:41:05Z</time>
      </trkpt>
      <trkpt lat="45.95177" lon="4.90912">
        <ele>297</ele>
        <time>2017-04-29T10:41:07Z</time>
      </trkpt>
      <trkpt lat="45.95178" lon="4.90905">
        <ele>298</ele>
        <time>2017-04-29T10:41:08Z</time>
      </trkpt>
      <trkpt lat="45.95178" lon="4.90899">
        <ele>298</ele>
        <time>2017-04-29T10:41:09Z</time>
      </trkpt>
      <trkpt lat="45.95179" lon="4.90892">
        <ele>298</ele>
        <time>2017-04-29T10:41:10Z</time>
      </trkpt>
      <trkpt lat="45.9518" lon="4.90885">
        <ele>298</ele>
        <time>2017-04-29T10:41:11Z</time>
      </trkpt>
      <trkpt lat="45.95181" lon="4.90879">
        <ele>298</ele>
        <time>2017-04-29T10:41:12Z</time>
      </trkpt>
      <trkpt lat="45.95182" lon="4.90872">
        <ele>298</ele>
        <time>2017-04-29T10:41:13Z</time>
      </trkpt>
      <trkpt lat="45.95183" lon="4.90865">
        <ele>298</ele>
        <time>2017-04-29T10:41:14Z</time>
      </trkpt>
      <trkpt lat="45.95184" lon="4.90857">
        <ele>298</ele>
        <time>2017-04-29T10:41:15Z</time>
      </trkpt>
      <trkpt lat="45.95185" lon="4.9085">
        <ele>298</ele>
        <time>2017-04-29T10:41:16Z</time>
      </trkpt>
      <trkpt lat="45.95185" lon="4.90842">
        <ele>298</ele>
        <time>2017-04-29T10:41:17Z</time>
      </trkpt>
      <trkpt lat="45.95186" lon="4.90834">
        <ele>298</ele>
        <time>2017-04-29T10:41:18Z</time>
      </trkpt>
      <trkpt lat="45.95186" lon="4.90826">
        <ele>298</ele>
        <time>2017-04-29T10:41:19Z</time>
      </trkpt>
      <trkpt lat="45.95185" lon="4.90818">
        <ele>298</ele>
        <time>2017-04-29T10:41:20Z</time>
      </trkpt>
      <trkpt lat="45.95184" lon="4.90811">
        <ele>298</ele>
        <time>2017-04-29T10:41:21Z</time>
      </trkpt>
      <trkpt lat="45.95182" lon="4.90803">
        <ele>298</ele>
        <time>2017-04-29T10:41:22Z</time>
      </trkpt>
      <trkpt lat="45.9518" lon="4.90796">
        <ele>298</ele>
        <time>2017-04-29T10:41:23Z</time>
      </trkpt>
      <trkpt lat="45.95178" lon="4.90789">
        <ele>298</ele>
        <time>2017-04-29T10:41:24Z</time>
      </trkpt>
      <trkpt lat="45.95176" lon="4.90782">
        <ele>298</ele>
        <time>2017-04-29T10:41:25Z</time>
      </trkpt>
      <trkpt lat="45.95175" lon="4.90774">
        <ele>298</ele>
        <time>2017-04-29T10:41:26Z</time>
      </trkpt>
      <trkpt lat="45.95175" lon="4.90767">
        <ele>298</ele>
        <time>2017-04-29T10:41:27Z</time>
      </trkpt>
      <trkpt lat="45.95175" lon="4.9076">
        <ele>298</ele>
        <time>2017-04-29T10:41:28Z</time>
      </trkpt>
      <trkpt lat="45.95176" lon="4.90747">
        <ele>297</ele>
        <time>2017-04-29T10:41:30Z</time>
      </trkpt>
      <trkpt lat="45.95177" lon="4.90741">
        <ele>297</ele>
        <time>2017-04-29T10:41:31Z</time>
      </trkpt>
      <trkpt lat="45.95177" lon="4.90734">
        <ele>297</ele>
        <time>2017-04-29T10:41:32Z</time>
      </trkpt>
      <trkpt lat="45.95177" lon="4.90728">
        <ele>297</ele>
        <time>2017-04-29T10:41:33Z</time>
      </trkpt>
      <trkpt lat="45.95178" lon="4.90721">
        <ele>297</ele>
        <time>2017-04-29T10:41:34Z</time>
      </trkpt>
      <trkpt lat="45.95179" lon="4.90715">
        <ele>297</ele>
        <time>2017-04-29T10:41:35Z</time>
      </trkpt>
      <trkpt lat="45.9518" lon="4.90708">
        <ele>297</ele>
        <time>2017-04-29T10:41:36Z</time>
      </trkpt>
      <trkpt lat="45.9518" lon="4.90701">
        <ele>297</ele>
        <time>2017-04-29T10:41:37Z</time>
      </trkpt>
      <trkpt lat="45.9518" lon="4.90694">
        <ele>297</ele>
        <time>2017-04-29T10:41:38Z</time>
      </trkpt>
      <trkpt lat="45.9518" lon="4.90686">
        <ele>297</ele>
        <time>2017-04-29T10:41:39Z</time>
      </trkpt>
      <trkpt lat="45.9518" lon="4.90678">
        <ele>296</ele>
        <time>2017-04-29T10:41:40Z</time>
      </trkpt>
      <trkpt lat="45.95179" lon="4.9067">
        <ele>296</ele>
        <time>2017-04-29T10:41:41Z</time>
      </trkpt>
      <trkpt lat="45.9518" lon="4.90661">
        <ele>295</ele>
        <time>2017-04-29T10:41:42Z</time>
      </trkpt>
      <trkpt lat="45.9518" lon="4.90653">
        <ele>295</ele>
        <time>2017-04-29T10:41:43Z</time>
      </trkpt>
      <trkpt lat="45.95181" lon="4.90644">
        <ele>295</ele>
        <time>2017-04-29T10:41:44Z</time>
      </trkpt>
      <trkpt lat="45.95181" lon="4.90636">
        <ele>295</ele>
        <time>2017-04-29T10:41:45Z</time>
      </trkpt>
      <trkpt lat="45.95181" lon="4.90628">
        <ele>295</ele>
        <time>2017-04-29T10:41:46Z</time>
      </trkpt>
      <trkpt lat="45.95182" lon="4.9062">
        <ele>295</ele>
        <time>2017-04-29T10:41:47Z</time>
      </trkpt>
      <trkpt lat="45.95182" lon="4.90612">
        <ele>295</ele>
        <time>2017-04-29T10:41:48Z</time>
      </trkpt>
      <trkpt lat="45.95182" lon="4.90605">
        <ele>295</ele>
        <time>2017-04-29T10:41:49Z</time>
      </trkpt>
      <trkpt lat="45.95183" lon="4.90598">
        <ele>295</ele>
        <time>2017-04-29T10:41:50Z</time>
      </trkpt>
      <trkpt lat="45.95183" lon="4.9059">
        <ele>294</ele>
        <time>2017-04-29T10:41:51Z</time>
      </trkpt>
      <trkpt lat="45.95183" lon="4.90583">
        <ele>293</ele>
        <time>2017-04-29T10:41:52Z</time>
      </trkpt>
      <trkpt lat="45.95184" lon="4.90576">
        <ele>293</ele>
        <time>2017-04-29T10:41:53Z</time>
      </trkpt>
      <trkpt lat="45.95184" lon="4.9057">
        <ele>293</ele>
        <time>2017-04-29T10:41:54Z</time>
      </trkpt>
      <trkpt lat="45.95184" lon="4.90563">
        <ele>293</ele>
        <time>2017-04-29T10:41:55Z</time>
      </trkpt>
      <trkpt lat="45.95184" lon="4.90556">
        <ele>293</ele>
        <time>2017-04-29T10:41:56Z</time>
      </trkpt>
      <trkpt lat="45.95184" lon="4.90549">
        <ele>293</ele>
        <time>2017-04-29T10:41:57Z</time>
      </trkpt>
      <trkpt lat="45.95185" lon="4.90542">
        <ele>293</ele>
        <time>2017-04-29T10:41:58Z</time>
      </trkpt>
      <trkpt lat="45.95185" lon="4.90534">
        <ele>293</ele>
        <time>2017-04-29T10:41:59Z</time>
      </trkpt>
      <trkpt lat="45.95186" lon="4.90527">
        <ele>292</ele>
        <time>2017-04-29T10:42:00Z</time>
      </trkpt>
      <trkpt lat="45.95186" lon="4.9052">
        <ele>292</ele>
        <time>2017-04-29T10:42:01Z</time>
      </trkpt>
      <trkpt lat="45.95187" lon="4.90512">
        <ele>292</ele>
        <time>2017-04-29T10:42:02Z</time>
      </trkpt>
      <trkpt lat="45.95187" lon="4.90504">
        <ele>292</ele>
        <time>2017-04-29T10:42:03Z</time>
      </trkpt>
      <trkpt lat="45.95188" lon="4.90496">
        <ele>291</ele>
        <time>2017-04-29T10:42:04Z</time>
      </trkpt>
      <trkpt lat="45.95188" lon="4.90487">
        <ele>291</ele>
        <time>2017-04-29T10:42:05Z</time>
      </trkpt>
      <trkpt lat="45.95189" lon="4.90479">
        <ele>290</ele>
        <time>2017-04-29T10:42:06Z</time>
      </trkpt>
      <trkpt lat="45.95189" lon="4.9047">
        <ele>290</ele>
        <time>2017-04-29T10:42:07Z</time>
      </trkpt>
      <trkpt lat="45.9519" lon="4.90461">
        <ele>290</ele>
        <time>2017-04-29T10:42:08Z</time>
      </trkpt>
      <trkpt lat="45.95191" lon="4.90452">
        <ele>290</ele>
        <time>2017-04-29T10:42:09Z</time>
      </trkpt>
      <trkpt lat="45.95191" lon="4.90443">
        <ele>290</ele>
        <time>2017-04-29T10:42:10Z</time>
      </trkpt>
      <trkpt lat="45.95191" lon="4.90434">
        <ele>290</ele>
        <time>2017-04-29T10:42:11Z</time>
      </trkpt>
      <trkpt lat="45.95191" lon="4.90425">
        <ele>289</ele>
        <time>2017-04-29T10:42:12Z</time>
      </trkpt>
      <trkpt lat="45.95192" lon="4.90417">
        <ele>288</ele>
        <time>2017-04-29T10:42:13Z</time>
      </trkpt>
      <trkpt lat="45.95193" lon="4.90408">
        <ele>288</ele>
        <time>2017-04-29T10:42:14Z</time>
      </trkpt>
      <trkpt lat="45.95194" lon="4.904">
        <ele>288</ele>
        <time>2017-04-29T10:42:15Z</time>
      </trkpt>
      <trkpt lat="45.95195" lon="4.90391">
        <ele>288</ele>
        <time>2017-04-29T10:42:16Z</time>
      </trkpt>
      <trkpt lat="45.95196" lon="4.90384">
        <ele>288</ele>
        <time>2017-04-29T10:42:17Z</time>
      </trkpt>
      <trkpt lat="45.95198" lon="4.90376">
        <ele>288</ele>
        <time>2017-04-29T10:42:18Z</time>
      </trkpt>
      <trkpt lat="45.95199" lon="4.90368">
        <ele>288</ele>
        <time>2017-04-29T10:42:19Z</time>
      </trkpt>
      <trkpt lat="45.95201" lon="4.9036">
        <ele>288</ele>
        <time>2017-04-29T10:42:20Z</time>
      </trkpt>
      <trkpt lat="45.95202" lon="4.90353">
        <ele>288</ele>
        <time>2017-04-29T10:42:21Z</time>
      </trkpt>
      <trkpt lat="45.95204" lon="4.90345">
        <ele>288</ele>
        <time>2017-04-29T10:42:22Z</time>
      </trkpt>
      <trkpt lat="45.95206" lon="4.90337">
        <ele>288</ele>
        <time>2017-04-29T10:42:23Z</time>
      </trkpt>
      <trkpt lat="45.95207" lon="4.90329">
        <ele>287</ele>
        <time>2017-04-29T10:42:24Z</time>
      </trkpt>
      <trkpt lat="45.95209" lon="4.90321">
        <ele>287</ele>
        <time>2017-04-29T10:42:25Z</time>
      </trkpt>
      <trkpt lat="45.9521" lon="4.90313">
        <ele>287</ele>
        <time>2017-04-29T10:42:26Z</time>
      </trkpt>
      <trkpt lat="45.95211" lon="4.90305">
        <ele>287</ele>
        <time>2017-04-29T10:42:27Z</time>
      </trkpt>
      <trkpt lat="45.95212" lon="4.90297">
        <ele>287</ele>
        <time>2017-04-29T10:42:28Z</time>
      </trkpt>
      <trkpt lat="45.95213" lon="4.90289">
        <ele>287</ele>
        <time>2017-04-29T10:42:29Z</time>
      </trkpt>
      <trkpt lat="45.95214" lon="4.9028">
        <ele>287</ele>
        <time>2017-04-29T10:42:30Z</time>
      </trkpt>
      <trkpt lat="45.95215" lon="4.90271">
        <ele>287</ele>
        <time>2017-04-29T10:42:31Z</time>
      </trkpt>
      <trkpt lat="45.95216" lon="4.90262">
        <ele>287</ele>
        <time>2017-04-29T10:42:32Z</time>
      </trkpt>
      <trkpt lat="45.95216" lon="4.90253">
        <ele>287</ele>
        <time>2017-04-29T10:42:33Z</time>
      </trkpt>
      <trkpt lat="45.95215" lon="4.90243">
        <ele>286</ele>
        <time>2017-04-29T10:42:34Z</time>
      </trkpt>
      <trkpt lat="45.95214" lon="4.90234">
        <ele>286</ele>
        <time>2017-04-29T10:42:35Z</time>
      </trkpt>
      <trkpt lat="45.95214" lon="4.90225">
        <ele>286</ele>
        <time>2017-04-29T10:42:36Z</time>
      </trkpt>
      <trkpt lat="45.95213" lon="4.90216">
        <ele>286</ele>
        <time>2017-04-29T10:42:37Z</time>
      </trkpt>
      <trkpt lat="45.95212" lon="4.90206">
        <ele>286</ele>
        <time>2017-04-29T10:42:38Z</time>
      </trkpt>
      <trkpt lat="45.95211" lon="4.90197">
        <ele>286</ele>
        <time>2017-04-29T10:42:39Z</time>
      </trkpt>
      <trkpt lat="45.95209" lon="4.90189">
        <ele>286</ele>
        <time>2017-04-29T10:42:40Z</time>
      </trkpt>
      <trkpt lat="45.95207" lon="4.90182">
        <ele>287</ele>
        <time>2017-04-29T10:42:41Z</time>
      </trkpt>
      <trkpt lat="45.95203" lon="4.90175">
        <ele>287</ele>
        <time>2017-04-29T10:42:42Z</time>
      </trkpt>
      <trkpt lat="45.95199" lon="4.9017">
        <ele>287</ele>
        <time>2017-04-29T10:42:43Z</time>
      </trkpt>
      <trkpt lat="45.95194" lon="4.90167">
        <ele>287</ele>
        <time>2017-04-29T10:42:44Z</time>
      </trkpt>
      <trkpt lat="45.95188" lon="4.90166">
        <ele>287</ele>
        <time>2017-04-29T10:42:45Z</time>
      </trkpt>
      <trkpt lat="45.95182" lon="4.90166">
        <ele>287</ele>
        <time>2017-04-29T10:42:46Z</time>
      </trkpt>
      <trkpt lat="45.95176" lon="4.90168">
        <ele>287</ele>
        <time>2017-04-29T10:42:47Z</time>
      </trkpt>
      <trkpt lat="45.9517" lon="4.90169">
        <ele>287</ele>
        <time>2017-04-29T10:42:48Z</time>
      </trkpt>
      <trkpt lat="45.95164" lon="4.9017">
        <ele>287</ele>
        <time>2017-04-29T10:42:49Z</time>
      </trkpt>
      <trkpt lat="45.95158" lon="4.9017">
        <ele>287</ele>
        <time>2017-04-29T10:42:50Z</time>
      </trkpt>
      <trkpt lat="45.95152" lon="4.9017">
        <ele>287</ele>
        <time>2017-04-29T10:42:51Z</time>
      </trkpt>
      <trkpt lat="45.95146" lon="4.90169">
        <ele>287</ele>
        <time>2017-04-29T10:42:52Z</time>
      </trkpt>
      <trkpt lat="45.9514" lon="4.90168">
        <ele>287</ele>
        <time>2017-04-29T10:42:53Z</time>
      </trkpt>
      <trkpt lat="45.95133" lon="4.90165">
        <ele>286</ele>
        <time>2017-04-29T10:42:54Z</time>
      </trkpt>
      <trkpt lat="45.95128" lon="4.90162">
        <ele>286</ele>
        <time>2017-04-29T10:42:55Z</time>
      </trkpt>
      <trkpt lat="45.95122" lon="4.90158">
        <ele>286</ele>
        <time>2017-04-29T10:42:56Z</time>
      </trkpt>
      <trkpt lat="45.95117" lon="4.90154">
        <ele>286</ele>
        <time>2017-04-29T10:42:57Z</time>
      </trkpt>
      <trkpt lat="45.95111" lon="4.9015">
        <ele>286</ele>
        <time>2017-04-29T10:42:58Z</time>
      </trkpt>
      <trkpt lat="45.95107" lon="4.90145">
        <ele>286</ele>
        <time>2017-04-29T10:42:59Z</time>
      </trkpt>
      <trkpt lat="45.95102" lon="4.90141">
        <ele>286</ele>
        <time>2017-04-29T10:43:00Z</time>
      </trkpt>
      <trkpt lat="45.95098" lon="4.90137">
        <ele>286</ele>
        <time>2017-04-29T10:43:01Z</time>
      </trkpt>
      <trkpt lat="45.95094" lon="4.90132">
        <ele>286</ele>
        <time>2017-04-29T10:43:02Z</time>
      </trkpt>
      <trkpt lat="45.9509" lon="4.90128">
        <ele>286</ele>
        <time>2017-04-29T10:43:03Z</time>
      </trkpt>
      <trkpt lat="45.95086" lon="4.90123">
        <ele>286</ele>
        <time>2017-04-29T10:43:04Z</time>
      </trkpt>
      <trkpt lat="45.95082" lon="4.90118">
        <ele>285</ele>
        <time>2017-04-29T10:43:05Z</time>
      </trkpt>
      <trkpt lat="45.95078" lon="4.90114">
        <ele>285</ele>
        <time>2017-04-29T10:43:06Z</time>
      </trkpt>
      <trkpt lat="45.95075" lon="4.90108">
        <ele>285</ele>
        <time>2017-04-29T10:43:07Z</time>
      </trkpt>
      <trkpt lat="45.95071" lon="4.90103">
        <ele>285</ele>
        <time>2017-04-29T10:43:08Z</time>
      </trkpt>
      <trkpt lat="45.95067" lon="4.90098">
        <ele>285</ele>
        <time>2017-04-29T10:43:09Z</time>
      </trkpt>
      <trkpt lat="45.95062" lon="4.90093">
        <ele>285</ele>
        <time>2017-04-29T10:43:10Z</time>
      </trkpt>
      <trkpt lat="45.95058" lon="4.90087">
        <ele>285</ele>
        <time>2017-04-29T10:43:11Z</time>
      </trkpt>
      <trkpt lat="45.95054" lon="4.90082">
        <ele>285</ele>
        <time>2017-04-29T10:43:12Z</time>
      </trkpt>
      <trkpt lat="45.9505" lon="4.90077">
        <ele>285</ele>
        <time>2017-04-29T10:43:13Z</time>
      </trkpt>
      <trkpt lat="45.95045" lon="4.90071">
        <ele>285</ele>
        <time>2017-04-29T10:43:14Z</time>
      </trkpt>
      <trkpt lat="45.95041" lon="4.90065">
        <ele>285</ele>
        <time>2017-04-29T10:43:15Z</time>
      </trkpt>
      <trkpt lat="45.95037" lon="4.90059">
        <ele>285</ele>
        <time>2017-04-29T10:43:16Z</time>
      </trkpt>
      <trkpt lat="45.95032" lon="4.90053">
        <ele>285</ele>
        <time>2017-04-29T10:43:17Z</time>
      </trkpt>
      <trkpt lat="45.95028" lon="4.90047">
        <ele>284</ele>
        <time>2017-04-29T10:43:18Z</time>
      </trkpt>
      <trkpt lat="45.95024" lon="4.90041">
        <ele>284</ele>
        <time>2017-04-29T10:43:19Z</time>
      </trkpt>
      <trkpt lat="45.95021" lon="4.90035">
        <ele>284</ele>
        <time>2017-04-29T10:43:20Z</time>
      </trkpt>
      <trkpt lat="45.95017" lon="4.90029">
        <ele>284</ele>
        <time>2017-04-29T10:43:21Z</time>
      </trkpt>
      <trkpt lat="45.95014" lon="4.90023">
        <ele>284</ele>
        <time>2017-04-29T10:43:22Z</time>
      </trkpt>
      <trkpt lat="45.95011" lon="4.90018">
        <ele>284</ele>
        <time>2017-04-29T10:43:23Z</time>
      </trkpt>
      <trkpt lat="45.95007" lon="4.90012">
        <ele>284</ele>
        <time>2017-04-29T10:43:24Z</time>
      </trkpt>
      <trkpt lat="45.95004" lon="4.90006">
        <ele>283</ele>
        <time>2017-04-29T10:43:25Z</time>
      </trkpt>
      <trkpt lat="45.95001" lon="4.9">
        <ele>283</ele>
        <time>2017-04-29T10:43:26Z</time>
      </trkpt>
      <trkpt lat="45.94997" lon="4.89994">
        <ele>283</ele>
        <time>2017-04-29T10:43:27Z</time>
      </trkpt>
      <trkpt lat="45.94993" lon="4.89987">
        <ele>283</ele>
        <time>2017-04-29T10:43:28Z</time>
      </trkpt>
      <trkpt lat="45.9499" lon="4.8998">
        <ele>284</ele>
        <time>2017-04-29T10:43:29Z</time>
      </trkpt>
      <trkpt lat="45.94986" lon="4.89974">
        <ele>284</ele>
        <time>2017-04-29T10:43:30Z</time>
      </trkpt>
      <trkpt lat="45.94982" lon="4.89967">
        <ele>284</ele>
        <time>2017-04-29T10:43:31Z</time>
      </trkpt>
      <trkpt lat="45.94978" lon="4.89961">
        <ele>284</ele>
        <time>2017-04-29T10:43:32Z</time>
      </trkpt>
      <trkpt lat="45.94975" lon="4.89955">
        <ele>284</ele>
        <time>2017-04-29T10:43:33Z</time>
      </trkpt>
      <trkpt lat="45.94971" lon="4.8995">
        <ele>284</ele>
        <time>2017-04-29T10:43:34Z</time>
      </trkpt>
      <trkpt lat="45.94967" lon="4.89945">
        <ele>284</ele>
        <time>2017-04-29T10:43:35Z</time>
      </trkpt>
      <trkpt lat="45.94963" lon="4.8994">
        <ele>284</ele>
        <time>2017-04-29T10:43:36Z</time>
      </trkpt>
      <trkpt lat="45.94958" lon="4.89935">
        <ele>284</ele>
        <time>2017-04-29T10:43:37Z</time>
      </trkpt>
      <trkpt lat="45.94953" lon="4.89929">
        <ele>284</ele>
        <time>2017-04-29T10:43:38Z</time>
      </trkpt>
      <trkpt lat="45.94949" lon="4.89924">
        <ele>284</ele>
        <time>2017-04-29T10:43:39Z</time>
      </trkpt>
      <trkpt lat="45.94945" lon="4.89919">
        <ele>284</ele>
        <time>2017-04-29T10:43:40Z</time>
      </trkpt>
      <trkpt lat="45.94941" lon="4.89913">
        <ele>284</ele>
        <time>2017-04-29T10:43:41Z</time>
      </trkpt>
      <trkpt lat="45.94937" lon="4.89907">
        <ele>284</ele>
        <time>2017-04-29T10:43:42Z</time>
      </trkpt>
      <trkpt lat="45.94933" lon="4.89901">
        <ele>284</ele>
        <time>2017-04-29T10:43:43Z</time>
      </trkpt>
      <trkpt lat="45.94931" lon="4.89894">
        <ele>284</ele>
        <time>2017-04-29T10:43:44Z</time>
      </trkpt>
      <trkpt lat="45.94928" lon="4.89887">
        <ele>284</ele>
        <time>2017-04-29T10:43:45Z</time>
      </trkpt>
      <trkpt lat="45.94925" lon="4.89879">
        <ele>284</ele>
        <time>2017-04-29T10:43:46Z</time>
      </trkpt>
      <trkpt lat="45.94923" lon="4.89871">
        <ele>284</ele>
        <time>2017-04-29T10:43:47Z</time>
      </trkpt>
      <trkpt lat="45.94922" lon="4.89863">
        <ele>284</ele>
        <time>2017-04-29T10:43:48Z</time>
      </trkpt>
      <trkpt lat="45.94921" lon="4.89855">
        <ele>284</ele>
        <time>2017-04-29T10:43:49Z</time>
      </trkpt>
      <trkpt lat="45.9492" lon="4.89847">
        <ele>284</ele>
        <time>2017-04-29T10:43:50Z</time>
      </trkpt>
      <trkpt lat="45.9492" lon="4.89839">
        <ele>284</ele>
        <time>2017-04-29T10:43:51Z</time>
      </trkpt>
      <trkpt lat="45.9492" lon="4.8983">
        <ele>284</ele>
        <time>2017-04-29T10:43:52Z</time>
      </trkpt>
      <trkpt lat="45.9492" lon="4.89822">
        <ele>284</ele>
        <time>2017-04-29T10:43:53Z</time>
      </trkpt>
      <trkpt lat="45.94921" lon="4.89814">
        <ele>284</ele>
        <time>2017-04-29T10:43:54Z</time>
      </trkpt>
      <trkpt lat="45.94923" lon="4.89806">
        <ele>284</ele>
        <time>2017-04-29T10:43:55Z</time>
      </trkpt>
      <trkpt lat="45.94925" lon="4.89798">
        <ele>284</ele>
        <time>2017-04-29T10:43:56Z</time>
      </trkpt>
      <trkpt lat="45.94927" lon="4.8979">
        <ele>284</ele>
        <time>2017-04-29T10:43:57Z</time>
      </trkpt>
      <trkpt lat="45.94929" lon="4.89782">
        <ele>284</ele>
        <time>2017-04-29T10:43:58Z</time>
      </trkpt>
      <trkpt lat="45.94931" lon="4.89775">
        <ele>284</ele>
        <time>2017-04-29T10:43:59Z</time>
      </trkpt>
      <trkpt lat="45.94934" lon="4.89768">
        <ele>284</ele>
        <time>2017-04-29T10:44:00Z</time>
      </trkpt>
      <trkpt lat="45.94936" lon="4.8976">
        <ele>284</ele>
        <time>2017-04-29T10:44:01Z</time>
      </trkpt>
      <trkpt lat="45.94937" lon="4.89754">
        <ele>284</ele>
        <time>2017-04-29T10:44:02Z</time>
      </trkpt>
      <trkpt lat="45.94939" lon="4.89747">
        <ele>284</ele>
        <time>2017-04-29T10:44:03Z</time>
      </trkpt>
      <trkpt lat="45.94942" lon="4.89739">
        <ele>284</ele>
        <time>2017-04-29T10:44:04Z</time>
      </trkpt>
      <trkpt lat="45.94944" lon="4.89731">
        <ele>284</ele>
        <time>2017-04-29T10:44:05Z</time>
      </trkpt>
      <trkpt lat="45.94946" lon="4.89723">
        <ele>284</ele>
        <time>2017-04-29T10:44:06Z</time>
      </trkpt>
      <trkpt lat="45.94949" lon="4.89715">
        <ele>284</ele>
        <time>2017-04-29T10:44:07Z</time>
      </trkpt>
      <trkpt lat="45.94951" lon="4.89708">
        <ele>284</ele>
        <time>2017-04-29T10:44:08Z</time>
      </trkpt>
      <trkpt lat="45.94953" lon="4.897">
        <ele>284</ele>
        <time>2017-04-29T10:44:09Z</time>
      </trkpt>
      <trkpt lat="45.94955" lon="4.89692">
        <ele>284</ele>
        <time>2017-04-29T10:44:10Z</time>
      </trkpt>
      <trkpt lat="45.94957" lon="4.89684">
        <ele>284</ele>
        <time>2017-04-29T10:44:11Z</time>
      </trkpt>
      <trkpt lat="45.9496" lon="4.89676">
        <ele>284</ele>
        <time>2017-04-29T10:44:12Z</time>
      </trkpt>
      <trkpt lat="45.94962" lon="4.89668">
        <ele>284</ele>
        <time>2017-04-29T10:44:13Z</time>
      </trkpt>
      <trkpt lat="45.94963" lon="4.89661">
        <ele>285</ele>
        <time>2017-04-29T10:44:14Z</time>
      </trkpt>
      <trkpt lat="45.94965" lon="4.89653">
        <ele>285</ele>
        <time>2017-04-29T10:44:15Z</time>
      </trkpt>
      <trkpt lat="45.94967" lon="4.89646">
        <ele>285</ele>
        <time>2017-04-29T10:44:16Z</time>
      </trkpt>
      <trkpt lat="45.94968" lon="4.89639">
        <ele>285</ele>
        <time>2017-04-29T10:44:17Z</time>
      </trkpt>
      <trkpt lat="45.9497" lon="4.89633">
        <ele>285</ele>
        <time>2017-04-29T10:44:18Z</time>
      </trkpt>
      <trkpt lat="45.94972" lon="4.89626">
        <ele>285</ele>
        <time>2017-04-29T10:44:19Z</time>
      </trkpt>
      <trkpt lat="45.94974" lon="4.89619">
        <ele>285</ele>
        <time>2017-04-29T10:44:20Z</time>
      </trkpt>
      <trkpt lat="45.94976" lon="4.89613">
        <ele>285</ele>
        <time>2017-04-29T10:44:21Z</time>
      </trkpt>
      <trkpt lat="45.94978" lon="4.89606">
        <ele>285</ele>
        <time>2017-04-29T10:44:22Z</time>
      </trkpt>
      <trkpt lat="45.94981" lon="4.89598">
        <ele>285</ele>
        <time>2017-04-29T10:44:23Z</time>
      </trkpt>
      <trkpt lat="45.94983" lon="4.89591">
        <ele>284</ele>
        <time>2017-04-29T10:44:24Z</time>
      </trkpt>
      <trkpt lat="45.94985" lon="4.89583">
        <ele>284</ele>
        <time>2017-04-29T10:44:25Z</time>
      </trkpt>
      <trkpt lat="45.94987" lon="4.89575">
        <ele>284</ele>
        <time>2017-04-29T10:44:26Z</time>
      </trkpt>
      <trkpt lat="45.9499" lon="4.89567">
        <ele>284</ele>
        <time>2017-04-29T10:44:27Z</time>
      </trkpt>
      <trkpt lat="45.94992" lon="4.89558">
        <ele>285</ele>
        <time>2017-04-29T10:44:28Z</time>
      </trkpt>
      <trkpt lat="45.94995" lon="4.89551">
        <ele>285</ele>
        <time>2017-04-29T10:44:29Z</time>
      </trkpt>
      <trkpt lat="45.94998" lon="4.89543">
        <ele>284</ele>
        <time>2017-04-29T10:44:30Z</time>
      </trkpt>
      <trkpt lat="45.95001" lon="4.89536">
        <ele>283</ele>
        <time>2017-04-29T10:44:31Z</time>
      </trkpt>
      <trkpt lat="45.95005" lon="4.8953">
        <ele>283</ele>
        <time>2017-04-29T10:44:32Z</time>
      </trkpt>
      <trkpt lat="45.9501" lon="4.89524">
        <ele>283</ele>
        <time>2017-04-29T10:44:33Z</time>
      </trkpt>
      <trkpt lat="45.95015" lon="4.8952">
        <ele>283</ele>
        <time>2017-04-29T10:44:34Z</time>
      </trkpt>
      <trkpt lat="45.9502" lon="4.89518">
        <ele>283</ele>
        <time>2017-04-29T10:44:35Z</time>
      </trkpt>
      <trkpt lat="45.95026" lon="4.89515">
        <ele>283</ele>
        <time>2017-04-29T10:44:36Z</time>
      </trkpt>
      <trkpt lat="45.95032" lon="4.89514">
        <ele>283</ele>
        <time>2017-04-29T10:44:37Z</time>
      </trkpt>
      <trkpt lat="45.95038" lon="4.89513">
        <ele>283</ele>
        <time>2017-04-29T10:44:38Z</time>
      </trkpt>
      <trkpt lat="45.95043" lon="4.89512">
        <ele>283</ele>
        <time>2017-04-29T10:44:39Z</time>
      </trkpt>
      <trkpt lat="45.95049" lon="4.89511">
        <ele>283</ele>
        <time>2017-04-29T10:44:40Z</time>
      </trkpt>
      <trkpt lat="45.95054" lon="4.89509">
        <ele>283</ele>
        <time>2017-04-29T10:44:41Z</time>
      </trkpt>
      <trkpt lat="45.9506" lon="4.89507">
        <ele>282</ele>
        <time>2017-04-29T10:44:42Z</time>
      </trkpt>
      <trkpt lat="45.95065" lon="4.89506">
        <ele>282</ele>
        <time>2017-04-29T10:44:43Z</time>
      </trkpt>
      <trkpt lat="45.9507" lon="4.89503">
        <ele>282</ele>
        <time>2017-04-29T10:44:44Z</time>
      </trkpt>
      <trkpt lat="45.95075" lon="4.89501">
        <ele>282</ele>
        <time>2017-04-29T10:44:45Z</time>
      </trkpt>
      <trkpt lat="45.9508" lon="4.89496">
        <ele>282</ele>
        <time>2017-04-29T10:44:46Z</time>
      </trkpt>
      <trkpt lat="45.95083" lon="4.8949">
        <ele>282</ele>
        <time>2017-04-29T10:44:47Z</time>
      </trkpt>
      <trkpt lat="45.95084" lon="4.89483">
        <ele>282</ele>
        <time>2017-04-29T10:44:48Z</time>
      </trkpt>
      <trkpt lat="45.95084" lon="4.89475">
        <ele>282</ele>
        <time>2017-04-29T10:44:49Z</time>
      </trkpt>
      <trkpt lat="45.95082" lon="4.89467">
        <ele>282</ele>
        <time>2017-04-29T10:44:50Z</time>
      </trkpt>
      <trkpt lat="45.95081" lon="4.89459">
        <ele>282</ele>
        <time>2017-04-29T10:44:51Z</time>
      </trkpt>
      <trkpt lat="45.95079" lon="4.8945">
        <ele>282</ele>
        <time>2017-04-29T10:44:52Z</time>
      </trkpt>
      <trkpt lat="45.95077" lon="4.89442">
        <ele>282</ele>
        <time>2017-04-29T10:44:53Z</time>
      </trkpt>
      <trkpt lat="45.95076" lon="4.89433">
        <ele>282</ele>
        <time>2017-04-29T10:44:54Z</time>
      </trkpt>
      <trkpt lat="45.95074" lon="4.89424">
        <ele>282</ele>
        <time>2017-04-29T10:44:55Z</time>
      </trkpt>
      <trkpt lat="45.95073" lon="4.89415">
        <ele>282</ele>
        <time>2017-04-29T10:44:56Z</time>
      </trkpt>
      <trkpt lat="45.95072" lon="4.89407">
        <ele>283</ele>
        <time>2017-04-29T10:44:57Z</time>
      </trkpt>
      <trkpt lat="45.95071" lon="4.89398">
        <ele>283</ele>
        <time>2017-04-29T10:44:58Z</time>
      </trkpt>
      <trkpt lat="45.95071" lon="4.8939">
        <ele>283</ele>
        <time>2017-04-29T10:44:59Z</time>
      </trkpt>
      <trkpt lat="45.95071" lon="4.89382">
        <ele>283</ele>
        <time>2017-04-29T10:45:00Z</time>
      </trkpt>
      <trkpt lat="45.9507" lon="4.89373">
        <ele>283</ele>
        <time>2017-04-29T10:45:01Z</time>
      </trkpt>
      <trkpt lat="45.9507" lon="4.89365">
        <ele>283</ele>
        <time>2017-04-29T10:45:02Z</time>
      </trkpt>
      <trkpt lat="45.9507" lon="4.89357">
        <ele>283</ele>
        <time>2017-04-29T10:45:03Z</time>
      </trkpt>
      <trkpt lat="45.9507" lon="4.89348">
        <ele>283</ele>
        <time>2017-04-29T10:45:04Z</time>
      </trkpt>
      <trkpt lat="45.9507" lon="4.8934">
        <ele>283</ele>
        <time>2017-04-29T10:45:05Z</time>
      </trkpt>
      <trkpt lat="45.9507" lon="4.89332">
        <ele>283</ele>
        <time>2017-04-29T10:45:06Z</time>
      </trkpt>
      <trkpt lat="45.95071" lon="4.89323">
        <ele>283</ele>
        <time>2017-04-29T10:45:07Z</time>
      </trkpt>
      <trkpt lat="45.95071" lon="4.89315">
        <ele>283</ele>
        <time>2017-04-29T10:45:08Z</time>
      </trkpt>
      <trkpt lat="45.95071" lon="4.89306">
        <ele>283</ele>
        <time>2017-04-29T10:45:09Z</time>
      </trkpt>
      <trkpt lat="45.95071" lon="4.89298">
        <ele>283</ele>
        <time>2017-04-29T10:45:10Z</time>
      </trkpt>
      <trkpt lat="45.95072" lon="4.89289">
        <ele>283</ele>
        <time>2017-04-29T10:45:11Z</time>
      </trkpt>
      <trkpt lat="45.95072" lon="4.89281">
        <ele>283</ele>
        <time>2017-04-29T10:45:12Z</time>
      </trkpt>
      <trkpt lat="45.95072" lon="4.89272">
        <ele>283</ele>
        <time>2017-04-29T10:45:13Z</time>
      </trkpt>
      <trkpt lat="45.95072" lon="4.89263">
        <ele>283</ele>
        <time>2017-04-29T10:45:14Z</time>
      </trkpt>
      <trkpt lat="45.95072" lon="4.89254">
        <ele>283</ele>
        <time>2017-04-29T10:45:15Z</time>
      </trkpt>
      <trkpt lat="45.95073" lon="4.89245">
        <ele>283</ele>
        <time>2017-04-29T10:45:16Z</time>
      </trkpt>
      <trkpt lat="45.95073" lon="4.89236">
        <ele>284</ele>
        <time>2017-04-29T10:45:17Z</time>
      </trkpt>
      <trkpt lat="45.95074" lon="4.89227">
        <ele>284</ele>
        <time>2017-04-29T10:45:18Z</time>
      </trkpt>
      <trkpt lat="45.95074" lon="4.89218">
        <ele>284</ele>
        <time>2017-04-29T10:45:19Z</time>
      </trkpt>
      <trkpt lat="45.95074" lon="4.89209">
        <ele>284</ele>
        <time>2017-04-29T10:45:20Z</time>
      </trkpt>
      <trkpt lat="45.95075" lon="4.892">
        <ele>284</ele>
        <time>2017-04-29T10:45:21Z</time>
      </trkpt>
      <trkpt lat="45.95075" lon="4.89191">
        <ele>284</ele>
        <time>2017-04-29T10:45:22Z</time>
      </trkpt>
      <trkpt lat="45.95076" lon="4.89182">
        <ele>284</ele>
        <time>2017-04-29T10:45:23Z</time>
      </trkpt>
      <trkpt lat="45.95077" lon="4.89173">
        <ele>284</ele>
        <time>2017-04-29T10:45:24Z</time>
      </trkpt>
      <trkpt lat="45.95078" lon="4.89164">
        <ele>284</ele>
        <time>2017-04-29T10:45:25Z</time>
      </trkpt>
      <trkpt lat="45.95078" lon="4.89154">
        <ele>284</ele>
        <time>2017-04-29T10:45:26Z</time>
      </trkpt>
      <trkpt lat="45.95079" lon="4.89146">
        <ele>285</ele>
        <time>2017-04-29T10:45:27Z</time>
      </trkpt>
      <trkpt lat="45.95079" lon="4.89137">
        <ele>285</ele>
        <time>2017-04-29T10:45:28Z</time>
      </trkpt>
      <trkpt lat="45.9508" lon="4.89129">
        <ele>285</ele>
        <time>2017-04-29T10:45:29Z</time>
      </trkpt>
      <trkpt lat="45.95081" lon="4.89121">
        <ele>285</ele>
        <time>2017-04-29T10:45:30Z</time>
      </trkpt>
      <trkpt lat="45.95082" lon="4.89113">
        <ele>285</ele>
        <time>2017-04-29T10:45:31Z</time>
      </trkpt>
      <trkpt lat="45.95083" lon="4.89104">
        <ele>285</ele>
        <time>2017-04-29T10:45:32Z</time>
      </trkpt>
      <trkpt lat="45.95083" lon="4.89096">
        <ele>284</ele>
        <time>2017-04-29T10:45:33Z</time>
      </trkpt>
      <trkpt lat="45.95084" lon="4.89087">
        <ele>284</ele>
        <time>2017-04-29T10:45:34Z</time>
      </trkpt>
      <trkpt lat="45.95084" lon="4.89078">
        <ele>284</ele>
        <time>2017-04-29T10:45:35Z</time>
      </trkpt>
      <trkpt lat="45.95085" lon="4.89069">
        <ele>284</ele>
        <time>2017-04-29T10:45:36Z</time>
      </trkpt>
      <trkpt lat="45.95086" lon="4.8906">
        <ele>284</ele>
        <time>2017-04-29T10:45:37Z</time>
      </trkpt>
      <trkpt lat="45.95087" lon="4.89052">
        <ele>284</ele>
        <time>2017-04-29T10:45:38Z</time>
      </trkpt>
      <trkpt lat="45.95088" lon="4.89044">
        <ele>284</ele>
        <time>2017-04-29T10:45:39Z</time>
      </trkpt>
      <trkpt lat="45.95089" lon="4.89036">
        <ele>284</ele>
        <time>2017-04-29T10:45:40Z</time>
      </trkpt>
      <trkpt lat="45.9509" lon="4.89029">
        <ele>284</ele>
        <time>2017-04-29T10:45:41Z</time>
      </trkpt>
      <trkpt lat="45.95091" lon="4.89021">
        <ele>284</ele>
        <time>2017-04-29T10:45:42Z</time>
      </trkpt>
      <trkpt lat="45.95091" lon="4.89014">
        <ele>284</ele>
        <time>2017-04-29T10:45:43Z</time>
      </trkpt>
      <trkpt lat="45.95092" lon="4.89007">
        <ele>284</ele>
        <time>2017-04-29T10:45:44Z</time>
      </trkpt>
      <trkpt lat="45.95092" lon="4.88999">
        <ele>285</ele>
        <time>2017-04-29T10:45:45Z</time>
      </trkpt>
      <trkpt lat="45.95093" lon="4.88992">
        <ele>285</ele>
        <time>2017-04-29T10:45:46Z</time>
      </trkpt>
      <trkpt lat="45.95093" lon="4.88984">
        <ele>285</ele>
        <time>2017-04-29T10:45:47Z</time>
      </trkpt>
      <trkpt lat="45.95094" lon="4.88976">
        <ele>284</ele>
        <time>2017-04-29T10:45:48Z</time>
      </trkpt>
      <trkpt lat="45.95094" lon="4.88968">
        <ele>284</ele>
        <time>2017-04-29T10:45:49Z</time>
      </trkpt>
      <trkpt lat="45.95094" lon="4.8896">
        <ele>284</ele>
        <time>2017-04-29T10:45:50Z</time>
      </trkpt>
      <trkpt lat="45.95094" lon="4.88952">
        <ele>285</ele>
        <time>2017-04-29T10:45:51Z</time>
      </trkpt>
      <trkpt lat="45.95096" lon="4.88944">
        <ele>285</ele>
        <time>2017-04-29T10:45:52Z</time>
      </trkpt>
      <trkpt lat="45.95097" lon="4.88936">
        <ele>285</ele>
        <time>2017-04-29T10:45:53Z</time>
      </trkpt>
      <trkpt lat="45.95098" lon="4.88927">
        <ele>285</ele>
        <time>2017-04-29T10:45:54Z</time>
      </trkpt>
      <trkpt lat="45.95098" lon="4.88919">
        <ele>285</ele>
        <time>2017-04-29T10:45:55Z</time>
      </trkpt>
      <trkpt lat="45.95098" lon="4.8891">
        <ele>285</ele>
        <time>2017-04-29T10:45:56Z</time>
      </trkpt>
      <trkpt lat="45.95099" lon="4.88901">
        <ele>285</ele>
        <time>2017-04-29T10:45:57Z</time>
      </trkpt>
      <trkpt lat="45.95099" lon="4.88893">
        <ele>285</ele>
        <time>2017-04-29T10:45:58Z</time>
      </trkpt>
      <trkpt lat="45.951" lon="4.88885">
        <ele>285</ele>
        <time>2017-04-29T10:45:59Z</time>
      </trkpt>
      <trkpt lat="45.95101" lon="4.88877">
        <ele>285</ele>
        <time>2017-04-29T10:46:00Z</time>
      </trkpt>
      <trkpt lat="45.95101" lon="4.88869">
        <ele>285</ele>
        <time>2017-04-29T10:46:01Z</time>
      </trkpt>
      <trkpt lat="45.95102" lon="4.88862">
        <ele>285</ele>
        <time>2017-04-29T10:46:02Z</time>
      </trkpt>
      <trkpt lat="45.95102" lon="4.88854">
        <ele>285</ele>
        <time>2017-04-29T10:46:03Z</time>
      </trkpt>
      <trkpt lat="45.95102" lon="4.88847">
        <ele>285</ele>
        <time>2017-04-29T10:46:04Z</time>
      </trkpt>
      <trkpt lat="45.95103" lon="4.88839">
        <ele>286</ele>
        <time>2017-04-29T10:46:05Z</time>
      </trkpt>
      <trkpt lat="45.95103" lon="4.88832">
        <ele>286</ele>
        <time>2017-04-29T10:46:06Z</time>
      </trkpt>
      <trkpt lat="45.95103" lon="4.88824">
        <ele>286</ele>
        <time>2017-04-29T10:46:07Z</time>
      </trkpt>
      <trkpt lat="45.95104" lon="4.88816">
        <ele>286</ele>
        <time>2017-04-29T10:46:08Z</time>
      </trkpt>
      <trkpt lat="45.95105" lon="4.88808">
        <ele>286</ele>
        <time>2017-04-29T10:46:09Z</time>
      </trkpt>
      <trkpt lat="45.95106" lon="4.88801">
        <ele>286</ele>
        <time>2017-04-29T10:46:10Z</time>
      </trkpt>
      <trkpt lat="45.95106" lon="4.88794">
        <ele>286</ele>
        <time>2017-04-29T10:46:11Z</time>
      </trkpt>
      <trkpt lat="45.95107" lon="4.88786">
        <ele>287</ele>
        <time>2017-04-29T10:46:12Z</time>
      </trkpt>
      <trkpt lat="45.95107" lon="4.88778">
        <ele>287</ele>
        <time>2017-04-29T10:46:13Z</time>
      </trkpt>
      <trkpt lat="45.95108" lon="4.88771">
        <ele>287</ele>
        <time>2017-04-29T10:46:14Z</time>
      </trkpt>
      <trkpt lat="45.95108" lon="4.88763">
        <ele>287</ele>
        <time>2017-04-29T10:46:15Z</time>
      </trkpt>
      <trkpt lat="45.95107" lon="4.88756">
        <ele>287</ele>
        <time>2017-04-29T10:46:16Z</time>
      </trkpt>
      <trkpt lat="45.95107" lon="4.88749">
        <ele>288</ele>
        <time>2017-04-29T10:46:17Z</time>
      </trkpt>
      <trkpt lat="45.95107" lon="4.88742">
        <ele>288</ele>
        <time>2017-04-29T10:46:18Z</time>
      </trkpt>
      <trkpt lat="45.95107" lon="4.88735">
        <ele>288</ele>
        <time>2017-04-29T10:46:19Z</time>
      </trkpt>
      <trkpt lat="45.95106" lon="4.88728">
        <ele>288</ele>
        <time>2017-04-29T10:46:20Z</time>
      </trkpt>
      <trkpt lat="45.95106" lon="4.88722">
        <ele>289</ele>
        <time>2017-04-29T10:46:21Z</time>
      </trkpt>
      <trkpt lat="45.95105" lon="4.88715">
        <ele>289</ele>
        <time>2017-04-29T10:46:22Z</time>
      </trkpt>
      <trkpt lat="45.95105" lon="4.88708">
        <ele>289</ele>
        <time>2017-04-29T10:46:23Z</time>
      </trkpt>
      <trkpt lat="45.95104" lon="4.88701">
        <ele>289</ele>
        <time>2017-04-29T10:46:24Z</time>
      </trkpt>
      <trkpt lat="45.95105" lon="4.88694">
        <ele>289</ele>
        <time>2017-04-29T10:46:25Z</time>
      </trkpt>
      <trkpt lat="45.95105" lon="4.88687">
        <ele>289</ele>
        <time>2017-04-29T10:46:26Z</time>
      </trkpt>
      <trkpt lat="45.95105" lon="4.88681">
        <ele>289</ele>
        <time>2017-04-29T10:46:27Z</time>
      </trkpt>
      <trkpt lat="45.95105" lon="4.88674">
        <ele>289</ele>
        <time>2017-04-29T10:46:28Z</time>
      </trkpt>
      <trkpt lat="45.95106" lon="4.88668">
        <ele>289</ele>
        <time>2017-04-29T10:46:29Z</time>
      </trkpt>
      <trkpt lat="45.95107" lon="4.88655">
        <ele>290</ele>
        <time>2017-04-29T10:46:31Z</time>
      </trkpt>
      <trkpt lat="45.95107" lon="4.88649">
        <ele>290</ele>
        <time>2017-04-29T10:46:32Z</time>
      </trkpt>
      <trkpt lat="45.95107" lon="4.88637">
        <ele>290</ele>
        <time>2017-04-29T10:46:34Z</time>
      </trkpt>
      <trkpt lat="45.95108" lon="4.88632">
        <ele>290</ele>
        <time>2017-04-29T10:46:35Z</time>
      </trkpt>
      <trkpt lat="45.95109" lon="4.8862">
        <ele>290</ele>
        <time>2017-04-29T10:46:37Z</time>
      </trkpt>
      <trkpt lat="45.9511" lon="4.88615">
        <ele>290</ele>
        <time>2017-04-29T10:46:38Z</time>
      </trkpt>
      <trkpt lat="45.95112" lon="4.88604">
        <ele>290</ele>
        <time>2017-04-29T10:46:40Z</time>
      </trkpt>
      <trkpt lat="45.95113" lon="4.88598">
        <ele>290</ele>
        <time>2017-04-29T10:46:41Z</time>
      </trkpt>
      <trkpt lat="45.95115" lon="4.88586">
        <ele>290</ele>
        <time>2017-04-29T10:46:43Z</time>
      </trkpt>
      <trkpt lat="45.95115" lon="4.88579">
        <ele>291</ele>
        <time>2017-04-29T10:46:44Z</time>
      </trkpt>
      <trkpt lat="45.95115" lon="4.88572">
        <ele>291</ele>
        <time>2017-04-29T10:46:45Z</time>
      </trkpt>
      <trkpt lat="45.95115" lon="4.88564">
        <ele>291</ele>
        <time>2017-04-29T10:46:46Z</time>
      </trkpt>
      <trkpt lat="45.95114" lon="4.88557">
        <ele>291</ele>
        <time>2017-04-29T10:46:47Z</time>
      </trkpt>
      <trkpt lat="45.95114" lon="4.8855">
        <ele>291</ele>
        <time>2017-04-29T10:46:48Z</time>
      </trkpt>
      <trkpt lat="45.95112" lon="4.88538">
        <ele>291</ele>
        <time>2017-04-29T10:46:50Z</time>
      </trkpt>
      <trkpt lat="45.9511" lon="4.88533">
        <ele>291</ele>
        <time>2017-04-29T10:46:51Z</time>
      </trkpt>
      <trkpt lat="45.95107" lon="4.88523">
        <ele>291</ele>
        <time>2017-04-29T10:46:53Z</time>
      </trkpt>
      <trkpt lat="45.95106" lon="4.88517">
        <ele>291</ele>
        <time>2017-04-29T10:46:54Z</time>
      </trkpt>
      <trkpt lat="45.95104" lon="4.88504">
        <ele>290</ele>
        <time>2017-04-29T10:46:56Z</time>
      </trkpt>
      <trkpt lat="45.95103" lon="4.88498">
        <ele>291</ele>
        <time>2017-04-29T10:46:57Z</time>
      </trkpt>
      <trkpt lat="45.951" lon="4.88486">
        <ele>291</ele>
        <time>2017-04-29T10:46:59Z</time>
      </trkpt>
      <trkpt lat="45.95099" lon="4.8848">
        <ele>291</ele>
        <time>2017-04-29T10:47:00Z</time>
      </trkpt>
      <trkpt lat="45.95097" lon="4.88474">
        <ele>291</ele>
        <time>2017-04-29T10:47:01Z</time>
      </trkpt>
      <trkpt lat="45.95096" lon="4.88468">
        <ele>291</ele>
        <time>2017-04-29T10:47:02Z</time>
      </trkpt>
      <trkpt lat="45.95096" lon="4.88461">
        <ele>291</ele>
        <time>2017-04-29T10:47:03Z</time>
      </trkpt>
      <trkpt lat="45.95096" lon="4.88454">
        <ele>291</ele>
        <time>2017-04-29T10:47:04Z</time>
      </trkpt>
      <trkpt lat="45.95097" lon="4.88448">
        <ele>291</ele>
        <time>2017-04-29T10:47:05Z</time>
      </trkpt>
      <trkpt lat="45.95097" lon="4.88441">
        <ele>291</ele>
        <time>2017-04-29T10:47:06Z</time>
      </trkpt>
      <trkpt lat="45.95098" lon="4.88434">
        <ele>291</ele>
        <time>2017-04-29T10:47:07Z</time>
      </trkpt>
      <trkpt lat="45.95099" lon="4.88427">
        <ele>291</ele>
        <time>2017-04-29T10:47:08Z</time>
      </trkpt>
      <trkpt lat="45.951" lon="4.88415">
        <ele>290</ele>
        <time>2017-04-29T10:47:10Z</time>
      </trkpt>
      <trkpt lat="45.951" lon="4.88409">
        <ele>290</ele>
        <time>2017-04-29T10:47:11Z</time>
      </trkpt>
      <trkpt lat="45.95101" lon="4.88402">
        <ele>290</ele>
        <time>2017-04-29T10:47:12Z</time>
      </trkpt>
      <trkpt lat="45.95102" lon="4.88395">
        <ele>290</ele>
        <time>2017-04-29T10:47:13Z</time>
      </trkpt>
      <trkpt lat="45.95104" lon="4.88388">
        <ele>290</ele>
        <time>2017-04-29T10:47:14Z</time>
      </trkpt>
      <trkpt lat="45.95105" lon="4.88381">
        <ele>290</ele>
        <time>2017-04-29T10:47:15Z</time>
      </trkpt>
      <trkpt lat="45.95106" lon="4.88375">
        <ele>290</ele>
        <time>2017-04-29T10:47:16Z</time>
      </trkpt>
      <trkpt lat="45.95106" lon="4.88368">
        <ele>290</ele>
        <time>2017-04-29T10:47:17Z</time>
      </trkpt>
      <trkpt lat="45.95108" lon="4.8836">
        <ele>290</ele>
        <time>2017-04-29T10:47:18Z</time>
      </trkpt>
      <trkpt lat="45.95109" lon="4.88353">
        <ele>290</ele>
        <time>2017-04-29T10:47:19Z</time>
      </trkpt>
      <trkpt lat="45.95111" lon="4.88346">
        <ele>290</ele>
        <time>2017-04-29T10:47:20Z</time>
      </trkpt>
      <trkpt lat="45.95112" lon="4.88338">
        <ele>290</ele>
        <time>2017-04-29T10:47:21Z</time>
      </trkpt>
      <trkpt lat="45.95114" lon="4.8833">
        <ele>289</ele>
        <time>2017-04-29T10:47:22Z</time>
      </trkpt>
      <trkpt lat="45.95115" lon="4.88322">
        <ele>289</ele>
        <time>2017-04-29T10:47:23Z</time>
      </trkpt>
      <trkpt lat="45.95117" lon="4.88314">
        <ele>289</ele>
        <time>2017-04-29T10:47:24Z</time>
      </trkpt>
      <trkpt lat="45.9512" lon="4.88305">
        <ele>289</ele>
        <time>2017-04-29T10:47:25Z</time>
      </trkpt>
      <trkpt lat="45.95121" lon="4.88296">
        <ele>289</ele>
        <time>2017-04-29T10:47:26Z</time>
      </trkpt>
      <trkpt lat="45.95122" lon="4.88287">
        <ele>289</ele>
        <time>2017-04-29T10:47:27Z</time>
      </trkpt>
      <trkpt lat="45.95123" lon="4.88279">
        <ele>289</ele>
        <time>2017-04-29T10:47:28Z</time>
      </trkpt>
      <trkpt lat="45.95124" lon="4.88271">
        <ele>289</ele>
        <time>2017-04-29T10:47:29Z</time>
      </trkpt>
      <trkpt lat="45.95124" lon="4.88263">
        <ele>289</ele>
        <time>2017-04-29T10:47:30Z</time>
      </trkpt>
      <trkpt lat="45.95124" lon="4.88256">
        <ele>289</ele>
        <time>2017-04-29T10:47:31Z</time>
      </trkpt>
      <trkpt lat="45.95124" lon="4.88249">
        <ele>287</ele>
        <time>2017-04-29T10:47:32Z</time>
      </trkpt>
      <trkpt lat="45.95124" lon="4.88242">
        <ele>287</ele>
        <time>2017-04-29T10:47:33Z</time>
      </trkpt>
      <trkpt lat="45.95124" lon="4.88235">
        <ele>287</ele>
        <time>2017-04-29T10:47:34Z</time>
      </trkpt>
      <trkpt lat="45.95125" lon="4.88228">
        <ele>287</ele>
        <time>2017-04-29T10:47:35Z</time>
      </trkpt>
      <trkpt lat="45.95125" lon="4.8822">
        <ele>287</ele>
        <time>2017-04-29T10:47:36Z</time>
      </trkpt>
      <trkpt lat="45.95126" lon="4.88212">
        <ele>287</ele>
        <time>2017-04-29T10:47:37Z</time>
      </trkpt>
      <trkpt lat="45.95129" lon="4.88205">
        <ele>287</ele>
        <time>2017-04-29T10:47:38Z</time>
      </trkpt>
      <trkpt lat="45.95132" lon="4.88198">
        <ele>287</ele>
        <time>2017-04-29T10:47:39Z</time>
      </trkpt>
      <trkpt lat="45.95137" lon="4.88192">
        <ele>286</ele>
        <time>2017-04-29T10:47:40Z</time>
      </trkpt>
      <trkpt lat="45.95142" lon="4.88188">
        <ele>286</ele>
        <time>2017-04-29T10:47:41Z</time>
      </trkpt>
      <trkpt lat="45.95148" lon="4.88185">
        <ele>286</ele>
        <time>2017-04-29T10:47:42Z</time>
      </trkpt>
      <trkpt lat="45.95153" lon="4.88183">
        <ele>286</ele>
        <time>2017-04-29T10:47:43Z</time>
      </trkpt>
      <trkpt lat="45.95158" lon="4.8818">
        <ele>286</ele>
        <time>2017-04-29T10:47:44Z</time>
      </trkpt>
      <trkpt lat="45.95163" lon="4.88177">
        <ele>286</ele>
        <time>2017-04-29T10:47:45Z</time>
      </trkpt>
      <trkpt lat="45.95166" lon="4.88171">
        <ele>285</ele>
        <time>2017-04-29T10:47:46Z</time>
      </trkpt>
      <trkpt lat="45.95168" lon="4.88163">
        <ele>285</ele>
        <time>2017-04-29T10:47:47Z</time>
      </trkpt>
      <trkpt lat="45.95169" lon="4.88155">
        <ele>284</ele>
        <time>2017-04-29T10:47:48Z</time>
      </trkpt>
      <trkpt lat="45.95171" lon="4.88147">
        <ele>283</ele>
        <time>2017-04-29T10:47:49Z</time>
      </trkpt>
      <trkpt lat="45.95172" lon="4.88139">
        <ele>283</ele>
        <time>2017-04-29T10:47:50Z</time>
      </trkpt>
      <trkpt lat="45.95174" lon="4.88131">
        <ele>283</ele>
        <time>2017-04-29T10:47:51Z</time>
      </trkpt>
      <trkpt lat="45.95175" lon="4.88123">
        <ele>282</ele>
        <time>2017-04-29T10:47:52Z</time>
      </trkpt>
      <trkpt lat="45.95177" lon="4.88115">
        <ele>282</ele>
        <time>2017-04-29T10:47:53Z</time>
      </trkpt>
      <trkpt lat="45.95178" lon="4.88107">
        <ele>282</ele>
        <time>2017-04-29T10:47:54Z</time>
      </trkpt>
      <trkpt lat="45.9518" lon="4.88099">
        <ele>282</ele>
        <time>2017-04-29T10:47:55Z</time>
      </trkpt>
      <trkpt lat="45.95182" lon="4.88091">
        <ele>282</ele>
        <time>2017-04-29T10:47:56Z</time>
      </trkpt>
      <trkpt lat="45.95184" lon="4.88083">
        <ele>281</ele>
        <time>2017-04-29T10:47:57Z</time>
      </trkpt>
      <trkpt lat="45.95186" lon="4.88075">
        <ele>281</ele>
        <time>2017-04-29T10:47:58Z</time>
      </trkpt>
      <trkpt lat="45.95189" lon="4.88067">
        <ele>281</ele>
        <time>2017-04-29T10:47:59Z</time>
      </trkpt>
      <trkpt lat="45.95192" lon="4.88059">
        <ele>281</ele>
        <time>2017-04-29T10:48:00Z</time>
      </trkpt>
      <trkpt lat="45.95195" lon="4.88051">
        <ele>281</ele>
        <time>2017-04-29T10:48:01Z</time>
      </trkpt>
      <trkpt lat="45.95199" lon="4.88043">
        <ele>281</ele>
        <time>2017-04-29T10:48:02Z</time>
      </trkpt>
      <trkpt lat="45.95203" lon="4.88035">
        <ele>281</ele>
        <time>2017-04-29T10:48:03Z</time>
      </trkpt>
      <trkpt lat="45.95207" lon="4.88028">
        <ele>281</ele>
        <time>2017-04-29T10:48:04Z</time>
      </trkpt>
      <trkpt lat="45.95212" lon="4.88021">
        <ele>281</ele>
        <time>2017-04-29T10:48:05Z</time>
      </trkpt>
      <trkpt lat="45.95217" lon="4.88014">
        <ele>281</ele>
        <time>2017-04-29T10:48:06Z</time>
      </trkpt>
      <trkpt lat="45.95223" lon="4.88007">
        <ele>281</ele>
        <time>2017-04-29T10:48:07Z</time>
      </trkpt>
      <trkpt lat="45.95228" lon="4.88001">
        <ele>280</ele>
        <time>2017-04-29T10:48:08Z</time>
      </trkpt>
      <trkpt lat="45.95232" lon="4.87995">
        <ele>281</ele>
        <time>2017-04-29T10:48:09Z</time>
      </trkpt>
      <trkpt lat="45.95236" lon="4.8799">
        <ele>281</ele>
        <time>2017-04-29T10:48:10Z</time>
      </trkpt>
      <trkpt lat="45.9524" lon="4.87984">
        <ele>281</ele>
        <time>2017-04-29T10:48:11Z</time>
      </trkpt>
      <trkpt lat="45.95244" lon="4.87978">
        <ele>282</ele>
        <time>2017-04-29T10:48:12Z</time>
      </trkpt>
      <trkpt lat="45.95248" lon="4.87973">
        <ele>282</ele>
        <time>2017-04-29T10:48:13Z</time>
      </trkpt>
      <trkpt lat="45.95251" lon="4.87967">
        <ele>280</ele>
        <time>2017-04-29T10:48:14Z</time>
      </trkpt>
      <trkpt lat="45.95254" lon="4.87961">
        <ele>280</ele>
        <time>2017-04-29T10:48:15Z</time>
      </trkpt>
      <trkpt lat="45.95257" lon="4.87954">
        <ele>280</ele>
        <time>2017-04-29T10:48:16Z</time>
      </trkpt>
      <trkpt lat="45.9526" lon="4.87946">
        <ele>280</ele>
        <time>2017-04-29T10:48:17Z</time>
      </trkpt>
      <trkpt lat="45.95262" lon="4.87938">
        <ele>280</ele>
        <time>2017-04-29T10:48:18Z</time>
      </trkpt>
      <trkpt lat="45.95263" lon="4.87929">
        <ele>281</ele>
        <time>2017-04-29T10:48:19Z</time>
      </trkpt>
      <trkpt lat="45.95263" lon="4.8792">
        <ele>281</ele>
        <time>2017-04-29T10:48:20Z</time>
      </trkpt>
      <trkpt lat="45.95262" lon="4.87911">
        <ele>281</ele>
        <time>2017-04-29T10:48:21Z</time>
      </trkpt>
      <trkpt lat="45.95261" lon="4.87902">
        <ele>281</ele>
        <time>2017-04-29T10:48:22Z</time>
      </trkpt>
      <trkpt lat="45.9526" lon="4.87893">
        <ele>281</ele>
        <time>2017-04-29T10:48:23Z</time>
      </trkpt>
      <trkpt lat="45.95258" lon="4.87885">
        <ele>281</ele>
        <time>2017-04-29T10:48:24Z</time>
      </trkpt>
      <trkpt lat="45.95256" lon="4.87876">
        <ele>281</ele>
        <time>2017-04-29T10:48:25Z</time>
      </trkpt>
      <trkpt lat="45.95254" lon="4.87868">
        <ele>281</ele>
        <time>2017-04-29T10:48:26Z</time>
      </trkpt>
      <trkpt lat="45.95252" lon="4.8786">
        <ele>281</ele>
        <time>2017-04-29T10:48:27Z</time>
      </trkpt>
      <trkpt lat="45.9525" lon="4.87853">
        <ele>281</ele>
        <time>2017-04-29T10:48:28Z</time>
      </trkpt>
      <trkpt lat="45.95249" lon="4.87845">
        <ele>283</ele>
        <time>2017-04-29T10:48:29Z</time>
      </trkpt>
      <trkpt lat="45.95248" lon="4.87837">
        <ele>282</ele>
        <time>2017-04-29T10:48:30Z</time>
      </trkpt>
      <trkpt lat="45.95246" lon="4.87828">
        <ele>282</ele>
        <time>2017-04-29T10:48:31Z</time>
      </trkpt>
      <trkpt lat="45.95245" lon="4.87819">
        <ele>282</ele>
        <time>2017-04-29T10:48:32Z</time>
      </trkpt>
      <trkpt lat="45.95244" lon="4.87809">
        <ele>282</ele>
        <time>2017-04-29T10:48:33Z</time>
      </trkpt>
      <trkpt lat="45.95243" lon="4.878">
        <ele>282</ele>
        <time>2017-04-29T10:48:34Z</time>
      </trkpt>
      <trkpt lat="45.95241" lon="4.87791">
        <ele>282</ele>
        <time>2017-04-29T10:48:35Z</time>
      </trkpt>
      <trkpt lat="45.9524" lon="4.87781">
        <ele>282</ele>
        <time>2017-04-29T10:48:36Z</time>
      </trkpt>
      <trkpt lat="45.95238" lon="4.87771">
        <ele>282</ele>
        <time>2017-04-29T10:48:37Z</time>
      </trkpt>
      <trkpt lat="45.95236" lon="4.87762">
        <ele>281</ele>
        <time>2017-04-29T10:48:38Z</time>
      </trkpt>
      <trkpt lat="45.95235" lon="4.87753">
        <ele>281</ele>
        <time>2017-04-29T10:48:39Z</time>
      </trkpt>
      <trkpt lat="45.95234" lon="4.87744">
        <ele>280</ele>
        <time>2017-04-29T10:48:40Z</time>
      </trkpt>
      <trkpt lat="45.95232" lon="4.87735">
        <ele>280</ele>
        <time>2017-04-29T10:48:41Z</time>
      </trkpt>
      <trkpt lat="45.9523" lon="4.87726">
        <ele>280</ele>
        <time>2017-04-29T10:48:42Z</time>
      </trkpt>
      <trkpt lat="45.95229" lon="4.87717">
        <ele>279</ele>
        <time>2017-04-29T10:48:43Z</time>
      </trkpt>
      <trkpt lat="45.95226" lon="4.87708">
        <ele>279</ele>
        <time>2017-04-29T10:48:44Z</time>
      </trkpt>
      <trkpt lat="45.95225" lon="4.877">
        <ele>279</ele>
        <time>2017-04-29T10:48:45Z</time>
      </trkpt>
      <trkpt lat="45.95223" lon="4.87691">
        <ele>279</ele>
        <time>2017-04-29T10:48:46Z</time>
      </trkpt>
      <trkpt lat="45.95222" lon="4.87681">
        <ele>279</ele>
        <time>2017-04-29T10:48:47Z</time>
      </trkpt>
      <trkpt lat="45.9522" lon="4.87671">
        <ele>278</ele>
        <time>2017-04-29T10:48:48Z</time>
      </trkpt>
      <trkpt lat="45.95219" lon="4.87661">
        <ele>276</ele>
        <time>2017-04-29T10:48:49Z</time>
      </trkpt>
      <trkpt lat="45.95217" lon="4.8765">
        <ele>276</ele>
        <time>2017-04-29T10:48:50Z</time>
      </trkpt>
      <trkpt lat="45.95215" lon="4.87639">
        <ele>276</ele>
        <time>2017-04-29T10:48:51Z</time>
      </trkpt>
      <trkpt lat="45.95214" lon="4.87628">
        <ele>276</ele>
        <time>2017-04-29T10:48:52Z</time>
      </trkpt>
      <trkpt lat="45.95213" lon="4.87616">
        <ele>276</ele>
        <time>2017-04-29T10:48:53Z</time>
      </trkpt>
      <trkpt lat="45.95211" lon="4.87604">
        <ele>276</ele>
        <time>2017-04-29T10:48:54Z</time>
      </trkpt>
      <trkpt lat="45.9521" lon="4.87592">
        <ele>276</ele>
        <time>2017-04-29T10:48:55Z</time>
      </trkpt>
      <trkpt lat="45.9521" lon="4.87579">
        <ele>274</ele>
        <time>2017-04-29T10:48:56Z</time>
      </trkpt>
      <trkpt lat="45.95209" lon="4.87567">
        <ele>274</ele>
        <time>2017-04-29T10:48:57Z</time>
      </trkpt>
      <trkpt lat="45.95207" lon="4.87555">
        <ele>274</ele>
        <time>2017-04-29T10:48:58Z</time>
      </trkpt>
      <trkpt lat="45.95206" lon="4.87542">
        <ele>274</ele>
        <time>2017-04-29T10:48:59Z</time>
      </trkpt>
      <trkpt lat="45.95204" lon="4.87529">
        <ele>274</ele>
        <time>2017-04-29T10:49:00Z</time>
      </trkpt>
      <trkpt lat="45.95202" lon="4.87517">
        <ele>273</ele>
        <time>2017-04-29T10:49:01Z</time>
      </trkpt>
      <trkpt lat="45.952" lon="4.87505">
        <ele>273</ele>
        <time>2017-04-29T10:49:02Z</time>
      </trkpt>
      <trkpt lat="45.95197" lon="4.87494">
        <ele>272</ele>
        <time>2017-04-29T10:49:03Z</time>
      </trkpt>
      <trkpt lat="45.95194" lon="4.87482">
        <ele>272</ele>
        <time>2017-04-29T10:49:04Z</time>
      </trkpt>
      <trkpt lat="45.95191" lon="4.87471">
        <ele>272</ele>
        <time>2017-04-29T10:49:05Z</time>
      </trkpt>
      <trkpt lat="45.95189" lon="4.8746">
        <ele>272</ele>
        <time>2017-04-29T10:49:06Z</time>
      </trkpt>
      <trkpt lat="45.95186" lon="4.8745">
        <ele>272</ele>
        <time>2017-04-29T10:49:07Z</time>
      </trkpt>
      <trkpt lat="45.95184" lon="4.87439">
        <ele>272</ele>
        <time>2017-04-29T10:49:08Z</time>
      </trkpt>
      <trkpt lat="45.95181" lon="4.8743">
        <ele>271</ele>
        <time>2017-04-29T10:49:09Z</time>
      </trkpt>
      <trkpt lat="45.95179" lon="4.8742">
        <ele>271</ele>
        <time>2017-04-29T10:49:10Z</time>
      </trkpt>
      <trkpt lat="45.95177" lon="4.87411">
        <ele>271</ele>
        <time>2017-04-29T10:49:11Z</time>
      </trkpt>
      <trkpt lat="45.95175" lon="4.87403">
        <ele>271</ele>
        <time>2017-04-29T10:49:12Z</time>
      </trkpt>
      <trkpt lat="45.95173" lon="4.87395">
        <ele>271</ele>
        <time>2017-04-29T10:49:13Z</time>
      </trkpt>
      <trkpt lat="45.95171" lon="4.87387">
        <ele>271</ele>
        <time>2017-04-29T10:49:14Z</time>
      </trkpt>
      <trkpt lat="45.95169" lon="4.87379">
        <ele>271</ele>
        <time>2017-04-29T10:49:15Z</time>
      </trkpt>
      <trkpt lat="45.95167" lon="4.87371">
        <ele>271</ele>
        <time>2017-04-29T10:49:16Z</time>
      </trkpt>
      <trkpt lat="45.95165" lon="4.87363">
        <ele>272</ele>
        <time>2017-04-29T10:49:17Z</time>
      </trkpt>
      <trkpt lat="45.95163" lon="4.87355">
        <ele>272</ele>
        <time>2017-04-29T10:49:18Z</time>
      </trkpt>
      <trkpt lat="45.95161" lon="4.87348">
        <ele>272</ele>
        <time>2017-04-29T10:49:19Z</time>
      </trkpt>
      <trkpt lat="45.9516" lon="4.8734">
        <ele>272</ele>
        <time>2017-04-29T10:49:20Z</time>
      </trkpt>
      <trkpt lat="45.95158" lon="4.87332">
        <ele>272</ele>
        <time>2017-04-29T10:49:21Z</time>
      </trkpt>
      <trkpt lat="45.95156" lon="4.87323">
        <ele>273</ele>
        <time>2017-04-29T10:49:22Z</time>
      </trkpt>
      <trkpt lat="45.95153" lon="4.87315">
        <ele>273</ele>
        <time>2017-04-29T10:49:23Z</time>
      </trkpt>
      <trkpt lat="45.95151" lon="4.87306">
        <ele>274</ele>
        <time>2017-04-29T10:49:24Z</time>
      </trkpt>
      <trkpt lat="45.95149" lon="4.87297">
        <ele>274</ele>
        <time>2017-04-29T10:49:25Z</time>
      </trkpt>
      <trkpt lat="45.95148" lon="4.87289">
        <ele>274</ele>
        <time>2017-04-29T10:49:26Z</time>
      </trkpt>
      <trkpt lat="45.95146" lon="4.87281">
        <ele>274</ele>
        <time>2017-04-29T10:49:27Z</time>
      </trkpt>
      <trkpt lat="45.95144" lon="4.87272">
        <ele>274</ele>
        <time>2017-04-29T10:49:28Z</time>
      </trkpt>
      <trkpt lat="45.95142" lon="4.87265">
        <ele>274</ele>
        <time>2017-04-29T10:49:29Z</time>
      </trkpt>
      <trkpt lat="45.9514" lon="4.87257">
        <ele>274</ele>
        <time>2017-04-29T10:49:30Z</time>
      </trkpt>
      <trkpt lat="45.95139" lon="4.8725">
        <ele>275</ele>
        <time>2017-04-29T10:49:31Z</time>
      </trkpt>
      <trkpt lat="45.95137" lon="4.87243">
        <ele>276</ele>
        <time>2017-04-29T10:49:32Z</time>
      </trkpt>
      <trkpt lat="45.95136" lon="4.87235">
        <ele>276</ele>
        <time>2017-04-29T10:49:33Z</time>
      </trkpt>
      <trkpt lat="45.95134" lon="4.87228">
        <ele>276</ele>
        <time>2017-04-29T10:49:34Z</time>
      </trkpt>
      <trkpt lat="45.95132" lon="4.87221">
        <ele>276</ele>
        <time>2017-04-29T10:49:35Z</time>
      </trkpt>
      <trkpt lat="45.95131" lon="4.87214">
        <ele>276</ele>
        <time>2017-04-29T10:49:36Z</time>
      </trkpt>
      <trkpt lat="45.95129" lon="4.87207">
        <ele>276</ele>
        <time>2017-04-29T10:49:37Z</time>
      </trkpt>
      <trkpt lat="45.95128" lon="4.872">
        <ele>276</ele>
        <time>2017-04-29T10:49:38Z</time>
      </trkpt>
      <trkpt lat="45.95126" lon="4.87193">
        <ele>276</ele>
        <time>2017-04-29T10:49:39Z</time>
      </trkpt>
      <trkpt lat="45.95125" lon="4.87186">
        <ele>276</ele>
        <time>2017-04-29T10:49:40Z</time>
      </trkpt>
      <trkpt lat="45.95123" lon="4.87179">
        <ele>276</ele>
        <time>2017-04-29T10:49:41Z</time>
      </trkpt>
      <trkpt lat="45.95121" lon="4.87172">
        <ele>277</ele>
        <time>2017-04-29T10:49:42Z</time>
      </trkpt>
      <trkpt lat="45.9512" lon="4.87165">
        <ele>277</ele>
        <time>2017-04-29T10:49:43Z</time>
      </trkpt>
      <trkpt lat="45.95119" lon="4.87157">
        <ele>277</ele>
        <time>2017-04-29T10:49:44Z</time>
      </trkpt>
      <trkpt lat="45.95117" lon="4.8715">
        <ele>277</ele>
        <time>2017-04-29T10:49:45Z</time>
      </trkpt>
      <trkpt lat="45.95115" lon="4.87143">
        <ele>277</ele>
        <time>2017-04-29T10:49:46Z</time>
      </trkpt>
      <trkpt lat="45.95113" lon="4.87136">
        <ele>277</ele>
        <time>2017-04-29T10:49:47Z</time>
      </trkpt>
      <trkpt lat="45.95111" lon="4.87129">
        <ele>277</ele>
        <time>2017-04-29T10:49:48Z</time>
      </trkpt>
      <trkpt lat="45.9511" lon="4.87121">
        <ele>277</ele>
        <time>2017-04-29T10:49:49Z</time>
      </trkpt>
      <trkpt lat="45.95108" lon="4.87114">
        <ele>277</ele>
        <time>2017-04-29T10:49:50Z</time>
      </trkpt>
      <trkpt lat="45.95106" lon="4.87107">
        <ele>277</ele>
        <time>2017-04-29T10:49:51Z</time>
      </trkpt>
      <trkpt lat="45.95104" lon="4.871">
        <ele>277</ele>
        <time>2017-04-29T10:49:52Z</time>
      </trkpt>
      <trkpt lat="45.95102" lon="4.87094">
        <ele>277</ele>
        <time>2017-04-29T10:49:53Z</time>
      </trkpt>
      <trkpt lat="45.951" lon="4.87088">
        <ele>277</ele>
        <time>2017-04-29T10:49:54Z</time>
      </trkpt>
      <trkpt lat="45.95098" lon="4.87082">
        <ele>277</ele>
        <time>2017-04-29T10:49:55Z</time>
      </trkpt>
      <trkpt lat="45.95093" lon="4.87071">
        <ele>277</ele>
        <time>2017-04-29T10:49:57Z</time>
      </trkpt>
      <trkpt lat="45.95092" lon="4.87065">
        <ele>277</ele>
        <time>2017-04-29T10:49:58Z</time>
      </trkpt>
      <trkpt lat="45.95089" lon="4.87059">
        <ele>277</ele>
        <time>2017-04-29T10:49:59Z</time>
      </trkpt>
      <trkpt lat="45.95087" lon="4.87054">
        <ele>277</ele>
        <time>2017-04-29T10:50:00Z</time>
      </trkpt>
      <trkpt lat="45.95084" lon="4.87048">
        <ele>277</ele>
        <time>2017-04-29T10:50:01Z</time>
      </trkpt>
      <trkpt lat="45.95081" lon="4.87042">
        <ele>277</ele>
        <time>2017-04-29T10:50:02Z</time>
      </trkpt>
      <trkpt lat="45.95078" lon="4.87036">
        <ele>277</ele>
        <time>2017-04-29T10:50:03Z</time>
      </trkpt>
      <trkpt lat="45.95075" lon="4.87029">
        <ele>277</ele>
        <time>2017-04-29T10:50:04Z</time>
      </trkpt>
      <trkpt lat="45.95071" lon="4.87022">
        <ele>277</ele>
        <time>2017-04-29T10:50:05Z</time>
      </trkpt>
      <trkpt lat="45.95068" lon="4.87016">
        <ele>277</ele>
        <time>2017-04-29T10:50:06Z</time>
      </trkpt>
      <trkpt lat="45.95065" lon="4.87009">
        <ele>277</ele>
        <time>2017-04-29T10:50:07Z</time>
      </trkpt>
      <trkpt lat="45.95061" lon="4.87003">
        <ele>277</ele>
        <time>2017-04-29T10:50:08Z</time>
      </trkpt>
      <trkpt lat="45.95057" lon="4.86996">
        <ele>276</ele>
        <time>2017-04-29T10:50:09Z</time>
      </trkpt>
      <trkpt lat="45.95054" lon="4.86989">
        <ele>276</ele>
        <time>2017-04-29T10:50:10Z</time>
      </trkpt>
      <trkpt lat="45.95052" lon="4.86982">
        <ele>276</ele>
        <time>2017-04-29T10:50:11Z</time>
      </trkpt>
      <trkpt lat="45.95049" lon="4.86975">
        <ele>276</ele>
        <time>2017-04-29T10:50:12Z</time>
      </trkpt>
      <trkpt lat="45.95047" lon="4.86968">
        <ele>276</ele>
        <time>2017-04-29T10:50:13Z</time>
      </trkpt>
      <trkpt lat="45.95044" lon="4.86961">
        <ele>276</ele>
        <time>2017-04-29T10:50:14Z</time>
      </trkpt>
      <trkpt lat="45.95042" lon="4.86953">
        <ele>276</ele>
        <time>2017-04-29T10:50:15Z</time>
      </trkpt>
      <trkpt lat="45.95041" lon="4.86947">
        <ele>276</ele>
        <time>2017-04-29T10:50:16Z</time>
      </trkpt>
      <trkpt lat="45.95038" lon="4.86939">
        <ele>276</ele>
        <time>2017-04-29T10:50:17Z</time>
      </trkpt>
      <trkpt lat="45.95036" lon="4.86932">
        <ele>276</ele>
        <time>2017-04-29T10:50:18Z</time>
      </trkpt>
      <trkpt lat="45.95034" lon="4.86925">
        <ele>276</ele>
        <time>2017-04-29T10:50:19Z</time>
      </trkpt>
      <trkpt lat="45.95032" lon="4.86917">
        <ele>276</ele>
        <time>2017-04-29T10:50:20Z</time>
      </trkpt>
      <trkpt lat="45.9503" lon="4.8691">
        <ele>275</ele>
        <time>2017-04-29T10:50:21Z</time>
      </trkpt>
      <trkpt lat="45.95027" lon="4.86903">
        <ele>275</ele>
        <time>2017-04-29T10:50:22Z</time>
      </trkpt>
      <trkpt lat="45.95025" lon="4.86895">
        <ele>275</ele>
        <time>2017-04-29T10:50:23Z</time>
      </trkpt>
      <trkpt lat="45.95023" lon="4.86888">
        <ele>275</ele>
        <time>2017-04-29T10:50:24Z</time>
      </trkpt>
      <trkpt lat="45.95021" lon="4.86881">
        <ele>275</ele>
        <time>2017-04-29T10:50:25Z</time>
      </trkpt>
      <trkpt lat="45.95019" lon="4.86873">
        <ele>275</ele>
        <time>2017-04-29T10:50:26Z</time>
      </trkpt>
      <trkpt lat="45.95016" lon="4.86866">
        <ele>275</ele>
        <time>2017-04-29T10:50:27Z</time>
      </trkpt>
      <trkpt lat="45.95014" lon="4.86859">
        <ele>275</ele>
        <time>2017-04-29T10:50:28Z</time>
      </trkpt>
      <trkpt lat="45.95012" lon="4.86852">
        <ele>275</ele>
        <time>2017-04-29T10:50:29Z</time>
      </trkpt>
      <trkpt lat="45.95009" lon="4.86845">
        <ele>276</ele>
        <time>2017-04-29T10:50:30Z</time>
      </trkpt>
      <trkpt lat="45.95006" lon="4.86838">
        <ele>276</ele>
        <time>2017-04-29T10:50:31Z</time>
      </trkpt>
      <trkpt lat="45.95004" lon="4.86831">
        <ele>276</ele>
        <time>2017-04-29T10:50:32Z</time>
      </trkpt>
      <trkpt lat="45.95001" lon="4.86824">
        <ele>275</ele>
        <time>2017-04-29T10:50:33Z</time>
      </trkpt>
      <trkpt lat="45.94998" lon="4.86818">
        <ele>276</ele>
        <time>2017-04-29T10:50:34Z</time>
      </trkpt>
      <trkpt lat="45.94995" lon="4.86812">
        <ele>276</ele>
        <time>2017-04-29T10:50:35Z</time>
      </trkpt>
      <trkpt lat="45.94992" lon="4.86806">
        <ele>276</ele>
        <time>2017-04-29T10:50:36Z</time>
      </trkpt>
      <trkpt lat="45.94989" lon="4.86801">
        <ele>276</ele>
        <time>2017-04-29T10:50:37Z</time>
      </trkpt>
      <trkpt lat="45.94987" lon="4.86795">
        <ele>276</ele>
        <time>2017-04-29T10:50:38Z</time>
      </trkpt>
      <trkpt lat="45.94984" lon="4.8679">
        <ele>276</ele>
        <time>2017-04-29T10:50:39Z</time>
      </trkpt>
      <trkpt lat="45.9498" lon="4.86784">
        <ele>275</ele>
        <time>2017-04-29T10:50:40Z</time>
      </trkpt>
      <trkpt lat="45.94977" lon="4.86779">
        <ele>275</ele>
        <time>2017-04-29T10:50:41Z</time>
      </trkpt>
      <trkpt lat="45.94974" lon="4.86773">
        <ele>275</ele>
        <time>2017-04-29T10:50:42Z</time>
      </trkpt>
      <trkpt lat="45.9497" lon="4.86767">
        <ele>275</ele>
        <time>2017-04-29T10:50:43Z</time>
      </trkpt>
      <trkpt lat="45.94967" lon="4.86762">
        <ele>275</ele>
        <time>2017-04-29T10:50:44Z</time>
      </trkpt>
      <trkpt lat="45.94965" lon="4.86756">
        <ele>275</ele>
        <time>2017-04-29T10:50:45Z</time>
      </trkpt>
      <trkpt lat="45.94962" lon="4.8675">
        <ele>275</ele>
        <time>2017-04-29T10:50:46Z</time>
      </trkpt>
      <trkpt lat="45.94959" lon="4.86745">
        <ele>275</ele>
        <time>2017-04-29T10:50:47Z</time>
      </trkpt>
      <trkpt lat="45.94957" lon="4.86739">
        <ele>275</ele>
        <time>2017-04-29T10:50:48Z</time>
      </trkpt>
      <trkpt lat="45.94954" lon="4.86733">
        <ele>275</ele>
        <time>2017-04-29T10:50:49Z</time>
      </trkpt>
      <trkpt lat="45.94951" lon="4.86727">
        <ele>275</ele>
        <time>2017-04-29T10:50:50Z</time>
      </trkpt>
      <trkpt lat="45.94949" lon="4.8672">
        <ele>275</ele>
        <time>2017-04-29T10:50:51Z</time>
      </trkpt>
      <trkpt lat="45.94948" lon="4.86712">
        <ele>275</ele>
        <time>2017-04-29T10:50:52Z</time>
      </trkpt>
      <trkpt lat="45.94946" lon="4.86705">
        <ele>275</ele>
        <time>2017-04-29T10:50:53Z</time>
      </trkpt>
      <trkpt lat="45.94945" lon="4.86697">
        <ele>276</ele>
        <time>2017-04-29T10:50:54Z</time>
      </trkpt>
      <trkpt lat="45.94943" lon="4.8669">
        <ele>276</ele>
        <time>2017-04-29T10:50:55Z</time>
      </trkpt>
      <trkpt lat="45.94943" lon="4.86682">
        <ele>276</ele>
        <time>2017-04-29T10:50:56Z</time>
      </trkpt>
      <trkpt lat="45.94942" lon="4.86675">
        <ele>276</ele>
        <time>2017-04-29T10:50:57Z</time>
      </trkpt>
      <trkpt lat="45.94943" lon="4.86669">
        <ele>276</ele>
        <time>2017-04-29T10:50:58Z</time>
      </trkpt>
      <trkpt lat="45.94943" lon="4.86662">
        <ele>276</ele>
        <time>2017-04-29T10:50:59Z</time>
      </trkpt>
      <trkpt lat="45.94945" lon="4.86656">
        <ele>276</ele>
        <time>2017-04-29T10:51:00Z</time>
      </trkpt>
      <trkpt lat="45.94946" lon="4.8665">
        <ele>276</ele>
        <time>2017-04-29T10:51:01Z</time>
      </trkpt>
      <trkpt lat="45.94949" lon="4.86644">
        <ele>276</ele>
        <time>2017-04-29T10:51:02Z</time>
      </trkpt>
      <trkpt lat="45.94954" lon="4.86635">
        <ele>276</ele>
        <time>2017-04-29T10:51:04Z</time>
      </trkpt>
      <trkpt lat="45.94958" lon="4.86631">
        <ele>276</ele>
        <time>2017-04-29T10:51:05Z</time>
      </trkpt>
      <trkpt lat="45.94965" lon="4.86624">
        <ele>275</ele>
        <time>2017-04-29T10:51:07Z</time>
      </trkpt>
      <trkpt lat="45.94969" lon="4.86622">
        <ele>275</ele>
        <time>2017-04-29T10:51:08Z</time>
      </trkpt>
      <trkpt lat="45.94973" lon="4.86621">
        <ele>275</ele>
        <time>2017-04-29T10:51:09Z</time>
      </trkpt>
      <trkpt lat="45.94978" lon="4.86619">
        <ele>275</ele>
        <time>2017-04-29T10:51:10Z</time>
      </trkpt>
      <trkpt lat="45.94982" lon="4.86618">
        <ele>275</ele>
        <time>2017-04-29T10:51:11Z</time>
      </trkpt>
      <trkpt lat="45.94987" lon="4.86618">
        <ele>275</ele>
        <time>2017-04-29T10:51:12Z</time>
      </trkpt>
      <trkpt lat="45.94991" lon="4.86616">
        <ele>275</ele>
        <time>2017-04-29T10:51:13Z</time>
      </trkpt>
      <trkpt lat="45.94996" lon="4.86615">
        <ele>275</ele>
        <time>2017-04-29T10:51:14Z</time>
      </trkpt>
      <trkpt lat="45.95001" lon="4.86614">
        <ele>273</ele>
        <time>2017-04-29T10:51:15Z</time>
      </trkpt>
      <trkpt lat="45.95006" lon="4.86613">
        <ele>273</ele>
        <time>2017-04-29T10:51:16Z</time>
      </trkpt>
      <trkpt lat="45.95011" lon="4.86612">
        <ele>273</ele>
        <time>2017-04-29T10:51:17Z</time>
      </trkpt>
      <trkpt lat="45.95017" lon="4.86611">
        <ele>273</ele>
        <time>2017-04-29T10:51:18Z</time>
      </trkpt>
      <trkpt lat="45.95022" lon="4.86609">
        <ele>273</ele>
        <time>2017-04-29T10:51:19Z</time>
      </trkpt>
      <trkpt lat="45.95027" lon="4.86608">
        <ele>273</ele>
        <time>2017-04-29T10:51:20Z</time>
      </trkpt>
      <trkpt lat="45.95033" lon="4.86607">
        <ele>273</ele>
        <time>2017-04-29T10:51:21Z</time>
      </trkpt>
      <trkpt lat="45.95038" lon="4.86605">
        <ele>273</ele>
        <time>2017-04-29T10:51:22Z</time>
      </trkpt>
      <trkpt lat="45.95044" lon="4.86604">
        <ele>272</ele>
        <time>2017-04-29T10:51:23Z</time>
      </trkpt>
      <trkpt lat="45.9505" lon="4.86603">
        <ele>272</ele>
        <time>2017-04-29T10:51:24Z</time>
      </trkpt>
      <trkpt lat="45.95056" lon="4.86602">
        <ele>272</ele>
        <time>2017-04-29T10:51:25Z</time>
      </trkpt>
      <trkpt lat="45.95062" lon="4.866">
        <ele>272</ele>
        <time>2017-04-29T10:51:26Z</time>
      </trkpt>
      <trkpt lat="45.95068" lon="4.86598">
        <ele>272</ele>
        <time>2017-04-29T10:51:27Z</time>
      </trkpt>
      <trkpt lat="45.95074" lon="4.86596">
        <ele>272</ele>
        <time>2017-04-29T10:51:28Z</time>
      </trkpt>
      <trkpt lat="45.9508" lon="4.86594">
        <ele>272</ele>
        <time>2017-04-29T10:51:29Z</time>
      </trkpt>
      <trkpt lat="45.95086" lon="4.86592">
        <ele>271</ele>
        <time>2017-04-29T10:51:30Z</time>
      </trkpt>
      <trkpt lat="45.95092" lon="4.86591">
        <ele>271</ele>
        <time>2017-04-29T10:51:31Z</time>
      </trkpt>
      <trkpt lat="45.95099" lon="4.8659">
        <ele>271</ele>
        <time>2017-04-29T10:51:32Z</time>
      </trkpt>
      <trkpt lat="45.95105" lon="4.86589">
        <ele>271</ele>
        <time>2017-04-29T10:51:33Z</time>
      </trkpt>
      <trkpt lat="45.95111" lon="4.86588">
        <ele>271</ele>
        <time>2017-04-29T10:51:34Z</time>
      </trkpt>
      <trkpt lat="45.95118" lon="4.86587">
        <ele>270</ele>
        <time>2017-04-29T10:51:35Z</time>
      </trkpt>
      <trkpt lat="45.95125" lon="4.86586">
        <ele>270</ele>
        <time>2017-04-29T10:51:36Z</time>
      </trkpt>
      <trkpt lat="45.95131" lon="4.86585">
        <ele>270</ele>
        <time>2017-04-29T10:51:37Z</time>
      </trkpt>
      <trkpt lat="45.95138" lon="4.86584">
        <ele>270</ele>
        <time>2017-04-29T10:51:38Z</time>
      </trkpt>
      <trkpt lat="45.95144" lon="4.86584">
        <ele>270</ele>
        <time>2017-04-29T10:51:39Z</time>
      </trkpt>
      <trkpt lat="45.95151" lon="4.86583">
        <ele>269</ele>
        <time>2017-04-29T10:51:40Z</time>
      </trkpt>
      <trkpt lat="45.95158" lon="4.86582">
        <ele>269</ele>
        <time>2017-04-29T10:51:41Z</time>
      </trkpt>
      <trkpt lat="45.95165" lon="4.86582">
        <ele>269</ele>
        <time>2017-04-29T10:51:42Z</time>
      </trkpt>
      <trkpt lat="45.95171" lon="4.86581">
        <ele>269</ele>
        <time>2017-04-29T10:51:43Z</time>
      </trkpt>
      <trkpt lat="45.95179" lon="4.8658">
        <ele>269</ele>
        <time>2017-04-29T10:51:44Z</time>
      </trkpt>
      <trkpt lat="45.95186" lon="4.8658">
        <ele>269</ele>
        <time>2017-04-29T10:51:45Z</time>
      </trkpt>
      <trkpt lat="45.95193" lon="4.86579">
        <ele>269</ele>
        <time>2017-04-29T10:51:46Z</time>
      </trkpt>
      <trkpt lat="45.952" lon="4.86579">
        <ele>268</ele>
        <time>2017-04-29T10:51:47Z</time>
      </trkpt>
      <trkpt lat="45.95207" lon="4.8658">
        <ele>268</ele>
        <time>2017-04-29T10:51:48Z</time>
      </trkpt>
      <trkpt lat="45.95215" lon="4.86581">
        <ele>268</ele>
        <time>2017-04-29T10:51:49Z</time>
      </trkpt>
      <trkpt lat="45.95222" lon="4.86582">
        <ele>268</ele>
        <time>2017-04-29T10:51:50Z</time>
      </trkpt>
      <trkpt lat="45.95229" lon="4.86584">
        <ele>269</ele>
        <time>2017-04-29T10:51:51Z</time>
      </trkpt>
      <trkpt lat="45.95236" lon="4.86585">
        <ele>269</ele>
        <time>2017-04-29T10:51:52Z</time>
      </trkpt>
      <trkpt lat="45.95243" lon="4.86586">
        <ele>268</ele>
        <time>2017-04-29T10:51:53Z</time>
      </trkpt>
      <trkpt lat="45.95249" lon="4.86586">
        <ele>268</ele>
        <time>2017-04-29T10:51:54Z</time>
      </trkpt>
      <trkpt lat="45.95254" lon="4.86585">
        <ele>268</ele>
        <time>2017-04-29T10:51:55Z</time>
      </trkpt>
      <trkpt lat="45.95258" lon="4.86584">
        <ele>268</ele>
        <time>2017-04-29T10:51:56Z</time>
      </trkpt>
      <trkpt lat="45.95265" lon="4.86575">
        <ele>267</ele>
        <time>2017-04-29T10:51:59Z</time>
      </trkpt>
      <trkpt lat="45.95265" lon="4.86571">
        <ele>267</ele>
        <time>2017-04-29T10:52:00Z</time>
      </trkpt>
      <trkpt lat="45.95263" lon="4.86561">
        <ele>267</ele>
        <time>2017-04-29T10:52:02Z</time>
      </trkpt>
      <trkpt lat="45.9526" lon="4.86556">
        <ele>267</ele>
        <time>2017-04-29T10:52:03Z</time>
      </trkpt>
      <trkpt lat="45.95256" lon="4.86552">
        <ele>267</ele>
        <time>2017-04-29T10:52:04Z</time>
      </trkpt>
      <trkpt lat="45.95252" lon="4.86547">
        <ele>267</ele>
        <time>2017-04-29T10:52:05Z</time>
      </trkpt>
      <trkpt lat="45.95248" lon="4.86543">
        <ele>268</ele>
        <time>2017-04-29T10:52:06Z</time>
      </trkpt>
      <trkpt lat="45.95244" lon="4.86538">
        <ele>268</ele>
        <time>2017-04-29T10:52:07Z</time>
      </trkpt>
      <trkpt lat="45.9524" lon="4.86533">
        <ele>268</ele>
        <time>2017-04-29T10:52:08Z</time>
      </trkpt>
      <trkpt lat="45.95236" lon="4.86527">
        <ele>268</ele>
        <time>2017-04-29T10:52:09Z</time>
      </trkpt>
      <trkpt lat="45.95232" lon="4.86522">
        <ele>268</ele>
        <time>2017-04-29T10:52:10Z</time>
      </trkpt>
      <trkpt lat="45.95227" lon="4.86517">
        <ele>268</ele>
        <time>2017-04-29T10:52:11Z</time>
      </trkpt>
      <trkpt lat="45.95223" lon="4.86512">
        <ele>268</ele>
        <time>2017-04-29T10:52:12Z</time>
      </trkpt>
      <trkpt lat="45.95219" lon="4.86507">
        <ele>268</ele>
        <time>2017-04-29T10:52:13Z</time>
      </trkpt>
      <trkpt lat="45.95215" lon="4.86503">
        <ele>268</ele>
        <time>2017-04-29T10:52:14Z</time>
      </trkpt>
      <trkpt lat="45.95211" lon="4.86498">
        <ele>268</ele>
        <time>2017-04-29T10:52:15Z</time>
      </trkpt>
      <trkpt lat="45.95208" lon="4.86494">
        <ele>268</ele>
        <time>2017-04-29T10:52:16Z</time>
      </trkpt>
      <trkpt lat="45.95203" lon="4.8649">
        <ele>268</ele>
        <time>2017-04-29T10:52:17Z</time>
      </trkpt>
      <trkpt lat="45.95199" lon="4.86486">
        <ele>268</ele>
        <time>2017-04-29T10:52:18Z</time>
      </trkpt>
      <trkpt lat="45.95196" lon="4.86482">
        <ele>268</ele>
        <time>2017-04-29T10:52:19Z</time>
      </trkpt>
      <trkpt lat="45.95192" lon="4.86478">
        <ele>268</ele>
        <time>2017-04-29T10:52:20Z</time>
      </trkpt>
      <trkpt lat="45.95188" lon="4.86474">
        <ele>268</ele>
        <time>2017-04-29T10:52:21Z</time>
      </trkpt>
      <trkpt lat="45.95185" lon="4.86469">
        <ele>268</ele>
        <time>2017-04-29T10:52:22Z</time>
      </trkpt>
      <trkpt lat="45.95181" lon="4.86465">
        <ele>268</ele>
        <time>2017-04-29T10:52:23Z</time>
      </trkpt>
      <trkpt lat="45.95175" lon="4.86456">
        <ele>268</ele>
        <time>2017-04-29T10:52:25Z</time>
      </trkpt>
      <trkpt lat="45.95172" lon="4.86452">
        <ele>268</ele>
        <time>2017-04-29T10:52:26Z</time>
      </trkpt>
      <trkpt lat="45.95165" lon="4.86444">
        <ele>268</ele>
        <time>2017-04-29T10:52:28Z</time>
      </trkpt>
      <trkpt lat="45.95162" lon="4.8644">
        <ele>268</ele>
        <time>2017-04-29T10:52:29Z</time>
      </trkpt>
      <trkpt lat="45.95155" lon="4.86432">
        <ele>268</ele>
        <time>2017-04-29T10:52:31Z</time>
      </trkpt>
      <trkpt lat="45.95152" lon="4.86428">
        <ele>268</ele>
        <time>2017-04-29T10:52:32Z</time>
      </trkpt>
      <trkpt lat="45.95145" lon="4.86421">
        <ele>268</ele>
        <time>2017-04-29T10:52:34Z</time>
      </trkpt>
      <trkpt lat="45.95142" lon="4.86416">
        <ele>268</ele>
        <time>2017-04-29T10:52:35Z</time>
      </trkpt>
      <trkpt lat="45.95138" lon="4.86412">
        <ele>268</ele>
        <time>2017-04-29T10:52:36Z</time>
      </trkpt>
      <trkpt lat="45.95135" lon="4.86408">
        <ele>268</ele>
        <time>2017-04-29T10:52:37Z</time>
      </trkpt>
      <trkpt lat="45.95128" lon="4.864">
        <ele>268</ele>
        <time>2017-04-29T10:52:39Z</time>
      </trkpt>
      <trkpt lat="45.95125" lon="4.86395">
        <ele>268</ele>
        <time>2017-04-29T10:52:40Z</time>
      </trkpt>
      <trkpt lat="45.95122" lon="4.86391">
        <ele>269</ele>
        <time>2017-04-29T10:52:41Z</time>
      </trkpt>
      <trkpt lat="45.95118" lon="4.86387">
        <ele>269</ele>
        <time>2017-04-29T10:52:42Z</time>
      </trkpt>
      <trkpt lat="45.95115" lon="4.86382">
        <ele>269</ele>
        <time>2017-04-29T10:52:43Z</time>
      </trkpt>
      <trkpt lat="45.95111" lon="4.86378">
        <ele>269</ele>
        <time>2017-04-29T10:52:44Z</time>
      </trkpt>
      <trkpt lat="45.95108" lon="4.86373">
        <ele>269</ele>
        <time>2017-04-29T10:52:45Z</time>
      </trkpt>
      <trkpt lat="45.95104" lon="4.86369">
        <ele>269</ele>
        <time>2017-04-29T10:52:46Z</time>
      </trkpt>
      <trkpt lat="45.95101" lon="4.86365">
        <ele>269</ele>
        <time>2017-04-29T10:52:47Z</time>
      </trkpt>
      <trkpt lat="45.95097" lon="4.8636">
        <ele>269</ele>
        <time>2017-04-29T10:52:48Z</time>
      </trkpt>
      <trkpt lat="45.95094" lon="4.86356">
        <ele>269</ele>
        <time>2017-04-29T10:52:49Z</time>
      </trkpt>
      <trkpt lat="45.9509" lon="4.86352">
        <ele>269</ele>
        <time>2017-04-29T10:52:50Z</time>
      </trkpt>
      <trkpt lat="45.95087" lon="4.86347">
        <ele>269</ele>
        <time>2017-04-29T10:52:51Z</time>
      </trkpt>
      <trkpt lat="45.95083" lon="4.86343">
        <ele>270</ele>
        <time>2017-04-29T10:52:52Z</time>
      </trkpt>
      <trkpt lat="45.95079" lon="4.86339">
        <ele>270</ele>
        <time>2017-04-29T10:52:53Z</time>
      </trkpt>
      <trkpt lat="45.95076" lon="4.86335">
        <ele>270</ele>
        <time>2017-04-29T10:52:54Z</time>
      </trkpt>
      <trkpt lat="45.95072" lon="4.86331">
        <ele>270</ele>
        <time>2017-04-29T10:52:55Z</time>
      </trkpt>
      <trkpt lat="45.95069" lon="4.86327">
        <ele>270</ele>
        <time>2017-04-29T10:52:56Z</time>
      </trkpt>
      <trkpt lat="45.95062" lon="4.86319">
        <ele>270</ele>
        <time>2017-04-29T10:52:58Z</time>
      </trkpt>
      <trkpt lat="45.95058" lon="4.86315">
        <ele>271</ele>
        <time>2017-04-29T10:52:59Z</time>
      </trkpt>
      <trkpt lat="45.95052" lon="4.86306">
        <ele>271</ele>
        <time>2017-04-29T10:53:01Z</time>
      </trkpt>
      <trkpt lat="45.95048" lon="4.86302">
        <ele>271</ele>
        <time>2017-04-29T10:53:02Z</time>
      </trkpt>
      <trkpt lat="45.95045" lon="4.86298">
        <ele>271</ele>
        <time>2017-04-29T10:53:03Z</time>
      </trkpt>
      <trkpt lat="45.95042" lon="4.86293">
        <ele>271</ele>
        <time>2017-04-29T10:53:04Z</time>
      </trkpt>
      <trkpt lat="45.95038" lon="4.86289">
        <ele>271</ele>
        <time>2017-04-29T10:53:05Z</time>
      </trkpt>
      <trkpt lat="45.95034" lon="4.86284">
        <ele>271</ele>
        <time>2017-04-29T10:53:06Z</time>
      </trkpt>
      <trkpt lat="45.95031" lon="4.86279">
        <ele>271</ele>
        <time>2017-04-29T10:53:07Z</time>
      </trkpt>
      <trkpt lat="45.95027" lon="4.86274">
        <ele>271</ele>
        <time>2017-04-29T10:53:08Z</time>
      </trkpt>
      <trkpt lat="45.95024" lon="4.8627">
        <ele>271</ele>
        <time>2017-04-29T10:53:09Z</time>
      </trkpt>
      <trkpt lat="45.9502" lon="4.86266">
        <ele>271</ele>
        <time>2017-04-29T10:53:10Z</time>
      </trkpt>
      <trkpt lat="45.95016" lon="4.86263">
        <ele>271</ele>
        <time>2017-04-29T10:53:11Z</time>
      </trkpt>
      <trkpt lat="45.95012" lon="4.86258">
        <ele>272</ele>
        <time>2017-04-29T10:53:12Z</time>
      </trkpt>
      <trkpt lat="45.95006" lon="4.8625">
        <ele>272</ele>
        <time>2017-04-29T10:53:14Z</time>
      </trkpt>
      <trkpt lat="45.95003" lon="4.86246">
        <ele>272</ele>
        <time>2017-04-29T10:53:15Z</time>
      </trkpt>
      <trkpt lat="45.94996" lon="4.86238">
        <ele>272</ele>
        <time>2017-04-29T10:53:17Z</time>
      </trkpt>
      <trkpt lat="45.94993" lon="4.86234">
        <ele>272</ele>
        <time>2017-04-29T10:53:18Z</time>
      </trkpt>
      <trkpt lat="45.94987" lon="4.86225">
        <ele>272</ele>
        <time>2017-04-29T10:53:20Z</time>
      </trkpt>
      <trkpt lat="45.94984" lon="4.86221">
        <ele>272</ele>
        <time>2017-04-29T10:53:21Z</time>
      </trkpt>
      <trkpt lat="45.94978" lon="4.86213">
        <ele>272</ele>
        <time>2017-04-29T10:53:23Z</time>
      </trkpt>
      <trkpt lat="45.94974" lon="4.86209">
        <ele>272</ele>
        <time>2017-04-29T10:53:24Z</time>
      </trkpt>
      <trkpt lat="45.94967" lon="4.86202">
        <ele>272</ele>
        <time>2017-04-29T10:53:26Z</time>
      </trkpt>
      <trkpt lat="45.94964" lon="4.86198">
        <ele>272</ele>
        <time>2017-04-29T10:53:27Z</time>
      </trkpt>
      <trkpt lat="45.94958" lon="4.8619">
        <ele>273</ele>
        <time>2017-04-29T10:53:29Z</time>
      </trkpt>
      <trkpt lat="45.94955" lon="4.86186">
        <ele>273</ele>
        <time>2017-04-29T10:53:30Z</time>
      </trkpt>
      <trkpt lat="45.94948" lon="4.86178">
        <ele>273</ele>
        <time>2017-04-29T10:53:32Z</time>
      </trkpt>
      <trkpt lat="45.94945" lon="4.86174">
        <ele>273</ele>
        <time>2017-04-29T10:53:33Z</time>
      </trkpt>
      <trkpt lat="45.94939" lon="4.86166">
        <ele>273</ele>
        <time>2017-04-29T10:53:35Z</time>
      </trkpt>
      <trkpt lat="45.94936" lon="4.86162">
        <ele>273</ele>
        <time>2017-04-29T10:53:36Z</time>
      </trkpt>
      <trkpt lat="45.9493" lon="4.86154">
        <ele>273</ele>
        <time>2017-04-29T10:53:38Z</time>
      </trkpt>
      <trkpt lat="45.94927" lon="4.86149">
        <ele>273</ele>
        <time>2017-04-29T10:53:39Z</time>
      </trkpt>
      <trkpt lat="45.94922" lon="4.8614">
        <ele>273</ele>
        <time>2017-04-29T10:53:41Z</time>
      </trkpt>
      <trkpt lat="45.94919" lon="4.86135">
        <ele>273</ele>
        <time>2017-04-29T10:53:42Z</time>
      </trkpt>
      <trkpt lat="45.94914" lon="4.86125">
        <ele>274</ele>
        <time>2017-04-29T10:53:44Z</time>
      </trkpt>
      <trkpt lat="45.94911" lon="4.86121">
        <ele>274</ele>
        <time>2017-04-29T10:53:45Z</time>
      </trkpt>
      <trkpt lat="45.94906" lon="4.86111">
        <ele>274</ele>
        <time>2017-04-29T10:53:47Z</time>
      </trkpt>
      <trkpt lat="45.94904" lon="4.86106">
        <ele>274</ele>
        <time>2017-04-29T10:53:48Z</time>
      </trkpt>
      <trkpt lat="45.949" lon="4.86096">
        <ele>274</ele>
        <time>2017-04-29T10:53:50Z</time>
      </trkpt>
      <trkpt lat="45.94898" lon="4.8609">
        <ele>274</ele>
        <time>2017-04-29T10:53:51Z</time>
      </trkpt>
      <trkpt lat="45.94895" lon="4.86079">
        <ele>274</ele>
        <time>2017-04-29T10:53:53Z</time>
      </trkpt>
      <trkpt lat="45.94893" lon="4.86073">
        <ele>274</ele>
        <time>2017-04-29T10:53:54Z</time>
      </trkpt>
      <trkpt lat="45.94889" lon="4.86062">
        <ele>274</ele>
        <time>2017-04-29T10:53:56Z</time>
      </trkpt>
      <trkpt lat="45.94888" lon="4.86056">
        <ele>274</ele>
        <time>2017-04-29T10:53:57Z</time>
      </trkpt>
      <trkpt lat="45.94884" lon="4.86046">
        <ele>274</ele>
        <time>2017-04-29T10:53:59Z</time>
      </trkpt>
      <trkpt lat="45.94882" lon="4.8604">
        <ele>274</ele>
        <time>2017-04-29T10:54:00Z</time>
      </trkpt>
      <trkpt lat="45.94878" lon="4.86029">
        <ele>274</ele>
        <time>2017-04-29T10:54:02Z</time>
      </trkpt>
      <trkpt lat="45.94876" lon="4.86023">
        <ele>274</ele>
        <time>2017-04-29T10:54:03Z</time>
      </trkpt>
      <trkpt lat="45.94873" lon="4.86011">
        <ele>274</ele>
        <time>2017-04-29T10:54:05Z</time>
      </trkpt>
      <trkpt lat="45.94872" lon="4.86005">
        <ele>274</ele>
        <time>2017-04-29T10:54:06Z</time>
      </trkpt>
      <trkpt lat="45.9487" lon="4.85993">
        <ele>275</ele>
        <time>2017-04-29T10:54:08Z</time>
      </trkpt>
      <trkpt lat="45.94868" lon="4.85987">
        <ele>275</ele>
        <time>2017-04-29T10:54:09Z</time>
      </trkpt>
      <trkpt lat="45.94865" lon="4.85976">
        <ele>275</ele>
        <time>2017-04-29T10:54:11Z</time>
      </trkpt>
      <trkpt lat="45.94864" lon="4.8597">
        <ele>275</ele>
        <time>2017-04-29T10:54:12Z</time>
      </trkpt>
      <trkpt lat="45.94861" lon="4.85958">
        <ele>275</ele>
        <time>2017-04-29T10:54:14Z</time>
      </trkpt>
      <trkpt lat="45.94859" lon="4.85952">
        <ele>275</ele>
        <time>2017-04-29T10:54:15Z</time>
      </trkpt>
      <trkpt lat="45.94858" lon="4.85946">
        <ele>275</ele>
        <time>2017-04-29T10:54:16Z</time>
      </trkpt>
      <trkpt lat="45.94856" lon="4.8594">
        <ele>275</ele>
        <time>2017-04-29T10:54:17Z</time>
      </trkpt>
      <trkpt lat="45.94855" lon="4.85933">
        <ele>275</ele>
        <time>2017-04-29T10:54:18Z</time>
      </trkpt>
      <trkpt lat="45.94853" lon="4.85926">
        <ele>275</ele>
        <time>2017-04-29T10:54:19Z</time>
      </trkpt>
      <trkpt lat="45.94852" lon="4.85919">
        <ele>275</ele>
        <time>2017-04-29T10:54:20Z</time>
      </trkpt>
      <trkpt lat="45.9485" lon="4.85912">
        <ele>275</ele>
        <time>2017-04-29T10:54:21Z</time>
      </trkpt>
      <trkpt lat="45.94848" lon="4.85906">
        <ele>276</ele>
        <time>2017-04-29T10:54:22Z</time>
      </trkpt>
      <trkpt lat="45.94847" lon="4.85899">
        <ele>276</ele>
        <time>2017-04-29T10:54:23Z</time>
      </trkpt>
      <trkpt lat="45.94845" lon="4.85892">
        <ele>276</ele>
        <time>2017-04-29T10:54:24Z</time>
      </trkpt>
      <trkpt lat="45.94843" lon="4.85886">
        <ele>276</ele>
        <time>2017-04-29T10:54:25Z</time>
      </trkpt>
      <trkpt lat="45.94842" lon="4.8588">
        <ele>276</ele>
        <time>2017-04-29T10:54:26Z</time>
      </trkpt>
      <trkpt lat="45.9484" lon="4.85873">
        <ele>276</ele>
        <time>2017-04-29T10:54:27Z</time>
      </trkpt>
      <trkpt lat="45.94838" lon="4.85867">
        <ele>276</ele>
        <time>2017-04-29T10:54:28Z</time>
      </trkpt>
      <trkpt lat="45.94836" lon="4.85861">
        <ele>276</ele>
        <time>2017-04-29T10:54:29Z</time>
      </trkpt>
      <trkpt lat="45.94834" lon="4.85855">
        <ele>276</ele>
        <time>2017-04-29T10:54:30Z</time>
      </trkpt>
      <trkpt lat="45.94833" lon="4.85849">
        <ele>277</ele>
        <time>2017-04-29T10:54:31Z</time>
      </trkpt>
      <trkpt lat="45.94831" lon="4.85843">
        <ele>277</ele>
        <time>2017-04-29T10:54:32Z</time>
      </trkpt>
      <trkpt lat="45.9483" lon="4.85837">
        <ele>277</ele>
        <time>2017-04-29T10:54:33Z</time>
      </trkpt>
      <trkpt lat="45.94828" lon="4.8583">
        <ele>277</ele>
        <time>2017-04-29T10:54:34Z</time>
      </trkpt>
      <trkpt lat="45.94826" lon="4.85824">
        <ele>277</ele>
        <time>2017-04-29T10:54:35Z</time>
      </trkpt>
      <trkpt lat="45.94824" lon="4.85818">
        <ele>278</ele>
        <time>2017-04-29T10:54:36Z</time>
      </trkpt>
      <trkpt lat="45.94822" lon="4.85812">
        <ele>278</ele>
        <time>2017-04-29T10:54:37Z</time>
      </trkpt>
      <trkpt lat="45.9482" lon="4.85806">
        <ele>278</ele>
        <time>2017-04-29T10:54:38Z</time>
      </trkpt>
      <trkpt lat="45.94819" lon="4.85799">
        <ele>278</ele>
        <time>2017-04-29T10:54:39Z</time>
      </trkpt>
      <trkpt lat="45.94818" lon="4.85793">
        <ele>278</ele>
        <time>2017-04-29T10:54:40Z</time>
      </trkpt>
      <trkpt lat="45.94817" lon="4.85786">
        <ele>278</ele>
        <time>2017-04-29T10:54:41Z</time>
      </trkpt>
      <trkpt lat="45.94815" lon="4.8578">
        <ele>278</ele>
        <time>2017-04-29T10:54:42Z</time>
      </trkpt>
      <trkpt lat="45.94813" lon="4.85774">
        <ele>278</ele>
        <time>2017-04-29T10:54:43Z</time>
      </trkpt>
      <trkpt lat="45.9481" lon="4.85762">
        <ele>278</ele>
        <time>2017-04-29T10:54:45Z</time>
      </trkpt>
      <trkpt lat="45.94808" lon="4.85756">
        <ele>278</ele>
        <time>2017-04-29T10:54:46Z</time>
      </trkpt>
      <trkpt lat="45.94805" lon="4.85744">
        <ele>279</ele>
        <time>2017-04-29T10:54:48Z</time>
      </trkpt>
      <trkpt lat="45.94804" lon="4.85739">
        <ele>279</ele>
        <time>2017-04-29T10:54:49Z</time>
      </trkpt>
      <trkpt lat="45.94801" lon="4.85727">
        <ele>280</ele>
        <time>2017-04-29T10:54:51Z</time>
      </trkpt>
      <trkpt lat="45.94799" lon="4.85721">
        <ele>280</ele>
        <time>2017-04-29T10:54:52Z</time>
      </trkpt>
      <trkpt lat="45.94797" lon="4.85709">
        <ele>280</ele>
        <time>2017-04-29T10:54:54Z</time>
      </trkpt>
      <trkpt lat="45.94795" lon="4.85704">
        <ele>280</ele>
        <time>2017-04-29T10:54:55Z</time>
      </trkpt>
      <trkpt lat="45.94794" lon="4.85697">
        <ele>280</ele>
        <time>2017-04-29T10:54:56Z</time>
      </trkpt>
      <trkpt lat="45.94792" lon="4.85691">
        <ele>280</ele>
        <time>2017-04-29T10:54:57Z</time>
      </trkpt>
      <trkpt lat="45.94789" lon="4.8568">
        <ele>280</ele>
        <time>2017-04-29T10:54:59Z</time>
      </trkpt>
      <trkpt lat="45.94788" lon="4.85674">
        <ele>280</ele>
        <time>2017-04-29T10:55:00Z</time>
      </trkpt>
      <trkpt lat="45.94786" lon="4.85667">
        <ele>280</ele>
        <time>2017-04-29T10:55:01Z</time>
      </trkpt>
      <trkpt lat="45.94784" lon="4.8566">
        <ele>281</ele>
        <time>2017-04-29T10:55:02Z</time>
      </trkpt>
      <trkpt lat="45.94783" lon="4.85653">
        <ele>281</ele>
        <time>2017-04-29T10:55:03Z</time>
      </trkpt>
      <trkpt lat="45.94781" lon="4.85646">
        <ele>281</ele>
        <time>2017-04-29T10:55:04Z</time>
      </trkpt>
      <trkpt lat="45.94778" lon="4.85638">
        <ele>281</ele>
        <time>2017-04-29T10:55:05Z</time>
      </trkpt>
      <trkpt lat="45.94777" lon="4.85631">
        <ele>280</ele>
        <time>2017-04-29T10:55:06Z</time>
      </trkpt>
      <trkpt lat="45.94775" lon="4.85623">
        <ele>280</ele>
        <time>2017-04-29T10:55:07Z</time>
      </trkpt>
      <trkpt lat="45.94773" lon="4.85616">
        <ele>280</ele>
        <time>2017-04-29T10:55:08Z</time>
      </trkpt>
      <trkpt lat="45.94771" lon="4.85608">
        <ele>280</ele>
        <time>2017-04-29T10:55:09Z</time>
      </trkpt>
      <trkpt lat="45.94769" lon="4.856">
        <ele>280</ele>
        <time>2017-04-29T10:55:10Z</time>
      </trkpt>
      <trkpt lat="45.94767" lon="4.85591">
        <ele>280</ele>
        <time>2017-04-29T10:55:11Z</time>
      </trkpt>
      <trkpt lat="45.94765" lon="4.85582">
        <ele>279</ele>
        <time>2017-04-29T10:55:12Z</time>
      </trkpt>
      <trkpt lat="45.94764" lon="4.85573">
        <ele>279</ele>
        <time>2017-04-29T10:55:13Z</time>
      </trkpt>
      <trkpt lat="45.94762" lon="4.85564">
        <ele>279</ele>
        <time>2017-04-29T10:55:14Z</time>
      </trkpt>
      <trkpt lat="45.9476" lon="4.85554">
        <ele>278</ele>
        <time>2017-04-29T10:55:15Z</time>
      </trkpt>
      <trkpt lat="45.94759" lon="4.85544">
        <ele>278</ele>
        <time>2017-04-29T10:55:16Z</time>
      </trkpt>
      <trkpt lat="45.94757" lon="4.85533">
        <ele>278</ele>
        <time>2017-04-29T10:55:17Z</time>
      </trkpt>
      <trkpt lat="45.94755" lon="4.85522">
        <ele>277</ele>
        <time>2017-04-29T10:55:18Z</time>
      </trkpt>
      <trkpt lat="45.94753" lon="4.8551">
        <ele>277</ele>
        <time>2017-04-29T10:55:19Z</time>
      </trkpt>
      <trkpt lat="45.94752" lon="4.85498">
        <ele>276</ele>
        <time>2017-04-29T10:55:20Z</time>
      </trkpt>
      <trkpt lat="45.9475" lon="4.85486">
        <ele>275</ele>
        <time>2017-04-29T10:55:21Z</time>
      </trkpt>
      <trkpt lat="45.94748" lon="4.85473">
        <ele>274</ele>
        <time>2017-04-29T10:55:22Z</time>
      </trkpt>
      <trkpt lat="45.94747" lon="4.85461">
        <ele>274</ele>
        <time>2017-04-29T10:55:23Z</time>
      </trkpt>
      <trkpt lat="45.94745" lon="4.85448">
        <ele>274</ele>
        <time>2017-04-29T10:55:24Z</time>
      </trkpt>
      <trkpt lat="45.94744" lon="4.85435">
        <ele>273</ele>
        <time>2017-04-29T10:55:25Z</time>
      </trkpt>
      <trkpt lat="45.94742" lon="4.85422">
        <ele>273</ele>
        <time>2017-04-29T10:55:26Z</time>
      </trkpt>
      <trkpt lat="45.94741" lon="4.85409">
        <ele>272</ele>
        <time>2017-04-29T10:55:27Z</time>
      </trkpt>
      <trkpt lat="45.94739" lon="4.85395">
        <ele>272</ele>
        <time>2017-04-29T10:55:28Z</time>
      </trkpt>
      <trkpt lat="45.94738" lon="4.85382">
        <ele>272</ele>
        <time>2017-04-29T10:55:29Z</time>
      </trkpt>
      <trkpt lat="45.94737" lon="4.85369">
        <ele>271</ele>
        <time>2017-04-29T10:55:30Z</time>
      </trkpt>
      <trkpt lat="45.94735" lon="4.85357">
        <ele>271</ele>
        <time>2017-04-29T10:55:31Z</time>
      </trkpt>
      <trkpt lat="45.94734" lon="4.85345">
        <ele>271</ele>
        <time>2017-04-29T10:55:32Z</time>
      </trkpt>
      <trkpt lat="45.94733" lon="4.85332">
        <ele>270</ele>
        <time>2017-04-29T10:55:33Z</time>
      </trkpt>
      <trkpt lat="45.94732" lon="4.8532">
        <ele>270</ele>
        <time>2017-04-29T10:55:34Z</time>
      </trkpt>
      <trkpt lat="45.9473" lon="4.85309">
        <ele>270</ele>
        <time>2017-04-29T10:55:35Z</time>
      </trkpt>
      <trkpt lat="45.94729" lon="4.85297">
        <ele>270</ele>
        <time>2017-04-29T10:55:36Z</time>
      </trkpt>
      <trkpt lat="45.94728" lon="4.85286">
        <ele>269</ele>
        <time>2017-04-29T10:55:37Z</time>
      </trkpt>
      <trkpt lat="45.94727" lon="4.85275">
        <ele>269</ele>
        <time>2017-04-29T10:55:38Z</time>
      </trkpt>
      <trkpt lat="45.94726" lon="4.85264">
        <ele>269</ele>
        <time>2017-04-29T10:55:39Z</time>
      </trkpt>
      <trkpt lat="45.94724" lon="4.85253">
        <ele>269</ele>
        <time>2017-04-29T10:55:40Z</time>
      </trkpt>
      <trkpt lat="45.94723" lon="4.85242">
        <ele>269</ele>
        <time>2017-04-29T10:55:41Z</time>
      </trkpt>
      <trkpt lat="45.94722" lon="4.85232">
        <ele>269</ele>
        <time>2017-04-29T10:55:42Z</time>
      </trkpt>
      <trkpt lat="45.94721" lon="4.85221">
        <ele>269</ele>
        <time>2017-04-29T10:55:43Z</time>
      </trkpt>
      <trkpt lat="45.9472" lon="4.85212">
        <ele>269</ele>
        <time>2017-04-29T10:55:44Z</time>
      </trkpt>
      <trkpt lat="45.94718" lon="4.85202">
        <ele>269</ele>
        <time>2017-04-29T10:55:45Z</time>
      </trkpt>
      <trkpt lat="45.94717" lon="4.85193">
        <ele>269</ele>
        <time>2017-04-29T10:55:46Z</time>
      </trkpt>
      <trkpt lat="45.94716" lon="4.85183">
        <ele>269</ele>
        <time>2017-04-29T10:55:47Z</time>
      </trkpt>
      <trkpt lat="45.94715" lon="4.85174">
        <ele>269</ele>
        <time>2017-04-29T10:55:48Z</time>
      </trkpt>
      <trkpt lat="45.94714" lon="4.85164">
        <ele>269</ele>
        <time>2017-04-29T10:55:49Z</time>
      </trkpt>
      <trkpt lat="45.94713" lon="4.85155">
        <ele>269</ele>
        <time>2017-04-29T10:55:50Z</time>
      </trkpt>
      <trkpt lat="45.94712" lon="4.85145">
        <ele>269</ele>
        <time>2017-04-29T10:55:51Z</time>
      </trkpt>
      <trkpt lat="45.94711" lon="4.85136">
        <ele>269</ele>
        <time>2017-04-29T10:55:52Z</time>
      </trkpt>
      <trkpt lat="45.94711" lon="4.85126">
        <ele>269</ele>
        <time>2017-04-29T10:55:53Z</time>
      </trkpt>
      <trkpt lat="45.9471" lon="4.85117">
        <ele>269</ele>
        <time>2017-04-29T10:55:54Z</time>
      </trkpt>
      <trkpt lat="45.94709" lon="4.85108">
        <ele>269</ele>
        <time>2017-04-29T10:55:55Z</time>
      </trkpt>
      <trkpt lat="45.94708" lon="4.85099">
        <ele>269</ele>
        <time>2017-04-29T10:55:56Z</time>
      </trkpt>
      <trkpt lat="45.94707" lon="4.8509">
        <ele>269</ele>
        <time>2017-04-29T10:55:57Z</time>
      </trkpt>
      <trkpt lat="45.94706" lon="4.8508">
        <ele>269</ele>
        <time>2017-04-29T10:55:58Z</time>
      </trkpt>
      <trkpt lat="45.94705" lon="4.8507">
        <ele>269</ele>
        <time>2017-04-29T10:55:59Z</time>
      </trkpt>
      <trkpt lat="45.94704" lon="4.85061">
        <ele>269</ele>
        <time>2017-04-29T10:56:00Z</time>
      </trkpt>
      <trkpt lat="45.94703" lon="4.8505">
        <ele>269</ele>
        <time>2017-04-29T10:56:01Z</time>
      </trkpt>
      <trkpt lat="45.94702" lon="4.85041">
        <ele>269</ele>
        <time>2017-04-29T10:56:02Z</time>
      </trkpt>
      <trkpt lat="45.94701" lon="4.85031">
        <ele>269</ele>
        <time>2017-04-29T10:56:03Z</time>
      </trkpt>
      <trkpt lat="45.947" lon="4.85021">
        <ele>269</ele>
        <time>2017-04-29T10:56:04Z</time>
      </trkpt>
      <trkpt lat="45.94699" lon="4.85012">
        <ele>269</ele>
        <time>2017-04-29T10:56:05Z</time>
      </trkpt>
      <trkpt lat="45.94698" lon="4.85003">
        <ele>269</ele>
        <time>2017-04-29T10:56:06Z</time>
      </trkpt>
      <trkpt lat="45.94697" lon="4.84994">
        <ele>269</ele>
        <time>2017-04-29T10:56:07Z</time>
      </trkpt>
      <trkpt lat="45.94696" lon="4.84985">
        <ele>269</ele>
        <time>2017-04-29T10:56:08Z</time>
      </trkpt>
      <trkpt lat="45.94696" lon="4.84977">
        <ele>269</ele>
        <time>2017-04-29T10:56:09Z</time>
      </trkpt>
      <trkpt lat="45.94695" lon="4.84969">
        <ele>269</ele>
        <time>2017-04-29T10:56:10Z</time>
      </trkpt>
      <trkpt lat="45.94694" lon="4.84961">
        <ele>269</ele>
        <time>2017-04-29T10:56:11Z</time>
      </trkpt>
      <trkpt lat="45.94693" lon="4.84953">
        <ele>269</ele>
        <time>2017-04-29T10:56:12Z</time>
      </trkpt>
      <trkpt lat="45.94692" lon="4.84945">
        <ele>269</ele>
        <time>2017-04-29T10:56:13Z</time>
      </trkpt>
      <trkpt lat="45.94692" lon="4.84936">
        <ele>269</ele>
        <time>2017-04-29T10:56:14Z</time>
      </trkpt>
      <trkpt lat="45.94691" lon="4.84928">
        <ele>269</ele>
        <time>2017-04-29T10:56:15Z</time>
      </trkpt>
      <trkpt lat="45.9469" lon="4.8492">
        <ele>269</ele>
        <time>2017-04-29T10:56:16Z</time>
      </trkpt>
      <trkpt lat="45.94689" lon="4.84911">
        <ele>269</ele>
        <time>2017-04-29T10:56:17Z</time>
      </trkpt>
      <trkpt lat="45.94688" lon="4.84903">
        <ele>268</ele>
        <time>2017-04-29T10:56:18Z</time>
      </trkpt>
      <trkpt lat="45.94687" lon="4.84894">
        <ele>268</ele>
        <time>2017-04-29T10:56:19Z</time>
      </trkpt>
      <trkpt lat="45.94686" lon="4.84886">
        <ele>268</ele>
        <time>2017-04-29T10:56:20Z</time>
      </trkpt>
      <trkpt lat="45.94685" lon="4.84878">
        <ele>268</ele>
        <time>2017-04-29T10:56:21Z</time>
      </trkpt>
      <trkpt lat="45.94684" lon="4.8487">
        <ele>268</ele>
        <time>2017-04-29T10:56:22Z</time>
      </trkpt>
      <trkpt lat="45.94683" lon="4.84862">
        <ele>268</ele>
        <time>2017-04-29T10:56:23Z</time>
      </trkpt>
      <trkpt lat="45.94682" lon="4.84853">
        <ele>268</ele>
        <time>2017-04-29T10:56:24Z</time>
      </trkpt>
      <trkpt lat="45.94681" lon="4.84845">
        <ele>268</ele>
        <time>2017-04-29T10:56:25Z</time>
      </trkpt>
      <trkpt lat="45.94681" lon="4.84837">
        <ele>268</ele>
        <time>2017-04-29T10:56:26Z</time>
      </trkpt>
      <trkpt lat="45.9468" lon="4.8483">
        <ele>268</ele>
        <time>2017-04-29T10:56:27Z</time>
      </trkpt>
      <trkpt lat="45.94679" lon="4.84822">
        <ele>268</ele>
        <time>2017-04-29T10:56:28Z</time>
      </trkpt>
      <trkpt lat="45.94679" lon="4.84814">
        <ele>268</ele>
        <time>2017-04-29T10:56:29Z</time>
      </trkpt>
      <trkpt lat="45.94678" lon="4.84807">
        <ele>268</ele>
        <time>2017-04-29T10:56:30Z</time>
      </trkpt>
      <trkpt lat="45.94677" lon="4.84799">
        <ele>268</ele>
        <time>2017-04-29T10:56:31Z</time>
      </trkpt>
      <trkpt lat="45.94676" lon="4.84791">
        <ele>269</ele>
        <time>2017-04-29T10:56:32Z</time>
      </trkpt>
      <trkpt lat="45.94676" lon="4.84782">
        <ele>269</ele>
        <time>2017-04-29T10:56:33Z</time>
      </trkpt>
      <trkpt lat="45.94676" lon="4.84773">
        <ele>269</ele>
        <time>2017-04-29T10:56:34Z</time>
      </trkpt>
      <trkpt lat="45.94675" lon="4.84765">
        <ele>269</ele>
        <time>2017-04-29T10:56:35Z</time>
      </trkpt>
      <trkpt lat="45.94675" lon="4.84755">
        <ele>269</ele>
        <time>2017-04-29T10:56:36Z</time>
      </trkpt>
      <trkpt lat="45.94674" lon="4.84746">
        <ele>269</ele>
        <time>2017-04-29T10:56:37Z</time>
      </trkpt>
      <trkpt lat="45.94674" lon="4.84737">
        <ele>269</ele>
        <time>2017-04-29T10:56:38Z</time>
      </trkpt>
      <trkpt lat="45.94674" lon="4.84727">
        <ele>269</ele>
        <time>2017-04-29T10:56:39Z</time>
      </trkpt>
      <trkpt lat="45.94673" lon="4.84717">
        <ele>269</ele>
        <time>2017-04-29T10:56:40Z</time>
      </trkpt>
      <trkpt lat="45.94673" lon="4.84708">
        <ele>269</ele>
        <time>2017-04-29T10:56:41Z</time>
      </trkpt>
      <trkpt lat="45.94672" lon="4.84699">
        <ele>269</ele>
        <time>2017-04-29T10:56:42Z</time>
      </trkpt>
      <trkpt lat="45.94672" lon="4.84691">
        <ele>269</ele>
        <time>2017-04-29T10:56:43Z</time>
      </trkpt>
      <trkpt lat="45.94671" lon="4.84683">
        <ele>269</ele>
        <time>2017-04-29T10:56:44Z</time>
      </trkpt>
      <trkpt lat="45.94671" lon="4.84674">
        <ele>269</ele>
        <time>2017-04-29T10:56:45Z</time>
      </trkpt>
      <trkpt lat="45.9467" lon="4.84667">
        <ele>269</ele>
        <time>2017-04-29T10:56:46Z</time>
      </trkpt>
      <trkpt lat="45.9467" lon="4.84659">
        <ele>269</ele>
        <time>2017-04-29T10:56:47Z</time>
      </trkpt>
      <trkpt lat="45.9467" lon="4.84651">
        <ele>268</ele>
        <time>2017-04-29T10:56:48Z</time>
      </trkpt>
      <trkpt lat="45.94669" lon="4.84643">
        <ele>268</ele>
        <time>2017-04-29T10:56:49Z</time>
      </trkpt>
      <trkpt lat="45.94669" lon="4.84635">
        <ele>268</ele>
        <time>2017-04-29T10:56:50Z</time>
      </trkpt>
      <trkpt lat="45.94669" lon="4.84626">
        <ele>268</ele>
        <time>2017-04-29T10:56:51Z</time>
      </trkpt>
      <trkpt lat="45.94669" lon="4.84619">
        <ele>268</ele>
        <time>2017-04-29T10:56:52Z</time>
      </trkpt>
      <trkpt lat="45.94668" lon="4.84611">
        <ele>268</ele>
        <time>2017-04-29T10:56:53Z</time>
      </trkpt>
      <trkpt lat="45.94668" lon="4.84603">
        <ele>268</ele>
        <time>2017-04-29T10:56:54Z</time>
      </trkpt>
      <trkpt lat="45.94668" lon="4.84595">
        <ele>268</ele>
        <time>2017-04-29T10:56:55Z</time>
      </trkpt>
      <trkpt lat="45.94667" lon="4.84588">
        <ele>268</ele>
        <time>2017-04-29T10:56:56Z</time>
      </trkpt>
      <trkpt lat="45.94667" lon="4.8458">
        <ele>268</ele>
        <time>2017-04-29T10:56:57Z</time>
      </trkpt>
      <trkpt lat="45.94667" lon="4.84572">
        <ele>268</ele>
        <time>2017-04-29T10:56:58Z</time>
      </trkpt>
      <trkpt lat="45.94667" lon="4.84564">
        <ele>268</ele>
        <time>2017-04-29T10:56:59Z</time>
      </trkpt>
      <trkpt lat="45.94666" lon="4.84556">
        <ele>268</ele>
        <time>2017-04-29T10:57:00Z</time>
      </trkpt>
      <trkpt lat="45.94665" lon="4.84548">
        <ele>268</ele>
        <time>2017-04-29T10:57:01Z</time>
      </trkpt>
      <trkpt lat="45.94665" lon="4.8454">
        <ele>268</ele>
        <time>2017-04-29T10:57:02Z</time>
      </trkpt>
      <trkpt lat="45.94664" lon="4.84531">
        <ele>268</ele>
        <time>2017-04-29T10:57:03Z</time>
      </trkpt>
      <trkpt lat="45.94663" lon="4.84523">
        <ele>268</ele>
        <time>2017-04-29T10:57:04Z</time>
      </trkpt>
      <trkpt lat="45.94662" lon="4.84515">
        <ele>268</ele>
        <time>2017-04-29T10:57:05Z</time>
      </trkpt>
      <trkpt lat="45.94661" lon="4.84507">
        <ele>268</ele>
        <time>2017-04-29T10:57:06Z</time>
      </trkpt>
      <trkpt lat="45.9466" lon="4.84498">
        <ele>268</ele>
        <time>2017-04-29T10:57:07Z</time>
      </trkpt>
      <trkpt lat="45.94659" lon="4.8449">
        <ele>268</ele>
        <time>2017-04-29T10:57:08Z</time>
      </trkpt>
      <trkpt lat="45.94659" lon="4.84482">
        <ele>268</ele>
        <time>2017-04-29T10:57:09Z</time>
      </trkpt>
      <trkpt lat="45.94658" lon="4.84473">
        <ele>268</ele>
        <time>2017-04-29T10:57:10Z</time>
      </trkpt>
      <trkpt lat="45.94657" lon="4.84465">
        <ele>268</ele>
        <time>2017-04-29T10:57:11Z</time>
      </trkpt>
      <trkpt lat="45.94656" lon="4.84456">
        <ele>268</ele>
        <time>2017-04-29T10:57:12Z</time>
      </trkpt>
      <trkpt lat="45.94655" lon="4.84447">
        <ele>268</ele>
        <time>2017-04-29T10:57:13Z</time>
      </trkpt>
      <trkpt lat="45.94654" lon="4.84439">
        <ele>268</ele>
        <time>2017-04-29T10:57:14Z</time>
      </trkpt>
      <trkpt lat="45.94653" lon="4.84431">
        <ele>268</ele>
        <time>2017-04-29T10:57:15Z</time>
      </trkpt>
      <trkpt lat="45.94652" lon="4.84423">
        <ele>268</ele>
        <time>2017-04-29T10:57:16Z</time>
      </trkpt>
      <trkpt lat="45.94651" lon="4.84414">
        <ele>268</ele>
        <time>2017-04-29T10:57:17Z</time>
      </trkpt>
      <trkpt lat="45.9465" lon="4.84406">
        <ele>268</ele>
        <time>2017-04-29T10:57:18Z</time>
      </trkpt>
      <trkpt lat="45.94649" lon="4.84397">
        <ele>268</ele>
        <time>2017-04-29T10:57:19Z</time>
      </trkpt>
      <trkpt lat="45.94648" lon="4.84389">
        <ele>268</ele>
        <time>2017-04-29T10:57:20Z</time>
      </trkpt>
      <trkpt lat="45.94647" lon="4.84382">
        <ele>268</ele>
        <time>2017-04-29T10:57:21Z</time>
      </trkpt>
      <trkpt lat="45.94647" lon="4.84374">
        <ele>268</ele>
        <time>2017-04-29T10:57:22Z</time>
      </trkpt>
      <trkpt lat="45.94646" lon="4.84367">
        <ele>268</ele>
        <time>2017-04-29T10:57:23Z</time>
      </trkpt>
      <trkpt lat="45.94645" lon="4.84359">
        <ele>268</ele>
        <time>2017-04-29T10:57:24Z</time>
      </trkpt>
      <trkpt lat="45.94644" lon="4.84351">
        <ele>268</ele>
        <time>2017-04-29T10:57:25Z</time>
      </trkpt>
      <trkpt lat="45.94642" lon="4.84343">
        <ele>268</ele>
        <time>2017-04-29T10:57:26Z</time>
      </trkpt>
      <trkpt lat="45.94641" lon="4.84334">
        <ele>268</ele>
        <time>2017-04-29T10:57:27Z</time>
      </trkpt>
      <trkpt lat="45.9464" lon="4.84326">
        <ele>269</ele>
        <time>2017-04-29T10:57:28Z</time>
      </trkpt>
      <trkpt lat="45.94639" lon="4.84316">
        <ele>269</ele>
        <time>2017-04-29T10:57:29Z</time>
      </trkpt>
      <trkpt lat="45.94638" lon="4.84308">
        <ele>269</ele>
        <time>2017-04-29T10:57:30Z</time>
      </trkpt>
      <trkpt lat="45.94637" lon="4.84299">
        <ele>269</ele>
        <time>2017-04-29T10:57:31Z</time>
      </trkpt>
      <trkpt lat="45.94636" lon="4.84291">
        <ele>269</ele>
        <time>2017-04-29T10:57:32Z</time>
      </trkpt>
      <trkpt lat="45.94635" lon="4.84283">
        <ele>269</ele>
        <time>2017-04-29T10:57:33Z</time>
      </trkpt>
      <trkpt lat="45.94634" lon="4.84275">
        <ele>269</ele>
        <time>2017-04-29T10:57:34Z</time>
      </trkpt>
      <trkpt lat="45.94633" lon="4.84266">
        <ele>269</ele>
        <time>2017-04-29T10:57:35Z</time>
      </trkpt>
      <trkpt lat="45.94632" lon="4.84258">
        <ele>269</ele>
        <time>2017-04-29T10:57:36Z</time>
      </trkpt>
      <trkpt lat="45.94631" lon="4.8425">
        <ele>269</ele>
        <time>2017-04-29T10:57:37Z</time>
      </trkpt>
      <trkpt lat="45.9463" lon="4.84243">
        <ele>269</ele>
        <time>2017-04-29T10:57:38Z</time>
      </trkpt>
      <trkpt lat="45.94629" lon="4.84236">
        <ele>269</ele>
        <time>2017-04-29T10:57:39Z</time>
      </trkpt>
      <trkpt lat="45.94628" lon="4.84228">
        <ele>269</ele>
        <time>2017-04-29T10:57:40Z</time>
      </trkpt>
      <trkpt lat="45.94627" lon="4.8422">
        <ele>269</ele>
        <time>2017-04-29T10:57:41Z</time>
      </trkpt>
      <trkpt lat="45.94626" lon="4.84212">
        <ele>269</ele>
        <time>2017-04-29T10:57:42Z</time>
      </trkpt>
      <trkpt lat="45.94625" lon="4.84203">
        <ele>269</ele>
        <time>2017-04-29T10:57:43Z</time>
      </trkpt>
      <trkpt lat="45.94624" lon="4.84195">
        <ele>269</ele>
        <time>2017-04-29T10:57:44Z</time>
      </trkpt>
      <trkpt lat="45.94623" lon="4.84186">
        <ele>269</ele>
        <time>2017-04-29T10:57:45Z</time>
      </trkpt>
      <trkpt lat="45.94621" lon="4.84177">
        <ele>269</ele>
        <time>2017-04-29T10:57:46Z</time>
      </trkpt>
      <trkpt lat="45.9462" lon="4.84168">
        <ele>269</ele>
        <time>2017-04-29T10:57:47Z</time>
      </trkpt>
      <trkpt lat="45.94618" lon="4.84159">
        <ele>269</ele>
        <time>2017-04-29T10:57:48Z</time>
      </trkpt>
      <trkpt lat="45.94617" lon="4.8415">
        <ele>269</ele>
        <time>2017-04-29T10:57:49Z</time>
      </trkpt>
      <trkpt lat="45.94616" lon="4.84142">
        <ele>269</ele>
        <time>2017-04-29T10:57:50Z</time>
      </trkpt>
      <trkpt lat="45.94615" lon="4.84134">
        <ele>269</ele>
        <time>2017-04-29T10:57:51Z</time>
      </trkpt>
      <trkpt lat="45.94613" lon="4.84127">
        <ele>269</ele>
        <time>2017-04-29T10:57:52Z</time>
      </trkpt>
      <trkpt lat="45.94612" lon="4.84119">
        <ele>269</ele>
        <time>2017-04-29T10:57:53Z</time>
      </trkpt>
      <trkpt lat="45.94611" lon="4.84111">
        <ele>269</ele>
        <time>2017-04-29T10:57:54Z</time>
      </trkpt>
      <trkpt lat="45.9461" lon="4.84103">
        <ele>269</ele>
        <time>2017-04-29T10:57:55Z</time>
      </trkpt>
      <trkpt lat="45.94609" lon="4.84095">
        <ele>269</ele>
        <time>2017-04-29T10:57:56Z</time>
      </trkpt>
      <trkpt lat="45.94607" lon="4.84086">
        <ele>269</ele>
        <time>2017-04-29T10:57:57Z</time>
      </trkpt>
      <trkpt lat="45.94606" lon="4.84077">
        <ele>269</ele>
        <time>2017-04-29T10:57:58Z</time>
      </trkpt>
      <trkpt lat="45.94604" lon="4.84069">
        <ele>269</ele>
        <time>2017-04-29T10:57:59Z</time>
      </trkpt>
      <trkpt lat="45.94603" lon="4.8406">
        <ele>269</ele>
        <time>2017-04-29T10:58:00Z</time>
      </trkpt>
      <trkpt lat="45.94602" lon="4.84051">
        <ele>269</ele>
        <time>2017-04-29T10:58:01Z</time>
      </trkpt>
      <trkpt lat="45.946" lon="4.84042">
        <ele>269</ele>
        <time>2017-04-29T10:58:02Z</time>
      </trkpt>
      <trkpt lat="45.94599" lon="4.84033">
        <ele>269</ele>
        <time>2017-04-29T10:58:03Z</time>
      </trkpt>
      <trkpt lat="45.94597" lon="4.84025">
        <ele>269</ele>
        <time>2017-04-29T10:58:04Z</time>
      </trkpt>
      <trkpt lat="45.94596" lon="4.84016">
        <ele>269</ele>
        <time>2017-04-29T10:58:05Z</time>
      </trkpt>
      <trkpt lat="45.94595" lon="4.84008">
        <ele>269</ele>
        <time>2017-04-29T10:58:06Z</time>
      </trkpt>
      <trkpt lat="45.94593" lon="4.83999">
        <ele>269</ele>
        <time>2017-04-29T10:58:07Z</time>
      </trkpt>
      <trkpt lat="45.94592" lon="4.83991">
        <ele>269</ele>
        <time>2017-04-29T10:58:08Z</time>
      </trkpt>
      <trkpt lat="45.9459" lon="4.83983">
        <ele>268</ele>
        <time>2017-04-29T10:58:09Z</time>
      </trkpt>
      <trkpt lat="45.94589" lon="4.83975">
        <ele>268</ele>
        <time>2017-04-29T10:58:10Z</time>
      </trkpt>
      <trkpt lat="45.94588" lon="4.83966">
        <ele>268</ele>
        <time>2017-04-29T10:58:11Z</time>
      </trkpt>
      <trkpt lat="45.94586" lon="4.83958">
        <ele>268</ele>
        <time>2017-04-29T10:58:12Z</time>
      </trkpt>
      <trkpt lat="45.94585" lon="4.83949">
        <ele>268</ele>
        <time>2017-04-29T10:58:13Z</time>
      </trkpt>
      <trkpt lat="45.94583" lon="4.8394">
        <ele>269</ele>
        <time>2017-04-29T10:58:14Z</time>
      </trkpt>
      <trkpt lat="45.94582" lon="4.83931">
        <ele>268</ele>
        <time>2017-04-29T10:58:15Z</time>
      </trkpt>
      <trkpt lat="45.9458" lon="4.83922">
        <ele>268</ele>
        <time>2017-04-29T10:58:16Z</time>
      </trkpt>
      <trkpt lat="45.94578" lon="4.83912">
        <ele>268</ele>
        <time>2017-04-29T10:58:17Z</time>
      </trkpt>
      <trkpt lat="45.94577" lon="4.83902">
        <ele>268</ele>
        <time>2017-04-29T10:58:18Z</time>
      </trkpt>
      <trkpt lat="45.94576" lon="4.83892">
        <ele>267</ele>
        <time>2017-04-29T10:58:19Z</time>
      </trkpt>
      <trkpt lat="45.94574" lon="4.83881">
        <ele>267</ele>
        <time>2017-04-29T10:58:20Z</time>
      </trkpt>
      <trkpt lat="45.94573" lon="4.83871">
        <ele>267</ele>
        <time>2017-04-29T10:58:21Z</time>
      </trkpt>
      <trkpt lat="45.94571" lon="4.8386">
        <ele>267</ele>
        <time>2017-04-29T10:58:22Z</time>
      </trkpt>
      <trkpt lat="45.94569" lon="4.83848">
        <ele>266</ele>
        <time>2017-04-29T10:58:23Z</time>
      </trkpt>
      <trkpt lat="45.94568" lon="4.83837">
        <ele>266</ele>
        <time>2017-04-29T10:58:24Z</time>
      </trkpt>
      <trkpt lat="45.94566" lon="4.83826">
        <ele>265</ele>
        <time>2017-04-29T10:58:25Z</time>
      </trkpt>
      <trkpt lat="45.94564" lon="4.83814">
        <ele>264</ele>
        <time>2017-04-29T10:58:26Z</time>
      </trkpt>
      <trkpt lat="45.94562" lon="4.83803">
        <ele>264</ele>
        <time>2017-04-29T10:58:27Z</time>
      </trkpt>
      <trkpt lat="45.94561" lon="4.83791">
        <ele>264</ele>
        <time>2017-04-29T10:58:28Z</time>
      </trkpt>
      <trkpt lat="45.94559" lon="4.8378">
        <ele>264</ele>
        <time>2017-04-29T10:58:29Z</time>
      </trkpt>
      <trkpt lat="45.94557" lon="4.83769">
        <ele>263</ele>
        <time>2017-04-29T10:58:30Z</time>
      </trkpt>
      <trkpt lat="45.94555" lon="4.83757">
        <ele>263</ele>
        <time>2017-04-29T10:58:31Z</time>
      </trkpt>
      <trkpt lat="45.94554" lon="4.83747">
        <ele>262</ele>
        <time>2017-04-29T10:58:32Z</time>
      </trkpt>
      <trkpt lat="45.94552" lon="4.83736">
        <ele>262</ele>
        <time>2017-04-29T10:58:33Z</time>
      </trkpt>
      <trkpt lat="45.9455" lon="4.83725">
        <ele>262</ele>
        <time>2017-04-29T10:58:34Z</time>
      </trkpt>
      <trkpt lat="45.94549" lon="4.83715">
        <ele>262</ele>
        <time>2017-04-29T10:58:35Z</time>
      </trkpt>
      <trkpt lat="45.94547" lon="4.83705">
        <ele>262</ele>
        <time>2017-04-29T10:58:36Z</time>
      </trkpt>
      <trkpt lat="45.94545" lon="4.83695">
        <ele>262</ele>
        <time>2017-04-29T10:58:37Z</time>
      </trkpt>
      <trkpt lat="45.94544" lon="4.83685">
        <ele>262</ele>
        <time>2017-04-29T10:58:38Z</time>
      </trkpt>
      <trkpt lat="45.94542" lon="4.83675">
        <ele>262</ele>
        <time>2017-04-29T10:58:39Z</time>
      </trkpt>
      <trkpt lat="45.9454" lon="4.83665">
        <ele>261</ele>
        <time>2017-04-29T10:58:40Z</time>
      </trkpt>
      <trkpt lat="45.94539" lon="4.83656">
        <ele>261</ele>
        <time>2017-04-29T10:58:41Z</time>
      </trkpt>
      <trkpt lat="45.94537" lon="4.83647">
        <ele>261</ele>
        <time>2017-04-29T10:58:42Z</time>
      </trkpt>
      <trkpt lat="45.94536" lon="4.83638">
        <ele>261</ele>
        <time>2017-04-29T10:58:43Z</time>
      </trkpt>
      <trkpt lat="45.94535" lon="4.83629">
        <ele>261</ele>
        <time>2017-04-29T10:58:44Z</time>
      </trkpt>
      <trkpt lat="45.94533" lon="4.83621">
        <ele>261</ele>
        <time>2017-04-29T10:58:45Z</time>
      </trkpt>
      <trkpt lat="45.94531" lon="4.83613">
        <ele>261</ele>
        <time>2017-04-29T10:58:46Z</time>
      </trkpt>
      <trkpt lat="45.9453" lon="4.83605">
        <ele>261</ele>
        <time>2017-04-29T10:58:47Z</time>
      </trkpt>
      <trkpt lat="45.94528" lon="4.83597">
        <ele>261</ele>
        <time>2017-04-29T10:58:48Z</time>
      </trkpt>
      <trkpt lat="45.94526" lon="4.8359">
        <ele>261</ele>
        <time>2017-04-29T10:58:49Z</time>
      </trkpt>
      <trkpt lat="45.94524" lon="4.83582">
        <ele>261</ele>
        <time>2017-04-29T10:58:50Z</time>
      </trkpt>
      <trkpt lat="45.94522" lon="4.83574">
        <ele>261</ele>
        <time>2017-04-29T10:58:51Z</time>
      </trkpt>
      <trkpt lat="45.9452" lon="4.83567">
        <ele>261</ele>
        <time>2017-04-29T10:58:52Z</time>
      </trkpt>
      <trkpt lat="45.94517" lon="4.8356">
        <ele>261</ele>
        <time>2017-04-29T10:58:53Z</time>
      </trkpt>
      <trkpt lat="45.94514" lon="4.83553">
        <ele>261</ele>
        <time>2017-04-29T10:58:54Z</time>
      </trkpt>
      <trkpt lat="45.9451" lon="4.83546">
        <ele>261</ele>
        <time>2017-04-29T10:58:55Z</time>
      </trkpt>
      <trkpt lat="45.94506" lon="4.8354">
        <ele>262</ele>
        <time>2017-04-29T10:58:56Z</time>
      </trkpt>
      <trkpt lat="45.94503" lon="4.83533">
        <ele>262</ele>
        <time>2017-04-29T10:58:57Z</time>
      </trkpt>
      <trkpt lat="45.94498" lon="4.83526">
        <ele>262</ele>
        <time>2017-04-29T10:58:58Z</time>
      </trkpt>
      <trkpt lat="45.94494" lon="4.8352">
        <ele>262</ele>
        <time>2017-04-29T10:58:59Z</time>
      </trkpt>
      <trkpt lat="45.9449" lon="4.83513">
        <ele>262</ele>
        <time>2017-04-29T10:59:00Z</time>
      </trkpt>
      <trkpt lat="45.94485" lon="4.83506">
        <ele>262</ele>
        <time>2017-04-29T10:59:01Z</time>
      </trkpt>
      <trkpt lat="45.94481" lon="4.83499">
        <ele>263</ele>
        <time>2017-04-29T10:59:02Z</time>
      </trkpt>
      <trkpt lat="45.94477" lon="4.83493">
        <ele>263</ele>
        <time>2017-04-29T10:59:03Z</time>
      </trkpt>
      <trkpt lat="45.94473" lon="4.83486">
        <ele>263</ele>
        <time>2017-04-29T10:59:04Z</time>
      </trkpt>
      <trkpt lat="45.9447" lon="4.83479">
        <ele>263</ele>
        <time>2017-04-29T10:59:05Z</time>
      </trkpt>
      <trkpt lat="45.94466" lon="4.83473">
        <ele>263</ele>
        <time>2017-04-29T10:59:06Z</time>
      </trkpt>
      <trkpt lat="45.94463" lon="4.83467">
        <ele>263</ele>
        <time>2017-04-29T10:59:07Z</time>
      </trkpt>
      <trkpt lat="45.94459" lon="4.83461">
        <ele>263</ele>
        <time>2017-04-29T10:59:08Z</time>
      </trkpt>
      <trkpt lat="45.94456" lon="4.83455">
        <ele>263</ele>
        <time>2017-04-29T10:59:09Z</time>
      </trkpt>
      <trkpt lat="45.94452" lon="4.83449">
        <ele>263</ele>
        <time>2017-04-29T10:59:10Z</time>
      </trkpt>
      <trkpt lat="45.94449" lon="4.83442">
        <ele>263</ele>
        <time>2017-04-29T10:59:11Z</time>
      </trkpt>
      <trkpt lat="45.94445" lon="4.83435">
        <ele>263</ele>
        <time>2017-04-29T10:59:12Z</time>
      </trkpt>
      <trkpt lat="45.94442" lon="4.83429">
        <ele>264</ele>
        <time>2017-04-29T10:59:13Z</time>
      </trkpt>
      <trkpt lat="45.94438" lon="4.83422">
        <ele>264</ele>
        <time>2017-04-29T10:59:14Z</time>
      </trkpt>
      <trkpt lat="45.94435" lon="4.83416">
        <ele>264</ele>
        <time>2017-04-29T10:59:15Z</time>
      </trkpt>
      <trkpt lat="45.94432" lon="4.83409">
        <ele>264</ele>
        <time>2017-04-29T10:59:16Z</time>
      </trkpt>
      <trkpt lat="45.94428" lon="4.83403">
        <ele>264</ele>
        <time>2017-04-29T10:59:17Z</time>
      </trkpt>
      <trkpt lat="45.94425" lon="4.83397">
        <ele>264</ele>
        <time>2017-04-29T10:59:18Z</time>
      </trkpt>
      <trkpt lat="45.94422" lon="4.83391">
        <ele>264</ele>
        <time>2017-04-29T10:59:19Z</time>
      </trkpt>
      <trkpt lat="45.94419" lon="4.83384">
        <ele>264</ele>
        <time>2017-04-29T10:59:20Z</time>
      </trkpt>
      <trkpt lat="45.94417" lon="4.83378">
        <ele>264</ele>
        <time>2017-04-29T10:59:21Z</time>
      </trkpt>
      <trkpt lat="45.94414" lon="4.83373">
        <ele>264</ele>
        <time>2017-04-29T10:59:22Z</time>
      </trkpt>
      <trkpt lat="45.94412" lon="4.83366">
        <ele>264</ele>
        <time>2017-04-29T10:59:23Z</time>
      </trkpt>
      <trkpt lat="45.9441" lon="4.8336">
        <ele>264</ele>
        <time>2017-04-29T10:59:24Z</time>
      </trkpt>
      <trkpt lat="45.94407" lon="4.83354">
        <ele>263</ele>
        <time>2017-04-29T10:59:25Z</time>
      </trkpt>
      <trkpt lat="45.94405" lon="4.83348">
        <ele>263</ele>
        <time>2017-04-29T10:59:26Z</time>
      </trkpt>
      <trkpt lat="45.94403" lon="4.83342">
        <ele>263</ele>
        <time>2017-04-29T10:59:27Z</time>
      </trkpt>
      <trkpt lat="45.94401" lon="4.83336">
        <ele>263</ele>
        <time>2017-04-29T10:59:28Z</time>
      </trkpt>
      <trkpt lat="45.94398" lon="4.8333">
        <ele>264</ele>
        <time>2017-04-29T10:59:29Z</time>
      </trkpt>
      <trkpt lat="45.94395" lon="4.83325">
        <ele>264</ele>
        <time>2017-04-29T10:59:30Z</time>
      </trkpt>
      <trkpt lat="45.94393" lon="4.83319">
        <ele>264</ele>
        <time>2017-04-29T10:59:31Z</time>
      </trkpt>
      <trkpt lat="45.94391" lon="4.83312">
        <ele>264</ele>
        <time>2017-04-29T10:59:32Z</time>
      </trkpt>
      <trkpt lat="45.94389" lon="4.83306">
        <ele>264</ele>
        <time>2017-04-29T10:59:33Z</time>
      </trkpt>
      <trkpt lat="45.94386" lon="4.83299">
        <ele>264</ele>
        <time>2017-04-29T10:59:34Z</time>
      </trkpt>
      <trkpt lat="45.94384" lon="4.83293">
        <ele>264</ele>
        <time>2017-04-29T10:59:35Z</time>
      </trkpt>
      <trkpt lat="45.94382" lon="4.83286">
        <ele>264</ele>
        <time>2017-04-29T10:59:36Z</time>
      </trkpt>
      <trkpt lat="45.9438" lon="4.83279">
        <ele>264</ele>
        <time>2017-04-29T10:59:37Z</time>
      </trkpt>
      <trkpt lat="45.94377" lon="4.83273">
        <ele>264</ele>
        <time>2017-04-29T10:59:38Z</time>
      </trkpt>
      <trkpt lat="45.94375" lon="4.83266">
        <ele>264</ele>
        <time>2017-04-29T10:59:39Z</time>
      </trkpt>
      <trkpt lat="45.94372" lon="4.83259">
        <ele>265</ele>
        <time>2017-04-29T10:59:40Z</time>
      </trkpt>
      <trkpt lat="45.9437" lon="4.83253">
        <ele>265</ele>
        <time>2017-04-29T10:59:41Z</time>
      </trkpt>
      <trkpt lat="45.94367" lon="4.83247">
        <ele>265</ele>
        <time>2017-04-29T10:59:42Z</time>
      </trkpt>
      <trkpt lat="45.94365" lon="4.8324">
        <ele>265</ele>
        <time>2017-04-29T10:59:43Z</time>
      </trkpt>
      <trkpt lat="45.94363" lon="4.83233">
        <ele>266</ele>
        <time>2017-04-29T10:59:44Z</time>
      </trkpt>
      <trkpt lat="45.9436" lon="4.83227">
        <ele>266</ele>
        <time>2017-04-29T10:59:45Z</time>
      </trkpt>
      <trkpt lat="45.94358" lon="4.8322">
        <ele>266</ele>
        <time>2017-04-29T10:59:46Z</time>
      </trkpt>
      <trkpt lat="45.94355" lon="4.83213">
        <ele>266</ele>
        <time>2017-04-29T10:59:47Z</time>
      </trkpt>
      <trkpt lat="45.94353" lon="4.83206">
        <ele>266</ele>
        <time>2017-04-29T10:59:48Z</time>
      </trkpt>
      <trkpt lat="45.9435" lon="4.832">
        <ele>266</ele>
        <time>2017-04-29T10:59:49Z</time>
      </trkpt>
      <trkpt lat="45.94348" lon="4.83193">
        <ele>266</ele>
        <time>2017-04-29T10:59:50Z</time>
      </trkpt>
      <trkpt lat="45.94346" lon="4.83186">
        <ele>266</ele>
        <time>2017-04-29T10:59:51Z</time>
      </trkpt>
      <trkpt lat="45.94343" lon="4.83179">
        <ele>266</ele>
        <time>2017-04-29T10:59:52Z</time>
      </trkpt>
      <trkpt lat="45.94341" lon="4.83173">
        <ele>266</ele>
        <time>2017-04-29T10:59:53Z</time>
      </trkpt>
      <trkpt lat="45.94338" lon="4.83166">
        <ele>266</ele>
        <time>2017-04-29T10:59:54Z</time>
      </trkpt>
      <trkpt lat="45.94336" lon="4.83159">
        <ele>266</ele>
        <time>2017-04-29T10:59:55Z</time>
      </trkpt>
      <trkpt lat="45.94334" lon="4.83152">
        <ele>266</ele>
        <time>2017-04-29T10:59:56Z</time>
      </trkpt>
      <trkpt lat="45.94332" lon="4.83146">
        <ele>266</ele>
        <time>2017-04-29T10:59:57Z</time>
      </trkpt>
      <trkpt lat="45.94329" lon="4.83139">
        <ele>266</ele>
        <time>2017-04-29T10:59:58Z</time>
      </trkpt>
      <trkpt lat="45.94327" lon="4.83133">
        <ele>266</ele>
        <time>2017-04-29T10:59:59Z</time>
      </trkpt>
      <trkpt lat="45.94325" lon="4.83126">
        <ele>266</ele>
        <time>2017-04-29T11:00:00Z</time>
      </trkpt>
      <trkpt lat="45.94323" lon="4.8312">
        <ele>266</ele>
        <time>2017-04-29T11:00:01Z</time>
      </trkpt>
      <trkpt lat="45.94321" lon="4.83114">
        <ele>266</ele>
        <time>2017-04-29T11:00:02Z</time>
      </trkpt>
      <trkpt lat="45.94319" lon="4.83107">
        <ele>266</ele>
        <time>2017-04-29T11:00:03Z</time>
      </trkpt>
      <trkpt lat="45.94317" lon="4.83101">
        <ele>266</ele>
        <time>2017-04-29T11:00:04Z</time>
      </trkpt>
      <trkpt lat="45.94316" lon="4.83093">
        <ele>266</ele>
        <time>2017-04-29T11:00:05Z</time>
      </trkpt>
      <trkpt lat="45.94314" lon="4.83086">
        <ele>266</ele>
        <time>2017-04-29T11:00:06Z</time>
      </trkpt>
      <trkpt lat="45.94312" lon="4.83078">
        <ele>266</ele>
        <time>2017-04-29T11:00:07Z</time>
      </trkpt>
      <trkpt lat="45.9431" lon="4.83071">
        <ele>266</ele>
        <time>2017-04-29T11:00:08Z</time>
      </trkpt>
      <trkpt lat="45.94308" lon="4.83063">
        <ele>266</ele>
        <time>2017-04-29T11:00:09Z</time>
      </trkpt>
      <trkpt lat="45.94306" lon="4.83056">
        <ele>266</ele>
        <time>2017-04-29T11:00:10Z</time>
      </trkpt>
      <trkpt lat="45.94304" lon="4.83049">
        <ele>266</ele>
        <time>2017-04-29T11:00:11Z</time>
      </trkpt>
      <trkpt lat="45.94303" lon="4.83041">
        <ele>266</ele>
        <time>2017-04-29T11:00:12Z</time>
      </trkpt>
      <trkpt lat="45.94301" lon="4.83034">
        <ele>266</ele>
        <time>2017-04-29T11:00:13Z</time>
      </trkpt>
      <trkpt lat="45.94299" lon="4.83027">
        <ele>266</ele>
        <time>2017-04-29T11:00:14Z</time>
      </trkpt>
      <trkpt lat="45.94298" lon="4.8302">
        <ele>266</ele>
        <time>2017-04-29T11:00:15Z</time>
      </trkpt>
      <trkpt lat="45.94297" lon="4.83013">
        <ele>266</ele>
        <time>2017-04-29T11:00:16Z</time>
      </trkpt>
      <trkpt lat="45.94296" lon="4.83007">
        <ele>266</ele>
        <time>2017-04-29T11:00:17Z</time>
      </trkpt>
      <trkpt lat="45.94294" lon="4.83">
        <ele>266</ele>
        <time>2017-04-29T11:00:18Z</time>
      </trkpt>
      <trkpt lat="45.94293" lon="4.82994">
        <ele>265</ele>
        <time>2017-04-29T11:00:19Z</time>
      </trkpt>
      <trkpt lat="45.94291" lon="4.82988">
        <ele>265</ele>
        <time>2017-04-29T11:00:20Z</time>
      </trkpt>
      <trkpt lat="45.9429" lon="4.82981">
        <ele>265</ele>
        <time>2017-04-29T11:00:21Z</time>
      </trkpt>
      <trkpt lat="45.94288" lon="4.82975">
        <ele>265</ele>
        <time>2017-04-29T11:00:22Z</time>
      </trkpt>
      <trkpt lat="45.94286" lon="4.82969">
        <ele>265</ele>
        <time>2017-04-29T11:00:23Z</time>
      </trkpt>
      <trkpt lat="45.94283" lon="4.82963">
        <ele>265</ele>
        <time>2017-04-29T11:00:24Z</time>
      </trkpt>
      <trkpt lat="45.94282" lon="4.82957">
        <ele>265</ele>
        <time>2017-04-29T11:00:25Z</time>
      </trkpt>
      <trkpt lat="45.94281" lon="4.8295">
        <ele>265</ele>
        <time>2017-04-29T11:00:26Z</time>
      </trkpt>
      <trkpt lat="45.94281" lon="4.82942">
        <ele>265</ele>
        <time>2017-04-29T11:00:27Z</time>
      </trkpt>
      <trkpt lat="45.94282" lon="4.82935">
        <ele>265</ele>
        <time>2017-04-29T11:00:28Z</time>
      </trkpt>
      <trkpt lat="45.94283" lon="4.82927">
        <ele>265</ele>
        <time>2017-04-29T11:00:29Z</time>
      </trkpt>
      <trkpt lat="45.94284" lon="4.8292">
        <ele>265</ele>
        <time>2017-04-29T11:00:30Z</time>
      </trkpt>
      <trkpt lat="45.94286" lon="4.82912">
        <ele>265</ele>
        <time>2017-04-29T11:00:31Z</time>
      </trkpt>
      <trkpt lat="45.94287" lon="4.82903">
        <ele>265</ele>
        <time>2017-04-29T11:00:32Z</time>
      </trkpt>
      <trkpt lat="45.94288" lon="4.82895">
        <ele>265</ele>
        <time>2017-04-29T11:00:33Z</time>
      </trkpt>
      <trkpt lat="45.94289" lon="4.82886">
        <ele>265</ele>
        <time>2017-04-29T11:00:34Z</time>
      </trkpt>
      <trkpt lat="45.94289" lon="4.82877">
        <ele>265</ele>
        <time>2017-04-29T11:00:35Z</time>
      </trkpt>
      <trkpt lat="45.9429" lon="4.82868">
        <ele>265</ele>
        <time>2017-04-29T11:00:36Z</time>
      </trkpt>
      <trkpt lat="45.9429" lon="4.82859">
        <ele>265</ele>
        <time>2017-04-29T11:00:37Z</time>
      </trkpt>
      <trkpt lat="45.9429" lon="4.82851">
        <ele>265</ele>
        <time>2017-04-29T11:00:38Z</time>
      </trkpt>
      <trkpt lat="45.94291" lon="4.82842">
        <ele>265</ele>
        <time>2017-04-29T11:00:39Z</time>
      </trkpt>
      <trkpt lat="45.94291" lon="4.82833">
        <ele>265</ele>
        <time>2017-04-29T11:00:40Z</time>
      </trkpt>
      <trkpt lat="45.94292" lon="4.82825">
        <ele>265</ele>
        <time>2017-04-29T11:00:41Z</time>
      </trkpt>
      <trkpt lat="45.94292" lon="4.82816">
        <ele>265</ele>
        <time>2017-04-29T11:00:42Z</time>
      </trkpt>
      <trkpt lat="45.94292" lon="4.82808">
        <ele>265</ele>
        <time>2017-04-29T11:00:43Z</time>
      </trkpt>
      <trkpt lat="45.94293" lon="4.828">
        <ele>265</ele>
        <time>2017-04-29T11:00:44Z</time>
      </trkpt>
      <trkpt lat="45.94293" lon="4.82791">
        <ele>265</ele>
        <time>2017-04-29T11:00:45Z</time>
      </trkpt>
      <trkpt lat="45.94293" lon="4.82783">
        <ele>265</ele>
        <time>2017-04-29T11:00:46Z</time>
      </trkpt>
      <trkpt lat="45.94293" lon="4.82775">
        <ele>265</ele>
        <time>2017-04-29T11:00:47Z</time>
      </trkpt>
      <trkpt lat="45.94293" lon="4.82767">
        <ele>265</ele>
        <time>2017-04-29T11:00:48Z</time>
      </trkpt>
      <trkpt lat="45.94293" lon="4.82758">
        <ele>265</ele>
        <time>2017-04-29T11:00:49Z</time>
      </trkpt>
      <trkpt lat="45.94293" lon="4.8275">
        <ele>265</ele>
        <time>2017-04-29T11:00:50Z</time>
      </trkpt>
      <trkpt lat="45.94293" lon="4.82742">
        <ele>265</ele>
        <time>2017-04-29T11:00:51Z</time>
      </trkpt>
      <trkpt lat="45.94293" lon="4.82733">
        <ele>265</ele>
        <time>2017-04-29T11:00:52Z</time>
      </trkpt>
      <trkpt lat="45.94294" lon="4.82724">
        <ele>265</ele>
        <time>2017-04-29T11:00:53Z</time>
      </trkpt>
      <trkpt lat="45.94294" lon="4.82715">
        <ele>265</ele>
        <time>2017-04-29T11:00:54Z</time>
      </trkpt>
      <trkpt lat="45.94294" lon="4.82707">
        <ele>265</ele>
        <time>2017-04-29T11:00:55Z</time>
      </trkpt>
      <trkpt lat="45.94294" lon="4.82698">
        <ele>265</ele>
        <time>2017-04-29T11:00:56Z</time>
      </trkpt>
      <trkpt lat="45.94294" lon="4.82689">
        <ele>265</ele>
        <time>2017-04-29T11:00:57Z</time>
      </trkpt>
      <trkpt lat="45.94294" lon="4.82679">
        <ele>265</ele>
        <time>2017-04-29T11:00:58Z</time>
      </trkpt>
      <trkpt lat="45.94294" lon="4.8267">
        <ele>265</ele>
        <time>2017-04-29T11:00:59Z</time>
      </trkpt>
      <trkpt lat="45.94294" lon="4.82661">
        <ele>265</ele>
        <time>2017-04-29T11:01:00Z</time>
      </trkpt>
      <trkpt lat="45.94294" lon="4.82651">
        <ele>265</ele>
        <time>2017-04-29T11:01:01Z</time>
      </trkpt>
      <trkpt lat="45.94294" lon="4.82642">
        <ele>265</ele>
        <time>2017-04-29T11:01:02Z</time>
      </trkpt>
      <trkpt lat="45.94295" lon="4.82632">
        <ele>265</ele>
        <time>2017-04-29T11:01:03Z</time>
      </trkpt>
      <trkpt lat="45.94295" lon="4.82622">
        <ele>265</ele>
        <time>2017-04-29T11:01:04Z</time>
      </trkpt>
      <trkpt lat="45.94295" lon="4.82612">
        <ele>265</ele>
        <time>2017-04-29T11:01:05Z</time>
      </trkpt>
      <trkpt lat="45.94295" lon="4.82602">
        <ele>265</ele>
        <time>2017-04-29T11:01:06Z</time>
      </trkpt>
      <trkpt lat="45.94295" lon="4.82592">
        <ele>265</ele>
        <time>2017-04-29T11:01:07Z</time>
      </trkpt>
      <trkpt lat="45.94295" lon="4.82582">
        <ele>264</ele>
        <time>2017-04-29T11:01:08Z</time>
      </trkpt>
      <trkpt lat="45.94295" lon="4.82573">
        <ele>264</ele>
        <time>2017-04-29T11:01:09Z</time>
      </trkpt>
      <trkpt lat="45.94295" lon="4.82564">
        <ele>264</ele>
        <time>2017-04-29T11:01:10Z</time>
      </trkpt>
      <trkpt lat="45.94296" lon="4.82554">
        <ele>264</ele>
        <time>2017-04-29T11:01:11Z</time>
      </trkpt>
      <trkpt lat="45.94296" lon="4.82545">
        <ele>264</ele>
        <time>2017-04-29T11:01:12Z</time>
      </trkpt>
      <trkpt lat="45.94296" lon="4.82536">
        <ele>264</ele>
        <time>2017-04-29T11:01:13Z</time>
      </trkpt>
      <trkpt lat="45.94296" lon="4.82526">
        <ele>264</ele>
        <time>2017-04-29T11:01:14Z</time>
      </trkpt>
      <trkpt lat="45.94296" lon="4.82516">
        <ele>264</ele>
        <time>2017-04-29T11:01:15Z</time>
      </trkpt>
      <trkpt lat="45.94296" lon="4.82506">
        <ele>264</ele>
        <time>2017-04-29T11:01:16Z</time>
      </trkpt>
      <trkpt lat="45.94296" lon="4.82495">
        <ele>264</ele>
        <time>2017-04-29T11:01:17Z</time>
      </trkpt>
      <trkpt lat="45.94296" lon="4.82484">
        <ele>264</ele>
        <time>2017-04-29T11:01:18Z</time>
      </trkpt>
      <trkpt lat="45.94296" lon="4.82473">
        <ele>264</ele>
        <time>2017-04-29T11:01:19Z</time>
      </trkpt>
      <trkpt lat="45.94295" lon="4.82462">
        <ele>264</ele>
        <time>2017-04-29T11:01:20Z</time>
      </trkpt>
      <trkpt lat="45.94295" lon="4.82451">
        <ele>264</ele>
        <time>2017-04-29T11:01:21Z</time>
      </trkpt>
      <trkpt lat="45.94294" lon="4.8244">
        <ele>264</ele>
        <time>2017-04-29T11:01:22Z</time>
      </trkpt>
      <trkpt lat="45.94293" lon="4.82429">
        <ele>264</ele>
        <time>2017-04-29T11:01:23Z</time>
      </trkpt>
      <trkpt lat="45.94293" lon="4.82418">
        <ele>264</ele>
        <time>2017-04-29T11:01:24Z</time>
      </trkpt>
      <trkpt lat="45.94292" lon="4.82407">
        <ele>264</ele>
        <time>2017-04-29T11:01:25Z</time>
      </trkpt>
      <trkpt lat="45.94292" lon="4.82396">
        <ele>264</ele>
        <time>2017-04-29T11:01:26Z</time>
      </trkpt>
      <trkpt lat="45.94291" lon="4.82385">
        <ele>264</ele>
        <time>2017-04-29T11:01:27Z</time>
      </trkpt>
      <trkpt lat="45.9429" lon="4.82374">
        <ele>264</ele>
        <time>2017-04-29T11:01:28Z</time>
      </trkpt>
      <trkpt lat="45.9429" lon="4.82364">
        <ele>264</ele>
        <time>2017-04-29T11:01:29Z</time>
      </trkpt>
      <trkpt lat="45.94289" lon="4.82353">
        <ele>264</ele>
        <time>2017-04-29T11:01:30Z</time>
      </trkpt>
      <trkpt lat="45.94289" lon="4.82342">
        <ele>264</ele>
        <time>2017-04-29T11:01:31Z</time>
      </trkpt>
      <trkpt lat="45.94288" lon="4.82331">
        <ele>265</ele>
        <time>2017-04-29T11:01:32Z</time>
      </trkpt>
      <trkpt lat="45.94287" lon="4.8232">
        <ele>265</ele>
        <time>2017-04-29T11:01:33Z</time>
      </trkpt>
      <trkpt lat="45.94287" lon="4.8231">
        <ele>265</ele>
        <time>2017-04-29T11:01:34Z</time>
      </trkpt>
      <trkpt lat="45.94286" lon="4.82299">
        <ele>265</ele>
        <time>2017-04-29T11:01:35Z</time>
      </trkpt>
      <trkpt lat="45.94286" lon="4.82288">
        <ele>265</ele>
        <time>2017-04-29T11:01:36Z</time>
      </trkpt>
      <trkpt lat="45.94286" lon="4.82278">
        <ele>265</ele>
        <time>2017-04-29T11:01:37Z</time>
      </trkpt>
      <trkpt lat="45.94285" lon="4.82267">
        <ele>265</ele>
        <time>2017-04-29T11:01:38Z</time>
      </trkpt>
      <trkpt lat="45.94285" lon="4.82257">
        <ele>265</ele>
        <time>2017-04-29T11:01:39Z</time>
      </trkpt>
      <trkpt lat="45.94284" lon="4.82247">
        <ele>264</ele>
        <time>2017-04-29T11:01:40Z</time>
      </trkpt>
      <trkpt lat="45.94284" lon="4.82237">
        <ele>264</ele>
        <time>2017-04-29T11:01:41Z</time>
      </trkpt>
      <trkpt lat="45.94283" lon="4.82227">
        <ele>264</ele>
        <time>2017-04-29T11:01:42Z</time>
      </trkpt>
      <trkpt lat="45.94282" lon="4.82217">
        <ele>264</ele>
        <time>2017-04-29T11:01:43Z</time>
      </trkpt>
      <trkpt lat="45.94282" lon="4.82207">
        <ele>264</ele>
        <time>2017-04-29T11:01:44Z</time>
      </trkpt>
      <trkpt lat="45.94281" lon="4.82197">
        <ele>264</ele>
        <time>2017-04-29T11:01:45Z</time>
      </trkpt>
      <trkpt lat="45.9428" lon="4.82187">
        <ele>264</ele>
        <time>2017-04-29T11:01:46Z</time>
      </trkpt>
      <trkpt lat="45.94278" lon="4.82177">
        <ele>264</ele>
        <time>2017-04-29T11:01:47Z</time>
      </trkpt>
      <trkpt lat="45.94276" lon="4.82167">
        <ele>264</ele>
        <time>2017-04-29T11:01:48Z</time>
      </trkpt>
      <trkpt lat="45.94274" lon="4.82157">
        <ele>263</ele>
        <time>2017-04-29T11:01:49Z</time>
      </trkpt>
      <trkpt lat="45.94272" lon="4.82147">
        <ele>263</ele>
        <time>2017-04-29T11:01:50Z</time>
      </trkpt>
      <trkpt lat="45.9427" lon="4.82136">
        <ele>263</ele>
        <time>2017-04-29T11:01:51Z</time>
      </trkpt>
      <trkpt lat="45.94267" lon="4.82126">
        <ele>263</ele>
        <time>2017-04-29T11:01:52Z</time>
      </trkpt>
      <trkpt lat="45.94265" lon="4.82115">
        <ele>263</ele>
        <time>2017-04-29T11:01:53Z</time>
      </trkpt>
      <trkpt lat="45.94263" lon="4.82105">
        <ele>263</ele>
        <time>2017-04-29T11:01:54Z</time>
      </trkpt>
      <trkpt lat="45.94261" lon="4.82095">
        <ele>262</ele>
        <time>2017-04-29T11:01:55Z</time>
      </trkpt>
      <trkpt lat="45.94259" lon="4.82085">
        <ele>262</ele>
        <time>2017-04-29T11:01:56Z</time>
      </trkpt>
      <trkpt lat="45.94257" lon="4.82076">
        <ele>262</ele>
        <time>2017-04-29T11:01:57Z</time>
      </trkpt>
      <trkpt lat="45.94255" lon="4.82066">
        <ele>262</ele>
        <time>2017-04-29T11:01:58Z</time>
      </trkpt>
      <trkpt lat="45.94253" lon="4.82057">
        <ele>262</ele>
        <time>2017-04-29T11:01:59Z</time>
      </trkpt>
      <trkpt lat="45.94251" lon="4.82048">
        <ele>262</ele>
        <time>2017-04-29T11:02:00Z</time>
      </trkpt>
      <trkpt lat="45.9425" lon="4.82039">
        <ele>263</ele>
        <time>2017-04-29T11:02:01Z</time>
      </trkpt>
      <trkpt lat="45.94248" lon="4.82031">
        <ele>263</ele>
        <time>2017-04-29T11:02:02Z</time>
      </trkpt>
      <trkpt lat="45.94246" lon="4.82022">
        <ele>263</ele>
        <time>2017-04-29T11:02:03Z</time>
      </trkpt>
      <trkpt lat="45.94245" lon="4.82014">
        <ele>263</ele>
        <time>2017-04-29T11:02:04Z</time>
      </trkpt>
      <trkpt lat="45.94243" lon="4.82005">
        <ele>263</ele>
        <time>2017-04-29T11:02:05Z</time>
      </trkpt>
      <trkpt lat="45.94241" lon="4.81996">
        <ele>263</ele>
        <time>2017-04-29T11:02:06Z</time>
      </trkpt>
      <trkpt lat="45.94239" lon="4.81987">
        <ele>263</ele>
        <time>2017-04-29T11:02:07Z</time>
      </trkpt>
      <trkpt lat="45.94237" lon="4.81978">
        <ele>263</ele>
        <time>2017-04-29T11:02:08Z</time>
      </trkpt>
      <trkpt lat="45.94235" lon="4.81969">
        <ele>264</ele>
        <time>2017-04-29T11:02:09Z</time>
      </trkpt>
      <trkpt lat="45.94233" lon="4.81959">
        <ele>264</ele>
        <time>2017-04-29T11:02:10Z</time>
      </trkpt>
      <trkpt lat="45.94231" lon="4.8195">
        <ele>264</ele>
        <time>2017-04-29T11:02:11Z</time>
      </trkpt>
      <trkpt lat="45.9423" lon="4.81941">
        <ele>264</ele>
        <time>2017-04-29T11:02:12Z</time>
      </trkpt>
      <trkpt lat="45.94228" lon="4.81932">
        <ele>264</ele>
        <time>2017-04-29T11:02:13Z</time>
      </trkpt>
      <trkpt lat="45.94226" lon="4.81923">
        <ele>264</ele>
        <time>2017-04-29T11:02:14Z</time>
      </trkpt>
      <trkpt lat="45.94224" lon="4.81915">
        <ele>264</ele>
        <time>2017-04-29T11:02:15Z</time>
      </trkpt>
      <trkpt lat="45.94222" lon="4.81907">
        <ele>264</ele>
        <time>2017-04-29T11:02:16Z</time>
      </trkpt>
      <trkpt lat="45.94221" lon="4.81899">
        <ele>265</ele>
        <time>2017-04-29T11:02:17Z</time>
      </trkpt>
      <trkpt lat="45.94219" lon="4.81891">
        <ele>265</ele>
        <time>2017-04-29T11:02:18Z</time>
      </trkpt>
      <trkpt lat="45.94218" lon="4.81883">
        <ele>265</ele>
        <time>2017-04-29T11:02:19Z</time>
      </trkpt>
      <trkpt lat="45.94216" lon="4.81875">
        <ele>265</ele>
        <time>2017-04-29T11:02:20Z</time>
      </trkpt>
      <trkpt lat="45.94215" lon="4.81868">
        <ele>265</ele>
        <time>2017-04-29T11:02:21Z</time>
      </trkpt>
      <trkpt lat="45.94213" lon="4.8186">
        <ele>265</ele>
        <time>2017-04-29T11:02:22Z</time>
      </trkpt>
      <trkpt lat="45.94212" lon="4.81853">
        <ele>265</ele>
        <time>2017-04-29T11:02:23Z</time>
      </trkpt>
      <trkpt lat="45.9421" lon="4.81845">
        <ele>265</ele>
        <time>2017-04-29T11:02:24Z</time>
      </trkpt>
      <trkpt lat="45.94208" lon="4.81837">
        <ele>266</ele>
        <time>2017-04-29T11:02:25Z</time>
      </trkpt>
      <trkpt lat="45.94206" lon="4.8183">
        <ele>266</ele>
        <time>2017-04-29T11:02:26Z</time>
      </trkpt>
      <trkpt lat="45.94204" lon="4.81822">
        <ele>266</ele>
        <time>2017-04-29T11:02:27Z</time>
      </trkpt>
      <trkpt lat="45.94203" lon="4.81814">
        <ele>266</ele>
        <time>2017-04-29T11:02:28Z</time>
      </trkpt>
      <trkpt lat="45.94203" lon="4.81806">
        <ele>266</ele>
        <time>2017-04-29T11:02:29Z</time>
      </trkpt>
      <trkpt lat="45.94203" lon="4.81798">
        <ele>266</ele>
        <time>2017-04-29T11:02:30Z</time>
      </trkpt>
      <trkpt lat="45.94204" lon="4.8179">
        <ele>266</ele>
        <time>2017-04-29T11:02:31Z</time>
      </trkpt>
      <trkpt lat="45.94205" lon="4.81783">
        <ele>266</ele>
        <time>2017-04-29T11:02:32Z</time>
      </trkpt>
      <trkpt lat="45.94207" lon="4.81776">
        <ele>265</ele>
        <time>2017-04-29T11:02:33Z</time>
      </trkpt>
      <trkpt lat="45.94209" lon="4.81769">
        <ele>265</ele>
        <time>2017-04-29T11:02:34Z</time>
      </trkpt>
      <trkpt lat="45.94211" lon="4.81763">
        <ele>265</ele>
        <time>2017-04-29T11:02:35Z</time>
      </trkpt>
      <trkpt lat="45.94214" lon="4.81757">
        <ele>265</ele>
        <time>2017-04-29T11:02:36Z</time>
      </trkpt>
      <trkpt lat="45.94217" lon="4.81752">
        <ele>265</ele>
        <time>2017-04-29T11:02:37Z</time>
      </trkpt>
      <trkpt lat="45.94219" lon="4.81746">
        <ele>265</ele>
        <time>2017-04-29T11:02:38Z</time>
      </trkpt>
      <trkpt lat="45.94221" lon="4.81734">
        <ele>265</ele>
        <time>2017-04-29T11:02:40Z</time>
      </trkpt>
      <trkpt lat="45.9422" lon="4.81727">
        <ele>266</ele>
        <time>2017-04-29T11:02:41Z</time>
      </trkpt>
      <trkpt lat="45.94219" lon="4.8172">
        <ele>266</ele>
        <time>2017-04-29T11:02:42Z</time>
      </trkpt>
      <trkpt lat="45.94216" lon="4.81714">
        <ele>266</ele>
        <time>2017-04-29T11:02:43Z</time>
      </trkpt>
      <trkpt lat="45.94212" lon="4.8171">
        <ele>266</ele>
        <time>2017-04-29T11:02:44Z</time>
      </trkpt>
      <trkpt lat="45.94207" lon="4.81707">
        <ele>266</ele>
        <time>2017-04-29T11:02:45Z</time>
      </trkpt>
      <trkpt lat="45.94202" lon="4.81705">
        <ele>266</ele>
        <time>2017-04-29T11:02:46Z</time>
      </trkpt>
      <trkpt lat="45.94198" lon="4.81701">
        <ele>267</ele>
        <time>2017-04-29T11:02:47Z</time>
      </trkpt>
      <trkpt lat="45.94193" lon="4.81696">
        <ele>267</ele>
        <time>2017-04-29T11:02:48Z</time>
      </trkpt>
      <trkpt lat="45.94189" lon="4.8169">
        <ele>267</ele>
        <time>2017-04-29T11:02:49Z</time>
      </trkpt>
      <trkpt lat="45.94185" lon="4.81683">
        <ele>267</ele>
        <time>2017-04-29T11:02:50Z</time>
      </trkpt>
      <trkpt lat="45.94181" lon="4.81675">
        <ele>268</ele>
        <time>2017-04-29T11:02:51Z</time>
      </trkpt>
      <trkpt lat="45.94177" lon="4.81665">
        <ele>268</ele>
        <time>2017-04-29T11:02:52Z</time>
      </trkpt>
      <trkpt lat="45.94175" lon="4.81655">
        <ele>268</ele>
        <time>2017-04-29T11:02:53Z</time>
      </trkpt>
      <trkpt lat="45.94172" lon="4.81644">
        <ele>268</ele>
        <time>2017-04-29T11:02:54Z</time>
      </trkpt>
      <trkpt lat="45.9417" lon="4.81633">
        <ele>268</ele>
        <time>2017-04-29T11:02:55Z</time>
      </trkpt>
      <trkpt lat="45.94168" lon="4.81622">
        <ele>267</ele>
        <time>2017-04-29T11:02:56Z</time>
      </trkpt>
      <trkpt lat="45.94166" lon="4.8161">
        <ele>267</ele>
        <time>2017-04-29T11:02:57Z</time>
      </trkpt>
      <trkpt lat="45.94163" lon="4.81598">
        <ele>267</ele>
        <time>2017-04-29T11:02:58Z</time>
      </trkpt>
      <trkpt lat="45.94161" lon="4.81587">
        <ele>267</ele>
        <time>2017-04-29T11:02:59Z</time>
      </trkpt>
      <trkpt lat="45.9416" lon="4.81575">
        <ele>266</ele>
        <time>2017-04-29T11:03:00Z</time>
      </trkpt>
      <trkpt lat="45.94158" lon="4.81562">
        <ele>265</ele>
        <time>2017-04-29T11:03:01Z</time>
      </trkpt>
      <trkpt lat="45.94158" lon="4.8155">
        <ele>264</ele>
        <time>2017-04-29T11:03:02Z</time>
      </trkpt>
      <trkpt lat="45.94157" lon="4.81537">
        <ele>264</ele>
        <time>2017-04-29T11:03:03Z</time>
      </trkpt>
      <trkpt lat="45.94157" lon="4.81524">
        <ele>263</ele>
        <time>2017-04-29T11:03:04Z</time>
      </trkpt>
      <trkpt lat="45.94157" lon="4.81512">
        <ele>263</ele>
        <time>2017-04-29T11:03:05Z</time>
      </trkpt>
      <trkpt lat="45.94158" lon="4.81498">
        <ele>261</ele>
        <time>2017-04-29T11:03:06Z</time>
      </trkpt>
      <trkpt lat="45.94158" lon="4.81486">
        <ele>260</ele>
        <time>2017-04-29T11:03:07Z</time>
      </trkpt>
      <trkpt lat="45.9416" lon="4.81473">
        <ele>258</ele>
        <time>2017-04-29T11:03:08Z</time>
      </trkpt>
      <trkpt lat="45.94162" lon="4.8146">
        <ele>257</ele>
        <time>2017-04-29T11:03:09Z</time>
      </trkpt>
      <trkpt lat="45.94163" lon="4.81447">
        <ele>257</ele>
        <time>2017-04-29T11:03:10Z</time>
      </trkpt>
      <trkpt lat="45.94163" lon="4.81433">
        <ele>256</ele>
        <time>2017-04-29T11:03:11Z</time>
      </trkpt>
      <trkpt lat="45.94164" lon="4.81419">
        <ele>256</ele>
        <time>2017-04-29T11:03:12Z</time>
      </trkpt>
      <trkpt lat="45.94165" lon="4.81405">
        <ele>253</ele>
        <time>2017-04-29T11:03:13Z</time>
      </trkpt>
      <trkpt lat="45.94166" lon="4.81391">
        <ele>252</ele>
        <time>2017-04-29T11:03:14Z</time>
      </trkpt>
      <trkpt lat="45.94167" lon="4.81376">
        <ele>251</ele>
        <time>2017-04-29T11:03:15Z</time>
      </trkpt>
      <trkpt lat="45.94168" lon="4.81362">
        <ele>257</ele>
        <time>2017-04-29T11:03:16Z</time>
      </trkpt>
      <trkpt lat="45.94169" lon="4.81347">
        <ele>255</ele>
        <time>2017-04-29T11:03:17Z</time>
      </trkpt>
      <trkpt lat="45.94169" lon="4.81331">
        <ele>253</ele>
        <time>2017-04-29T11:03:18Z</time>
      </trkpt>
      <trkpt lat="45.94168" lon="4.81315">
        <ele>255</ele>
        <time>2017-04-29T11:03:19Z</time>
      </trkpt>
      <trkpt lat="45.94167" lon="4.81299">
        <ele>255</ele>
        <time>2017-04-29T11:03:20Z</time>
      </trkpt>
      <trkpt lat="45.94166" lon="4.81283">
        <ele>247</ele>
        <time>2017-04-29T11:03:21Z</time>
      </trkpt>
      <trkpt lat="45.94164" lon="4.81267">
        <ele>248</ele>
        <time>2017-04-29T11:03:22Z</time>
      </trkpt>
      <trkpt lat="45.94161" lon="4.81251">
        <ele>249</ele>
        <time>2017-04-29T11:03:23Z</time>
      </trkpt>
      <trkpt lat="45.94157" lon="4.81236">
        <ele>246</ele>
        <time>2017-04-29T11:03:24Z</time>
      </trkpt>
      <trkpt lat="45.94153" lon="4.8122">
        <ele>245</ele>
        <time>2017-04-29T11:03:25Z</time>
      </trkpt>
      <trkpt lat="45.94148" lon="4.81204">
        <ele>244</ele>
        <time>2017-04-29T11:03:26Z</time>
      </trkpt>
      <trkpt lat="45.94143" lon="4.81188">
        <ele>244</ele>
        <time>2017-04-29T11:03:27Z</time>
      </trkpt>
      <trkpt lat="45.94137" lon="4.81172">
        <ele>243</ele>
        <time>2017-04-29T11:03:28Z</time>
      </trkpt>
      <trkpt lat="45.9413" lon="4.81157">
        <ele>243</ele>
        <time>2017-04-29T11:03:29Z</time>
      </trkpt>
      <trkpt lat="45.94123" lon="4.81143">
        <ele>243</ele>
        <time>2017-04-29T11:03:30Z</time>
      </trkpt>
      <trkpt lat="45.94115" lon="4.81129">
        <ele>242</ele>
        <time>2017-04-29T11:03:31Z</time>
      </trkpt>
      <trkpt lat="45.94108" lon="4.81115">
        <ele>242</ele>
        <time>2017-04-29T11:03:32Z</time>
      </trkpt>
      <trkpt lat="45.941" lon="4.81101">
        <ele>241</ele>
        <time>2017-04-29T11:03:33Z</time>
      </trkpt>
      <trkpt lat="45.94093" lon="4.81086">
        <ele>239</ele>
        <time>2017-04-29T11:03:34Z</time>
      </trkpt>
      <trkpt lat="45.94086" lon="4.8107">
        <ele>241</ele>
        <time>2017-04-29T11:03:35Z</time>
      </trkpt>
      <trkpt lat="45.9408" lon="4.81054">
        <ele>233</ele>
        <time>2017-04-29T11:03:36Z</time>
      </trkpt>
      <trkpt lat="45.94075" lon="4.81038">
        <ele>233</ele>
        <time>2017-04-29T11:03:37Z</time>
      </trkpt>
      <trkpt lat="45.94071" lon="4.81021">
        <ele>234</ele>
        <time>2017-04-29T11:03:38Z</time>
      </trkpt>
      <trkpt lat="45.94068" lon="4.81004">
        <ele>235</ele>
        <time>2017-04-29T11:03:39Z</time>
      </trkpt>
      <trkpt lat="45.94066" lon="4.80987">
        <ele>234</ele>
        <time>2017-04-29T11:03:40Z</time>
      </trkpt>
      <trkpt lat="45.94063" lon="4.80969">
        <ele>232</ele>
        <time>2017-04-29T11:03:41Z</time>
      </trkpt>
      <trkpt lat="45.94061" lon="4.80952">
        <ele>232</ele>
        <time>2017-04-29T11:03:42Z</time>
      </trkpt>
      <trkpt lat="45.94059" lon="4.80935">
        <ele>232</ele>
        <time>2017-04-29T11:03:43Z</time>
      </trkpt>
      <trkpt lat="45.94057" lon="4.80919">
        <ele>232</ele>
        <time>2017-04-29T11:03:44Z</time>
      </trkpt>
      <trkpt lat="45.94054" lon="4.80902">
        <ele>231</ele>
        <time>2017-04-29T11:03:45Z</time>
      </trkpt>
      <trkpt lat="45.94052" lon="4.80885">
        <ele>230</ele>
        <time>2017-04-29T11:03:46Z</time>
      </trkpt>
      <trkpt lat="45.9405" lon="4.80869">
        <ele>230</ele>
        <time>2017-04-29T11:03:47Z</time>
      </trkpt>
      <trkpt lat="45.94048" lon="4.80852">
        <ele>229</ele>
        <time>2017-04-29T11:03:48Z</time>
      </trkpt>
      <trkpt lat="45.94045" lon="4.80836">
        <ele>229</ele>
        <time>2017-04-29T11:03:49Z</time>
      </trkpt>
      <trkpt lat="45.94044" lon="4.8082">
        <ele>228</ele>
        <time>2017-04-29T11:03:50Z</time>
      </trkpt>
      <trkpt lat="45.94042" lon="4.80804">
        <ele>228</ele>
        <time>2017-04-29T11:03:51Z</time>
      </trkpt>
      <trkpt lat="45.94039" lon="4.80788">
        <ele>228</ele>
        <time>2017-04-29T11:03:52Z</time>
      </trkpt>
      <trkpt lat="45.94037" lon="4.80773">
        <ele>227</ele>
        <time>2017-04-29T11:03:53Z</time>
      </trkpt>
      <trkpt lat="45.94035" lon="4.80757">
        <ele>227</ele>
        <time>2017-04-29T11:03:54Z</time>
      </trkpt>
      <trkpt lat="45.94033" lon="4.80741">
        <ele>226</ele>
        <time>2017-04-29T11:03:55Z</time>
      </trkpt>
      <trkpt lat="45.94031" lon="4.80726">
        <ele>225</ele>
        <time>2017-04-29T11:03:56Z</time>
      </trkpt>
      <trkpt lat="45.94029" lon="4.80709">
        <ele>225</ele>
        <time>2017-04-29T11:03:57Z</time>
      </trkpt>
      <trkpt lat="45.94027" lon="4.80693">
        <ele>225</ele>
        <time>2017-04-29T11:03:58Z</time>
      </trkpt>
      <trkpt lat="45.94024" lon="4.80677">
        <ele>223</ele>
        <time>2017-04-29T11:03:59Z</time>
      </trkpt>
      <trkpt lat="45.94023" lon="4.80661">
        <ele>223</ele>
        <time>2017-04-29T11:04:00Z</time>
      </trkpt>
      <trkpt lat="45.94021" lon="4.80645">
        <ele>224</ele>
        <time>2017-04-29T11:04:01Z</time>
      </trkpt>
      <trkpt lat="45.9402" lon="4.80629">
        <ele>224</ele>
        <time>2017-04-29T11:04:02Z</time>
      </trkpt>
      <trkpt lat="45.94019" lon="4.80613">
        <ele>224</ele>
        <time>2017-04-29T11:04:03Z</time>
      </trkpt>
      <trkpt lat="45.94018" lon="4.80597">
        <ele>223</ele>
        <time>2017-04-29T11:04:04Z</time>
      </trkpt>
      <trkpt lat="45.94017" lon="4.80581">
        <ele>222</ele>
        <time>2017-04-29T11:04:05Z</time>
      </trkpt>
      <trkpt lat="45.94016" lon="4.80565">
        <ele>223</ele>
        <time>2017-04-29T11:04:06Z</time>
      </trkpt>
      <trkpt lat="45.94014" lon="4.80549">
        <ele>224</ele>
        <time>2017-04-29T11:04:07Z</time>
      </trkpt>
      <trkpt lat="45.94014" lon="4.80534">
        <ele>224</ele>
        <time>2017-04-29T11:04:08Z</time>
      </trkpt>
      <trkpt lat="45.94014" lon="4.80518">
        <ele>223</ele>
        <time>2017-04-29T11:04:09Z</time>
      </trkpt>
      <trkpt lat="45.94014" lon="4.80502">
        <ele>222</ele>
        <time>2017-04-29T11:04:10Z</time>
      </trkpt>
      <trkpt lat="45.94014" lon="4.80486">
        <ele>222</ele>
        <time>2017-04-29T11:04:11Z</time>
      </trkpt>
      <trkpt lat="45.94012" lon="4.8047">
        <ele>223</ele>
        <time>2017-04-29T11:04:12Z</time>
      </trkpt>
      <trkpt lat="45.94011" lon="4.80454">
        <ele>222</ele>
        <time>2017-04-29T11:04:13Z</time>
      </trkpt>
      <trkpt lat="45.94009" lon="4.80439">
        <ele>221</ele>
        <time>2017-04-29T11:04:14Z</time>
      </trkpt>
      <trkpt lat="45.94006" lon="4.80424">
        <ele>219</ele>
        <time>2017-04-29T11:04:15Z</time>
      </trkpt>
      <trkpt lat="45.94002" lon="4.80409">
        <ele>217</ele>
        <time>2017-04-29T11:04:16Z</time>
      </trkpt>
      <trkpt lat="45.93997" lon="4.80395">
        <ele>210</ele>
        <time>2017-04-29T11:04:17Z</time>
      </trkpt>
      <trkpt lat="45.93993" lon="4.8038">
        <ele>208</ele>
        <time>2017-04-29T11:04:18Z</time>
      </trkpt>
      <trkpt lat="45.93989" lon="4.80364">
        <ele>207</ele>
        <time>2017-04-29T11:04:19Z</time>
      </trkpt>
      <trkpt lat="45.93985" lon="4.80348">
        <ele>206</ele>
        <time>2017-04-29T11:04:20Z</time>
      </trkpt>
      <trkpt lat="45.93981" lon="4.80333">
        <ele>204</ele>
        <time>2017-04-29T11:04:21Z</time>
      </trkpt>
      <trkpt lat="45.93977" lon="4.80318">
        <ele>203</ele>
        <time>2017-04-29T11:04:22Z</time>
      </trkpt>
      <trkpt lat="45.93974" lon="4.80303">
        <ele>203</ele>
        <time>2017-04-29T11:04:23Z</time>
      </trkpt>
      <trkpt lat="45.9397" lon="4.80289">
        <ele>202</ele>
        <time>2017-04-29T11:04:24Z</time>
      </trkpt>
      <trkpt lat="45.93966" lon="4.80274">
        <ele>202</ele>
        <time>2017-04-29T11:04:25Z</time>
      </trkpt>
      <trkpt lat="45.93963" lon="4.8026">
        <ele>202</ele>
        <time>2017-04-29T11:04:26Z</time>
      </trkpt>
      <trkpt lat="45.93959" lon="4.80246">
        <ele>204</ele>
        <time>2017-04-29T11:04:27Z</time>
      </trkpt>
      <trkpt lat="45.93955" lon="4.80233">
        <ele>204</ele>
        <time>2017-04-29T11:04:28Z</time>
      </trkpt>
      <trkpt lat="45.93953" lon="4.8022">
        <ele>205</ele>
        <time>2017-04-29T11:04:29Z</time>
      </trkpt>
      <trkpt lat="45.9395" lon="4.80207">
        <ele>205</ele>
        <time>2017-04-29T11:04:30Z</time>
      </trkpt>
      <trkpt lat="45.93948" lon="4.80195">
        <ele>205</ele>
        <time>2017-04-29T11:04:31Z</time>
      </trkpt>
      <trkpt lat="45.93946" lon="4.80183">
        <ele>205</ele>
        <time>2017-04-29T11:04:32Z</time>
      </trkpt>
      <trkpt lat="45.93944" lon="4.80171">
        <ele>205</ele>
        <time>2017-04-29T11:04:33Z</time>
      </trkpt>
      <trkpt lat="45.93943" lon="4.80161">
        <ele>208</ele>
        <time>2017-04-29T11:04:34Z</time>
      </trkpt>
      <trkpt lat="45.93941" lon="4.80149">
        <ele>208</ele>
        <time>2017-04-29T11:04:35Z</time>
      </trkpt>
      <trkpt lat="45.93939" lon="4.80138">
        <ele>208</ele>
        <time>2017-04-29T11:04:36Z</time>
      </trkpt>
      <trkpt lat="45.93938" lon="4.80128">
        <ele>208</ele>
        <time>2017-04-29T11:04:37Z</time>
      </trkpt>
      <trkpt lat="45.93937" lon="4.80118">
        <ele>208</ele>
        <time>2017-04-29T11:04:38Z</time>
      </trkpt>
      <trkpt lat="45.93937" lon="4.80108">
        <ele>208</ele>
        <time>2017-04-29T11:04:39Z</time>
      </trkpt>
      <trkpt lat="45.93936" lon="4.80099">
        <ele>208</ele>
        <time>2017-04-29T11:04:40Z</time>
      </trkpt>
      <trkpt lat="45.93937" lon="4.80089">
        <ele>208</ele>
        <time>2017-04-29T11:04:41Z</time>
      </trkpt>
      <trkpt lat="45.93937" lon="4.80079">
        <ele>207</ele>
        <time>2017-04-29T11:04:42Z</time>
      </trkpt>
      <trkpt lat="45.93938" lon="4.80069">
        <ele>207</ele>
        <time>2017-04-29T11:04:43Z</time>
      </trkpt>
      <trkpt lat="45.93938" lon="4.80059">
        <ele>207</ele>
        <time>2017-04-29T11:04:44Z</time>
      </trkpt>
      <trkpt lat="45.93939" lon="4.80049">
        <ele>207</ele>
        <time>2017-04-29T11:04:45Z</time>
      </trkpt>
      <trkpt lat="45.9394" lon="4.80039">
        <ele>207</ele>
        <time>2017-04-29T11:04:46Z</time>
      </trkpt>
      <trkpt lat="45.93941" lon="4.80028">
        <ele>207</ele>
        <time>2017-04-29T11:04:47Z</time>
      </trkpt>
      <trkpt lat="45.93943" lon="4.80018">
        <ele>206</ele>
        <time>2017-04-29T11:04:48Z</time>
      </trkpt>
      <trkpt lat="45.93945" lon="4.80007">
        <ele>206</ele>
        <time>2017-04-29T11:04:49Z</time>
      </trkpt>
      <trkpt lat="45.93946" lon="4.79997">
        <ele>205</ele>
        <time>2017-04-29T11:04:50Z</time>
      </trkpt>
      <trkpt lat="45.93948" lon="4.79986">
        <ele>205</ele>
        <time>2017-04-29T11:04:51Z</time>
      </trkpt>
      <trkpt lat="45.9395" lon="4.79974">
        <ele>205</ele>
        <time>2017-04-29T11:04:52Z</time>
      </trkpt>
      <trkpt lat="45.93952" lon="4.79963">
        <ele>205</ele>
        <time>2017-04-29T11:04:53Z</time>
      </trkpt>
      <trkpt lat="45.93953" lon="4.79952">
        <ele>205</ele>
        <time>2017-04-29T11:04:54Z</time>
      </trkpt>
      <trkpt lat="45.93954" lon="4.7994">
        <ele>205</ele>
        <time>2017-04-29T11:04:55Z</time>
      </trkpt>
      <trkpt lat="45.93956" lon="4.79929">
        <ele>205</ele>
        <time>2017-04-29T11:04:56Z</time>
      </trkpt>
      <trkpt lat="45.93957" lon="4.79918">
        <ele>205</ele>
        <time>2017-04-29T11:04:57Z</time>
      </trkpt>
      <trkpt lat="45.93958" lon="4.79908">
        <ele>205</ele>
        <time>2017-04-29T11:04:58Z</time>
      </trkpt>
      <trkpt lat="45.9396" lon="4.79897">
        <ele>206</ele>
        <time>2017-04-29T11:04:59Z</time>
      </trkpt>
      <trkpt lat="45.93961" lon="4.79886">
        <ele>206</ele>
        <time>2017-04-29T11:05:00Z</time>
      </trkpt>
      <trkpt lat="45.93962" lon="4.79877">
        <ele>206</ele>
        <time>2017-04-29T11:05:01Z</time>
      </trkpt>
      <trkpt lat="45.93964" lon="4.79867">
        <ele>206</ele>
        <time>2017-04-29T11:05:02Z</time>
      </trkpt>
      <trkpt lat="45.93966" lon="4.79857">
        <ele>206</ele>
        <time>2017-04-29T11:05:03Z</time>
      </trkpt>
      <trkpt lat="45.93968" lon="4.79848">
        <ele>206</ele>
        <time>2017-04-29T11:05:04Z</time>
      </trkpt>
      <trkpt lat="45.93969" lon="4.7984">
        <ele>206</ele>
        <time>2017-04-29T11:05:05Z</time>
      </trkpt>
      <trkpt lat="45.9397" lon="4.79831">
        <ele>207</ele>
        <time>2017-04-29T11:05:06Z</time>
      </trkpt>
      <trkpt lat="45.93971" lon="4.79823">
        <ele>207</ele>
        <time>2017-04-29T11:05:07Z</time>
      </trkpt>
      <trkpt lat="45.93972" lon="4.79815">
        <ele>207</ele>
        <time>2017-04-29T11:05:08Z</time>
      </trkpt>
      <trkpt lat="45.93972" lon="4.79806">
        <ele>207</ele>
        <time>2017-04-29T11:05:09Z</time>
      </trkpt>
      <trkpt lat="45.93973" lon="4.79799">
        <ele>206</ele>
        <time>2017-04-29T11:05:10Z</time>
      </trkpt>
      <trkpt lat="45.93974" lon="4.79791">
        <ele>206</ele>
        <time>2017-04-29T11:05:11Z</time>
      </trkpt>
      <trkpt lat="45.93975" lon="4.79783">
        <ele>206</ele>
        <time>2017-04-29T11:05:12Z</time>
      </trkpt>
      <trkpt lat="45.93975" lon="4.79774">
        <ele>206</ele>
        <time>2017-04-29T11:05:13Z</time>
      </trkpt>
      <trkpt lat="45.93975" lon="4.79765">
        <ele>206</ele>
        <time>2017-04-29T11:05:14Z</time>
      </trkpt>
      <trkpt lat="45.93974" lon="4.79756">
        <ele>207</ele>
        <time>2017-04-29T11:05:15Z</time>
      </trkpt>
      <trkpt lat="45.93973" lon="4.79747">
        <ele>207</ele>
        <time>2017-04-29T11:05:16Z</time>
      </trkpt>
      <trkpt lat="45.93972" lon="4.79739">
        <ele>207</ele>
        <time>2017-04-29T11:05:17Z</time>
      </trkpt>
      <trkpt lat="45.93971" lon="4.7973">
        <ele>207</ele>
        <time>2017-04-29T11:05:18Z</time>
      </trkpt>
      <trkpt lat="45.9397" lon="4.79721">
        <ele>207</ele>
        <time>2017-04-29T11:05:19Z</time>
      </trkpt>
      <trkpt lat="45.93969" lon="4.79712">
        <ele>207</ele>
        <time>2017-04-29T11:05:20Z</time>
      </trkpt>
      <trkpt lat="45.93969" lon="4.79703">
        <ele>207</ele>
        <time>2017-04-29T11:05:21Z</time>
      </trkpt>
      <trkpt lat="45.93968" lon="4.79693">
        <ele>207</ele>
        <time>2017-04-29T11:05:22Z</time>
      </trkpt>
      <trkpt lat="45.93967" lon="4.79684">
        <ele>207</ele>
        <time>2017-04-29T11:05:23Z</time>
      </trkpt>
      <trkpt lat="45.93967" lon="4.79675">
        <ele>207</ele>
        <time>2017-04-29T11:05:24Z</time>
      </trkpt>
      <trkpt lat="45.93966" lon="4.79665">
        <ele>208</ele>
        <time>2017-04-29T11:05:25Z</time>
      </trkpt>
      <trkpt lat="45.93965" lon="4.79656">
        <ele>207</ele>
        <time>2017-04-29T11:05:26Z</time>
      </trkpt>
      <trkpt lat="45.93965" lon="4.79647">
        <ele>207</ele>
        <time>2017-04-29T11:05:27Z</time>
      </trkpt>
      <trkpt lat="45.93964" lon="4.79637">
        <ele>207</ele>
        <time>2017-04-29T11:05:28Z</time>
      </trkpt>
      <trkpt lat="45.93963" lon="4.79628">
        <ele>207</ele>
        <time>2017-04-29T11:05:29Z</time>
      </trkpt>
      <trkpt lat="45.93963" lon="4.79619">
        <ele>207</ele>
        <time>2017-04-29T11:05:30Z</time>
      </trkpt>
      <trkpt lat="45.93962" lon="4.79609">
        <ele>207</ele>
        <time>2017-04-29T11:05:31Z</time>
      </trkpt>
      <trkpt lat="45.93961" lon="4.796">
        <ele>207</ele>
        <time>2017-04-29T11:05:32Z</time>
      </trkpt>
      <trkpt lat="45.9396" lon="4.79591">
        <ele>207</ele>
        <time>2017-04-29T11:05:33Z</time>
      </trkpt>
      <trkpt lat="45.93959" lon="4.79583">
        <ele>206</ele>
        <time>2017-04-29T11:05:34Z</time>
      </trkpt>
      <trkpt lat="45.93959" lon="4.79574">
        <ele>206</ele>
        <time>2017-04-29T11:05:35Z</time>
      </trkpt>
      <trkpt lat="45.93958" lon="4.79565">
        <ele>205</ele>
        <time>2017-04-29T11:05:36Z</time>
      </trkpt>
      <trkpt lat="45.93957" lon="4.79556">
        <ele>205</ele>
        <time>2017-04-29T11:05:37Z</time>
      </trkpt>
      <trkpt lat="45.93956" lon="4.79547">
        <ele>205</ele>
        <time>2017-04-29T11:05:38Z</time>
      </trkpt>
      <trkpt lat="45.93956" lon="4.79538">
        <ele>205</ele>
        <time>2017-04-29T11:05:39Z</time>
      </trkpt>
      <trkpt lat="45.93955" lon="4.79529">
        <ele>205</ele>
        <time>2017-04-29T11:05:40Z</time>
      </trkpt>
      <trkpt lat="45.93955" lon="4.79519">
        <ele>204</ele>
        <time>2017-04-29T11:05:41Z</time>
      </trkpt>
      <trkpt lat="45.93954" lon="4.79509">
        <ele>204</ele>
        <time>2017-04-29T11:05:42Z</time>
      </trkpt>
      <trkpt lat="45.93954" lon="4.79499">
        <ele>203</ele>
        <time>2017-04-29T11:05:43Z</time>
      </trkpt>
      <trkpt lat="45.93954" lon="4.79489">
        <ele>203</ele>
        <time>2017-04-29T11:05:44Z</time>
      </trkpt>
      <trkpt lat="45.93953" lon="4.79478">
        <ele>203</ele>
        <time>2017-04-29T11:05:45Z</time>
      </trkpt>
      <trkpt lat="45.93953" lon="4.79468">
        <ele>203</ele>
        <time>2017-04-29T11:05:46Z</time>
      </trkpt>
      <trkpt lat="45.93953" lon="4.79458">
        <ele>203</ele>
        <time>2017-04-29T11:05:47Z</time>
      </trkpt>
      <trkpt lat="45.93953" lon="4.79447">
        <ele>202</ele>
        <time>2017-04-29T11:05:48Z</time>
      </trkpt>
      <trkpt lat="45.93953" lon="4.79436">
        <ele>202</ele>
        <time>2017-04-29T11:05:49Z</time>
      </trkpt>
      <trkpt lat="45.93953" lon="4.79426">
        <ele>202</ele>
        <time>2017-04-29T11:05:50Z</time>
      </trkpt>
      <trkpt lat="45.93953" lon="4.79414">
        <ele>201</ele>
        <time>2017-04-29T11:05:51Z</time>
      </trkpt>
      <trkpt lat="45.93953" lon="4.79404">
        <ele>201</ele>
        <time>2017-04-29T11:05:52Z</time>
      </trkpt>
      <trkpt lat="45.93952" lon="4.79393">
        <ele>201</ele>
        <time>2017-04-29T11:05:53Z</time>
      </trkpt>
      <trkpt lat="45.93952" lon="4.79382">
        <ele>201</ele>
        <time>2017-04-29T11:05:54Z</time>
      </trkpt>
      <trkpt lat="45.93952" lon="4.7937">
        <ele>201</ele>
        <time>2017-04-29T11:05:55Z</time>
      </trkpt>
      <trkpt lat="45.93952" lon="4.79359">
        <ele>200</ele>
        <time>2017-04-29T11:05:56Z</time>
      </trkpt>
      <trkpt lat="45.93951" lon="4.79347">
        <ele>200</ele>
        <time>2017-04-29T11:05:57Z</time>
      </trkpt>
      <trkpt lat="45.93951" lon="4.79336">
        <ele>200</ele>
        <time>2017-04-29T11:05:58Z</time>
      </trkpt>
      <trkpt lat="45.93951" lon="4.79325">
        <ele>198</ele>
        <time>2017-04-29T11:05:59Z</time>
      </trkpt>
      <trkpt lat="45.93951" lon="4.79314">
        <ele>198</ele>
        <time>2017-04-29T11:06:00Z</time>
      </trkpt>
      <trkpt lat="45.93951" lon="4.79303">
        <ele>198</ele>
        <time>2017-04-29T11:06:01Z</time>
      </trkpt>
      <trkpt lat="45.93951" lon="4.79291">
        <ele>198</ele>
        <time>2017-04-29T11:06:02Z</time>
      </trkpt>
      <trkpt lat="45.93951" lon="4.7928">
        <ele>198</ele>
        <time>2017-04-29T11:06:03Z</time>
      </trkpt>
      <trkpt lat="45.9395" lon="4.79269">
        <ele>198</ele>
        <time>2017-04-29T11:06:04Z</time>
      </trkpt>
      <trkpt lat="45.93949" lon="4.79258">
        <ele>197</ele>
        <time>2017-04-29T11:06:05Z</time>
      </trkpt>
      <trkpt lat="45.93949" lon="4.79247">
        <ele>197</ele>
        <time>2017-04-29T11:06:06Z</time>
      </trkpt>
      <trkpt lat="45.93949" lon="4.79237">
        <ele>197</ele>
        <time>2017-04-29T11:06:07Z</time>
      </trkpt>
      <trkpt lat="45.93948" lon="4.79226">
        <ele>197</ele>
        <time>2017-04-29T11:06:08Z</time>
      </trkpt>
      <trkpt lat="45.93948" lon="4.79215">
        <ele>197</ele>
        <time>2017-04-29T11:06:09Z</time>
      </trkpt>
      <trkpt lat="45.93948" lon="4.79205">
        <ele>197</ele>
        <time>2017-04-29T11:06:10Z</time>
      </trkpt>
      <trkpt lat="45.93948" lon="4.79195">
        <ele>197</ele>
        <time>2017-04-29T11:06:11Z</time>
      </trkpt>
      <trkpt lat="45.93948" lon="4.79185">
        <ele>197</ele>
        <time>2017-04-29T11:06:12Z</time>
      </trkpt>
      <trkpt lat="45.93949" lon="4.79174">
        <ele>197</ele>
        <time>2017-04-29T11:06:13Z</time>
      </trkpt>
      <trkpt lat="45.93949" lon="4.79164">
        <ele>196</ele>
        <time>2017-04-29T11:06:14Z</time>
      </trkpt>
      <trkpt lat="45.93949" lon="4.79154">
        <ele>196</ele>
        <time>2017-04-29T11:06:15Z</time>
      </trkpt>
      <trkpt lat="45.93949" lon="4.79144">
        <ele>197</ele>
        <time>2017-04-29T11:06:16Z</time>
      </trkpt>
      <trkpt lat="45.93948" lon="4.79134">
        <ele>197</ele>
        <time>2017-04-29T11:06:17Z</time>
      </trkpt>
      <trkpt lat="45.93948" lon="4.79124">
        <ele>197</ele>
        <time>2017-04-29T11:06:18Z</time>
      </trkpt>
      <trkpt lat="45.93947" lon="4.79114">
        <ele>196</ele>
        <time>2017-04-29T11:06:19Z</time>
      </trkpt>
      <trkpt lat="45.93947" lon="4.79104">
        <ele>196</ele>
        <time>2017-04-29T11:06:20Z</time>
      </trkpt>
      <trkpt lat="45.93946" lon="4.79094">
        <ele>196</ele>
        <time>2017-04-29T11:06:21Z</time>
      </trkpt>
      <trkpt lat="45.93946" lon="4.79084">
        <ele>196</ele>
        <time>2017-04-29T11:06:22Z</time>
      </trkpt>
      <trkpt lat="45.93946" lon="4.79073">
        <ele>195</ele>
        <time>2017-04-29T11:06:23Z</time>
      </trkpt>
      <trkpt lat="45.93946" lon="4.79063">
        <ele>195</ele>
        <time>2017-04-29T11:06:24Z</time>
      </trkpt>
      <trkpt lat="45.93945" lon="4.79053">
        <ele>195</ele>
        <time>2017-04-29T11:06:25Z</time>
      </trkpt>
      <trkpt lat="45.93944" lon="4.79044">
        <ele>195</ele>
        <time>2017-04-29T11:06:26Z</time>
      </trkpt>
      <trkpt lat="45.93944" lon="4.79034">
        <ele>195</ele>
        <time>2017-04-29T11:06:27Z</time>
      </trkpt>
      <trkpt lat="45.93944" lon="4.79024">
        <ele>195</ele>
        <time>2017-04-29T11:06:28Z</time>
      </trkpt>
      <trkpt lat="45.93944" lon="4.79013">
        <ele>195</ele>
        <time>2017-04-29T11:06:29Z</time>
      </trkpt>
      <trkpt lat="45.93944" lon="4.79002">
        <ele>194</ele>
        <time>2017-04-29T11:06:30Z</time>
      </trkpt>
      <trkpt lat="45.93943" lon="4.78992">
        <ele>194</ele>
        <time>2017-04-29T11:06:31Z</time>
      </trkpt>
      <trkpt lat="45.93943" lon="4.78981">
        <ele>194</ele>
        <time>2017-04-29T11:06:32Z</time>
      </trkpt>
      <trkpt lat="45.93943" lon="4.7897">
        <ele>194</ele>
        <time>2017-04-29T11:06:33Z</time>
      </trkpt>
      <trkpt lat="45.93943" lon="4.7896">
        <ele>194</ele>
        <time>2017-04-29T11:06:34Z</time>
      </trkpt>
      <trkpt lat="45.93943" lon="4.7895">
        <ele>194</ele>
        <time>2017-04-29T11:06:35Z</time>
      </trkpt>
      <trkpt lat="45.93943" lon="4.7894">
        <ele>194</ele>
        <time>2017-04-29T11:06:36Z</time>
      </trkpt>
      <trkpt lat="45.93943" lon="4.7893">
        <ele>193</ele>
        <time>2017-04-29T11:06:37Z</time>
      </trkpt>
      <trkpt lat="45.93943" lon="4.7892">
        <ele>193</ele>
        <time>2017-04-29T11:06:38Z</time>
      </trkpt>
      <trkpt lat="45.93942" lon="4.7891">
        <ele>193</ele>
        <time>2017-04-29T11:06:39Z</time>
      </trkpt>
      <trkpt lat="45.93942" lon="4.789">
        <ele>193</ele>
        <time>2017-04-29T11:06:40Z</time>
      </trkpt>
      <trkpt lat="45.93942" lon="4.78891">
        <ele>194</ele>
        <time>2017-04-29T11:06:41Z</time>
      </trkpt>
      <trkpt lat="45.93941" lon="4.78881">
        <ele>194</ele>
        <time>2017-04-29T11:06:42Z</time>
      </trkpt>
      <trkpt lat="45.9394" lon="4.78872">
        <ele>194</ele>
        <time>2017-04-29T11:06:43Z</time>
      </trkpt>
      <trkpt lat="45.93939" lon="4.78863">
        <ele>194</ele>
        <time>2017-04-29T11:06:44Z</time>
      </trkpt>
      <trkpt lat="45.93938" lon="4.78853">
        <ele>193</ele>
        <time>2017-04-29T11:06:45Z</time>
      </trkpt>
      <trkpt lat="45.93938" lon="4.78844">
        <ele>193</ele>
        <time>2017-04-29T11:06:46Z</time>
      </trkpt>
      <trkpt lat="45.93938" lon="4.78835">
        <ele>193</ele>
        <time>2017-04-29T11:06:47Z</time>
      </trkpt>
      <trkpt lat="45.93937" lon="4.78825">
        <ele>193</ele>
        <time>2017-04-29T11:06:48Z</time>
      </trkpt>
      <trkpt lat="45.93937" lon="4.78816">
        <ele>194</ele>
        <time>2017-04-29T11:06:49Z</time>
      </trkpt>
      <trkpt lat="45.93938" lon="4.78808">
        <ele>194</ele>
        <time>2017-04-29T11:06:50Z</time>
      </trkpt>
      <trkpt lat="45.93938" lon="4.78799">
        <ele>194</ele>
        <time>2017-04-29T11:06:51Z</time>
      </trkpt>
      <trkpt lat="45.93938" lon="4.78791">
        <ele>194</ele>
        <time>2017-04-29T11:06:52Z</time>
      </trkpt>
      <trkpt lat="45.93938" lon="4.78782">
        <ele>194</ele>
        <time>2017-04-29T11:06:53Z</time>
      </trkpt>
      <trkpt lat="45.93938" lon="4.78774">
        <ele>194</ele>
        <time>2017-04-29T11:06:54Z</time>
      </trkpt>
      <trkpt lat="45.93938" lon="4.78765">
        <ele>193</ele>
        <time>2017-04-29T11:06:55Z</time>
      </trkpt>
      <trkpt lat="45.93937" lon="4.78757">
        <ele>193</ele>
        <time>2017-04-29T11:06:56Z</time>
      </trkpt>
      <trkpt lat="45.93937" lon="4.78748">
        <ele>193</ele>
        <time>2017-04-29T11:06:57Z</time>
      </trkpt>
      <trkpt lat="45.93938" lon="4.78739">
        <ele>193</ele>
        <time>2017-04-29T11:06:58Z</time>
      </trkpt>
      <trkpt lat="45.93938" lon="4.78731">
        <ele>194</ele>
        <time>2017-04-29T11:06:59Z</time>
      </trkpt>
      <trkpt lat="45.93939" lon="4.78722">
        <ele>194</ele>
        <time>2017-04-29T11:07:00Z</time>
      </trkpt>
      <trkpt lat="45.93939" lon="4.78713">
        <ele>194</ele>
        <time>2017-04-29T11:07:01Z</time>
      </trkpt>
      <trkpt lat="45.93939" lon="4.78703">
        <ele>194</ele>
        <time>2017-04-29T11:07:02Z</time>
      </trkpt>
      <trkpt lat="45.93939" lon="4.78695">
        <ele>194</ele>
        <time>2017-04-29T11:07:03Z</time>
      </trkpt>
      <trkpt lat="45.9394" lon="4.78685">
        <ele>194</ele>
        <time>2017-04-29T11:07:04Z</time>
      </trkpt>
      <trkpt lat="45.9394" lon="4.78676">
        <ele>194</ele>
        <time>2017-04-29T11:07:05Z</time>
      </trkpt>
      <trkpt lat="45.9394" lon="4.78667">
        <ele>194</ele>
        <time>2017-04-29T11:07:06Z</time>
      </trkpt>
      <trkpt lat="45.93939" lon="4.78658">
        <ele>194</ele>
        <time>2017-04-29T11:07:07Z</time>
      </trkpt>
      <trkpt lat="45.9394" lon="4.78648">
        <ele>195</ele>
        <time>2017-04-29T11:07:08Z</time>
      </trkpt>
      <trkpt lat="45.9394" lon="4.78639">
        <ele>195</ele>
        <time>2017-04-29T11:07:09Z</time>
      </trkpt>
      <trkpt lat="45.9394" lon="4.78631">
        <ele>196</ele>
        <time>2017-04-29T11:07:10Z</time>
      </trkpt>
      <trkpt lat="45.9394" lon="4.78623">
        <ele>196</ele>
        <time>2017-04-29T11:07:11Z</time>
      </trkpt>
      <trkpt lat="45.93939" lon="4.78615">
        <ele>196</ele>
        <time>2017-04-29T11:07:12Z</time>
      </trkpt>
      <trkpt lat="45.93938" lon="4.78607">
        <ele>196</ele>
        <time>2017-04-29T11:07:13Z</time>
      </trkpt>
      <trkpt lat="45.93938" lon="4.78599">
        <ele>196</ele>
        <time>2017-04-29T11:07:14Z</time>
      </trkpt>
      <trkpt lat="45.93937" lon="4.78592">
        <ele>195</ele>
        <time>2017-04-29T11:07:15Z</time>
      </trkpt>
      <trkpt lat="45.93936" lon="4.78584">
        <ele>195</ele>
        <time>2017-04-29T11:07:16Z</time>
      </trkpt>
      <trkpt lat="45.93936" lon="4.78572">
        <ele>196</ele>
        <time>2017-04-29T11:07:18Z</time>
      </trkpt>
      <trkpt lat="45.93934" lon="4.78567">
        <ele>196</ele>
        <time>2017-04-29T11:07:19Z</time>
      </trkpt>
      <trkpt lat="45.93931" lon="4.78554">
        <ele>197</ele>
        <time>2017-04-29T11:07:21Z</time>
      </trkpt>
      <trkpt lat="45.93932" lon="4.78548">
        <ele>197</ele>
        <time>2017-04-29T11:07:22Z</time>
      </trkpt>
      <trkpt lat="45.93933" lon="4.78541">
        <ele>197</ele>
        <time>2017-04-29T11:07:23Z</time>
      </trkpt>
      <trkpt lat="45.93934" lon="4.78535">
        <ele>197</ele>
        <time>2017-04-29T11:07:24Z</time>
      </trkpt>
      <trkpt lat="45.93934" lon="4.78527">
        <ele>197</ele>
        <time>2017-04-29T11:07:25Z</time>
      </trkpt>
      <trkpt lat="45.93935" lon="4.7852">
        <ele>197</ele>
        <time>2017-04-29T11:07:26Z</time>
      </trkpt>
      <trkpt lat="45.93935" lon="4.78513">
        <ele>197</ele>
        <time>2017-04-29T11:07:27Z</time>
      </trkpt>
      <trkpt lat="45.93936" lon="4.78505">
        <ele>197</ele>
        <time>2017-04-29T11:07:28Z</time>
      </trkpt>
      <trkpt lat="45.93938" lon="4.78498">
        <ele>197</ele>
        <time>2017-04-29T11:07:29Z</time>
      </trkpt>
      <trkpt lat="45.93938" lon="4.78491">
        <ele>197</ele>
        <time>2017-04-29T11:07:30Z</time>
      </trkpt>
      <trkpt lat="45.9394" lon="4.7848">
        <ele>197</ele>
        <time>2017-04-29T11:07:32Z</time>
      </trkpt>
      <trkpt lat="45.9394" lon="4.78474">
        <ele>197</ele>
        <time>2017-04-29T11:07:33Z</time>
      </trkpt>
      <trkpt lat="45.93942" lon="4.78463">
        <ele>197</ele>
        <time>2017-04-29T11:07:35Z</time>
      </trkpt>
      <trkpt lat="45.93943" lon="4.78457">
        <ele>197</ele>
        <time>2017-04-29T11:07:36Z</time>
      </trkpt>
      <trkpt lat="45.93944" lon="4.7845">
        <ele>197</ele>
        <time>2017-04-29T11:07:37Z</time>
      </trkpt>
      <trkpt lat="45.93945" lon="4.78442">
        <ele>197</ele>
        <time>2017-04-29T11:07:38Z</time>
      </trkpt>
      <trkpt lat="45.93946" lon="4.78435">
        <ele>197</ele>
        <time>2017-04-29T11:07:39Z</time>
      </trkpt>
      <trkpt lat="45.93948" lon="4.78428">
        <ele>197</ele>
        <time>2017-04-29T11:07:40Z</time>
      </trkpt>
      <trkpt lat="45.93948" lon="4.7842">
        <ele>197</ele>
        <time>2017-04-29T11:07:41Z</time>
      </trkpt>
      <trkpt lat="45.93949" lon="4.78412">
        <ele>196</ele>
        <time>2017-04-29T11:07:42Z</time>
      </trkpt>
      <trkpt lat="45.93949" lon="4.78405">
        <ele>196</ele>
        <time>2017-04-29T11:07:43Z</time>
      </trkpt>
      <trkpt lat="45.93949" lon="4.78398">
        <ele>196</ele>
        <time>2017-04-29T11:07:44Z</time>
      </trkpt>
      <trkpt lat="45.9395" lon="4.7839">
        <ele>196</ele>
        <time>2017-04-29T11:07:45Z</time>
      </trkpt>
      <trkpt lat="45.93952" lon="4.78383">
        <ele>196</ele>
        <time>2017-04-29T11:07:46Z</time>
      </trkpt>
      <trkpt lat="45.93953" lon="4.78376">
        <ele>196</ele>
        <time>2017-04-29T11:07:47Z</time>
      </trkpt>
      <trkpt lat="45.93954" lon="4.78369">
        <ele>196</ele>
        <time>2017-04-29T11:07:48Z</time>
      </trkpt>
      <trkpt lat="45.93955" lon="4.78362">
        <ele>196</ele>
        <time>2017-04-29T11:07:49Z</time>
      </trkpt>
      <trkpt lat="45.93957" lon="4.78354">
        <ele>196</ele>
        <time>2017-04-29T11:07:50Z</time>
      </trkpt>
      <trkpt lat="45.93958" lon="4.78346">
        <ele>196</ele>
        <time>2017-04-29T11:07:51Z</time>
      </trkpt>
      <trkpt lat="45.93959" lon="4.78338">
        <ele>196</ele>
        <time>2017-04-29T11:07:52Z</time>
      </trkpt>
      <trkpt lat="45.9396" lon="4.78329">
        <ele>195</ele>
        <time>2017-04-29T11:07:53Z</time>
      </trkpt>
      <trkpt lat="45.93961" lon="4.78322">
        <ele>195</ele>
        <time>2017-04-29T11:07:54Z</time>
      </trkpt>
      <trkpt lat="45.93963" lon="4.78315">
        <ele>195</ele>
        <time>2017-04-29T11:07:55Z</time>
      </trkpt>
      <trkpt lat="45.93964" lon="4.78308">
        <ele>195</ele>
        <time>2017-04-29T11:07:56Z</time>
      </trkpt>
      <trkpt lat="45.93965" lon="4.78301">
        <ele>196</ele>
        <time>2017-04-29T11:07:57Z</time>
      </trkpt>
      <trkpt lat="45.93966" lon="4.78295">
        <ele>195</ele>
        <time>2017-04-29T11:07:58Z</time>
      </trkpt>
      <trkpt lat="45.93967" lon="4.78288">
        <ele>195</ele>
        <time>2017-04-29T11:07:59Z</time>
      </trkpt>
      <trkpt lat="45.93968" lon="4.78281">
        <ele>196</ele>
        <time>2017-04-29T11:08:00Z</time>
      </trkpt>
      <trkpt lat="45.93969" lon="4.78275">
        <ele>196</ele>
        <time>2017-04-29T11:08:01Z</time>
      </trkpt>
      <trkpt lat="45.9397" lon="4.78268">
        <ele>196</ele>
        <time>2017-04-29T11:08:02Z</time>
      </trkpt>
      <trkpt lat="45.9397" lon="4.78262">
        <ele>196</ele>
        <time>2017-04-29T11:08:03Z</time>
      </trkpt>
      <trkpt lat="45.93971" lon="4.78255">
        <ele>196</ele>
        <time>2017-04-29T11:08:04Z</time>
      </trkpt>
      <trkpt lat="45.93972" lon="4.78248">
        <ele>196</ele>
        <time>2017-04-29T11:08:05Z</time>
      </trkpt>
      <trkpt lat="45.93972" lon="4.78242">
        <ele>196</ele>
        <time>2017-04-29T11:08:06Z</time>
      </trkpt>
      <trkpt lat="45.93973" lon="4.78235">
        <ele>196</ele>
        <time>2017-04-29T11:08:07Z</time>
      </trkpt>
      <trkpt lat="45.93974" lon="4.78228">
        <ele>196</ele>
        <time>2017-04-29T11:08:08Z</time>
      </trkpt>
      <trkpt lat="45.93975" lon="4.78221">
        <ele>196</ele>
        <time>2017-04-29T11:08:09Z</time>
      </trkpt>
      <trkpt lat="45.93977" lon="4.78215">
        <ele>197</ele>
        <time>2017-04-29T11:08:10Z</time>
      </trkpt>
      <trkpt lat="45.93978" lon="4.78203">
        <ele>197</ele>
        <time>2017-04-29T11:08:12Z</time>
      </trkpt>
      <trkpt lat="45.93978" lon="4.78196">
        <ele>197</ele>
        <time>2017-04-29T11:08:13Z</time>
      </trkpt>
      <trkpt lat="45.93981" lon="4.78184">
        <ele>198</ele>
        <time>2017-04-29T11:08:15Z</time>
      </trkpt>
      <trkpt lat="45.93983" lon="4.78178">
        <ele>198</ele>
        <time>2017-04-29T11:08:16Z</time>
      </trkpt>
      <trkpt lat="45.93988" lon="4.78167">
        <ele>199</ele>
        <time>2017-04-29T11:08:18Z</time>
      </trkpt>
      <trkpt lat="45.93989" lon="4.78162">
        <ele>199</ele>
        <time>2017-04-29T11:08:19Z</time>
      </trkpt>
      <trkpt lat="45.93988" lon="4.78151">
        <ele>198</ele>
        <time>2017-04-29T11:08:21Z</time>
      </trkpt>
      <trkpt lat="45.93988" lon="4.78145">
        <ele>198</ele>
        <time>2017-04-29T11:08:22Z</time>
      </trkpt>
      <trkpt lat="45.93989" lon="4.78134">
        <ele>197</ele>
        <time>2017-04-29T11:08:24Z</time>
      </trkpt>
      <trkpt lat="45.9399" lon="4.78128">
        <ele>197</ele>
        <time>2017-04-29T11:08:25Z</time>
      </trkpt>
      <trkpt lat="45.93993" lon="4.78117">
        <ele>197</ele>
        <time>2017-04-29T11:08:27Z</time>
      </trkpt>
      <trkpt lat="45.93994" lon="4.7811">
        <ele>197</ele>
        <time>2017-04-29T11:08:28Z</time>
      </trkpt>
      <trkpt lat="45.93995" lon="4.78104">
        <ele>197</ele>
        <time>2017-04-29T11:08:29Z</time>
      </trkpt>
      <trkpt lat="45.93996" lon="4.78097">
        <ele>198</ele>
        <time>2017-04-29T11:08:30Z</time>
      </trkpt>
      <trkpt lat="45.93997" lon="4.7809">
        <ele>198</ele>
        <time>2017-04-29T11:08:31Z</time>
      </trkpt>
      <trkpt lat="45.93998" lon="4.78084">
        <ele>199</ele>
        <time>2017-04-29T11:08:32Z</time>
      </trkpt>
      <trkpt lat="45.93999" lon="4.78078">
        <ele>198</ele>
        <time>2017-04-29T11:08:33Z</time>
      </trkpt>
      <trkpt lat="45.94" lon="4.78071">
        <ele>197</ele>
        <time>2017-04-29T11:08:34Z</time>
      </trkpt>
      <trkpt lat="45.94001" lon="4.78064">
        <ele>201</ele>
        <time>2017-04-29T11:08:35Z</time>
      </trkpt>
      <trkpt lat="45.94003" lon="4.78058">
        <ele>201</ele>
        <time>2017-04-29T11:08:36Z</time>
      </trkpt>
      <trkpt lat="45.94004" lon="4.78052">
        <ele>201</ele>
        <time>2017-04-29T11:08:37Z</time>
      </trkpt>
      <trkpt lat="45.94006" lon="4.78046">
        <ele>201</ele>
        <time>2017-04-29T11:08:38Z</time>
      </trkpt>
      <trkpt lat="45.94007" lon="4.7804">
        <ele>201</ele>
        <time>2017-04-29T11:08:39Z</time>
      </trkpt>
      <trkpt lat="45.94009" lon="4.78033">
        <ele>201</ele>
        <time>2017-04-29T11:08:40Z</time>
      </trkpt>
      <trkpt lat="45.9401" lon="4.78027">
        <ele>201</ele>
        <time>2017-04-29T11:08:41Z</time>
      </trkpt>
      <trkpt lat="45.94012" lon="4.78019">
        <ele>200</ele>
        <time>2017-04-29T11:08:42Z</time>
      </trkpt>
      <trkpt lat="45.94013" lon="4.78012">
        <ele>200</ele>
        <time>2017-04-29T11:08:43Z</time>
      </trkpt>
      <trkpt lat="45.94014" lon="4.78005">
        <ele>199</ele>
        <time>2017-04-29T11:08:44Z</time>
      </trkpt>
      <trkpt lat="45.94015" lon="4.77997">
        <ele>199</ele>
        <time>2017-04-29T11:08:45Z</time>
      </trkpt>
      <trkpt lat="45.94016" lon="4.7799">
        <ele>199</ele>
        <time>2017-04-29T11:08:46Z</time>
      </trkpt>
      <trkpt lat="45.94017" lon="4.77982">
        <ele>199</ele>
        <time>2017-04-29T11:08:47Z</time>
      </trkpt>
      <trkpt lat="45.94019" lon="4.77975">
        <ele>200</ele>
        <time>2017-04-29T11:08:48Z</time>
      </trkpt>
      <trkpt lat="45.94021" lon="4.77967">
        <ele>200</ele>
        <time>2017-04-29T11:08:49Z</time>
      </trkpt>
      <trkpt lat="45.94022" lon="4.77961">
        <ele>200</ele>
        <time>2017-04-29T11:08:50Z</time>
      </trkpt>
      <trkpt lat="45.94024" lon="4.77954">
        <ele>200</ele>
        <time>2017-04-29T11:08:51Z</time>
      </trkpt>
      <trkpt lat="45.94025" lon="4.77948">
        <ele>200</ele>
        <time>2017-04-29T11:08:52Z</time>
      </trkpt>
      <trkpt lat="45.94024" lon="4.77936">
        <ele>199</ele>
        <time>2017-04-29T11:08:54Z</time>
      </trkpt>
      <trkpt lat="45.94021" lon="4.77933">
        <ele>199</ele>
        <time>2017-04-29T11:08:55Z</time>
      </trkpt>
      <trkpt lat="45.94013" lon="4.7793">
        <ele>198</ele>
        <time>2017-04-29T11:08:57Z</time>
      </trkpt>
      <trkpt lat="45.94007" lon="4.7793">
        <ele>197</ele>
        <time>2017-04-29T11:08:58Z</time>
      </trkpt>
      <trkpt lat="45.94002" lon="4.77931">
        <ele>197</ele>
        <time>2017-04-29T11:08:59Z</time>
      </trkpt>
      <trkpt lat="45.93996" lon="4.77933">
        <ele>192</ele>
        <time>2017-04-29T11:09:00Z</time>
      </trkpt>
      <trkpt lat="45.9399" lon="4.77936">
        <ele>192</ele>
        <time>2017-04-29T11:09:01Z</time>
      </trkpt>
      <trkpt lat="45.93984" lon="4.77939">
        <ele>191</ele>
        <time>2017-04-29T11:09:02Z</time>
      </trkpt>
      <trkpt lat="45.93978" lon="4.77942">
        <ele>191</ele>
        <time>2017-04-29T11:09:03Z</time>
      </trkpt>
      <trkpt lat="45.93971" lon="4.77946">
        <ele>191</ele>
        <time>2017-04-29T11:09:04Z</time>
      </trkpt>
      <trkpt lat="45.93965" lon="4.7795">
        <ele>190</ele>
        <time>2017-04-29T11:09:05Z</time>
      </trkpt>
      <trkpt lat="45.93958" lon="4.77954">
        <ele>190</ele>
        <time>2017-04-29T11:09:06Z</time>
      </trkpt>
      <trkpt lat="45.93951" lon="4.77959">
        <ele>190</ele>
        <time>2017-04-29T11:09:07Z</time>
      </trkpt>
      <trkpt lat="45.93944" lon="4.77963">
        <ele>189</ele>
        <time>2017-04-29T11:09:08Z</time>
      </trkpt>
      <trkpt lat="45.93938" lon="4.77968">
        <ele>189</ele>
        <time>2017-04-29T11:09:09Z</time>
      </trkpt>
      <trkpt lat="45.93931" lon="4.77974">
        <ele>189</ele>
        <time>2017-04-29T11:09:10Z</time>
      </trkpt>
      <trkpt lat="45.93923" lon="4.7798">
        <ele>188</ele>
        <time>2017-04-29T11:09:11Z</time>
      </trkpt>
      <trkpt lat="45.93916" lon="4.77986">
        <ele>183</ele>
        <time>2017-04-29T11:09:12Z</time>
      </trkpt>
      <trkpt lat="45.93909" lon="4.77993">
        <ele>184</ele>
        <time>2017-04-29T11:09:13Z</time>
      </trkpt>
      <trkpt lat="45.93902" lon="4.78001">
        <ele>185</ele>
        <time>2017-04-29T11:09:14Z</time>
      </trkpt>
      <trkpt lat="45.93894" lon="4.78002">
        <ele>184</ele>
        <time>2017-04-29T11:09:16Z</time>
      </trkpt>
      <trkpt lat="45.9389" lon="4.78006">
        <ele>184</ele>
        <time>2017-04-29T11:09:17Z</time>
      </trkpt>
      <trkpt lat="45.93885" lon="4.78009">
        <ele>184</ele>
        <time>2017-04-29T11:09:18Z</time>
      </trkpt>
      <trkpt lat="45.93879" lon="4.78012">
        <ele>184</ele>
        <time>2017-04-29T11:09:19Z</time>
      </trkpt>
      <trkpt lat="45.93873" lon="4.7801">
        <ele>183</ele>
        <time>2017-04-29T11:09:20Z</time>
      </trkpt>
      <trkpt lat="45.93867" lon="4.78006">
        <ele>183</ele>
        <time>2017-04-29T11:09:21Z</time>
      </trkpt>
      <trkpt lat="45.93862" lon="4.78001">
        <ele>182</ele>
        <time>2017-04-29T11:09:22Z</time>
      </trkpt>
      <trkpt lat="45.93857" lon="4.77996">
        <ele>179</ele>
        <time>2017-04-29T11:09:23Z</time>
      </trkpt>
      <trkpt lat="45.93851" lon="4.77992">
        <ele>179</ele>
        <time>2017-04-29T11:09:24Z</time>
      </trkpt>
      <trkpt lat="45.93845" lon="4.77988">
        <ele>179</ele>
        <time>2017-04-29T11:09:25Z</time>
      </trkpt>
      <trkpt lat="45.9384" lon="4.77984">
        <ele>178</ele>
        <time>2017-04-29T11:09:26Z</time>
      </trkpt>
      <trkpt lat="45.93836" lon="4.77978">
        <ele>178</ele>
        <time>2017-04-29T11:09:27Z</time>
      </trkpt>
      <trkpt lat="45.93832" lon="4.77973">
        <ele>172</ele>
        <time>2017-04-29T11:09:28Z</time>
      </trkpt>
      <trkpt lat="45.93829" lon="4.77968">
        <ele>172</ele>
        <time>2017-04-29T11:09:29Z</time>
      </trkpt>
      <trkpt lat="45.93826" lon="4.77963">
        <ele>171</ele>
        <time>2017-04-29T11:09:30Z</time>
      </trkpt>
      <trkpt lat="45.93823" lon="4.77959">
        <ele>170</ele>
        <time>2017-04-29T11:09:31Z</time>
      </trkpt>
      <trkpt lat="45.93819" lon="4.77954">
        <ele>170</ele>
        <time>2017-04-29T11:09:32Z</time>
      </trkpt>
      <trkpt lat="45.93816" lon="4.77948">
        <ele>169</ele>
        <time>2017-04-29T11:09:33Z</time>
      </trkpt>
      <trkpt lat="45.93812" lon="4.77944">
        <ele>169</ele>
        <time>2017-04-29T11:09:34Z</time>
      </trkpt>
      <trkpt lat="45.93809" lon="4.77939">
        <ele>169</ele>
        <time>2017-04-29T11:09:35Z</time>
      </trkpt>
      <trkpt lat="45.93805" lon="4.77934">
        <ele>168</ele>
        <time>2017-04-29T11:09:36Z</time>
      </trkpt>
      <trkpt lat="45.93801" lon="4.77929">
        <ele>168</ele>
        <time>2017-04-29T11:09:37Z</time>
      </trkpt>
      <trkpt lat="45.93797" lon="4.77924">
        <ele>168</ele>
        <time>2017-04-29T11:09:38Z</time>
      </trkpt>
      <trkpt lat="45.93793" lon="4.77919">
        <ele>168</ele>
        <time>2017-04-29T11:09:39Z</time>
      </trkpt>
      <trkpt lat="45.93789" lon="4.77914">
        <ele>166</ele>
        <time>2017-04-29T11:09:40Z</time>
      </trkpt>
      <trkpt lat="45.93785" lon="4.77909">
        <ele>166</ele>
        <time>2017-04-29T11:09:41Z</time>
      </trkpt>
      <trkpt lat="45.93781" lon="4.77904">
        <ele>166</ele>
        <time>2017-04-29T11:09:42Z</time>
      </trkpt>
      <trkpt lat="45.93776" lon="4.77899">
        <ele>166</ele>
        <time>2017-04-29T11:09:43Z</time>
      </trkpt>
      <trkpt lat="45.93772" lon="4.77893">
        <ele>166</ele>
        <time>2017-04-29T11:09:44Z</time>
      </trkpt>
      <trkpt lat="45.93768" lon="4.77887">
        <ele>166</ele>
        <time>2017-04-29T11:09:45Z</time>
      </trkpt>
      <trkpt lat="45.93764" lon="4.77882">
        <ele>166</ele>
        <time>2017-04-29T11:09:46Z</time>
      </trkpt>
      <trkpt lat="45.9376" lon="4.77877">
        <ele>166</ele>
        <time>2017-04-29T11:09:47Z</time>
      </trkpt>
      <trkpt lat="45.93755" lon="4.77872">
        <ele>166</ele>
        <time>2017-04-29T11:09:48Z</time>
      </trkpt>
      <trkpt lat="45.93751" lon="4.77866">
        <ele>166</ele>
        <time>2017-04-29T11:09:49Z</time>
      </trkpt>
      <trkpt lat="45.93747" lon="4.7786">
        <ele>167</ele>
        <time>2017-04-29T11:09:50Z</time>
      </trkpt>
      <trkpt lat="45.93742" lon="4.77855">
        <ele>167</ele>
        <time>2017-04-29T11:09:51Z</time>
      </trkpt>
      <trkpt lat="45.93737" lon="4.77849">
        <ele>167</ele>
        <time>2017-04-29T11:09:52Z</time>
      </trkpt>
      <trkpt lat="45.93733" lon="4.77843">
        <ele>167</ele>
        <time>2017-04-29T11:09:53Z</time>
      </trkpt>
      <trkpt lat="45.93728" lon="4.77837">
        <ele>167</ele>
        <time>2017-04-29T11:09:54Z</time>
      </trkpt>
      <trkpt lat="45.93723" lon="4.77831">
        <ele>168</ele>
        <time>2017-04-29T11:09:55Z</time>
      </trkpt>
      <trkpt lat="45.93718" lon="4.77825">
        <ele>168</ele>
        <time>2017-04-29T11:09:56Z</time>
      </trkpt>
      <trkpt lat="45.93714" lon="4.77819">
        <ele>169</ele>
        <time>2017-04-29T11:09:57Z</time>
      </trkpt>
      <trkpt lat="45.93709" lon="4.77813">
        <ele>169</ele>
        <time>2017-04-29T11:09:58Z</time>
      </trkpt>
      <trkpt lat="45.93705" lon="4.77806">
        <ele>169</ele>
        <time>2017-04-29T11:09:59Z</time>
      </trkpt>
      <trkpt lat="45.937" lon="4.778">
        <ele>169</ele>
        <time>2017-04-29T11:10:00Z</time>
      </trkpt>
      <trkpt lat="45.93695" lon="4.77793">
        <ele>169</ele>
        <time>2017-04-29T11:10:01Z</time>
      </trkpt>
      <trkpt lat="45.9369" lon="4.77787">
        <ele>170</ele>
        <time>2017-04-29T11:10:02Z</time>
      </trkpt>
      <trkpt lat="45.93686" lon="4.7778">
        <ele>170</ele>
        <time>2017-04-29T11:10:03Z</time>
      </trkpt>
      <trkpt lat="45.93681" lon="4.77773">
        <ele>170</ele>
        <time>2017-04-29T11:10:04Z</time>
      </trkpt>
      <trkpt lat="45.93676" lon="4.77766">
        <ele>170</ele>
        <time>2017-04-29T11:10:05Z</time>
      </trkpt>
      <trkpt lat="45.93671" lon="4.77758">
        <ele>170</ele>
        <time>2017-04-29T11:10:06Z</time>
      </trkpt>
      <trkpt lat="45.93666" lon="4.77751">
        <ele>171</ele>
        <time>2017-04-29T11:10:07Z</time>
      </trkpt>
      <trkpt lat="45.93661" lon="4.77743">
        <ele>170</ele>
        <time>2017-04-29T11:10:08Z</time>
      </trkpt>
      <trkpt lat="45.93656" lon="4.77734">
        <ele>170</ele>
        <time>2017-04-29T11:10:09Z</time>
      </trkpt>
      <trkpt lat="45.93651" lon="4.77725">
        <ele>170</ele>
        <time>2017-04-29T11:10:10Z</time>
      </trkpt>
      <trkpt lat="45.93645" lon="4.77716">
        <ele>170</ele>
        <time>2017-04-29T11:10:11Z</time>
      </trkpt>
      <trkpt lat="45.9364" lon="4.77707">
        <ele>170</ele>
        <time>2017-04-29T11:10:12Z</time>
      </trkpt>
      <trkpt lat="45.93635" lon="4.77697">
        <ele>169</ele>
        <time>2017-04-29T11:10:13Z</time>
      </trkpt>
      <trkpt lat="45.9363" lon="4.77687">
        <ele>169</ele>
        <time>2017-04-29T11:10:14Z</time>
      </trkpt>
      <trkpt lat="45.93625" lon="4.77678">
        <ele>169</ele>
        <time>2017-04-29T11:10:15Z</time>
      </trkpt>
      <trkpt lat="45.93621" lon="4.77668">
        <ele>169</ele>
        <time>2017-04-29T11:10:16Z</time>
      </trkpt>
      <trkpt lat="45.93616" lon="4.77658">
        <ele>169</ele>
        <time>2017-04-29T11:10:17Z</time>
      </trkpt>
      <trkpt lat="45.93612" lon="4.77648">
        <ele>169</ele>
        <time>2017-04-29T11:10:18Z</time>
      </trkpt>
      <trkpt lat="45.93608" lon="4.77638">
        <ele>169</ele>
        <time>2017-04-29T11:10:19Z</time>
      </trkpt>
      <trkpt lat="45.93604" lon="4.77628">
        <ele>169</ele>
        <time>2017-04-29T11:10:20Z</time>
      </trkpt>
      <trkpt lat="45.936" lon="4.77619">
        <ele>170</ele>
        <time>2017-04-29T11:10:21Z</time>
      </trkpt>
      <trkpt lat="45.93597" lon="4.7761">
        <ele>170</ele>
        <time>2017-04-29T11:10:22Z</time>
      </trkpt>
      <trkpt lat="45.93593" lon="4.776">
        <ele>170</ele>
        <time>2017-04-29T11:10:23Z</time>
      </trkpt>
      <trkpt lat="45.9359" lon="4.77591">
        <ele>170</ele>
        <time>2017-04-29T11:10:24Z</time>
      </trkpt>
      <trkpt lat="45.93587" lon="4.77581">
        <ele>170</ele>
        <time>2017-04-29T11:10:25Z</time>
      </trkpt>
      <trkpt lat="45.93584" lon="4.77573">
        <ele>170</ele>
        <time>2017-04-29T11:10:26Z</time>
      </trkpt>
      <trkpt lat="45.93581" lon="4.77564">
        <ele>169</ele>
        <time>2017-04-29T11:10:27Z</time>
      </trkpt>
      <trkpt lat="45.93579" lon="4.77556">
        <ele>169</ele>
        <time>2017-04-29T11:10:28Z</time>
      </trkpt>
      <trkpt lat="45.93577" lon="4.77547">
        <ele>169</ele>
        <time>2017-04-29T11:10:29Z</time>
      </trkpt>
      <trkpt lat="45.93575" lon="4.77539">
        <ele>169</ele>
        <time>2017-04-29T11:10:30Z</time>
      </trkpt>
      <trkpt lat="45.93573" lon="4.77531">
        <ele>169</ele>
        <time>2017-04-29T11:10:31Z</time>
      </trkpt>
      <trkpt lat="45.93571" lon="4.77523">
        <ele>169</ele>
        <time>2017-04-29T11:10:32Z</time>
      </trkpt>
      <trkpt lat="45.9357" lon="4.77514">
        <ele>169</ele>
        <time>2017-04-29T11:10:33Z</time>
      </trkpt>
      <trkpt lat="45.93568" lon="4.77506">
        <ele>169</ele>
        <time>2017-04-29T11:10:34Z</time>
      </trkpt>
      <trkpt lat="45.93566" lon="4.77499">
        <ele>169</ele>
        <time>2017-04-29T11:10:35Z</time>
      </trkpt>
      <trkpt lat="45.93564" lon="4.77491">
        <ele>169</ele>
        <time>2017-04-29T11:10:36Z</time>
      </trkpt>
      <trkpt lat="45.93562" lon="4.77483">
        <ele>169</ele>
        <time>2017-04-29T11:10:37Z</time>
      </trkpt>
      <trkpt lat="45.9356" lon="4.77475">
        <ele>169</ele>
        <time>2017-04-29T11:10:38Z</time>
      </trkpt>
      <trkpt lat="45.93559" lon="4.77467">
        <ele>169</ele>
        <time>2017-04-29T11:10:39Z</time>
      </trkpt>
      <trkpt lat="45.93557" lon="4.77459">
        <ele>169</ele>
        <time>2017-04-29T11:10:40Z</time>
      </trkpt>
      <trkpt lat="45.93555" lon="4.77452">
        <ele>169</ele>
        <time>2017-04-29T11:10:41Z</time>
      </trkpt>
      <trkpt lat="45.93553" lon="4.77444">
        <ele>169</ele>
        <time>2017-04-29T11:10:42Z</time>
      </trkpt>
      <trkpt lat="45.93552" lon="4.77437">
        <ele>169</ele>
        <time>2017-04-29T11:10:43Z</time>
      </trkpt>
      <trkpt lat="45.9355" lon="4.7743">
        <ele>169</ele>
        <time>2017-04-29T11:10:44Z</time>
      </trkpt>
      <trkpt lat="45.93549" lon="4.77423">
        <ele>170</ele>
        <time>2017-04-29T11:10:45Z</time>
      </trkpt>
      <trkpt lat="45.93547" lon="4.77416">
        <ele>170</ele>
        <time>2017-04-29T11:10:46Z</time>
      </trkpt>
      <trkpt lat="45.93546" lon="4.7741">
        <ele>170</ele>
        <time>2017-04-29T11:10:47Z</time>
      </trkpt>
      <trkpt lat="45.93543" lon="4.77397">
        <ele>170</ele>
        <time>2017-04-29T11:10:49Z</time>
      </trkpt>
      <trkpt lat="45.93542" lon="4.77391">
        <ele>170</ele>
        <time>2017-04-29T11:10:50Z</time>
      </trkpt>
      <trkpt lat="45.9354" lon="4.77379">
        <ele>170</ele>
        <time>2017-04-29T11:10:52Z</time>
      </trkpt>
      <trkpt lat="45.93538" lon="4.77373">
        <ele>170</ele>
        <time>2017-04-29T11:10:53Z</time>
      </trkpt>
      <trkpt lat="45.93537" lon="4.77366">
        <ele>170</ele>
        <time>2017-04-29T11:10:54Z</time>
      </trkpt>
      <trkpt lat="45.93535" lon="4.77359">
        <ele>170</ele>
        <time>2017-04-29T11:10:55Z</time>
      </trkpt>
      <trkpt lat="45.93533" lon="4.77353">
        <ele>170</ele>
        <time>2017-04-29T11:10:56Z</time>
      </trkpt>
      <trkpt lat="45.93532" lon="4.77346">
        <ele>170</ele>
        <time>2017-04-29T11:10:57Z</time>
      </trkpt>
      <trkpt lat="45.9353" lon="4.7734">
        <ele>170</ele>
        <time>2017-04-29T11:10:58Z</time>
      </trkpt>
      <trkpt lat="45.93529" lon="4.77333">
        <ele>170</ele>
        <time>2017-04-29T11:10:59Z</time>
      </trkpt>
      <trkpt lat="45.93527" lon="4.77327">
        <ele>170</ele>
        <time>2017-04-29T11:11:00Z</time>
      </trkpt>
      <trkpt lat="45.93526" lon="4.77321">
        <ele>170</ele>
        <time>2017-04-29T11:11:01Z</time>
      </trkpt>
      <trkpt lat="45.93524" lon="4.77314">
        <ele>170</ele>
        <time>2017-04-29T11:11:02Z</time>
      </trkpt>
      <trkpt lat="45.93523" lon="4.77308">
        <ele>170</ele>
        <time>2017-04-29T11:11:03Z</time>
      </trkpt>
      <trkpt lat="45.93521" lon="4.77302">
        <ele>170</ele>
        <time>2017-04-29T11:11:04Z</time>
      </trkpt>
      <trkpt lat="45.93519" lon="4.77295">
        <ele>170</ele>
        <time>2017-04-29T11:11:05Z</time>
      </trkpt>
      <trkpt lat="45.93518" lon="4.77288">
        <ele>170</ele>
        <time>2017-04-29T11:11:06Z</time>
      </trkpt>
      <trkpt lat="45.93516" lon="4.77281">
        <ele>170</ele>
        <time>2017-04-29T11:11:07Z</time>
      </trkpt>
      <trkpt lat="45.93515" lon="4.77275">
        <ele>170</ele>
        <time>2017-04-29T11:11:08Z</time>
      </trkpt>
      <trkpt lat="45.93513" lon="4.77268">
        <ele>170</ele>
        <time>2017-04-29T11:11:09Z</time>
      </trkpt>
      <trkpt lat="45.93511" lon="4.77261">
        <ele>170</ele>
        <time>2017-04-29T11:11:10Z</time>
      </trkpt>
      <trkpt lat="45.93509" lon="4.77253">
        <ele>170</ele>
        <time>2017-04-29T11:11:11Z</time>
      </trkpt>
      <trkpt lat="45.93507" lon="4.77245">
        <ele>170</ele>
        <time>2017-04-29T11:11:12Z</time>
      </trkpt>
      <trkpt lat="45.93506" lon="4.77237">
        <ele>169</ele>
        <time>2017-04-29T11:11:13Z</time>
      </trkpt>
      <trkpt lat="45.93504" lon="4.77229">
        <ele>169</ele>
        <time>2017-04-29T11:11:14Z</time>
      </trkpt>
      <trkpt lat="45.93502" lon="4.77221">
        <ele>169</ele>
        <time>2017-04-29T11:11:15Z</time>
      </trkpt>
      <trkpt lat="45.935" lon="4.77213">
        <ele>169</ele>
        <time>2017-04-29T11:11:16Z</time>
      </trkpt>
      <trkpt lat="45.93499" lon="4.77206">
        <ele>169</ele>
        <time>2017-04-29T11:11:17Z</time>
      </trkpt>
      <trkpt lat="45.93497" lon="4.772">
        <ele>169</ele>
        <time>2017-04-29T11:11:18Z</time>
      </trkpt>
      <trkpt lat="45.93496" lon="4.77193">
        <ele>169</ele>
        <time>2017-04-29T11:11:19Z</time>
      </trkpt>
      <trkpt lat="45.93494" lon="4.77186">
        <ele>169</ele>
        <time>2017-04-29T11:11:20Z</time>
      </trkpt>
      <trkpt lat="45.93493" lon="4.77178">
        <ele>169</ele>
        <time>2017-04-29T11:11:21Z</time>
      </trkpt>
      <trkpt lat="45.93492" lon="4.77171">
        <ele>169</ele>
        <time>2017-04-29T11:11:22Z</time>
      </trkpt>
      <trkpt lat="45.93491" lon="4.77163">
        <ele>169</ele>
        <time>2017-04-29T11:11:23Z</time>
      </trkpt>
      <trkpt lat="45.93489" lon="4.77156">
        <ele>169</ele>
        <time>2017-04-29T11:11:24Z</time>
      </trkpt>
      <trkpt lat="45.93488" lon="4.77149">
        <ele>169</ele>
        <time>2017-04-29T11:11:25Z</time>
      </trkpt>
      <trkpt lat="45.93486" lon="4.77142">
        <ele>169</ele>
        <time>2017-04-29T11:11:26Z</time>
      </trkpt>
      <trkpt lat="45.93485" lon="4.77135">
        <ele>169</ele>
        <time>2017-04-29T11:11:27Z</time>
      </trkpt>
      <trkpt lat="45.93483" lon="4.77128">
        <ele>169</ele>
        <time>2017-04-29T11:11:28Z</time>
      </trkpt>
      <trkpt lat="45.93481" lon="4.77121">
        <ele>169</ele>
        <time>2017-04-29T11:11:29Z</time>
      </trkpt>
      <trkpt lat="45.9348" lon="4.77113">
        <ele>169</ele>
        <time>2017-04-29T11:11:30Z</time>
      </trkpt>
      <trkpt lat="45.93478" lon="4.77106">
        <ele>169</ele>
        <time>2017-04-29T11:11:31Z</time>
      </trkpt>
      <trkpt lat="45.93477" lon="4.77098">
        <ele>169</ele>
        <time>2017-04-29T11:11:32Z</time>
      </trkpt>
      <trkpt lat="45.93476" lon="4.7709">
        <ele>169</ele>
        <time>2017-04-29T11:11:33Z</time>
      </trkpt>
      <trkpt lat="45.93475" lon="4.77082">
        <ele>170</ele>
        <time>2017-04-29T11:11:34Z</time>
      </trkpt>
      <trkpt lat="45.93473" lon="4.77074">
        <ele>170</ele>
        <time>2017-04-29T11:11:35Z</time>
      </trkpt>
      <trkpt lat="45.93472" lon="4.77067">
        <ele>170</ele>
        <time>2017-04-29T11:11:36Z</time>
      </trkpt>
      <trkpt lat="45.93471" lon="4.77059">
        <ele>170</ele>
        <time>2017-04-29T11:11:37Z</time>
      </trkpt>
      <trkpt lat="45.93469" lon="4.77052">
        <ele>170</ele>
        <time>2017-04-29T11:11:38Z</time>
      </trkpt>
      <trkpt lat="45.93468" lon="4.77045">
        <ele>170</ele>
        <time>2017-04-29T11:11:39Z</time>
      </trkpt>
      <trkpt lat="45.93467" lon="4.77038">
        <ele>170</ele>
        <time>2017-04-29T11:11:40Z</time>
      </trkpt>
      <trkpt lat="45.93466" lon="4.77031">
        <ele>170</ele>
        <time>2017-04-29T11:11:41Z</time>
      </trkpt>
      <trkpt lat="45.93466" lon="4.77023">
        <ele>170</ele>
        <time>2017-04-29T11:11:42Z</time>
      </trkpt>
      <trkpt lat="45.93465" lon="4.77016">
        <ele>170</ele>
        <time>2017-04-29T11:11:43Z</time>
      </trkpt>
      <trkpt lat="45.93463" lon="4.77008">
        <ele>170</ele>
        <time>2017-04-29T11:11:44Z</time>
      </trkpt>
      <trkpt lat="45.93462" lon="4.77001">
        <ele>170</ele>
        <time>2017-04-29T11:11:45Z</time>
      </trkpt>
      <trkpt lat="45.93461" lon="4.76994">
        <ele>170</ele>
        <time>2017-04-29T11:11:46Z</time>
      </trkpt>
      <trkpt lat="45.9346" lon="4.76986">
        <ele>170</ele>
        <time>2017-04-29T11:11:47Z</time>
      </trkpt>
      <trkpt lat="45.93459" lon="4.76979">
        <ele>170</ele>
        <time>2017-04-29T11:11:48Z</time>
      </trkpt>
      <trkpt lat="45.93458" lon="4.76972">
        <ele>170</ele>
        <time>2017-04-29T11:11:49Z</time>
      </trkpt>
      <trkpt lat="45.93457" lon="4.76965">
        <ele>170</ele>
        <time>2017-04-29T11:11:50Z</time>
      </trkpt>
      <trkpt lat="45.93456" lon="4.76958">
        <ele>170</ele>
        <time>2017-04-29T11:11:51Z</time>
      </trkpt>
      <trkpt lat="45.93455" lon="4.76951">
        <ele>170</ele>
        <time>2017-04-29T11:11:52Z</time>
      </trkpt>
      <trkpt lat="45.93453" lon="4.76945">
        <ele>170</ele>
        <time>2017-04-29T11:11:53Z</time>
      </trkpt>
      <trkpt lat="45.93451" lon="4.76937">
        <ele>170</ele>
        <time>2017-04-29T11:11:54Z</time>
      </trkpt>
      <trkpt lat="45.93449" lon="4.7693">
        <ele>170</ele>
        <time>2017-04-29T11:11:55Z</time>
      </trkpt>
      <trkpt lat="45.93448" lon="4.76923">
        <ele>170</ele>
        <time>2017-04-29T11:11:56Z</time>
      </trkpt>
      <trkpt lat="45.93446" lon="4.76915">
        <ele>170</ele>
        <time>2017-04-29T11:11:57Z</time>
      </trkpt>
      <trkpt lat="45.93445" lon="4.76907">
        <ele>170</ele>
        <time>2017-04-29T11:11:58Z</time>
      </trkpt>
      <trkpt lat="45.93443" lon="4.76899">
        <ele>170</ele>
        <time>2017-04-29T11:11:59Z</time>
      </trkpt>
      <trkpt lat="45.93441" lon="4.76892">
        <ele>170</ele>
        <time>2017-04-29T11:12:00Z</time>
      </trkpt>
      <trkpt lat="45.93438" lon="4.76885">
        <ele>170</ele>
        <time>2017-04-29T11:12:01Z</time>
      </trkpt>
      <trkpt lat="45.93436" lon="4.76878">
        <ele>171</ele>
        <time>2017-04-29T11:12:02Z</time>
      </trkpt>
      <trkpt lat="45.93433" lon="4.76871">
        <ele>171</ele>
        <time>2017-04-29T11:12:03Z</time>
      </trkpt>
      <trkpt lat="45.9343" lon="4.76864">
        <ele>171</ele>
        <time>2017-04-29T11:12:04Z</time>
      </trkpt>
      <trkpt lat="45.93427" lon="4.76857">
        <ele>171</ele>
        <time>2017-04-29T11:12:05Z</time>
      </trkpt>
      <trkpt lat="45.93424" lon="4.76851">
        <ele>171</ele>
        <time>2017-04-29T11:12:06Z</time>
      </trkpt>
      <trkpt lat="45.93421" lon="4.76846">
        <ele>171</ele>
        <time>2017-04-29T11:12:07Z</time>
      </trkpt>
      <trkpt lat="45.93417" lon="4.7684">
        <ele>172</ele>
        <time>2017-04-29T11:12:08Z</time>
      </trkpt>
      <trkpt lat="45.93414" lon="4.76835">
        <ele>172</ele>
        <time>2017-04-29T11:12:09Z</time>
      </trkpt>
      <trkpt lat="45.93411" lon="4.7683">
        <ele>172</ele>
        <time>2017-04-29T11:12:10Z</time>
      </trkpt>
      <trkpt lat="45.93408" lon="4.76825">
        <ele>172</ele>
        <time>2017-04-29T11:12:11Z</time>
      </trkpt>
      <trkpt lat="45.93405" lon="4.7682">
        <ele>172</ele>
        <time>2017-04-29T11:12:12Z</time>
      </trkpt>
      <trkpt lat="45.93402" lon="4.76815">
        <ele>172</ele>
        <time>2017-04-29T11:12:13Z</time>
      </trkpt>
      <trkpt lat="45.93396" lon="4.76806">
        <ele>172</ele>
        <time>2017-04-29T11:12:15Z</time>
      </trkpt>
      <trkpt lat="45.93393" lon="4.76801">
        <ele>172</ele>
        <time>2017-04-29T11:12:16Z</time>
      </trkpt>
      <trkpt lat="45.93389" lon="4.76796">
        <ele>172</ele>
        <time>2017-04-29T11:12:17Z</time>
      </trkpt>
      <trkpt lat="45.93385" lon="4.76791">
        <ele>172</ele>
        <time>2017-04-29T11:12:18Z</time>
      </trkpt>
      <trkpt lat="45.9338" lon="4.76786">
        <ele>172</ele>
        <time>2017-04-29T11:12:19Z</time>
      </trkpt>
      <trkpt lat="45.93376" lon="4.76781">
        <ele>172</ele>
        <time>2017-04-29T11:12:20Z</time>
      </trkpt>
      <trkpt lat="45.93371" lon="4.76776">
        <ele>172</ele>
        <time>2017-04-29T11:12:21Z</time>
      </trkpt>
      <trkpt lat="45.93366" lon="4.76771">
        <ele>172</ele>
        <time>2017-04-29T11:12:22Z</time>
      </trkpt>
      <trkpt lat="45.93361" lon="4.76764">
        <ele>172</ele>
        <time>2017-04-29T11:12:23Z</time>
      </trkpt>
      <trkpt lat="45.93356" lon="4.76759">
        <ele>172</ele>
        <time>2017-04-29T11:12:24Z</time>
      </trkpt>
      <trkpt lat="45.93352" lon="4.76754">
        <ele>172</ele>
        <time>2017-04-29T11:12:25Z</time>
      </trkpt>
      <trkpt lat="45.93347" lon="4.76749">
        <ele>172</ele>
        <time>2017-04-29T11:12:26Z</time>
      </trkpt>
      <trkpt lat="45.93343" lon="4.76744">
        <ele>173</ele>
        <time>2017-04-29T11:12:27Z</time>
      </trkpt>
      <trkpt lat="45.93338" lon="4.76739">
        <ele>172</ele>
        <time>2017-04-29T11:12:28Z</time>
      </trkpt>
      <trkpt lat="45.93334" lon="4.76734">
        <ele>172</ele>
        <time>2017-04-29T11:12:29Z</time>
      </trkpt>
      <trkpt lat="45.9333" lon="4.7673">
        <ele>172</ele>
        <time>2017-04-29T11:12:30Z</time>
      </trkpt>
      <trkpt lat="45.93326" lon="4.76725">
        <ele>172</ele>
        <time>2017-04-29T11:12:31Z</time>
      </trkpt>
      <trkpt lat="45.93321" lon="4.76721">
        <ele>172</ele>
        <time>2017-04-29T11:12:32Z</time>
      </trkpt>
      <trkpt lat="45.93317" lon="4.76717">
        <ele>172</ele>
        <time>2017-04-29T11:12:33Z</time>
      </trkpt>
      <trkpt lat="45.93312" lon="4.76712">
        <ele>172</ele>
        <time>2017-04-29T11:12:34Z</time>
      </trkpt>
      <trkpt lat="45.93307" lon="4.76708">
        <ele>172</ele>
        <time>2017-04-29T11:12:35Z</time>
      </trkpt>
      <trkpt lat="45.93303" lon="4.76703">
        <ele>172</ele>
        <time>2017-04-29T11:12:36Z</time>
      </trkpt>
      <trkpt lat="45.93298" lon="4.76699">
        <ele>172</ele>
        <time>2017-04-29T11:12:37Z</time>
      </trkpt>
      <trkpt lat="45.93294" lon="4.76694">
        <ele>172</ele>
        <time>2017-04-29T11:12:38Z</time>
      </trkpt>
      <trkpt lat="45.93289" lon="4.7669">
        <ele>172</ele>
        <time>2017-04-29T11:12:39Z</time>
      </trkpt>
      <trkpt lat="45.93285" lon="4.76686">
        <ele>172</ele>
        <time>2017-04-29T11:12:40Z</time>
      </trkpt>
      <trkpt lat="45.9328" lon="4.76683">
        <ele>172</ele>
        <time>2017-04-29T11:12:41Z</time>
      </trkpt>
      <trkpt lat="45.93277" lon="4.76679">
        <ele>172</ele>
        <time>2017-04-29T11:12:42Z</time>
      </trkpt>
      <trkpt lat="45.93272" lon="4.76675">
        <ele>172</ele>
        <time>2017-04-29T11:12:43Z</time>
      </trkpt>
      <trkpt lat="45.93267" lon="4.76671">
        <ele>172</ele>
        <time>2017-04-29T11:12:44Z</time>
      </trkpt>
      <trkpt lat="45.93263" lon="4.76666">
        <ele>171</ele>
        <time>2017-04-29T11:12:45Z</time>
      </trkpt>
      <trkpt lat="45.93259" lon="4.76661">
        <ele>171</ele>
        <time>2017-04-29T11:12:46Z</time>
      </trkpt>
      <trkpt lat="45.93254" lon="4.76657">
        <ele>171</ele>
        <time>2017-04-29T11:12:47Z</time>
      </trkpt>
      <trkpt lat="45.9325" lon="4.76652">
        <ele>171</ele>
        <time>2017-04-29T11:12:48Z</time>
      </trkpt>
      <trkpt lat="45.93245" lon="4.76648">
        <ele>171</ele>
        <time>2017-04-29T11:12:49Z</time>
      </trkpt>
      <trkpt lat="45.9324" lon="4.76643">
        <ele>171</ele>
        <time>2017-04-29T11:12:50Z</time>
      </trkpt>
      <trkpt lat="45.93236" lon="4.76638">
        <ele>171</ele>
        <time>2017-04-29T11:12:51Z</time>
      </trkpt>
      <trkpt lat="45.93232" lon="4.76634">
        <ele>171</ele>
        <time>2017-04-29T11:12:52Z</time>
      </trkpt>
      <trkpt lat="45.93228" lon="4.7663">
        <ele>170</ele>
        <time>2017-04-29T11:12:53Z</time>
      </trkpt>
      <trkpt lat="45.93223" lon="4.76625">
        <ele>170</ele>
        <time>2017-04-29T11:12:54Z</time>
      </trkpt>
      <trkpt lat="45.93219" lon="4.76622">
        <ele>170</ele>
        <time>2017-04-29T11:12:55Z</time>
      </trkpt>
      <trkpt lat="45.93215" lon="4.76618">
        <ele>170</ele>
        <time>2017-04-29T11:12:56Z</time>
      </trkpt>
      <trkpt lat="45.9321" lon="4.76615">
        <ele>170</ele>
        <time>2017-04-29T11:12:57Z</time>
      </trkpt>
      <trkpt lat="45.93206" lon="4.7661">
        <ele>170</ele>
        <time>2017-04-29T11:12:58Z</time>
      </trkpt>
      <trkpt lat="45.93201" lon="4.76606">
        <ele>170</ele>
        <time>2017-04-29T11:12:59Z</time>
      </trkpt>
      <trkpt lat="45.93196" lon="4.76602">
        <ele>170</ele>
        <time>2017-04-29T11:13:00Z</time>
      </trkpt>
      <trkpt lat="45.93191" lon="4.76597">
        <ele>170</ele>
        <time>2017-04-29T11:13:01Z</time>
      </trkpt>
      <trkpt lat="45.93186" lon="4.76592">
        <ele>171</ele>
        <time>2017-04-29T11:13:02Z</time>
      </trkpt>
      <trkpt lat="45.93181" lon="4.76586">
        <ele>171</ele>
        <time>2017-04-29T11:13:03Z</time>
      </trkpt>
      <trkpt lat="45.93176" lon="4.76581">
        <ele>170</ele>
        <time>2017-04-29T11:13:04Z</time>
      </trkpt>
      <trkpt lat="45.93171" lon="4.76575">
        <ele>170</ele>
        <time>2017-04-29T11:13:05Z</time>
      </trkpt>
      <trkpt lat="45.93166" lon="4.7657">
        <ele>170</ele>
        <time>2017-04-29T11:13:06Z</time>
      </trkpt>
      <trkpt lat="45.93161" lon="4.76564">
        <ele>170</ele>
        <time>2017-04-29T11:13:07Z</time>
      </trkpt>
      <trkpt lat="45.93156" lon="4.76559">
        <ele>170</ele>
        <time>2017-04-29T11:13:08Z</time>
      </trkpt>
      <trkpt lat="45.93152" lon="4.76554">
        <ele>170</ele>
        <time>2017-04-29T11:13:09Z</time>
      </trkpt>
      <trkpt lat="45.93147" lon="4.7655">
        <ele>170</ele>
        <time>2017-04-29T11:13:10Z</time>
      </trkpt>
      <trkpt lat="45.93143" lon="4.76545">
        <ele>170</ele>
        <time>2017-04-29T11:13:11Z</time>
      </trkpt>
      <trkpt lat="45.93139" lon="4.76541">
        <ele>170</ele>
        <time>2017-04-29T11:13:12Z</time>
      </trkpt>
      <trkpt lat="45.93135" lon="4.76537">
        <ele>170</ele>
        <time>2017-04-29T11:13:13Z</time>
      </trkpt>
      <trkpt lat="45.93131" lon="4.76532">
        <ele>170</ele>
        <time>2017-04-29T11:13:14Z</time>
      </trkpt>
      <trkpt lat="45.93126" lon="4.76528">
        <ele>170</ele>
        <time>2017-04-29T11:13:15Z</time>
      </trkpt>
      <trkpt lat="45.93122" lon="4.76524">
        <ele>170</ele>
        <time>2017-04-29T11:13:16Z</time>
      </trkpt>
      <trkpt lat="45.93117" lon="4.76519">
        <ele>170</ele>
        <time>2017-04-29T11:13:17Z</time>
      </trkpt>
      <trkpt lat="45.93112" lon="4.76514">
        <ele>170</ele>
        <time>2017-04-29T11:13:18Z</time>
      </trkpt>
      <trkpt lat="45.93107" lon="4.76509">
        <ele>170</ele>
        <time>2017-04-29T11:13:19Z</time>
      </trkpt>
      <trkpt lat="45.93102" lon="4.76505">
        <ele>170</ele>
        <time>2017-04-29T11:13:20Z</time>
      </trkpt>
      <trkpt lat="45.93097" lon="4.765">
        <ele>170</ele>
        <time>2017-04-29T11:13:21Z</time>
      </trkpt>
      <trkpt lat="45.93091" lon="4.76496">
        <ele>170</ele>
        <time>2017-04-29T11:13:22Z</time>
      </trkpt>
      <trkpt lat="45.93086" lon="4.76492">
        <ele>170</ele>
        <time>2017-04-29T11:13:23Z</time>
      </trkpt>
      <trkpt lat="45.9308" lon="4.76487">
        <ele>170</ele>
        <time>2017-04-29T11:13:24Z</time>
      </trkpt>
      <trkpt lat="45.93075" lon="4.76483">
        <ele>169</ele>
        <time>2017-04-29T11:13:25Z</time>
      </trkpt>
      <trkpt lat="45.9307" lon="4.76478">
        <ele>169</ele>
        <time>2017-04-29T11:13:26Z</time>
      </trkpt>
      <trkpt lat="45.93066" lon="4.76473">
        <ele>169</ele>
        <time>2017-04-29T11:13:27Z</time>
      </trkpt>
      <trkpt lat="45.93061" lon="4.76469">
        <ele>169</ele>
        <time>2017-04-29T11:13:28Z</time>
      </trkpt>
      <trkpt lat="45.93057" lon="4.76464">
        <ele>169</ele>
        <time>2017-04-29T11:13:29Z</time>
      </trkpt>
      <trkpt lat="45.93052" lon="4.76461">
        <ele>169</ele>
        <time>2017-04-29T11:13:30Z</time>
      </trkpt>
      <trkpt lat="45.93048" lon="4.76457">
        <ele>169</ele>
        <time>2017-04-29T11:13:31Z</time>
      </trkpt>
      <trkpt lat="45.93043" lon="4.76454">
        <ele>169</ele>
        <time>2017-04-29T11:13:32Z</time>
      </trkpt>
      <trkpt lat="45.93039" lon="4.76449">
        <ele>169</ele>
        <time>2017-04-29T11:13:33Z</time>
      </trkpt>
      <trkpt lat="45.93035" lon="4.76444">
        <ele>169</ele>
        <time>2017-04-29T11:13:34Z</time>
      </trkpt>
      <trkpt lat="45.93031" lon="4.76439">
        <ele>169</ele>
        <time>2017-04-29T11:13:35Z</time>
      </trkpt>
      <trkpt lat="45.93026" lon="4.76435">
        <ele>169</ele>
        <time>2017-04-29T11:13:36Z</time>
      </trkpt>
      <trkpt lat="45.93022" lon="4.7643">
        <ele>169</ele>
        <time>2017-04-29T11:13:37Z</time>
      </trkpt>
      <trkpt lat="45.93017" lon="4.76426">
        <ele>169</ele>
        <time>2017-04-29T11:13:38Z</time>
      </trkpt>
      <trkpt lat="45.93013" lon="4.76422">
        <ele>169</ele>
        <time>2017-04-29T11:13:39Z</time>
      </trkpt>
      <trkpt lat="45.93008" lon="4.76417">
        <ele>169</ele>
        <time>2017-04-29T11:13:40Z</time>
      </trkpt>
      <trkpt lat="45.93004" lon="4.76412">
        <ele>169</ele>
        <time>2017-04-29T11:13:41Z</time>
      </trkpt>
      <trkpt lat="45.93" lon="4.76408">
        <ele>169</ele>
        <time>2017-04-29T11:13:42Z</time>
      </trkpt>
      <trkpt lat="45.92996" lon="4.76404">
        <ele>169</ele>
        <time>2017-04-29T11:13:43Z</time>
      </trkpt>
      <trkpt lat="45.92992" lon="4.764">
        <ele>169</ele>
        <time>2017-04-29T11:13:44Z</time>
      </trkpt>
      <trkpt lat="45.92988" lon="4.76395">
        <ele>169</ele>
        <time>2017-04-29T11:13:45Z</time>
      </trkpt>
      <trkpt lat="45.92984" lon="4.76391">
        <ele>169</ele>
        <time>2017-04-29T11:13:46Z</time>
      </trkpt>
      <trkpt lat="45.92979" lon="4.76387">
        <ele>169</ele>
        <time>2017-04-29T11:13:47Z</time>
      </trkpt>
      <trkpt lat="45.92975" lon="4.76383">
        <ele>169</ele>
        <time>2017-04-29T11:13:48Z</time>
      </trkpt>
      <trkpt lat="45.92971" lon="4.76378">
        <ele>169</ele>
        <time>2017-04-29T11:13:49Z</time>
      </trkpt>
      <trkpt lat="45.92966" lon="4.76374">
        <ele>169</ele>
        <time>2017-04-29T11:13:50Z</time>
      </trkpt>
      <trkpt lat="45.92962" lon="4.76369">
        <ele>169</ele>
        <time>2017-04-29T11:13:51Z</time>
      </trkpt>
      <trkpt lat="45.92957" lon="4.76364">
        <ele>169</ele>
        <time>2017-04-29T11:13:52Z</time>
      </trkpt>
      <trkpt lat="45.92952" lon="4.7636">
        <ele>169</ele>
        <time>2017-04-29T11:13:53Z</time>
      </trkpt>
      <trkpt lat="45.92947" lon="4.76355">
        <ele>169</ele>
        <time>2017-04-29T11:13:54Z</time>
      </trkpt>
      <trkpt lat="45.92943" lon="4.76351">
        <ele>169</ele>
        <time>2017-04-29T11:13:55Z</time>
      </trkpt>
      <trkpt lat="45.92939" lon="4.76346">
        <ele>169</ele>
        <time>2017-04-29T11:13:56Z</time>
      </trkpt>
      <trkpt lat="45.92934" lon="4.76342">
        <ele>169</ele>
        <time>2017-04-29T11:13:57Z</time>
      </trkpt>
      <trkpt lat="45.9293" lon="4.76338">
        <ele>169</ele>
        <time>2017-04-29T11:13:58Z</time>
      </trkpt>
      <trkpt lat="45.92925" lon="4.76333">
        <ele>169</ele>
        <time>2017-04-29T11:13:59Z</time>
      </trkpt>
      <trkpt lat="45.92921" lon="4.76328">
        <ele>169</ele>
        <time>2017-04-29T11:14:00Z</time>
      </trkpt>
      <trkpt lat="45.92916" lon="4.76323">
        <ele>169</ele>
        <time>2017-04-29T11:14:01Z</time>
      </trkpt>
      <trkpt lat="45.92911" lon="4.76319">
        <ele>169</ele>
        <time>2017-04-29T11:14:02Z</time>
      </trkpt>
      <trkpt lat="45.92906" lon="4.76314">
        <ele>169</ele>
        <time>2017-04-29T11:14:03Z</time>
      </trkpt>
      <trkpt lat="45.92901" lon="4.76309">
        <ele>169</ele>
        <time>2017-04-29T11:14:04Z</time>
      </trkpt>
      <trkpt lat="45.92896" lon="4.76304">
        <ele>169</ele>
        <time>2017-04-29T11:14:05Z</time>
      </trkpt>
      <trkpt lat="45.92891" lon="4.763">
        <ele>169</ele>
        <time>2017-04-29T11:14:06Z</time>
      </trkpt>
      <trkpt lat="45.92886" lon="4.76295">
        <ele>169</ele>
        <time>2017-04-29T11:14:07Z</time>
      </trkpt>
      <trkpt lat="45.92882" lon="4.7629">
        <ele>169</ele>
        <time>2017-04-29T11:14:08Z</time>
      </trkpt>
      <trkpt lat="45.92877" lon="4.76286">
        <ele>169</ele>
        <time>2017-04-29T11:14:09Z</time>
      </trkpt>
      <trkpt lat="45.92872" lon="4.76281">
        <ele>169</ele>
        <time>2017-04-29T11:14:10Z</time>
      </trkpt>
      <trkpt lat="45.92868" lon="4.76277">
        <ele>169</ele>
        <time>2017-04-29T11:14:11Z</time>
      </trkpt>
      <trkpt lat="45.92864" lon="4.76273">
        <ele>169</ele>
        <time>2017-04-29T11:14:12Z</time>
      </trkpt>
      <trkpt lat="45.9286" lon="4.76269">
        <ele>169</ele>
        <time>2017-04-29T11:14:13Z</time>
      </trkpt>
      <trkpt lat="45.92856" lon="4.76265">
        <ele>169</ele>
        <time>2017-04-29T11:14:14Z</time>
      </trkpt>
      <trkpt lat="45.92852" lon="4.7626">
        <ele>169</ele>
        <time>2017-04-29T11:14:15Z</time>
      </trkpt>
      <trkpt lat="45.92848" lon="4.76256">
        <ele>169</ele>
        <time>2017-04-29T11:14:16Z</time>
      </trkpt>
      <trkpt lat="45.92844" lon="4.76253">
        <ele>169</ele>
        <time>2017-04-29T11:14:17Z</time>
      </trkpt>
      <trkpt lat="45.92839" lon="4.76248">
        <ele>169</ele>
        <time>2017-04-29T11:14:18Z</time>
      </trkpt>
      <trkpt lat="45.92834" lon="4.76244">
        <ele>169</ele>
        <time>2017-04-29T11:14:19Z</time>
      </trkpt>
      <trkpt lat="45.9283" lon="4.7624">
        <ele>169</ele>
        <time>2017-04-29T11:14:20Z</time>
      </trkpt>
      <trkpt lat="45.92825" lon="4.76236">
        <ele>168</ele>
        <time>2017-04-29T11:14:21Z</time>
      </trkpt>
      <trkpt lat="45.9282" lon="4.76231">
        <ele>168</ele>
        <time>2017-04-29T11:14:22Z</time>
      </trkpt>
      <trkpt lat="45.92816" lon="4.76227">
        <ele>168</ele>
        <time>2017-04-29T11:14:23Z</time>
      </trkpt>
      <trkpt lat="45.92811" lon="4.76223">
        <ele>168</ele>
        <time>2017-04-29T11:14:24Z</time>
      </trkpt>
      <trkpt lat="45.92807" lon="4.76219">
        <ele>168</ele>
        <time>2017-04-29T11:14:25Z</time>
      </trkpt>
      <trkpt lat="45.92802" lon="4.76214">
        <ele>168</ele>
        <time>2017-04-29T11:14:26Z</time>
      </trkpt>
      <trkpt lat="45.92798" lon="4.76209">
        <ele>168</ele>
        <time>2017-04-29T11:14:27Z</time>
      </trkpt>
      <trkpt lat="45.92794" lon="4.76205">
        <ele>168</ele>
        <time>2017-04-29T11:14:28Z</time>
      </trkpt>
      <trkpt lat="45.92789" lon="4.762">
        <ele>168</ele>
        <time>2017-04-29T11:14:29Z</time>
      </trkpt>
      <trkpt lat="45.92785" lon="4.76196">
        <ele>168</ele>
        <time>2017-04-29T11:14:30Z</time>
      </trkpt>
      <trkpt lat="45.9278" lon="4.76192">
        <ele>168</ele>
        <time>2017-04-29T11:14:31Z</time>
      </trkpt>
      <trkpt lat="45.92776" lon="4.76188">
        <ele>168</ele>
        <time>2017-04-29T11:14:32Z</time>
      </trkpt>
      <trkpt lat="45.92772" lon="4.76184">
        <ele>167</ele>
        <time>2017-04-29T11:14:33Z</time>
      </trkpt>
      <trkpt lat="45.92768" lon="4.7618">
        <ele>167</ele>
        <time>2017-04-29T11:14:34Z</time>
      </trkpt>
      <trkpt lat="45.92765" lon="4.76176">
        <ele>167</ele>
        <time>2017-04-29T11:14:35Z</time>
      </trkpt>
      <trkpt lat="45.9276" lon="4.76172">
        <ele>167</ele>
        <time>2017-04-29T11:14:36Z</time>
      </trkpt>
      <trkpt lat="45.92756" lon="4.76168">
        <ele>167</ele>
        <time>2017-04-29T11:14:37Z</time>
      </trkpt>
      <trkpt lat="45.92751" lon="4.76164">
        <ele>167</ele>
        <time>2017-04-29T11:14:38Z</time>
      </trkpt>
      <trkpt lat="45.92746" lon="4.76161">
        <ele>167</ele>
        <time>2017-04-29T11:14:39Z</time>
      </trkpt>
      <trkpt lat="45.92742" lon="4.76157">
        <ele>168</ele>
        <time>2017-04-29T11:14:40Z</time>
      </trkpt>
      <trkpt lat="45.92737" lon="4.76154">
        <ele>168</ele>
        <time>2017-04-29T11:14:41Z</time>
      </trkpt>
      <trkpt lat="45.92732" lon="4.7615">
        <ele>168</ele>
        <time>2017-04-29T11:14:42Z</time>
      </trkpt>
      <trkpt lat="45.92728" lon="4.76146">
        <ele>168</ele>
        <time>2017-04-29T11:14:43Z</time>
      </trkpt>
      <trkpt lat="45.92724" lon="4.76143">
        <ele>168</ele>
        <time>2017-04-29T11:14:44Z</time>
      </trkpt>
      <trkpt lat="45.9272" lon="4.7614">
        <ele>168</ele>
        <time>2017-04-29T11:14:45Z</time>
      </trkpt>
      <trkpt lat="45.92715" lon="4.76137">
        <ele>168</ele>
        <time>2017-04-29T11:14:46Z</time>
      </trkpt>
      <trkpt lat="45.92711" lon="4.76134">
        <ele>168</ele>
        <time>2017-04-29T11:14:47Z</time>
      </trkpt>
      <trkpt lat="45.92706" lon="4.76131">
        <ele>169</ele>
        <time>2017-04-29T11:14:48Z</time>
      </trkpt>
      <trkpt lat="45.92702" lon="4.76128">
        <ele>169</ele>
        <time>2017-04-29T11:14:49Z</time>
      </trkpt>
      <trkpt lat="45.92698" lon="4.76125">
        <ele>169</ele>
        <time>2017-04-29T11:14:50Z</time>
      </trkpt>
      <trkpt lat="45.92694" lon="4.76121">
        <ele>169</ele>
        <time>2017-04-29T11:14:51Z</time>
      </trkpt>
      <trkpt lat="45.9269" lon="4.76118">
        <ele>169</ele>
        <time>2017-04-29T11:14:52Z</time>
      </trkpt>
      <trkpt lat="45.92685" lon="4.76115">
        <ele>169</ele>
        <time>2017-04-29T11:14:53Z</time>
      </trkpt>
      <trkpt lat="45.92681" lon="4.76112">
        <ele>169</ele>
        <time>2017-04-29T11:14:54Z</time>
      </trkpt>
      <trkpt lat="45.92677" lon="4.76109">
        <ele>169</ele>
        <time>2017-04-29T11:14:55Z</time>
      </trkpt>
      <trkpt lat="45.92673" lon="4.76106">
        <ele>169</ele>
        <time>2017-04-29T11:14:56Z</time>
      </trkpt>
      <trkpt lat="45.92669" lon="4.76102">
        <ele>169</ele>
        <time>2017-04-29T11:14:57Z</time>
      </trkpt>
      <trkpt lat="45.92665" lon="4.76098">
        <ele>170</ele>
        <time>2017-04-29T11:14:58Z</time>
      </trkpt>
      <trkpt lat="45.92661" lon="4.76094">
        <ele>170</ele>
        <time>2017-04-29T11:14:59Z</time>
      </trkpt>
      <trkpt lat="45.92657" lon="4.76091">
        <ele>170</ele>
        <time>2017-04-29T11:15:00Z</time>
      </trkpt>
      <trkpt lat="45.92653" lon="4.76088">
        <ele>170</ele>
        <time>2017-04-29T11:15:01Z</time>
      </trkpt>
      <trkpt lat="45.92648" lon="4.76084">
        <ele>170</ele>
        <time>2017-04-29T11:15:02Z</time>
      </trkpt>
      <trkpt lat="45.92644" lon="4.76081">
        <ele>170</ele>
        <time>2017-04-29T11:15:03Z</time>
      </trkpt>
      <trkpt lat="45.9264" lon="4.76077">
        <ele>170</ele>
        <time>2017-04-29T11:15:04Z</time>
      </trkpt>
      <trkpt lat="45.92636" lon="4.76074">
        <ele>170</ele>
        <time>2017-04-29T11:15:05Z</time>
      </trkpt>
      <trkpt lat="45.92632" lon="4.76071">
        <ele>170</ele>
        <time>2017-04-29T11:15:06Z</time>
      </trkpt>
      <trkpt lat="45.92624" lon="4.76065">
        <ele>171</ele>
        <time>2017-04-29T11:15:08Z</time>
      </trkpt>
      <trkpt lat="45.92621" lon="4.76062">
        <ele>171</ele>
        <time>2017-04-29T11:15:09Z</time>
      </trkpt>
      <trkpt lat="45.92613" lon="4.76057">
        <ele>171</ele>
        <time>2017-04-29T11:15:11Z</time>
      </trkpt>
      <trkpt lat="45.92609" lon="4.76055">
        <ele>171</ele>
        <time>2017-04-29T11:15:12Z</time>
      </trkpt>
      <trkpt lat="45.92601" lon="4.76049">
        <ele>171</ele>
        <time>2017-04-29T11:15:14Z</time>
      </trkpt>
      <trkpt lat="45.92597" lon="4.76047">
        <ele>171</ele>
        <time>2017-04-29T11:15:15Z</time>
      </trkpt>
      <trkpt lat="45.92589" lon="4.76041">
        <ele>171</ele>
        <time>2017-04-29T11:15:17Z</time>
      </trkpt>
      <trkpt lat="45.92585" lon="4.76038">
        <ele>171</ele>
        <time>2017-04-29T11:15:18Z</time>
      </trkpt>
      <trkpt lat="45.92578" lon="4.76032">
        <ele>172</ele>
        <time>2017-04-29T11:15:20Z</time>
      </trkpt>
      <trkpt lat="45.92574" lon="4.76029">
        <ele>172</ele>
        <time>2017-04-29T11:15:21Z</time>
      </trkpt>
      <trkpt lat="45.92569" lon="4.76027">
        <ele>172</ele>
        <time>2017-04-29T11:15:22Z</time>
      </trkpt>
      <trkpt lat="45.92565" lon="4.76024">
        <ele>172</ele>
        <time>2017-04-29T11:15:23Z</time>
      </trkpt>
      <trkpt lat="45.92557" lon="4.76019">
        <ele>172</ele>
        <time>2017-04-29T11:15:25Z</time>
      </trkpt>
      <trkpt lat="45.92553" lon="4.76016">
        <ele>172</ele>
        <time>2017-04-29T11:15:26Z</time>
      </trkpt>
      <trkpt lat="45.92549" lon="4.76013">
        <ele>172</ele>
        <time>2017-04-29T11:15:27Z</time>
      </trkpt>
      <trkpt lat="45.92545" lon="4.7601">
        <ele>172</ele>
        <time>2017-04-29T11:15:28Z</time>
      </trkpt>
      <trkpt lat="45.92541" lon="4.76006">
        <ele>172</ele>
        <time>2017-04-29T11:15:29Z</time>
      </trkpt>
      <trkpt lat="45.92537" lon="4.76003">
        <ele>172</ele>
        <time>2017-04-29T11:15:30Z</time>
      </trkpt>
      <trkpt lat="45.92532" lon="4.76">
        <ele>172</ele>
        <time>2017-04-29T11:15:31Z</time>
      </trkpt>
      <trkpt lat="45.92528" lon="4.75997">
        <ele>172</ele>
        <time>2017-04-29T11:15:32Z</time>
      </trkpt>
      <trkpt lat="45.92524" lon="4.75994">
        <ele>172</ele>
        <time>2017-04-29T11:15:33Z</time>
      </trkpt>
      <trkpt lat="45.9252" lon="4.75991">
        <ele>172</ele>
        <time>2017-04-29T11:15:34Z</time>
      </trkpt>
      <trkpt lat="45.92515" lon="4.75988">
        <ele>172</ele>
        <time>2017-04-29T11:15:35Z</time>
      </trkpt>
      <trkpt lat="45.92511" lon="4.75985">
        <ele>172</ele>
        <time>2017-04-29T11:15:36Z</time>
      </trkpt>
      <trkpt lat="45.92506" lon="4.75981">
        <ele>172</ele>
        <time>2017-04-29T11:15:37Z</time>
      </trkpt>
      <trkpt lat="45.92502" lon="4.75978">
        <ele>172</ele>
        <time>2017-04-29T11:15:38Z</time>
      </trkpt>
      <trkpt lat="45.92497" lon="4.75975">
        <ele>172</ele>
        <time>2017-04-29T11:15:39Z</time>
      </trkpt>
      <trkpt lat="45.92492" lon="4.75971">
        <ele>172</ele>
        <time>2017-04-29T11:15:40Z</time>
      </trkpt>
      <trkpt lat="45.92487" lon="4.75968">
        <ele>172</ele>
        <time>2017-04-29T11:15:41Z</time>
      </trkpt>
      <trkpt lat="45.92483" lon="4.75965">
        <ele>172</ele>
        <time>2017-04-29T11:15:42Z</time>
      </trkpt>
      <trkpt lat="45.92478" lon="4.75962">
        <ele>172</ele>
        <time>2017-04-29T11:15:43Z</time>
      </trkpt>
      <trkpt lat="45.92473" lon="4.75959">
        <ele>172</ele>
        <time>2017-04-29T11:15:44Z</time>
      </trkpt>
      <trkpt lat="45.92468" lon="4.75955">
        <ele>172</ele>
        <time>2017-04-29T11:15:45Z</time>
      </trkpt>
      <trkpt lat="45.92463" lon="4.75952">
        <ele>172</ele>
        <time>2017-04-29T11:15:46Z</time>
      </trkpt>
      <trkpt lat="45.92457" lon="4.75949">
        <ele>172</ele>
        <time>2017-04-29T11:15:47Z</time>
      </trkpt>
      <trkpt lat="45.92452" lon="4.75945">
        <ele>172</ele>
        <time>2017-04-29T11:15:48Z</time>
      </trkpt>
      <trkpt lat="45.92446" lon="4.75942">
        <ele>172</ele>
        <time>2017-04-29T11:15:49Z</time>
      </trkpt>
      <trkpt lat="45.92441" lon="4.75938">
        <ele>172</ele>
        <time>2017-04-29T11:15:50Z</time>
      </trkpt>
      <trkpt lat="45.92435" lon="4.75934">
        <ele>172</ele>
        <time>2017-04-29T11:15:51Z</time>
      </trkpt>
      <trkpt lat="45.92429" lon="4.7593">
        <ele>172</ele>
        <time>2017-04-29T11:15:52Z</time>
      </trkpt>
      <trkpt lat="45.92423" lon="4.75926">
        <ele>172</ele>
        <time>2017-04-29T11:15:53Z</time>
      </trkpt>
      <trkpt lat="45.92417" lon="4.75922">
        <ele>172</ele>
        <time>2017-04-29T11:15:54Z</time>
      </trkpt>
      <trkpt lat="45.92411" lon="4.75918">
        <ele>172</ele>
        <time>2017-04-29T11:15:55Z</time>
      </trkpt>
      <trkpt lat="45.92404" lon="4.75914">
        <ele>172</ele>
        <time>2017-04-29T11:15:56Z</time>
      </trkpt>
      <trkpt lat="45.92398" lon="4.7591">
        <ele>173</ele>
        <time>2017-04-29T11:15:57Z</time>
      </trkpt>
      <trkpt lat="45.92392" lon="4.75905">
        <ele>173</ele>
        <time>2017-04-29T11:15:58Z</time>
      </trkpt>
      <trkpt lat="45.92386" lon="4.75901">
        <ele>173</ele>
        <time>2017-04-29T11:15:59Z</time>
      </trkpt>
      <trkpt lat="45.92381" lon="4.75897">
        <ele>173</ele>
        <time>2017-04-29T11:16:00Z</time>
      </trkpt>
      <trkpt lat="45.92375" lon="4.75893">
        <ele>173</ele>
        <time>2017-04-29T11:16:01Z</time>
      </trkpt>
      <trkpt lat="45.92369" lon="4.75889">
        <ele>173</ele>
        <time>2017-04-29T11:16:02Z</time>
      </trkpt>
      <trkpt lat="45.92363" lon="4.75885">
        <ele>173</ele>
        <time>2017-04-29T11:16:03Z</time>
      </trkpt>
      <trkpt lat="45.92358" lon="4.75882">
        <ele>173</ele>
        <time>2017-04-29T11:16:04Z</time>
      </trkpt>
      <trkpt lat="45.92352" lon="4.75879">
        <ele>173</ele>
        <time>2017-04-29T11:16:05Z</time>
      </trkpt>
      <trkpt lat="45.92347" lon="4.75876">
        <ele>173</ele>
        <time>2017-04-29T11:16:06Z</time>
      </trkpt>
      <trkpt lat="45.92342" lon="4.75873">
        <ele>173</ele>
        <time>2017-04-29T11:16:07Z</time>
      </trkpt>
      <trkpt lat="45.92338" lon="4.75869">
        <ele>173</ele>
        <time>2017-04-29T11:16:08Z</time>
      </trkpt>
      <trkpt lat="45.92333" lon="4.75866">
        <ele>173</ele>
        <time>2017-04-29T11:16:09Z</time>
      </trkpt>
      <trkpt lat="45.92328" lon="4.75863">
        <ele>173</ele>
        <time>2017-04-29T11:16:10Z</time>
      </trkpt>
      <trkpt lat="45.92323" lon="4.7586">
        <ele>173</ele>
        <time>2017-04-29T11:16:11Z</time>
      </trkpt>
      <trkpt lat="45.92319" lon="4.75857">
        <ele>173</ele>
        <time>2017-04-29T11:16:12Z</time>
      </trkpt>
      <trkpt lat="45.92314" lon="4.75854">
        <ele>173</ele>
        <time>2017-04-29T11:16:13Z</time>
      </trkpt>
      <trkpt lat="45.92309" lon="4.7585">
        <ele>173</ele>
        <time>2017-04-29T11:16:14Z</time>
      </trkpt>
      <trkpt lat="45.92305" lon="4.75847">
        <ele>173</ele>
        <time>2017-04-29T11:16:15Z</time>
      </trkpt>
      <trkpt lat="45.923" lon="4.75844">
        <ele>173</ele>
        <time>2017-04-29T11:16:16Z</time>
      </trkpt>
      <trkpt lat="45.92295" lon="4.75841">
        <ele>173</ele>
        <time>2017-04-29T11:16:17Z</time>
      </trkpt>
      <trkpt lat="45.92289" lon="4.75839">
        <ele>173</ele>
        <time>2017-04-29T11:16:18Z</time>
      </trkpt>
      <trkpt lat="45.92284" lon="4.75836">
        <ele>173</ele>
        <time>2017-04-29T11:16:19Z</time>
      </trkpt>
      <trkpt lat="45.9228" lon="4.75832">
        <ele>174</ele>
        <time>2017-04-29T11:16:20Z</time>
      </trkpt>
      <trkpt lat="45.92275" lon="4.75828">
        <ele>174</ele>
        <time>2017-04-29T11:16:21Z</time>
      </trkpt>
      <trkpt lat="45.92271" lon="4.75823">
        <ele>174</ele>
        <time>2017-04-29T11:16:22Z</time>
      </trkpt>
      <trkpt lat="45.92267" lon="4.75817">
        <ele>174</ele>
        <time>2017-04-29T11:16:23Z</time>
      </trkpt>
      <trkpt lat="45.92264" lon="4.7581">
        <ele>174</ele>
        <time>2017-04-29T11:16:24Z</time>
      </trkpt>
      <trkpt lat="45.92261" lon="4.75803">
        <ele>174</ele>
        <time>2017-04-29T11:16:25Z</time>
      </trkpt>
      <trkpt lat="45.92259" lon="4.75795">
        <ele>174</ele>
        <time>2017-04-29T11:16:26Z</time>
      </trkpt>
      <trkpt lat="45.92257" lon="4.75787">
        <ele>174</ele>
        <time>2017-04-29T11:16:27Z</time>
      </trkpt>
      <trkpt lat="45.92255" lon="4.7578">
        <ele>174</ele>
        <time>2017-04-29T11:16:28Z</time>
      </trkpt>
      <trkpt lat="45.92254" lon="4.75772">
        <ele>174</ele>
        <time>2017-04-29T11:16:29Z</time>
      </trkpt>
      <trkpt lat="45.92253" lon="4.75765">
        <ele>174</ele>
        <time>2017-04-29T11:16:30Z</time>
      </trkpt>
      <trkpt lat="45.92252" lon="4.75757">
        <ele>174</ele>
        <time>2017-04-29T11:16:31Z</time>
      </trkpt>
      <trkpt lat="45.92251" lon="4.7575">
        <ele>174</ele>
        <time>2017-04-29T11:16:32Z</time>
      </trkpt>
      <trkpt lat="45.9225" lon="4.75742">
        <ele>174</ele>
        <time>2017-04-29T11:16:33Z</time>
      </trkpt>
      <trkpt lat="45.92248" lon="4.75734">
        <ele>174</ele>
        <time>2017-04-29T11:16:34Z</time>
      </trkpt>
      <trkpt lat="45.92246" lon="4.75727">
        <ele>174</ele>
        <time>2017-04-29T11:16:35Z</time>
      </trkpt>
      <trkpt lat="45.92243" lon="4.7572">
        <ele>174</ele>
        <time>2017-04-29T11:16:36Z</time>
      </trkpt>
      <trkpt lat="45.9224" lon="4.75712">
        <ele>174</ele>
        <time>2017-04-29T11:16:37Z</time>
      </trkpt>
      <trkpt lat="45.92236" lon="4.75706">
        <ele>174</ele>
        <time>2017-04-29T11:16:38Z</time>
      </trkpt>
      <trkpt lat="45.92231" lon="4.757">
        <ele>174</ele>
        <time>2017-04-29T11:16:39Z</time>
      </trkpt>
      <trkpt lat="45.92225" lon="4.75694">
        <ele>174</ele>
        <time>2017-04-29T11:16:40Z</time>
      </trkpt>
      <trkpt lat="45.92219" lon="4.75688">
        <ele>174</ele>
        <time>2017-04-29T11:16:41Z</time>
      </trkpt>
      <trkpt lat="45.92213" lon="4.75683">
        <ele>174</ele>
        <time>2017-04-29T11:16:42Z</time>
      </trkpt>
      <trkpt lat="45.92207" lon="4.75677">
        <ele>174</ele>
        <time>2017-04-29T11:16:43Z</time>
      </trkpt>
      <trkpt lat="45.92201" lon="4.75672">
        <ele>174</ele>
        <time>2017-04-29T11:16:44Z</time>
      </trkpt>
      <trkpt lat="45.92196" lon="4.75666">
        <ele>174</ele>
        <time>2017-04-29T11:16:45Z</time>
      </trkpt>
      <trkpt lat="45.9219" lon="4.75661">
        <ele>174</ele>
        <time>2017-04-29T11:16:46Z</time>
      </trkpt>
      <trkpt lat="45.92184" lon="4.75655">
        <ele>174</ele>
        <time>2017-04-29T11:16:47Z</time>
      </trkpt>
      <trkpt lat="45.92179" lon="4.7565">
        <ele>174</ele>
        <time>2017-04-29T11:16:48Z</time>
      </trkpt>
      <trkpt lat="45.92173" lon="4.75645">
        <ele>174</ele>
        <time>2017-04-29T11:16:49Z</time>
      </trkpt>
      <trkpt lat="45.92168" lon="4.75639">
        <ele>174</ele>
        <time>2017-04-29T11:16:50Z</time>
      </trkpt>
      <trkpt lat="45.92163" lon="4.75634">
        <ele>174</ele>
        <time>2017-04-29T11:16:51Z</time>
      </trkpt>
      <trkpt lat="45.92158" lon="4.75629">
        <ele>174</ele>
        <time>2017-04-29T11:16:52Z</time>
      </trkpt>
      <trkpt lat="45.92153" lon="4.75624">
        <ele>174</ele>
        <time>2017-04-29T11:16:53Z</time>
      </trkpt>
      <trkpt lat="45.92148" lon="4.75619">
        <ele>174</ele>
        <time>2017-04-29T11:16:54Z</time>
      </trkpt>
      <trkpt lat="45.92143" lon="4.75615">
        <ele>174</ele>
        <time>2017-04-29T11:16:55Z</time>
      </trkpt>
      <trkpt lat="45.92138" lon="4.7561">
        <ele>174</ele>
        <time>2017-04-29T11:16:56Z</time>
      </trkpt>
      <trkpt lat="45.92133" lon="4.75606">
        <ele>174</ele>
        <time>2017-04-29T11:16:57Z</time>
      </trkpt>
      <trkpt lat="45.92128" lon="4.75602">
        <ele>174</ele>
        <time>2017-04-29T11:16:58Z</time>
      </trkpt>
      <trkpt lat="45.92124" lon="4.75598">
        <ele>174</ele>
        <time>2017-04-29T11:16:59Z</time>
      </trkpt>
      <trkpt lat="45.92121" lon="4.75593">
        <ele>174</ele>
        <time>2017-04-29T11:17:00Z</time>
      </trkpt>
      <trkpt lat="45.92117" lon="4.75588">
        <ele>174</ele>
        <time>2017-04-29T11:17:01Z</time>
      </trkpt>
      <trkpt lat="45.92115" lon="4.75582">
        <ele>174</ele>
        <time>2017-04-29T11:17:02Z</time>
      </trkpt>
      <trkpt lat="45.92114" lon="4.7557">
        <ele>174</ele>
        <time>2017-04-29T11:17:04Z</time>
      </trkpt>
      <trkpt lat="45.92117" lon="4.75564">
        <ele>174</ele>
        <time>2017-04-29T11:17:05Z</time>
      </trkpt>
      <trkpt lat="45.9212" lon="4.75558">
        <ele>174</ele>
        <time>2017-04-29T11:17:06Z</time>
      </trkpt>
      <trkpt lat="45.92124" lon="4.75553">
        <ele>174</ele>
        <time>2017-04-29T11:17:07Z</time>
      </trkpt>
      <trkpt lat="45.92127" lon="4.75547">
        <ele>174</ele>
        <time>2017-04-29T11:17:08Z</time>
      </trkpt>
      <trkpt lat="45.9213" lon="4.75541">
        <ele>174</ele>
        <time>2017-04-29T11:17:09Z</time>
      </trkpt>
      <trkpt lat="45.92134" lon="4.75535">
        <ele>174</ele>
        <time>2017-04-29T11:17:10Z</time>
      </trkpt>
      <trkpt lat="45.92137" lon="4.75528">
        <ele>174</ele>
        <time>2017-04-29T11:17:11Z</time>
      </trkpt>
      <trkpt lat="45.9214" lon="4.75521">
        <ele>174</ele>
        <time>2017-04-29T11:17:12Z</time>
      </trkpt>
      <trkpt lat="45.92143" lon="4.75514">
        <ele>174</ele>
        <time>2017-04-29T11:17:13Z</time>
      </trkpt>
      <trkpt lat="45.92146" lon="4.75507">
        <ele>175</ele>
        <time>2017-04-29T11:17:14Z</time>
      </trkpt>
      <trkpt lat="45.92149" lon="4.75501">
        <ele>175</ele>
        <time>2017-04-29T11:17:15Z</time>
      </trkpt>
      <trkpt lat="45.92152" lon="4.75494">
        <ele>175</ele>
        <time>2017-04-29T11:17:16Z</time>
      </trkpt>
      <trkpt lat="45.92155" lon="4.75487">
        <ele>176</ele>
        <time>2017-04-29T11:17:17Z</time>
      </trkpt>
      <trkpt lat="45.92158" lon="4.75479">
        <ele>176</ele>
        <time>2017-04-29T11:17:18Z</time>
      </trkpt>
      <trkpt lat="45.9216" lon="4.75472">
        <ele>176</ele>
        <time>2017-04-29T11:17:19Z</time>
      </trkpt>
      <trkpt lat="45.92163" lon="4.75464">
        <ele>176</ele>
        <time>2017-04-29T11:17:20Z</time>
      </trkpt>
      <trkpt lat="45.92166" lon="4.75457">
        <ele>176</ele>
        <time>2017-04-29T11:17:21Z</time>
      </trkpt>
      <trkpt lat="45.92169" lon="4.7545">
        <ele>176</ele>
        <time>2017-04-29T11:17:22Z</time>
      </trkpt>
      <trkpt lat="45.92172" lon="4.75443">
        <ele>176</ele>
        <time>2017-04-29T11:17:23Z</time>
      </trkpt>
      <trkpt lat="45.92174" lon="4.75437">
        <ele>177</ele>
        <time>2017-04-29T11:17:24Z</time>
      </trkpt>
      <trkpt lat="45.92177" lon="4.7543">
        <ele>177</ele>
        <time>2017-04-29T11:17:25Z</time>
      </trkpt>
      <trkpt lat="45.92179" lon="4.75424">
        <ele>177</ele>
        <time>2017-04-29T11:17:26Z</time>
      </trkpt>
      <trkpt lat="45.92182" lon="4.75417">
        <ele>177</ele>
        <time>2017-04-29T11:17:27Z</time>
      </trkpt>
      <trkpt lat="45.92184" lon="4.7541">
        <ele>177</ele>
        <time>2017-04-29T11:17:28Z</time>
      </trkpt>
      <trkpt lat="45.92187" lon="4.75404">
        <ele>177</ele>
        <time>2017-04-29T11:17:29Z</time>
      </trkpt>
      <trkpt lat="45.92189" lon="4.75398">
        <ele>177</ele>
        <time>2017-04-29T11:17:30Z</time>
      </trkpt>
      <trkpt lat="45.92191" lon="4.75391">
        <ele>177</ele>
        <time>2017-04-29T11:17:31Z</time>
      </trkpt>
      <trkpt lat="45.92194" lon="4.75384">
        <ele>177</ele>
        <time>2017-04-29T11:17:32Z</time>
      </trkpt>
      <trkpt lat="45.92196" lon="4.75377">
        <ele>177</ele>
        <time>2017-04-29T11:17:33Z</time>
      </trkpt>
      <trkpt lat="45.92199" lon="4.7537">
        <ele>177</ele>
        <time>2017-04-29T11:17:34Z</time>
      </trkpt>
      <trkpt lat="45.92201" lon="4.75363">
        <ele>177</ele>
        <time>2017-04-29T11:17:35Z</time>
      </trkpt>
      <trkpt lat="45.92203" lon="4.75357">
        <ele>177</ele>
        <time>2017-04-29T11:17:36Z</time>
      </trkpt>
      <trkpt lat="45.92205" lon="4.75349">
        <ele>177</ele>
        <time>2017-04-29T11:17:37Z</time>
      </trkpt>
      <trkpt lat="45.92207" lon="4.75342">
        <ele>177</ele>
        <time>2017-04-29T11:17:38Z</time>
      </trkpt>
      <trkpt lat="45.92208" lon="4.75334">
        <ele>177</ele>
        <time>2017-04-29T11:17:39Z</time>
      </trkpt>
      <trkpt lat="45.92209" lon="4.75326">
        <ele>176</ele>
        <time>2017-04-29T11:17:40Z</time>
      </trkpt>
      <trkpt lat="45.9221" lon="4.75317">
        <ele>176</ele>
        <time>2017-04-29T11:17:41Z</time>
      </trkpt>
      <trkpt lat="45.92211" lon="4.75309">
        <ele>176</ele>
        <time>2017-04-29T11:17:42Z</time>
      </trkpt>
      <trkpt lat="45.92211" lon="4.753">
        <ele>176</ele>
        <time>2017-04-29T11:17:43Z</time>
      </trkpt>
      <trkpt lat="45.92211" lon="4.75291">
        <ele>176</ele>
        <time>2017-04-29T11:17:44Z</time>
      </trkpt>
      <trkpt lat="45.92211" lon="4.75282">
        <ele>176</ele>
        <time>2017-04-29T11:17:45Z</time>
      </trkpt>
      <trkpt lat="45.92211" lon="4.75273">
        <ele>176</ele>
        <time>2017-04-29T11:17:46Z</time>
      </trkpt>
      <trkpt lat="45.92212" lon="4.75263">
        <ele>176</ele>
        <time>2017-04-29T11:17:47Z</time>
      </trkpt>
      <trkpt lat="45.92212" lon="4.75254">
        <ele>175</ele>
        <time>2017-04-29T11:17:48Z</time>
      </trkpt>
      <trkpt lat="45.92213" lon="4.75245">
        <ele>175</ele>
        <time>2017-04-29T11:17:49Z</time>
      </trkpt>
      <trkpt lat="45.92213" lon="4.75236">
        <ele>175</ele>
        <time>2017-04-29T11:17:50Z</time>
      </trkpt>
      <trkpt lat="45.92214" lon="4.75226">
        <ele>175</ele>
        <time>2017-04-29T11:17:51Z</time>
      </trkpt>
      <trkpt lat="45.92215" lon="4.75217">
        <ele>175</ele>
        <time>2017-04-29T11:17:52Z</time>
      </trkpt>
      <trkpt lat="45.92217" lon="4.75207">
        <ele>175</ele>
        <time>2017-04-29T11:17:53Z</time>
      </trkpt>
      <trkpt lat="45.92219" lon="4.75198">
        <ele>175</ele>
        <time>2017-04-29T11:17:54Z</time>
      </trkpt>
      <trkpt lat="45.92222" lon="4.75189">
        <ele>175</ele>
        <time>2017-04-29T11:17:55Z</time>
      </trkpt>
      <trkpt lat="45.92224" lon="4.7518">
        <ele>175</ele>
        <time>2017-04-29T11:17:56Z</time>
      </trkpt>
      <trkpt lat="45.92227" lon="4.75172">
        <ele>175</ele>
        <time>2017-04-29T11:17:57Z</time>
      </trkpt>
      <trkpt lat="45.92231" lon="4.75164">
        <ele>174</ele>
        <time>2017-04-29T11:17:58Z</time>
      </trkpt>
      <trkpt lat="45.92235" lon="4.75156">
        <ele>174</ele>
        <time>2017-04-29T11:17:59Z</time>
      </trkpt>
      <trkpt lat="45.92239" lon="4.75149">
        <ele>174</ele>
        <time>2017-04-29T11:18:00Z</time>
      </trkpt>
      <trkpt lat="45.92243" lon="4.75142">
        <ele>174</ele>
        <time>2017-04-29T11:18:01Z</time>
      </trkpt>
      <trkpt lat="45.92248" lon="4.75135">
        <ele>174</ele>
        <time>2017-04-29T11:18:02Z</time>
      </trkpt>
      <trkpt lat="45.92253" lon="4.75129">
        <ele>174</ele>
        <time>2017-04-29T11:18:03Z</time>
      </trkpt>
      <trkpt lat="45.92258" lon="4.75124">
        <ele>174</ele>
        <time>2017-04-29T11:18:04Z</time>
      </trkpt>
      <trkpt lat="45.92262" lon="4.75118">
        <ele>174</ele>
        <time>2017-04-29T11:18:05Z</time>
      </trkpt>
      <trkpt lat="45.92267" lon="4.75113">
        <ele>174</ele>
        <time>2017-04-29T11:18:06Z</time>
      </trkpt>
      <trkpt lat="45.92272" lon="4.75108">
        <ele>174</ele>
        <time>2017-04-29T11:18:07Z</time>
      </trkpt>
      <trkpt lat="45.92277" lon="4.75103">
        <ele>173</ele>
        <time>2017-04-29T11:18:08Z</time>
      </trkpt>
      <trkpt lat="45.92282" lon="4.75098">
        <ele>173</ele>
        <time>2017-04-29T11:18:09Z</time>
      </trkpt>
      <trkpt lat="45.92287" lon="4.75093">
        <ele>173</ele>
        <time>2017-04-29T11:18:10Z</time>
      </trkpt>
      <trkpt lat="45.92291" lon="4.75088">
        <ele>173</ele>
        <time>2017-04-29T11:18:11Z</time>
      </trkpt>
      <trkpt lat="45.92296" lon="4.75082">
        <ele>172</ele>
        <time>2017-04-29T11:18:12Z</time>
      </trkpt>
      <trkpt lat="45.923" lon="4.75076">
        <ele>172</ele>
        <time>2017-04-29T11:18:13Z</time>
      </trkpt>
      <trkpt lat="45.92305" lon="4.7507">
        <ele>172</ele>
        <time>2017-04-29T11:18:14Z</time>
      </trkpt>
      <trkpt lat="45.9231" lon="4.75063">
        <ele>172</ele>
        <time>2017-04-29T11:18:15Z</time>
      </trkpt>
      <trkpt lat="45.92314" lon="4.75056">
        <ele>172</ele>
        <time>2017-04-29T11:18:16Z</time>
      </trkpt>
      <trkpt lat="45.92319" lon="4.75049">
        <ele>172</ele>
        <time>2017-04-29T11:18:17Z</time>
      </trkpt>
      <trkpt lat="45.92323" lon="4.75041">
        <ele>171</ele>
        <time>2017-04-29T11:18:18Z</time>
      </trkpt>
      <trkpt lat="45.92327" lon="4.75033">
        <ele>171</ele>
        <time>2017-04-29T11:18:19Z</time>
      </trkpt>
      <trkpt lat="45.92331" lon="4.75025">
        <ele>171</ele>
        <time>2017-04-29T11:18:20Z</time>
      </trkpt>
      <trkpt lat="45.92335" lon="4.75016">
        <ele>170</ele>
        <time>2017-04-29T11:18:21Z</time>
      </trkpt>
      <trkpt lat="45.92339" lon="4.75008">
        <ele>170</ele>
        <time>2017-04-29T11:18:22Z</time>
      </trkpt>
      <trkpt lat="45.92342" lon="4.74999">
        <ele>170</ele>
        <time>2017-04-29T11:18:23Z</time>
      </trkpt>
      <trkpt lat="45.92346" lon="4.74991">
        <ele>170</ele>
        <time>2017-04-29T11:18:24Z</time>
      </trkpt>
      <trkpt lat="45.9235" lon="4.74982">
        <ele>170</ele>
        <time>2017-04-29T11:18:25Z</time>
      </trkpt>
      <trkpt lat="45.92353" lon="4.74974">
        <ele>170</ele>
        <time>2017-04-29T11:18:26Z</time>
      </trkpt>
      <trkpt lat="45.92356" lon="4.74965">
        <ele>170</ele>
        <time>2017-04-29T11:18:27Z</time>
      </trkpt>
      <trkpt lat="45.92359" lon="4.74957">
        <ele>170</ele>
        <time>2017-04-29T11:18:28Z</time>
      </trkpt>
      <trkpt lat="45.92362" lon="4.7495">
        <ele>170</ele>
        <time>2017-04-29T11:18:29Z</time>
      </trkpt>
      <trkpt lat="45.92366" lon="4.74942">
        <ele>170</ele>
        <time>2017-04-29T11:18:30Z</time>
      </trkpt>
      <trkpt lat="45.92368" lon="4.74935">
        <ele>170</ele>
        <time>2017-04-29T11:18:31Z</time>
      </trkpt>
      <trkpt lat="45.92371" lon="4.74928">
        <ele>170</ele>
        <time>2017-04-29T11:18:32Z</time>
      </trkpt>
      <trkpt lat="45.92374" lon="4.74921">
        <ele>170</ele>
        <time>2017-04-29T11:18:33Z</time>
      </trkpt>
      <trkpt lat="45.92377" lon="4.74914">
        <ele>171</ele>
        <time>2017-04-29T11:18:34Z</time>
      </trkpt>
      <trkpt lat="45.9238" lon="4.74907">
        <ele>171</ele>
        <time>2017-04-29T11:18:35Z</time>
      </trkpt>
      <trkpt lat="45.92383" lon="4.749">
        <ele>171</ele>
        <time>2017-04-29T11:18:36Z</time>
      </trkpt>
      <trkpt lat="45.92385" lon="4.74894">
        <ele>171</ele>
        <time>2017-04-29T11:18:37Z</time>
      </trkpt>
      <trkpt lat="45.92388" lon="4.74887">
        <ele>171</ele>
        <time>2017-04-29T11:18:38Z</time>
      </trkpt>
      <trkpt lat="45.9239" lon="4.7488">
        <ele>171</ele>
        <time>2017-04-29T11:18:39Z</time>
      </trkpt>
      <trkpt lat="45.92393" lon="4.74873">
        <ele>171</ele>
        <time>2017-04-29T11:18:40Z</time>
      </trkpt>
      <trkpt lat="45.92395" lon="4.74866">
        <ele>171</ele>
        <time>2017-04-29T11:18:41Z</time>
      </trkpt>
      <trkpt lat="45.92398" lon="4.74859">
        <ele>171</ele>
        <time>2017-04-29T11:18:42Z</time>
      </trkpt>
      <trkpt lat="45.924" lon="4.74852">
        <ele>171</ele>
        <time>2017-04-29T11:18:43Z</time>
      </trkpt>
      <trkpt lat="45.92402" lon="4.74844">
        <ele>171</ele>
        <time>2017-04-29T11:18:44Z</time>
      </trkpt>
      <trkpt lat="45.92403" lon="4.74836">
        <ele>171</ele>
        <time>2017-04-29T11:18:45Z</time>
      </trkpt>
      <trkpt lat="45.92405" lon="4.74828">
        <ele>171</ele>
        <time>2017-04-29T11:18:46Z</time>
      </trkpt>
      <trkpt lat="45.92407" lon="4.7482">
        <ele>171</ele>
        <time>2017-04-29T11:18:47Z</time>
      </trkpt>
      <trkpt lat="45.92409" lon="4.74812">
        <ele>171</ele>
        <time>2017-04-29T11:18:48Z</time>
      </trkpt>
      <trkpt lat="45.92411" lon="4.74803">
        <ele>171</ele>
        <time>2017-04-29T11:18:49Z</time>
      </trkpt>
      <trkpt lat="45.92412" lon="4.74795">
        <ele>171</ele>
        <time>2017-04-29T11:18:50Z</time>
      </trkpt>
      <trkpt lat="45.92414" lon="4.74786">
        <ele>171</ele>
        <time>2017-04-29T11:18:51Z</time>
      </trkpt>
      <trkpt lat="45.92416" lon="4.74777">
        <ele>171</ele>
        <time>2017-04-29T11:18:52Z</time>
      </trkpt>
      <trkpt lat="45.92419" lon="4.74768">
        <ele>171</ele>
        <time>2017-04-29T11:18:53Z</time>
      </trkpt>
      <trkpt lat="45.92421" lon="4.74759">
        <ele>171</ele>
        <time>2017-04-29T11:18:54Z</time>
      </trkpt>
      <trkpt lat="45.92423" lon="4.74751">
        <ele>172</ele>
        <time>2017-04-29T11:18:55Z</time>
      </trkpt>
      <trkpt lat="45.92426" lon="4.74743">
        <ele>172</ele>
        <time>2017-04-29T11:18:56Z</time>
      </trkpt>
      <trkpt lat="45.92429" lon="4.74735">
        <ele>171</ele>
        <time>2017-04-29T11:18:57Z</time>
      </trkpt>
      <trkpt lat="45.92432" lon="4.74727">
        <ele>171</ele>
        <time>2017-04-29T11:18:58Z</time>
      </trkpt>
      <trkpt lat="45.92434" lon="4.7472">
        <ele>171</ele>
        <time>2017-04-29T11:18:59Z</time>
      </trkpt>
      <trkpt lat="45.92437" lon="4.74713">
        <ele>171</ele>
        <time>2017-04-29T11:19:00Z</time>
      </trkpt>
      <trkpt lat="45.9244" lon="4.74706">
        <ele>171</ele>
        <time>2017-04-29T11:19:01Z</time>
      </trkpt>
      <trkpt lat="45.92443" lon="4.74699">
        <ele>171</ele>
        <time>2017-04-29T11:19:02Z</time>
      </trkpt>
      <trkpt lat="45.92446" lon="4.74693">
        <ele>171</ele>
        <time>2017-04-29T11:19:03Z</time>
      </trkpt>
      <trkpt lat="45.92449" lon="4.74687">
        <ele>171</ele>
        <time>2017-04-29T11:19:04Z</time>
      </trkpt>
      <trkpt lat="45.92452" lon="4.7468">
        <ele>171</ele>
        <time>2017-04-29T11:19:05Z</time>
      </trkpt>
      <trkpt lat="45.92455" lon="4.74673">
        <ele>171</ele>
        <time>2017-04-29T11:19:06Z</time>
      </trkpt>
      <trkpt lat="45.92459" lon="4.74665">
        <ele>171</ele>
        <time>2017-04-29T11:19:07Z</time>
      </trkpt>
      <trkpt lat="45.92463" lon="4.74659">
        <ele>171</ele>
        <time>2017-04-29T11:19:08Z</time>
      </trkpt>
      <trkpt lat="45.92467" lon="4.74651">
        <ele>171</ele>
        <time>2017-04-29T11:19:09Z</time>
      </trkpt>
      <trkpt lat="45.92472" lon="4.74645">
        <ele>171</ele>
        <time>2017-04-29T11:19:10Z</time>
      </trkpt>
      <trkpt lat="45.92476" lon="4.74638">
        <ele>171</ele>
        <time>2017-04-29T11:19:11Z</time>
      </trkpt>
      <trkpt lat="45.92481" lon="4.74632">
        <ele>171</ele>
        <time>2017-04-29T11:19:12Z</time>
      </trkpt>
      <trkpt lat="45.92486" lon="4.74625">
        <ele>171</ele>
        <time>2017-04-29T11:19:13Z</time>
      </trkpt>
      <trkpt lat="45.9249" lon="4.74618">
        <ele>171</ele>
        <time>2017-04-29T11:19:14Z</time>
      </trkpt>
      <trkpt lat="45.92495" lon="4.74612">
        <ele>171</ele>
        <time>2017-04-29T11:19:15Z</time>
      </trkpt>
      <trkpt lat="45.925" lon="4.74606">
        <ele>171</ele>
        <time>2017-04-29T11:19:16Z</time>
      </trkpt>
      <trkpt lat="45.92504" lon="4.74601">
        <ele>171</ele>
        <time>2017-04-29T11:19:17Z</time>
      </trkpt>
      <trkpt lat="45.92509" lon="4.74596">
        <ele>171</ele>
        <time>2017-04-29T11:19:18Z</time>
      </trkpt>
      <trkpt lat="45.92513" lon="4.74591">
        <ele>171</ele>
        <time>2017-04-29T11:19:19Z</time>
      </trkpt>
      <trkpt lat="45.92518" lon="4.74586">
        <ele>171</ele>
        <time>2017-04-29T11:19:20Z</time>
      </trkpt>
      <trkpt lat="45.92522" lon="4.74581">
        <ele>171</ele>
        <time>2017-04-29T11:19:21Z</time>
      </trkpt>
      <trkpt lat="45.92526" lon="4.74576">
        <ele>171</ele>
        <time>2017-04-29T11:19:22Z</time>
      </trkpt>
      <trkpt lat="45.92531" lon="4.7457">
        <ele>171</ele>
        <time>2017-04-29T11:19:23Z</time>
      </trkpt>
      <trkpt lat="45.92535" lon="4.74564">
        <ele>171</ele>
        <time>2017-04-29T11:19:24Z</time>
      </trkpt>
      <trkpt lat="45.92539" lon="4.74558">
        <ele>171</ele>
        <time>2017-04-29T11:19:25Z</time>
      </trkpt>
      <trkpt lat="45.92544" lon="4.74551">
        <ele>170</ele>
        <time>2017-04-29T11:19:26Z</time>
      </trkpt>
      <trkpt lat="45.92548" lon="4.74544">
        <ele>170</ele>
        <time>2017-04-29T11:19:27Z</time>
      </trkpt>
      <trkpt lat="45.92552" lon="4.74536">
        <ele>170</ele>
        <time>2017-04-29T11:19:28Z</time>
      </trkpt>
      <trkpt lat="45.92556" lon="4.74528">
        <ele>170</ele>
        <time>2017-04-29T11:19:29Z</time>
      </trkpt>
      <trkpt lat="45.9256" lon="4.74521">
        <ele>170</ele>
        <time>2017-04-29T11:19:30Z</time>
      </trkpt>
      <trkpt lat="45.92564" lon="4.74513">
        <ele>170</ele>
        <time>2017-04-29T11:19:31Z</time>
      </trkpt>
      <trkpt lat="45.92568" lon="4.74505">
        <ele>170</ele>
        <time>2017-04-29T11:19:32Z</time>
      </trkpt>
      <trkpt lat="45.92572" lon="4.74498">
        <ele>170</ele>
        <time>2017-04-29T11:19:33Z</time>
      </trkpt>
      <trkpt lat="45.92576" lon="4.74491">
        <ele>170</ele>
        <time>2017-04-29T11:19:34Z</time>
      </trkpt>
      <trkpt lat="45.9258" lon="4.74485">
        <ele>170</ele>
        <time>2017-04-29T11:19:35Z</time>
      </trkpt>
      <trkpt lat="45.92584" lon="4.74478">
        <ele>170</ele>
        <time>2017-04-29T11:19:36Z</time>
      </trkpt>
      <trkpt lat="45.92587" lon="4.74471">
        <ele>170</ele>
        <time>2017-04-29T11:19:37Z</time>
      </trkpt>
      <trkpt lat="45.92591" lon="4.74465">
        <ele>170</ele>
        <time>2017-04-29T11:19:38Z</time>
      </trkpt>
      <trkpt lat="45.92594" lon="4.74459">
        <ele>170</ele>
        <time>2017-04-29T11:19:39Z</time>
      </trkpt>
      <trkpt lat="45.92598" lon="4.74452">
        <ele>170</ele>
        <time>2017-04-29T11:19:40Z</time>
      </trkpt>
      <trkpt lat="45.92601" lon="4.74446">
        <ele>170</ele>
        <time>2017-04-29T11:19:41Z</time>
      </trkpt>
      <trkpt lat="45.92605" lon="4.74439">
        <ele>170</ele>
        <time>2017-04-29T11:19:42Z</time>
      </trkpt>
      <trkpt lat="45.92608" lon="4.74433">
        <ele>170</ele>
        <time>2017-04-29T11:19:43Z</time>
      </trkpt>
      <trkpt lat="45.92612" lon="4.74426">
        <ele>170</ele>
        <time>2017-04-29T11:19:44Z</time>
      </trkpt>
      <trkpt lat="45.92616" lon="4.7442">
        <ele>170</ele>
        <time>2017-04-29T11:19:45Z</time>
      </trkpt>
      <trkpt lat="45.92619" lon="4.74413">
        <ele>170</ele>
        <time>2017-04-29T11:19:46Z</time>
      </trkpt>
      <trkpt lat="45.92623" lon="4.74406">
        <ele>170</ele>
        <time>2017-04-29T11:19:47Z</time>
      </trkpt>
      <trkpt lat="45.92627" lon="4.74399">
        <ele>170</ele>
        <time>2017-04-29T11:19:48Z</time>
      </trkpt>
      <trkpt lat="45.9263" lon="4.74392">
        <ele>170</ele>
        <time>2017-04-29T11:19:49Z</time>
      </trkpt>
      <trkpt lat="45.92634" lon="4.74385">
        <ele>170</ele>
        <time>2017-04-29T11:19:50Z</time>
      </trkpt>
      <trkpt lat="45.92638" lon="4.74377">
        <ele>170</ele>
        <time>2017-04-29T11:19:51Z</time>
      </trkpt>
      <trkpt lat="45.92642" lon="4.7437">
        <ele>171</ele>
        <time>2017-04-29T11:19:52Z</time>
      </trkpt>
      <trkpt lat="45.92646" lon="4.74363">
        <ele>171</ele>
        <time>2017-04-29T11:19:53Z</time>
      </trkpt>
      <trkpt lat="45.9265" lon="4.74356">
        <ele>171</ele>
        <time>2017-04-29T11:19:54Z</time>
      </trkpt>
      <trkpt lat="45.92653" lon="4.74349">
        <ele>171</ele>
        <time>2017-04-29T11:19:55Z</time>
      </trkpt>
      <trkpt lat="45.92657" lon="4.74342">
        <ele>171</ele>
        <time>2017-04-29T11:19:56Z</time>
      </trkpt>
      <trkpt lat="45.92661" lon="4.74336">
        <ele>171</ele>
        <time>2017-04-29T11:19:57Z</time>
      </trkpt>
      <trkpt lat="45.92664" lon="4.74329">
        <ele>171</ele>
        <time>2017-04-29T11:19:58Z</time>
      </trkpt>
      <trkpt lat="45.92667" lon="4.74323">
        <ele>171</ele>
        <time>2017-04-29T11:19:59Z</time>
      </trkpt>
      <trkpt lat="45.92671" lon="4.74316">
        <ele>171</ele>
        <time>2017-04-29T11:20:00Z</time>
      </trkpt>
      <trkpt lat="45.92674" lon="4.7431">
        <ele>171</ele>
        <time>2017-04-29T11:20:01Z</time>
      </trkpt>
      <trkpt lat="45.92678" lon="4.74303">
        <ele>171</ele>
        <time>2017-04-29T11:20:02Z</time>
      </trkpt>
      <trkpt lat="45.92681" lon="4.74297">
        <ele>171</ele>
        <time>2017-04-29T11:20:03Z</time>
      </trkpt>
      <trkpt lat="45.92685" lon="4.74291">
        <ele>171</ele>
        <time>2017-04-29T11:20:04Z</time>
      </trkpt>
      <trkpt lat="45.92688" lon="4.74284">
        <ele>171</ele>
        <time>2017-04-29T11:20:05Z</time>
      </trkpt>
      <trkpt lat="45.92692" lon="4.74277">
        <ele>171</ele>
        <time>2017-04-29T11:20:06Z</time>
      </trkpt>
      <trkpt lat="45.92696" lon="4.74271">
        <ele>171</ele>
        <time>2017-04-29T11:20:07Z</time>
      </trkpt>
      <trkpt lat="45.92699" lon="4.74265">
        <ele>171</ele>
        <time>2017-04-29T11:20:08Z</time>
      </trkpt>
      <trkpt lat="45.92703" lon="4.74259">
        <ele>171</ele>
        <time>2017-04-29T11:20:09Z</time>
      </trkpt>
      <trkpt lat="45.92707" lon="4.74253">
        <ele>171</ele>
        <time>2017-04-29T11:20:10Z</time>
      </trkpt>
      <trkpt lat="45.92711" lon="4.74247">
        <ele>171</ele>
        <time>2017-04-29T11:20:11Z</time>
      </trkpt>
      <trkpt lat="45.92714" lon="4.74241">
        <ele>171</ele>
        <time>2017-04-29T11:20:12Z</time>
      </trkpt>
      <trkpt lat="45.92719" lon="4.74235">
        <ele>171</ele>
        <time>2017-04-29T11:20:13Z</time>
      </trkpt>
      <trkpt lat="45.92723" lon="4.74229">
        <ele>171</ele>
        <time>2017-04-29T11:20:14Z</time>
      </trkpt>
      <trkpt lat="45.92727" lon="4.74222">
        <ele>171</ele>
        <time>2017-04-29T11:20:15Z</time>
      </trkpt>
      <trkpt lat="45.92731" lon="4.74216">
        <ele>171</ele>
        <time>2017-04-29T11:20:16Z</time>
      </trkpt>
      <trkpt lat="45.92736" lon="4.7421">
        <ele>171</ele>
        <time>2017-04-29T11:20:17Z</time>
      </trkpt>
      <trkpt lat="45.9274" lon="4.74204">
        <ele>171</ele>
        <time>2017-04-29T11:20:18Z</time>
      </trkpt>
      <trkpt lat="45.92745" lon="4.74198">
        <ele>171</ele>
        <time>2017-04-29T11:20:19Z</time>
      </trkpt>
      <trkpt lat="45.92749" lon="4.74193">
        <ele>171</ele>
        <time>2017-04-29T11:20:20Z</time>
      </trkpt>
      <trkpt lat="45.92754" lon="4.74187">
        <ele>172</ele>
        <time>2017-04-29T11:20:21Z</time>
      </trkpt>
      <trkpt lat="45.92759" lon="4.74182">
        <ele>172</ele>
        <time>2017-04-29T11:20:22Z</time>
      </trkpt>
      <trkpt lat="45.92764" lon="4.74177">
        <ele>172</ele>
        <time>2017-04-29T11:20:23Z</time>
      </trkpt>
      <trkpt lat="45.92769" lon="4.74171">
        <ele>172</ele>
        <time>2017-04-29T11:20:24Z</time>
      </trkpt>
      <trkpt lat="45.92773" lon="4.74166">
        <ele>172</ele>
        <time>2017-04-29T11:20:25Z</time>
      </trkpt>
      <trkpt lat="45.92778" lon="4.74161">
        <ele>172</ele>
        <time>2017-04-29T11:20:26Z</time>
      </trkpt>
      <trkpt lat="45.92783" lon="4.74156">
        <ele>172</ele>
        <time>2017-04-29T11:20:27Z</time>
      </trkpt>
      <trkpt lat="45.92788" lon="4.74151">
        <ele>172</ele>
        <time>2017-04-29T11:20:28Z</time>
      </trkpt>
      <trkpt lat="45.92793" lon="4.74146">
        <ele>172</ele>
        <time>2017-04-29T11:20:29Z</time>
      </trkpt>
      <trkpt lat="45.92798" lon="4.74141">
        <ele>172</ele>
        <time>2017-04-29T11:20:30Z</time>
      </trkpt>
      <trkpt lat="45.92803" lon="4.74136">
        <ele>172</ele>
        <time>2017-04-29T11:20:31Z</time>
      </trkpt>
      <trkpt lat="45.92808" lon="4.7413">
        <ele>172</ele>
        <time>2017-04-29T11:20:32Z</time>
      </trkpt>
      <trkpt lat="45.92813" lon="4.74125">
        <ele>172</ele>
        <time>2017-04-29T11:20:33Z</time>
      </trkpt>
      <trkpt lat="45.92818" lon="4.74119">
        <ele>172</ele>
        <time>2017-04-29T11:20:34Z</time>
      </trkpt>
      <trkpt lat="45.92823" lon="4.74113">
        <ele>171</ele>
        <time>2017-04-29T11:20:35Z</time>
      </trkpt>
      <trkpt lat="45.92828" lon="4.74108">
        <ele>171</ele>
        <time>2017-04-29T11:20:36Z</time>
      </trkpt>
      <trkpt lat="45.92833" lon="4.74102">
        <ele>171</ele>
        <time>2017-04-29T11:20:37Z</time>
      </trkpt>
      <trkpt lat="45.92838" lon="4.74097">
        <ele>171</ele>
        <time>2017-04-29T11:20:38Z</time>
      </trkpt>
      <trkpt lat="45.92842" lon="4.74091">
        <ele>171</ele>
        <time>2017-04-29T11:20:39Z</time>
      </trkpt>
      <trkpt lat="45.92846" lon="4.74085">
        <ele>171</ele>
        <time>2017-04-29T11:20:40Z</time>
      </trkpt>
      <trkpt lat="45.92851" lon="4.7408">
        <ele>172</ele>
        <time>2017-04-29T11:20:41Z</time>
      </trkpt>
      <trkpt lat="45.92855" lon="4.74074">
        <ele>172</ele>
        <time>2017-04-29T11:20:42Z</time>
      </trkpt>
      <trkpt lat="45.92859" lon="4.74068">
        <ele>172</ele>
        <time>2017-04-29T11:20:43Z</time>
      </trkpt>
      <trkpt lat="45.92864" lon="4.74063">
        <ele>172</ele>
        <time>2017-04-29T11:20:44Z</time>
      </trkpt>
      <trkpt lat="45.92869" lon="4.74058">
        <ele>172</ele>
        <time>2017-04-29T11:20:45Z</time>
      </trkpt>
      <trkpt lat="45.92874" lon="4.74054">
        <ele>172</ele>
        <time>2017-04-29T11:20:46Z</time>
      </trkpt>
      <trkpt lat="45.9288" lon="4.7405">
        <ele>172</ele>
        <time>2017-04-29T11:20:47Z</time>
      </trkpt>
      <trkpt lat="45.92886" lon="4.74049">
        <ele>172</ele>
        <time>2017-04-29T11:20:48Z</time>
      </trkpt>
      <trkpt lat="45.92892" lon="4.74049">
        <ele>172</ele>
        <time>2017-04-29T11:20:49Z</time>
      </trkpt>
      <trkpt lat="45.92897" lon="4.7405">
        <ele>172</ele>
        <time>2017-04-29T11:20:50Z</time>
      </trkpt>
      <trkpt lat="45.92903" lon="4.74049">
        <ele>172</ele>
        <time>2017-04-29T11:20:51Z</time>
      </trkpt>
      <trkpt lat="45.92908" lon="4.74048">
        <ele>172</ele>
        <time>2017-04-29T11:20:52Z</time>
      </trkpt>
      <trkpt lat="45.92913" lon="4.74044">
        <ele>172</ele>
        <time>2017-04-29T11:20:53Z</time>
      </trkpt>
      <trkpt lat="45.92916" lon="4.74038">
        <ele>172</ele>
        <time>2017-04-29T11:20:54Z</time>
      </trkpt>
      <trkpt lat="45.92918" lon="4.74032">
        <ele>172</ele>
        <time>2017-04-29T11:20:55Z</time>
      </trkpt>
      <trkpt lat="45.92919" lon="4.74025">
        <ele>172</ele>
        <time>2017-04-29T11:20:56Z</time>
      </trkpt>
      <trkpt lat="45.92919" lon="4.74017">
        <ele>172</ele>
        <time>2017-04-29T11:20:57Z</time>
      </trkpt>
      <trkpt lat="45.92918" lon="4.74009">
        <ele>172</ele>
        <time>2017-04-29T11:20:58Z</time>
      </trkpt>
      <trkpt lat="45.92915" lon="4.74002">
        <ele>172</ele>
        <time>2017-04-29T11:20:59Z</time>
      </trkpt>
      <trkpt lat="45.92911" lon="4.73996">
        <ele>172</ele>
        <time>2017-04-29T11:21:00Z</time>
      </trkpt>
      <trkpt lat="45.92906" lon="4.73991">
        <ele>172</ele>
        <time>2017-04-29T11:21:01Z</time>
      </trkpt>
      <trkpt lat="45.92901" lon="4.73986">
        <ele>172</ele>
        <time>2017-04-29T11:21:02Z</time>
      </trkpt>
      <trkpt lat="45.92896" lon="4.73981">
        <ele>172</ele>
        <time>2017-04-29T11:21:03Z</time>
      </trkpt>
      <trkpt lat="45.92892" lon="4.73975">
        <ele>172</ele>
        <time>2017-04-29T11:21:04Z</time>
      </trkpt>
      <trkpt lat="45.92889" lon="4.73967">
        <ele>172</ele>
        <time>2017-04-29T11:21:05Z</time>
      </trkpt>
      <trkpt lat="45.92887" lon="4.73957">
        <ele>172</ele>
        <time>2017-04-29T11:21:06Z</time>
      </trkpt>
      <trkpt lat="45.92887" lon="4.73948">
        <ele>172</ele>
        <time>2017-04-29T11:21:07Z</time>
      </trkpt>
      <trkpt lat="45.92886" lon="4.73938">
        <ele>172</ele>
        <time>2017-04-29T11:21:08Z</time>
      </trkpt>
      <trkpt lat="45.92885" lon="4.73929">
        <ele>172</ele>
        <time>2017-04-29T11:21:09Z</time>
      </trkpt>
      <trkpt lat="45.92884" lon="4.7392">
        <ele>172</ele>
        <time>2017-04-29T11:21:10Z</time>
      </trkpt>
      <trkpt lat="45.92883" lon="4.7391">
        <ele>173</ele>
        <time>2017-04-29T11:21:11Z</time>
      </trkpt>
      <trkpt lat="45.92881" lon="4.73901">
        <ele>173</ele>
        <time>2017-04-29T11:21:12Z</time>
      </trkpt>
      <trkpt lat="45.9288" lon="4.73892">
        <ele>173</ele>
        <time>2017-04-29T11:21:13Z</time>
      </trkpt>
      <trkpt lat="45.92878" lon="4.73883">
        <ele>173</ele>
        <time>2017-04-29T11:21:14Z</time>
      </trkpt>
      <trkpt lat="45.92877" lon="4.73873">
        <ele>173</ele>
        <time>2017-04-29T11:21:15Z</time>
      </trkpt>
      <trkpt lat="45.92875" lon="4.73865">
        <ele>173</ele>
        <time>2017-04-29T11:21:16Z</time>
      </trkpt>
      <trkpt lat="45.92874" lon="4.73856">
        <ele>173</ele>
        <time>2017-04-29T11:21:17Z</time>
      </trkpt>
      <trkpt lat="45.92872" lon="4.73848">
        <ele>173</ele>
        <time>2017-04-29T11:21:18Z</time>
      </trkpt>
      <trkpt lat="45.92871" lon="4.7384">
        <ele>173</ele>
        <time>2017-04-29T11:21:19Z</time>
      </trkpt>
      <trkpt lat="45.92868" lon="4.73832">
        <ele>173</ele>
        <time>2017-04-29T11:21:20Z</time>
      </trkpt>
      <trkpt lat="45.92867" lon="4.73824">
        <ele>173</ele>
        <time>2017-04-29T11:21:21Z</time>
      </trkpt>
      <trkpt lat="45.92864" lon="4.73817">
        <ele>173</ele>
        <time>2017-04-29T11:21:22Z</time>
      </trkpt>
      <trkpt lat="45.92862" lon="4.73811">
        <ele>173</ele>
        <time>2017-04-29T11:21:23Z</time>
      </trkpt>
      <trkpt lat="45.92859" lon="4.73804">
        <ele>173</ele>
        <time>2017-04-29T11:21:24Z</time>
      </trkpt>
      <trkpt lat="45.92854" lon="4.738">
        <ele>173</ele>
        <time>2017-04-29T11:21:25Z</time>
      </trkpt>
      <trkpt lat="45.92849" lon="4.73795">
        <ele>173</ele>
        <time>2017-04-29T11:21:26Z</time>
      </trkpt>
      <trkpt lat="45.92844" lon="4.7379">
        <ele>173</ele>
        <time>2017-04-29T11:21:27Z</time>
      </trkpt>
      <trkpt lat="45.92839" lon="4.73786">
        <ele>173</ele>
        <time>2017-04-29T11:21:28Z</time>
      </trkpt>
      <trkpt lat="45.92834" lon="4.73782">
        <ele>173</ele>
        <time>2017-04-29T11:21:29Z</time>
      </trkpt>
      <trkpt lat="45.92829" lon="4.73779">
        <ele>173</ele>
        <time>2017-04-29T11:21:30Z</time>
      </trkpt>
      <trkpt lat="45.92824" lon="4.73776">
        <ele>173</ele>
        <time>2017-04-29T11:21:31Z</time>
      </trkpt>
      <trkpt lat="45.92819" lon="4.73773">
        <ele>173</ele>
        <time>2017-04-29T11:21:32Z</time>
      </trkpt>
      <trkpt lat="45.92814" lon="4.73771">
        <ele>173</ele>
        <time>2017-04-29T11:21:33Z</time>
      </trkpt>
      <trkpt lat="45.92806" lon="4.73766">
        <ele>173</ele>
        <time>2017-04-29T11:21:35Z</time>
      </trkpt>
      <trkpt lat="45.92802" lon="4.73764">
        <ele>173</ele>
        <time>2017-04-29T11:21:36Z</time>
      </trkpt>
      <trkpt lat="45.92794" lon="4.73762">
        <ele>173</ele>
        <time>2017-04-29T11:21:38Z</time>
      </trkpt>
      <trkpt lat="45.9279" lon="4.73759">
        <ele>173</ele>
        <time>2017-04-29T11:21:39Z</time>
      </trkpt>
      <trkpt lat="45.92786" lon="4.73754">
        <ele>173</ele>
        <time>2017-04-29T11:21:40Z</time>
      </trkpt>
      <trkpt lat="45.92783" lon="4.73749">
        <ele>172</ele>
        <time>2017-04-29T11:21:41Z</time>
      </trkpt>
      <trkpt lat="45.92779" lon="4.73743">
        <ele>172</ele>
        <time>2017-04-29T11:21:42Z</time>
      </trkpt>
      <trkpt lat="45.92775" lon="4.7374">
        <ele>172</ele>
        <time>2017-04-29T11:21:43Z</time>
      </trkpt>
      <trkpt lat="45.9277" lon="4.73737">
        <ele>172</ele>
        <time>2017-04-29T11:21:44Z</time>
      </trkpt>
      <trkpt lat="45.92765" lon="4.73735">
        <ele>172</ele>
        <time>2017-04-29T11:21:45Z</time>
      </trkpt>
      <trkpt lat="45.92761" lon="4.73733">
        <ele>172</ele>
        <time>2017-04-29T11:21:46Z</time>
      </trkpt>
      <trkpt lat="45.92756" lon="4.7373">
        <ele>172</ele>
        <time>2017-04-29T11:21:47Z</time>
      </trkpt>
      <trkpt lat="45.92752" lon="4.73729">
        <ele>172</ele>
        <time>2017-04-29T11:21:48Z</time>
      </trkpt>
      <trkpt lat="45.92747" lon="4.73729">
        <ele>173</ele>
        <time>2017-04-29T11:21:49Z</time>
      </trkpt>
      <trkpt lat="45.92738" lon="4.73726">
        <ele>173</ele>
        <time>2017-04-29T11:21:51Z</time>
      </trkpt>
      <trkpt lat="45.92734" lon="4.73725">
        <ele>173</ele>
        <time>2017-04-29T11:21:52Z</time>
      </trkpt>
      <trkpt lat="45.92729" lon="4.73724">
        <ele>173</ele>
        <time>2017-04-29T11:21:53Z</time>
      </trkpt>
      <trkpt lat="45.92724" lon="4.73723">
        <ele>173</ele>
        <time>2017-04-29T11:21:54Z</time>
      </trkpt>
      <trkpt lat="45.92719" lon="4.73722">
        <ele>173</ele>
        <time>2017-04-29T11:21:55Z</time>
      </trkpt>
      <trkpt lat="45.92715" lon="4.73721">
        <ele>173</ele>
        <time>2017-04-29T11:21:56Z</time>
      </trkpt>
      <trkpt lat="45.9271" lon="4.73719">
        <ele>173</ele>
        <time>2017-04-29T11:21:57Z</time>
      </trkpt>
      <trkpt lat="45.92705" lon="4.73717">
        <ele>173</ele>
        <time>2017-04-29T11:21:58Z</time>
      </trkpt>
      <trkpt lat="45.927" lon="4.73715">
        <ele>173</ele>
        <time>2017-04-29T11:21:59Z</time>
      </trkpt>
      <trkpt lat="45.92695" lon="4.73713">
        <ele>173</ele>
        <time>2017-04-29T11:22:00Z</time>
      </trkpt>
      <trkpt lat="45.9269" lon="4.73711">
        <ele>173</ele>
        <time>2017-04-29T11:22:01Z</time>
      </trkpt>
      <trkpt lat="45.92685" lon="4.7371">
        <ele>173</ele>
        <time>2017-04-29T11:22:02Z</time>
      </trkpt>
      <trkpt lat="45.92679" lon="4.73709">
        <ele>173</ele>
        <time>2017-04-29T11:22:03Z</time>
      </trkpt>
      <trkpt lat="45.92674" lon="4.73708">
        <ele>174</ele>
        <time>2017-04-29T11:22:04Z</time>
      </trkpt>
      <trkpt lat="45.92669" lon="4.73706">
        <ele>174</ele>
        <time>2017-04-29T11:22:05Z</time>
      </trkpt>
      <trkpt lat="45.92664" lon="4.73703">
        <ele>173</ele>
        <time>2017-04-29T11:22:06Z</time>
      </trkpt>
      <trkpt lat="45.92659" lon="4.73701">
        <ele>173</ele>
        <time>2017-04-29T11:22:07Z</time>
      </trkpt>
      <trkpt lat="45.92655" lon="4.73698">
        <ele>173</ele>
        <time>2017-04-29T11:22:08Z</time>
      </trkpt>
      <trkpt lat="45.92651" lon="4.73694">
        <ele>173</ele>
        <time>2017-04-29T11:22:09Z</time>
      </trkpt>
      <trkpt lat="45.92647" lon="4.73691">
        <ele>173</ele>
        <time>2017-04-29T11:22:10Z</time>
      </trkpt>
      <trkpt lat="45.9264" lon="4.73683">
        <ele>173</ele>
        <time>2017-04-29T11:22:12Z</time>
      </trkpt>
      <trkpt lat="45.92637" lon="4.73678">
        <ele>173</ele>
        <time>2017-04-29T11:22:13Z</time>
      </trkpt>
      <trkpt lat="45.92634" lon="4.73673">
        <ele>173</ele>
        <time>2017-04-29T11:22:14Z</time>
      </trkpt>
      <trkpt lat="45.92632" lon="4.73666">
        <ele>173</ele>
        <time>2017-04-29T11:22:15Z</time>
      </trkpt>
      <trkpt lat="45.92629" lon="4.73659">
        <ele>173</ele>
        <time>2017-04-29T11:22:16Z</time>
      </trkpt>
      <trkpt lat="45.92626" lon="4.73653">
        <ele>173</ele>
        <time>2017-04-29T11:22:17Z</time>
      </trkpt>
      <trkpt lat="45.92623" lon="4.73646">
        <ele>173</ele>
        <time>2017-04-29T11:22:18Z</time>
      </trkpt>
      <trkpt lat="45.92619" lon="4.73639">
        <ele>173</ele>
        <time>2017-04-29T11:22:19Z</time>
      </trkpt>
      <trkpt lat="45.92615" lon="4.73633">
        <ele>173</ele>
        <time>2017-04-29T11:22:20Z</time>
      </trkpt>
      <trkpt lat="45.9261" lon="4.73629">
        <ele>173</ele>
        <time>2017-04-29T11:22:21Z</time>
      </trkpt>
      <trkpt lat="45.92606" lon="4.73626">
        <ele>173</ele>
        <time>2017-04-29T11:22:22Z</time>
      </trkpt>
      <trkpt lat="45.926" lon="4.73625">
        <ele>173</ele>
        <time>2017-04-29T11:22:23Z</time>
      </trkpt>
      <trkpt lat="45.92595" lon="4.73623">
        <ele>173</ele>
        <time>2017-04-29T11:22:24Z</time>
      </trkpt>
      <trkpt lat="45.9259" lon="4.73624">
        <ele>173</ele>
        <time>2017-04-29T11:22:25Z</time>
      </trkpt>
      <trkpt lat="45.92581" lon="4.73625">
        <ele>173</ele>
        <time>2017-04-29T11:22:27Z</time>
      </trkpt>
      <trkpt lat="45.92577" lon="4.73626">
        <ele>173</ele>
        <time>2017-04-29T11:22:28Z</time>
      </trkpt>
      <trkpt lat="45.92572" lon="4.73627">
        <ele>173</ele>
        <time>2017-04-29T11:22:29Z</time>
      </trkpt>
      <trkpt lat="45.92567" lon="4.73629">
        <ele>173</ele>
        <time>2017-04-29T11:22:30Z</time>
      </trkpt>
      <trkpt lat="45.92562" lon="4.7363">
        <ele>173</ele>
        <time>2017-04-29T11:22:31Z</time>
      </trkpt>
      <trkpt lat="45.92557" lon="4.73632">
        <ele>173</ele>
        <time>2017-04-29T11:22:32Z</time>
      </trkpt>
      <trkpt lat="45.92552" lon="4.73633">
        <ele>173</ele>
        <time>2017-04-29T11:22:33Z</time>
      </trkpt>
      <trkpt lat="45.92547" lon="4.73634">
        <ele>173</ele>
        <time>2017-04-29T11:22:34Z</time>
      </trkpt>
      <trkpt lat="45.92542" lon="4.73636">
        <ele>173</ele>
        <time>2017-04-29T11:22:35Z</time>
      </trkpt>
      <trkpt lat="45.92537" lon="4.73638">
        <ele>173</ele>
        <time>2017-04-29T11:22:36Z</time>
      </trkpt>
      <trkpt lat="45.92531" lon="4.73639">
        <ele>173</ele>
        <time>2017-04-29T11:22:37Z</time>
      </trkpt>
      <trkpt lat="45.92526" lon="4.7364">
        <ele>173</ele>
        <time>2017-04-29T11:22:38Z</time>
      </trkpt>
      <trkpt lat="45.92521" lon="4.7364">
        <ele>173</ele>
        <time>2017-04-29T11:22:39Z</time>
      </trkpt>
      <trkpt lat="45.92517" lon="4.7364">
        <ele>173</ele>
        <time>2017-04-29T11:22:40Z</time>
      </trkpt>
      <trkpt lat="45.92508" lon="4.73641">
        <ele>174</ele>
        <time>2017-04-29T11:22:42Z</time>
      </trkpt>
      <trkpt lat="45.92504" lon="4.73642">
        <ele>174</ele>
        <time>2017-04-29T11:22:43Z</time>
      </trkpt>
      <trkpt lat="45.92499" lon="4.73643">
        <ele>174</ele>
        <time>2017-04-29T11:22:44Z</time>
      </trkpt>
      <trkpt lat="45.92494" lon="4.73644">
        <ele>174</ele>
        <time>2017-04-29T11:22:45Z</time>
      </trkpt>
      <trkpt lat="45.92486" lon="4.73642">
        <ele>174</ele>
        <time>2017-04-29T11:22:47Z</time>
      </trkpt>
      <trkpt lat="45.92481" lon="4.73643">
        <ele>174</ele>
        <time>2017-04-29T11:22:48Z</time>
      </trkpt>
      <trkpt lat="45.92473" lon="4.73647">
        <ele>174</ele>
        <time>2017-04-29T11:22:50Z</time>
      </trkpt>
      <trkpt lat="45.92471" lon="4.73652">
        <ele>174</ele>
        <time>2017-04-29T11:22:51Z</time>
      </trkpt>
      <trkpt lat="45.92469" lon="4.73663">
        <ele>174</ele>
        <time>2017-04-29T11:22:53Z</time>
      </trkpt>
      <trkpt lat="45.92469" lon="4.73668">
        <ele>174</ele>
        <time>2017-04-29T11:22:54Z</time>
      </trkpt>
      <trkpt lat="45.92468" lon="4.73679">
        <ele>174</ele>
        <time>2017-04-29T11:22:56Z</time>
      </trkpt>
      <trkpt lat="45.92467" lon="4.73685">
        <ele>174</ele>
        <time>2017-04-29T11:22:57Z</time>
      </trkpt>
      <trkpt lat="45.92465" lon="4.73695">
        <ele>174</ele>
        <time>2017-04-29T11:22:59Z</time>
      </trkpt>
      <trkpt lat="45.92464" lon="4.73699">
        <ele>174</ele>
        <time>2017-04-29T11:23:00Z</time>
      </trkpt>
      <trkpt lat="45.92463" lon="4.73706">
        <ele>174</ele>
        <time>2017-04-29T11:23:02Z</time>
      </trkpt>
      <trkpt lat="45.92464" lon="4.73706">
        <ele>174</ele>
        <time>2017-04-29T11:23:03Z</time>
      </trkpt>
      <trkpt lat="45.9246" lon="4.73708">
        <ele>174</ele>
        <time>2017-04-29T11:23:40.184Z</time>
      </trkpt>
    </trkseg>
  </trk>
</gpx>